<?xml version="1.0" encoding="UTF-8" standalone="no" ?>
<gpx xmlns="http://www.topografix.com/GPX/1/1" xmlns:xsi="http://www.w3.org/2001/XMLSchema-instance" xsi:schemaLocation="http://www.topografix.com/GPX/1/1 http://www.topografix.com/GPX/1/1/gpx.xsd" version="1.1" creator="VisuGPX - https://www.visugpx.com">
  <metadata>
    <name>Saleux </name>
  </metadata>
  <trk>
    <name><![CDATA[Saleux _1]]></name>
    <trkseg>
      <trkpt lat="49.86425" lon="2.22357">
        <ele>58.5</ele>
        <time>2022-12-09T13:09:30Z</time>
      </trkpt>
      <trkpt lat="49.86426" lon="2.22356">
        <ele>58.6</ele>
        <time>2022-12-09T13:09:31Z</time>
      </trkpt>
      <trkpt lat="49.86428" lon="2.22354">
        <ele>58.7</ele>
        <time>2022-12-09T13:09:32Z</time>
      </trkpt>
      <trkpt lat="49.86429" lon="2.22353">
        <ele>58.7</ele>
        <time>2022-12-09T13:09:33Z</time>
      </trkpt>
      <trkpt lat="49.86429" lon="2.22351">
        <ele>58.8</ele>
        <time>2022-12-09T13:09:34Z</time>
      </trkpt>
      <trkpt lat="49.8643" lon="2.2235">
        <ele>58.8</ele>
        <time>2022-12-09T13:09:35Z</time>
      </trkpt>
      <trkpt lat="49.8643" lon="2.22348">
        <ele>58.9</ele>
        <time>2022-12-09T13:09:37Z</time>
      </trkpt>
      <trkpt lat="49.86431" lon="2.22346">
        <ele>58.9</ele>
        <time>2022-12-09T13:09:38Z</time>
      </trkpt>
      <trkpt lat="49.86431" lon="2.22344">
        <ele>59</ele>
        <time>2022-12-09T13:09:39Z</time>
      </trkpt>
      <trkpt lat="49.86431" lon="2.22342">
        <ele>59.1</ele>
        <time>2022-12-09T13:09:40Z</time>
      </trkpt>
      <trkpt lat="49.8643" lon="2.2234">
        <ele>59.1</ele>
        <time>2022-12-09T13:09:41Z</time>
      </trkpt>
      <trkpt lat="49.86429" lon="2.22338">
        <ele>59.3</ele>
        <time>2022-12-09T13:09:42Z</time>
      </trkpt>
      <trkpt lat="49.86429" lon="2.22336">
        <ele>59.3</ele>
        <time>2022-12-09T13:09:43Z</time>
      </trkpt>
      <trkpt lat="49.86428" lon="2.22333">
        <ele>59.4</ele>
        <time>2022-12-09T13:09:45Z</time>
      </trkpt>
      <trkpt lat="49.86428" lon="2.22331">
        <ele>59.4</ele>
        <time>2022-12-09T13:09:46Z</time>
      </trkpt>
      <trkpt lat="49.86428" lon="2.22329">
        <ele>59.5</ele>
        <time>2022-12-09T13:09:47Z</time>
      </trkpt>
      <trkpt lat="49.86429" lon="2.22327">
        <ele>59.5</ele>
        <time>2022-12-09T13:09:48Z</time>
      </trkpt>
      <trkpt lat="49.8643" lon="2.22325">
        <ele>59.5</ele>
        <time>2022-12-09T13:09:49Z</time>
      </trkpt>
      <trkpt lat="49.8643" lon="2.22323">
        <ele>59.6</ele>
        <time>2022-12-09T13:09:50Z</time>
      </trkpt>
      <trkpt lat="49.86431" lon="2.22322">
        <ele>59.6</ele>
        <time>2022-12-09T13:09:51Z</time>
      </trkpt>
      <trkpt lat="49.86432" lon="2.2232">
        <ele>59.7</ele>
        <time>2022-12-09T13:09:53Z</time>
      </trkpt>
      <trkpt lat="49.86434" lon="2.22318">
        <ele>59.7</ele>
        <time>2022-12-09T13:09:54Z</time>
      </trkpt>
      <trkpt lat="49.86435" lon="2.22317">
        <ele>59.8</ele>
        <time>2022-12-09T13:09:55Z</time>
      </trkpt>
      <trkpt lat="49.86436" lon="2.22317">
        <ele>59.8</ele>
        <time>2022-12-09T13:09:56Z</time>
      </trkpt>
      <trkpt lat="49.86437" lon="2.22316">
        <ele>59.8</ele>
        <time>2022-12-09T13:09:57Z</time>
      </trkpt>
      <trkpt lat="49.86438" lon="2.22316">
        <ele>59.8</ele>
        <time>2022-12-09T13:09:58Z</time>
      </trkpt>
      <trkpt lat="49.86439" lon="2.22315">
        <ele>59.9</ele>
        <time>2022-12-09T13:10:00Z</time>
      </trkpt>
      <trkpt lat="49.8644" lon="2.22313">
        <ele>59.9</ele>
        <time>2022-12-09T13:10:01Z</time>
      </trkpt>
      <trkpt lat="49.86441" lon="2.22312">
        <ele>59.9</ele>
        <time>2022-12-09T13:10:02Z</time>
      </trkpt>
      <trkpt lat="49.86442" lon="2.22311">
        <ele>60</ele>
        <time>2022-12-09T13:10:03Z</time>
      </trkpt>
      <trkpt lat="49.86443" lon="2.22311">
        <ele>60</ele>
        <time>2022-12-09T13:10:04Z</time>
      </trkpt>
      <trkpt lat="49.86444" lon="2.2231">
        <ele>60</ele>
        <time>2022-12-09T13:10:05Z</time>
      </trkpt>
      <trkpt lat="49.86446" lon="2.22311">
        <ele>60.1</ele>
        <time>2022-12-09T13:10:07Z</time>
      </trkpt>
      <trkpt lat="49.86447" lon="2.22311">
        <ele>60.1</ele>
        <time>2022-12-09T13:10:08Z</time>
      </trkpt>
      <trkpt lat="49.86448" lon="2.22312">
        <ele>60.1</ele>
        <time>2022-12-09T13:10:09Z</time>
      </trkpt>
      <trkpt lat="49.86449" lon="2.22313">
        <ele>60.2</ele>
        <time>2022-12-09T13:10:10Z</time>
      </trkpt>
      <trkpt lat="49.86449" lon="2.22315">
        <ele>60.2</ele>
        <time>2022-12-09T13:10:11Z</time>
      </trkpt>
      <trkpt lat="49.86449" lon="2.22315">
        <ele>60.2</ele>
        <time>2022-12-09T13:10:13Z</time>
      </trkpt>
      <trkpt lat="49.8645" lon="2.22315">
        <ele>60.2</ele>
        <time>2022-12-09T13:10:14Z</time>
      </trkpt>
      <trkpt lat="49.8645" lon="2.22314">
        <ele>60.2</ele>
        <time>2022-12-09T13:10:15Z</time>
      </trkpt>
      <trkpt lat="49.86451" lon="2.22314">
        <ele>60.3</ele>
        <time>2022-12-09T13:10:16Z</time>
      </trkpt>
      <trkpt lat="49.86452" lon="2.22314">
        <ele>60.3</ele>
        <time>2022-12-09T13:10:17Z</time>
      </trkpt>
      <trkpt lat="49.86454" lon="2.22314">
        <ele>60.3</ele>
        <time>2022-12-09T13:10:18Z</time>
      </trkpt>
      <trkpt lat="49.86455" lon="2.22314">
        <ele>60.4</ele>
        <time>2022-12-09T13:10:20Z</time>
      </trkpt>
      <trkpt lat="49.86455" lon="2.22313">
        <ele>60.4</ele>
        <time>2022-12-09T13:10:21Z</time>
      </trkpt>
      <trkpt lat="49.86456" lon="2.22312">
        <ele>60.4</ele>
        <time>2022-12-09T13:10:22Z</time>
      </trkpt>
      <trkpt lat="49.86457" lon="2.22312">
        <ele>60.4</ele>
        <time>2022-12-09T13:10:23Z</time>
      </trkpt>
      <trkpt lat="49.86458" lon="2.22312">
        <ele>60.5</ele>
        <time>2022-12-09T13:10:24Z</time>
      </trkpt>
      <trkpt lat="49.8646" lon="2.22312">
        <ele>60.5</ele>
        <time>2022-12-09T13:10:25Z</time>
      </trkpt>
      <trkpt lat="49.86462" lon="2.22311">
        <ele>60.5</ele>
        <time>2022-12-09T13:10:27Z</time>
      </trkpt>
      <trkpt lat="49.86463" lon="2.22311">
        <ele>60.6</ele>
        <time>2022-12-09T13:10:28Z</time>
      </trkpt>
      <trkpt lat="49.86464" lon="2.2231">
        <ele>60.6</ele>
        <time>2022-12-09T13:10:29Z</time>
      </trkpt>
      <trkpt lat="49.86467" lon="2.2231">
        <ele>60.7</ele>
        <time>2022-12-09T13:10:30Z</time>
      </trkpt>
      <trkpt lat="49.86468" lon="2.2231">
        <ele>60.7</ele>
        <time>2022-12-09T13:10:31Z</time>
      </trkpt>
      <trkpt lat="49.86471" lon="2.22309">
        <ele>60.8</ele>
        <time>2022-12-09T13:10:32Z</time>
      </trkpt>
      <trkpt lat="49.86472" lon="2.22309">
        <ele>60.8</ele>
        <time>2022-12-09T13:10:33Z</time>
      </trkpt>
      <trkpt lat="49.86474" lon="2.22309">
        <ele>60.9</ele>
        <time>2022-12-09T13:10:34Z</time>
      </trkpt>
      <trkpt lat="49.86475" lon="2.22308">
        <ele>60.9</ele>
        <time>2022-12-09T13:10:35Z</time>
      </trkpt>
      <trkpt lat="49.86477" lon="2.22308">
        <ele>61</ele>
        <time>2022-12-09T13:10:36Z</time>
      </trkpt>
      <trkpt lat="49.86478" lon="2.22307">
        <ele>61</ele>
        <time>2022-12-09T13:10:37Z</time>
      </trkpt>
      <trkpt lat="49.8648" lon="2.22307">
        <ele>61.1</ele>
        <time>2022-12-09T13:10:39Z</time>
      </trkpt>
      <trkpt lat="49.86481" lon="2.22307">
        <ele>61.1</ele>
        <time>2022-12-09T13:10:40Z</time>
      </trkpt>
      <trkpt lat="49.86483" lon="2.22307">
        <ele>61.2</ele>
        <time>2022-12-09T13:10:41Z</time>
      </trkpt>
      <trkpt lat="49.86484" lon="2.22306">
        <ele>61.2</ele>
        <time>2022-12-09T13:10:42Z</time>
      </trkpt>
      <trkpt lat="49.86485" lon="2.22306">
        <ele>61.2</ele>
        <time>2022-12-09T13:10:43Z</time>
      </trkpt>
      <trkpt lat="49.86486" lon="2.22306">
        <ele>61.3</ele>
        <time>2022-12-09T13:10:45Z</time>
      </trkpt>
      <trkpt lat="49.86488" lon="2.22306">
        <ele>61.3</ele>
        <time>2022-12-09T13:10:46Z</time>
      </trkpt>
      <trkpt lat="49.86489" lon="2.22306">
        <ele>61.4</ele>
        <time>2022-12-09T13:10:47Z</time>
      </trkpt>
      <trkpt lat="49.86491" lon="2.22305">
        <ele>61.4</ele>
        <time>2022-12-09T13:10:48Z</time>
      </trkpt>
      <trkpt lat="49.86492" lon="2.22305">
        <ele>61.5</ele>
        <time>2022-12-09T13:10:49Z</time>
      </trkpt>
      <trkpt lat="49.86494" lon="2.22305">
        <ele>61.5</ele>
        <time>2022-12-09T13:10:50Z</time>
      </trkpt>
      <trkpt lat="49.86496" lon="2.22305">
        <ele>61.6</ele>
        <time>2022-12-09T13:10:51Z</time>
      </trkpt>
      <trkpt lat="49.86497" lon="2.22305">
        <ele>61.6</ele>
        <time>2022-12-09T13:10:52Z</time>
      </trkpt>
      <trkpt lat="49.86498" lon="2.22305">
        <ele>61.6</ele>
        <time>2022-12-09T13:10:53Z</time>
      </trkpt>
      <trkpt lat="49.865" lon="2.22304">
        <ele>61.7</ele>
        <time>2022-12-09T13:10:55Z</time>
      </trkpt>
      <trkpt lat="49.865" lon="2.22304">
        <ele>61.7</ele>
        <time>2022-12-09T13:10:56Z</time>
      </trkpt>
      <trkpt lat="49.86501" lon="2.22304">
        <ele>61.8</ele>
        <time>2022-12-09T13:10:57Z</time>
      </trkpt>
      <trkpt lat="49.86502" lon="2.22304">
        <ele>61.8</ele>
        <time>2022-12-09T13:10:58Z</time>
      </trkpt>
      <trkpt lat="49.86503" lon="2.22303">
        <ele>61.8</ele>
        <time>2022-12-09T13:10:59Z</time>
      </trkpt>
      <trkpt lat="49.86504" lon="2.22303">
        <ele>61.9</ele>
        <time>2022-12-09T13:11:00Z</time>
      </trkpt>
      <trkpt lat="49.86505" lon="2.22302">
        <ele>61.9</ele>
        <time>2022-12-09T13:11:01Z</time>
      </trkpt>
      <trkpt lat="49.86506" lon="2.22302">
        <ele>61.9</ele>
        <time>2022-12-09T13:11:02Z</time>
      </trkpt>
      <trkpt lat="49.86507" lon="2.22301">
        <ele>62</ele>
        <time>2022-12-09T13:11:03Z</time>
      </trkpt>
      <trkpt lat="49.86508" lon="2.223">
        <ele>62</ele>
        <time>2022-12-09T13:11:04Z</time>
      </trkpt>
      <trkpt lat="49.86509" lon="2.223">
        <ele>62</ele>
        <time>2022-12-09T13:11:05Z</time>
      </trkpt>
      <trkpt lat="49.8651" lon="2.22299">
        <ele>62.1</ele>
        <time>2022-12-09T13:11:06Z</time>
      </trkpt>
      <trkpt lat="49.86512" lon="2.22298">
        <ele>62.1</ele>
        <time>2022-12-09T13:11:08Z</time>
      </trkpt>
      <trkpt lat="49.86513" lon="2.22297">
        <ele>62.2</ele>
        <time>2022-12-09T13:11:09Z</time>
      </trkpt>
      <trkpt lat="49.86514" lon="2.22297">
        <ele>62.2</ele>
        <time>2022-12-09T13:11:10Z</time>
      </trkpt>
      <trkpt lat="49.86514" lon="2.22297">
        <ele>62.2</ele>
        <time>2022-12-09T13:11:11Z</time>
      </trkpt>
      <trkpt lat="49.86516" lon="2.22297">
        <ele>62.3</ele>
        <time>2022-12-09T13:11:12Z</time>
      </trkpt>
      <trkpt lat="49.86517" lon="2.22296">
        <ele>62.3</ele>
        <time>2022-12-09T13:11:13Z</time>
      </trkpt>
      <trkpt lat="49.86518" lon="2.22296">
        <ele>62.3</ele>
        <time>2022-12-09T13:11:14Z</time>
      </trkpt>
      <trkpt lat="49.86519" lon="2.22296">
        <ele>62.4</ele>
        <time>2022-12-09T13:11:15Z</time>
      </trkpt>
      <trkpt lat="49.8652" lon="2.22296">
        <ele>62.4</ele>
        <time>2022-12-09T13:11:16Z</time>
      </trkpt>
      <trkpt lat="49.86521" lon="2.22296">
        <ele>62.5</ele>
        <time>2022-12-09T13:11:17Z</time>
      </trkpt>
      <trkpt lat="49.86522" lon="2.22296">
        <ele>62.5</ele>
        <time>2022-12-09T13:11:18Z</time>
      </trkpt>
      <trkpt lat="49.86523" lon="2.22295">
        <ele>62.5</ele>
        <time>2022-12-09T13:11:20Z</time>
      </trkpt>
      <trkpt lat="49.86524" lon="2.22295">
        <ele>62.6</ele>
        <time>2022-12-09T13:11:21Z</time>
      </trkpt>
      <trkpt lat="49.86525" lon="2.22295">
        <ele>62.6</ele>
        <time>2022-12-09T13:11:22Z</time>
      </trkpt>
      <trkpt lat="49.86526" lon="2.22295">
        <ele>62.6</ele>
        <time>2022-12-09T13:11:23Z</time>
      </trkpt>
      <trkpt lat="49.86527" lon="2.22295">
        <ele>62.7</ele>
        <time>2022-12-09T13:11:24Z</time>
      </trkpt>
      <trkpt lat="49.86528" lon="2.22295">
        <ele>62.7</ele>
        <time>2022-12-09T13:11:25Z</time>
      </trkpt>
      <trkpt lat="49.86529" lon="2.22295">
        <ele>62.8</ele>
        <time>2022-12-09T13:11:26Z</time>
      </trkpt>
      <trkpt lat="49.86531" lon="2.22294">
        <ele>62.8</ele>
        <time>2022-12-09T13:11:27Z</time>
      </trkpt>
      <trkpt lat="49.86532" lon="2.22295">
        <ele>62.8</ele>
        <time>2022-12-09T13:11:28Z</time>
      </trkpt>
      <trkpt lat="49.86533" lon="2.22295">
        <ele>62.9</ele>
        <time>2022-12-09T13:11:30Z</time>
      </trkpt>
      <trkpt lat="49.86534" lon="2.22294">
        <ele>62.9</ele>
        <time>2022-12-09T13:11:31Z</time>
      </trkpt>
      <trkpt lat="49.86535" lon="2.22294">
        <ele>63</ele>
        <time>2022-12-09T13:11:32Z</time>
      </trkpt>
      <trkpt lat="49.86536" lon="2.22294">
        <ele>63</ele>
        <time>2022-12-09T13:11:33Z</time>
      </trkpt>
      <trkpt lat="49.86538" lon="2.22294">
        <ele>63.1</ele>
        <time>2022-12-09T13:11:34Z</time>
      </trkpt>
      <trkpt lat="49.86539" lon="2.22294">
        <ele>63.1</ele>
        <time>2022-12-09T13:11:35Z</time>
      </trkpt>
      <trkpt lat="49.8654" lon="2.22293">
        <ele>63.1</ele>
        <time>2022-12-09T13:11:36Z</time>
      </trkpt>
      <trkpt lat="49.86542" lon="2.22292">
        <ele>63.2</ele>
        <time>2022-12-09T13:11:37Z</time>
      </trkpt>
      <trkpt lat="49.86543" lon="2.22292">
        <ele>63.2</ele>
        <time>2022-12-09T13:11:38Z</time>
      </trkpt>
      <trkpt lat="49.86544" lon="2.22292">
        <ele>63.2</ele>
        <time>2022-12-09T13:11:39Z</time>
      </trkpt>
      <trkpt lat="49.86545" lon="2.22291">
        <ele>63.3</ele>
        <time>2022-12-09T13:11:40Z</time>
      </trkpt>
      <trkpt lat="49.86546" lon="2.22291">
        <ele>63.3</ele>
        <time>2022-12-09T13:11:42Z</time>
      </trkpt>
      <trkpt lat="49.86547" lon="2.2229">
        <ele>63.4</ele>
        <time>2022-12-09T13:11:43Z</time>
      </trkpt>
      <trkpt lat="49.86548" lon="2.2229">
        <ele>63.4</ele>
        <time>2022-12-09T13:11:44Z</time>
      </trkpt>
      <trkpt lat="49.86549" lon="2.2229">
        <ele>63.4</ele>
        <time>2022-12-09T13:11:45Z</time>
      </trkpt>
      <trkpt lat="49.8655" lon="2.2229">
        <ele>63.5</ele>
        <time>2022-12-09T13:11:46Z</time>
      </trkpt>
      <trkpt lat="49.86551" lon="2.2229">
        <ele>63.5</ele>
        <time>2022-12-09T13:11:47Z</time>
      </trkpt>
      <trkpt lat="49.86552" lon="2.2229">
        <ele>63.5</ele>
        <time>2022-12-09T13:11:48Z</time>
      </trkpt>
      <trkpt lat="49.86553" lon="2.2229">
        <ele>63.6</ele>
        <time>2022-12-09T13:11:50Z</time>
      </trkpt>
      <trkpt lat="49.86554" lon="2.22289">
        <ele>63.6</ele>
        <time>2022-12-09T13:11:51Z</time>
      </trkpt>
      <trkpt lat="49.86555" lon="2.22289">
        <ele>63.6</ele>
        <time>2022-12-09T13:11:52Z</time>
      </trkpt>
      <trkpt lat="49.86556" lon="2.22289">
        <ele>63.7</ele>
        <time>2022-12-09T13:11:53Z</time>
      </trkpt>
      <trkpt lat="49.86558" lon="2.22289">
        <ele>63.7</ele>
        <time>2022-12-09T13:11:54Z</time>
      </trkpt>
      <trkpt lat="49.86559" lon="2.22289">
        <ele>63.8</ele>
        <time>2022-12-09T13:11:55Z</time>
      </trkpt>
      <trkpt lat="49.8656" lon="2.22289">
        <ele>63.8</ele>
        <time>2022-12-09T13:11:56Z</time>
      </trkpt>
      <trkpt lat="49.86562" lon="2.22289">
        <ele>63.9</ele>
        <time>2022-12-09T13:11:57Z</time>
      </trkpt>
      <trkpt lat="49.86563" lon="2.22289">
        <ele>63.9</ele>
        <time>2022-12-09T13:11:59Z</time>
      </trkpt>
      <trkpt lat="49.86564" lon="2.22288">
        <ele>63.9</ele>
        <time>2022-12-09T13:12:00Z</time>
      </trkpt>
      <trkpt lat="49.86565" lon="2.22289">
        <ele>63.9</ele>
        <time>2022-12-09T13:12:01Z</time>
      </trkpt>
      <trkpt lat="49.86566" lon="2.22289">
        <ele>64</ele>
        <time>2022-12-09T13:12:02Z</time>
      </trkpt>
      <trkpt lat="49.86567" lon="2.22288">
        <ele>64</ele>
        <time>2022-12-09T13:12:03Z</time>
      </trkpt>
      <trkpt lat="49.86569" lon="2.22289">
        <ele>64.1</ele>
        <time>2022-12-09T13:12:04Z</time>
      </trkpt>
      <trkpt lat="49.8657" lon="2.22289">
        <ele>64.1</ele>
        <time>2022-12-09T13:12:05Z</time>
      </trkpt>
      <trkpt lat="49.86571" lon="2.22289">
        <ele>64.1</ele>
        <time>2022-12-09T13:12:06Z</time>
      </trkpt>
      <trkpt lat="49.86573" lon="2.22289">
        <ele>64.2</ele>
        <time>2022-12-09T13:12:08Z</time>
      </trkpt>
      <trkpt lat="49.86574" lon="2.22289">
        <ele>64.2</ele>
        <time>2022-12-09T13:12:09Z</time>
      </trkpt>
      <trkpt lat="49.86575" lon="2.2229">
        <ele>64.2</ele>
        <time>2022-12-09T13:12:10Z</time>
      </trkpt>
      <trkpt lat="49.86576" lon="2.2229">
        <ele>64.3</ele>
        <time>2022-12-09T13:12:11Z</time>
      </trkpt>
      <trkpt lat="49.86577" lon="2.22289">
        <ele>64.3</ele>
        <time>2022-12-09T13:12:12Z</time>
      </trkpt>
      <trkpt lat="49.86578" lon="2.22289">
        <ele>64.3</ele>
        <time>2022-12-09T13:12:13Z</time>
      </trkpt>
      <trkpt lat="49.86579" lon="2.22289">
        <ele>64.4</ele>
        <time>2022-12-09T13:12:14Z</time>
      </trkpt>
      <trkpt lat="49.8658" lon="2.22289">
        <ele>64.4</ele>
        <time>2022-12-09T13:12:16Z</time>
      </trkpt>
      <trkpt lat="49.86581" lon="2.22289">
        <ele>64.4</ele>
        <time>2022-12-09T13:12:17Z</time>
      </trkpt>
      <trkpt lat="49.86582" lon="2.22289">
        <ele>64.5</ele>
        <time>2022-12-09T13:12:18Z</time>
      </trkpt>
      <trkpt lat="49.86583" lon="2.22289">
        <ele>64.5</ele>
        <time>2022-12-09T13:12:19Z</time>
      </trkpt>
      <trkpt lat="49.86584" lon="2.22289">
        <ele>64.5</ele>
        <time>2022-12-09T13:12:20Z</time>
      </trkpt>
      <trkpt lat="49.86586" lon="2.22289">
        <ele>64.6</ele>
        <time>2022-12-09T13:12:21Z</time>
      </trkpt>
      <trkpt lat="49.86587" lon="2.22289">
        <ele>64.6</ele>
        <time>2022-12-09T13:12:22Z</time>
      </trkpt>
      <trkpt lat="49.86588" lon="2.22289">
        <ele>64.6</ele>
        <time>2022-12-09T13:12:24Z</time>
      </trkpt>
      <trkpt lat="49.8659" lon="2.22288">
        <ele>64.7</ele>
        <time>2022-12-09T13:12:25Z</time>
      </trkpt>
      <trkpt lat="49.86591" lon="2.22288">
        <ele>64.7</ele>
        <time>2022-12-09T13:12:26Z</time>
      </trkpt>
      <trkpt lat="49.86592" lon="2.22288">
        <ele>64.7</ele>
        <time>2022-12-09T13:12:27Z</time>
      </trkpt>
      <trkpt lat="49.86593" lon="2.22287">
        <ele>64.7</ele>
        <time>2022-12-09T13:12:28Z</time>
      </trkpt>
      <trkpt lat="49.86594" lon="2.22287">
        <ele>64.8</ele>
        <time>2022-12-09T13:12:29Z</time>
      </trkpt>
      <trkpt lat="49.86595" lon="2.22287">
        <ele>64.8</ele>
        <time>2022-12-09T13:12:30Z</time>
      </trkpt>
      <trkpt lat="49.86597" lon="2.22287">
        <ele>64.9</ele>
        <time>2022-12-09T13:12:31Z</time>
      </trkpt>
      <trkpt lat="49.86598" lon="2.22287">
        <ele>64.9</ele>
        <time>2022-12-09T13:12:33Z</time>
      </trkpt>
      <trkpt lat="49.86599" lon="2.22286">
        <ele>64.9</ele>
        <time>2022-12-09T13:12:34Z</time>
      </trkpt>
      <trkpt lat="49.866" lon="2.22286">
        <ele>64.9</ele>
        <time>2022-12-09T13:12:35Z</time>
      </trkpt>
      <trkpt lat="49.86601" lon="2.22286">
        <ele>65</ele>
        <time>2022-12-09T13:12:36Z</time>
      </trkpt>
      <trkpt lat="49.86602" lon="2.22286">
        <ele>65</ele>
        <time>2022-12-09T13:12:37Z</time>
      </trkpt>
      <trkpt lat="49.86604" lon="2.22286">
        <ele>65.1</ele>
        <time>2022-12-09T13:12:38Z</time>
      </trkpt>
      <trkpt lat="49.86605" lon="2.22286">
        <ele>65.1</ele>
        <time>2022-12-09T13:12:39Z</time>
      </trkpt>
      <trkpt lat="49.86607" lon="2.22285">
        <ele>65.2</ele>
        <time>2022-12-09T13:12:40Z</time>
      </trkpt>
      <trkpt lat="49.86608" lon="2.22285">
        <ele>65.2</ele>
        <time>2022-12-09T13:12:42Z</time>
      </trkpt>
      <trkpt lat="49.86609" lon="2.22285">
        <ele>65.2</ele>
        <time>2022-12-09T13:12:43Z</time>
      </trkpt>
      <trkpt lat="49.8661" lon="2.22284">
        <ele>65.2</ele>
        <time>2022-12-09T13:12:44Z</time>
      </trkpt>
      <trkpt lat="49.86611" lon="2.22284">
        <ele>65.3</ele>
        <time>2022-12-09T13:12:45Z</time>
      </trkpt>
      <trkpt lat="49.86614" lon="2.22283">
        <ele>65.3</ele>
        <time>2022-12-09T13:12:46Z</time>
      </trkpt>
      <trkpt lat="49.86614" lon="2.22283">
        <ele>65.4</ele>
        <time>2022-12-09T13:12:47Z</time>
      </trkpt>
      <trkpt lat="49.86615" lon="2.22283">
        <ele>65.4</ele>
        <time>2022-12-09T13:12:48Z</time>
      </trkpt>
      <trkpt lat="49.86617" lon="2.22282">
        <ele>65.4</ele>
        <time>2022-12-09T13:12:50Z</time>
      </trkpt>
      <trkpt lat="49.86618" lon="2.22282">
        <ele>65.5</ele>
        <time>2022-12-09T13:12:51Z</time>
      </trkpt>
      <trkpt lat="49.86619" lon="2.22282">
        <ele>65.5</ele>
        <time>2022-12-09T13:12:52Z</time>
      </trkpt>
      <trkpt lat="49.8662" lon="2.22281">
        <ele>65.5</ele>
        <time>2022-12-09T13:12:53Z</time>
      </trkpt>
      <trkpt lat="49.86621" lon="2.22281">
        <ele>65.5</ele>
        <time>2022-12-09T13:12:54Z</time>
      </trkpt>
      <trkpt lat="49.86622" lon="2.2228">
        <ele>65.6</ele>
        <time>2022-12-09T13:12:55Z</time>
      </trkpt>
      <trkpt lat="49.86623" lon="2.2228">
        <ele>65.6</ele>
        <time>2022-12-09T13:12:56Z</time>
      </trkpt>
      <trkpt lat="49.86624" lon="2.2228">
        <ele>65.6</ele>
        <time>2022-12-09T13:12:57Z</time>
      </trkpt>
      <trkpt lat="49.86625" lon="2.2228">
        <ele>65.7</ele>
        <time>2022-12-09T13:12:58Z</time>
      </trkpt>
      <trkpt lat="49.86626" lon="2.2228">
        <ele>65.7</ele>
        <time>2022-12-09T13:13:00Z</time>
      </trkpt>
      <trkpt lat="49.86627" lon="2.2228">
        <ele>65.7</ele>
        <time>2022-12-09T13:13:01Z</time>
      </trkpt>
      <trkpt lat="49.86628" lon="2.22279">
        <ele>65.7</ele>
        <time>2022-12-09T13:13:02Z</time>
      </trkpt>
      <trkpt lat="49.86629" lon="2.2228">
        <ele>65.8</ele>
        <time>2022-12-09T13:13:03Z</time>
      </trkpt>
      <trkpt lat="49.8663" lon="2.2228">
        <ele>65.8</ele>
        <time>2022-12-09T13:13:04Z</time>
      </trkpt>
      <trkpt lat="49.86632" lon="2.2228">
        <ele>65.8</ele>
        <time>2022-12-09T13:13:05Z</time>
      </trkpt>
      <trkpt lat="49.86633" lon="2.2228">
        <ele>65.9</ele>
        <time>2022-12-09T13:13:06Z</time>
      </trkpt>
      <trkpt lat="49.86634" lon="2.2228">
        <ele>65.9</ele>
        <time>2022-12-09T13:13:07Z</time>
      </trkpt>
      <trkpt lat="49.86635" lon="2.2228">
        <ele>65.9</ele>
        <time>2022-12-09T13:13:09Z</time>
      </trkpt>
      <trkpt lat="49.86636" lon="2.2228">
        <ele>65.9</ele>
        <time>2022-12-09T13:13:10Z</time>
      </trkpt>
      <trkpt lat="49.86637" lon="2.2228">
        <ele>66</ele>
        <time>2022-12-09T13:13:11Z</time>
      </trkpt>
      <trkpt lat="49.86638" lon="2.2228">
        <ele>66</ele>
        <time>2022-12-09T13:13:12Z</time>
      </trkpt>
      <trkpt lat="49.8664" lon="2.22279">
        <ele>66</ele>
        <time>2022-12-09T13:13:13Z</time>
      </trkpt>
      <trkpt lat="49.86641" lon="2.22279">
        <ele>66.1</ele>
        <time>2022-12-09T13:13:14Z</time>
      </trkpt>
      <trkpt lat="49.86642" lon="2.22279">
        <ele>66.1</ele>
        <time>2022-12-09T13:13:15Z</time>
      </trkpt>
      <trkpt lat="49.86644" lon="2.22278">
        <ele>66.1</ele>
        <time>2022-12-09T13:13:16Z</time>
      </trkpt>
      <trkpt lat="49.86645" lon="2.22278">
        <ele>66.2</ele>
        <time>2022-12-09T13:13:18Z</time>
      </trkpt>
      <trkpt lat="49.86646" lon="2.22277">
        <ele>66.2</ele>
        <time>2022-12-09T13:13:19Z</time>
      </trkpt>
      <trkpt lat="49.86647" lon="2.22277">
        <ele>66.2</ele>
        <time>2022-12-09T13:13:20Z</time>
      </trkpt>
      <trkpt lat="49.86648" lon="2.22277">
        <ele>66.2</ele>
        <time>2022-12-09T13:13:21Z</time>
      </trkpt>
      <trkpt lat="49.86649" lon="2.22276">
        <ele>66.3</ele>
        <time>2022-12-09T13:13:22Z</time>
      </trkpt>
      <trkpt lat="49.86651" lon="2.22275">
        <ele>66.3</ele>
        <time>2022-12-09T13:13:23Z</time>
      </trkpt>
      <trkpt lat="49.86652" lon="2.22275">
        <ele>66.3</ele>
        <time>2022-12-09T13:13:24Z</time>
      </trkpt>
      <trkpt lat="49.86653" lon="2.22275">
        <ele>66.4</ele>
        <time>2022-12-09T13:13:25Z</time>
      </trkpt>
      <trkpt lat="49.86655" lon="2.22274">
        <ele>66.4</ele>
        <time>2022-12-09T13:13:27Z</time>
      </trkpt>
      <trkpt lat="49.86656" lon="2.22274">
        <ele>66.4</ele>
        <time>2022-12-09T13:13:28Z</time>
      </trkpt>
      <trkpt lat="49.86657" lon="2.22274">
        <ele>66.5</ele>
        <time>2022-12-09T13:13:29Z</time>
      </trkpt>
      <trkpt lat="49.86659" lon="2.22274">
        <ele>66.5</ele>
        <time>2022-12-09T13:13:30Z</time>
      </trkpt>
      <trkpt lat="49.86659" lon="2.22273">
        <ele>66.5</ele>
        <time>2022-12-09T13:13:31Z</time>
      </trkpt>
      <trkpt lat="49.8666" lon="2.22273">
        <ele>66.5</ele>
        <time>2022-12-09T13:13:32Z</time>
      </trkpt>
      <trkpt lat="49.86662" lon="2.22273">
        <ele>66.6</ele>
        <time>2022-12-09T13:13:33Z</time>
      </trkpt>
      <trkpt lat="49.86663" lon="2.22273">
        <ele>66.6</ele>
        <time>2022-12-09T13:13:34Z</time>
      </trkpt>
      <trkpt lat="49.86664" lon="2.22274">
        <ele>66.6</ele>
        <time>2022-12-09T13:13:35Z</time>
      </trkpt>
      <trkpt lat="49.86667" lon="2.22274">
        <ele>66.7</ele>
        <time>2022-12-09T13:13:36Z</time>
      </trkpt>
      <trkpt lat="49.86668" lon="2.22274">
        <ele>66.7</ele>
        <time>2022-12-09T13:13:38Z</time>
      </trkpt>
      <trkpt lat="49.86669" lon="2.22274">
        <ele>66.7</ele>
        <time>2022-12-09T13:13:39Z</time>
      </trkpt>
      <trkpt lat="49.8667" lon="2.22274">
        <ele>66.8</ele>
        <time>2022-12-09T13:13:40Z</time>
      </trkpt>
      <trkpt lat="49.86671" lon="2.22274">
        <ele>66.8</ele>
        <time>2022-12-09T13:13:41Z</time>
      </trkpt>
      <trkpt lat="49.86673" lon="2.22273">
        <ele>66.9</ele>
        <time>2022-12-09T13:13:42Z</time>
      </trkpt>
      <trkpt lat="49.86675" lon="2.22273">
        <ele>66.9</ele>
        <time>2022-12-09T13:13:44Z</time>
      </trkpt>
      <trkpt lat="49.86676" lon="2.22273">
        <ele>66.9</ele>
        <time>2022-12-09T13:13:45Z</time>
      </trkpt>
      <trkpt lat="49.86677" lon="2.22273">
        <ele>66.9</ele>
        <time>2022-12-09T13:13:46Z</time>
      </trkpt>
      <trkpt lat="49.86678" lon="2.22272">
        <ele>67</ele>
        <time>2022-12-09T13:13:47Z</time>
      </trkpt>
      <trkpt lat="49.86679" lon="2.22273">
        <ele>67</ele>
        <time>2022-12-09T13:13:48Z</time>
      </trkpt>
      <trkpt lat="49.8668" lon="2.22272">
        <ele>67</ele>
        <time>2022-12-09T13:13:49Z</time>
      </trkpt>
      <trkpt lat="49.86681" lon="2.22272">
        <ele>67</ele>
        <time>2022-12-09T13:13:50Z</time>
      </trkpt>
      <trkpt lat="49.86683" lon="2.22271">
        <ele>67.1</ele>
        <time>2022-12-09T13:13:51Z</time>
      </trkpt>
      <trkpt lat="49.86683" lon="2.22271">
        <ele>67.1</ele>
        <time>2022-12-09T13:13:52Z</time>
      </trkpt>
      <trkpt lat="49.86684" lon="2.22271">
        <ele>67.1</ele>
        <time>2022-12-09T13:13:54Z</time>
      </trkpt>
      <trkpt lat="49.86685" lon="2.2227">
        <ele>67.1</ele>
        <time>2022-12-09T13:13:55Z</time>
      </trkpt>
      <trkpt lat="49.86686" lon="2.22269">
        <ele>67.2</ele>
        <time>2022-12-09T13:13:56Z</time>
      </trkpt>
      <trkpt lat="49.86687" lon="2.22269">
        <ele>67.2</ele>
        <time>2022-12-09T13:13:57Z</time>
      </trkpt>
      <trkpt lat="49.86688" lon="2.22268">
        <ele>67.2</ele>
        <time>2022-12-09T13:13:58Z</time>
      </trkpt>
      <trkpt lat="49.86689" lon="2.22267">
        <ele>67.2</ele>
        <time>2022-12-09T13:13:59Z</time>
      </trkpt>
      <trkpt lat="49.8669" lon="2.22266">
        <ele>67.3</ele>
        <time>2022-12-09T13:14:00Z</time>
      </trkpt>
      <trkpt lat="49.86691" lon="2.22266">
        <ele>67.3</ele>
        <time>2022-12-09T13:14:01Z</time>
      </trkpt>
      <trkpt lat="49.86693" lon="2.22266">
        <ele>67.3</ele>
        <time>2022-12-09T13:14:03Z</time>
      </trkpt>
      <trkpt lat="49.86694" lon="2.22266">
        <ele>67.3</ele>
        <time>2022-12-09T13:14:04Z</time>
      </trkpt>
      <trkpt lat="49.86694" lon="2.22266">
        <ele>67.4</ele>
        <time>2022-12-09T13:14:05Z</time>
      </trkpt>
      <trkpt lat="49.86696" lon="2.22266">
        <ele>67.4</ele>
        <time>2022-12-09T13:14:06Z</time>
      </trkpt>
      <trkpt lat="49.86697" lon="2.22266">
        <ele>67.4</ele>
        <time>2022-12-09T13:14:07Z</time>
      </trkpt>
      <trkpt lat="49.86698" lon="2.22266">
        <ele>67.4</ele>
        <time>2022-12-09T13:14:08Z</time>
      </trkpt>
      <trkpt lat="49.867" lon="2.22266">
        <ele>67.5</ele>
        <time>2022-12-09T13:14:09Z</time>
      </trkpt>
      <trkpt lat="49.86701" lon="2.22266">
        <ele>67.5</ele>
        <time>2022-12-09T13:14:10Z</time>
      </trkpt>
      <trkpt lat="49.86702" lon="2.22266">
        <ele>67.5</ele>
        <time>2022-12-09T13:14:12Z</time>
      </trkpt>
      <trkpt lat="49.86703" lon="2.22266">
        <ele>67.5</ele>
        <time>2022-12-09T13:14:13Z</time>
      </trkpt>
      <trkpt lat="49.86704" lon="2.22266">
        <ele>67.6</ele>
        <time>2022-12-09T13:14:14Z</time>
      </trkpt>
      <trkpt lat="49.86705" lon="2.22266">
        <ele>67.6</ele>
        <time>2022-12-09T13:14:15Z</time>
      </trkpt>
      <trkpt lat="49.86707" lon="2.22266">
        <ele>67.6</ele>
        <time>2022-12-09T13:14:16Z</time>
      </trkpt>
      <trkpt lat="49.86708" lon="2.22266">
        <ele>67.6</ele>
        <time>2022-12-09T13:14:17Z</time>
      </trkpt>
      <trkpt lat="49.86708" lon="2.22266">
        <ele>67.7</ele>
        <time>2022-12-09T13:14:18Z</time>
      </trkpt>
      <trkpt lat="49.86711" lon="2.22266">
        <ele>67.7</ele>
        <time>2022-12-09T13:14:19Z</time>
      </trkpt>
      <trkpt lat="49.86712" lon="2.22266">
        <ele>67.7</ele>
        <time>2022-12-09T13:14:20Z</time>
      </trkpt>
      <trkpt lat="49.86713" lon="2.22265">
        <ele>67.8</ele>
        <time>2022-12-09T13:14:22Z</time>
      </trkpt>
      <trkpt lat="49.86714" lon="2.22265">
        <ele>67.8</ele>
        <time>2022-12-09T13:14:23Z</time>
      </trkpt>
      <trkpt lat="49.86715" lon="2.22265">
        <ele>67.8</ele>
        <time>2022-12-09T13:14:24Z</time>
      </trkpt>
      <trkpt lat="49.86716" lon="2.22265">
        <ele>67.8</ele>
        <time>2022-12-09T13:14:25Z</time>
      </trkpt>
      <trkpt lat="49.86718" lon="2.22264">
        <ele>67.9</ele>
        <time>2022-12-09T13:14:26Z</time>
      </trkpt>
      <trkpt lat="49.86719" lon="2.22264">
        <ele>67.9</ele>
        <time>2022-12-09T13:14:27Z</time>
      </trkpt>
      <trkpt lat="49.86719" lon="2.22263">
        <ele>67.9</ele>
        <time>2022-12-09T13:14:28Z</time>
      </trkpt>
      <trkpt lat="49.8672" lon="2.22263">
        <ele>67.9</ele>
        <time>2022-12-09T13:14:29Z</time>
      </trkpt>
      <trkpt lat="49.86721" lon="2.22263">
        <ele>68</ele>
        <time>2022-12-09T13:14:31Z</time>
      </trkpt>
      <trkpt lat="49.86723" lon="2.22262">
        <ele>68</ele>
        <time>2022-12-09T13:14:32Z</time>
      </trkpt>
      <trkpt lat="49.86725" lon="2.22261">
        <ele>68.1</ele>
        <time>2022-12-09T13:14:33Z</time>
      </trkpt>
      <trkpt lat="49.86726" lon="2.22261">
        <ele>68.1</ele>
        <time>2022-12-09T13:14:34Z</time>
      </trkpt>
      <trkpt lat="49.86726" lon="2.22261">
        <ele>68.1</ele>
        <time>2022-12-09T13:14:35Z</time>
      </trkpt>
      <trkpt lat="49.86728" lon="2.2226">
        <ele>68.1</ele>
        <time>2022-12-09T13:14:36Z</time>
      </trkpt>
      <trkpt lat="49.86729" lon="2.2226">
        <ele>68.2</ele>
        <time>2022-12-09T13:14:37Z</time>
      </trkpt>
      <trkpt lat="49.8673" lon="2.2226">
        <ele>68.2</ele>
        <time>2022-12-09T13:14:38Z</time>
      </trkpt>
      <trkpt lat="49.86732" lon="2.2226">
        <ele>68.2</ele>
        <time>2022-12-09T13:14:40Z</time>
      </trkpt>
      <trkpt lat="49.86733" lon="2.22259">
        <ele>68.3</ele>
        <time>2022-12-09T13:14:41Z</time>
      </trkpt>
      <trkpt lat="49.86733" lon="2.22259">
        <ele>68.3</ele>
        <time>2022-12-09T13:14:42Z</time>
      </trkpt>
      <trkpt lat="49.86735" lon="2.22259">
        <ele>68.3</ele>
        <time>2022-12-09T13:14:43Z</time>
      </trkpt>
      <trkpt lat="49.86736" lon="2.22258">
        <ele>68.3</ele>
        <time>2022-12-09T13:14:44Z</time>
      </trkpt>
      <trkpt lat="49.86737" lon="2.22258">
        <ele>68.4</ele>
        <time>2022-12-09T13:14:45Z</time>
      </trkpt>
      <trkpt lat="49.86739" lon="2.22257">
        <ele>68.4</ele>
        <time>2022-12-09T13:14:46Z</time>
      </trkpt>
      <trkpt lat="49.8674" lon="2.22257">
        <ele>68.5</ele>
        <time>2022-12-09T13:14:47Z</time>
      </trkpt>
      <trkpt lat="49.86741" lon="2.22257">
        <ele>68.5</ele>
        <time>2022-12-09T13:14:49Z</time>
      </trkpt>
      <trkpt lat="49.86742" lon="2.22257">
        <ele>68.5</ele>
        <time>2022-12-09T13:14:50Z</time>
      </trkpt>
      <trkpt lat="49.86743" lon="2.22257">
        <ele>68.5</ele>
        <time>2022-12-09T13:14:51Z</time>
      </trkpt>
      <trkpt lat="49.86743" lon="2.22257">
        <ele>68.6</ele>
        <time>2022-12-09T13:14:52Z</time>
      </trkpt>
      <trkpt lat="49.86746" lon="2.22256">
        <ele>68.6</ele>
        <time>2022-12-09T13:14:53Z</time>
      </trkpt>
      <trkpt lat="49.86746" lon="2.22256">
        <ele>68.6</ele>
        <time>2022-12-09T13:14:54Z</time>
      </trkpt>
      <trkpt lat="49.86747" lon="2.22256">
        <ele>68.7</ele>
        <time>2022-12-09T13:14:55Z</time>
      </trkpt>
      <trkpt lat="49.86749" lon="2.22256">
        <ele>68.7</ele>
        <time>2022-12-09T13:14:56Z</time>
      </trkpt>
      <trkpt lat="49.8675" lon="2.22256">
        <ele>68.8</ele>
        <time>2022-12-09T13:14:58Z</time>
      </trkpt>
      <trkpt lat="49.86751" lon="2.22256">
        <ele>68.8</ele>
        <time>2022-12-09T13:14:59Z</time>
      </trkpt>
      <trkpt lat="49.86753" lon="2.22255">
        <ele>68.8</ele>
        <time>2022-12-09T13:15:00Z</time>
      </trkpt>
      <trkpt lat="49.86754" lon="2.22255">
        <ele>68.9</ele>
        <time>2022-12-09T13:15:01Z</time>
      </trkpt>
      <trkpt lat="49.86756" lon="2.22256">
        <ele>68.9</ele>
        <time>2022-12-09T13:15:02Z</time>
      </trkpt>
      <trkpt lat="49.86757" lon="2.22256">
        <ele>68.9</ele>
        <time>2022-12-09T13:15:03Z</time>
      </trkpt>
      <trkpt lat="49.86758" lon="2.22256">
        <ele>69</ele>
        <time>2022-12-09T13:15:04Z</time>
      </trkpt>
      <trkpt lat="49.8676" lon="2.22256">
        <ele>69</ele>
        <time>2022-12-09T13:15:05Z</time>
      </trkpt>
      <trkpt lat="49.86761" lon="2.22256">
        <ele>69.1</ele>
        <time>2022-12-09T13:15:06Z</time>
      </trkpt>
      <trkpt lat="49.86762" lon="2.22256">
        <ele>69.1</ele>
        <time>2022-12-09T13:15:08Z</time>
      </trkpt>
      <trkpt lat="49.86763" lon="2.22256">
        <ele>69.1</ele>
        <time>2022-12-09T13:15:09Z</time>
      </trkpt>
      <trkpt lat="49.86764" lon="2.22256">
        <ele>69.1</ele>
        <time>2022-12-09T13:15:10Z</time>
      </trkpt>
      <trkpt lat="49.86765" lon="2.22256">
        <ele>69.2</ele>
        <time>2022-12-09T13:15:11Z</time>
      </trkpt>
      <trkpt lat="49.86766" lon="2.22256">
        <ele>69.2</ele>
        <time>2022-12-09T13:15:12Z</time>
      </trkpt>
      <trkpt lat="49.86767" lon="2.22256">
        <ele>69.2</ele>
        <time>2022-12-09T13:15:13Z</time>
      </trkpt>
      <trkpt lat="49.86768" lon="2.22256">
        <ele>69.3</ele>
        <time>2022-12-09T13:15:14Z</time>
      </trkpt>
      <trkpt lat="49.86769" lon="2.22256">
        <ele>69.3</ele>
        <time>2022-12-09T13:15:15Z</time>
      </trkpt>
      <trkpt lat="49.8677" lon="2.22256">
        <ele>69.3</ele>
        <time>2022-12-09T13:15:17Z</time>
      </trkpt>
      <trkpt lat="49.86772" lon="2.22255">
        <ele>69.4</ele>
        <time>2022-12-09T13:15:18Z</time>
      </trkpt>
      <trkpt lat="49.86773" lon="2.22255">
        <ele>69.4</ele>
        <time>2022-12-09T13:15:19Z</time>
      </trkpt>
      <trkpt lat="49.86774" lon="2.22255">
        <ele>69.4</ele>
        <time>2022-12-09T13:15:20Z</time>
      </trkpt>
      <trkpt lat="49.86775" lon="2.22255">
        <ele>69.5</ele>
        <time>2022-12-09T13:15:21Z</time>
      </trkpt>
      <trkpt lat="49.86776" lon="2.22254">
        <ele>69.5</ele>
        <time>2022-12-09T13:15:22Z</time>
      </trkpt>
      <trkpt lat="49.86777" lon="2.22254">
        <ele>69.6</ele>
        <time>2022-12-09T13:15:23Z</time>
      </trkpt>
      <trkpt lat="49.86778" lon="2.22254">
        <ele>69.6</ele>
        <time>2022-12-09T13:15:24Z</time>
      </trkpt>
      <trkpt lat="49.86779" lon="2.22253">
        <ele>69.6</ele>
        <time>2022-12-09T13:15:26Z</time>
      </trkpt>
      <trkpt lat="49.8678" lon="2.22253">
        <ele>69.6</ele>
        <time>2022-12-09T13:15:27Z</time>
      </trkpt>
      <trkpt lat="49.86782" lon="2.22253">
        <ele>69.7</ele>
        <time>2022-12-09T13:15:28Z</time>
      </trkpt>
      <trkpt lat="49.86784" lon="2.22252">
        <ele>69.7</ele>
        <time>2022-12-09T13:15:29Z</time>
      </trkpt>
      <trkpt lat="49.86784" lon="2.22252">
        <ele>69.8</ele>
        <time>2022-12-09T13:15:30Z</time>
      </trkpt>
      <trkpt lat="49.86785" lon="2.22252">
        <ele>69.8</ele>
        <time>2022-12-09T13:15:31Z</time>
      </trkpt>
      <trkpt lat="49.86786" lon="2.22252">
        <ele>69.8</ele>
        <time>2022-12-09T13:15:32Z</time>
      </trkpt>
      <trkpt lat="49.86787" lon="2.22252">
        <ele>69.9</ele>
        <time>2022-12-09T13:15:34Z</time>
      </trkpt>
      <trkpt lat="49.86788" lon="2.22251">
        <ele>69.9</ele>
        <time>2022-12-09T13:15:35Z</time>
      </trkpt>
      <trkpt lat="49.86789" lon="2.22251">
        <ele>69.9</ele>
        <time>2022-12-09T13:15:36Z</time>
      </trkpt>
      <trkpt lat="49.8679" lon="2.22251">
        <ele>70</ele>
        <time>2022-12-09T13:15:37Z</time>
      </trkpt>
      <trkpt lat="49.86791" lon="2.2225">
        <ele>70</ele>
        <time>2022-12-09T13:15:38Z</time>
      </trkpt>
      <trkpt lat="49.86793" lon="2.2225">
        <ele>70</ele>
        <time>2022-12-09T13:15:39Z</time>
      </trkpt>
      <trkpt lat="49.86794" lon="2.2225">
        <ele>70.1</ele>
        <time>2022-12-09T13:15:40Z</time>
      </trkpt>
      <trkpt lat="49.86795" lon="2.2225">
        <ele>70.1</ele>
        <time>2022-12-09T13:15:42Z</time>
      </trkpt>
      <trkpt lat="49.86796" lon="2.2225">
        <ele>70.2</ele>
        <time>2022-12-09T13:15:43Z</time>
      </trkpt>
      <trkpt lat="49.86797" lon="2.22251">
        <ele>70.2</ele>
        <time>2022-12-09T13:15:44Z</time>
      </trkpt>
      <trkpt lat="49.86798" lon="2.22252">
        <ele>70.2</ele>
        <time>2022-12-09T13:15:46Z</time>
      </trkpt>
      <trkpt lat="49.86798" lon="2.22252">
        <ele>70.2</ele>
        <time>2022-12-09T13:15:47Z</time>
      </trkpt>
      <trkpt lat="49.86799" lon="2.22253">
        <ele>70.2</ele>
        <time>2022-12-09T13:15:49Z</time>
      </trkpt>
      <trkpt lat="49.86799" lon="2.22253">
        <ele>70.2</ele>
        <time>2022-12-09T13:15:50Z</time>
      </trkpt>
      <trkpt lat="49.86799" lon="2.22253">
        <ele>70.2</ele>
        <time>2022-12-09T13:15:51Z</time>
      </trkpt>
      <trkpt lat="49.86798" lon="2.22253">
        <ele>70.3</ele>
        <time>2022-12-09T13:15:53Z</time>
      </trkpt>
      <trkpt lat="49.86798" lon="2.22253">
        <ele>70.3</ele>
        <time>2022-12-09T13:15:54Z</time>
      </trkpt>
      <trkpt lat="49.86798" lon="2.22252">
        <ele>70.3</ele>
        <time>2022-12-09T13:15:56Z</time>
      </trkpt>
      <trkpt lat="49.86798" lon="2.22252">
        <ele>70.3</ele>
        <time>2022-12-09T13:15:57Z</time>
      </trkpt>
      <trkpt lat="49.86798" lon="2.22252">
        <ele>70.3</ele>
        <time>2022-12-09T13:15:59Z</time>
      </trkpt>
      <trkpt lat="49.86798" lon="2.22252">
        <ele>70.3</ele>
        <time>2022-12-09T13:16:00Z</time>
      </trkpt>
      <trkpt lat="49.86798" lon="2.22252">
        <ele>70.3</ele>
        <time>2022-12-09T13:16:02Z</time>
      </trkpt>
      <trkpt lat="49.86797" lon="2.22252">
        <ele>70.3</ele>
        <time>2022-12-09T13:16:03Z</time>
      </trkpt>
      <trkpt lat="49.86797" lon="2.22252">
        <ele>70.3</ele>
        <time>2022-12-09T13:16:04Z</time>
      </trkpt>
      <trkpt lat="49.86797" lon="2.22252">
        <ele>70.3</ele>
        <time>2022-12-09T13:16:05Z</time>
      </trkpt>
      <trkpt lat="49.86797" lon="2.22252">
        <ele>70.3</ele>
        <time>2022-12-09T13:16:06Z</time>
      </trkpt>
      <trkpt lat="49.86797" lon="2.22252">
        <ele>70.3</ele>
        <time>2022-12-09T13:16:07Z</time>
      </trkpt>
      <trkpt lat="49.86797" lon="2.22252">
        <ele>70.3</ele>
        <time>2022-12-09T13:16:08Z</time>
      </trkpt>
      <trkpt lat="49.86797" lon="2.22252">
        <ele>70.3</ele>
        <time>2022-12-09T13:16:09Z</time>
      </trkpt>
      <trkpt lat="49.86797" lon="2.22251">
        <ele>70.3</ele>
        <time>2022-12-09T13:16:11Z</time>
      </trkpt>
      <trkpt lat="49.86798" lon="2.2225">
        <ele>70.3</ele>
        <time>2022-12-09T13:16:12Z</time>
      </trkpt>
      <trkpt lat="49.86798" lon="2.22249">
        <ele>70.3</ele>
        <time>2022-12-09T13:16:13Z</time>
      </trkpt>
      <trkpt lat="49.86798" lon="2.22247">
        <ele>70.4</ele>
        <time>2022-12-09T13:16:14Z</time>
      </trkpt>
      <trkpt lat="49.86798" lon="2.22245">
        <ele>70.4</ele>
        <time>2022-12-09T13:16:15Z</time>
      </trkpt>
      <trkpt lat="49.86798" lon="2.22242">
        <ele>70.4</ele>
        <time>2022-12-09T13:16:16Z</time>
      </trkpt>
      <trkpt lat="49.86799" lon="2.22238">
        <ele>70.5</ele>
        <time>2022-12-09T13:16:18Z</time>
      </trkpt>
      <trkpt lat="49.86799" lon="2.22237">
        <ele>70.5</ele>
        <time>2022-12-09T13:16:19Z</time>
      </trkpt>
      <trkpt lat="49.868" lon="2.22234">
        <ele>70.5</ele>
        <time>2022-12-09T13:16:20Z</time>
      </trkpt>
      <trkpt lat="49.868" lon="2.22232">
        <ele>70.6</ele>
        <time>2022-12-09T13:16:21Z</time>
      </trkpt>
      <trkpt lat="49.868" lon="2.22229">
        <ele>70.6</ele>
        <time>2022-12-09T13:16:22Z</time>
      </trkpt>
      <trkpt lat="49.86801" lon="2.22228">
        <ele>70.6</ele>
        <time>2022-12-09T13:16:23Z</time>
      </trkpt>
      <trkpt lat="49.86801" lon="2.22226">
        <ele>70.6</ele>
        <time>2022-12-09T13:16:24Z</time>
      </trkpt>
      <trkpt lat="49.86801" lon="2.22224">
        <ele>70.7</ele>
        <time>2022-12-09T13:16:26Z</time>
      </trkpt>
      <trkpt lat="49.86801" lon="2.22222">
        <ele>70.7</ele>
        <time>2022-12-09T13:16:27Z</time>
      </trkpt>
      <trkpt lat="49.86801" lon="2.22219">
        <ele>70.7</ele>
        <time>2022-12-09T13:16:28Z</time>
      </trkpt>
      <trkpt lat="49.86801" lon="2.22217">
        <ele>70.8</ele>
        <time>2022-12-09T13:16:29Z</time>
      </trkpt>
      <trkpt lat="49.86801" lon="2.22215">
        <ele>70.8</ele>
        <time>2022-12-09T13:16:30Z</time>
      </trkpt>
      <trkpt lat="49.86802" lon="2.22213">
        <ele>70.8</ele>
        <time>2022-12-09T13:16:31Z</time>
      </trkpt>
      <trkpt lat="49.86802" lon="2.22209">
        <ele>70.9</ele>
        <time>2022-12-09T13:16:32Z</time>
      </trkpt>
      <trkpt lat="49.86802" lon="2.22208">
        <ele>70.9</ele>
        <time>2022-12-09T13:16:33Z</time>
      </trkpt>
      <trkpt lat="49.86802" lon="2.22206">
        <ele>70.9</ele>
        <time>2022-12-09T13:16:34Z</time>
      </trkpt>
      <trkpt lat="49.86803" lon="2.22204">
        <ele>70.9</ele>
        <time>2022-12-09T13:16:35Z</time>
      </trkpt>
      <trkpt lat="49.86803" lon="2.22201">
        <ele>71</ele>
        <time>2022-12-09T13:16:37Z</time>
      </trkpt>
      <trkpt lat="49.86803" lon="2.22199">
        <ele>71</ele>
        <time>2022-12-09T13:16:38Z</time>
      </trkpt>
      <trkpt lat="49.86803" lon="2.22197">
        <ele>71.1</ele>
        <time>2022-12-09T13:16:39Z</time>
      </trkpt>
      <trkpt lat="49.86804" lon="2.22193">
        <ele>71.1</ele>
        <time>2022-12-09T13:16:40Z</time>
      </trkpt>
      <trkpt lat="49.86804" lon="2.22192">
        <ele>71.2</ele>
        <time>2022-12-09T13:16:41Z</time>
      </trkpt>
      <trkpt lat="49.86804" lon="2.22191">
        <ele>71.2</ele>
        <time>2022-12-09T13:16:42Z</time>
      </trkpt>
      <trkpt lat="49.86804" lon="2.22189">
        <ele>71.2</ele>
        <time>2022-12-09T13:16:43Z</time>
      </trkpt>
      <trkpt lat="49.86804" lon="2.22188">
        <ele>71.2</ele>
        <time>2022-12-09T13:16:44Z</time>
      </trkpt>
      <trkpt lat="49.86805" lon="2.22186">
        <ele>71.3</ele>
        <time>2022-12-09T13:16:45Z</time>
      </trkpt>
      <trkpt lat="49.86805" lon="2.22184">
        <ele>71.3</ele>
        <time>2022-12-09T13:16:46Z</time>
      </trkpt>
      <trkpt lat="49.86805" lon="2.22182">
        <ele>71.3</ele>
        <time>2022-12-09T13:16:47Z</time>
      </trkpt>
      <trkpt lat="49.86806" lon="2.2218">
        <ele>71.4</ele>
        <time>2022-12-09T13:16:49Z</time>
      </trkpt>
      <trkpt lat="49.86806" lon="2.22176">
        <ele>71.5</ele>
        <time>2022-12-09T13:16:50Z</time>
      </trkpt>
      <trkpt lat="49.86806" lon="2.22175">
        <ele>71.5</ele>
        <time>2022-12-09T13:16:51Z</time>
      </trkpt>
      <trkpt lat="49.86807" lon="2.22174">
        <ele>71.5</ele>
        <time>2022-12-09T13:16:52Z</time>
      </trkpt>
      <trkpt lat="49.86807" lon="2.22172">
        <ele>71.5</ele>
        <time>2022-12-09T13:16:53Z</time>
      </trkpt>
      <trkpt lat="49.86807" lon="2.2217">
        <ele>71.6</ele>
        <time>2022-12-09T13:16:54Z</time>
      </trkpt>
      <trkpt lat="49.86807" lon="2.22167">
        <ele>71.6</ele>
        <time>2022-12-09T13:16:56Z</time>
      </trkpt>
      <trkpt lat="49.86807" lon="2.22165">
        <ele>71.7</ele>
        <time>2022-12-09T13:16:57Z</time>
      </trkpt>
      <trkpt lat="49.86808" lon="2.22162">
        <ele>71.7</ele>
        <time>2022-12-09T13:16:58Z</time>
      </trkpt>
      <trkpt lat="49.86808" lon="2.22161">
        <ele>71.8</ele>
        <time>2022-12-09T13:16:59Z</time>
      </trkpt>
      <trkpt lat="49.86808" lon="2.22159">
        <ele>71.8</ele>
        <time>2022-12-09T13:17:00Z</time>
      </trkpt>
      <trkpt lat="49.86808" lon="2.22158">
        <ele>71.8</ele>
        <time>2022-12-09T13:17:01Z</time>
      </trkpt>
      <trkpt lat="49.86808" lon="2.22157">
        <ele>71.8</ele>
        <time>2022-12-09T13:17:02Z</time>
      </trkpt>
      <trkpt lat="49.86809" lon="2.22155">
        <ele>71.9</ele>
        <time>2022-12-09T13:17:03Z</time>
      </trkpt>
      <trkpt lat="49.86809" lon="2.22152">
        <ele>71.9</ele>
        <time>2022-12-09T13:17:05Z</time>
      </trkpt>
      <trkpt lat="49.8681" lon="2.22151">
        <ele>72</ele>
        <time>2022-12-09T13:17:06Z</time>
      </trkpt>
      <trkpt lat="49.8681" lon="2.22149">
        <ele>72</ele>
        <time>2022-12-09T13:17:07Z</time>
      </trkpt>
      <trkpt lat="49.8681" lon="2.22146">
        <ele>72.1</ele>
        <time>2022-12-09T13:17:08Z</time>
      </trkpt>
      <trkpt lat="49.86811" lon="2.22145">
        <ele>72.1</ele>
        <time>2022-12-09T13:17:09Z</time>
      </trkpt>
      <trkpt lat="49.86811" lon="2.22143">
        <ele>72.1</ele>
        <time>2022-12-09T13:17:10Z</time>
      </trkpt>
      <trkpt lat="49.86811" lon="2.2214">
        <ele>72.2</ele>
        <time>2022-12-09T13:17:11Z</time>
      </trkpt>
      <trkpt lat="49.86811" lon="2.22139">
        <ele>72.2</ele>
        <time>2022-12-09T13:17:12Z</time>
      </trkpt>
      <trkpt lat="49.86811" lon="2.22137">
        <ele>72.2</ele>
        <time>2022-12-09T13:17:13Z</time>
      </trkpt>
      <trkpt lat="49.86812" lon="2.22134">
        <ele>72.3</ele>
        <time>2022-12-09T13:17:14Z</time>
      </trkpt>
      <trkpt lat="49.86812" lon="2.22133">
        <ele>72.3</ele>
        <time>2022-12-09T13:17:16Z</time>
      </trkpt>
      <trkpt lat="49.86812" lon="2.22131">
        <ele>72.3</ele>
        <time>2022-12-09T13:17:17Z</time>
      </trkpt>
      <trkpt lat="49.86812" lon="2.22129">
        <ele>72.4</ele>
        <time>2022-12-09T13:17:18Z</time>
      </trkpt>
      <trkpt lat="49.86813" lon="2.22127">
        <ele>72.4</ele>
        <time>2022-12-09T13:17:19Z</time>
      </trkpt>
      <trkpt lat="49.86813" lon="2.22124">
        <ele>72.5</ele>
        <time>2022-12-09T13:17:20Z</time>
      </trkpt>
      <trkpt lat="49.86813" lon="2.22122">
        <ele>72.5</ele>
        <time>2022-12-09T13:17:21Z</time>
      </trkpt>
      <trkpt lat="49.86813" lon="2.22121">
        <ele>72.6</ele>
        <time>2022-12-09T13:17:22Z</time>
      </trkpt>
      <trkpt lat="49.86814" lon="2.22118">
        <ele>72.6</ele>
        <time>2022-12-09T13:17:23Z</time>
      </trkpt>
      <trkpt lat="49.86814" lon="2.22116">
        <ele>72.7</ele>
        <time>2022-12-09T13:17:24Z</time>
      </trkpt>
      <trkpt lat="49.86814" lon="2.22115">
        <ele>72.7</ele>
        <time>2022-12-09T13:17:25Z</time>
      </trkpt>
      <trkpt lat="49.86815" lon="2.22113">
        <ele>72.7</ele>
        <time>2022-12-09T13:17:26Z</time>
      </trkpt>
      <trkpt lat="49.86815" lon="2.22111">
        <ele>72.8</ele>
        <time>2022-12-09T13:17:27Z</time>
      </trkpt>
      <trkpt lat="49.86816" lon="2.22109">
        <ele>72.8</ele>
        <time>2022-12-09T13:17:29Z</time>
      </trkpt>
      <trkpt lat="49.86816" lon="2.22107">
        <ele>72.8</ele>
        <time>2022-12-09T13:17:30Z</time>
      </trkpt>
      <trkpt lat="49.86816" lon="2.22104">
        <ele>72.9</ele>
        <time>2022-12-09T13:17:31Z</time>
      </trkpt>
      <trkpt lat="49.86817" lon="2.22101">
        <ele>73</ele>
        <time>2022-12-09T13:17:32Z</time>
      </trkpt>
      <trkpt lat="49.86817" lon="2.221">
        <ele>73</ele>
        <time>2022-12-09T13:17:33Z</time>
      </trkpt>
      <trkpt lat="49.86817" lon="2.22098">
        <ele>73</ele>
        <time>2022-12-09T13:17:34Z</time>
      </trkpt>
      <trkpt lat="49.86817" lon="2.22096">
        <ele>73.1</ele>
        <time>2022-12-09T13:17:36Z</time>
      </trkpt>
      <trkpt lat="49.86817" lon="2.22095">
        <ele>73.1</ele>
        <time>2022-12-09T13:17:37Z</time>
      </trkpt>
      <trkpt lat="49.86818" lon="2.22093">
        <ele>73.1</ele>
        <time>2022-12-09T13:17:38Z</time>
      </trkpt>
      <trkpt lat="49.86818" lon="2.22091">
        <ele>73.2</ele>
        <time>2022-12-09T13:17:39Z</time>
      </trkpt>
      <trkpt lat="49.86818" lon="2.22089">
        <ele>73.2</ele>
        <time>2022-12-09T13:17:40Z</time>
      </trkpt>
      <trkpt lat="49.86818" lon="2.22088">
        <ele>73.3</ele>
        <time>2022-12-09T13:17:41Z</time>
      </trkpt>
      <trkpt lat="49.86818" lon="2.22086">
        <ele>73.3</ele>
        <time>2022-12-09T13:17:42Z</time>
      </trkpt>
      <trkpt lat="49.86818" lon="2.22084">
        <ele>73.3</ele>
        <time>2022-12-09T13:17:43Z</time>
      </trkpt>
      <trkpt lat="49.86818" lon="2.22082">
        <ele>73.4</ele>
        <time>2022-12-09T13:17:45Z</time>
      </trkpt>
      <trkpt lat="49.86818" lon="2.2208">
        <ele>73.4</ele>
        <time>2022-12-09T13:17:46Z</time>
      </trkpt>
      <trkpt lat="49.86818" lon="2.22077">
        <ele>73.5</ele>
        <time>2022-12-09T13:17:47Z</time>
      </trkpt>
      <trkpt lat="49.86818" lon="2.22074">
        <ele>73.6</ele>
        <time>2022-12-09T13:17:48Z</time>
      </trkpt>
      <trkpt lat="49.86818" lon="2.22073">
        <ele>73.6</ele>
        <time>2022-12-09T13:17:49Z</time>
      </trkpt>
      <trkpt lat="49.86818" lon="2.22071">
        <ele>73.6</ele>
        <time>2022-12-09T13:17:50Z</time>
      </trkpt>
      <trkpt lat="49.86818" lon="2.22069">
        <ele>73.7</ele>
        <time>2022-12-09T13:17:51Z</time>
      </trkpt>
      <trkpt lat="49.86818" lon="2.22067">
        <ele>73.7</ele>
        <time>2022-12-09T13:17:52Z</time>
      </trkpt>
      <trkpt lat="49.86819" lon="2.22065">
        <ele>73.8</ele>
        <time>2022-12-09T13:17:54Z</time>
      </trkpt>
      <trkpt lat="49.86819" lon="2.22062">
        <ele>73.8</ele>
        <time>2022-12-09T13:17:55Z</time>
      </trkpt>
      <trkpt lat="49.8682" lon="2.2206">
        <ele>73.9</ele>
        <time>2022-12-09T13:17:56Z</time>
      </trkpt>
      <trkpt lat="49.8682" lon="2.22059">
        <ele>73.9</ele>
        <time>2022-12-09T13:17:57Z</time>
      </trkpt>
      <trkpt lat="49.86821" lon="2.22058">
        <ele>73.9</ele>
        <time>2022-12-09T13:17:58Z</time>
      </trkpt>
      <trkpt lat="49.86821" lon="2.22056">
        <ele>74</ele>
        <time>2022-12-09T13:17:59Z</time>
      </trkpt>
      <trkpt lat="49.86822" lon="2.22054">
        <ele>74</ele>
        <time>2022-12-09T13:18:01Z</time>
      </trkpt>
      <trkpt lat="49.86822" lon="2.22052">
        <ele>74.1</ele>
        <time>2022-12-09T13:18:02Z</time>
      </trkpt>
      <trkpt lat="49.86823" lon="2.2205">
        <ele>74.1</ele>
        <time>2022-12-09T13:18:03Z</time>
      </trkpt>
      <trkpt lat="49.86823" lon="2.22049">
        <ele>74.1</ele>
        <time>2022-12-09T13:18:04Z</time>
      </trkpt>
      <trkpt lat="49.86823" lon="2.22047">
        <ele>74.2</ele>
        <time>2022-12-09T13:18:05Z</time>
      </trkpt>
      <trkpt lat="49.86823" lon="2.22044">
        <ele>74.2</ele>
        <time>2022-12-09T13:18:06Z</time>
      </trkpt>
      <trkpt lat="49.86824" lon="2.22043">
        <ele>74.2</ele>
        <time>2022-12-09T13:18:07Z</time>
      </trkpt>
      <trkpt lat="49.86824" lon="2.22041">
        <ele>74.3</ele>
        <time>2022-12-09T13:18:08Z</time>
      </trkpt>
      <trkpt lat="49.86825" lon="2.22038">
        <ele>74.3</ele>
        <time>2022-12-09T13:18:10Z</time>
      </trkpt>
      <trkpt lat="49.86826" lon="2.22035">
        <ele>74.4</ele>
        <time>2022-12-09T13:18:11Z</time>
      </trkpt>
      <trkpt lat="49.86826" lon="2.22034">
        <ele>74.4</ele>
        <time>2022-12-09T13:18:12Z</time>
      </trkpt>
      <trkpt lat="49.86827" lon="2.22032">
        <ele>74.5</ele>
        <time>2022-12-09T13:18:13Z</time>
      </trkpt>
      <trkpt lat="49.86827" lon="2.22029">
        <ele>74.5</ele>
        <time>2022-12-09T13:18:14Z</time>
      </trkpt>
      <trkpt lat="49.86827" lon="2.22028">
        <ele>74.5</ele>
        <time>2022-12-09T13:18:15Z</time>
      </trkpt>
      <trkpt lat="49.86828" lon="2.22027">
        <ele>74.5</ele>
        <time>2022-12-09T13:18:16Z</time>
      </trkpt>
      <trkpt lat="49.86829" lon="2.22024">
        <ele>74.6</ele>
        <time>2022-12-09T13:18:17Z</time>
      </trkpt>
      <trkpt lat="49.86829" lon="2.22023">
        <ele>74.6</ele>
        <time>2022-12-09T13:18:19Z</time>
      </trkpt>
      <trkpt lat="49.86829" lon="2.22021">
        <ele>74.7</ele>
        <time>2022-12-09T13:18:20Z</time>
      </trkpt>
      <trkpt lat="49.8683" lon="2.22019">
        <ele>74.7</ele>
        <time>2022-12-09T13:18:21Z</time>
      </trkpt>
      <trkpt lat="49.8683" lon="2.22017">
        <ele>74.7</ele>
        <time>2022-12-09T13:18:22Z</time>
      </trkpt>
      <trkpt lat="49.86831" lon="2.22014">
        <ele>74.8</ele>
        <time>2022-12-09T13:18:23Z</time>
      </trkpt>
      <trkpt lat="49.86831" lon="2.22013">
        <ele>74.8</ele>
        <time>2022-12-09T13:18:24Z</time>
      </trkpt>
      <trkpt lat="49.86831" lon="2.22011">
        <ele>74.8</ele>
        <time>2022-12-09T13:18:25Z</time>
      </trkpt>
      <trkpt lat="49.86832" lon="2.22008">
        <ele>74.9</ele>
        <time>2022-12-09T13:18:26Z</time>
      </trkpt>
      <trkpt lat="49.86832" lon="2.22007">
        <ele>74.9</ele>
        <time>2022-12-09T13:18:27Z</time>
      </trkpt>
      <trkpt lat="49.86832" lon="2.22006">
        <ele>74.9</ele>
        <time>2022-12-09T13:18:28Z</time>
      </trkpt>
      <trkpt lat="49.86833" lon="2.22004">
        <ele>75</ele>
        <time>2022-12-09T13:18:29Z</time>
      </trkpt>
      <trkpt lat="49.86833" lon="2.22003">
        <ele>75</ele>
        <time>2022-12-09T13:18:30Z</time>
      </trkpt>
      <trkpt lat="49.86833" lon="2.22001">
        <ele>75</ele>
        <time>2022-12-09T13:18:31Z</time>
      </trkpt>
      <trkpt lat="49.86834" lon="2.21998">
        <ele>75.1</ele>
        <time>2022-12-09T13:18:32Z</time>
      </trkpt>
      <trkpt lat="49.86834" lon="2.21997">
        <ele>75.1</ele>
        <time>2022-12-09T13:18:34Z</time>
      </trkpt>
      <trkpt lat="49.86834" lon="2.21995">
        <ele>75.1</ele>
        <time>2022-12-09T13:18:35Z</time>
      </trkpt>
      <trkpt lat="49.86834" lon="2.21993">
        <ele>75.1</ele>
        <time>2022-12-09T13:18:36Z</time>
      </trkpt>
      <trkpt lat="49.86835" lon="2.21991">
        <ele>75.2</ele>
        <time>2022-12-09T13:18:37Z</time>
      </trkpt>
      <trkpt lat="49.86835" lon="2.21988">
        <ele>75.2</ele>
        <time>2022-12-09T13:18:38Z</time>
      </trkpt>
      <trkpt lat="49.86836" lon="2.21987">
        <ele>75.2</ele>
        <time>2022-12-09T13:18:39Z</time>
      </trkpt>
      <trkpt lat="49.86836" lon="2.21985">
        <ele>75.3</ele>
        <time>2022-12-09T13:18:40Z</time>
      </trkpt>
      <trkpt lat="49.86836" lon="2.21981">
        <ele>75.3</ele>
        <time>2022-12-09T13:18:41Z</time>
      </trkpt>
      <trkpt lat="49.86836" lon="2.2198">
        <ele>75.4</ele>
        <time>2022-12-09T13:18:43Z</time>
      </trkpt>
      <trkpt lat="49.86837" lon="2.21978">
        <ele>75.4</ele>
        <time>2022-12-09T13:18:44Z</time>
      </trkpt>
      <trkpt lat="49.86837" lon="2.21976">
        <ele>75.4</ele>
        <time>2022-12-09T13:18:45Z</time>
      </trkpt>
      <trkpt lat="49.86837" lon="2.21974">
        <ele>75.4</ele>
        <time>2022-12-09T13:18:46Z</time>
      </trkpt>
      <trkpt lat="49.86837" lon="2.21971">
        <ele>75.5</ele>
        <time>2022-12-09T13:18:47Z</time>
      </trkpt>
      <trkpt lat="49.86838" lon="2.2197">
        <ele>75.5</ele>
        <time>2022-12-09T13:18:48Z</time>
      </trkpt>
      <trkpt lat="49.86838" lon="2.21969">
        <ele>75.5</ele>
        <time>2022-12-09T13:18:49Z</time>
      </trkpt>
      <trkpt lat="49.86838" lon="2.21967">
        <ele>75.5</ele>
        <time>2022-12-09T13:18:50Z</time>
      </trkpt>
      <trkpt lat="49.86839" lon="2.21964">
        <ele>75.6</ele>
        <time>2022-12-09T13:18:52Z</time>
      </trkpt>
      <trkpt lat="49.86839" lon="2.21962">
        <ele>75.6</ele>
        <time>2022-12-09T13:18:53Z</time>
      </trkpt>
      <trkpt lat="49.8684" lon="2.2196">
        <ele>75.6</ele>
        <time>2022-12-09T13:18:54Z</time>
      </trkpt>
      <trkpt lat="49.8684" lon="2.21958">
        <ele>75.7</ele>
        <time>2022-12-09T13:18:55Z</time>
      </trkpt>
      <trkpt lat="49.8684" lon="2.21956">
        <ele>75.7</ele>
        <time>2022-12-09T13:18:56Z</time>
      </trkpt>
      <trkpt lat="49.86841" lon="2.21953">
        <ele>75.7</ele>
        <time>2022-12-09T13:18:57Z</time>
      </trkpt>
      <trkpt lat="49.86841" lon="2.21951">
        <ele>75.7</ele>
        <time>2022-12-09T13:18:58Z</time>
      </trkpt>
      <trkpt lat="49.86841" lon="2.2195">
        <ele>75.8</ele>
        <time>2022-12-09T13:18:59Z</time>
      </trkpt>
      <trkpt lat="49.86841" lon="2.21949">
        <ele>75.8</ele>
        <time>2022-12-09T13:19:00Z</time>
      </trkpt>
      <trkpt lat="49.86842" lon="2.21947">
        <ele>75.8</ele>
        <time>2022-12-09T13:19:01Z</time>
      </trkpt>
      <trkpt lat="49.86842" lon="2.21945">
        <ele>75.8</ele>
        <time>2022-12-09T13:19:02Z</time>
      </trkpt>
      <trkpt lat="49.86842" lon="2.21943">
        <ele>75.9</ele>
        <time>2022-12-09T13:19:04Z</time>
      </trkpt>
      <trkpt lat="49.86843" lon="2.2194">
        <ele>75.9</ele>
        <time>2022-12-09T13:19:05Z</time>
      </trkpt>
      <trkpt lat="49.86843" lon="2.21938">
        <ele>75.9</ele>
        <time>2022-12-09T13:19:06Z</time>
      </trkpt>
      <trkpt lat="49.86844" lon="2.21935">
        <ele>76</ele>
        <time>2022-12-09T13:19:08Z</time>
      </trkpt>
      <trkpt lat="49.86844" lon="2.21933">
        <ele>76</ele>
        <time>2022-12-09T13:19:09Z</time>
      </trkpt>
      <trkpt lat="49.86845" lon="2.21931">
        <ele>76</ele>
        <time>2022-12-09T13:19:10Z</time>
      </trkpt>
      <trkpt lat="49.86845" lon="2.21929">
        <ele>76.1</ele>
        <time>2022-12-09T13:19:11Z</time>
      </trkpt>
      <trkpt lat="49.86846" lon="2.21927">
        <ele>76.1</ele>
        <time>2022-12-09T13:19:12Z</time>
      </trkpt>
      <trkpt lat="49.86846" lon="2.21926">
        <ele>76.1</ele>
        <time>2022-12-09T13:19:13Z</time>
      </trkpt>
      <trkpt lat="49.86846" lon="2.21924">
        <ele>76.2</ele>
        <time>2022-12-09T13:19:14Z</time>
      </trkpt>
      <trkpt lat="49.86846" lon="2.21923">
        <ele>76.2</ele>
        <time>2022-12-09T13:19:15Z</time>
      </trkpt>
      <trkpt lat="49.86846" lon="2.21921">
        <ele>76.2</ele>
        <time>2022-12-09T13:19:16Z</time>
      </trkpt>
      <trkpt lat="49.86846" lon="2.2192">
        <ele>76.2</ele>
        <time>2022-12-09T13:19:18Z</time>
      </trkpt>
      <trkpt lat="49.86847" lon="2.21917">
        <ele>76.3</ele>
        <time>2022-12-09T13:19:19Z</time>
      </trkpt>
      <trkpt lat="49.86847" lon="2.21914">
        <ele>76.3</ele>
        <time>2022-12-09T13:19:20Z</time>
      </trkpt>
      <trkpt lat="49.86847" lon="2.21913">
        <ele>76.3</ele>
        <time>2022-12-09T13:19:21Z</time>
      </trkpt>
      <trkpt lat="49.86847" lon="2.21912">
        <ele>76.4</ele>
        <time>2022-12-09T13:19:22Z</time>
      </trkpt>
      <trkpt lat="49.86847" lon="2.21909">
        <ele>76.4</ele>
        <time>2022-12-09T13:19:23Z</time>
      </trkpt>
      <trkpt lat="49.86847" lon="2.21907">
        <ele>76.4</ele>
        <time>2022-12-09T13:19:25Z</time>
      </trkpt>
      <trkpt lat="49.86847" lon="2.21905">
        <ele>76.5</ele>
        <time>2022-12-09T13:19:26Z</time>
      </trkpt>
      <trkpt lat="49.86847" lon="2.21903">
        <ele>76.5</ele>
        <time>2022-12-09T13:19:27Z</time>
      </trkpt>
      <trkpt lat="49.86847" lon="2.21902">
        <ele>76.5</ele>
        <time>2022-12-09T13:19:28Z</time>
      </trkpt>
      <trkpt lat="49.86848" lon="2.21899">
        <ele>76.6</ele>
        <time>2022-12-09T13:19:29Z</time>
      </trkpt>
      <trkpt lat="49.86848" lon="2.21897">
        <ele>76.6</ele>
        <time>2022-12-09T13:19:30Z</time>
      </trkpt>
      <trkpt lat="49.86848" lon="2.21896">
        <ele>76.6</ele>
        <time>2022-12-09T13:19:31Z</time>
      </trkpt>
      <trkpt lat="49.86848" lon="2.21894">
        <ele>76.7</ele>
        <time>2022-12-09T13:19:32Z</time>
      </trkpt>
      <trkpt lat="49.86849" lon="2.21892">
        <ele>76.7</ele>
        <time>2022-12-09T13:19:34Z</time>
      </trkpt>
      <trkpt lat="49.86849" lon="2.21889">
        <ele>76.8</ele>
        <time>2022-12-09T13:19:35Z</time>
      </trkpt>
      <trkpt lat="49.8685" lon="2.21887">
        <ele>76.8</ele>
        <time>2022-12-09T13:19:36Z</time>
      </trkpt>
      <trkpt lat="49.8685" lon="2.21885">
        <ele>76.8</ele>
        <time>2022-12-09T13:19:37Z</time>
      </trkpt>
      <trkpt lat="49.86851" lon="2.21883">
        <ele>76.9</ele>
        <time>2022-12-09T13:19:38Z</time>
      </trkpt>
      <trkpt lat="49.86851" lon="2.21881">
        <ele>76.9</ele>
        <time>2022-12-09T13:19:39Z</time>
      </trkpt>
      <trkpt lat="49.86851" lon="2.21879">
        <ele>77</ele>
        <time>2022-12-09T13:19:40Z</time>
      </trkpt>
      <trkpt lat="49.86852" lon="2.21877">
        <ele>77</ele>
        <time>2022-12-09T13:19:41Z</time>
      </trkpt>
      <trkpt lat="49.86852" lon="2.21874">
        <ele>77.1</ele>
        <time>2022-12-09T13:19:42Z</time>
      </trkpt>
      <trkpt lat="49.86852" lon="2.21872">
        <ele>77.1</ele>
        <time>2022-12-09T13:19:44Z</time>
      </trkpt>
      <trkpt lat="49.86852" lon="2.2187">
        <ele>77.1</ele>
        <time>2022-12-09T13:19:45Z</time>
      </trkpt>
      <trkpt lat="49.86853" lon="2.21868">
        <ele>77.2</ele>
        <time>2022-12-09T13:19:46Z</time>
      </trkpt>
      <trkpt lat="49.86853" lon="2.21867">
        <ele>77.2</ele>
        <time>2022-12-09T13:19:47Z</time>
      </trkpt>
      <trkpt lat="49.86853" lon="2.21863">
        <ele>77.3</ele>
        <time>2022-12-09T13:19:48Z</time>
      </trkpt>
      <trkpt lat="49.86854" lon="2.21862">
        <ele>77.3</ele>
        <time>2022-12-09T13:19:49Z</time>
      </trkpt>
      <trkpt lat="49.86854" lon="2.21861">
        <ele>77.3</ele>
        <time>2022-12-09T13:19:50Z</time>
      </trkpt>
      <trkpt lat="49.86854" lon="2.21858">
        <ele>77.4</ele>
        <time>2022-12-09T13:19:52Z</time>
      </trkpt>
      <trkpt lat="49.86855" lon="2.21856">
        <ele>77.5</ele>
        <time>2022-12-09T13:19:53Z</time>
      </trkpt>
      <trkpt lat="49.86855" lon="2.21854">
        <ele>77.5</ele>
        <time>2022-12-09T13:19:54Z</time>
      </trkpt>
      <trkpt lat="49.86855" lon="2.21852">
        <ele>77.6</ele>
        <time>2022-12-09T13:19:55Z</time>
      </trkpt>
      <trkpt lat="49.86856" lon="2.21851">
        <ele>77.6</ele>
        <time>2022-12-09T13:19:56Z</time>
      </trkpt>
      <trkpt lat="49.86856" lon="2.21849">
        <ele>77.7</ele>
        <time>2022-12-09T13:19:57Z</time>
      </trkpt>
      <trkpt lat="49.86856" lon="2.21846">
        <ele>77.7</ele>
        <time>2022-12-09T13:19:59Z</time>
      </trkpt>
      <trkpt lat="49.86856" lon="2.21844">
        <ele>77.8</ele>
        <time>2022-12-09T13:20:00Z</time>
      </trkpt>
      <trkpt lat="49.86857" lon="2.21842">
        <ele>77.8</ele>
        <time>2022-12-09T13:20:01Z</time>
      </trkpt>
      <trkpt lat="49.86857" lon="2.21839">
        <ele>77.9</ele>
        <time>2022-12-09T13:20:02Z</time>
      </trkpt>
      <trkpt lat="49.86857" lon="2.21838">
        <ele>77.9</ele>
        <time>2022-12-09T13:20:03Z</time>
      </trkpt>
      <trkpt lat="49.86857" lon="2.21836">
        <ele>78</ele>
        <time>2022-12-09T13:20:04Z</time>
      </trkpt>
      <trkpt lat="49.86857" lon="2.21835">
        <ele>78</ele>
        <time>2022-12-09T13:20:05Z</time>
      </trkpt>
      <trkpt lat="49.86857" lon="2.21833">
        <ele>78.1</ele>
        <time>2022-12-09T13:20:06Z</time>
      </trkpt>
      <trkpt lat="49.86857" lon="2.21831">
        <ele>78.1</ele>
        <time>2022-12-09T13:20:07Z</time>
      </trkpt>
      <trkpt lat="49.86858" lon="2.21828">
        <ele>78.2</ele>
        <time>2022-12-09T13:20:09Z</time>
      </trkpt>
      <trkpt lat="49.86858" lon="2.21827">
        <ele>78.2</ele>
        <time>2022-12-09T13:20:10Z</time>
      </trkpt>
      <trkpt lat="49.86858" lon="2.21825">
        <ele>78.3</ele>
        <time>2022-12-09T13:20:11Z</time>
      </trkpt>
      <trkpt lat="49.86858" lon="2.21824">
        <ele>78.3</ele>
        <time>2022-12-09T13:20:12Z</time>
      </trkpt>
      <trkpt lat="49.86858" lon="2.21822">
        <ele>78.4</ele>
        <time>2022-12-09T13:20:13Z</time>
      </trkpt>
      <trkpt lat="49.86858" lon="2.2182">
        <ele>78.4</ele>
        <time>2022-12-09T13:20:14Z</time>
      </trkpt>
      <trkpt lat="49.86858" lon="2.21818">
        <ele>78.5</ele>
        <time>2022-12-09T13:20:15Z</time>
      </trkpt>
      <trkpt lat="49.86858" lon="2.21817">
        <ele>78.5</ele>
        <time>2022-12-09T13:20:16Z</time>
      </trkpt>
      <trkpt lat="49.86859" lon="2.21816">
        <ele>78.6</ele>
        <time>2022-12-09T13:20:17Z</time>
      </trkpt>
      <trkpt lat="49.86859" lon="2.21812">
        <ele>78.7</ele>
        <time>2022-12-09T13:20:19Z</time>
      </trkpt>
      <trkpt lat="49.86859" lon="2.21811">
        <ele>78.7</ele>
        <time>2022-12-09T13:20:20Z</time>
      </trkpt>
      <trkpt lat="49.8686" lon="2.2181">
        <ele>78.7</ele>
        <time>2022-12-09T13:20:21Z</time>
      </trkpt>
      <trkpt lat="49.8686" lon="2.21807">
        <ele>78.8</ele>
        <time>2022-12-09T13:20:22Z</time>
      </trkpt>
      <trkpt lat="49.8686" lon="2.21805">
        <ele>78.9</ele>
        <time>2022-12-09T13:20:23Z</time>
      </trkpt>
      <trkpt lat="49.8686" lon="2.21804">
        <ele>78.9</ele>
        <time>2022-12-09T13:20:24Z</time>
      </trkpt>
      <trkpt lat="49.8686" lon="2.21802">
        <ele>79</ele>
        <time>2022-12-09T13:20:25Z</time>
      </trkpt>
      <trkpt lat="49.8686" lon="2.218">
        <ele>79</ele>
        <time>2022-12-09T13:20:26Z</time>
      </trkpt>
      <trkpt lat="49.8686" lon="2.21798">
        <ele>79.1</ele>
        <time>2022-12-09T13:20:27Z</time>
      </trkpt>
      <trkpt lat="49.86861" lon="2.21795">
        <ele>79.2</ele>
        <time>2022-12-09T13:20:29Z</time>
      </trkpt>
      <trkpt lat="49.86861" lon="2.21794">
        <ele>79.2</ele>
        <time>2022-12-09T13:20:30Z</time>
      </trkpt>
      <trkpt lat="49.86861" lon="2.21792">
        <ele>79.2</ele>
        <time>2022-12-09T13:20:31Z</time>
      </trkpt>
      <trkpt lat="49.86861" lon="2.2179">
        <ele>79.3</ele>
        <time>2022-12-09T13:20:32Z</time>
      </trkpt>
      <trkpt lat="49.86862" lon="2.21788">
        <ele>79.4</ele>
        <time>2022-12-09T13:20:33Z</time>
      </trkpt>
      <trkpt lat="49.86862" lon="2.21786">
        <ele>79.4</ele>
        <time>2022-12-09T13:20:34Z</time>
      </trkpt>
      <trkpt lat="49.86862" lon="2.21784">
        <ele>79.5</ele>
        <time>2022-12-09T13:20:35Z</time>
      </trkpt>
      <trkpt lat="49.86863" lon="2.21782">
        <ele>79.6</ele>
        <time>2022-12-09T13:20:36Z</time>
      </trkpt>
      <trkpt lat="49.86863" lon="2.21781">
        <ele>79.6</ele>
        <time>2022-12-09T13:20:37Z</time>
      </trkpt>
      <trkpt lat="49.86863" lon="2.21779">
        <ele>79.7</ele>
        <time>2022-12-09T13:20:38Z</time>
      </trkpt>
      <trkpt lat="49.86864" lon="2.21776">
        <ele>79.8</ele>
        <time>2022-12-09T13:20:40Z</time>
      </trkpt>
      <trkpt lat="49.86864" lon="2.21774">
        <ele>79.8</ele>
        <time>2022-12-09T13:20:41Z</time>
      </trkpt>
      <trkpt lat="49.86864" lon="2.21773">
        <ele>79.9</ele>
        <time>2022-12-09T13:20:42Z</time>
      </trkpt>
      <trkpt lat="49.86864" lon="2.21771">
        <ele>79.9</ele>
        <time>2022-12-09T13:20:43Z</time>
      </trkpt>
      <trkpt lat="49.86864" lon="2.21769">
        <ele>80</ele>
        <time>2022-12-09T13:20:44Z</time>
      </trkpt>
      <trkpt lat="49.86865" lon="2.21767">
        <ele>80.1</ele>
        <time>2022-12-09T13:20:45Z</time>
      </trkpt>
      <trkpt lat="49.86865" lon="2.21765">
        <ele>80.1</ele>
        <time>2022-12-09T13:20:46Z</time>
      </trkpt>
      <trkpt lat="49.86865" lon="2.21764">
        <ele>80.2</ele>
        <time>2022-12-09T13:20:47Z</time>
      </trkpt>
      <trkpt lat="49.86865" lon="2.21762">
        <ele>80.2</ele>
        <time>2022-12-09T13:20:48Z</time>
      </trkpt>
      <trkpt lat="49.86866" lon="2.2176">
        <ele>80.3</ele>
        <time>2022-12-09T13:20:50Z</time>
      </trkpt>
      <trkpt lat="49.86866" lon="2.21758">
        <ele>80.4</ele>
        <time>2022-12-09T13:20:51Z</time>
      </trkpt>
      <trkpt lat="49.86867" lon="2.21755">
        <ele>80.5</ele>
        <time>2022-12-09T13:20:52Z</time>
      </trkpt>
      <trkpt lat="49.86867" lon="2.21754">
        <ele>80.5</ele>
        <time>2022-12-09T13:20:53Z</time>
      </trkpt>
      <trkpt lat="49.86867" lon="2.21752">
        <ele>80.6</ele>
        <time>2022-12-09T13:20:54Z</time>
      </trkpt>
      <trkpt lat="49.86867" lon="2.2175">
        <ele>80.6</ele>
        <time>2022-12-09T13:20:55Z</time>
      </trkpt>
      <trkpt lat="49.86868" lon="2.21749">
        <ele>80.7</ele>
        <time>2022-12-09T13:20:56Z</time>
      </trkpt>
      <trkpt lat="49.86868" lon="2.21747">
        <ele>80.8</ele>
        <time>2022-12-09T13:20:57Z</time>
      </trkpt>
      <trkpt lat="49.86869" lon="2.21744">
        <ele>80.9</ele>
        <time>2022-12-09T13:20:59Z</time>
      </trkpt>
      <trkpt lat="49.86869" lon="2.21743">
        <ele>80.9</ele>
        <time>2022-12-09T13:21:00Z</time>
      </trkpt>
      <trkpt lat="49.86869" lon="2.21741">
        <ele>81</ele>
        <time>2022-12-09T13:21:01Z</time>
      </trkpt>
      <trkpt lat="49.8687" lon="2.21738">
        <ele>81.1</ele>
        <time>2022-12-09T13:21:02Z</time>
      </trkpt>
      <trkpt lat="49.8687" lon="2.21737">
        <ele>81.2</ele>
        <time>2022-12-09T13:21:03Z</time>
      </trkpt>
      <trkpt lat="49.8687" lon="2.21736">
        <ele>81.2</ele>
        <time>2022-12-09T13:21:04Z</time>
      </trkpt>
      <trkpt lat="49.8687" lon="2.21734">
        <ele>81.3</ele>
        <time>2022-12-09T13:21:05Z</time>
      </trkpt>
      <trkpt lat="49.8687" lon="2.21732">
        <ele>81.3</ele>
        <time>2022-12-09T13:21:06Z</time>
      </trkpt>
      <trkpt lat="49.8687" lon="2.21731">
        <ele>81.4</ele>
        <time>2022-12-09T13:21:07Z</time>
      </trkpt>
      <trkpt lat="49.86871" lon="2.21728">
        <ele>81.5</ele>
        <time>2022-12-09T13:21:09Z</time>
      </trkpt>
      <trkpt lat="49.86871" lon="2.21726">
        <ele>81.6</ele>
        <time>2022-12-09T13:21:10Z</time>
      </trkpt>
      <trkpt lat="49.86871" lon="2.21725">
        <ele>81.6</ele>
        <time>2022-12-09T13:21:11Z</time>
      </trkpt>
      <trkpt lat="49.86871" lon="2.21722">
        <ele>81.7</ele>
        <time>2022-12-09T13:21:12Z</time>
      </trkpt>
      <trkpt lat="49.86872" lon="2.21721">
        <ele>81.8</ele>
        <time>2022-12-09T13:21:13Z</time>
      </trkpt>
      <trkpt lat="49.86872" lon="2.21719">
        <ele>81.8</ele>
        <time>2022-12-09T13:21:14Z</time>
      </trkpt>
      <trkpt lat="49.86872" lon="2.21717">
        <ele>81.9</ele>
        <time>2022-12-09T13:21:15Z</time>
      </trkpt>
      <trkpt lat="49.86872" lon="2.21715">
        <ele>82</ele>
        <time>2022-12-09T13:21:16Z</time>
      </trkpt>
      <trkpt lat="49.86873" lon="2.21714">
        <ele>82</ele>
        <time>2022-12-09T13:21:17Z</time>
      </trkpt>
      <trkpt lat="49.86873" lon="2.21711">
        <ele>82.2</ele>
        <time>2022-12-09T13:21:19Z</time>
      </trkpt>
      <trkpt lat="49.86873" lon="2.2171">
        <ele>82.2</ele>
        <time>2022-12-09T13:21:20Z</time>
      </trkpt>
      <trkpt lat="49.86873" lon="2.21708">
        <ele>82.3</ele>
        <time>2022-12-09T13:21:21Z</time>
      </trkpt>
      <trkpt lat="49.86874" lon="2.21706">
        <ele>82.4</ele>
        <time>2022-12-09T13:21:22Z</time>
      </trkpt>
      <trkpt lat="49.86874" lon="2.21704">
        <ele>82.5</ele>
        <time>2022-12-09T13:21:23Z</time>
      </trkpt>
      <trkpt lat="49.86874" lon="2.21701">
        <ele>82.6</ele>
        <time>2022-12-09T13:21:24Z</time>
      </trkpt>
      <trkpt lat="49.86874" lon="2.217">
        <ele>82.6</ele>
        <time>2022-12-09T13:21:25Z</time>
      </trkpt>
      <trkpt lat="49.86875" lon="2.21699">
        <ele>82.7</ele>
        <time>2022-12-09T13:21:26Z</time>
      </trkpt>
      <trkpt lat="49.86875" lon="2.21695">
        <ele>82.8</ele>
        <time>2022-12-09T13:21:28Z</time>
      </trkpt>
      <trkpt lat="49.86875" lon="2.21694">
        <ele>82.9</ele>
        <time>2022-12-09T13:21:29Z</time>
      </trkpt>
      <trkpt lat="49.86875" lon="2.21692">
        <ele>83</ele>
        <time>2022-12-09T13:21:30Z</time>
      </trkpt>
      <trkpt lat="49.86876" lon="2.2169">
        <ele>83</ele>
        <time>2022-12-09T13:21:31Z</time>
      </trkpt>
      <trkpt lat="49.86876" lon="2.21688">
        <ele>83.1</ele>
        <time>2022-12-09T13:21:32Z</time>
      </trkpt>
      <trkpt lat="49.86877" lon="2.21686">
        <ele>83.2</ele>
        <time>2022-12-09T13:21:33Z</time>
      </trkpt>
      <trkpt lat="49.86877" lon="2.21685">
        <ele>83.3</ele>
        <time>2022-12-09T13:21:34Z</time>
      </trkpt>
      <trkpt lat="49.86878" lon="2.21683">
        <ele>83.4</ele>
        <time>2022-12-09T13:21:35Z</time>
      </trkpt>
      <trkpt lat="49.86878" lon="2.2168">
        <ele>83.5</ele>
        <time>2022-12-09T13:21:37Z</time>
      </trkpt>
      <trkpt lat="49.86878" lon="2.21679">
        <ele>83.5</ele>
        <time>2022-12-09T13:21:38Z</time>
      </trkpt>
      <trkpt lat="49.86878" lon="2.21677">
        <ele>83.6</ele>
        <time>2022-12-09T13:21:39Z</time>
      </trkpt>
      <trkpt lat="49.86879" lon="2.21676">
        <ele>83.7</ele>
        <time>2022-12-09T13:21:40Z</time>
      </trkpt>
      <trkpt lat="49.86879" lon="2.21674">
        <ele>83.7</ele>
        <time>2022-12-09T13:21:41Z</time>
      </trkpt>
      <trkpt lat="49.86879" lon="2.21672">
        <ele>83.8</ele>
        <time>2022-12-09T13:21:42Z</time>
      </trkpt>
      <trkpt lat="49.8688" lon="2.21669">
        <ele>83.9</ele>
        <time>2022-12-09T13:21:43Z</time>
      </trkpt>
      <trkpt lat="49.8688" lon="2.21668">
        <ele>84</ele>
        <time>2022-12-09T13:21:44Z</time>
      </trkpt>
      <trkpt lat="49.8688" lon="2.21666">
        <ele>84</ele>
        <time>2022-12-09T13:21:46Z</time>
      </trkpt>
      <trkpt lat="49.8688" lon="2.21665">
        <ele>84.1</ele>
        <time>2022-12-09T13:21:47Z</time>
      </trkpt>
      <trkpt lat="49.8688" lon="2.21663">
        <ele>84.1</ele>
        <time>2022-12-09T13:21:48Z</time>
      </trkpt>
      <trkpt lat="49.8688" lon="2.21662">
        <ele>84.2</ele>
        <time>2022-12-09T13:21:49Z</time>
      </trkpt>
      <trkpt lat="49.86881" lon="2.2166">
        <ele>84.3</ele>
        <time>2022-12-09T13:21:50Z</time>
      </trkpt>
      <trkpt lat="49.86881" lon="2.21658">
        <ele>84.3</ele>
        <time>2022-12-09T13:21:51Z</time>
      </trkpt>
      <trkpt lat="49.86881" lon="2.21656">
        <ele>84.4</ele>
        <time>2022-12-09T13:21:52Z</time>
      </trkpt>
      <trkpt lat="49.86881" lon="2.21655">
        <ele>84.4</ele>
        <time>2022-12-09T13:21:53Z</time>
      </trkpt>
      <trkpt lat="49.86881" lon="2.21653">
        <ele>84.5</ele>
        <time>2022-12-09T13:21:55Z</time>
      </trkpt>
      <trkpt lat="49.86882" lon="2.21651">
        <ele>84.6</ele>
        <time>2022-12-09T13:21:56Z</time>
      </trkpt>
      <trkpt lat="49.86882" lon="2.21648">
        <ele>84.7</ele>
        <time>2022-12-09T13:21:57Z</time>
      </trkpt>
      <trkpt lat="49.86882" lon="2.21647">
        <ele>84.7</ele>
        <time>2022-12-09T13:21:58Z</time>
      </trkpt>
      <trkpt lat="49.86883" lon="2.21645">
        <ele>84.7</ele>
        <time>2022-12-09T13:21:59Z</time>
      </trkpt>
      <trkpt lat="49.86883" lon="2.21642">
        <ele>84.8</ele>
        <time>2022-12-09T13:22:00Z</time>
      </trkpt>
      <trkpt lat="49.86884" lon="2.21641">
        <ele>84.9</ele>
        <time>2022-12-09T13:22:01Z</time>
      </trkpt>
      <trkpt lat="49.86884" lon="2.21639">
        <ele>84.9</ele>
        <time>2022-12-09T13:22:02Z</time>
      </trkpt>
      <trkpt lat="49.86884" lon="2.21638">
        <ele>85</ele>
        <time>2022-12-09T13:22:03Z</time>
      </trkpt>
      <trkpt lat="49.86885" lon="2.21637">
        <ele>85</ele>
        <time>2022-12-09T13:22:04Z</time>
      </trkpt>
      <trkpt lat="49.86885" lon="2.21635">
        <ele>85.1</ele>
        <time>2022-12-09T13:22:05Z</time>
      </trkpt>
      <trkpt lat="49.86885" lon="2.21632">
        <ele>85.2</ele>
        <time>2022-12-09T13:22:07Z</time>
      </trkpt>
      <trkpt lat="49.86885" lon="2.2163">
        <ele>85.2</ele>
        <time>2022-12-09T13:22:08Z</time>
      </trkpt>
      <trkpt lat="49.86885" lon="2.21629">
        <ele>85.2</ele>
        <time>2022-12-09T13:22:09Z</time>
      </trkpt>
      <trkpt lat="49.86886" lon="2.21626">
        <ele>85.4</ele>
        <time>2022-12-09T13:22:10Z</time>
      </trkpt>
      <trkpt lat="49.86886" lon="2.21625">
        <ele>85.4</ele>
        <time>2022-12-09T13:22:11Z</time>
      </trkpt>
      <trkpt lat="49.86886" lon="2.21624">
        <ele>85.5</ele>
        <time>2022-12-09T13:22:12Z</time>
      </trkpt>
      <trkpt lat="49.86886" lon="2.21622">
        <ele>85.5</ele>
        <time>2022-12-09T13:22:13Z</time>
      </trkpt>
      <trkpt lat="49.86887" lon="2.2162">
        <ele>85.6</ele>
        <time>2022-12-09T13:22:14Z</time>
      </trkpt>
      <trkpt lat="49.86886" lon="2.21618">
        <ele>85.7</ele>
        <time>2022-12-09T13:22:15Z</time>
      </trkpt>
      <trkpt lat="49.86886" lon="2.21615">
        <ele>85.8</ele>
        <time>2022-12-09T13:22:16Z</time>
      </trkpt>
      <trkpt lat="49.86886" lon="2.21614">
        <ele>85.9</ele>
        <time>2022-12-09T13:22:17Z</time>
      </trkpt>
      <trkpt lat="49.86886" lon="2.21612">
        <ele>85.9</ele>
        <time>2022-12-09T13:22:19Z</time>
      </trkpt>
      <trkpt lat="49.86886" lon="2.21611">
        <ele>86</ele>
        <time>2022-12-09T13:22:20Z</time>
      </trkpt>
      <trkpt lat="49.86886" lon="2.21609">
        <ele>86</ele>
        <time>2022-12-09T13:22:21Z</time>
      </trkpt>
      <trkpt lat="49.86886" lon="2.21608">
        <ele>86.1</ele>
        <time>2022-12-09T13:22:22Z</time>
      </trkpt>
      <trkpt lat="49.86886" lon="2.21606">
        <ele>86.2</ele>
        <time>2022-12-09T13:22:23Z</time>
      </trkpt>
      <trkpt lat="49.86886" lon="2.21604">
        <ele>86.3</ele>
        <time>2022-12-09T13:22:25Z</time>
      </trkpt>
      <trkpt lat="49.86885" lon="2.21602">
        <ele>86.3</ele>
        <time>2022-12-09T13:22:26Z</time>
      </trkpt>
      <trkpt lat="49.86885" lon="2.216">
        <ele>86.4</ele>
        <time>2022-12-09T13:22:27Z</time>
      </trkpt>
      <trkpt lat="49.86885" lon="2.21599">
        <ele>86.5</ele>
        <time>2022-12-09T13:22:28Z</time>
      </trkpt>
      <trkpt lat="49.86884" lon="2.21597">
        <ele>86.5</ele>
        <time>2022-12-09T13:22:29Z</time>
      </trkpt>
      <trkpt lat="49.86884" lon="2.21595">
        <ele>86.6</ele>
        <time>2022-12-09T13:22:30Z</time>
      </trkpt>
      <trkpt lat="49.86884" lon="2.21594">
        <ele>86.7</ele>
        <time>2022-12-09T13:22:31Z</time>
      </trkpt>
      <trkpt lat="49.86883" lon="2.21592">
        <ele>86.8</ele>
        <time>2022-12-09T13:22:32Z</time>
      </trkpt>
      <trkpt lat="49.86883" lon="2.2159">
        <ele>86.8</ele>
        <time>2022-12-09T13:22:34Z</time>
      </trkpt>
      <trkpt lat="49.86883" lon="2.21588">
        <ele>86.9</ele>
        <time>2022-12-09T13:22:35Z</time>
      </trkpt>
      <trkpt lat="49.86883" lon="2.21586">
        <ele>87</ele>
        <time>2022-12-09T13:22:36Z</time>
      </trkpt>
      <trkpt lat="49.86883" lon="2.21585">
        <ele>87</ele>
        <time>2022-12-09T13:22:37Z</time>
      </trkpt>
      <trkpt lat="49.86883" lon="2.21584">
        <ele>87.1</ele>
        <time>2022-12-09T13:22:38Z</time>
      </trkpt>
      <trkpt lat="49.86883" lon="2.21582">
        <ele>87.2</ele>
        <time>2022-12-09T13:22:39Z</time>
      </trkpt>
      <trkpt lat="49.86883" lon="2.2158">
        <ele>87.2</ele>
        <time>2022-12-09T13:22:40Z</time>
      </trkpt>
      <trkpt lat="49.86883" lon="2.21578">
        <ele>87.3</ele>
        <time>2022-12-09T13:22:41Z</time>
      </trkpt>
      <trkpt lat="49.86883" lon="2.21575">
        <ele>87.5</ele>
        <time>2022-12-09T13:22:42Z</time>
      </trkpt>
      <trkpt lat="49.86883" lon="2.21574">
        <ele>87.5</ele>
        <time>2022-12-09T13:22:44Z</time>
      </trkpt>
      <trkpt lat="49.86883" lon="2.21573">
        <ele>87.6</ele>
        <time>2022-12-09T13:22:45Z</time>
      </trkpt>
      <trkpt lat="49.86883" lon="2.21571">
        <ele>87.7</ele>
        <time>2022-12-09T13:22:46Z</time>
      </trkpt>
      <trkpt lat="49.86883" lon="2.2157">
        <ele>87.7</ele>
        <time>2022-12-09T13:22:47Z</time>
      </trkpt>
      <trkpt lat="49.86883" lon="2.21568">
        <ele>87.8</ele>
        <time>2022-12-09T13:22:48Z</time>
      </trkpt>
      <trkpt lat="49.86883" lon="2.21566">
        <ele>87.9</ele>
        <time>2022-12-09T13:22:49Z</time>
      </trkpt>
      <trkpt lat="49.86883" lon="2.21564">
        <ele>88</ele>
        <time>2022-12-09T13:22:51Z</time>
      </trkpt>
      <trkpt lat="49.86883" lon="2.21563">
        <ele>88.1</ele>
        <time>2022-12-09T13:22:52Z</time>
      </trkpt>
      <trkpt lat="49.86883" lon="2.21561">
        <ele>88.2</ele>
        <time>2022-12-09T13:22:53Z</time>
      </trkpt>
      <trkpt lat="49.86883" lon="2.21559">
        <ele>88.2</ele>
        <time>2022-12-09T13:22:54Z</time>
      </trkpt>
      <trkpt lat="49.86883" lon="2.21557">
        <ele>88.3</ele>
        <time>2022-12-09T13:22:55Z</time>
      </trkpt>
      <trkpt lat="49.86882" lon="2.21554">
        <ele>88.5</ele>
        <time>2022-12-09T13:22:56Z</time>
      </trkpt>
      <trkpt lat="49.86882" lon="2.21553">
        <ele>88.6</ele>
        <time>2022-12-09T13:22:57Z</time>
      </trkpt>
      <trkpt lat="49.86882" lon="2.21551">
        <ele>88.6</ele>
        <time>2022-12-09T13:22:58Z</time>
      </trkpt>
      <trkpt lat="49.86882" lon="2.21549">
        <ele>88.8</ele>
        <time>2022-12-09T13:23:00Z</time>
      </trkpt>
      <trkpt lat="49.86882" lon="2.21547">
        <ele>88.9</ele>
        <time>2022-12-09T13:23:01Z</time>
      </trkpt>
      <trkpt lat="49.86882" lon="2.21545">
        <ele>89</ele>
        <time>2022-12-09T13:23:02Z</time>
      </trkpt>
      <trkpt lat="49.86882" lon="2.21544">
        <ele>89</ele>
        <time>2022-12-09T13:23:03Z</time>
      </trkpt>
      <trkpt lat="49.86882" lon="2.21542">
        <ele>89.1</ele>
        <time>2022-12-09T13:23:04Z</time>
      </trkpt>
      <trkpt lat="49.86882" lon="2.2154">
        <ele>89.3</ele>
        <time>2022-12-09T13:23:05Z</time>
      </trkpt>
      <trkpt lat="49.86882" lon="2.21538">
        <ele>89.3</ele>
        <time>2022-12-09T13:23:06Z</time>
      </trkpt>
      <trkpt lat="49.86882" lon="2.21535">
        <ele>89.3</ele>
        <time>2022-12-09T13:23:08Z</time>
      </trkpt>
      <trkpt lat="49.86881" lon="2.21532">
        <ele>89.2</ele>
        <time>2022-12-09T13:23:09Z</time>
      </trkpt>
      <trkpt lat="49.86881" lon="2.21531">
        <ele>89.2</ele>
        <time>2022-12-09T13:23:10Z</time>
      </trkpt>
      <trkpt lat="49.86881" lon="2.2153">
        <ele>89.2</ele>
        <time>2022-12-09T13:23:11Z</time>
      </trkpt>
      <trkpt lat="49.86881" lon="2.21528">
        <ele>89.1</ele>
        <time>2022-12-09T13:23:12Z</time>
      </trkpt>
      <trkpt lat="49.86881" lon="2.21527">
        <ele>89.1</ele>
        <time>2022-12-09T13:23:14Z</time>
      </trkpt>
      <trkpt lat="49.86881" lon="2.21525">
        <ele>89</ele>
        <time>2022-12-09T13:23:15Z</time>
      </trkpt>
      <trkpt lat="49.86881" lon="2.21523">
        <ele>89</ele>
        <time>2022-12-09T13:23:16Z</time>
      </trkpt>
      <trkpt lat="49.86882" lon="2.21522">
        <ele>88.9</ele>
        <time>2022-12-09T13:23:17Z</time>
      </trkpt>
      <trkpt lat="49.86882" lon="2.21521">
        <ele>88.9</ele>
        <time>2022-12-09T13:23:18Z</time>
      </trkpt>
      <trkpt lat="49.86882" lon="2.21519">
        <ele>88.8</ele>
        <time>2022-12-09T13:23:19Z</time>
      </trkpt>
      <trkpt lat="49.86882" lon="2.21519">
        <ele>88.8</ele>
        <time>2022-12-09T13:23:20Z</time>
      </trkpt>
      <trkpt lat="49.86882" lon="2.21519">
        <ele>88.8</ele>
        <time>2022-12-09T13:23:22Z</time>
      </trkpt>
      <trkpt lat="49.86882" lon="2.21519">
        <ele>88.8</ele>
        <time>2022-12-09T13:23:23Z</time>
      </trkpt>
      <trkpt lat="49.86882" lon="2.21519">
        <ele>88.8</ele>
        <time>2022-12-09T13:23:25Z</time>
      </trkpt>
      <trkpt lat="49.86882" lon="2.21519">
        <ele>88.8</ele>
        <time>2022-12-09T13:23:26Z</time>
      </trkpt>
      <trkpt lat="49.86882" lon="2.21519">
        <ele>88.8</ele>
        <time>2022-12-09T13:23:27Z</time>
      </trkpt>
      <trkpt lat="49.86882" lon="2.21519">
        <ele>88.8</ele>
        <time>2022-12-09T13:23:29Z</time>
      </trkpt>
      <trkpt lat="49.86882" lon="2.2152">
        <ele>88.8</ele>
        <time>2022-12-09T13:23:30Z</time>
      </trkpt>
      <trkpt lat="49.86882" lon="2.2152">
        <ele>88.8</ele>
        <time>2022-12-09T13:23:32Z</time>
      </trkpt>
      <trkpt lat="49.86882" lon="2.2152">
        <ele>88.8</ele>
        <time>2022-12-09T13:23:33Z</time>
      </trkpt>
      <trkpt lat="49.86882" lon="2.2152">
        <ele>88.8</ele>
        <time>2022-12-09T13:23:34Z</time>
      </trkpt>
      <trkpt lat="49.86882" lon="2.2152">
        <ele>88.8</ele>
        <time>2022-12-09T13:23:36Z</time>
      </trkpt>
      <trkpt lat="49.86882" lon="2.2152">
        <ele>88.8</ele>
        <time>2022-12-09T13:23:37Z</time>
      </trkpt>
      <trkpt lat="49.86882" lon="2.2152">
        <ele>88.8</ele>
        <time>2022-12-09T13:23:39Z</time>
      </trkpt>
      <trkpt lat="49.86882" lon="2.2152">
        <ele>88.8</ele>
        <time>2022-12-09T13:23:40Z</time>
      </trkpt>
      <trkpt lat="49.86882" lon="2.2152">
        <ele>88.8</ele>
        <time>2022-12-09T13:23:42Z</time>
      </trkpt>
      <trkpt lat="49.86882" lon="2.2152">
        <ele>88.8</ele>
        <time>2022-12-09T13:23:43Z</time>
      </trkpt>
      <trkpt lat="49.86882" lon="2.2152">
        <ele>88.8</ele>
        <time>2022-12-09T13:23:44Z</time>
      </trkpt>
      <trkpt lat="49.86882" lon="2.2152">
        <ele>88.8</ele>
        <time>2022-12-09T13:23:45Z</time>
      </trkpt>
      <trkpt lat="49.86882" lon="2.2152">
        <ele>88.8</ele>
        <time>2022-12-09T13:23:46Z</time>
      </trkpt>
      <trkpt lat="49.86882" lon="2.2152">
        <ele>88.8</ele>
        <time>2022-12-09T13:23:47Z</time>
      </trkpt>
      <trkpt lat="49.86882" lon="2.2152">
        <ele>88.8</ele>
        <time>2022-12-09T13:23:48Z</time>
      </trkpt>
      <trkpt lat="49.86882" lon="2.2152">
        <ele>88.8</ele>
        <time>2022-12-09T13:23:49Z</time>
      </trkpt>
      <trkpt lat="49.86882" lon="2.2152">
        <ele>88.8</ele>
        <time>2022-12-09T13:23:50Z</time>
      </trkpt>
      <trkpt lat="49.86882" lon="2.2152">
        <ele>88.8</ele>
        <time>2022-12-09T13:23:51Z</time>
      </trkpt>
      <trkpt lat="49.86882" lon="2.2152">
        <ele>88.8</ele>
        <time>2022-12-09T13:23:52Z</time>
      </trkpt>
      <trkpt lat="49.86882" lon="2.2152">
        <ele>88.8</ele>
        <time>2022-12-09T13:23:53Z</time>
      </trkpt>
      <trkpt lat="49.86882" lon="2.2152">
        <ele>88.8</ele>
        <time>2022-12-09T13:23:54Z</time>
      </trkpt>
      <trkpt lat="49.86882" lon="2.2152">
        <ele>88.8</ele>
        <time>2022-12-09T13:23:55Z</time>
      </trkpt>
      <trkpt lat="49.86882" lon="2.2152">
        <ele>88.8</ele>
        <time>2022-12-09T13:23:56Z</time>
      </trkpt>
      <trkpt lat="49.86882" lon="2.2152">
        <ele>88.8</ele>
        <time>2022-12-09T13:23:57Z</time>
      </trkpt>
      <trkpt lat="49.86882" lon="2.2152">
        <ele>88.8</ele>
        <time>2022-12-09T13:23:58Z</time>
      </trkpt>
      <trkpt lat="49.86882" lon="2.2152">
        <ele>88.8</ele>
        <time>2022-12-09T13:23:59Z</time>
      </trkpt>
      <trkpt lat="49.86882" lon="2.2152">
        <ele>88.8</ele>
        <time>2022-12-09T13:24:00Z</time>
      </trkpt>
      <trkpt lat="49.86882" lon="2.2152">
        <ele>88.8</ele>
        <time>2022-12-09T13:24:01Z</time>
      </trkpt>
      <trkpt lat="49.86882" lon="2.2152">
        <ele>88.8</ele>
        <time>2022-12-09T13:24:02Z</time>
      </trkpt>
      <trkpt lat="49.86882" lon="2.2152">
        <ele>88.8</ele>
        <time>2022-12-09T13:24:03Z</time>
      </trkpt>
      <trkpt lat="49.86882" lon="2.2152">
        <ele>88.8</ele>
        <time>2022-12-09T13:24:04Z</time>
      </trkpt>
      <trkpt lat="49.86882" lon="2.2152">
        <ele>88.8</ele>
        <time>2022-12-09T13:24:05Z</time>
      </trkpt>
      <trkpt lat="49.86882" lon="2.2152">
        <ele>88.8</ele>
        <time>2022-12-09T13:24:06Z</time>
      </trkpt>
      <trkpt lat="49.86882" lon="2.2152">
        <ele>88.8</ele>
        <time>2022-12-09T13:24:07Z</time>
      </trkpt>
      <trkpt lat="49.86882" lon="2.2152">
        <ele>88.8</ele>
        <time>2022-12-09T13:24:08Z</time>
      </trkpt>
      <trkpt lat="49.86882" lon="2.2152">
        <ele>88.8</ele>
        <time>2022-12-09T13:24:09Z</time>
      </trkpt>
      <trkpt lat="49.86882" lon="2.2152">
        <ele>88.8</ele>
        <time>2022-12-09T13:24:10Z</time>
      </trkpt>
      <trkpt lat="49.86882" lon="2.2152">
        <ele>88.8</ele>
        <time>2022-12-09T13:24:11Z</time>
      </trkpt>
      <trkpt lat="49.86882" lon="2.2152">
        <ele>88.8</ele>
        <time>2022-12-09T13:24:12Z</time>
      </trkpt>
      <trkpt lat="49.86882" lon="2.2152">
        <ele>88.8</ele>
        <time>2022-12-09T13:24:13Z</time>
      </trkpt>
      <trkpt lat="49.86882" lon="2.2152">
        <ele>88.8</ele>
        <time>2022-12-09T13:24:14Z</time>
      </trkpt>
      <trkpt lat="49.86882" lon="2.2152">
        <ele>88.8</ele>
        <time>2022-12-09T13:24:15Z</time>
      </trkpt>
      <trkpt lat="49.86882" lon="2.2152">
        <ele>88.8</ele>
        <time>2022-12-09T13:24:16Z</time>
      </trkpt>
      <trkpt lat="49.86882" lon="2.2152">
        <ele>88.8</ele>
        <time>2022-12-09T13:24:17Z</time>
      </trkpt>
      <trkpt lat="49.86882" lon="2.2152">
        <ele>88.8</ele>
        <time>2022-12-09T13:24:18Z</time>
      </trkpt>
      <trkpt lat="49.86882" lon="2.2152">
        <ele>88.8</ele>
        <time>2022-12-09T13:24:19Z</time>
      </trkpt>
      <trkpt lat="49.86882" lon="2.2152">
        <ele>88.8</ele>
        <time>2022-12-09T13:24:20Z</time>
      </trkpt>
      <trkpt lat="49.86882" lon="2.2152">
        <ele>88.8</ele>
        <time>2022-12-09T13:24:21Z</time>
      </trkpt>
      <trkpt lat="49.86882" lon="2.2152">
        <ele>88.8</ele>
        <time>2022-12-09T13:24:22Z</time>
      </trkpt>
      <trkpt lat="49.86882" lon="2.2152">
        <ele>88.8</ele>
        <time>2022-12-09T13:24:23Z</time>
      </trkpt>
      <trkpt lat="49.86882" lon="2.2152">
        <ele>88.8</ele>
        <time>2022-12-09T13:24:24Z</time>
      </trkpt>
      <trkpt lat="49.86882" lon="2.2152">
        <ele>88.8</ele>
        <time>2022-12-09T13:24:25Z</time>
      </trkpt>
      <trkpt lat="49.86882" lon="2.2152">
        <ele>88.8</ele>
        <time>2022-12-09T13:24:26Z</time>
      </trkpt>
      <trkpt lat="49.86882" lon="2.2152">
        <ele>88.8</ele>
        <time>2022-12-09T13:24:27Z</time>
      </trkpt>
      <trkpt lat="49.86882" lon="2.2152">
        <ele>88.8</ele>
        <time>2022-12-09T13:24:28Z</time>
      </trkpt>
      <trkpt lat="49.86882" lon="2.2152">
        <ele>88.8</ele>
        <time>2022-12-09T13:24:29Z</time>
      </trkpt>
      <trkpt lat="49.86882" lon="2.2152">
        <ele>88.8</ele>
        <time>2022-12-09T13:24:30Z</time>
      </trkpt>
      <trkpt lat="49.86882" lon="2.2152">
        <ele>88.8</ele>
        <time>2022-12-09T13:24:31Z</time>
      </trkpt>
      <trkpt lat="49.86882" lon="2.2152">
        <ele>88.8</ele>
        <time>2022-12-09T13:24:32Z</time>
      </trkpt>
      <trkpt lat="49.86882" lon="2.2152">
        <ele>88.8</ele>
        <time>2022-12-09T13:24:33Z</time>
      </trkpt>
      <trkpt lat="49.86882" lon="2.2152">
        <ele>88.8</ele>
        <time>2022-12-09T13:24:34Z</time>
      </trkpt>
      <trkpt lat="49.86882" lon="2.2152">
        <ele>88.8</ele>
        <time>2022-12-09T13:24:35Z</time>
      </trkpt>
      <trkpt lat="49.86882" lon="2.2152">
        <ele>88.8</ele>
        <time>2022-12-09T13:24:36Z</time>
      </trkpt>
      <trkpt lat="49.86882" lon="2.2152">
        <ele>88.8</ele>
        <time>2022-12-09T13:24:37Z</time>
      </trkpt>
      <trkpt lat="49.86882" lon="2.2152">
        <ele>88.8</ele>
        <time>2022-12-09T13:24:38Z</time>
      </trkpt>
      <trkpt lat="49.86882" lon="2.2152">
        <ele>88.8</ele>
        <time>2022-12-09T13:24:39Z</time>
      </trkpt>
      <trkpt lat="49.86882" lon="2.21521">
        <ele>88.8</ele>
        <time>2022-12-09T13:24:40Z</time>
      </trkpt>
      <trkpt lat="49.86882" lon="2.21521">
        <ele>88.8</ele>
        <time>2022-12-09T13:24:41Z</time>
      </trkpt>
      <trkpt lat="49.86882" lon="2.21521">
        <ele>88.8</ele>
        <time>2022-12-09T13:24:42Z</time>
      </trkpt>
      <trkpt lat="49.86882" lon="2.21521">
        <ele>88.8</ele>
        <time>2022-12-09T13:24:43Z</time>
      </trkpt>
      <trkpt lat="49.86882" lon="2.21521">
        <ele>88.8</ele>
        <time>2022-12-09T13:24:44Z</time>
      </trkpt>
      <trkpt lat="49.86882" lon="2.21521">
        <ele>88.8</ele>
        <time>2022-12-09T13:24:45Z</time>
      </trkpt>
      <trkpt lat="49.86882" lon="2.21521">
        <ele>88.8</ele>
        <time>2022-12-09T13:24:46Z</time>
      </trkpt>
      <trkpt lat="49.86882" lon="2.21521">
        <ele>88.8</ele>
        <time>2022-12-09T13:24:47Z</time>
      </trkpt>
      <trkpt lat="49.86882" lon="2.21521">
        <ele>88.8</ele>
        <time>2022-12-09T13:24:48Z</time>
      </trkpt>
      <trkpt lat="49.86882" lon="2.21521">
        <ele>88.8</ele>
        <time>2022-12-09T13:24:49Z</time>
      </trkpt>
      <trkpt lat="49.86882" lon="2.21521">
        <ele>88.8</ele>
        <time>2022-12-09T13:24:50Z</time>
      </trkpt>
      <trkpt lat="49.86882" lon="2.21521">
        <ele>88.8</ele>
        <time>2022-12-09T13:24:51Z</time>
      </trkpt>
      <trkpt lat="49.86882" lon="2.21521">
        <ele>88.8</ele>
        <time>2022-12-09T13:24:52Z</time>
      </trkpt>
      <trkpt lat="49.86882" lon="2.21521">
        <ele>88.8</ele>
        <time>2022-12-09T13:24:53Z</time>
      </trkpt>
      <trkpt lat="49.86882" lon="2.21521">
        <ele>88.7</ele>
        <time>2022-12-09T13:24:54Z</time>
      </trkpt>
      <trkpt lat="49.86882" lon="2.21521">
        <ele>88.7</ele>
        <time>2022-12-09T13:24:55Z</time>
      </trkpt>
      <trkpt lat="49.86882" lon="2.21521">
        <ele>88.7</ele>
        <time>2022-12-09T13:24:56Z</time>
      </trkpt>
      <trkpt lat="49.86882" lon="2.21521">
        <ele>88.7</ele>
        <time>2022-12-09T13:24:57Z</time>
      </trkpt>
      <trkpt lat="49.86882" lon="2.21521">
        <ele>88.7</ele>
        <time>2022-12-09T13:24:58Z</time>
      </trkpt>
      <trkpt lat="49.86882" lon="2.21521">
        <ele>88.7</ele>
        <time>2022-12-09T13:24:59Z</time>
      </trkpt>
      <trkpt lat="49.86882" lon="2.21521">
        <ele>88.7</ele>
        <time>2022-12-09T13:25:00Z</time>
      </trkpt>
      <trkpt lat="49.86882" lon="2.21521">
        <ele>88.7</ele>
        <time>2022-12-09T13:25:01Z</time>
      </trkpt>
      <trkpt lat="49.86882" lon="2.21521">
        <ele>88.7</ele>
        <time>2022-12-09T13:25:02Z</time>
      </trkpt>
      <trkpt lat="49.86882" lon="2.21521">
        <ele>88.7</ele>
        <time>2022-12-09T13:25:03Z</time>
      </trkpt>
      <trkpt lat="49.86882" lon="2.21521">
        <ele>88.7</ele>
        <time>2022-12-09T13:25:04Z</time>
      </trkpt>
      <trkpt lat="49.86882" lon="2.21521">
        <ele>88.7</ele>
        <time>2022-12-09T13:25:05Z</time>
      </trkpt>
      <trkpt lat="49.86882" lon="2.21521">
        <ele>88.7</ele>
        <time>2022-12-09T13:25:06Z</time>
      </trkpt>
      <trkpt lat="49.86882" lon="2.21521">
        <ele>88.7</ele>
        <time>2022-12-09T13:25:07Z</time>
      </trkpt>
      <trkpt lat="49.86882" lon="2.21521">
        <ele>88.7</ele>
        <time>2022-12-09T13:25:08Z</time>
      </trkpt>
      <trkpt lat="49.86882" lon="2.21521">
        <ele>88.7</ele>
        <time>2022-12-09T13:25:09Z</time>
      </trkpt>
      <trkpt lat="49.86882" lon="2.21521">
        <ele>88.7</ele>
        <time>2022-12-09T13:25:10Z</time>
      </trkpt>
      <trkpt lat="49.86882" lon="2.21521">
        <ele>88.7</ele>
        <time>2022-12-09T13:25:11Z</time>
      </trkpt>
      <trkpt lat="49.86882" lon="2.21521">
        <ele>88.7</ele>
        <time>2022-12-09T13:25:12Z</time>
      </trkpt>
      <trkpt lat="49.86882" lon="2.21521">
        <ele>88.7</ele>
        <time>2022-12-09T13:25:13Z</time>
      </trkpt>
      <trkpt lat="49.86882" lon="2.21521">
        <ele>88.7</ele>
        <time>2022-12-09T13:25:14Z</time>
      </trkpt>
      <trkpt lat="49.86882" lon="2.21521">
        <ele>88.7</ele>
        <time>2022-12-09T13:25:15Z</time>
      </trkpt>
      <trkpt lat="49.86882" lon="2.21521">
        <ele>88.7</ele>
        <time>2022-12-09T13:25:16Z</time>
      </trkpt>
      <trkpt lat="49.86882" lon="2.21521">
        <ele>88.7</ele>
        <time>2022-12-09T13:25:17Z</time>
      </trkpt>
      <trkpt lat="49.86882" lon="2.21521">
        <ele>88.7</ele>
        <time>2022-12-09T13:25:18Z</time>
      </trkpt>
      <trkpt lat="49.86882" lon="2.21521">
        <ele>88.7</ele>
        <time>2022-12-09T13:25:19Z</time>
      </trkpt>
      <trkpt lat="49.86882" lon="2.21521">
        <ele>88.7</ele>
        <time>2022-12-09T13:25:21Z</time>
      </trkpt>
      <trkpt lat="49.86882" lon="2.21521">
        <ele>88.7</ele>
        <time>2022-12-09T13:25:22Z</time>
      </trkpt>
      <trkpt lat="49.86882" lon="2.21521">
        <ele>88.7</ele>
        <time>2022-12-09T13:25:23Z</time>
      </trkpt>
      <trkpt lat="49.86882" lon="2.21521">
        <ele>88.7</ele>
        <time>2022-12-09T13:25:24Z</time>
      </trkpt>
      <trkpt lat="49.86881" lon="2.21522">
        <ele>88.7</ele>
        <time>2022-12-09T13:25:25Z</time>
      </trkpt>
      <trkpt lat="49.86879" lon="2.21524">
        <ele>88.5</ele>
        <time>2022-12-09T13:25:27Z</time>
      </trkpt>
      <trkpt lat="49.86879" lon="2.21526">
        <ele>88.5</ele>
        <time>2022-12-09T13:25:28Z</time>
      </trkpt>
      <trkpt lat="49.86878" lon="2.21527">
        <ele>88.4</ele>
        <time>2022-12-09T13:25:30Z</time>
      </trkpt>
      <trkpt lat="49.86878" lon="2.21528">
        <ele>88.4</ele>
        <time>2022-12-09T13:25:31Z</time>
      </trkpt>
      <trkpt lat="49.86877" lon="2.21528">
        <ele>88.3</ele>
        <time>2022-12-09T13:25:32Z</time>
      </trkpt>
      <trkpt lat="49.86877" lon="2.21527">
        <ele>88.3</ele>
        <time>2022-12-09T13:25:34Z</time>
      </trkpt>
      <trkpt lat="49.86876" lon="2.21527">
        <ele>88.3</ele>
        <time>2022-12-09T13:25:35Z</time>
      </trkpt>
      <trkpt lat="49.86875" lon="2.21527">
        <ele>88.2</ele>
        <time>2022-12-09T13:25:36Z</time>
      </trkpt>
      <trkpt lat="49.86875" lon="2.21528">
        <ele>88.2</ele>
        <time>2022-12-09T13:25:37Z</time>
      </trkpt>
      <trkpt lat="49.86875" lon="2.21528">
        <ele>88.1</ele>
        <time>2022-12-09T13:25:38Z</time>
      </trkpt>
      <trkpt lat="49.86874" lon="2.21528">
        <ele>88.1</ele>
        <time>2022-12-09T13:25:39Z</time>
      </trkpt>
      <trkpt lat="49.86873" lon="2.21528">
        <ele>88</ele>
        <time>2022-12-09T13:25:41Z</time>
      </trkpt>
      <trkpt lat="49.86872" lon="2.21528">
        <ele>88</ele>
        <time>2022-12-09T13:25:42Z</time>
      </trkpt>
      <trkpt lat="49.86871" lon="2.21527">
        <ele>87.9</ele>
        <time>2022-12-09T13:25:43Z</time>
      </trkpt>
      <trkpt lat="49.8687" lon="2.21527">
        <ele>87.8</ele>
        <time>2022-12-09T13:25:44Z</time>
      </trkpt>
      <trkpt lat="49.86868" lon="2.21526">
        <ele>87.7</ele>
        <time>2022-12-09T13:25:45Z</time>
      </trkpt>
      <trkpt lat="49.86867" lon="2.21525">
        <ele>87.6</ele>
        <time>2022-12-09T13:25:46Z</time>
      </trkpt>
      <trkpt lat="49.86866" lon="2.21524">
        <ele>87.5</ele>
        <time>2022-12-09T13:25:47Z</time>
      </trkpt>
      <trkpt lat="49.86865" lon="2.21524">
        <ele>87.5</ele>
        <time>2022-12-09T13:25:49Z</time>
      </trkpt>
      <trkpt lat="49.86863" lon="2.21524">
        <ele>87.3</ele>
        <time>2022-12-09T13:25:50Z</time>
      </trkpt>
      <trkpt lat="49.86862" lon="2.21524">
        <ele>87.2</ele>
        <time>2022-12-09T13:25:51Z</time>
      </trkpt>
      <trkpt lat="49.86861" lon="2.21523">
        <ele>87.1</ele>
        <time>2022-12-09T13:25:52Z</time>
      </trkpt>
      <trkpt lat="49.86859" lon="2.21523">
        <ele>87</ele>
        <time>2022-12-09T13:25:53Z</time>
      </trkpt>
      <trkpt lat="49.86858" lon="2.21522">
        <ele>87</ele>
        <time>2022-12-09T13:25:54Z</time>
      </trkpt>
      <trkpt lat="49.86857" lon="2.21522">
        <ele>86.9</ele>
        <time>2022-12-09T13:25:55Z</time>
      </trkpt>
      <trkpt lat="49.86856" lon="2.21522">
        <ele>86.8</ele>
        <time>2022-12-09T13:25:57Z</time>
      </trkpt>
      <trkpt lat="49.86854" lon="2.21522">
        <ele>86.7</ele>
        <time>2022-12-09T13:25:58Z</time>
      </trkpt>
      <trkpt lat="49.86853" lon="2.21523">
        <ele>86.6</ele>
        <time>2022-12-09T13:25:59Z</time>
      </trkpt>
      <trkpt lat="49.86851" lon="2.21523">
        <ele>86.5</ele>
        <time>2022-12-09T13:26:00Z</time>
      </trkpt>
      <trkpt lat="49.8685" lon="2.21524">
        <ele>86.4</ele>
        <time>2022-12-09T13:26:01Z</time>
      </trkpt>
      <trkpt lat="49.86848" lon="2.21524">
        <ele>86.2</ele>
        <time>2022-12-09T13:26:02Z</time>
      </trkpt>
      <trkpt lat="49.86847" lon="2.21525">
        <ele>86.1</ele>
        <time>2022-12-09T13:26:04Z</time>
      </trkpt>
      <trkpt lat="49.86845" lon="2.21525">
        <ele>86</ele>
        <time>2022-12-09T13:26:05Z</time>
      </trkpt>
      <trkpt lat="49.86844" lon="2.21526">
        <ele>85.9</ele>
        <time>2022-12-09T13:26:06Z</time>
      </trkpt>
      <trkpt lat="49.86843" lon="2.21526">
        <ele>85.8</ele>
        <time>2022-12-09T13:26:07Z</time>
      </trkpt>
      <trkpt lat="49.86841" lon="2.21527">
        <ele>85.7</ele>
        <time>2022-12-09T13:26:08Z</time>
      </trkpt>
      <trkpt lat="49.86839" lon="2.21528">
        <ele>85.5</ele>
        <time>2022-12-09T13:26:09Z</time>
      </trkpt>
      <trkpt lat="49.86839" lon="2.21528">
        <ele>85.5</ele>
        <time>2022-12-09T13:26:10Z</time>
      </trkpt>
      <trkpt lat="49.86838" lon="2.21529">
        <ele>85.4</ele>
        <time>2022-12-09T13:26:11Z</time>
      </trkpt>
      <trkpt lat="49.86836" lon="2.2153">
        <ele>85.3</ele>
        <time>2022-12-09T13:26:12Z</time>
      </trkpt>
      <trkpt lat="49.86835" lon="2.21531">
        <ele>85.2</ele>
        <time>2022-12-09T13:26:13Z</time>
      </trkpt>
      <trkpt lat="49.86834" lon="2.21531">
        <ele>85.1</ele>
        <time>2022-12-09T13:26:14Z</time>
      </trkpt>
      <trkpt lat="49.86833" lon="2.21532">
        <ele>85</ele>
        <time>2022-12-09T13:26:16Z</time>
      </trkpt>
      <trkpt lat="49.86832" lon="2.21533">
        <ele>84.9</ele>
        <time>2022-12-09T13:26:17Z</time>
      </trkpt>
      <trkpt lat="49.8683" lon="2.21533">
        <ele>84.8</ele>
        <time>2022-12-09T13:26:18Z</time>
      </trkpt>
      <trkpt lat="49.86829" lon="2.21534">
        <ele>84.7</ele>
        <time>2022-12-09T13:26:19Z</time>
      </trkpt>
      <trkpt lat="49.86828" lon="2.21534">
        <ele>84.6</ele>
        <time>2022-12-09T13:26:20Z</time>
      </trkpt>
      <trkpt lat="49.86826" lon="2.21534">
        <ele>84.5</ele>
        <time>2022-12-09T13:26:21Z</time>
      </trkpt>
      <trkpt lat="49.86824" lon="2.21534">
        <ele>84.4</ele>
        <time>2022-12-09T13:26:22Z</time>
      </trkpt>
      <trkpt lat="49.86823" lon="2.21533">
        <ele>84.3</ele>
        <time>2022-12-09T13:26:24Z</time>
      </trkpt>
      <trkpt lat="49.86821" lon="2.21533">
        <ele>84.2</ele>
        <time>2022-12-09T13:26:25Z</time>
      </trkpt>
      <trkpt lat="49.8682" lon="2.21534">
        <ele>84.1</ele>
        <time>2022-12-09T13:26:26Z</time>
      </trkpt>
      <trkpt lat="49.86819" lon="2.21534">
        <ele>84</ele>
        <time>2022-12-09T13:26:27Z</time>
      </trkpt>
      <trkpt lat="49.86817" lon="2.21534">
        <ele>83.9</ele>
        <time>2022-12-09T13:26:28Z</time>
      </trkpt>
      <trkpt lat="49.86815" lon="2.21535">
        <ele>83.7</ele>
        <time>2022-12-09T13:26:29Z</time>
      </trkpt>
      <trkpt lat="49.86815" lon="2.21535">
        <ele>83.7</ele>
        <time>2022-12-09T13:26:31Z</time>
      </trkpt>
      <trkpt lat="49.86814" lon="2.21536">
        <ele>83.6</ele>
        <time>2022-12-09T13:26:32Z</time>
      </trkpt>
      <trkpt lat="49.86812" lon="2.21537">
        <ele>83.4</ele>
        <time>2022-12-09T13:26:33Z</time>
      </trkpt>
      <trkpt lat="49.86811" lon="2.21537">
        <ele>83.4</ele>
        <time>2022-12-09T13:26:34Z</time>
      </trkpt>
      <trkpt lat="49.8681" lon="2.21538">
        <ele>83.3</ele>
        <time>2022-12-09T13:26:35Z</time>
      </trkpt>
      <trkpt lat="49.86808" lon="2.21538">
        <ele>83.2</ele>
        <time>2022-12-09T13:26:36Z</time>
      </trkpt>
      <trkpt lat="49.86807" lon="2.21538">
        <ele>83.1</ele>
        <time>2022-12-09T13:26:37Z</time>
      </trkpt>
      <trkpt lat="49.86806" lon="2.21538">
        <ele>83</ele>
        <time>2022-12-09T13:26:38Z</time>
      </trkpt>
      <trkpt lat="49.86804" lon="2.21539">
        <ele>82.9</ele>
        <time>2022-12-09T13:26:39Z</time>
      </trkpt>
      <trkpt lat="49.86804" lon="2.21539">
        <ele>82.8</ele>
        <time>2022-12-09T13:26:40Z</time>
      </trkpt>
      <trkpt lat="49.86803" lon="2.2154">
        <ele>82.8</ele>
        <time>2022-12-09T13:26:41Z</time>
      </trkpt>
      <trkpt lat="49.86801" lon="2.2154">
        <ele>82.7</ele>
        <time>2022-12-09T13:26:43Z</time>
      </trkpt>
      <trkpt lat="49.868" lon="2.2154">
        <ele>82.6</ele>
        <time>2022-12-09T13:26:44Z</time>
      </trkpt>
      <trkpt lat="49.86797" lon="2.21541">
        <ele>82.4</ele>
        <time>2022-12-09T13:26:45Z</time>
      </trkpt>
      <trkpt lat="49.86796" lon="2.21542">
        <ele>82.3</ele>
        <time>2022-12-09T13:26:47Z</time>
      </trkpt>
      <trkpt lat="49.86795" lon="2.21542">
        <ele>82.2</ele>
        <time>2022-12-09T13:26:48Z</time>
      </trkpt>
      <trkpt lat="49.86794" lon="2.21543">
        <ele>82.2</ele>
        <time>2022-12-09T13:26:49Z</time>
      </trkpt>
      <trkpt lat="49.86793" lon="2.21543">
        <ele>82.1</ele>
        <time>2022-12-09T13:26:50Z</time>
      </trkpt>
      <trkpt lat="49.86792" lon="2.21544">
        <ele>82</ele>
        <time>2022-12-09T13:26:51Z</time>
      </trkpt>
      <trkpt lat="49.86791" lon="2.21544">
        <ele>81.9</ele>
        <time>2022-12-09T13:26:52Z</time>
      </trkpt>
      <trkpt lat="49.8679" lon="2.21545">
        <ele>81.9</ele>
        <time>2022-12-09T13:26:53Z</time>
      </trkpt>
      <trkpt lat="49.86788" lon="2.21545">
        <ele>81.8</ele>
        <time>2022-12-09T13:26:55Z</time>
      </trkpt>
      <trkpt lat="49.86787" lon="2.21546">
        <ele>81.7</ele>
        <time>2022-12-09T13:26:56Z</time>
      </trkpt>
      <trkpt lat="49.86786" lon="2.21546">
        <ele>81.6</ele>
        <time>2022-12-09T13:26:57Z</time>
      </trkpt>
      <trkpt lat="49.86784" lon="2.21546">
        <ele>81.5</ele>
        <time>2022-12-09T13:26:58Z</time>
      </trkpt>
      <trkpt lat="49.86782" lon="2.21547">
        <ele>81.3</ele>
        <time>2022-12-09T13:26:59Z</time>
      </trkpt>
      <trkpt lat="49.86781" lon="2.21547">
        <ele>81.3</ele>
        <time>2022-12-09T13:27:00Z</time>
      </trkpt>
      <trkpt lat="49.8678" lon="2.21547">
        <ele>81.2</ele>
        <time>2022-12-09T13:27:01Z</time>
      </trkpt>
      <trkpt lat="49.86779" lon="2.21548">
        <ele>81.1</ele>
        <time>2022-12-09T13:27:02Z</time>
      </trkpt>
      <trkpt lat="49.86778" lon="2.21548">
        <ele>81.1</ele>
        <time>2022-12-09T13:27:03Z</time>
      </trkpt>
      <trkpt lat="49.86777" lon="2.21548">
        <ele>81</ele>
        <time>2022-12-09T13:27:04Z</time>
      </trkpt>
      <trkpt lat="49.86776" lon="2.21548">
        <ele>80.9</ele>
        <time>2022-12-09T13:27:05Z</time>
      </trkpt>
      <trkpt lat="49.86775" lon="2.21548">
        <ele>80.9</ele>
        <time>2022-12-09T13:27:07Z</time>
      </trkpt>
      <trkpt lat="49.86774" lon="2.21549">
        <ele>80.8</ele>
        <time>2022-12-09T13:27:08Z</time>
      </trkpt>
      <trkpt lat="49.86772" lon="2.21549">
        <ele>80.6</ele>
        <time>2022-12-09T13:27:09Z</time>
      </trkpt>
      <trkpt lat="49.86771" lon="2.21549">
        <ele>80.6</ele>
        <time>2022-12-09T13:27:10Z</time>
      </trkpt>
      <trkpt lat="49.8677" lon="2.2155">
        <ele>80.5</ele>
        <time>2022-12-09T13:27:11Z</time>
      </trkpt>
      <trkpt lat="49.86768" lon="2.2155">
        <ele>80.4</ele>
        <time>2022-12-09T13:27:12Z</time>
      </trkpt>
      <trkpt lat="49.86767" lon="2.2155">
        <ele>80.4</ele>
        <time>2022-12-09T13:27:13Z</time>
      </trkpt>
      <trkpt lat="49.86767" lon="2.21551">
        <ele>80.3</ele>
        <time>2022-12-09T13:27:14Z</time>
      </trkpt>
      <trkpt lat="49.86765" lon="2.21551">
        <ele>80.2</ele>
        <time>2022-12-09T13:27:15Z</time>
      </trkpt>
      <trkpt lat="49.86764" lon="2.21551">
        <ele>80.1</ele>
        <time>2022-12-09T13:27:17Z</time>
      </trkpt>
      <trkpt lat="49.86763" lon="2.21551">
        <ele>80.1</ele>
        <time>2022-12-09T13:27:18Z</time>
      </trkpt>
      <trkpt lat="49.86762" lon="2.21551">
        <ele>80</ele>
        <time>2022-12-09T13:27:19Z</time>
      </trkpt>
      <trkpt lat="49.86761" lon="2.21551">
        <ele>79.9</ele>
        <time>2022-12-09T13:27:20Z</time>
      </trkpt>
      <trkpt lat="49.8676" lon="2.21552">
        <ele>79.8</ele>
        <time>2022-12-09T13:27:21Z</time>
      </trkpt>
      <trkpt lat="49.86758" lon="2.21552">
        <ele>79.7</ele>
        <time>2022-12-09T13:27:22Z</time>
      </trkpt>
      <trkpt lat="49.86757" lon="2.21552">
        <ele>79.7</ele>
        <time>2022-12-09T13:27:23Z</time>
      </trkpt>
      <trkpt lat="49.86756" lon="2.21552">
        <ele>79.6</ele>
        <time>2022-12-09T13:27:24Z</time>
      </trkpt>
      <trkpt lat="49.86755" lon="2.21553">
        <ele>79.5</ele>
        <time>2022-12-09T13:27:25Z</time>
      </trkpt>
      <trkpt lat="49.86753" lon="2.21553">
        <ele>79.4</ele>
        <time>2022-12-09T13:27:26Z</time>
      </trkpt>
      <trkpt lat="49.86752" lon="2.21553">
        <ele>79.3</ele>
        <time>2022-12-09T13:27:28Z</time>
      </trkpt>
      <trkpt lat="49.8675" lon="2.21554">
        <ele>79.2</ele>
        <time>2022-12-09T13:27:29Z</time>
      </trkpt>
      <trkpt lat="49.86749" lon="2.21555">
        <ele>79.1</ele>
        <time>2022-12-09T13:27:30Z</time>
      </trkpt>
      <trkpt lat="49.86747" lon="2.21556">
        <ele>79</ele>
        <time>2022-12-09T13:27:31Z</time>
      </trkpt>
      <trkpt lat="49.86746" lon="2.21557">
        <ele>78.9</ele>
        <time>2022-12-09T13:27:32Z</time>
      </trkpt>
      <trkpt lat="49.86746" lon="2.21557">
        <ele>78.9</ele>
        <time>2022-12-09T13:27:33Z</time>
      </trkpt>
      <trkpt lat="49.86744" lon="2.21558">
        <ele>78.7</ele>
        <time>2022-12-09T13:27:34Z</time>
      </trkpt>
      <trkpt lat="49.86742" lon="2.21558">
        <ele>78.7</ele>
        <time>2022-12-09T13:27:36Z</time>
      </trkpt>
      <trkpt lat="49.86741" lon="2.21558">
        <ele>78.6</ele>
        <time>2022-12-09T13:27:37Z</time>
      </trkpt>
      <trkpt lat="49.8674" lon="2.21558">
        <ele>78.5</ele>
        <time>2022-12-09T13:27:38Z</time>
      </trkpt>
      <trkpt lat="49.86739" lon="2.21558">
        <ele>78.5</ele>
        <time>2022-12-09T13:27:39Z</time>
      </trkpt>
      <trkpt lat="49.86737" lon="2.21559">
        <ele>78.4</ele>
        <time>2022-12-09T13:27:41Z</time>
      </trkpt>
      <trkpt lat="49.86736" lon="2.21559">
        <ele>78.3</ele>
        <time>2022-12-09T13:27:42Z</time>
      </trkpt>
      <trkpt lat="49.86734" lon="2.2156">
        <ele>78.2</ele>
        <time>2022-12-09T13:27:43Z</time>
      </trkpt>
      <trkpt lat="49.86733" lon="2.2156">
        <ele>78.1</ele>
        <time>2022-12-09T13:27:44Z</time>
      </trkpt>
      <trkpt lat="49.86732" lon="2.21561">
        <ele>78.1</ele>
        <time>2022-12-09T13:27:45Z</time>
      </trkpt>
      <trkpt lat="49.86731" lon="2.21561">
        <ele>78</ele>
        <time>2022-12-09T13:27:46Z</time>
      </trkpt>
      <trkpt lat="49.8673" lon="2.21561">
        <ele>77.9</ele>
        <time>2022-12-09T13:27:47Z</time>
      </trkpt>
      <trkpt lat="49.86729" lon="2.21562">
        <ele>77.9</ele>
        <time>2022-12-09T13:27:48Z</time>
      </trkpt>
      <trkpt lat="49.86728" lon="2.21562">
        <ele>77.8</ele>
        <time>2022-12-09T13:27:50Z</time>
      </trkpt>
      <trkpt lat="49.86727" lon="2.21562">
        <ele>77.8</ele>
        <time>2022-12-09T13:27:51Z</time>
      </trkpt>
      <trkpt lat="49.86726" lon="2.21562">
        <ele>77.7</ele>
        <time>2022-12-09T13:27:52Z</time>
      </trkpt>
      <trkpt lat="49.86723" lon="2.21563">
        <ele>77.6</ele>
        <time>2022-12-09T13:27:53Z</time>
      </trkpt>
      <trkpt lat="49.86722" lon="2.21563">
        <ele>77.6</ele>
        <time>2022-12-09T13:27:54Z</time>
      </trkpt>
      <trkpt lat="49.86722" lon="2.21563">
        <ele>77.5</ele>
        <time>2022-12-09T13:27:55Z</time>
      </trkpt>
      <trkpt lat="49.8672" lon="2.21563">
        <ele>77.4</ele>
        <time>2022-12-09T13:27:56Z</time>
      </trkpt>
      <trkpt lat="49.86719" lon="2.21563">
        <ele>77.4</ele>
        <time>2022-12-09T13:27:57Z</time>
      </trkpt>
      <trkpt lat="49.86718" lon="2.21563">
        <ele>77.4</ele>
        <time>2022-12-09T13:27:58Z</time>
      </trkpt>
      <trkpt lat="49.86716" lon="2.21564">
        <ele>77.3</ele>
        <time>2022-12-09T13:28:00Z</time>
      </trkpt>
      <trkpt lat="49.86715" lon="2.21564">
        <ele>77.3</ele>
        <time>2022-12-09T13:28:01Z</time>
      </trkpt>
      <trkpt lat="49.86714" lon="2.21564">
        <ele>77.2</ele>
        <time>2022-12-09T13:28:02Z</time>
      </trkpt>
      <trkpt lat="49.86712" lon="2.21565">
        <ele>77.1</ele>
        <time>2022-12-09T13:28:03Z</time>
      </trkpt>
      <trkpt lat="49.86711" lon="2.21565">
        <ele>77.1</ele>
        <time>2022-12-09T13:28:04Z</time>
      </trkpt>
      <trkpt lat="49.8671" lon="2.21565">
        <ele>77.1</ele>
        <time>2022-12-09T13:28:05Z</time>
      </trkpt>
      <trkpt lat="49.86709" lon="2.21565">
        <ele>77</ele>
        <time>2022-12-09T13:28:06Z</time>
      </trkpt>
      <trkpt lat="49.86708" lon="2.21565">
        <ele>77</ele>
        <time>2022-12-09T13:28:07Z</time>
      </trkpt>
      <trkpt lat="49.86707" lon="2.21566">
        <ele>77</ele>
        <time>2022-12-09T13:28:09Z</time>
      </trkpt>
      <trkpt lat="49.86705" lon="2.21566">
        <ele>76.9</ele>
        <time>2022-12-09T13:28:10Z</time>
      </trkpt>
      <trkpt lat="49.86704" lon="2.21566">
        <ele>76.9</ele>
        <time>2022-12-09T13:28:11Z</time>
      </trkpt>
      <trkpt lat="49.86702" lon="2.21567">
        <ele>76.8</ele>
        <time>2022-12-09T13:28:12Z</time>
      </trkpt>
      <trkpt lat="49.86701" lon="2.21567">
        <ele>76.8</ele>
        <time>2022-12-09T13:28:13Z</time>
      </trkpt>
      <trkpt lat="49.867" lon="2.21567">
        <ele>76.7</ele>
        <time>2022-12-09T13:28:14Z</time>
      </trkpt>
      <trkpt lat="49.86698" lon="2.21568">
        <ele>76.7</ele>
        <time>2022-12-09T13:28:15Z</time>
      </trkpt>
      <trkpt lat="49.86697" lon="2.21568">
        <ele>76.7</ele>
        <time>2022-12-09T13:28:16Z</time>
      </trkpt>
      <trkpt lat="49.86696" lon="2.21568">
        <ele>76.6</ele>
        <time>2022-12-09T13:28:18Z</time>
      </trkpt>
      <trkpt lat="49.86695" lon="2.21569">
        <ele>76.6</ele>
        <time>2022-12-09T13:28:19Z</time>
      </trkpt>
      <trkpt lat="49.86694" lon="2.21569">
        <ele>76.6</ele>
        <time>2022-12-09T13:28:20Z</time>
      </trkpt>
      <trkpt lat="49.86693" lon="2.21569">
        <ele>76.6</ele>
        <time>2022-12-09T13:28:21Z</time>
      </trkpt>
      <trkpt lat="49.86691" lon="2.2157">
        <ele>76.5</ele>
        <time>2022-12-09T13:28:22Z</time>
      </trkpt>
      <trkpt lat="49.8669" lon="2.2157">
        <ele>76.5</ele>
        <time>2022-12-09T13:28:23Z</time>
      </trkpt>
      <trkpt lat="49.86689" lon="2.2157">
        <ele>76.5</ele>
        <time>2022-12-09T13:28:24Z</time>
      </trkpt>
      <trkpt lat="49.86688" lon="2.2157">
        <ele>76.5</ele>
        <time>2022-12-09T13:28:25Z</time>
      </trkpt>
      <trkpt lat="49.86687" lon="2.21571">
        <ele>76.4</ele>
        <time>2022-12-09T13:28:26Z</time>
      </trkpt>
      <trkpt lat="49.86685" lon="2.21571">
        <ele>76.4</ele>
        <time>2022-12-09T13:28:28Z</time>
      </trkpt>
      <trkpt lat="49.86684" lon="2.21571">
        <ele>76.4</ele>
        <time>2022-12-09T13:28:29Z</time>
      </trkpt>
      <trkpt lat="49.86683" lon="2.21571">
        <ele>76.4</ele>
        <time>2022-12-09T13:28:30Z</time>
      </trkpt>
      <trkpt lat="49.86682" lon="2.21571">
        <ele>76.4</ele>
        <time>2022-12-09T13:28:31Z</time>
      </trkpt>
      <trkpt lat="49.86681" lon="2.2157">
        <ele>76.4</ele>
        <time>2022-12-09T13:28:32Z</time>
      </trkpt>
      <trkpt lat="49.8668" lon="2.2157">
        <ele>76.3</ele>
        <time>2022-12-09T13:28:33Z</time>
      </trkpt>
      <trkpt lat="49.86679" lon="2.21569">
        <ele>76.3</ele>
        <time>2022-12-09T13:28:34Z</time>
      </trkpt>
      <trkpt lat="49.86678" lon="2.21569">
        <ele>76.3</ele>
        <time>2022-12-09T13:28:35Z</time>
      </trkpt>
      <trkpt lat="49.86677" lon="2.21568">
        <ele>76.3</ele>
        <time>2022-12-09T13:28:36Z</time>
      </trkpt>
      <trkpt lat="49.86676" lon="2.21567">
        <ele>76.3</ele>
        <time>2022-12-09T13:28:37Z</time>
      </trkpt>
      <trkpt lat="49.86675" lon="2.21566">
        <ele>76.3</ele>
        <time>2022-12-09T13:28:38Z</time>
      </trkpt>
      <trkpt lat="49.86674" lon="2.21565">
        <ele>76.3</ele>
        <time>2022-12-09T13:28:39Z</time>
      </trkpt>
      <trkpt lat="49.86673" lon="2.21564">
        <ele>76.3</ele>
        <time>2022-12-09T13:28:40Z</time>
      </trkpt>
      <trkpt lat="49.86672" lon="2.21562">
        <ele>76.3</ele>
        <time>2022-12-09T13:28:42Z</time>
      </trkpt>
      <trkpt lat="49.86672" lon="2.21561">
        <ele>76.3</ele>
        <time>2022-12-09T13:28:43Z</time>
      </trkpt>
      <trkpt lat="49.86672" lon="2.21559">
        <ele>76.3</ele>
        <time>2022-12-09T13:28:44Z</time>
      </trkpt>
      <trkpt lat="49.86671" lon="2.21558">
        <ele>76.3</ele>
        <time>2022-12-09T13:28:45Z</time>
      </trkpt>
      <trkpt lat="49.86671" lon="2.21556">
        <ele>76.3</ele>
        <time>2022-12-09T13:28:46Z</time>
      </trkpt>
      <trkpt lat="49.86671" lon="2.21554">
        <ele>76.3</ele>
        <time>2022-12-09T13:28:47Z</time>
      </trkpt>
      <trkpt lat="49.86671" lon="2.21551">
        <ele>76.3</ele>
        <time>2022-12-09T13:28:48Z</time>
      </trkpt>
      <trkpt lat="49.86671" lon="2.2155">
        <ele>76.3</ele>
        <time>2022-12-09T13:28:49Z</time>
      </trkpt>
      <trkpt lat="49.86671" lon="2.21548">
        <ele>76.3</ele>
        <time>2022-12-09T13:28:50Z</time>
      </trkpt>
      <trkpt lat="49.86671" lon="2.21545">
        <ele>76.3</ele>
        <time>2022-12-09T13:28:52Z</time>
      </trkpt>
      <trkpt lat="49.86671" lon="2.21544">
        <ele>76.3</ele>
        <time>2022-12-09T13:28:53Z</time>
      </trkpt>
      <trkpt lat="49.86671" lon="2.21542">
        <ele>76.3</ele>
        <time>2022-12-09T13:28:54Z</time>
      </trkpt>
      <trkpt lat="49.86671" lon="2.2154">
        <ele>76.3</ele>
        <time>2022-12-09T13:28:55Z</time>
      </trkpt>
      <trkpt lat="49.86672" lon="2.21539">
        <ele>76.3</ele>
        <time>2022-12-09T13:28:56Z</time>
      </trkpt>
      <trkpt lat="49.86672" lon="2.21537">
        <ele>76.3</ele>
        <time>2022-12-09T13:28:57Z</time>
      </trkpt>
      <trkpt lat="49.86672" lon="2.21535">
        <ele>76.3</ele>
        <time>2022-12-09T13:28:58Z</time>
      </trkpt>
      <trkpt lat="49.86671" lon="2.21533">
        <ele>76.3</ele>
        <time>2022-12-09T13:28:59Z</time>
      </trkpt>
      <trkpt lat="49.86671" lon="2.21532">
        <ele>76.3</ele>
        <time>2022-12-09T13:29:00Z</time>
      </trkpt>
      <trkpt lat="49.86671" lon="2.2153">
        <ele>76.4</ele>
        <time>2022-12-09T13:29:01Z</time>
      </trkpt>
      <trkpt lat="49.86671" lon="2.21528">
        <ele>76.4</ele>
        <time>2022-12-09T13:29:03Z</time>
      </trkpt>
      <trkpt lat="49.86671" lon="2.21526">
        <ele>76.4</ele>
        <time>2022-12-09T13:29:04Z</time>
      </trkpt>
      <trkpt lat="49.86671" lon="2.21525">
        <ele>76.4</ele>
        <time>2022-12-09T13:29:05Z</time>
      </trkpt>
      <trkpt lat="49.8667" lon="2.21523">
        <ele>76.4</ele>
        <time>2022-12-09T13:29:06Z</time>
      </trkpt>
      <trkpt lat="49.8667" lon="2.21521">
        <ele>76.4</ele>
        <time>2022-12-09T13:29:07Z</time>
      </trkpt>
      <trkpt lat="49.86669" lon="2.2152">
        <ele>76.5</ele>
        <time>2022-12-09T13:29:08Z</time>
      </trkpt>
      <trkpt lat="49.86669" lon="2.21518">
        <ele>76.5</ele>
        <time>2022-12-09T13:29:09Z</time>
      </trkpt>
      <trkpt lat="49.86668" lon="2.21516">
        <ele>76.5</ele>
        <time>2022-12-09T13:29:10Z</time>
      </trkpt>
      <trkpt lat="49.86668" lon="2.21513">
        <ele>76.5</ele>
        <time>2022-12-09T13:29:11Z</time>
      </trkpt>
      <trkpt lat="49.86668" lon="2.21512">
        <ele>76.5</ele>
        <time>2022-12-09T13:29:12Z</time>
      </trkpt>
      <trkpt lat="49.86668" lon="2.21511">
        <ele>76.6</ele>
        <time>2022-12-09T13:29:13Z</time>
      </trkpt>
      <trkpt lat="49.86668" lon="2.21509">
        <ele>76.6</ele>
        <time>2022-12-09T13:29:15Z</time>
      </trkpt>
      <trkpt lat="49.86668" lon="2.21507">
        <ele>76.6</ele>
        <time>2022-12-09T13:29:16Z</time>
      </trkpt>
      <trkpt lat="49.86667" lon="2.21505">
        <ele>76.6</ele>
        <time>2022-12-09T13:29:17Z</time>
      </trkpt>
      <trkpt lat="49.86667" lon="2.21504">
        <ele>76.7</ele>
        <time>2022-12-09T13:29:18Z</time>
      </trkpt>
      <trkpt lat="49.86667" lon="2.21502">
        <ele>76.7</ele>
        <time>2022-12-09T13:29:19Z</time>
      </trkpt>
      <trkpt lat="49.86667" lon="2.21501">
        <ele>76.7</ele>
        <time>2022-12-09T13:29:20Z</time>
      </trkpt>
      <trkpt lat="49.86667" lon="2.21497">
        <ele>76.8</ele>
        <time>2022-12-09T13:29:22Z</time>
      </trkpt>
      <trkpt lat="49.86666" lon="2.21496">
        <ele>76.8</ele>
        <time>2022-12-09T13:29:23Z</time>
      </trkpt>
      <trkpt lat="49.86666" lon="2.21495">
        <ele>76.8</ele>
        <time>2022-12-09T13:29:24Z</time>
      </trkpt>
      <trkpt lat="49.86666" lon="2.21493">
        <ele>76.8</ele>
        <time>2022-12-09T13:29:25Z</time>
      </trkpt>
      <trkpt lat="49.86665" lon="2.21491">
        <ele>76.9</ele>
        <time>2022-12-09T13:29:26Z</time>
      </trkpt>
      <trkpt lat="49.86665" lon="2.2149">
        <ele>76.9</ele>
        <time>2022-12-09T13:29:27Z</time>
      </trkpt>
      <trkpt lat="49.86665" lon="2.21488">
        <ele>76.9</ele>
        <time>2022-12-09T13:29:28Z</time>
      </trkpt>
      <trkpt lat="49.86664" lon="2.21487">
        <ele>77</ele>
        <time>2022-12-09T13:29:29Z</time>
      </trkpt>
      <trkpt lat="49.86664" lon="2.21486">
        <ele>77</ele>
        <time>2022-12-09T13:29:30Z</time>
      </trkpt>
      <trkpt lat="49.86664" lon="2.21484">
        <ele>77</ele>
        <time>2022-12-09T13:29:31Z</time>
      </trkpt>
      <trkpt lat="49.86663" lon="2.21482">
        <ele>77.1</ele>
        <time>2022-12-09T13:29:33Z</time>
      </trkpt>
      <trkpt lat="49.86663" lon="2.2148">
        <ele>77.1</ele>
        <time>2022-12-09T13:29:34Z</time>
      </trkpt>
      <trkpt lat="49.86663" lon="2.21478">
        <ele>77.2</ele>
        <time>2022-12-09T13:29:35Z</time>
      </trkpt>
      <trkpt lat="49.86663" lon="2.21476">
        <ele>77.2</ele>
        <time>2022-12-09T13:29:36Z</time>
      </trkpt>
      <trkpt lat="49.86662" lon="2.21473">
        <ele>77.3</ele>
        <time>2022-12-09T13:29:37Z</time>
      </trkpt>
      <trkpt lat="49.86662" lon="2.21472">
        <ele>77.3</ele>
        <time>2022-12-09T13:29:38Z</time>
      </trkpt>
      <trkpt lat="49.86663" lon="2.2147">
        <ele>77.3</ele>
        <time>2022-12-09T13:29:39Z</time>
      </trkpt>
      <trkpt lat="49.86662" lon="2.21468">
        <ele>77.4</ele>
        <time>2022-12-09T13:29:41Z</time>
      </trkpt>
      <trkpt lat="49.86662" lon="2.21466">
        <ele>77.4</ele>
        <time>2022-12-09T13:29:42Z</time>
      </trkpt>
      <trkpt lat="49.86662" lon="2.21464">
        <ele>77.5</ele>
        <time>2022-12-09T13:29:43Z</time>
      </trkpt>
      <trkpt lat="49.86662" lon="2.21462">
        <ele>77.6</ele>
        <time>2022-12-09T13:29:44Z</time>
      </trkpt>
      <trkpt lat="49.86662" lon="2.2146">
        <ele>77.6</ele>
        <time>2022-12-09T13:29:45Z</time>
      </trkpt>
      <trkpt lat="49.86662" lon="2.21457">
        <ele>77.7</ele>
        <time>2022-12-09T13:29:46Z</time>
      </trkpt>
      <trkpt lat="49.86662" lon="2.21455">
        <ele>77.7</ele>
        <time>2022-12-09T13:29:47Z</time>
      </trkpt>
      <trkpt lat="49.86662" lon="2.21453">
        <ele>77.8</ele>
        <time>2022-12-09T13:29:48Z</time>
      </trkpt>
      <trkpt lat="49.86662" lon="2.21451">
        <ele>77.8</ele>
        <time>2022-12-09T13:29:50Z</time>
      </trkpt>
      <trkpt lat="49.86661" lon="2.2145">
        <ele>77.9</ele>
        <time>2022-12-09T13:29:51Z</time>
      </trkpt>
      <trkpt lat="49.86661" lon="2.21448">
        <ele>77.9</ele>
        <time>2022-12-09T13:29:52Z</time>
      </trkpt>
      <trkpt lat="49.86661" lon="2.21446">
        <ele>78</ele>
        <time>2022-12-09T13:29:53Z</time>
      </trkpt>
      <trkpt lat="49.86661" lon="2.21445">
        <ele>78</ele>
        <time>2022-12-09T13:29:54Z</time>
      </trkpt>
      <trkpt lat="49.86661" lon="2.21443">
        <ele>78.1</ele>
        <time>2022-12-09T13:29:55Z</time>
      </trkpt>
      <trkpt lat="49.86661" lon="2.21441">
        <ele>78.1</ele>
        <time>2022-12-09T13:29:56Z</time>
      </trkpt>
      <trkpt lat="49.86659" lon="2.21439">
        <ele>78.2</ele>
        <time>2022-12-09T13:29:58Z</time>
      </trkpt>
      <trkpt lat="49.86659" lon="2.21439">
        <ele>78.3</ele>
        <time>2022-12-09T13:29:59Z</time>
      </trkpt>
      <trkpt lat="49.86658" lon="2.21438">
        <ele>78.3</ele>
        <time>2022-12-09T13:30:00Z</time>
      </trkpt>
      <trkpt lat="49.86658" lon="2.21436">
        <ele>78.3</ele>
        <time>2022-12-09T13:30:02Z</time>
      </trkpt>
      <trkpt lat="49.86658" lon="2.21435">
        <ele>78.4</ele>
        <time>2022-12-09T13:30:03Z</time>
      </trkpt>
      <trkpt lat="49.86658" lon="2.21434">
        <ele>78.4</ele>
        <time>2022-12-09T13:30:04Z</time>
      </trkpt>
      <trkpt lat="49.86658" lon="2.21432">
        <ele>78.5</ele>
        <time>2022-12-09T13:30:05Z</time>
      </trkpt>
      <trkpt lat="49.86657" lon="2.21431">
        <ele>78.5</ele>
        <time>2022-12-09T13:30:06Z</time>
      </trkpt>
      <trkpt lat="49.86657" lon="2.21429">
        <ele>78.6</ele>
        <time>2022-12-09T13:30:07Z</time>
      </trkpt>
      <trkpt lat="49.86657" lon="2.21427">
        <ele>78.6</ele>
        <time>2022-12-09T13:30:09Z</time>
      </trkpt>
      <trkpt lat="49.86658" lon="2.21426">
        <ele>78.7</ele>
        <time>2022-12-09T13:30:10Z</time>
      </trkpt>
      <trkpt lat="49.86659" lon="2.21426">
        <ele>78.7</ele>
        <time>2022-12-09T13:30:11Z</time>
      </trkpt>
      <trkpt lat="49.8666" lon="2.21425">
        <ele>78.8</ele>
        <time>2022-12-09T13:30:12Z</time>
      </trkpt>
      <trkpt lat="49.86661" lon="2.21426">
        <ele>78.8</ele>
        <time>2022-12-09T13:30:13Z</time>
      </trkpt>
      <trkpt lat="49.86661" lon="2.21427">
        <ele>78.9</ele>
        <time>2022-12-09T13:30:14Z</time>
      </trkpt>
      <trkpt lat="49.86661" lon="2.21429">
        <ele>78.9</ele>
        <time>2022-12-09T13:30:16Z</time>
      </trkpt>
      <trkpt lat="49.86661" lon="2.21429">
        <ele>79</ele>
        <time>2022-12-09T13:30:17Z</time>
      </trkpt>
      <trkpt lat="49.86661" lon="2.2143">
        <ele>79</ele>
        <time>2022-12-09T13:30:18Z</time>
      </trkpt>
      <trkpt lat="49.8666" lon="2.21429">
        <ele>79</ele>
        <time>2022-12-09T13:30:19Z</time>
      </trkpt>
      <trkpt lat="49.8666" lon="2.21429">
        <ele>79</ele>
        <time>2022-12-09T13:30:21Z</time>
      </trkpt>
      <trkpt lat="49.8666" lon="2.21428">
        <ele>79</ele>
        <time>2022-12-09T13:30:22Z</time>
      </trkpt>
      <trkpt lat="49.8666" lon="2.21427">
        <ele>79.1</ele>
        <time>2022-12-09T13:30:23Z</time>
      </trkpt>
      <trkpt lat="49.86659" lon="2.21426">
        <ele>79.1</ele>
        <time>2022-12-09T13:30:24Z</time>
      </trkpt>
      <trkpt lat="49.86659" lon="2.21424">
        <ele>79.2</ele>
        <time>2022-12-09T13:30:25Z</time>
      </trkpt>
      <trkpt lat="49.86658" lon="2.21422">
        <ele>79.2</ele>
        <time>2022-12-09T13:30:26Z</time>
      </trkpt>
      <trkpt lat="49.86658" lon="2.21421">
        <ele>79.3</ele>
        <time>2022-12-09T13:30:27Z</time>
      </trkpt>
      <trkpt lat="49.86658" lon="2.21419">
        <ele>79.4</ele>
        <time>2022-12-09T13:30:28Z</time>
      </trkpt>
      <trkpt lat="49.86658" lon="2.21417">
        <ele>79.4</ele>
        <time>2022-12-09T13:30:30Z</time>
      </trkpt>
      <trkpt lat="49.86657" lon="2.21415">
        <ele>79.5</ele>
        <time>2022-12-09T13:30:31Z</time>
      </trkpt>
      <trkpt lat="49.86657" lon="2.21414">
        <ele>79.5</ele>
        <time>2022-12-09T13:30:32Z</time>
      </trkpt>
      <trkpt lat="49.86657" lon="2.21412">
        <ele>79.6</ele>
        <time>2022-12-09T13:30:33Z</time>
      </trkpt>
      <trkpt lat="49.86656" lon="2.2141">
        <ele>79.6</ele>
        <time>2022-12-09T13:30:34Z</time>
      </trkpt>
      <trkpt lat="49.86656" lon="2.21409">
        <ele>79.7</ele>
        <time>2022-12-09T13:30:35Z</time>
      </trkpt>
      <trkpt lat="49.86656" lon="2.21408">
        <ele>79.7</ele>
        <time>2022-12-09T13:30:36Z</time>
      </trkpt>
      <trkpt lat="49.86655" lon="2.21407">
        <ele>79.8</ele>
        <time>2022-12-09T13:30:37Z</time>
      </trkpt>
      <trkpt lat="49.86655" lon="2.21405">
        <ele>79.8</ele>
        <time>2022-12-09T13:30:39Z</time>
      </trkpt>
      <trkpt lat="49.86654" lon="2.21404">
        <ele>79.9</ele>
        <time>2022-12-09T13:30:40Z</time>
      </trkpt>
      <trkpt lat="49.86653" lon="2.21401">
        <ele>80</ele>
        <time>2022-12-09T13:30:41Z</time>
      </trkpt>
      <trkpt lat="49.86653" lon="2.21399">
        <ele>80.1</ele>
        <time>2022-12-09T13:30:42Z</time>
      </trkpt>
      <trkpt lat="49.86652" lon="2.21398">
        <ele>80.1</ele>
        <time>2022-12-09T13:30:43Z</time>
      </trkpt>
      <trkpt lat="49.86651" lon="2.21396">
        <ele>80.2</ele>
        <time>2022-12-09T13:30:44Z</time>
      </trkpt>
      <trkpt lat="49.86651" lon="2.21394">
        <ele>80.3</ele>
        <time>2022-12-09T13:30:46Z</time>
      </trkpt>
      <trkpt lat="49.8665" lon="2.21392">
        <ele>80.3</ele>
        <time>2022-12-09T13:30:47Z</time>
      </trkpt>
      <trkpt lat="49.86649" lon="2.21389">
        <ele>80.4</ele>
        <time>2022-12-09T13:30:48Z</time>
      </trkpt>
      <trkpt lat="49.86648" lon="2.21386">
        <ele>80.6</ele>
        <time>2022-12-09T13:30:49Z</time>
      </trkpt>
      <trkpt lat="49.86647" lon="2.21384">
        <ele>80.6</ele>
        <time>2022-12-09T13:30:50Z</time>
      </trkpt>
      <trkpt lat="49.86646" lon="2.21379">
        <ele>80.8</ele>
        <time>2022-12-09T13:30:51Z</time>
      </trkpt>
      <trkpt lat="49.86645" lon="2.21377">
        <ele>80.9</ele>
        <time>2022-12-09T13:30:52Z</time>
      </trkpt>
      <trkpt lat="49.86644" lon="2.21373">
        <ele>81</ele>
        <time>2022-12-09T13:30:54Z</time>
      </trkpt>
      <trkpt lat="49.86644" lon="2.21372">
        <ele>81.1</ele>
        <time>2022-12-09T13:30:55Z</time>
      </trkpt>
      <trkpt lat="49.86644" lon="2.21369">
        <ele>81.2</ele>
        <time>2022-12-09T13:30:56Z</time>
      </trkpt>
      <trkpt lat="49.86643" lon="2.21367">
        <ele>81.2</ele>
        <time>2022-12-09T13:30:57Z</time>
      </trkpt>
      <trkpt lat="49.86642" lon="2.21364">
        <ele>81.3</ele>
        <time>2022-12-09T13:30:58Z</time>
      </trkpt>
      <trkpt lat="49.86642" lon="2.21363">
        <ele>81.4</ele>
        <time>2022-12-09T13:30:59Z</time>
      </trkpt>
      <trkpt lat="49.86641" lon="2.21362">
        <ele>81.4</ele>
        <time>2022-12-09T13:31:00Z</time>
      </trkpt>
      <trkpt lat="49.86641" lon="2.2136">
        <ele>81.5</ele>
        <time>2022-12-09T13:31:01Z</time>
      </trkpt>
      <trkpt lat="49.8664" lon="2.21357">
        <ele>81.6</ele>
        <time>2022-12-09T13:31:03Z</time>
      </trkpt>
      <trkpt lat="49.8664" lon="2.21355">
        <ele>81.7</ele>
        <time>2022-12-09T13:31:04Z</time>
      </trkpt>
      <trkpt lat="49.86639" lon="2.21353">
        <ele>81.7</ele>
        <time>2022-12-09T13:31:05Z</time>
      </trkpt>
      <trkpt lat="49.86639" lon="2.2135">
        <ele>81.9</ele>
        <time>2022-12-09T13:31:06Z</time>
      </trkpt>
      <trkpt lat="49.86639" lon="2.21349">
        <ele>81.9</ele>
        <time>2022-12-09T13:31:07Z</time>
      </trkpt>
      <trkpt lat="49.86638" lon="2.21347">
        <ele>81.9</ele>
        <time>2022-12-09T13:31:08Z</time>
      </trkpt>
      <trkpt lat="49.86638" lon="2.21344">
        <ele>82.1</ele>
        <time>2022-12-09T13:31:10Z</time>
      </trkpt>
      <trkpt lat="49.86638" lon="2.21343">
        <ele>82.1</ele>
        <time>2022-12-09T13:31:11Z</time>
      </trkpt>
      <trkpt lat="49.86637" lon="2.21341">
        <ele>82.2</ele>
        <time>2022-12-09T13:31:12Z</time>
      </trkpt>
      <trkpt lat="49.86637" lon="2.21338">
        <ele>82.3</ele>
        <time>2022-12-09T13:31:13Z</time>
      </trkpt>
      <trkpt lat="49.86637" lon="2.21337">
        <ele>82.3</ele>
        <time>2022-12-09T13:31:14Z</time>
      </trkpt>
      <trkpt lat="49.86637" lon="2.21336">
        <ele>82.4</ele>
        <time>2022-12-09T13:31:15Z</time>
      </trkpt>
      <trkpt lat="49.86636" lon="2.21334">
        <ele>82.5</ele>
        <time>2022-12-09T13:31:16Z</time>
      </trkpt>
      <trkpt lat="49.86636" lon="2.21332">
        <ele>82.5</ele>
        <time>2022-12-09T13:31:17Z</time>
      </trkpt>
      <trkpt lat="49.86636" lon="2.2133">
        <ele>82.6</ele>
        <time>2022-12-09T13:31:18Z</time>
      </trkpt>
      <trkpt lat="49.86635" lon="2.21329">
        <ele>82.7</ele>
        <time>2022-12-09T13:31:20Z</time>
      </trkpt>
      <trkpt lat="49.86635" lon="2.21327">
        <ele>82.8</ele>
        <time>2022-12-09T13:31:21Z</time>
      </trkpt>
      <trkpt lat="49.86635" lon="2.21325">
        <ele>82.8</ele>
        <time>2022-12-09T13:31:22Z</time>
      </trkpt>
      <trkpt lat="49.86634" lon="2.21324">
        <ele>82.9</ele>
        <time>2022-12-09T13:31:23Z</time>
      </trkpt>
      <trkpt lat="49.86634" lon="2.21322">
        <ele>83</ele>
        <time>2022-12-09T13:31:24Z</time>
      </trkpt>
      <trkpt lat="49.86634" lon="2.21321">
        <ele>83</ele>
        <time>2022-12-09T13:31:25Z</time>
      </trkpt>
      <trkpt lat="49.86634" lon="2.21319">
        <ele>83.1</ele>
        <time>2022-12-09T13:31:26Z</time>
      </trkpt>
      <trkpt lat="49.86633" lon="2.21317">
        <ele>83.2</ele>
        <time>2022-12-09T13:31:27Z</time>
      </trkpt>
      <trkpt lat="49.86633" lon="2.21316">
        <ele>83.3</ele>
        <time>2022-12-09T13:31:28Z</time>
      </trkpt>
      <trkpt lat="49.86633" lon="2.21314">
        <ele>83.3</ele>
        <time>2022-12-09T13:31:29Z</time>
      </trkpt>
      <trkpt lat="49.86633" lon="2.21312">
        <ele>83.4</ele>
        <time>2022-12-09T13:31:31Z</time>
      </trkpt>
      <trkpt lat="49.86633" lon="2.2131">
        <ele>83.5</ele>
        <time>2022-12-09T13:31:32Z</time>
      </trkpt>
      <trkpt lat="49.86633" lon="2.21309">
        <ele>83.6</ele>
        <time>2022-12-09T13:31:33Z</time>
      </trkpt>
      <trkpt lat="49.86633" lon="2.21307">
        <ele>83.6</ele>
        <time>2022-12-09T13:31:34Z</time>
      </trkpt>
      <trkpt lat="49.86633" lon="2.21306">
        <ele>83.7</ele>
        <time>2022-12-09T13:31:35Z</time>
      </trkpt>
      <trkpt lat="49.86633" lon="2.21304">
        <ele>83.8</ele>
        <time>2022-12-09T13:31:36Z</time>
      </trkpt>
      <trkpt lat="49.86633" lon="2.21303">
        <ele>83.8</ele>
        <time>2022-12-09T13:31:37Z</time>
      </trkpt>
      <trkpt lat="49.86633" lon="2.21301">
        <ele>83.9</ele>
        <time>2022-12-09T13:31:38Z</time>
      </trkpt>
      <trkpt lat="49.86633" lon="2.21299">
        <ele>84</ele>
        <time>2022-12-09T13:31:39Z</time>
      </trkpt>
      <trkpt lat="49.86633" lon="2.21298">
        <ele>84.1</ele>
        <time>2022-12-09T13:31:41Z</time>
      </trkpt>
      <trkpt lat="49.86633" lon="2.21296">
        <ele>84.1</ele>
        <time>2022-12-09T13:31:42Z</time>
      </trkpt>
      <trkpt lat="49.86633" lon="2.21295">
        <ele>84.2</ele>
        <time>2022-12-09T13:31:43Z</time>
      </trkpt>
      <trkpt lat="49.86633" lon="2.21293">
        <ele>84.3</ele>
        <time>2022-12-09T13:31:44Z</time>
      </trkpt>
      <trkpt lat="49.86633" lon="2.21292">
        <ele>84.3</ele>
        <time>2022-12-09T13:31:45Z</time>
      </trkpt>
      <trkpt lat="49.86633" lon="2.2129">
        <ele>84.4</ele>
        <time>2022-12-09T13:31:46Z</time>
      </trkpt>
      <trkpt lat="49.86633" lon="2.21288">
        <ele>84.5</ele>
        <time>2022-12-09T13:31:47Z</time>
      </trkpt>
      <trkpt lat="49.86633" lon="2.21287">
        <ele>84.5</ele>
        <time>2022-12-09T13:31:48Z</time>
      </trkpt>
      <trkpt lat="49.86632" lon="2.21284">
        <ele>84.7</ele>
        <time>2022-12-09T13:31:50Z</time>
      </trkpt>
      <trkpt lat="49.86632" lon="2.21282">
        <ele>84.7</ele>
        <time>2022-12-09T13:31:51Z</time>
      </trkpt>
      <trkpt lat="49.86632" lon="2.21281">
        <ele>84.8</ele>
        <time>2022-12-09T13:31:52Z</time>
      </trkpt>
      <trkpt lat="49.86632" lon="2.21278">
        <ele>84.9</ele>
        <time>2022-12-09T13:31:53Z</time>
      </trkpt>
      <trkpt lat="49.86632" lon="2.21277">
        <ele>85</ele>
        <time>2022-12-09T13:31:54Z</time>
      </trkpt>
      <trkpt lat="49.86632" lon="2.21276">
        <ele>85</ele>
        <time>2022-12-09T13:31:55Z</time>
      </trkpt>
      <trkpt lat="49.86632" lon="2.21273">
        <ele>85.1</ele>
        <time>2022-12-09T13:31:57Z</time>
      </trkpt>
      <trkpt lat="49.86631" lon="2.21271">
        <ele>85.2</ele>
        <time>2022-12-09T13:31:58Z</time>
      </trkpt>
      <trkpt lat="49.86631" lon="2.21268">
        <ele>85.4</ele>
        <time>2022-12-09T13:31:59Z</time>
      </trkpt>
      <trkpt lat="49.86631" lon="2.21266">
        <ele>85.4</ele>
        <time>2022-12-09T13:32:00Z</time>
      </trkpt>
      <trkpt lat="49.86631" lon="2.21265">
        <ele>85.5</ele>
        <time>2022-12-09T13:32:01Z</time>
      </trkpt>
      <trkpt lat="49.86631" lon="2.21262">
        <ele>85.6</ele>
        <time>2022-12-09T13:32:02Z</time>
      </trkpt>
      <trkpt lat="49.86631" lon="2.21261">
        <ele>85.7</ele>
        <time>2022-12-09T13:32:04Z</time>
      </trkpt>
      <trkpt lat="49.8663" lon="2.21259">
        <ele>85.7</ele>
        <time>2022-12-09T13:32:05Z</time>
      </trkpt>
      <trkpt lat="49.8663" lon="2.21257">
        <ele>85.8</ele>
        <time>2022-12-09T13:32:06Z</time>
      </trkpt>
      <trkpt lat="49.8663" lon="2.21255">
        <ele>85.9</ele>
        <time>2022-12-09T13:32:07Z</time>
      </trkpt>
      <trkpt lat="49.8663" lon="2.21254">
        <ele>85.9</ele>
        <time>2022-12-09T13:32:08Z</time>
      </trkpt>
      <trkpt lat="49.8663" lon="2.21252">
        <ele>86</ele>
        <time>2022-12-09T13:32:09Z</time>
      </trkpt>
      <trkpt lat="49.8663" lon="2.21251">
        <ele>86.1</ele>
        <time>2022-12-09T13:32:10Z</time>
      </trkpt>
      <trkpt lat="49.8663" lon="2.21249">
        <ele>86.1</ele>
        <time>2022-12-09T13:32:11Z</time>
      </trkpt>
      <trkpt lat="49.8663" lon="2.21248">
        <ele>86.2</ele>
        <time>2022-12-09T13:32:13Z</time>
      </trkpt>
      <trkpt lat="49.8663" lon="2.21246">
        <ele>86.2</ele>
        <time>2022-12-09T13:32:14Z</time>
      </trkpt>
      <trkpt lat="49.8663" lon="2.21244">
        <ele>86.3</ele>
        <time>2022-12-09T13:32:15Z</time>
      </trkpt>
      <trkpt lat="49.86629" lon="2.21243">
        <ele>86.4</ele>
        <time>2022-12-09T13:32:16Z</time>
      </trkpt>
      <trkpt lat="49.86629" lon="2.21241">
        <ele>86.5</ele>
        <time>2022-12-09T13:32:17Z</time>
      </trkpt>
      <trkpt lat="49.86629" lon="2.21239">
        <ele>86.5</ele>
        <time>2022-12-09T13:32:18Z</time>
      </trkpt>
      <trkpt lat="49.86628" lon="2.21238">
        <ele>86.6</ele>
        <time>2022-12-09T13:32:19Z</time>
      </trkpt>
      <trkpt lat="49.86628" lon="2.21236">
        <ele>86.7</ele>
        <time>2022-12-09T13:32:20Z</time>
      </trkpt>
      <trkpt lat="49.86628" lon="2.21234">
        <ele>86.7</ele>
        <time>2022-12-09T13:32:22Z</time>
      </trkpt>
      <trkpt lat="49.86628" lon="2.21232">
        <ele>86.8</ele>
        <time>2022-12-09T13:32:23Z</time>
      </trkpt>
      <trkpt lat="49.86628" lon="2.21231">
        <ele>86.9</ele>
        <time>2022-12-09T13:32:24Z</time>
      </trkpt>
      <trkpt lat="49.86628" lon="2.21229">
        <ele>87</ele>
        <time>2022-12-09T13:32:25Z</time>
      </trkpt>
      <trkpt lat="49.86627" lon="2.21227">
        <ele>87</ele>
        <time>2022-12-09T13:32:26Z</time>
      </trkpt>
      <trkpt lat="49.86627" lon="2.21225">
        <ele>87.1</ele>
        <time>2022-12-09T13:32:27Z</time>
      </trkpt>
      <trkpt lat="49.86627" lon="2.21224">
        <ele>87.2</ele>
        <time>2022-12-09T13:32:28Z</time>
      </trkpt>
      <trkpt lat="49.86627" lon="2.21223">
        <ele>87.2</ele>
        <time>2022-12-09T13:32:29Z</time>
      </trkpt>
      <trkpt lat="49.86627" lon="2.21221">
        <ele>87.3</ele>
        <time>2022-12-09T13:32:31Z</time>
      </trkpt>
      <trkpt lat="49.86627" lon="2.21219">
        <ele>87.4</ele>
        <time>2022-12-09T13:32:32Z</time>
      </trkpt>
      <trkpt lat="49.86627" lon="2.21215">
        <ele>87.5</ele>
        <time>2022-12-09T13:32:33Z</time>
      </trkpt>
      <trkpt lat="49.86627" lon="2.21214">
        <ele>87.6</ele>
        <time>2022-12-09T13:32:34Z</time>
      </trkpt>
      <trkpt lat="49.86627" lon="2.21213">
        <ele>87.7</ele>
        <time>2022-12-09T13:32:35Z</time>
      </trkpt>
      <trkpt lat="49.86626" lon="2.21209">
        <ele>87.8</ele>
        <time>2022-12-09T13:32:36Z</time>
      </trkpt>
      <trkpt lat="49.86626" lon="2.21208">
        <ele>87.9</ele>
        <time>2022-12-09T13:32:37Z</time>
      </trkpt>
      <trkpt lat="49.86626" lon="2.21207">
        <ele>87.9</ele>
        <time>2022-12-09T13:32:38Z</time>
      </trkpt>
      <trkpt lat="49.86626" lon="2.21205">
        <ele>88</ele>
        <time>2022-12-09T13:32:39Z</time>
      </trkpt>
      <trkpt lat="49.86626" lon="2.21203">
        <ele>88.1</ele>
        <time>2022-12-09T13:32:40Z</time>
      </trkpt>
      <trkpt lat="49.86626" lon="2.21202">
        <ele>88.2</ele>
        <time>2022-12-09T13:32:41Z</time>
      </trkpt>
      <trkpt lat="49.86626" lon="2.21199">
        <ele>88.3</ele>
        <time>2022-12-09T13:32:43Z</time>
      </trkpt>
      <trkpt lat="49.86626" lon="2.21197">
        <ele>88.4</ele>
        <time>2022-12-09T13:32:44Z</time>
      </trkpt>
      <trkpt lat="49.86626" lon="2.21196">
        <ele>88.4</ele>
        <time>2022-12-09T13:32:45Z</time>
      </trkpt>
      <trkpt lat="49.86626" lon="2.21192">
        <ele>88.6</ele>
        <time>2022-12-09T13:32:46Z</time>
      </trkpt>
      <trkpt lat="49.86627" lon="2.21191">
        <ele>88.6</ele>
        <time>2022-12-09T13:32:47Z</time>
      </trkpt>
      <trkpt lat="49.86627" lon="2.2119">
        <ele>88.7</ele>
        <time>2022-12-09T13:32:48Z</time>
      </trkpt>
      <trkpt lat="49.86627" lon="2.21187">
        <ele>88.8</ele>
        <time>2022-12-09T13:32:49Z</time>
      </trkpt>
      <trkpt lat="49.86627" lon="2.21185">
        <ele>88.8</ele>
        <time>2022-12-09T13:32:50Z</time>
      </trkpt>
      <trkpt lat="49.86628" lon="2.21183">
        <ele>88.9</ele>
        <time>2022-12-09T13:32:51Z</time>
      </trkpt>
      <trkpt lat="49.86628" lon="2.21181">
        <ele>89.1</ele>
        <time>2022-12-09T13:32:52Z</time>
      </trkpt>
      <trkpt lat="49.86628" lon="2.21178">
        <ele>89.2</ele>
        <time>2022-12-09T13:32:54Z</time>
      </trkpt>
      <trkpt lat="49.86628" lon="2.21176">
        <ele>89.3</ele>
        <time>2022-12-09T13:32:55Z</time>
      </trkpt>
      <trkpt lat="49.86628" lon="2.21173">
        <ele>89.4</ele>
        <time>2022-12-09T13:32:56Z</time>
      </trkpt>
      <trkpt lat="49.86628" lon="2.21171">
        <ele>89.5</ele>
        <time>2022-12-09T13:32:57Z</time>
      </trkpt>
      <trkpt lat="49.86627" lon="2.21168">
        <ele>89.6</ele>
        <time>2022-12-09T13:32:58Z</time>
      </trkpt>
      <trkpt lat="49.86627" lon="2.21166">
        <ele>89.7</ele>
        <time>2022-12-09T13:32:59Z</time>
      </trkpt>
      <trkpt lat="49.86627" lon="2.21164">
        <ele>89.8</ele>
        <time>2022-12-09T13:33:00Z</time>
      </trkpt>
      <trkpt lat="49.86627" lon="2.21162">
        <ele>89.9</ele>
        <time>2022-12-09T13:33:01Z</time>
      </trkpt>
      <trkpt lat="49.86626" lon="2.2116">
        <ele>90</ele>
        <time>2022-12-09T13:33:03Z</time>
      </trkpt>
      <trkpt lat="49.86626" lon="2.21157">
        <ele>90.1</ele>
        <time>2022-12-09T13:33:04Z</time>
      </trkpt>
      <trkpt lat="49.86626" lon="2.21156">
        <ele>90.2</ele>
        <time>2022-12-09T13:33:05Z</time>
      </trkpt>
      <trkpt lat="49.86626" lon="2.21154">
        <ele>90.2</ele>
        <time>2022-12-09T13:33:06Z</time>
      </trkpt>
      <trkpt lat="49.86626" lon="2.21153">
        <ele>90.3</ele>
        <time>2022-12-09T13:33:07Z</time>
      </trkpt>
      <trkpt lat="49.86626" lon="2.21151">
        <ele>90.4</ele>
        <time>2022-12-09T13:33:08Z</time>
      </trkpt>
      <trkpt lat="49.86626" lon="2.21149">
        <ele>90.5</ele>
        <time>2022-12-09T13:33:09Z</time>
      </trkpt>
      <trkpt lat="49.86626" lon="2.21148">
        <ele>90.5</ele>
        <time>2022-12-09T13:33:10Z</time>
      </trkpt>
      <trkpt lat="49.86626" lon="2.21147">
        <ele>90.6</ele>
        <time>2022-12-09T13:33:12Z</time>
      </trkpt>
      <trkpt lat="49.86626" lon="2.21145">
        <ele>90.6</ele>
        <time>2022-12-09T13:33:13Z</time>
      </trkpt>
      <trkpt lat="49.86626" lon="2.21144">
        <ele>90.7</ele>
        <time>2022-12-09T13:33:14Z</time>
      </trkpt>
      <trkpt lat="49.86626" lon="2.21143">
        <ele>90.8</ele>
        <time>2022-12-09T13:33:15Z</time>
      </trkpt>
      <trkpt lat="49.86626" lon="2.21141">
        <ele>90.8</ele>
        <time>2022-12-09T13:33:16Z</time>
      </trkpt>
      <trkpt lat="49.86626" lon="2.2114">
        <ele>90.9</ele>
        <time>2022-12-09T13:33:17Z</time>
      </trkpt>
      <trkpt lat="49.86625" lon="2.21138">
        <ele>90.9</ele>
        <time>2022-12-09T13:33:18Z</time>
      </trkpt>
      <trkpt lat="49.86625" lon="2.21138">
        <ele>91</ele>
        <time>2022-12-09T13:33:19Z</time>
      </trkpt>
      <trkpt lat="49.86625" lon="2.21137">
        <ele>91</ele>
        <time>2022-12-09T13:33:20Z</time>
      </trkpt>
      <trkpt lat="49.86625" lon="2.21136">
        <ele>91</ele>
        <time>2022-12-09T13:33:22Z</time>
      </trkpt>
      <trkpt lat="49.86625" lon="2.21135">
        <ele>91.1</ele>
        <time>2022-12-09T13:33:23Z</time>
      </trkpt>
      <trkpt lat="49.86625" lon="2.21134">
        <ele>91.1</ele>
        <time>2022-12-09T13:33:24Z</time>
      </trkpt>
      <trkpt lat="49.86625" lon="2.21133">
        <ele>91.2</ele>
        <time>2022-12-09T13:33:25Z</time>
      </trkpt>
      <trkpt lat="49.86624" lon="2.21131">
        <ele>91.2</ele>
        <time>2022-12-09T13:33:26Z</time>
      </trkpt>
      <trkpt lat="49.86624" lon="2.21129">
        <ele>91.3</ele>
        <time>2022-12-09T13:33:27Z</time>
      </trkpt>
      <trkpt lat="49.86623" lon="2.21126">
        <ele>91.4</ele>
        <time>2022-12-09T13:33:28Z</time>
      </trkpt>
      <trkpt lat="49.86623" lon="2.21125">
        <ele>91.5</ele>
        <time>2022-12-09T13:33:29Z</time>
      </trkpt>
      <trkpt lat="49.86623" lon="2.21123">
        <ele>91.5</ele>
        <time>2022-12-09T13:33:31Z</time>
      </trkpt>
      <trkpt lat="49.86623" lon="2.21122">
        <ele>91.6</ele>
        <time>2022-12-09T13:33:32Z</time>
      </trkpt>
      <trkpt lat="49.86622" lon="2.2112">
        <ele>91.7</ele>
        <time>2022-12-09T13:33:33Z</time>
      </trkpt>
      <trkpt lat="49.86622" lon="2.21119">
        <ele>91.7</ele>
        <time>2022-12-09T13:33:34Z</time>
      </trkpt>
      <trkpt lat="49.86622" lon="2.21117">
        <ele>91.8</ele>
        <time>2022-12-09T13:33:35Z</time>
      </trkpt>
      <trkpt lat="49.86622" lon="2.21116">
        <ele>91.8</ele>
        <time>2022-12-09T13:33:36Z</time>
      </trkpt>
      <trkpt lat="49.86622" lon="2.21114">
        <ele>91.9</ele>
        <time>2022-12-09T13:33:37Z</time>
      </trkpt>
      <trkpt lat="49.86621" lon="2.21113">
        <ele>91.9</ele>
        <time>2022-12-09T13:33:39Z</time>
      </trkpt>
      <trkpt lat="49.86621" lon="2.21111">
        <ele>92</ele>
        <time>2022-12-09T13:33:40Z</time>
      </trkpt>
      <trkpt lat="49.86621" lon="2.2111">
        <ele>92.1</ele>
        <time>2022-12-09T13:33:41Z</time>
      </trkpt>
      <trkpt lat="49.8662" lon="2.21108">
        <ele>92.1</ele>
        <time>2022-12-09T13:33:42Z</time>
      </trkpt>
      <trkpt lat="49.8662" lon="2.21107">
        <ele>92.2</ele>
        <time>2022-12-09T13:33:43Z</time>
      </trkpt>
      <trkpt lat="49.8662" lon="2.21106">
        <ele>92.2</ele>
        <time>2022-12-09T13:33:44Z</time>
      </trkpt>
      <trkpt lat="49.86619" lon="2.21104">
        <ele>92.3</ele>
        <time>2022-12-09T13:33:45Z</time>
      </trkpt>
      <trkpt lat="49.86619" lon="2.21102">
        <ele>92.3</ele>
        <time>2022-12-09T13:33:46Z</time>
      </trkpt>
      <trkpt lat="49.86619" lon="2.21101">
        <ele>92.4</ele>
        <time>2022-12-09T13:33:47Z</time>
      </trkpt>
      <trkpt lat="49.86619" lon="2.211">
        <ele>92.4</ele>
        <time>2022-12-09T13:33:48Z</time>
      </trkpt>
      <trkpt lat="49.86618" lon="2.21098">
        <ele>92.5</ele>
        <time>2022-12-09T13:33:50Z</time>
      </trkpt>
      <trkpt lat="49.86618" lon="2.21097">
        <ele>92.5</ele>
        <time>2022-12-09T13:33:51Z</time>
      </trkpt>
      <trkpt lat="49.86618" lon="2.21095">
        <ele>92.6</ele>
        <time>2022-12-09T13:33:52Z</time>
      </trkpt>
      <trkpt lat="49.86618" lon="2.21094">
        <ele>92.7</ele>
        <time>2022-12-09T13:33:53Z</time>
      </trkpt>
      <trkpt lat="49.86618" lon="2.21093">
        <ele>92.7</ele>
        <time>2022-12-09T13:33:54Z</time>
      </trkpt>
      <trkpt lat="49.86617" lon="2.21091">
        <ele>92.8</ele>
        <time>2022-12-09T13:33:55Z</time>
      </trkpt>
      <trkpt lat="49.86617" lon="2.21089">
        <ele>92.8</ele>
        <time>2022-12-09T13:33:56Z</time>
      </trkpt>
      <trkpt lat="49.86617" lon="2.21087">
        <ele>92.9</ele>
        <time>2022-12-09T13:33:57Z</time>
      </trkpt>
      <trkpt lat="49.86617" lon="2.21084">
        <ele>93</ele>
        <time>2022-12-09T13:33:59Z</time>
      </trkpt>
      <trkpt lat="49.86617" lon="2.21082">
        <ele>93.1</ele>
        <time>2022-12-09T13:34:00Z</time>
      </trkpt>
      <trkpt lat="49.86617" lon="2.21081">
        <ele>93.2</ele>
        <time>2022-12-09T13:34:01Z</time>
      </trkpt>
      <trkpt lat="49.86617" lon="2.21078">
        <ele>93.2</ele>
        <time>2022-12-09T13:34:02Z</time>
      </trkpt>
      <trkpt lat="49.86617" lon="2.21076">
        <ele>93.3</ele>
        <time>2022-12-09T13:34:03Z</time>
      </trkpt>
      <trkpt lat="49.86616" lon="2.21074">
        <ele>93.4</ele>
        <time>2022-12-09T13:34:04Z</time>
      </trkpt>
      <trkpt lat="49.86616" lon="2.21072">
        <ele>93.5</ele>
        <time>2022-12-09T13:34:05Z</time>
      </trkpt>
      <trkpt lat="49.86616" lon="2.21069">
        <ele>93.6</ele>
        <time>2022-12-09T13:34:06Z</time>
      </trkpt>
      <trkpt lat="49.86615" lon="2.21067">
        <ele>93.7</ele>
        <time>2022-12-09T13:34:08Z</time>
      </trkpt>
      <trkpt lat="49.86615" lon="2.21065">
        <ele>93.7</ele>
        <time>2022-12-09T13:34:09Z</time>
      </trkpt>
      <trkpt lat="49.86615" lon="2.21062">
        <ele>93.8</ele>
        <time>2022-12-09T13:34:10Z</time>
      </trkpt>
      <trkpt lat="49.86614" lon="2.2106">
        <ele>93.9</ele>
        <time>2022-12-09T13:34:11Z</time>
      </trkpt>
      <trkpt lat="49.86614" lon="2.21058">
        <ele>94</ele>
        <time>2022-12-09T13:34:12Z</time>
      </trkpt>
      <trkpt lat="49.86614" lon="2.21055">
        <ele>94.1</ele>
        <time>2022-12-09T13:34:13Z</time>
      </trkpt>
      <trkpt lat="49.86613" lon="2.21054">
        <ele>94.1</ele>
        <time>2022-12-09T13:34:14Z</time>
      </trkpt>
      <trkpt lat="49.86613" lon="2.21051">
        <ele>94.3</ele>
        <time>2022-12-09T13:34:15Z</time>
      </trkpt>
      <trkpt lat="49.86613" lon="2.21049">
        <ele>94.3</ele>
        <time>2022-12-09T13:34:16Z</time>
      </trkpt>
      <trkpt lat="49.86612" lon="2.21048">
        <ele>94.4</ele>
        <time>2022-12-09T13:34:18Z</time>
      </trkpt>
      <trkpt lat="49.86612" lon="2.21046">
        <ele>94.4</ele>
        <time>2022-12-09T13:34:19Z</time>
      </trkpt>
      <trkpt lat="49.86612" lon="2.21045">
        <ele>94.5</ele>
        <time>2022-12-09T13:34:20Z</time>
      </trkpt>
      <trkpt lat="49.86612" lon="2.21043">
        <ele>94.5</ele>
        <time>2022-12-09T13:34:21Z</time>
      </trkpt>
      <trkpt lat="49.86611" lon="2.2104">
        <ele>94.7</ele>
        <time>2022-12-09T13:34:22Z</time>
      </trkpt>
      <trkpt lat="49.86611" lon="2.21039">
        <ele>94.7</ele>
        <time>2022-12-09T13:34:23Z</time>
      </trkpt>
      <trkpt lat="49.8661" lon="2.21038">
        <ele>94.8</ele>
        <time>2022-12-09T13:34:24Z</time>
      </trkpt>
      <trkpt lat="49.8661" lon="2.21036">
        <ele>94.8</ele>
        <time>2022-12-09T13:34:25Z</time>
      </trkpt>
      <trkpt lat="49.8661" lon="2.21035">
        <ele>94.9</ele>
        <time>2022-12-09T13:34:27Z</time>
      </trkpt>
      <trkpt lat="49.86609" lon="2.21033">
        <ele>95</ele>
        <time>2022-12-09T13:34:28Z</time>
      </trkpt>
      <trkpt lat="49.86609" lon="2.21031">
        <ele>95.1</ele>
        <time>2022-12-09T13:34:29Z</time>
      </trkpt>
      <trkpt lat="49.86609" lon="2.21029">
        <ele>95.1</ele>
        <time>2022-12-09T13:34:30Z</time>
      </trkpt>
      <trkpt lat="49.86609" lon="2.21028">
        <ele>95.2</ele>
        <time>2022-12-09T13:34:31Z</time>
      </trkpt>
      <trkpt lat="49.86609" lon="2.21027">
        <ele>95.2</ele>
        <time>2022-12-09T13:34:32Z</time>
      </trkpt>
      <trkpt lat="49.86609" lon="2.21026">
        <ele>95.3</ele>
        <time>2022-12-09T13:34:34Z</time>
      </trkpt>
      <trkpt lat="49.86609" lon="2.21025">
        <ele>95.3</ele>
        <time>2022-12-09T13:34:35Z</time>
      </trkpt>
      <trkpt lat="49.86608" lon="2.21023">
        <ele>95.4</ele>
        <time>2022-12-09T13:34:36Z</time>
      </trkpt>
      <trkpt lat="49.86608" lon="2.21023">
        <ele>95.4</ele>
        <time>2022-12-09T13:34:37Z</time>
      </trkpt>
      <trkpt lat="49.86608" lon="2.21022">
        <ele>95.4</ele>
        <time>2022-12-09T13:34:38Z</time>
      </trkpt>
      <trkpt lat="49.86608" lon="2.21021">
        <ele>95.5</ele>
        <time>2022-12-09T13:34:39Z</time>
      </trkpt>
      <trkpt lat="49.86607" lon="2.21019">
        <ele>95.5</ele>
        <time>2022-12-09T13:34:40Z</time>
      </trkpt>
      <trkpt lat="49.86607" lon="2.21018">
        <ele>95.6</ele>
        <time>2022-12-09T13:34:41Z</time>
      </trkpt>
      <trkpt lat="49.86607" lon="2.21017">
        <ele>95.6</ele>
        <time>2022-12-09T13:34:42Z</time>
      </trkpt>
      <trkpt lat="49.86607" lon="2.21015">
        <ele>95.7</ele>
        <time>2022-12-09T13:34:44Z</time>
      </trkpt>
      <trkpt lat="49.86606" lon="2.21013">
        <ele>95.8</ele>
        <time>2022-12-09T13:34:45Z</time>
      </trkpt>
      <trkpt lat="49.86606" lon="2.21011">
        <ele>95.8</ele>
        <time>2022-12-09T13:34:46Z</time>
      </trkpt>
      <trkpt lat="49.86606" lon="2.21009">
        <ele>95.9</ele>
        <time>2022-12-09T13:34:47Z</time>
      </trkpt>
      <trkpt lat="49.86606" lon="2.21007">
        <ele>96</ele>
        <time>2022-12-09T13:34:48Z</time>
      </trkpt>
      <trkpt lat="49.86605" lon="2.21003">
        <ele>96.1</ele>
        <time>2022-12-09T13:34:49Z</time>
      </trkpt>
      <trkpt lat="49.86605" lon="2.21002">
        <ele>96.2</ele>
        <time>2022-12-09T13:34:50Z</time>
      </trkpt>
      <trkpt lat="49.86605" lon="2.21001">
        <ele>96.2</ele>
        <time>2022-12-09T13:34:51Z</time>
      </trkpt>
      <trkpt lat="49.86605" lon="2.20999">
        <ele>96.3</ele>
        <time>2022-12-09T13:34:53Z</time>
      </trkpt>
      <trkpt lat="49.86604" lon="2.20996">
        <ele>96.4</ele>
        <time>2022-12-09T13:34:54Z</time>
      </trkpt>
      <trkpt lat="49.86604" lon="2.20994">
        <ele>96.5</ele>
        <time>2022-12-09T13:34:55Z</time>
      </trkpt>
      <trkpt lat="49.86604" lon="2.20992">
        <ele>96.6</ele>
        <time>2022-12-09T13:34:56Z</time>
      </trkpt>
      <trkpt lat="49.86604" lon="2.20989">
        <ele>96.7</ele>
        <time>2022-12-09T13:34:57Z</time>
      </trkpt>
      <trkpt lat="49.86604" lon="2.20987">
        <ele>96.8</ele>
        <time>2022-12-09T13:34:58Z</time>
      </trkpt>
      <trkpt lat="49.86604" lon="2.20985">
        <ele>96.8</ele>
        <time>2022-12-09T13:34:59Z</time>
      </trkpt>
      <trkpt lat="49.86604" lon="2.20983">
        <ele>96.9</ele>
        <time>2022-12-09T13:35:00Z</time>
      </trkpt>
      <trkpt lat="49.86604" lon="2.20981">
        <ele>97</ele>
        <time>2022-12-09T13:35:02Z</time>
      </trkpt>
      <trkpt lat="49.86604" lon="2.20979">
        <ele>97.1</ele>
        <time>2022-12-09T13:35:03Z</time>
      </trkpt>
      <trkpt lat="49.86604" lon="2.20977">
        <ele>97.2</ele>
        <time>2022-12-09T13:35:04Z</time>
      </trkpt>
      <trkpt lat="49.86603" lon="2.20975">
        <ele>97.2</ele>
        <time>2022-12-09T13:35:05Z</time>
      </trkpt>
      <trkpt lat="49.86603" lon="2.20973">
        <ele>97.3</ele>
        <time>2022-12-09T13:35:06Z</time>
      </trkpt>
      <trkpt lat="49.86603" lon="2.20969">
        <ele>97.5</ele>
        <time>2022-12-09T13:35:07Z</time>
      </trkpt>
      <trkpt lat="49.86603" lon="2.20968">
        <ele>97.5</ele>
        <time>2022-12-09T13:35:08Z</time>
      </trkpt>
      <trkpt lat="49.86602" lon="2.20966">
        <ele>97.6</ele>
        <time>2022-12-09T13:35:10Z</time>
      </trkpt>
      <trkpt lat="49.86602" lon="2.20965">
        <ele>97.6</ele>
        <time>2022-12-09T13:35:11Z</time>
      </trkpt>
      <trkpt lat="49.86602" lon="2.20963">
        <ele>97.7</ele>
        <time>2022-12-09T13:35:12Z</time>
      </trkpt>
      <trkpt lat="49.86602" lon="2.20961">
        <ele>97.8</ele>
        <time>2022-12-09T13:35:13Z</time>
      </trkpt>
      <trkpt lat="49.86602" lon="2.2096">
        <ele>97.8</ele>
        <time>2022-12-09T13:35:14Z</time>
      </trkpt>
      <trkpt lat="49.86601" lon="2.20958">
        <ele>97.9</ele>
        <time>2022-12-09T13:35:15Z</time>
      </trkpt>
      <trkpt lat="49.86601" lon="2.20957">
        <ele>98</ele>
        <time>2022-12-09T13:35:16Z</time>
      </trkpt>
      <trkpt lat="49.86601" lon="2.20954">
        <ele>98.1</ele>
        <time>2022-12-09T13:35:17Z</time>
      </trkpt>
      <trkpt lat="49.866" lon="2.20953">
        <ele>98.1</ele>
        <time>2022-12-09T13:35:18Z</time>
      </trkpt>
      <trkpt lat="49.866" lon="2.20952">
        <ele>98.2</ele>
        <time>2022-12-09T13:35:20Z</time>
      </trkpt>
      <trkpt lat="49.866" lon="2.20951">
        <ele>98.2</ele>
        <time>2022-12-09T13:35:21Z</time>
      </trkpt>
      <trkpt lat="49.866" lon="2.20949">
        <ele>98.3</ele>
        <time>2022-12-09T13:35:22Z</time>
      </trkpt>
      <trkpt lat="49.866" lon="2.20947">
        <ele>98.3</ele>
        <time>2022-12-09T13:35:23Z</time>
      </trkpt>
      <trkpt lat="49.86599" lon="2.20946">
        <ele>98.4</ele>
        <time>2022-12-09T13:35:24Z</time>
      </trkpt>
      <trkpt lat="49.86599" lon="2.20944">
        <ele>98.5</ele>
        <time>2022-12-09T13:35:25Z</time>
      </trkpt>
      <trkpt lat="49.86599" lon="2.20942">
        <ele>98.6</ele>
        <time>2022-12-09T13:35:26Z</time>
      </trkpt>
      <trkpt lat="49.86598" lon="2.20941">
        <ele>98.6</ele>
        <time>2022-12-09T13:35:27Z</time>
      </trkpt>
      <trkpt lat="49.86598" lon="2.2094">
        <ele>98.7</ele>
        <time>2022-12-09T13:35:29Z</time>
      </trkpt>
      <trkpt lat="49.86598" lon="2.20939">
        <ele>98.7</ele>
        <time>2022-12-09T13:35:30Z</time>
      </trkpt>
      <trkpt lat="49.86597" lon="2.20937">
        <ele>98.8</ele>
        <time>2022-12-09T13:35:31Z</time>
      </trkpt>
      <trkpt lat="49.86597" lon="2.20936">
        <ele>98.9</ele>
        <time>2022-12-09T13:35:32Z</time>
      </trkpt>
      <trkpt lat="49.86596" lon="2.20935">
        <ele>98.9</ele>
        <time>2022-12-09T13:35:33Z</time>
      </trkpt>
      <trkpt lat="49.86596" lon="2.20933">
        <ele>99</ele>
        <time>2022-12-09T13:35:34Z</time>
      </trkpt>
      <trkpt lat="49.86595" lon="2.20932">
        <ele>99</ele>
        <time>2022-12-09T13:35:35Z</time>
      </trkpt>
      <trkpt lat="49.86595" lon="2.20931">
        <ele>99.1</ele>
        <time>2022-12-09T13:35:36Z</time>
      </trkpt>
      <trkpt lat="49.86595" lon="2.2093">
        <ele>99.2</ele>
        <time>2022-12-09T13:35:37Z</time>
      </trkpt>
      <trkpt lat="49.86594" lon="2.20927">
        <ele>99.3</ele>
        <time>2022-12-09T13:35:39Z</time>
      </trkpt>
      <trkpt lat="49.86593" lon="2.20925">
        <ele>99.4</ele>
        <time>2022-12-09T13:35:40Z</time>
      </trkpt>
      <trkpt lat="49.86593" lon="2.20924">
        <ele>99.4</ele>
        <time>2022-12-09T13:35:41Z</time>
      </trkpt>
      <trkpt lat="49.86592" lon="2.20922">
        <ele>99.5</ele>
        <time>2022-12-09T13:35:42Z</time>
      </trkpt>
      <trkpt lat="49.86591" lon="2.2092">
        <ele>99.6</ele>
        <time>2022-12-09T13:35:43Z</time>
      </trkpt>
      <trkpt lat="49.8659" lon="2.20917">
        <ele>99.7</ele>
        <time>2022-12-09T13:35:44Z</time>
      </trkpt>
      <trkpt lat="49.86589" lon="2.20915">
        <ele>99.8</ele>
        <time>2022-12-09T13:35:45Z</time>
      </trkpt>
      <trkpt lat="49.86589" lon="2.20913">
        <ele>99.9</ele>
        <time>2022-12-09T13:35:46Z</time>
      </trkpt>
      <trkpt lat="49.86588" lon="2.20911">
        <ele>100</ele>
        <time>2022-12-09T13:35:48Z</time>
      </trkpt>
      <trkpt lat="49.86588" lon="2.20909">
        <ele>100.1</ele>
        <time>2022-12-09T13:35:49Z</time>
      </trkpt>
      <trkpt lat="49.86587" lon="2.20906">
        <ele>100.2</ele>
        <time>2022-12-09T13:35:50Z</time>
      </trkpt>
      <trkpt lat="49.86587" lon="2.20904">
        <ele>100.3</ele>
        <time>2022-12-09T13:35:51Z</time>
      </trkpt>
      <trkpt lat="49.86586" lon="2.20902">
        <ele>100.4</ele>
        <time>2022-12-09T13:35:52Z</time>
      </trkpt>
      <trkpt lat="49.86586" lon="2.209">
        <ele>100.5</ele>
        <time>2022-12-09T13:35:53Z</time>
      </trkpt>
      <trkpt lat="49.86585" lon="2.20898">
        <ele>100.5</ele>
        <time>2022-12-09T13:35:54Z</time>
      </trkpt>
      <trkpt lat="49.86585" lon="2.20896">
        <ele>100.6</ele>
        <time>2022-12-09T13:35:56Z</time>
      </trkpt>
      <trkpt lat="49.86584" lon="2.20893">
        <ele>100.7</ele>
        <time>2022-12-09T13:35:57Z</time>
      </trkpt>
      <trkpt lat="49.86584" lon="2.20892">
        <ele>100.8</ele>
        <time>2022-12-09T13:35:58Z</time>
      </trkpt>
      <trkpt lat="49.86584" lon="2.20891">
        <ele>100.8</ele>
        <time>2022-12-09T13:35:59Z</time>
      </trkpt>
      <trkpt lat="49.86583" lon="2.20888">
        <ele>101</ele>
        <time>2022-12-09T13:36:00Z</time>
      </trkpt>
      <trkpt lat="49.86583" lon="2.20886">
        <ele>101</ele>
        <time>2022-12-09T13:36:01Z</time>
      </trkpt>
      <trkpt lat="49.86583" lon="2.20885">
        <ele>101</ele>
        <time>2022-12-09T13:36:02Z</time>
      </trkpt>
      <trkpt lat="49.86582" lon="2.20882">
        <ele>101.2</ele>
        <time>2022-12-09T13:36:03Z</time>
      </trkpt>
      <trkpt lat="49.86582" lon="2.20881">
        <ele>101.2</ele>
        <time>2022-12-09T13:36:05Z</time>
      </trkpt>
      <trkpt lat="49.86582" lon="2.2088">
        <ele>101.3</ele>
        <time>2022-12-09T13:36:06Z</time>
      </trkpt>
      <trkpt lat="49.86581" lon="2.20878">
        <ele>101.3</ele>
        <time>2022-12-09T13:36:07Z</time>
      </trkpt>
      <trkpt lat="49.86581" lon="2.20876">
        <ele>101.4</ele>
        <time>2022-12-09T13:36:08Z</time>
      </trkpt>
      <trkpt lat="49.86581" lon="2.20875">
        <ele>101.5</ele>
        <time>2022-12-09T13:36:09Z</time>
      </trkpt>
      <trkpt lat="49.8658" lon="2.20872">
        <ele>101.6</ele>
        <time>2022-12-09T13:36:10Z</time>
      </trkpt>
      <trkpt lat="49.8658" lon="2.2087">
        <ele>101.6</ele>
        <time>2022-12-09T13:36:11Z</time>
      </trkpt>
      <trkpt lat="49.8658" lon="2.20869">
        <ele>101.7</ele>
        <time>2022-12-09T13:36:13Z</time>
      </trkpt>
      <trkpt lat="49.8658" lon="2.20867">
        <ele>101.8</ele>
        <time>2022-12-09T13:36:14Z</time>
      </trkpt>
      <trkpt lat="49.8658" lon="2.20866">
        <ele>101.8</ele>
        <time>2022-12-09T13:36:15Z</time>
      </trkpt>
      <trkpt lat="49.86579" lon="2.20864">
        <ele>101.9</ele>
        <time>2022-12-09T13:36:16Z</time>
      </trkpt>
      <trkpt lat="49.86579" lon="2.20861">
        <ele>102</ele>
        <time>2022-12-09T13:36:17Z</time>
      </trkpt>
      <trkpt lat="49.86579" lon="2.2086">
        <ele>102</ele>
        <time>2022-12-09T13:36:18Z</time>
      </trkpt>
      <trkpt lat="49.86579" lon="2.20858">
        <ele>102.1</ele>
        <time>2022-12-09T13:36:19Z</time>
      </trkpt>
      <trkpt lat="49.86579" lon="2.20856">
        <ele>102.2</ele>
        <time>2022-12-09T13:36:21Z</time>
      </trkpt>
      <trkpt lat="49.86579" lon="2.20854">
        <ele>102.3</ele>
        <time>2022-12-09T13:36:22Z</time>
      </trkpt>
      <trkpt lat="49.86579" lon="2.20851">
        <ele>102.4</ele>
        <time>2022-12-09T13:36:23Z</time>
      </trkpt>
      <trkpt lat="49.86579" lon="2.20849">
        <ele>102.5</ele>
        <time>2022-12-09T13:36:24Z</time>
      </trkpt>
      <trkpt lat="49.86579" lon="2.20846">
        <ele>102.5</ele>
        <time>2022-12-09T13:36:25Z</time>
      </trkpt>
      <trkpt lat="49.86579" lon="2.20844">
        <ele>102.6</ele>
        <time>2022-12-09T13:36:26Z</time>
      </trkpt>
      <trkpt lat="49.86579" lon="2.20841">
        <ele>102.7</ele>
        <time>2022-12-09T13:36:27Z</time>
      </trkpt>
      <trkpt lat="49.86579" lon="2.2084">
        <ele>102.8</ele>
        <time>2022-12-09T13:36:29Z</time>
      </trkpt>
      <trkpt lat="49.86579" lon="2.20838">
        <ele>102.8</ele>
        <time>2022-12-09T13:36:30Z</time>
      </trkpt>
      <trkpt lat="49.86579" lon="2.20836">
        <ele>102.9</ele>
        <time>2022-12-09T13:36:31Z</time>
      </trkpt>
      <trkpt lat="49.86579" lon="2.20835">
        <ele>103</ele>
        <time>2022-12-09T13:36:32Z</time>
      </trkpt>
      <trkpt lat="49.86579" lon="2.20833">
        <ele>103</ele>
        <time>2022-12-09T13:36:33Z</time>
      </trkpt>
      <trkpt lat="49.86579" lon="2.20832">
        <ele>103.1</ele>
        <time>2022-12-09T13:36:34Z</time>
      </trkpt>
      <trkpt lat="49.86579" lon="2.2083">
        <ele>103.1</ele>
        <time>2022-12-09T13:36:35Z</time>
      </trkpt>
      <trkpt lat="49.86579" lon="2.20829">
        <ele>103.2</ele>
        <time>2022-12-09T13:36:36Z</time>
      </trkpt>
      <trkpt lat="49.86578" lon="2.20828">
        <ele>103.2</ele>
        <time>2022-12-09T13:36:38Z</time>
      </trkpt>
      <trkpt lat="49.86579" lon="2.20826">
        <ele>103.3</ele>
        <time>2022-12-09T13:36:39Z</time>
      </trkpt>
      <trkpt lat="49.86579" lon="2.20825">
        <ele>103.3</ele>
        <time>2022-12-09T13:36:40Z</time>
      </trkpt>
      <trkpt lat="49.86579" lon="2.20824">
        <ele>103.4</ele>
        <time>2022-12-09T13:36:41Z</time>
      </trkpt>
      <trkpt lat="49.86579" lon="2.20823">
        <ele>103.4</ele>
        <time>2022-12-09T13:36:42Z</time>
      </trkpt>
      <trkpt lat="49.8658" lon="2.20821">
        <ele>103.5</ele>
        <time>2022-12-09T13:36:43Z</time>
      </trkpt>
      <trkpt lat="49.8658" lon="2.2082">
        <ele>103.5</ele>
        <time>2022-12-09T13:36:45Z</time>
      </trkpt>
      <trkpt lat="49.8658" lon="2.20818">
        <ele>103.6</ele>
        <time>2022-12-09T13:36:46Z</time>
      </trkpt>
      <trkpt lat="49.8658" lon="2.20817">
        <ele>103.7</ele>
        <time>2022-12-09T13:36:47Z</time>
      </trkpt>
      <trkpt lat="49.8658" lon="2.20815">
        <ele>103.7</ele>
        <time>2022-12-09T13:36:48Z</time>
      </trkpt>
      <trkpt lat="49.86581" lon="2.20813">
        <ele>103.8</ele>
        <time>2022-12-09T13:36:49Z</time>
      </trkpt>
      <trkpt lat="49.86581" lon="2.20812">
        <ele>103.8</ele>
        <time>2022-12-09T13:36:50Z</time>
      </trkpt>
      <trkpt lat="49.86581" lon="2.2081">
        <ele>103.9</ele>
        <time>2022-12-09T13:36:51Z</time>
      </trkpt>
      <trkpt lat="49.86581" lon="2.20808">
        <ele>103.9</ele>
        <time>2022-12-09T13:36:53Z</time>
      </trkpt>
      <trkpt lat="49.86581" lon="2.20806">
        <ele>104</ele>
        <time>2022-12-09T13:36:54Z</time>
      </trkpt>
      <trkpt lat="49.86581" lon="2.20804">
        <ele>104.1</ele>
        <time>2022-12-09T13:36:55Z</time>
      </trkpt>
      <trkpt lat="49.86581" lon="2.20801">
        <ele>104.1</ele>
        <time>2022-12-09T13:36:56Z</time>
      </trkpt>
      <trkpt lat="49.86581" lon="2.20799">
        <ele>104.2</ele>
        <time>2022-12-09T13:36:57Z</time>
      </trkpt>
      <trkpt lat="49.86581" lon="2.20797">
        <ele>104.3</ele>
        <time>2022-12-09T13:36:58Z</time>
      </trkpt>
      <trkpt lat="49.86581" lon="2.20795">
        <ele>104.3</ele>
        <time>2022-12-09T13:36:59Z</time>
      </trkpt>
      <trkpt lat="49.86581" lon="2.20791">
        <ele>104.4</ele>
        <time>2022-12-09T13:37:00Z</time>
      </trkpt>
      <trkpt lat="49.86581" lon="2.2079">
        <ele>104.5</ele>
        <time>2022-12-09T13:37:02Z</time>
      </trkpt>
      <trkpt lat="49.86581" lon="2.20788">
        <ele>104.5</ele>
        <time>2022-12-09T13:37:03Z</time>
      </trkpt>
      <trkpt lat="49.86581" lon="2.20786">
        <ele>104.6</ele>
        <time>2022-12-09T13:37:04Z</time>
      </trkpt>
      <trkpt lat="49.86581" lon="2.20784">
        <ele>104.6</ele>
        <time>2022-12-09T13:37:05Z</time>
      </trkpt>
      <trkpt lat="49.86581" lon="2.20782">
        <ele>104.7</ele>
        <time>2022-12-09T13:37:06Z</time>
      </trkpt>
      <trkpt lat="49.86581" lon="2.2078">
        <ele>104.7</ele>
        <time>2022-12-09T13:37:07Z</time>
      </trkpt>
      <trkpt lat="49.86581" lon="2.20779">
        <ele>104.8</ele>
        <time>2022-12-09T13:37:08Z</time>
      </trkpt>
      <trkpt lat="49.86581" lon="2.20777">
        <ele>104.8</ele>
        <time>2022-12-09T13:37:10Z</time>
      </trkpt>
      <trkpt lat="49.86581" lon="2.20775">
        <ele>104.8</ele>
        <time>2022-12-09T13:37:11Z</time>
      </trkpt>
      <trkpt lat="49.86581" lon="2.20774">
        <ele>104.9</ele>
        <time>2022-12-09T13:37:12Z</time>
      </trkpt>
      <trkpt lat="49.8658" lon="2.20772">
        <ele>104.9</ele>
        <time>2022-12-09T13:37:13Z</time>
      </trkpt>
      <trkpt lat="49.8658" lon="2.2077">
        <ele>105</ele>
        <time>2022-12-09T13:37:14Z</time>
      </trkpt>
      <trkpt lat="49.8658" lon="2.20769">
        <ele>105</ele>
        <time>2022-12-09T13:37:15Z</time>
      </trkpt>
      <trkpt lat="49.86579" lon="2.20767">
        <ele>105</ele>
        <time>2022-12-09T13:37:16Z</time>
      </trkpt>
      <trkpt lat="49.86579" lon="2.20766">
        <ele>105.1</ele>
        <time>2022-12-09T13:37:17Z</time>
      </trkpt>
      <trkpt lat="49.86579" lon="2.20764">
        <ele>105.1</ele>
        <time>2022-12-09T13:37:18Z</time>
      </trkpt>
      <trkpt lat="49.86579" lon="2.20763">
        <ele>105.1</ele>
        <time>2022-12-09T13:37:20Z</time>
      </trkpt>
      <trkpt lat="49.86579" lon="2.20761">
        <ele>105.2</ele>
        <time>2022-12-09T13:37:21Z</time>
      </trkpt>
      <trkpt lat="49.86578" lon="2.2076">
        <ele>105.2</ele>
        <time>2022-12-09T13:37:22Z</time>
      </trkpt>
      <trkpt lat="49.86578" lon="2.20758">
        <ele>105.2</ele>
        <time>2022-12-09T13:37:23Z</time>
      </trkpt>
      <trkpt lat="49.86578" lon="2.20757">
        <ele>105.3</ele>
        <time>2022-12-09T13:37:24Z</time>
      </trkpt>
      <trkpt lat="49.86578" lon="2.20755">
        <ele>105.3</ele>
        <time>2022-12-09T13:37:25Z</time>
      </trkpt>
      <trkpt lat="49.86578" lon="2.20753">
        <ele>105.3</ele>
        <time>2022-12-09T13:37:26Z</time>
      </trkpt>
      <trkpt lat="49.86578" lon="2.20751">
        <ele>105.4</ele>
        <time>2022-12-09T13:37:27Z</time>
      </trkpt>
      <trkpt lat="49.86578" lon="2.2075">
        <ele>105.4</ele>
        <time>2022-12-09T13:37:28Z</time>
      </trkpt>
      <trkpt lat="49.86578" lon="2.20748">
        <ele>105.5</ele>
        <time>2022-12-09T13:37:30Z</time>
      </trkpt>
      <trkpt lat="49.86577" lon="2.20746">
        <ele>105.5</ele>
        <time>2022-12-09T13:37:31Z</time>
      </trkpt>
      <trkpt lat="49.86577" lon="2.20744">
        <ele>105.5</ele>
        <time>2022-12-09T13:37:32Z</time>
      </trkpt>
      <trkpt lat="49.86577" lon="2.20742">
        <ele>105.6</ele>
        <time>2022-12-09T13:37:33Z</time>
      </trkpt>
      <trkpt lat="49.86578" lon="2.20741">
        <ele>105.6</ele>
        <time>2022-12-09T13:37:34Z</time>
      </trkpt>
      <trkpt lat="49.86578" lon="2.20739">
        <ele>105.6</ele>
        <time>2022-12-09T13:37:35Z</time>
      </trkpt>
      <trkpt lat="49.86578" lon="2.20737">
        <ele>105.7</ele>
        <time>2022-12-09T13:37:36Z</time>
      </trkpt>
      <trkpt lat="49.86578" lon="2.20736">
        <ele>105.7</ele>
        <time>2022-12-09T13:37:37Z</time>
      </trkpt>
      <trkpt lat="49.86578" lon="2.20734">
        <ele>105.8</ele>
        <time>2022-12-09T13:37:38Z</time>
      </trkpt>
      <trkpt lat="49.86578" lon="2.20733">
        <ele>105.8</ele>
        <time>2022-12-09T13:37:39Z</time>
      </trkpt>
      <trkpt lat="49.86577" lon="2.20731">
        <ele>105.8</ele>
        <time>2022-12-09T13:37:40Z</time>
      </trkpt>
      <trkpt lat="49.86577" lon="2.2073">
        <ele>105.9</ele>
        <time>2022-12-09T13:37:42Z</time>
      </trkpt>
      <trkpt lat="49.86577" lon="2.20728">
        <ele>105.9</ele>
        <time>2022-12-09T13:37:43Z</time>
      </trkpt>
      <trkpt lat="49.86577" lon="2.20726">
        <ele>105.9</ele>
        <time>2022-12-09T13:37:44Z</time>
      </trkpt>
      <trkpt lat="49.86577" lon="2.20725">
        <ele>106</ele>
        <time>2022-12-09T13:37:45Z</time>
      </trkpt>
      <trkpt lat="49.86577" lon="2.20723">
        <ele>106</ele>
        <time>2022-12-09T13:37:46Z</time>
      </trkpt>
      <trkpt lat="49.86577" lon="2.20722">
        <ele>106</ele>
        <time>2022-12-09T13:37:47Z</time>
      </trkpt>
      <trkpt lat="49.86577" lon="2.20721">
        <ele>106.1</ele>
        <time>2022-12-09T13:37:48Z</time>
      </trkpt>
      <trkpt lat="49.86577" lon="2.20719">
        <ele>106.1</ele>
        <time>2022-12-09T13:37:49Z</time>
      </trkpt>
      <trkpt lat="49.86576" lon="2.20718">
        <ele>106.1</ele>
        <time>2022-12-09T13:37:51Z</time>
      </trkpt>
      <trkpt lat="49.86576" lon="2.20716">
        <ele>106.2</ele>
        <time>2022-12-09T13:37:52Z</time>
      </trkpt>
      <trkpt lat="49.86575" lon="2.20714">
        <ele>106.2</ele>
        <time>2022-12-09T13:37:53Z</time>
      </trkpt>
      <trkpt lat="49.86575" lon="2.20713">
        <ele>106.3</ele>
        <time>2022-12-09T13:37:54Z</time>
      </trkpt>
      <trkpt lat="49.86574" lon="2.20711">
        <ele>106.3</ele>
        <time>2022-12-09T13:37:55Z</time>
      </trkpt>
      <trkpt lat="49.86574" lon="2.2071">
        <ele>106.3</ele>
        <time>2022-12-09T13:37:56Z</time>
      </trkpt>
      <trkpt lat="49.86573" lon="2.20709">
        <ele>106.4</ele>
        <time>2022-12-09T13:37:57Z</time>
      </trkpt>
      <trkpt lat="49.86573" lon="2.20707">
        <ele>106.4</ele>
        <time>2022-12-09T13:37:58Z</time>
      </trkpt>
      <trkpt lat="49.86573" lon="2.20705">
        <ele>106.5</ele>
        <time>2022-12-09T13:38:00Z</time>
      </trkpt>
      <trkpt lat="49.86572" lon="2.20704">
        <ele>106.5</ele>
        <time>2022-12-09T13:38:01Z</time>
      </trkpt>
      <trkpt lat="49.86572" lon="2.20702">
        <ele>106.6</ele>
        <time>2022-12-09T13:38:02Z</time>
      </trkpt>
      <trkpt lat="49.86571" lon="2.20701">
        <ele>106.6</ele>
        <time>2022-12-09T13:38:03Z</time>
      </trkpt>
      <trkpt lat="49.86571" lon="2.20699">
        <ele>106.7</ele>
        <time>2022-12-09T13:38:04Z</time>
      </trkpt>
      <trkpt lat="49.8657" lon="2.20697">
        <ele>106.7</ele>
        <time>2022-12-09T13:38:05Z</time>
      </trkpt>
      <trkpt lat="49.8657" lon="2.20696">
        <ele>106.7</ele>
        <time>2022-12-09T13:38:06Z</time>
      </trkpt>
      <trkpt lat="49.8657" lon="2.20695">
        <ele>106.8</ele>
        <time>2022-12-09T13:38:07Z</time>
      </trkpt>
      <trkpt lat="49.8657" lon="2.20694">
        <ele>106.8</ele>
        <time>2022-12-09T13:38:09Z</time>
      </trkpt>
      <trkpt lat="49.8657" lon="2.20692">
        <ele>106.9</ele>
        <time>2022-12-09T13:38:10Z</time>
      </trkpt>
      <trkpt lat="49.86569" lon="2.20691">
        <ele>106.9</ele>
        <time>2022-12-09T13:38:11Z</time>
      </trkpt>
      <trkpt lat="49.86569" lon="2.20689">
        <ele>106.9</ele>
        <time>2022-12-09T13:38:12Z</time>
      </trkpt>
      <trkpt lat="49.86569" lon="2.20687">
        <ele>107</ele>
        <time>2022-12-09T13:38:13Z</time>
      </trkpt>
      <trkpt lat="49.8657" lon="2.20684">
        <ele>107.1</ele>
        <time>2022-12-09T13:38:14Z</time>
      </trkpt>
      <trkpt lat="49.8657" lon="2.20683">
        <ele>107.1</ele>
        <time>2022-12-09T13:38:15Z</time>
      </trkpt>
      <trkpt lat="49.8657" lon="2.20682">
        <ele>107.1</ele>
        <time>2022-12-09T13:38:16Z</time>
      </trkpt>
      <trkpt lat="49.8657" lon="2.20679">
        <ele>107.2</ele>
        <time>2022-12-09T13:38:18Z</time>
      </trkpt>
      <trkpt lat="49.8657" lon="2.20677">
        <ele>107.2</ele>
        <time>2022-12-09T13:38:19Z</time>
      </trkpt>
      <trkpt lat="49.8657" lon="2.20675">
        <ele>107.3</ele>
        <time>2022-12-09T13:38:20Z</time>
      </trkpt>
      <trkpt lat="49.86569" lon="2.20672">
        <ele>107.4</ele>
        <time>2022-12-09T13:38:21Z</time>
      </trkpt>
      <trkpt lat="49.86569" lon="2.2067">
        <ele>107.4</ele>
        <time>2022-12-09T13:38:22Z</time>
      </trkpt>
      <trkpt lat="49.86569" lon="2.20667">
        <ele>107.5</ele>
        <time>2022-12-09T13:38:23Z</time>
      </trkpt>
      <trkpt lat="49.86568" lon="2.20665">
        <ele>107.5</ele>
        <time>2022-12-09T13:38:24Z</time>
      </trkpt>
      <trkpt lat="49.86568" lon="2.20663">
        <ele>107.6</ele>
        <time>2022-12-09T13:38:26Z</time>
      </trkpt>
      <trkpt lat="49.86567" lon="2.2066">
        <ele>107.7</ele>
        <time>2022-12-09T13:38:27Z</time>
      </trkpt>
      <trkpt lat="49.86567" lon="2.20658">
        <ele>107.7</ele>
        <time>2022-12-09T13:38:28Z</time>
      </trkpt>
      <trkpt lat="49.86567" lon="2.20656">
        <ele>107.8</ele>
        <time>2022-12-09T13:38:29Z</time>
      </trkpt>
      <trkpt lat="49.86566" lon="2.20653">
        <ele>107.8</ele>
        <time>2022-12-09T13:38:30Z</time>
      </trkpt>
      <trkpt lat="49.86566" lon="2.20651">
        <ele>107.9</ele>
        <time>2022-12-09T13:38:31Z</time>
      </trkpt>
      <trkpt lat="49.86565" lon="2.20649">
        <ele>107.9</ele>
        <time>2022-12-09T13:38:32Z</time>
      </trkpt>
      <trkpt lat="49.86565" lon="2.20647">
        <ele>108</ele>
        <time>2022-12-09T13:38:33Z</time>
      </trkpt>
      <trkpt lat="49.86564" lon="2.20644">
        <ele>108</ele>
        <time>2022-12-09T13:38:35Z</time>
      </trkpt>
      <trkpt lat="49.86564" lon="2.20642">
        <ele>108.1</ele>
        <time>2022-12-09T13:38:36Z</time>
      </trkpt>
      <trkpt lat="49.86564" lon="2.2064">
        <ele>108.1</ele>
        <time>2022-12-09T13:38:37Z</time>
      </trkpt>
      <trkpt lat="49.86563" lon="2.20638">
        <ele>108.2</ele>
        <time>2022-12-09T13:38:38Z</time>
      </trkpt>
      <trkpt lat="49.86563" lon="2.20636">
        <ele>108.2</ele>
        <time>2022-12-09T13:38:39Z</time>
      </trkpt>
      <trkpt lat="49.86562" lon="2.20634">
        <ele>108.2</ele>
        <time>2022-12-09T13:38:40Z</time>
      </trkpt>
      <trkpt lat="49.86562" lon="2.20632">
        <ele>108.3</ele>
        <time>2022-12-09T13:38:41Z</time>
      </trkpt>
      <trkpt lat="49.86562" lon="2.20631">
        <ele>108.3</ele>
        <time>2022-12-09T13:38:42Z</time>
      </trkpt>
      <trkpt lat="49.86562" lon="2.20629">
        <ele>108.3</ele>
        <time>2022-12-09T13:38:44Z</time>
      </trkpt>
      <trkpt lat="49.86561" lon="2.20628">
        <ele>108.4</ele>
        <time>2022-12-09T13:38:45Z</time>
      </trkpt>
      <trkpt lat="49.86561" lon="2.20626">
        <ele>108.4</ele>
        <time>2022-12-09T13:38:46Z</time>
      </trkpt>
      <trkpt lat="49.8656" lon="2.20624">
        <ele>108.4</ele>
        <time>2022-12-09T13:38:47Z</time>
      </trkpt>
      <trkpt lat="49.8656" lon="2.20623">
        <ele>108.5</ele>
        <time>2022-12-09T13:38:48Z</time>
      </trkpt>
      <trkpt lat="49.8656" lon="2.20621">
        <ele>108.5</ele>
        <time>2022-12-09T13:38:49Z</time>
      </trkpt>
      <trkpt lat="49.86559" lon="2.2062">
        <ele>108.5</ele>
        <time>2022-12-09T13:38:50Z</time>
      </trkpt>
      <trkpt lat="49.86559" lon="2.20619">
        <ele>108.5</ele>
        <time>2022-12-09T13:38:51Z</time>
      </trkpt>
      <trkpt lat="49.86559" lon="2.20618">
        <ele>108.5</ele>
        <time>2022-12-09T13:38:53Z</time>
      </trkpt>
      <trkpt lat="49.86558" lon="2.20616">
        <ele>108.6</ele>
        <time>2022-12-09T13:38:54Z</time>
      </trkpt>
      <trkpt lat="49.86558" lon="2.20615">
        <ele>108.6</ele>
        <time>2022-12-09T13:38:55Z</time>
      </trkpt>
      <trkpt lat="49.86558" lon="2.20613">
        <ele>108.6</ele>
        <time>2022-12-09T13:38:56Z</time>
      </trkpt>
      <trkpt lat="49.86557" lon="2.20611">
        <ele>108.6</ele>
        <time>2022-12-09T13:38:57Z</time>
      </trkpt>
      <trkpt lat="49.86557" lon="2.2061">
        <ele>108.7</ele>
        <time>2022-12-09T13:38:58Z</time>
      </trkpt>
      <trkpt lat="49.86556" lon="2.20609">
        <ele>108.7</ele>
        <time>2022-12-09T13:39:00Z</time>
      </trkpt>
      <trkpt lat="49.86556" lon="2.20607">
        <ele>108.7</ele>
        <time>2022-12-09T13:39:01Z</time>
      </trkpt>
      <trkpt lat="49.86556" lon="2.20605">
        <ele>108.7</ele>
        <time>2022-12-09T13:39:02Z</time>
      </trkpt>
      <trkpt lat="49.86556" lon="2.20604">
        <ele>108.7</ele>
        <time>2022-12-09T13:39:03Z</time>
      </trkpt>
      <trkpt lat="49.86555" lon="2.20602">
        <ele>108.8</ele>
        <time>2022-12-09T13:39:04Z</time>
      </trkpt>
      <trkpt lat="49.86555" lon="2.206">
        <ele>108.8</ele>
        <time>2022-12-09T13:39:05Z</time>
      </trkpt>
      <trkpt lat="49.86555" lon="2.20599">
        <ele>108.8</ele>
        <time>2022-12-09T13:39:06Z</time>
      </trkpt>
      <trkpt lat="49.86555" lon="2.20598">
        <ele>108.8</ele>
        <time>2022-12-09T13:39:08Z</time>
      </trkpt>
      <trkpt lat="49.86555" lon="2.20597">
        <ele>108.8</ele>
        <time>2022-12-09T13:39:09Z</time>
      </trkpt>
      <trkpt lat="49.86554" lon="2.20595">
        <ele>108.9</ele>
        <time>2022-12-09T13:39:10Z</time>
      </trkpt>
      <trkpt lat="49.86554" lon="2.20593">
        <ele>108.9</ele>
        <time>2022-12-09T13:39:11Z</time>
      </trkpt>
      <trkpt lat="49.86554" lon="2.20592">
        <ele>108.9</ele>
        <time>2022-12-09T13:39:12Z</time>
      </trkpt>
      <trkpt lat="49.86555" lon="2.20589">
        <ele>108.9</ele>
        <time>2022-12-09T13:39:14Z</time>
      </trkpt>
      <trkpt lat="49.86555" lon="2.20589">
        <ele>108.9</ele>
        <time>2022-12-09T13:39:15Z</time>
      </trkpt>
      <trkpt lat="49.86555" lon="2.20589">
        <ele>108.9</ele>
        <time>2022-12-09T13:39:17Z</time>
      </trkpt>
      <trkpt lat="49.86555" lon="2.20589">
        <ele>108.9</ele>
        <time>2022-12-09T13:39:18Z</time>
      </trkpt>
      <trkpt lat="49.86555" lon="2.20589">
        <ele>108.9</ele>
        <time>2022-12-09T13:39:19Z</time>
      </trkpt>
      <trkpt lat="49.86555" lon="2.20589">
        <ele>108.9</ele>
        <time>2022-12-09T13:39:21Z</time>
      </trkpt>
      <trkpt lat="49.86555" lon="2.20589">
        <ele>108.9</ele>
        <time>2022-12-09T13:39:22Z</time>
      </trkpt>
      <trkpt lat="49.86555" lon="2.20589">
        <ele>108.9</ele>
        <time>2022-12-09T13:39:24Z</time>
      </trkpt>
      <trkpt lat="49.86555" lon="2.20589">
        <ele>108.9</ele>
        <time>2022-12-09T13:39:25Z</time>
      </trkpt>
      <trkpt lat="49.86555" lon="2.20589">
        <ele>108.9</ele>
        <time>2022-12-09T13:39:27Z</time>
      </trkpt>
      <trkpt lat="49.86555" lon="2.20589">
        <ele>108.9</ele>
        <time>2022-12-09T13:39:28Z</time>
      </trkpt>
      <trkpt lat="49.86555" lon="2.20589">
        <ele>108.9</ele>
        <time>2022-12-09T13:39:30Z</time>
      </trkpt>
      <trkpt lat="49.86554" lon="2.20589">
        <ele>108.9</ele>
        <time>2022-12-09T13:39:31Z</time>
      </trkpt>
      <trkpt lat="49.86554" lon="2.20589">
        <ele>108.9</ele>
        <time>2022-12-09T13:39:32Z</time>
      </trkpt>
      <trkpt lat="49.86554" lon="2.20589">
        <ele>108.9</ele>
        <time>2022-12-09T13:39:33Z</time>
      </trkpt>
      <trkpt lat="49.86554" lon="2.20589">
        <ele>108.9</ele>
        <time>2022-12-09T13:39:34Z</time>
      </trkpt>
      <trkpt lat="49.86554" lon="2.20589">
        <ele>108.9</ele>
        <time>2022-12-09T13:39:35Z</time>
      </trkpt>
      <trkpt lat="49.86554" lon="2.20589">
        <ele>108.9</ele>
        <time>2022-12-09T13:39:36Z</time>
      </trkpt>
      <trkpt lat="49.86554" lon="2.20589">
        <ele>108.9</ele>
        <time>2022-12-09T13:39:37Z</time>
      </trkpt>
      <trkpt lat="49.86554" lon="2.20589">
        <ele>108.9</ele>
        <time>2022-12-09T13:39:38Z</time>
      </trkpt>
      <trkpt lat="49.86554" lon="2.20589">
        <ele>108.9</ele>
        <time>2022-12-09T13:39:39Z</time>
      </trkpt>
      <trkpt lat="49.86554" lon="2.20589">
        <ele>108.9</ele>
        <time>2022-12-09T13:39:40Z</time>
      </trkpt>
      <trkpt lat="49.86554" lon="2.20589">
        <ele>108.9</ele>
        <time>2022-12-09T13:39:41Z</time>
      </trkpt>
      <trkpt lat="49.86554" lon="2.20589">
        <ele>108.9</ele>
        <time>2022-12-09T13:39:42Z</time>
      </trkpt>
      <trkpt lat="49.86554" lon="2.20589">
        <ele>108.9</ele>
        <time>2022-12-09T13:39:43Z</time>
      </trkpt>
      <trkpt lat="49.86554" lon="2.20589">
        <ele>108.9</ele>
        <time>2022-12-09T13:39:44Z</time>
      </trkpt>
      <trkpt lat="49.86554" lon="2.20589">
        <ele>108.9</ele>
        <time>2022-12-09T13:39:45Z</time>
      </trkpt>
      <trkpt lat="49.86554" lon="2.20589">
        <ele>108.9</ele>
        <time>2022-12-09T13:39:46Z</time>
      </trkpt>
      <trkpt lat="49.86554" lon="2.20589">
        <ele>108.9</ele>
        <time>2022-12-09T13:39:47Z</time>
      </trkpt>
      <trkpt lat="49.86554" lon="2.20589">
        <ele>108.9</ele>
        <time>2022-12-09T13:39:48Z</time>
      </trkpt>
      <trkpt lat="49.86554" lon="2.20589">
        <ele>108.9</ele>
        <time>2022-12-09T13:39:49Z</time>
      </trkpt>
      <trkpt lat="49.86554" lon="2.20589">
        <ele>108.9</ele>
        <time>2022-12-09T13:39:50Z</time>
      </trkpt>
      <trkpt lat="49.86554" lon="2.20589">
        <ele>108.9</ele>
        <time>2022-12-09T13:39:51Z</time>
      </trkpt>
      <trkpt lat="49.86554" lon="2.20589">
        <ele>108.9</ele>
        <time>2022-12-09T13:39:52Z</time>
      </trkpt>
      <trkpt lat="49.86554" lon="2.20589">
        <ele>108.9</ele>
        <time>2022-12-09T13:39:53Z</time>
      </trkpt>
      <trkpt lat="49.86554" lon="2.20589">
        <ele>108.9</ele>
        <time>2022-12-09T13:39:54Z</time>
      </trkpt>
      <trkpt lat="49.86554" lon="2.20589">
        <ele>108.9</ele>
        <time>2022-12-09T13:39:55Z</time>
      </trkpt>
      <trkpt lat="49.86554" lon="2.20589">
        <ele>108.9</ele>
        <time>2022-12-09T13:39:56Z</time>
      </trkpt>
      <trkpt lat="49.86554" lon="2.20589">
        <ele>108.9</ele>
        <time>2022-12-09T13:39:57Z</time>
      </trkpt>
      <trkpt lat="49.86554" lon="2.20589">
        <ele>108.9</ele>
        <time>2022-12-09T13:39:58Z</time>
      </trkpt>
      <trkpt lat="49.86554" lon="2.20589">
        <ele>108.9</ele>
        <time>2022-12-09T13:39:59Z</time>
      </trkpt>
      <trkpt lat="49.86554" lon="2.20589">
        <ele>108.9</ele>
        <time>2022-12-09T13:40:00Z</time>
      </trkpt>
      <trkpt lat="49.86554" lon="2.20589">
        <ele>108.9</ele>
        <time>2022-12-09T13:40:01Z</time>
      </trkpt>
      <trkpt lat="49.86554" lon="2.20589">
        <ele>108.9</ele>
        <time>2022-12-09T13:40:02Z</time>
      </trkpt>
      <trkpt lat="49.86554" lon="2.20589">
        <ele>109</ele>
        <time>2022-12-09T13:40:03Z</time>
      </trkpt>
      <trkpt lat="49.86554" lon="2.20589">
        <ele>109</ele>
        <time>2022-12-09T13:40:04Z</time>
      </trkpt>
      <trkpt lat="49.86554" lon="2.20589">
        <ele>109</ele>
        <time>2022-12-09T13:40:05Z</time>
      </trkpt>
      <trkpt lat="49.86554" lon="2.20589">
        <ele>109</ele>
        <time>2022-12-09T13:40:06Z</time>
      </trkpt>
      <trkpt lat="49.86554" lon="2.20589">
        <ele>109</ele>
        <time>2022-12-09T13:40:07Z</time>
      </trkpt>
      <trkpt lat="49.86554" lon="2.20589">
        <ele>109</ele>
        <time>2022-12-09T13:40:08Z</time>
      </trkpt>
      <trkpt lat="49.86554" lon="2.20589">
        <ele>109</ele>
        <time>2022-12-09T13:40:09Z</time>
      </trkpt>
      <trkpt lat="49.86554" lon="2.20589">
        <ele>109</ele>
        <time>2022-12-09T13:40:10Z</time>
      </trkpt>
      <trkpt lat="49.86554" lon="2.20589">
        <ele>109</ele>
        <time>2022-12-09T13:40:11Z</time>
      </trkpt>
      <trkpt lat="49.86554" lon="2.20589">
        <ele>109</ele>
        <time>2022-12-09T13:40:12Z</time>
      </trkpt>
      <trkpt lat="49.86554" lon="2.20589">
        <ele>109</ele>
        <time>2022-12-09T13:40:13Z</time>
      </trkpt>
      <trkpt lat="49.86554" lon="2.20589">
        <ele>109</ele>
        <time>2022-12-09T13:40:14Z</time>
      </trkpt>
      <trkpt lat="49.86554" lon="2.20589">
        <ele>109</ele>
        <time>2022-12-09T13:40:15Z</time>
      </trkpt>
      <trkpt lat="49.86554" lon="2.20589">
        <ele>109</ele>
        <time>2022-12-09T13:40:16Z</time>
      </trkpt>
      <trkpt lat="49.86554" lon="2.20589">
        <ele>109</ele>
        <time>2022-12-09T13:40:17Z</time>
      </trkpt>
      <trkpt lat="49.86554" lon="2.20589">
        <ele>109</ele>
        <time>2022-12-09T13:40:18Z</time>
      </trkpt>
      <trkpt lat="49.86554" lon="2.20589">
        <ele>109</ele>
        <time>2022-12-09T13:40:19Z</time>
      </trkpt>
      <trkpt lat="49.86554" lon="2.20589">
        <ele>109</ele>
        <time>2022-12-09T13:40:20Z</time>
      </trkpt>
      <trkpt lat="49.86554" lon="2.20589">
        <ele>109</ele>
        <time>2022-12-09T13:40:21Z</time>
      </trkpt>
      <trkpt lat="49.86554" lon="2.20589">
        <ele>109</ele>
        <time>2022-12-09T13:40:22Z</time>
      </trkpt>
      <trkpt lat="49.86554" lon="2.20589">
        <ele>109</ele>
        <time>2022-12-09T13:40:23Z</time>
      </trkpt>
      <trkpt lat="49.86554" lon="2.20588">
        <ele>109</ele>
        <time>2022-12-09T13:40:24Z</time>
      </trkpt>
      <trkpt lat="49.86554" lon="2.20588">
        <ele>109</ele>
        <time>2022-12-09T13:40:25Z</time>
      </trkpt>
      <trkpt lat="49.86554" lon="2.20588">
        <ele>109</ele>
        <time>2022-12-09T13:40:26Z</time>
      </trkpt>
      <trkpt lat="49.86554" lon="2.20588">
        <ele>109</ele>
        <time>2022-12-09T13:40:27Z</time>
      </trkpt>
      <trkpt lat="49.86554" lon="2.20588">
        <ele>109</ele>
        <time>2022-12-09T13:40:28Z</time>
      </trkpt>
      <trkpt lat="49.86554" lon="2.20588">
        <ele>109</ele>
        <time>2022-12-09T13:40:29Z</time>
      </trkpt>
      <trkpt lat="49.86554" lon="2.20588">
        <ele>109</ele>
        <time>2022-12-09T13:40:30Z</time>
      </trkpt>
      <trkpt lat="49.86554" lon="2.20588">
        <ele>109</ele>
        <time>2022-12-09T13:40:31Z</time>
      </trkpt>
      <trkpt lat="49.86554" lon="2.20588">
        <ele>109</ele>
        <time>2022-12-09T13:40:32Z</time>
      </trkpt>
      <trkpt lat="49.86554" lon="2.20588">
        <ele>109</ele>
        <time>2022-12-09T13:40:33Z</time>
      </trkpt>
      <trkpt lat="49.86553" lon="2.20588">
        <ele>109</ele>
        <time>2022-12-09T13:40:34Z</time>
      </trkpt>
      <trkpt lat="49.86553" lon="2.20588">
        <ele>109</ele>
        <time>2022-12-09T13:40:35Z</time>
      </trkpt>
      <trkpt lat="49.86553" lon="2.20588">
        <ele>109</ele>
        <time>2022-12-09T13:40:36Z</time>
      </trkpt>
      <trkpt lat="49.86553" lon="2.20588">
        <ele>109</ele>
        <time>2022-12-09T13:40:37Z</time>
      </trkpt>
      <trkpt lat="49.86553" lon="2.20588">
        <ele>109</ele>
        <time>2022-12-09T13:40:38Z</time>
      </trkpt>
      <trkpt lat="49.86553" lon="2.20588">
        <ele>109</ele>
        <time>2022-12-09T13:40:39Z</time>
      </trkpt>
      <trkpt lat="49.86553" lon="2.20588">
        <ele>109</ele>
        <time>2022-12-09T13:40:40Z</time>
      </trkpt>
      <trkpt lat="49.86553" lon="2.20588">
        <ele>109</ele>
        <time>2022-12-09T13:40:41Z</time>
      </trkpt>
      <trkpt lat="49.86553" lon="2.20588">
        <ele>109</ele>
        <time>2022-12-09T13:40:42Z</time>
      </trkpt>
      <trkpt lat="49.86553" lon="2.20588">
        <ele>109</ele>
        <time>2022-12-09T13:40:43Z</time>
      </trkpt>
      <trkpt lat="49.86553" lon="2.20588">
        <ele>109</ele>
        <time>2022-12-09T13:40:44Z</time>
      </trkpt>
      <trkpt lat="49.86553" lon="2.20588">
        <ele>109</ele>
        <time>2022-12-09T13:40:45Z</time>
      </trkpt>
      <trkpt lat="49.86553" lon="2.20588">
        <ele>109</ele>
        <time>2022-12-09T13:40:46Z</time>
      </trkpt>
      <trkpt lat="49.86553" lon="2.20588">
        <ele>109</ele>
        <time>2022-12-09T13:40:47Z</time>
      </trkpt>
      <trkpt lat="49.86553" lon="2.20588">
        <ele>109</ele>
        <time>2022-12-09T13:40:48Z</time>
      </trkpt>
      <trkpt lat="49.86553" lon="2.20588">
        <ele>109</ele>
        <time>2022-12-09T13:40:49Z</time>
      </trkpt>
      <trkpt lat="49.86553" lon="2.20588">
        <ele>109</ele>
        <time>2022-12-09T13:40:50Z</time>
      </trkpt>
      <trkpt lat="49.86553" lon="2.20588">
        <ele>109</ele>
        <time>2022-12-09T13:40:51Z</time>
      </trkpt>
      <trkpt lat="49.86553" lon="2.20588">
        <ele>109</ele>
        <time>2022-12-09T13:40:52Z</time>
      </trkpt>
      <trkpt lat="49.86553" lon="2.20588">
        <ele>109</ele>
        <time>2022-12-09T13:40:53Z</time>
      </trkpt>
      <trkpt lat="49.86553" lon="2.20588">
        <ele>109</ele>
        <time>2022-12-09T13:40:54Z</time>
      </trkpt>
      <trkpt lat="49.86553" lon="2.20588">
        <ele>109</ele>
        <time>2022-12-09T13:40:55Z</time>
      </trkpt>
      <trkpt lat="49.86553" lon="2.20588">
        <ele>109</ele>
        <time>2022-12-09T13:40:56Z</time>
      </trkpt>
      <trkpt lat="49.86553" lon="2.20588">
        <ele>109</ele>
        <time>2022-12-09T13:40:57Z</time>
      </trkpt>
      <trkpt lat="49.86553" lon="2.20588">
        <ele>109</ele>
        <time>2022-12-09T13:40:58Z</time>
      </trkpt>
      <trkpt lat="49.86553" lon="2.20588">
        <ele>109</ele>
        <time>2022-12-09T13:40:59Z</time>
      </trkpt>
      <trkpt lat="49.86553" lon="2.20588">
        <ele>109</ele>
        <time>2022-12-09T13:41:00Z</time>
      </trkpt>
      <trkpt lat="49.86553" lon="2.20588">
        <ele>109</ele>
        <time>2022-12-09T13:41:01Z</time>
      </trkpt>
      <trkpt lat="49.86553" lon="2.20588">
        <ele>109</ele>
        <time>2022-12-09T13:41:02Z</time>
      </trkpt>
      <trkpt lat="49.86553" lon="2.20588">
        <ele>109</ele>
        <time>2022-12-09T13:41:03Z</time>
      </trkpt>
      <trkpt lat="49.86553" lon="2.20588">
        <ele>109</ele>
        <time>2022-12-09T13:41:04Z</time>
      </trkpt>
      <trkpt lat="49.86553" lon="2.20588">
        <ele>109</ele>
        <time>2022-12-09T13:41:05Z</time>
      </trkpt>
      <trkpt lat="49.86553" lon="2.20588">
        <ele>109</ele>
        <time>2022-12-09T13:41:06Z</time>
      </trkpt>
      <trkpt lat="49.86553" lon="2.20588">
        <ele>109</ele>
        <time>2022-12-09T13:41:07Z</time>
      </trkpt>
      <trkpt lat="49.86553" lon="2.20588">
        <ele>109</ele>
        <time>2022-12-09T13:41:08Z</time>
      </trkpt>
      <trkpt lat="49.86553" lon="2.20588">
        <ele>109</ele>
        <time>2022-12-09T13:41:09Z</time>
      </trkpt>
      <trkpt lat="49.86553" lon="2.20588">
        <ele>109</ele>
        <time>2022-12-09T13:41:10Z</time>
      </trkpt>
      <trkpt lat="49.86553" lon="2.20588">
        <ele>109</ele>
        <time>2022-12-09T13:41:11Z</time>
      </trkpt>
      <trkpt lat="49.86553" lon="2.20588">
        <ele>109</ele>
        <time>2022-12-09T13:41:12Z</time>
      </trkpt>
      <trkpt lat="49.86553" lon="2.20588">
        <ele>109</ele>
        <time>2022-12-09T13:41:13Z</time>
      </trkpt>
      <trkpt lat="49.86553" lon="2.20588">
        <ele>109</ele>
        <time>2022-12-09T13:41:14Z</time>
      </trkpt>
      <trkpt lat="49.86553" lon="2.20588">
        <ele>109</ele>
        <time>2022-12-09T13:41:15Z</time>
      </trkpt>
      <trkpt lat="49.86553" lon="2.20588">
        <ele>109</ele>
        <time>2022-12-09T13:41:16Z</time>
      </trkpt>
      <trkpt lat="49.86553" lon="2.20588">
        <ele>109</ele>
        <time>2022-12-09T13:41:17Z</time>
      </trkpt>
      <trkpt lat="49.86553" lon="2.20588">
        <ele>109</ele>
        <time>2022-12-09T13:41:18Z</time>
      </trkpt>
      <trkpt lat="49.86553" lon="2.20588">
        <ele>109</ele>
        <time>2022-12-09T13:41:19Z</time>
      </trkpt>
      <trkpt lat="49.86553" lon="2.20588">
        <ele>109</ele>
        <time>2022-12-09T13:41:20Z</time>
      </trkpt>
      <trkpt lat="49.86553" lon="2.20588">
        <ele>109</ele>
        <time>2022-12-09T13:41:21Z</time>
      </trkpt>
      <trkpt lat="49.86553" lon="2.20588">
        <ele>109</ele>
        <time>2022-12-09T13:41:22Z</time>
      </trkpt>
      <trkpt lat="49.86553" lon="2.20588">
        <ele>109</ele>
        <time>2022-12-09T13:41:23Z</time>
      </trkpt>
      <trkpt lat="49.86553" lon="2.20588">
        <ele>109</ele>
        <time>2022-12-09T13:41:24Z</time>
      </trkpt>
      <trkpt lat="49.86553" lon="2.20588">
        <ele>109</ele>
        <time>2022-12-09T13:41:25Z</time>
      </trkpt>
      <trkpt lat="49.86553" lon="2.20588">
        <ele>109</ele>
        <time>2022-12-09T13:41:26Z</time>
      </trkpt>
      <trkpt lat="49.86553" lon="2.20588">
        <ele>109</ele>
        <time>2022-12-09T13:41:27Z</time>
      </trkpt>
      <trkpt lat="49.86553" lon="2.20587">
        <ele>109</ele>
        <time>2022-12-09T13:41:28Z</time>
      </trkpt>
      <trkpt lat="49.86553" lon="2.20587">
        <ele>109</ele>
        <time>2022-12-09T13:41:29Z</time>
      </trkpt>
      <trkpt lat="49.86553" lon="2.20587">
        <ele>109</ele>
        <time>2022-12-09T13:41:30Z</time>
      </trkpt>
      <trkpt lat="49.86553" lon="2.20587">
        <ele>109</ele>
        <time>2022-12-09T13:41:31Z</time>
      </trkpt>
      <trkpt lat="49.86553" lon="2.20587">
        <ele>109</ele>
        <time>2022-12-09T13:41:32Z</time>
      </trkpt>
      <trkpt lat="49.86553" lon="2.20587">
        <ele>109</ele>
        <time>2022-12-09T13:41:33Z</time>
      </trkpt>
      <trkpt lat="49.86553" lon="2.20587">
        <ele>109</ele>
        <time>2022-12-09T13:41:34Z</time>
      </trkpt>
      <trkpt lat="49.86553" lon="2.20587">
        <ele>109</ele>
        <time>2022-12-09T13:41:35Z</time>
      </trkpt>
      <trkpt lat="49.86553" lon="2.20587">
        <ele>109</ele>
        <time>2022-12-09T13:41:36Z</time>
      </trkpt>
      <trkpt lat="49.86553" lon="2.20587">
        <ele>109</ele>
        <time>2022-12-09T13:41:37Z</time>
      </trkpt>
      <trkpt lat="49.86552" lon="2.20587">
        <ele>109</ele>
        <time>2022-12-09T13:41:38Z</time>
      </trkpt>
      <trkpt lat="49.86552" lon="2.20587">
        <ele>109</ele>
        <time>2022-12-09T13:41:39Z</time>
      </trkpt>
      <trkpt lat="49.86552" lon="2.20587">
        <ele>109</ele>
        <time>2022-12-09T13:41:40Z</time>
      </trkpt>
      <trkpt lat="49.86552" lon="2.20587">
        <ele>109</ele>
        <time>2022-12-09T13:41:41Z</time>
      </trkpt>
      <trkpt lat="49.86552" lon="2.20587">
        <ele>109</ele>
        <time>2022-12-09T13:41:42Z</time>
      </trkpt>
      <trkpt lat="49.86552" lon="2.20587">
        <ele>109</ele>
        <time>2022-12-09T13:41:43Z</time>
      </trkpt>
      <trkpt lat="49.86552" lon="2.20587">
        <ele>109</ele>
        <time>2022-12-09T13:41:44Z</time>
      </trkpt>
      <trkpt lat="49.86552" lon="2.20587">
        <ele>109</ele>
        <time>2022-12-09T13:41:45Z</time>
      </trkpt>
      <trkpt lat="49.86552" lon="2.20587">
        <ele>109</ele>
        <time>2022-12-09T13:41:46Z</time>
      </trkpt>
      <trkpt lat="49.86552" lon="2.20587">
        <ele>109</ele>
        <time>2022-12-09T13:41:47Z</time>
      </trkpt>
      <trkpt lat="49.86552" lon="2.20587">
        <ele>109</ele>
        <time>2022-12-09T13:41:48Z</time>
      </trkpt>
      <trkpt lat="49.86552" lon="2.20587">
        <ele>109</ele>
        <time>2022-12-09T13:41:49Z</time>
      </trkpt>
      <trkpt lat="49.86552" lon="2.20587">
        <ele>109</ele>
        <time>2022-12-09T13:41:50Z</time>
      </trkpt>
      <trkpt lat="49.86552" lon="2.20587">
        <ele>109</ele>
        <time>2022-12-09T13:41:51Z</time>
      </trkpt>
      <trkpt lat="49.86552" lon="2.20587">
        <ele>109</ele>
        <time>2022-12-09T13:41:52Z</time>
      </trkpt>
      <trkpt lat="49.86552" lon="2.20587">
        <ele>109</ele>
        <time>2022-12-09T13:41:54Z</time>
      </trkpt>
      <trkpt lat="49.86552" lon="2.20587">
        <ele>109</ele>
        <time>2022-12-09T13:41:55Z</time>
      </trkpt>
      <trkpt lat="49.86552" lon="2.20587">
        <ele>109</ele>
        <time>2022-12-09T13:41:56Z</time>
      </trkpt>
      <trkpt lat="49.86552" lon="2.20587">
        <ele>109</ele>
        <time>2022-12-09T13:41:57Z</time>
      </trkpt>
      <trkpt lat="49.86552" lon="2.20585">
        <ele>109.1</ele>
        <time>2022-12-09T13:41:58Z</time>
      </trkpt>
      <trkpt lat="49.86551" lon="2.20582">
        <ele>109.1</ele>
        <time>2022-12-09T13:42:00Z</time>
      </trkpt>
      <trkpt lat="49.8655" lon="2.2058">
        <ele>109.1</ele>
        <time>2022-12-09T13:42:01Z</time>
      </trkpt>
      <trkpt lat="49.8655" lon="2.20579">
        <ele>109.2</ele>
        <time>2022-12-09T13:42:02Z</time>
      </trkpt>
      <trkpt lat="49.86549" lon="2.20577">
        <ele>109.2</ele>
        <time>2022-12-09T13:42:03Z</time>
      </trkpt>
      <trkpt lat="49.86548" lon="2.20575">
        <ele>109.2</ele>
        <time>2022-12-09T13:42:04Z</time>
      </trkpt>
      <trkpt lat="49.86548" lon="2.20573">
        <ele>109.3</ele>
        <time>2022-12-09T13:42:05Z</time>
      </trkpt>
      <trkpt lat="49.86547" lon="2.20571">
        <ele>109.3</ele>
        <time>2022-12-09T13:42:06Z</time>
      </trkpt>
      <trkpt lat="49.86546" lon="2.20568">
        <ele>109.4</ele>
        <time>2022-12-09T13:42:08Z</time>
      </trkpt>
      <trkpt lat="49.86546" lon="2.20567">
        <ele>109.4</ele>
        <time>2022-12-09T13:42:09Z</time>
      </trkpt>
      <trkpt lat="49.86546" lon="2.20566">
        <ele>109.4</ele>
        <time>2022-12-09T13:42:10Z</time>
      </trkpt>
      <trkpt lat="49.86545" lon="2.20564">
        <ele>109.4</ele>
        <time>2022-12-09T13:42:11Z</time>
      </trkpt>
      <trkpt lat="49.86545" lon="2.20562">
        <ele>109.5</ele>
        <time>2022-12-09T13:42:12Z</time>
      </trkpt>
      <trkpt lat="49.86544" lon="2.2056">
        <ele>109.5</ele>
        <time>2022-12-09T13:42:13Z</time>
      </trkpt>
      <trkpt lat="49.86544" lon="2.20559">
        <ele>109.5</ele>
        <time>2022-12-09T13:42:14Z</time>
      </trkpt>
      <trkpt lat="49.86544" lon="2.20557">
        <ele>109.5</ele>
        <time>2022-12-09T13:42:15Z</time>
      </trkpt>
      <trkpt lat="49.86544" lon="2.20555">
        <ele>109.6</ele>
        <time>2022-12-09T13:42:16Z</time>
      </trkpt>
      <trkpt lat="49.86544" lon="2.20554">
        <ele>109.6</ele>
        <time>2022-12-09T13:42:17Z</time>
      </trkpt>
      <trkpt lat="49.86543" lon="2.20553">
        <ele>109.6</ele>
        <time>2022-12-09T13:42:19Z</time>
      </trkpt>
      <trkpt lat="49.86542" lon="2.20553">
        <ele>109.6</ele>
        <time>2022-12-09T13:42:20Z</time>
      </trkpt>
      <trkpt lat="49.86542" lon="2.20551">
        <ele>109.6</ele>
        <time>2022-12-09T13:42:21Z</time>
      </trkpt>
      <trkpt lat="49.86542" lon="2.20549">
        <ele>109.7</ele>
        <time>2022-12-09T13:42:22Z</time>
      </trkpt>
      <trkpt lat="49.86542" lon="2.20547">
        <ele>109.7</ele>
        <time>2022-12-09T13:42:23Z</time>
      </trkpt>
      <trkpt lat="49.86542" lon="2.20545">
        <ele>109.7</ele>
        <time>2022-12-09T13:42:24Z</time>
      </trkpt>
      <trkpt lat="49.86542" lon="2.20542">
        <ele>109.7</ele>
        <time>2022-12-09T13:42:25Z</time>
      </trkpt>
      <trkpt lat="49.86542" lon="2.2054">
        <ele>109.8</ele>
        <time>2022-12-09T13:42:26Z</time>
      </trkpt>
      <trkpt lat="49.86542" lon="2.20539">
        <ele>109.8</ele>
        <time>2022-12-09T13:42:27Z</time>
      </trkpt>
      <trkpt lat="49.86542" lon="2.20537">
        <ele>109.8</ele>
        <time>2022-12-09T13:42:28Z</time>
      </trkpt>
      <trkpt lat="49.86542" lon="2.20535">
        <ele>109.8</ele>
        <time>2022-12-09T13:42:30Z</time>
      </trkpt>
      <trkpt lat="49.86542" lon="2.20534">
        <ele>109.8</ele>
        <time>2022-12-09T13:42:31Z</time>
      </trkpt>
      <trkpt lat="49.86541" lon="2.20534">
        <ele>109.8</ele>
        <time>2022-12-09T13:42:32Z</time>
      </trkpt>
      <trkpt lat="49.86541" lon="2.20533">
        <ele>109.8</ele>
        <time>2022-12-09T13:42:33Z</time>
      </trkpt>
      <trkpt lat="49.86541" lon="2.20531">
        <ele>109.9</ele>
        <time>2022-12-09T13:42:34Z</time>
      </trkpt>
      <trkpt lat="49.86542" lon="2.20529">
        <ele>109.9</ele>
        <time>2022-12-09T13:42:36Z</time>
      </trkpt>
      <trkpt lat="49.86542" lon="2.20527">
        <ele>109.9</ele>
        <time>2022-12-09T13:42:37Z</time>
      </trkpt>
      <trkpt lat="49.86542" lon="2.20527">
        <ele>109.9</ele>
        <time>2022-12-09T13:42:38Z</time>
      </trkpt>
      <trkpt lat="49.86541" lon="2.20527">
        <ele>109.9</ele>
        <time>2022-12-09T13:42:40Z</time>
      </trkpt>
      <trkpt lat="49.86541" lon="2.20527">
        <ele>109.9</ele>
        <time>2022-12-09T13:42:41Z</time>
      </trkpt>
      <trkpt lat="49.86541" lon="2.20527">
        <ele>109.9</ele>
        <time>2022-12-09T13:42:43Z</time>
      </trkpt>
      <trkpt lat="49.86541" lon="2.20527">
        <ele>109.9</ele>
        <time>2022-12-09T13:42:44Z</time>
      </trkpt>
      <trkpt lat="49.86541" lon="2.20527">
        <ele>109.9</ele>
        <time>2022-12-09T13:42:45Z</time>
      </trkpt>
      <trkpt lat="49.86541" lon="2.20526">
        <ele>109.9</ele>
        <time>2022-12-09T13:42:47Z</time>
      </trkpt>
      <trkpt lat="49.86541" lon="2.20526">
        <ele>109.9</ele>
        <time>2022-12-09T13:42:48Z</time>
      </trkpt>
      <trkpt lat="49.8654" lon="2.20524">
        <ele>110</ele>
        <time>2022-12-09T13:42:49Z</time>
      </trkpt>
      <trkpt lat="49.8654" lon="2.20522">
        <ele>110</ele>
        <time>2022-12-09T13:42:50Z</time>
      </trkpt>
      <trkpt lat="49.86539" lon="2.2052">
        <ele>110</ele>
        <time>2022-12-09T13:42:51Z</time>
      </trkpt>
      <trkpt lat="49.86539" lon="2.20518">
        <ele>110</ele>
        <time>2022-12-09T13:42:52Z</time>
      </trkpt>
      <trkpt lat="49.86538" lon="2.20516">
        <ele>110</ele>
        <time>2022-12-09T13:42:53Z</time>
      </trkpt>
      <trkpt lat="49.86538" lon="2.20514">
        <ele>110.1</ele>
        <time>2022-12-09T13:42:54Z</time>
      </trkpt>
      <trkpt lat="49.86538" lon="2.20512">
        <ele>110.1</ele>
        <time>2022-12-09T13:42:56Z</time>
      </trkpt>
      <trkpt lat="49.86538" lon="2.2051">
        <ele>110.1</ele>
        <time>2022-12-09T13:42:57Z</time>
      </trkpt>
      <trkpt lat="49.86537" lon="2.20507">
        <ele>110.1</ele>
        <time>2022-12-09T13:42:58Z</time>
      </trkpt>
      <trkpt lat="49.86537" lon="2.20505">
        <ele>110.1</ele>
        <time>2022-12-09T13:42:59Z</time>
      </trkpt>
      <trkpt lat="49.86537" lon="2.20503">
        <ele>110.1</ele>
        <time>2022-12-09T13:43:00Z</time>
      </trkpt>
      <trkpt lat="49.86537" lon="2.20499">
        <ele>110.1</ele>
        <time>2022-12-09T13:43:01Z</time>
      </trkpt>
      <trkpt lat="49.86537" lon="2.20498">
        <ele>110.2</ele>
        <time>2022-12-09T13:43:02Z</time>
      </trkpt>
      <trkpt lat="49.86537" lon="2.20497">
        <ele>110.2</ele>
        <time>2022-12-09T13:43:03Z</time>
      </trkpt>
      <trkpt lat="49.86537" lon="2.20493">
        <ele>110.2</ele>
        <time>2022-12-09T13:43:05Z</time>
      </trkpt>
      <trkpt lat="49.86537" lon="2.20492">
        <ele>110.2</ele>
        <time>2022-12-09T13:43:06Z</time>
      </trkpt>
      <trkpt lat="49.86537" lon="2.20491">
        <ele>110.2</ele>
        <time>2022-12-09T13:43:07Z</time>
      </trkpt>
      <trkpt lat="49.86537" lon="2.20489">
        <ele>110.2</ele>
        <time>2022-12-09T13:43:08Z</time>
      </trkpt>
      <trkpt lat="49.86537" lon="2.20487">
        <ele>110.2</ele>
        <time>2022-12-09T13:43:09Z</time>
      </trkpt>
      <trkpt lat="49.86536" lon="2.20486">
        <ele>110.2</ele>
        <time>2022-12-09T13:43:10Z</time>
      </trkpt>
      <trkpt lat="49.86536" lon="2.20484">
        <ele>110.2</ele>
        <time>2022-12-09T13:43:11Z</time>
      </trkpt>
      <trkpt lat="49.86535" lon="2.20482">
        <ele>110.2</ele>
        <time>2022-12-09T13:43:12Z</time>
      </trkpt>
      <trkpt lat="49.86535" lon="2.20481">
        <ele>110.2</ele>
        <time>2022-12-09T13:43:14Z</time>
      </trkpt>
      <trkpt lat="49.86534" lon="2.20479">
        <ele>110.3</ele>
        <time>2022-12-09T13:43:15Z</time>
      </trkpt>
      <trkpt lat="49.86533" lon="2.20477">
        <ele>110.3</ele>
        <time>2022-12-09T13:43:16Z</time>
      </trkpt>
      <trkpt lat="49.86533" lon="2.20475">
        <ele>110.3</ele>
        <time>2022-12-09T13:43:17Z</time>
      </trkpt>
      <trkpt lat="49.86532" lon="2.20474">
        <ele>110.3</ele>
        <time>2022-12-09T13:43:18Z</time>
      </trkpt>
      <trkpt lat="49.86531" lon="2.20473">
        <ele>110.3</ele>
        <time>2022-12-09T13:43:19Z</time>
      </trkpt>
      <trkpt lat="49.8653" lon="2.20469">
        <ele>110.3</ele>
        <time>2022-12-09T13:43:20Z</time>
      </trkpt>
      <trkpt lat="49.8653" lon="2.20468">
        <ele>110.3</ele>
        <time>2022-12-09T13:43:22Z</time>
      </trkpt>
      <trkpt lat="49.8653" lon="2.20467">
        <ele>110.3</ele>
        <time>2022-12-09T13:43:23Z</time>
      </trkpt>
      <trkpt lat="49.86529" lon="2.20464">
        <ele>110.3</ele>
        <time>2022-12-09T13:43:24Z</time>
      </trkpt>
      <trkpt lat="49.86529" lon="2.20462">
        <ele>110.3</ele>
        <time>2022-12-09T13:43:25Z</time>
      </trkpt>
      <trkpt lat="49.86528" lon="2.20461">
        <ele>110.3</ele>
        <time>2022-12-09T13:43:26Z</time>
      </trkpt>
      <trkpt lat="49.86527" lon="2.20458">
        <ele>110.4</ele>
        <time>2022-12-09T13:43:27Z</time>
      </trkpt>
      <trkpt lat="49.86527" lon="2.20457">
        <ele>110.4</ele>
        <time>2022-12-09T13:43:28Z</time>
      </trkpt>
      <trkpt lat="49.86526" lon="2.20455">
        <ele>110.4</ele>
        <time>2022-12-09T13:43:29Z</time>
      </trkpt>
      <trkpt lat="49.86526" lon="2.20454">
        <ele>110.4</ele>
        <time>2022-12-09T13:43:31Z</time>
      </trkpt>
      <trkpt lat="49.86525" lon="2.20452">
        <ele>110.4</ele>
        <time>2022-12-09T13:43:32Z</time>
      </trkpt>
      <trkpt lat="49.86525" lon="2.2045">
        <ele>110.4</ele>
        <time>2022-12-09T13:43:33Z</time>
      </trkpt>
      <trkpt lat="49.86524" lon="2.20448">
        <ele>110.4</ele>
        <time>2022-12-09T13:43:34Z</time>
      </trkpt>
      <trkpt lat="49.86524" lon="2.20447">
        <ele>110.4</ele>
        <time>2022-12-09T13:43:35Z</time>
      </trkpt>
      <trkpt lat="49.86524" lon="2.20445">
        <ele>110.4</ele>
        <time>2022-12-09T13:43:36Z</time>
      </trkpt>
      <trkpt lat="49.86523" lon="2.20443">
        <ele>110.4</ele>
        <time>2022-12-09T13:43:37Z</time>
      </trkpt>
      <trkpt lat="49.86523" lon="2.20442">
        <ele>110.4</ele>
        <time>2022-12-09T13:43:38Z</time>
      </trkpt>
      <trkpt lat="49.86523" lon="2.2044">
        <ele>110.4</ele>
        <time>2022-12-09T13:43:39Z</time>
      </trkpt>
      <trkpt lat="49.86523" lon="2.20438">
        <ele>110.4</ele>
        <time>2022-12-09T13:43:41Z</time>
      </trkpt>
      <trkpt lat="49.86523" lon="2.20437">
        <ele>110.4</ele>
        <time>2022-12-09T13:43:42Z</time>
      </trkpt>
      <trkpt lat="49.86522" lon="2.20436">
        <ele>110.5</ele>
        <time>2022-12-09T13:43:43Z</time>
      </trkpt>
      <trkpt lat="49.86522" lon="2.20434">
        <ele>110.5</ele>
        <time>2022-12-09T13:43:44Z</time>
      </trkpt>
      <trkpt lat="49.86522" lon="2.20433">
        <ele>110.5</ele>
        <time>2022-12-09T13:43:45Z</time>
      </trkpt>
      <trkpt lat="49.86521" lon="2.20432">
        <ele>110.5</ele>
        <time>2022-12-09T13:43:46Z</time>
      </trkpt>
      <trkpt lat="49.86521" lon="2.20431">
        <ele>110.5</ele>
        <time>2022-12-09T13:43:47Z</time>
      </trkpt>
      <trkpt lat="49.8652" lon="2.2043">
        <ele>110.5</ele>
        <time>2022-12-09T13:43:48Z</time>
      </trkpt>
      <trkpt lat="49.8652" lon="2.20428">
        <ele>110.5</ele>
        <time>2022-12-09T13:43:50Z</time>
      </trkpt>
      <trkpt lat="49.86519" lon="2.20427">
        <ele>110.5</ele>
        <time>2022-12-09T13:43:51Z</time>
      </trkpt>
      <trkpt lat="49.86518" lon="2.20426">
        <ele>110.5</ele>
        <time>2022-12-09T13:43:52Z</time>
      </trkpt>
      <trkpt lat="49.86518" lon="2.20424">
        <ele>110.5</ele>
        <time>2022-12-09T13:43:53Z</time>
      </trkpt>
      <trkpt lat="49.86518" lon="2.20423">
        <ele>110.5</ele>
        <time>2022-12-09T13:43:54Z</time>
      </trkpt>
      <trkpt lat="49.86517" lon="2.20422">
        <ele>110.5</ele>
        <time>2022-12-09T13:43:55Z</time>
      </trkpt>
      <trkpt lat="49.86517" lon="2.2042">
        <ele>110.5</ele>
        <time>2022-12-09T13:43:56Z</time>
      </trkpt>
      <trkpt lat="49.86516" lon="2.20419">
        <ele>110.5</ele>
        <time>2022-12-09T13:43:57Z</time>
      </trkpt>
      <trkpt lat="49.86516" lon="2.20417">
        <ele>110.5</ele>
        <time>2022-12-09T13:43:59Z</time>
      </trkpt>
      <trkpt lat="49.86516" lon="2.20416">
        <ele>110.5</ele>
        <time>2022-12-09T13:44:00Z</time>
      </trkpt>
      <trkpt lat="49.86516" lon="2.20414">
        <ele>110.5</ele>
        <time>2022-12-09T13:44:01Z</time>
      </trkpt>
      <trkpt lat="49.86516" lon="2.20412">
        <ele>110.5</ele>
        <time>2022-12-09T13:44:02Z</time>
      </trkpt>
      <trkpt lat="49.86516" lon="2.2041">
        <ele>110.5</ele>
        <time>2022-12-09T13:44:03Z</time>
      </trkpt>
      <trkpt lat="49.86515" lon="2.20407">
        <ele>110.6</ele>
        <time>2022-12-09T13:44:04Z</time>
      </trkpt>
      <trkpt lat="49.86515" lon="2.20406">
        <ele>110.6</ele>
        <time>2022-12-09T13:44:05Z</time>
      </trkpt>
      <trkpt lat="49.86515" lon="2.20405">
        <ele>110.6</ele>
        <time>2022-12-09T13:44:06Z</time>
      </trkpt>
      <trkpt lat="49.86514" lon="2.20402">
        <ele>110.6</ele>
        <time>2022-12-09T13:44:07Z</time>
      </trkpt>
      <trkpt lat="49.86514" lon="2.20401">
        <ele>110.6</ele>
        <time>2022-12-09T13:44:09Z</time>
      </trkpt>
      <trkpt lat="49.86513" lon="2.204">
        <ele>110.6</ele>
        <time>2022-12-09T13:44:10Z</time>
      </trkpt>
      <trkpt lat="49.86513" lon="2.20398">
        <ele>110.6</ele>
        <time>2022-12-09T13:44:11Z</time>
      </trkpt>
      <trkpt lat="49.86512" lon="2.20397">
        <ele>110.6</ele>
        <time>2022-12-09T13:44:12Z</time>
      </trkpt>
      <trkpt lat="49.86512" lon="2.20395">
        <ele>110.6</ele>
        <time>2022-12-09T13:44:13Z</time>
      </trkpt>
      <trkpt lat="49.86512" lon="2.20393">
        <ele>110.6</ele>
        <time>2022-12-09T13:44:14Z</time>
      </trkpt>
      <trkpt lat="49.86511" lon="2.20391">
        <ele>110.6</ele>
        <time>2022-12-09T13:44:15Z</time>
      </trkpt>
      <trkpt lat="49.86511" lon="2.2039">
        <ele>110.6</ele>
        <time>2022-12-09T13:44:16Z</time>
      </trkpt>
      <trkpt lat="49.8651" lon="2.20387">
        <ele>110.6</ele>
        <time>2022-12-09T13:44:17Z</time>
      </trkpt>
      <trkpt lat="49.8651" lon="2.20386">
        <ele>110.6</ele>
        <time>2022-12-09T13:44:18Z</time>
      </trkpt>
      <trkpt lat="49.86509" lon="2.20385">
        <ele>110.6</ele>
        <time>2022-12-09T13:44:19Z</time>
      </trkpt>
      <trkpt lat="49.86508" lon="2.20382">
        <ele>110.5</ele>
        <time>2022-12-09T13:44:20Z</time>
      </trkpt>
      <trkpt lat="49.86508" lon="2.2038">
        <ele>110.5</ele>
        <time>2022-12-09T13:44:22Z</time>
      </trkpt>
      <trkpt lat="49.86507" lon="2.20379">
        <ele>110.5</ele>
        <time>2022-12-09T13:44:23Z</time>
      </trkpt>
      <trkpt lat="49.86507" lon="2.20378">
        <ele>110.5</ele>
        <time>2022-12-09T13:44:24Z</time>
      </trkpt>
      <trkpt lat="49.86506" lon="2.20377">
        <ele>110.5</ele>
        <time>2022-12-09T13:44:25Z</time>
      </trkpt>
      <trkpt lat="49.86505" lon="2.20375">
        <ele>110.5</ele>
        <time>2022-12-09T13:44:26Z</time>
      </trkpt>
      <trkpt lat="49.86504" lon="2.20374">
        <ele>110.5</ele>
        <time>2022-12-09T13:44:27Z</time>
      </trkpt>
      <trkpt lat="49.86503" lon="2.20373">
        <ele>110.5</ele>
        <time>2022-12-09T13:44:28Z</time>
      </trkpt>
      <trkpt lat="49.86502" lon="2.20372">
        <ele>110.5</ele>
        <time>2022-12-09T13:44:30Z</time>
      </trkpt>
      <trkpt lat="49.865" lon="2.20371">
        <ele>110.5</ele>
        <time>2022-12-09T13:44:31Z</time>
      </trkpt>
      <trkpt lat="49.865" lon="2.2037">
        <ele>110.5</ele>
        <time>2022-12-09T13:44:32Z</time>
      </trkpt>
      <trkpt lat="49.86499" lon="2.20369">
        <ele>110.5</ele>
        <time>2022-12-09T13:44:33Z</time>
      </trkpt>
      <trkpt lat="49.86498" lon="2.20368">
        <ele>110.5</ele>
        <time>2022-12-09T13:44:34Z</time>
      </trkpt>
      <trkpt lat="49.86497" lon="2.20366">
        <ele>110.5</ele>
        <time>2022-12-09T13:44:35Z</time>
      </trkpt>
      <trkpt lat="49.86497" lon="2.20365">
        <ele>110.5</ele>
        <time>2022-12-09T13:44:36Z</time>
      </trkpt>
      <trkpt lat="49.86496" lon="2.20363">
        <ele>110.5</ele>
        <time>2022-12-09T13:44:37Z</time>
      </trkpt>
      <trkpt lat="49.86495" lon="2.20362">
        <ele>110.5</ele>
        <time>2022-12-09T13:44:38Z</time>
      </trkpt>
      <trkpt lat="49.86495" lon="2.20361">
        <ele>110.5</ele>
        <time>2022-12-09T13:44:39Z</time>
      </trkpt>
      <trkpt lat="49.86493" lon="2.20358">
        <ele>110.5</ele>
        <time>2022-12-09T13:44:41Z</time>
      </trkpt>
      <trkpt lat="49.86493" lon="2.20357">
        <ele>110.5</ele>
        <time>2022-12-09T13:44:42Z</time>
      </trkpt>
      <trkpt lat="49.86492" lon="2.20356">
        <ele>110.5</ele>
        <time>2022-12-09T13:44:43Z</time>
      </trkpt>
      <trkpt lat="49.86491" lon="2.20354">
        <ele>110.5</ele>
        <time>2022-12-09T13:44:44Z</time>
      </trkpt>
      <trkpt lat="49.86491" lon="2.20352">
        <ele>110.5</ele>
        <time>2022-12-09T13:44:45Z</time>
      </trkpt>
      <trkpt lat="49.8649" lon="2.2035">
        <ele>110.5</ele>
        <time>2022-12-09T13:44:46Z</time>
      </trkpt>
      <trkpt lat="49.86489" lon="2.20349">
        <ele>110.5</ele>
        <time>2022-12-09T13:44:47Z</time>
      </trkpt>
      <trkpt lat="49.86488" lon="2.20347">
        <ele>110.5</ele>
        <time>2022-12-09T13:44:49Z</time>
      </trkpt>
      <trkpt lat="49.86487" lon="2.20345">
        <ele>110.5</ele>
        <time>2022-12-09T13:44:50Z</time>
      </trkpt>
      <trkpt lat="49.86487" lon="2.20344">
        <ele>110.5</ele>
        <time>2022-12-09T13:44:51Z</time>
      </trkpt>
      <trkpt lat="49.86486" lon="2.20342">
        <ele>110.5</ele>
        <time>2022-12-09T13:44:52Z</time>
      </trkpt>
      <trkpt lat="49.86485" lon="2.2034">
        <ele>110.5</ele>
        <time>2022-12-09T13:44:53Z</time>
      </trkpt>
      <trkpt lat="49.86485" lon="2.20339">
        <ele>110.5</ele>
        <time>2022-12-09T13:44:55Z</time>
      </trkpt>
      <trkpt lat="49.86484" lon="2.20337">
        <ele>110.5</ele>
        <time>2022-12-09T13:44:56Z</time>
      </trkpt>
      <trkpt lat="49.86483" lon="2.20336">
        <ele>110.5</ele>
        <time>2022-12-09T13:44:57Z</time>
      </trkpt>
      <trkpt lat="49.86482" lon="2.20334">
        <ele>110.5</ele>
        <time>2022-12-09T13:44:58Z</time>
      </trkpt>
      <trkpt lat="49.86481" lon="2.20333">
        <ele>110.5</ele>
        <time>2022-12-09T13:44:59Z</time>
      </trkpt>
      <trkpt lat="49.86481" lon="2.20332">
        <ele>110.5</ele>
        <time>2022-12-09T13:45:00Z</time>
      </trkpt>
      <trkpt lat="49.8648" lon="2.2033">
        <ele>110.5</ele>
        <time>2022-12-09T13:45:02Z</time>
      </trkpt>
      <trkpt lat="49.86479" lon="2.20329">
        <ele>110.5</ele>
        <time>2022-12-09T13:45:03Z</time>
      </trkpt>
      <trkpt lat="49.86478" lon="2.20328">
        <ele>110.6</ele>
        <time>2022-12-09T13:45:04Z</time>
      </trkpt>
      <trkpt lat="49.86478" lon="2.20326">
        <ele>110.6</ele>
        <time>2022-12-09T13:45:05Z</time>
      </trkpt>
      <trkpt lat="49.86477" lon="2.20325">
        <ele>110.6</ele>
        <time>2022-12-09T13:45:06Z</time>
      </trkpt>
      <trkpt lat="49.86476" lon="2.20324">
        <ele>110.6</ele>
        <time>2022-12-09T13:45:07Z</time>
      </trkpt>
      <trkpt lat="49.86476" lon="2.20322">
        <ele>110.6</ele>
        <time>2022-12-09T13:45:08Z</time>
      </trkpt>
      <trkpt lat="49.86475" lon="2.20321">
        <ele>110.6</ele>
        <time>2022-12-09T13:45:09Z</time>
      </trkpt>
      <trkpt lat="49.86474" lon="2.20319">
        <ele>110.6</ele>
        <time>2022-12-09T13:45:11Z</time>
      </trkpt>
      <trkpt lat="49.86473" lon="2.20318">
        <ele>110.6</ele>
        <time>2022-12-09T13:45:12Z</time>
      </trkpt>
      <trkpt lat="49.86472" lon="2.20316">
        <ele>110.6</ele>
        <time>2022-12-09T13:45:13Z</time>
      </trkpt>
      <trkpt lat="49.86472" lon="2.20315">
        <ele>110.6</ele>
        <time>2022-12-09T13:45:14Z</time>
      </trkpt>
      <trkpt lat="49.86471" lon="2.20313">
        <ele>110.6</ele>
        <time>2022-12-09T13:45:15Z</time>
      </trkpt>
      <trkpt lat="49.86471" lon="2.20312">
        <ele>110.6</ele>
        <time>2022-12-09T13:45:16Z</time>
      </trkpt>
      <trkpt lat="49.8647" lon="2.2031">
        <ele>110.6</ele>
        <time>2022-12-09T13:45:17Z</time>
      </trkpt>
      <trkpt lat="49.86469" lon="2.20308">
        <ele>110.6</ele>
        <time>2022-12-09T13:45:19Z</time>
      </trkpt>
      <trkpt lat="49.86468" lon="2.20308">
        <ele>110.6</ele>
        <time>2022-12-09T13:45:20Z</time>
      </trkpt>
      <trkpt lat="49.86468" lon="2.20307">
        <ele>110.6</ele>
        <time>2022-12-09T13:45:21Z</time>
      </trkpt>
      <trkpt lat="49.86467" lon="2.20305">
        <ele>110.6</ele>
        <time>2022-12-09T13:45:22Z</time>
      </trkpt>
      <trkpt lat="49.86466" lon="2.20304">
        <ele>110.6</ele>
        <time>2022-12-09T13:45:23Z</time>
      </trkpt>
      <trkpt lat="49.86465" lon="2.20303">
        <ele>110.7</ele>
        <time>2022-12-09T13:45:24Z</time>
      </trkpt>
      <trkpt lat="49.86465" lon="2.20301">
        <ele>110.7</ele>
        <time>2022-12-09T13:45:25Z</time>
      </trkpt>
      <trkpt lat="49.86464" lon="2.203">
        <ele>110.7</ele>
        <time>2022-12-09T13:45:26Z</time>
      </trkpt>
      <trkpt lat="49.86463" lon="2.20299">
        <ele>110.7</ele>
        <time>2022-12-09T13:45:27Z</time>
      </trkpt>
      <trkpt lat="49.86463" lon="2.20297">
        <ele>110.7</ele>
        <time>2022-12-09T13:45:28Z</time>
      </trkpt>
      <trkpt lat="49.86462" lon="2.20296">
        <ele>110.7</ele>
        <time>2022-12-09T13:45:30Z</time>
      </trkpt>
      <trkpt lat="49.86461" lon="2.20295">
        <ele>110.7</ele>
        <time>2022-12-09T13:45:31Z</time>
      </trkpt>
      <trkpt lat="49.8646" lon="2.20292">
        <ele>110.7</ele>
        <time>2022-12-09T13:45:32Z</time>
      </trkpt>
      <trkpt lat="49.86459" lon="2.20291">
        <ele>110.7</ele>
        <time>2022-12-09T13:45:33Z</time>
      </trkpt>
      <trkpt lat="49.86459" lon="2.2029">
        <ele>110.7</ele>
        <time>2022-12-09T13:45:34Z</time>
      </trkpt>
      <trkpt lat="49.86458" lon="2.20289">
        <ele>110.7</ele>
        <time>2022-12-09T13:45:35Z</time>
      </trkpt>
      <trkpt lat="49.86457" lon="2.20287">
        <ele>110.7</ele>
        <time>2022-12-09T13:45:36Z</time>
      </trkpt>
      <trkpt lat="49.86456" lon="2.20286">
        <ele>110.7</ele>
        <time>2022-12-09T13:45:37Z</time>
      </trkpt>
      <trkpt lat="49.86455" lon="2.20285">
        <ele>110.7</ele>
        <time>2022-12-09T13:45:38Z</time>
      </trkpt>
      <trkpt lat="49.86455" lon="2.20284">
        <ele>110.7</ele>
        <time>2022-12-09T13:45:39Z</time>
      </trkpt>
      <trkpt lat="49.86454" lon="2.20283">
        <ele>110.7</ele>
        <time>2022-12-09T13:45:40Z</time>
      </trkpt>
      <trkpt lat="49.86453" lon="2.20281">
        <ele>110.7</ele>
        <time>2022-12-09T13:45:42Z</time>
      </trkpt>
      <trkpt lat="49.86452" lon="2.20279">
        <ele>110.7</ele>
        <time>2022-12-09T13:45:43Z</time>
      </trkpt>
      <trkpt lat="49.8645" lon="2.20277">
        <ele>110.6</ele>
        <time>2022-12-09T13:45:44Z</time>
      </trkpt>
      <trkpt lat="49.86449" lon="2.20277">
        <ele>110.6</ele>
        <time>2022-12-09T13:45:45Z</time>
      </trkpt>
      <trkpt lat="49.86448" lon="2.20276">
        <ele>110.6</ele>
        <time>2022-12-09T13:45:46Z</time>
      </trkpt>
      <trkpt lat="49.86447" lon="2.20275">
        <ele>110.6</ele>
        <time>2022-12-09T13:45:48Z</time>
      </trkpt>
      <trkpt lat="49.86446" lon="2.20274">
        <ele>110.6</ele>
        <time>2022-12-09T13:45:49Z</time>
      </trkpt>
      <trkpt lat="49.86445" lon="2.20273">
        <ele>110.6</ele>
        <time>2022-12-09T13:45:50Z</time>
      </trkpt>
      <trkpt lat="49.86444" lon="2.20273">
        <ele>110.5</ele>
        <time>2022-12-09T13:45:51Z</time>
      </trkpt>
      <trkpt lat="49.86443" lon="2.20272">
        <ele>110.5</ele>
        <time>2022-12-09T13:45:52Z</time>
      </trkpt>
      <trkpt lat="49.86442" lon="2.20272">
        <ele>110.5</ele>
        <time>2022-12-09T13:45:53Z</time>
      </trkpt>
      <trkpt lat="49.8644" lon="2.20271">
        <ele>110.4</ele>
        <time>2022-12-09T13:45:54Z</time>
      </trkpt>
      <trkpt lat="49.86439" lon="2.20271">
        <ele>110.4</ele>
        <time>2022-12-09T13:45:55Z</time>
      </trkpt>
      <trkpt lat="49.86438" lon="2.20271">
        <ele>110.4</ele>
        <time>2022-12-09T13:45:56Z</time>
      </trkpt>
      <trkpt lat="49.86436" lon="2.2027">
        <ele>110.3</ele>
        <time>2022-12-09T13:45:57Z</time>
      </trkpt>
      <trkpt lat="49.86436" lon="2.2027">
        <ele>110.3</ele>
        <time>2022-12-09T13:45:59Z</time>
      </trkpt>
      <trkpt lat="49.86435" lon="2.2027">
        <ele>110.3</ele>
        <time>2022-12-09T13:46:00Z</time>
      </trkpt>
      <trkpt lat="49.86434" lon="2.2027">
        <ele>110.3</ele>
        <time>2022-12-09T13:46:01Z</time>
      </trkpt>
      <trkpt lat="49.86432" lon="2.20269">
        <ele>110.2</ele>
        <time>2022-12-09T13:46:02Z</time>
      </trkpt>
      <trkpt lat="49.86431" lon="2.20269">
        <ele>110.2</ele>
        <time>2022-12-09T13:46:03Z</time>
      </trkpt>
      <trkpt lat="49.8643" lon="2.20269">
        <ele>110.2</ele>
        <time>2022-12-09T13:46:04Z</time>
      </trkpt>
      <trkpt lat="49.86429" lon="2.20269">
        <ele>110.1</ele>
        <time>2022-12-09T13:46:05Z</time>
      </trkpt>
      <trkpt lat="49.86428" lon="2.20269">
        <ele>110.1</ele>
        <time>2022-12-09T13:46:06Z</time>
      </trkpt>
      <trkpt lat="49.86427" lon="2.20269">
        <ele>110.1</ele>
        <time>2022-12-09T13:46:07Z</time>
      </trkpt>
      <trkpt lat="49.86426" lon="2.20269">
        <ele>110.1</ele>
        <time>2022-12-09T13:46:08Z</time>
      </trkpt>
      <trkpt lat="49.86425" lon="2.20268">
        <ele>110</ele>
        <time>2022-12-09T13:46:09Z</time>
      </trkpt>
      <trkpt lat="49.86423" lon="2.20268">
        <ele>110</ele>
        <time>2022-12-09T13:46:11Z</time>
      </trkpt>
      <trkpt lat="49.86422" lon="2.20268">
        <ele>109.9</ele>
        <time>2022-12-09T13:46:12Z</time>
      </trkpt>
      <trkpt lat="49.86421" lon="2.20268">
        <ele>109.9</ele>
        <time>2022-12-09T13:46:13Z</time>
      </trkpt>
      <trkpt lat="49.8642" lon="2.20268">
        <ele>109.9</ele>
        <time>2022-12-09T13:46:15Z</time>
      </trkpt>
      <trkpt lat="49.86419" lon="2.20267">
        <ele>109.8</ele>
        <time>2022-12-09T13:46:16Z</time>
      </trkpt>
      <trkpt lat="49.86418" lon="2.20267">
        <ele>109.8</ele>
        <time>2022-12-09T13:46:17Z</time>
      </trkpt>
      <trkpt lat="49.86417" lon="2.20267">
        <ele>109.8</ele>
        <time>2022-12-09T13:46:18Z</time>
      </trkpt>
      <trkpt lat="49.86416" lon="2.20266">
        <ele>109.8</ele>
        <time>2022-12-09T13:46:19Z</time>
      </trkpt>
      <trkpt lat="49.86414" lon="2.20266">
        <ele>109.7</ele>
        <time>2022-12-09T13:46:20Z</time>
      </trkpt>
      <trkpt lat="49.86413" lon="2.20266">
        <ele>109.7</ele>
        <time>2022-12-09T13:46:21Z</time>
      </trkpt>
      <trkpt lat="49.86412" lon="2.20266">
        <ele>109.6</ele>
        <time>2022-12-09T13:46:23Z</time>
      </trkpt>
      <trkpt lat="49.86411" lon="2.20266">
        <ele>109.6</ele>
        <time>2022-12-09T13:46:24Z</time>
      </trkpt>
      <trkpt lat="49.8641" lon="2.20266">
        <ele>109.6</ele>
        <time>2022-12-09T13:46:25Z</time>
      </trkpt>
      <trkpt lat="49.86409" lon="2.20266">
        <ele>109.6</ele>
        <time>2022-12-09T13:46:26Z</time>
      </trkpt>
      <trkpt lat="49.86407" lon="2.20265">
        <ele>109.5</ele>
        <time>2022-12-09T13:46:27Z</time>
      </trkpt>
      <trkpt lat="49.86406" lon="2.20265">
        <ele>109.5</ele>
        <time>2022-12-09T13:46:28Z</time>
      </trkpt>
      <trkpt lat="49.86406" lon="2.20265">
        <ele>109.4</ele>
        <time>2022-12-09T13:46:29Z</time>
      </trkpt>
      <trkpt lat="49.86404" lon="2.20263">
        <ele>109.4</ele>
        <time>2022-12-09T13:46:30Z</time>
      </trkpt>
      <trkpt lat="49.86403" lon="2.20263">
        <ele>109.4</ele>
        <time>2022-12-09T13:46:32Z</time>
      </trkpt>
      <trkpt lat="49.86402" lon="2.20262">
        <ele>109.3</ele>
        <time>2022-12-09T13:46:33Z</time>
      </trkpt>
      <trkpt lat="49.864" lon="2.20261">
        <ele>109.3</ele>
        <time>2022-12-09T13:46:34Z</time>
      </trkpt>
      <trkpt lat="49.864" lon="2.2026">
        <ele>109.3</ele>
        <time>2022-12-09T13:46:35Z</time>
      </trkpt>
      <trkpt lat="49.86399" lon="2.20259">
        <ele>109.2</ele>
        <time>2022-12-09T13:46:36Z</time>
      </trkpt>
      <trkpt lat="49.86398" lon="2.20258">
        <ele>109.2</ele>
        <time>2022-12-09T13:46:37Z</time>
      </trkpt>
      <trkpt lat="49.86397" lon="2.20257">
        <ele>109.2</ele>
        <time>2022-12-09T13:46:38Z</time>
      </trkpt>
      <trkpt lat="49.86396" lon="2.20255">
        <ele>109.2</ele>
        <time>2022-12-09T13:46:39Z</time>
      </trkpt>
      <trkpt lat="49.86394" lon="2.20254">
        <ele>109.1</ele>
        <time>2022-12-09T13:46:41Z</time>
      </trkpt>
      <trkpt lat="49.86393" lon="2.20253">
        <ele>109.1</ele>
        <time>2022-12-09T13:46:42Z</time>
      </trkpt>
      <trkpt lat="49.86392" lon="2.20251">
        <ele>109.1</ele>
        <time>2022-12-09T13:46:43Z</time>
      </trkpt>
      <trkpt lat="49.86391" lon="2.20249">
        <ele>109</ele>
        <time>2022-12-09T13:46:44Z</time>
      </trkpt>
      <trkpt lat="49.8639" lon="2.20248">
        <ele>109</ele>
        <time>2022-12-09T13:46:45Z</time>
      </trkpt>
      <trkpt lat="49.86389" lon="2.20247">
        <ele>109</ele>
        <time>2022-12-09T13:46:47Z</time>
      </trkpt>
      <trkpt lat="49.86387" lon="2.20244">
        <ele>108.9</ele>
        <time>2022-12-09T13:46:48Z</time>
      </trkpt>
      <trkpt lat="49.86387" lon="2.20243">
        <ele>108.9</ele>
        <time>2022-12-09T13:46:49Z</time>
      </trkpt>
      <trkpt lat="49.86386" lon="2.20242">
        <ele>108.9</ele>
        <time>2022-12-09T13:46:50Z</time>
      </trkpt>
      <trkpt lat="49.86384" lon="2.2024">
        <ele>108.9</ele>
        <time>2022-12-09T13:46:51Z</time>
      </trkpt>
      <trkpt lat="49.86384" lon="2.20239">
        <ele>108.8</ele>
        <time>2022-12-09T13:46:52Z</time>
      </trkpt>
      <trkpt lat="49.86383" lon="2.20238">
        <ele>108.8</ele>
        <time>2022-12-09T13:46:53Z</time>
      </trkpt>
      <trkpt lat="49.86381" lon="2.20235">
        <ele>108.8</ele>
        <time>2022-12-09T13:46:54Z</time>
      </trkpt>
      <trkpt lat="49.86381" lon="2.20234">
        <ele>108.8</ele>
        <time>2022-12-09T13:46:56Z</time>
      </trkpt>
      <trkpt lat="49.8638" lon="2.20233">
        <ele>108.7</ele>
        <time>2022-12-09T13:46:57Z</time>
      </trkpt>
      <trkpt lat="49.86379" lon="2.20231">
        <ele>108.7</ele>
        <time>2022-12-09T13:46:58Z</time>
      </trkpt>
      <trkpt lat="49.86379" lon="2.2023">
        <ele>108.7</ele>
        <time>2022-12-09T13:46:59Z</time>
      </trkpt>
      <trkpt lat="49.86377" lon="2.20228">
        <ele>108.6</ele>
        <time>2022-12-09T13:47:00Z</time>
      </trkpt>
      <trkpt lat="49.86376" lon="2.20227">
        <ele>108.6</ele>
        <time>2022-12-09T13:47:01Z</time>
      </trkpt>
      <trkpt lat="49.86376" lon="2.20226">
        <ele>108.6</ele>
        <time>2022-12-09T13:47:02Z</time>
      </trkpt>
      <trkpt lat="49.86375" lon="2.20224">
        <ele>108.6</ele>
        <time>2022-12-09T13:47:03Z</time>
      </trkpt>
      <trkpt lat="49.86374" lon="2.20223">
        <ele>108.6</ele>
        <time>2022-12-09T13:47:04Z</time>
      </trkpt>
      <trkpt lat="49.86373" lon="2.20222">
        <ele>108.5</ele>
        <time>2022-12-09T13:47:05Z</time>
      </trkpt>
      <trkpt lat="49.86372" lon="2.20221">
        <ele>108.5</ele>
        <time>2022-12-09T13:47:06Z</time>
      </trkpt>
      <trkpt lat="49.86372" lon="2.2022">
        <ele>108.5</ele>
        <time>2022-12-09T13:47:07Z</time>
      </trkpt>
      <trkpt lat="49.86371" lon="2.20219">
        <ele>108.5</ele>
        <time>2022-12-09T13:47:08Z</time>
      </trkpt>
      <trkpt lat="49.8637" lon="2.20217">
        <ele>108.5</ele>
        <time>2022-12-09T13:47:10Z</time>
      </trkpt>
      <trkpt lat="49.86369" lon="2.20215">
        <ele>108.4</ele>
        <time>2022-12-09T13:47:11Z</time>
      </trkpt>
      <trkpt lat="49.86368" lon="2.20214">
        <ele>108.4</ele>
        <time>2022-12-09T13:47:12Z</time>
      </trkpt>
      <trkpt lat="49.86368" lon="2.20213">
        <ele>108.4</ele>
        <time>2022-12-09T13:47:13Z</time>
      </trkpt>
      <trkpt lat="49.86367" lon="2.20212">
        <ele>108.4</ele>
        <time>2022-12-09T13:47:14Z</time>
      </trkpt>
      <trkpt lat="49.86365" lon="2.20211">
        <ele>108.3</ele>
        <time>2022-12-09T13:47:15Z</time>
      </trkpt>
      <trkpt lat="49.86364" lon="2.2021">
        <ele>108.3</ele>
        <time>2022-12-09T13:47:17Z</time>
      </trkpt>
      <trkpt lat="49.86363" lon="2.20209">
        <ele>108.3</ele>
        <time>2022-12-09T13:47:18Z</time>
      </trkpt>
      <trkpt lat="49.86362" lon="2.20207">
        <ele>108.3</ele>
        <time>2022-12-09T13:47:19Z</time>
      </trkpt>
      <trkpt lat="49.86361" lon="2.20206">
        <ele>108.3</ele>
        <time>2022-12-09T13:47:20Z</time>
      </trkpt>
      <trkpt lat="49.8636" lon="2.20206">
        <ele>108.3</ele>
        <time>2022-12-09T13:47:21Z</time>
      </trkpt>
      <trkpt lat="49.86359" lon="2.20205">
        <ele>108.2</ele>
        <time>2022-12-09T13:47:22Z</time>
      </trkpt>
      <trkpt lat="49.86358" lon="2.20203">
        <ele>108.2</ele>
        <time>2022-12-09T13:47:23Z</time>
      </trkpt>
      <trkpt lat="49.86357" lon="2.20202">
        <ele>108.2</ele>
        <time>2022-12-09T13:47:24Z</time>
      </trkpt>
      <trkpt lat="49.86356" lon="2.202">
        <ele>108.2</ele>
        <time>2022-12-09T13:47:26Z</time>
      </trkpt>
      <trkpt lat="49.86355" lon="2.202">
        <ele>108.2</ele>
        <time>2022-12-09T13:47:27Z</time>
      </trkpt>
      <trkpt lat="49.86354" lon="2.20199">
        <ele>108.2</ele>
        <time>2022-12-09T13:47:28Z</time>
      </trkpt>
      <trkpt lat="49.86353" lon="2.20196">
        <ele>108.2</ele>
        <time>2022-12-09T13:47:29Z</time>
      </trkpt>
      <trkpt lat="49.86353" lon="2.20195">
        <ele>108.1</ele>
        <time>2022-12-09T13:47:30Z</time>
      </trkpt>
      <trkpt lat="49.86352" lon="2.20194">
        <ele>108.1</ele>
        <time>2022-12-09T13:47:31Z</time>
      </trkpt>
      <trkpt lat="49.86351" lon="2.20193">
        <ele>108.1</ele>
        <time>2022-12-09T13:47:33Z</time>
      </trkpt>
      <trkpt lat="49.8635" lon="2.20192">
        <ele>108.1</ele>
        <time>2022-12-09T13:47:34Z</time>
      </trkpt>
      <trkpt lat="49.86348" lon="2.2019">
        <ele>108.1</ele>
        <time>2022-12-09T13:47:35Z</time>
      </trkpt>
      <trkpt lat="49.86347" lon="2.20189">
        <ele>108.1</ele>
        <time>2022-12-09T13:47:36Z</time>
      </trkpt>
      <trkpt lat="49.86347" lon="2.20189">
        <ele>108.1</ele>
        <time>2022-12-09T13:47:37Z</time>
      </trkpt>
      <trkpt lat="49.86346" lon="2.20187">
        <ele>108.1</ele>
        <time>2022-12-09T13:47:38Z</time>
      </trkpt>
      <trkpt lat="49.86345" lon="2.20186">
        <ele>108.1</ele>
        <time>2022-12-09T13:47:39Z</time>
      </trkpt>
      <trkpt lat="49.86345" lon="2.20184">
        <ele>108.1</ele>
        <time>2022-12-09T13:47:40Z</time>
      </trkpt>
      <trkpt lat="49.86343" lon="2.20182">
        <ele>108</ele>
        <time>2022-12-09T13:47:42Z</time>
      </trkpt>
      <trkpt lat="49.86343" lon="2.20181">
        <ele>108</ele>
        <time>2022-12-09T13:47:43Z</time>
      </trkpt>
      <trkpt lat="49.86342" lon="2.2018">
        <ele>108</ele>
        <time>2022-12-09T13:47:44Z</time>
      </trkpt>
      <trkpt lat="49.86341" lon="2.20179">
        <ele>108</ele>
        <time>2022-12-09T13:47:45Z</time>
      </trkpt>
      <trkpt lat="49.86341" lon="2.20178">
        <ele>108</ele>
        <time>2022-12-09T13:47:46Z</time>
      </trkpt>
      <trkpt lat="49.8634" lon="2.20177">
        <ele>108</ele>
        <time>2022-12-09T13:47:47Z</time>
      </trkpt>
      <trkpt lat="49.86338" lon="2.20175">
        <ele>108</ele>
        <time>2022-12-09T13:47:48Z</time>
      </trkpt>
      <trkpt lat="49.86337" lon="2.20174">
        <ele>108</ele>
        <time>2022-12-09T13:47:49Z</time>
      </trkpt>
      <trkpt lat="49.86336" lon="2.20173">
        <ele>108</ele>
        <time>2022-12-09T13:47:50Z</time>
      </trkpt>
      <trkpt lat="49.86335" lon="2.20172">
        <ele>108</ele>
        <time>2022-12-09T13:47:51Z</time>
      </trkpt>
      <trkpt lat="49.86334" lon="2.20171">
        <ele>108</ele>
        <time>2022-12-09T13:47:52Z</time>
      </trkpt>
      <trkpt lat="49.86334" lon="2.2017">
        <ele>108</ele>
        <time>2022-12-09T13:47:53Z</time>
      </trkpt>
      <trkpt lat="49.86333" lon="2.20168">
        <ele>108</ele>
        <time>2022-12-09T13:47:54Z</time>
      </trkpt>
      <trkpt lat="49.86332" lon="2.20167">
        <ele>107.9</ele>
        <time>2022-12-09T13:47:56Z</time>
      </trkpt>
      <trkpt lat="49.8633" lon="2.20165">
        <ele>107.9</ele>
        <time>2022-12-09T13:47:57Z</time>
      </trkpt>
      <trkpt lat="49.86329" lon="2.20164">
        <ele>107.9</ele>
        <time>2022-12-09T13:47:58Z</time>
      </trkpt>
      <trkpt lat="49.86328" lon="2.20161">
        <ele>107.9</ele>
        <time>2022-12-09T13:47:59Z</time>
      </trkpt>
      <trkpt lat="49.86327" lon="2.2016">
        <ele>107.9</ele>
        <time>2022-12-09T13:48:00Z</time>
      </trkpt>
      <trkpt lat="49.86327" lon="2.20159">
        <ele>107.9</ele>
        <time>2022-12-09T13:48:01Z</time>
      </trkpt>
      <trkpt lat="49.86325" lon="2.20158">
        <ele>107.9</ele>
        <time>2022-12-09T13:48:03Z</time>
      </trkpt>
      <trkpt lat="49.86324" lon="2.20156">
        <ele>107.9</ele>
        <time>2022-12-09T13:48:04Z</time>
      </trkpt>
      <trkpt lat="49.86323" lon="2.20155">
        <ele>107.9</ele>
        <time>2022-12-09T13:48:05Z</time>
      </trkpt>
      <trkpt lat="49.86322" lon="2.20154">
        <ele>107.9</ele>
        <time>2022-12-09T13:48:06Z</time>
      </trkpt>
      <trkpt lat="49.86321" lon="2.20153">
        <ele>107.9</ele>
        <time>2022-12-09T13:48:07Z</time>
      </trkpt>
      <trkpt lat="49.8632" lon="2.20151">
        <ele>107.9</ele>
        <time>2022-12-09T13:48:08Z</time>
      </trkpt>
      <trkpt lat="49.86319" lon="2.2015">
        <ele>107.9</ele>
        <time>2022-12-09T13:48:10Z</time>
      </trkpt>
      <trkpt lat="49.86318" lon="2.20149">
        <ele>107.8</ele>
        <time>2022-12-09T13:48:11Z</time>
      </trkpt>
      <trkpt lat="49.86317" lon="2.20147">
        <ele>107.8</ele>
        <time>2022-12-09T13:48:12Z</time>
      </trkpt>
      <trkpt lat="49.86316" lon="2.20146">
        <ele>107.8</ele>
        <time>2022-12-09T13:48:13Z</time>
      </trkpt>
      <trkpt lat="49.86316" lon="2.20145">
        <ele>107.8</ele>
        <time>2022-12-09T13:48:14Z</time>
      </trkpt>
      <trkpt lat="49.86315" lon="2.20144">
        <ele>107.8</ele>
        <time>2022-12-09T13:48:15Z</time>
      </trkpt>
      <trkpt lat="49.86314" lon="2.20142">
        <ele>107.8</ele>
        <time>2022-12-09T13:48:16Z</time>
      </trkpt>
      <trkpt lat="49.86313" lon="2.20141">
        <ele>107.8</ele>
        <time>2022-12-09T13:48:18Z</time>
      </trkpt>
      <trkpt lat="49.86313" lon="2.20139">
        <ele>107.8</ele>
        <time>2022-12-09T13:48:19Z</time>
      </trkpt>
      <trkpt lat="49.86312" lon="2.20138">
        <ele>107.8</ele>
        <time>2022-12-09T13:48:20Z</time>
      </trkpt>
      <trkpt lat="49.86311" lon="2.20137">
        <ele>107.8</ele>
        <time>2022-12-09T13:48:21Z</time>
      </trkpt>
      <trkpt lat="49.86311" lon="2.20136">
        <ele>107.8</ele>
        <time>2022-12-09T13:48:22Z</time>
      </trkpt>
      <trkpt lat="49.8631" lon="2.20135">
        <ele>107.8</ele>
        <time>2022-12-09T13:48:23Z</time>
      </trkpt>
      <trkpt lat="49.86309" lon="2.20134">
        <ele>107.8</ele>
        <time>2022-12-09T13:48:25Z</time>
      </trkpt>
      <trkpt lat="49.86308" lon="2.20133">
        <ele>107.8</ele>
        <time>2022-12-09T13:48:26Z</time>
      </trkpt>
      <trkpt lat="49.86307" lon="2.20132">
        <ele>107.8</ele>
        <time>2022-12-09T13:48:27Z</time>
      </trkpt>
      <trkpt lat="49.86306" lon="2.20131">
        <ele>107.8</ele>
        <time>2022-12-09T13:48:28Z</time>
      </trkpt>
      <trkpt lat="49.86306" lon="2.20129">
        <ele>107.7</ele>
        <time>2022-12-09T13:48:29Z</time>
      </trkpt>
      <trkpt lat="49.86305" lon="2.20128">
        <ele>107.7</ele>
        <time>2022-12-09T13:48:30Z</time>
      </trkpt>
      <trkpt lat="49.86304" lon="2.20127">
        <ele>107.7</ele>
        <time>2022-12-09T13:48:31Z</time>
      </trkpt>
      <trkpt lat="49.86303" lon="2.20125">
        <ele>107.7</ele>
        <time>2022-12-09T13:48:32Z</time>
      </trkpt>
      <trkpt lat="49.86302" lon="2.20124">
        <ele>107.7</ele>
        <time>2022-12-09T13:48:34Z</time>
      </trkpt>
      <trkpt lat="49.86302" lon="2.20123">
        <ele>107.7</ele>
        <time>2022-12-09T13:48:35Z</time>
      </trkpt>
      <trkpt lat="49.863" lon="2.20121">
        <ele>107.7</ele>
        <time>2022-12-09T13:48:36Z</time>
      </trkpt>
      <trkpt lat="49.86299" lon="2.2012">
        <ele>107.7</ele>
        <time>2022-12-09T13:48:37Z</time>
      </trkpt>
      <trkpt lat="49.86299" lon="2.20119">
        <ele>107.7</ele>
        <time>2022-12-09T13:48:38Z</time>
      </trkpt>
      <trkpt lat="49.86297" lon="2.20117">
        <ele>107.7</ele>
        <time>2022-12-09T13:48:39Z</time>
      </trkpt>
      <trkpt lat="49.86297" lon="2.20116">
        <ele>107.7</ele>
        <time>2022-12-09T13:48:40Z</time>
      </trkpt>
      <trkpt lat="49.86296" lon="2.20115">
        <ele>107.7</ele>
        <time>2022-12-09T13:48:41Z</time>
      </trkpt>
      <trkpt lat="49.86295" lon="2.20113">
        <ele>107.7</ele>
        <time>2022-12-09T13:48:43Z</time>
      </trkpt>
      <trkpt lat="49.86294" lon="2.20111">
        <ele>107.7</ele>
        <time>2022-12-09T13:48:44Z</time>
      </trkpt>
      <trkpt lat="49.86292" lon="2.20109">
        <ele>107.7</ele>
        <time>2022-12-09T13:48:45Z</time>
      </trkpt>
      <trkpt lat="49.86291" lon="2.20108">
        <ele>107.7</ele>
        <time>2022-12-09T13:48:46Z</time>
      </trkpt>
      <trkpt lat="49.86291" lon="2.20108">
        <ele>107.7</ele>
        <time>2022-12-09T13:48:47Z</time>
      </trkpt>
      <trkpt lat="49.8629" lon="2.20107">
        <ele>107.7</ele>
        <time>2022-12-09T13:48:48Z</time>
      </trkpt>
      <trkpt lat="49.86289" lon="2.20105">
        <ele>107.7</ele>
        <time>2022-12-09T13:48:49Z</time>
      </trkpt>
      <trkpt lat="49.86288" lon="2.20104">
        <ele>107.7</ele>
        <time>2022-12-09T13:48:51Z</time>
      </trkpt>
      <trkpt lat="49.86287" lon="2.20103">
        <ele>107.7</ele>
        <time>2022-12-09T13:48:52Z</time>
      </trkpt>
      <trkpt lat="49.86286" lon="2.20101">
        <ele>107.7</ele>
        <time>2022-12-09T13:48:53Z</time>
      </trkpt>
      <trkpt lat="49.86286" lon="2.201">
        <ele>107.7</ele>
        <time>2022-12-09T13:48:54Z</time>
      </trkpt>
      <trkpt lat="49.86284" lon="2.20098">
        <ele>107.7</ele>
        <time>2022-12-09T13:48:55Z</time>
      </trkpt>
      <trkpt lat="49.86283" lon="2.20097">
        <ele>107.7</ele>
        <time>2022-12-09T13:48:56Z</time>
      </trkpt>
      <trkpt lat="49.86283" lon="2.20096">
        <ele>107.6</ele>
        <time>2022-12-09T13:48:57Z</time>
      </trkpt>
      <trkpt lat="49.86282" lon="2.20095">
        <ele>107.6</ele>
        <time>2022-12-09T13:48:58Z</time>
      </trkpt>
      <trkpt lat="49.86281" lon="2.20094">
        <ele>107.6</ele>
        <time>2022-12-09T13:48:59Z</time>
      </trkpt>
      <trkpt lat="49.86281" lon="2.20093">
        <ele>107.6</ele>
        <time>2022-12-09T13:49:01Z</time>
      </trkpt>
      <trkpt lat="49.8628" lon="2.20092">
        <ele>107.6</ele>
        <time>2022-12-09T13:49:02Z</time>
      </trkpt>
      <trkpt lat="49.86279" lon="2.2009">
        <ele>107.6</ele>
        <time>2022-12-09T13:49:03Z</time>
      </trkpt>
      <trkpt lat="49.86278" lon="2.20089">
        <ele>107.6</ele>
        <time>2022-12-09T13:49:04Z</time>
      </trkpt>
      <trkpt lat="49.86276" lon="2.20087">
        <ele>107.6</ele>
        <time>2022-12-09T13:49:05Z</time>
      </trkpt>
      <trkpt lat="49.86276" lon="2.20086">
        <ele>107.6</ele>
        <time>2022-12-09T13:49:06Z</time>
      </trkpt>
      <trkpt lat="49.86275" lon="2.20085">
        <ele>107.6</ele>
        <time>2022-12-09T13:49:07Z</time>
      </trkpt>
      <trkpt lat="49.86274" lon="2.20084">
        <ele>107.6</ele>
        <time>2022-12-09T13:49:08Z</time>
      </trkpt>
      <trkpt lat="49.86274" lon="2.20083">
        <ele>107.6</ele>
        <time>2022-12-09T13:49:09Z</time>
      </trkpt>
      <trkpt lat="49.86273" lon="2.20081">
        <ele>107.6</ele>
        <time>2022-12-09T13:49:10Z</time>
      </trkpt>
      <trkpt lat="49.86272" lon="2.2008">
        <ele>107.6</ele>
        <time>2022-12-09T13:49:11Z</time>
      </trkpt>
      <trkpt lat="49.86272" lon="2.20079">
        <ele>107.6</ele>
        <time>2022-12-09T13:49:13Z</time>
      </trkpt>
      <trkpt lat="49.86271" lon="2.20078">
        <ele>107.6</ele>
        <time>2022-12-09T13:49:14Z</time>
      </trkpt>
      <trkpt lat="49.8627" lon="2.20076">
        <ele>107.6</ele>
        <time>2022-12-09T13:49:15Z</time>
      </trkpt>
      <trkpt lat="49.86269" lon="2.20075">
        <ele>107.6</ele>
        <time>2022-12-09T13:49:16Z</time>
      </trkpt>
      <trkpt lat="49.86269" lon="2.20073">
        <ele>107.6</ele>
        <time>2022-12-09T13:49:17Z</time>
      </trkpt>
      <trkpt lat="49.86268" lon="2.20072">
        <ele>107.6</ele>
        <time>2022-12-09T13:49:18Z</time>
      </trkpt>
      <trkpt lat="49.86267" lon="2.20071">
        <ele>107.6</ele>
        <time>2022-12-09T13:49:19Z</time>
      </trkpt>
      <trkpt lat="49.86266" lon="2.20069">
        <ele>107.6</ele>
        <time>2022-12-09T13:49:20Z</time>
      </trkpt>
      <trkpt lat="49.86266" lon="2.20068">
        <ele>107.6</ele>
        <time>2022-12-09T13:49:21Z</time>
      </trkpt>
      <trkpt lat="49.86265" lon="2.20067">
        <ele>107.6</ele>
        <time>2022-12-09T13:49:23Z</time>
      </trkpt>
      <trkpt lat="49.86264" lon="2.20065">
        <ele>107.6</ele>
        <time>2022-12-09T13:49:24Z</time>
      </trkpt>
      <trkpt lat="49.86262" lon="2.20063">
        <ele>107.6</ele>
        <time>2022-12-09T13:49:25Z</time>
      </trkpt>
      <trkpt lat="49.86262" lon="2.20062">
        <ele>107.6</ele>
        <time>2022-12-09T13:49:26Z</time>
      </trkpt>
      <trkpt lat="49.86261" lon="2.20061">
        <ele>107.6</ele>
        <time>2022-12-09T13:49:27Z</time>
      </trkpt>
      <trkpt lat="49.86259" lon="2.20059">
        <ele>107.6</ele>
        <time>2022-12-09T13:49:28Z</time>
      </trkpt>
      <trkpt lat="49.86259" lon="2.20057">
        <ele>107.6</ele>
        <time>2022-12-09T13:49:30Z</time>
      </trkpt>
      <trkpt lat="49.86258" lon="2.20056">
        <ele>107.6</ele>
        <time>2022-12-09T13:49:31Z</time>
      </trkpt>
      <trkpt lat="49.86257" lon="2.20055">
        <ele>107.6</ele>
        <time>2022-12-09T13:49:32Z</time>
      </trkpt>
      <trkpt lat="49.86256" lon="2.20053">
        <ele>107.6</ele>
        <time>2022-12-09T13:49:33Z</time>
      </trkpt>
      <trkpt lat="49.86255" lon="2.20052">
        <ele>107.6</ele>
        <time>2022-12-09T13:49:34Z</time>
      </trkpt>
      <trkpt lat="49.86255" lon="2.20051">
        <ele>107.6</ele>
        <time>2022-12-09T13:49:35Z</time>
      </trkpt>
      <trkpt lat="49.86254" lon="2.20049">
        <ele>107.7</ele>
        <time>2022-12-09T13:49:36Z</time>
      </trkpt>
      <trkpt lat="49.86253" lon="2.20047">
        <ele>107.7</ele>
        <time>2022-12-09T13:49:38Z</time>
      </trkpt>
      <trkpt lat="49.86253" lon="2.20046">
        <ele>107.7</ele>
        <time>2022-12-09T13:49:39Z</time>
      </trkpt>
      <trkpt lat="49.86252" lon="2.20045">
        <ele>107.7</ele>
        <time>2022-12-09T13:49:40Z</time>
      </trkpt>
      <trkpt lat="49.86251" lon="2.20043">
        <ele>107.7</ele>
        <time>2022-12-09T13:49:41Z</time>
      </trkpt>
      <trkpt lat="49.86251" lon="2.20042">
        <ele>107.7</ele>
        <time>2022-12-09T13:49:42Z</time>
      </trkpt>
      <trkpt lat="49.8625" lon="2.20041">
        <ele>107.7</ele>
        <time>2022-12-09T13:49:43Z</time>
      </trkpt>
      <trkpt lat="49.86249" lon="2.2004">
        <ele>107.7</ele>
        <time>2022-12-09T13:49:44Z</time>
      </trkpt>
      <trkpt lat="49.86248" lon="2.20039">
        <ele>107.7</ele>
        <time>2022-12-09T13:49:45Z</time>
      </trkpt>
      <trkpt lat="49.86247" lon="2.20037">
        <ele>107.7</ele>
        <time>2022-12-09T13:49:46Z</time>
      </trkpt>
      <trkpt lat="49.86246" lon="2.20035">
        <ele>107.7</ele>
        <time>2022-12-09T13:49:47Z</time>
      </trkpt>
      <trkpt lat="49.86245" lon="2.20034">
        <ele>107.7</ele>
        <time>2022-12-09T13:49:49Z</time>
      </trkpt>
      <trkpt lat="49.86245" lon="2.20033">
        <ele>107.8</ele>
        <time>2022-12-09T13:49:50Z</time>
      </trkpt>
      <trkpt lat="49.86243" lon="2.20031">
        <ele>107.8</ele>
        <time>2022-12-09T13:49:51Z</time>
      </trkpt>
      <trkpt lat="49.86242" lon="2.2003">
        <ele>107.8</ele>
        <time>2022-12-09T13:49:52Z</time>
      </trkpt>
      <trkpt lat="49.86242" lon="2.20029">
        <ele>107.8</ele>
        <time>2022-12-09T13:49:53Z</time>
      </trkpt>
      <trkpt lat="49.8624" lon="2.20027">
        <ele>107.8</ele>
        <time>2022-12-09T13:49:54Z</time>
      </trkpt>
      <trkpt lat="49.8624" lon="2.20026">
        <ele>107.8</ele>
        <time>2022-12-09T13:49:55Z</time>
      </trkpt>
      <trkpt lat="49.86239" lon="2.20025">
        <ele>107.8</ele>
        <time>2022-12-09T13:49:56Z</time>
      </trkpt>
      <trkpt lat="49.86238" lon="2.20022">
        <ele>107.8</ele>
        <time>2022-12-09T13:49:57Z</time>
      </trkpt>
      <trkpt lat="49.86237" lon="2.20021">
        <ele>107.8</ele>
        <time>2022-12-09T13:49:58Z</time>
      </trkpt>
      <trkpt lat="49.86237" lon="2.2002">
        <ele>107.8</ele>
        <time>2022-12-09T13:49:59Z</time>
      </trkpt>
      <trkpt lat="49.86236" lon="2.20019">
        <ele>107.8</ele>
        <time>2022-12-09T13:50:00Z</time>
      </trkpt>
      <trkpt lat="49.86236" lon="2.20017">
        <ele>107.8</ele>
        <time>2022-12-09T13:50:01Z</time>
      </trkpt>
      <trkpt lat="49.86235" lon="2.20015">
        <ele>107.8</ele>
        <time>2022-12-09T13:50:03Z</time>
      </trkpt>
      <trkpt lat="49.86234" lon="2.20013">
        <ele>107.8</ele>
        <time>2022-12-09T13:50:04Z</time>
      </trkpt>
      <trkpt lat="49.86233" lon="2.20011">
        <ele>107.8</ele>
        <time>2022-12-09T13:50:05Z</time>
      </trkpt>
      <trkpt lat="49.86232" lon="2.20009">
        <ele>107.8</ele>
        <time>2022-12-09T13:50:06Z</time>
      </trkpt>
      <trkpt lat="49.86232" lon="2.20008">
        <ele>107.8</ele>
        <time>2022-12-09T13:50:07Z</time>
      </trkpt>
      <trkpt lat="49.8623" lon="2.20005">
        <ele>107.8</ele>
        <time>2022-12-09T13:50:08Z</time>
      </trkpt>
      <trkpt lat="49.8623" lon="2.20004">
        <ele>107.8</ele>
        <time>2022-12-09T13:50:09Z</time>
      </trkpt>
      <trkpt lat="49.86229" lon="2.20003">
        <ele>107.8</ele>
        <time>2022-12-09T13:50:10Z</time>
      </trkpt>
      <trkpt lat="49.86227" lon="2.20001">
        <ele>107.8</ele>
        <time>2022-12-09T13:50:11Z</time>
      </trkpt>
      <trkpt lat="49.86227" lon="2.2">
        <ele>107.8</ele>
        <time>2022-12-09T13:50:12Z</time>
      </trkpt>
      <trkpt lat="49.86226" lon="2.19999">
        <ele>107.8</ele>
        <time>2022-12-09T13:50:13Z</time>
      </trkpt>
      <trkpt lat="49.86225" lon="2.19998">
        <ele>107.8</ele>
        <time>2022-12-09T13:50:14Z</time>
      </trkpt>
      <trkpt lat="49.86224" lon="2.19997">
        <ele>107.8</ele>
        <time>2022-12-09T13:50:15Z</time>
      </trkpt>
      <trkpt lat="49.86223" lon="2.19996">
        <ele>107.8</ele>
        <time>2022-12-09T13:50:16Z</time>
      </trkpt>
      <trkpt lat="49.86222" lon="2.19994">
        <ele>107.8</ele>
        <time>2022-12-09T13:50:18Z</time>
      </trkpt>
      <trkpt lat="49.86221" lon="2.19993">
        <ele>107.8</ele>
        <time>2022-12-09T13:50:19Z</time>
      </trkpt>
      <trkpt lat="49.8622" lon="2.19992">
        <ele>107.8</ele>
        <time>2022-12-09T13:50:20Z</time>
      </trkpt>
      <trkpt lat="49.86219" lon="2.1999">
        <ele>107.8</ele>
        <time>2022-12-09T13:50:21Z</time>
      </trkpt>
      <trkpt lat="49.86218" lon="2.19989">
        <ele>107.8</ele>
        <time>2022-12-09T13:50:22Z</time>
      </trkpt>
      <trkpt lat="49.86218" lon="2.19988">
        <ele>107.8</ele>
        <time>2022-12-09T13:50:23Z</time>
      </trkpt>
      <trkpt lat="49.86217" lon="2.19986">
        <ele>107.8</ele>
        <time>2022-12-09T13:50:24Z</time>
      </trkpt>
      <trkpt lat="49.86216" lon="2.19984">
        <ele>107.8</ele>
        <time>2022-12-09T13:50:26Z</time>
      </trkpt>
      <trkpt lat="49.86216" lon="2.19982">
        <ele>107.8</ele>
        <time>2022-12-09T13:50:27Z</time>
      </trkpt>
      <trkpt lat="49.86215" lon="2.1998">
        <ele>107.8</ele>
        <time>2022-12-09T13:50:28Z</time>
      </trkpt>
      <trkpt lat="49.86214" lon="2.19978">
        <ele>107.8</ele>
        <time>2022-12-09T13:50:29Z</time>
      </trkpt>
      <trkpt lat="49.86213" lon="2.19977">
        <ele>107.8</ele>
        <time>2022-12-09T13:50:30Z</time>
      </trkpt>
      <trkpt lat="49.86212" lon="2.19976">
        <ele>107.8</ele>
        <time>2022-12-09T13:50:31Z</time>
      </trkpt>
      <trkpt lat="49.86211" lon="2.19974">
        <ele>107.8</ele>
        <time>2022-12-09T13:50:32Z</time>
      </trkpt>
      <trkpt lat="49.86211" lon="2.19973">
        <ele>107.8</ele>
        <time>2022-12-09T13:50:34Z</time>
      </trkpt>
      <trkpt lat="49.8621" lon="2.19971">
        <ele>107.8</ele>
        <time>2022-12-09T13:50:35Z</time>
      </trkpt>
      <trkpt lat="49.86209" lon="2.1997">
        <ele>107.8</ele>
        <time>2022-12-09T13:50:36Z</time>
      </trkpt>
      <trkpt lat="49.86209" lon="2.19968">
        <ele>107.8</ele>
        <time>2022-12-09T13:50:37Z</time>
      </trkpt>
      <trkpt lat="49.86208" lon="2.19967">
        <ele>107.8</ele>
        <time>2022-12-09T13:50:38Z</time>
      </trkpt>
      <trkpt lat="49.86207" lon="2.19965">
        <ele>107.8</ele>
        <time>2022-12-09T13:50:39Z</time>
      </trkpt>
      <trkpt lat="49.86207" lon="2.19964">
        <ele>107.8</ele>
        <time>2022-12-09T13:50:40Z</time>
      </trkpt>
      <trkpt lat="49.86206" lon="2.19963">
        <ele>107.8</ele>
        <time>2022-12-09T13:50:41Z</time>
      </trkpt>
      <trkpt lat="49.86205" lon="2.19961">
        <ele>107.8</ele>
        <time>2022-12-09T13:50:42Z</time>
      </trkpt>
      <trkpt lat="49.86205" lon="2.1996">
        <ele>107.8</ele>
        <time>2022-12-09T13:50:44Z</time>
      </trkpt>
      <trkpt lat="49.86203" lon="2.19957">
        <ele>107.8</ele>
        <time>2022-12-09T13:50:45Z</time>
      </trkpt>
      <trkpt lat="49.86203" lon="2.19956">
        <ele>107.8</ele>
        <time>2022-12-09T13:50:46Z</time>
      </trkpt>
      <trkpt lat="49.86202" lon="2.19955">
        <ele>107.8</ele>
        <time>2022-12-09T13:50:47Z</time>
      </trkpt>
      <trkpt lat="49.86202" lon="2.19953">
        <ele>107.8</ele>
        <time>2022-12-09T13:50:48Z</time>
      </trkpt>
      <trkpt lat="49.86201" lon="2.19952">
        <ele>107.8</ele>
        <time>2022-12-09T13:50:49Z</time>
      </trkpt>
      <trkpt lat="49.86201" lon="2.1995">
        <ele>107.9</ele>
        <time>2022-12-09T13:50:50Z</time>
      </trkpt>
      <trkpt lat="49.862" lon="2.19949">
        <ele>107.9</ele>
        <time>2022-12-09T13:50:51Z</time>
      </trkpt>
      <trkpt lat="49.862" lon="2.19947">
        <ele>107.9</ele>
        <time>2022-12-09T13:50:53Z</time>
      </trkpt>
      <trkpt lat="49.86199" lon="2.19945">
        <ele>107.9</ele>
        <time>2022-12-09T13:50:54Z</time>
      </trkpt>
      <trkpt lat="49.86199" lon="2.19944">
        <ele>107.9</ele>
        <time>2022-12-09T13:50:55Z</time>
      </trkpt>
      <trkpt lat="49.86198" lon="2.19942">
        <ele>107.9</ele>
        <time>2022-12-09T13:50:56Z</time>
      </trkpt>
      <trkpt lat="49.86198" lon="2.19941">
        <ele>107.9</ele>
        <time>2022-12-09T13:50:57Z</time>
      </trkpt>
      <trkpt lat="49.86197" lon="2.19939">
        <ele>107.9</ele>
        <time>2022-12-09T13:50:58Z</time>
      </trkpt>
      <trkpt lat="49.86197" lon="2.19939">
        <ele>107.9</ele>
        <time>2022-12-09T13:51:00Z</time>
      </trkpt>
      <trkpt lat="49.86196" lon="2.19938">
        <ele>108</ele>
        <time>2022-12-09T13:51:01Z</time>
      </trkpt>
      <trkpt lat="49.86195" lon="2.19936">
        <ele>108</ele>
        <time>2022-12-09T13:51:02Z</time>
      </trkpt>
      <trkpt lat="49.86194" lon="2.19934">
        <ele>108</ele>
        <time>2022-12-09T13:51:03Z</time>
      </trkpt>
      <trkpt lat="49.86193" lon="2.19933">
        <ele>108</ele>
        <time>2022-12-09T13:51:04Z</time>
      </trkpt>
      <trkpt lat="49.86193" lon="2.19932">
        <ele>108</ele>
        <time>2022-12-09T13:51:05Z</time>
      </trkpt>
      <trkpt lat="49.86192" lon="2.1993">
        <ele>108.1</ele>
        <time>2022-12-09T13:51:07Z</time>
      </trkpt>
      <trkpt lat="49.86191" lon="2.19929">
        <ele>108.1</ele>
        <time>2022-12-09T13:51:08Z</time>
      </trkpt>
      <trkpt lat="49.8619" lon="2.19927">
        <ele>108.1</ele>
        <time>2022-12-09T13:51:09Z</time>
      </trkpt>
      <trkpt lat="49.86189" lon="2.19925">
        <ele>108.1</ele>
        <time>2022-12-09T13:51:10Z</time>
      </trkpt>
      <trkpt lat="49.86187" lon="2.19923">
        <ele>108.2</ele>
        <time>2022-12-09T13:51:11Z</time>
      </trkpt>
      <trkpt lat="49.86187" lon="2.19922">
        <ele>108.2</ele>
        <time>2022-12-09T13:51:12Z</time>
      </trkpt>
      <trkpt lat="49.86186" lon="2.19921">
        <ele>108.2</ele>
        <time>2022-12-09T13:51:13Z</time>
      </trkpt>
      <trkpt lat="49.86185" lon="2.19919">
        <ele>108.2</ele>
        <time>2022-12-09T13:51:14Z</time>
      </trkpt>
      <trkpt lat="49.86184" lon="2.19918">
        <ele>108.3</ele>
        <time>2022-12-09T13:51:15Z</time>
      </trkpt>
      <trkpt lat="49.86183" lon="2.19916">
        <ele>108.3</ele>
        <time>2022-12-09T13:51:17Z</time>
      </trkpt>
      <trkpt lat="49.86182" lon="2.19914">
        <ele>108.3</ele>
        <time>2022-12-09T13:51:18Z</time>
      </trkpt>
      <trkpt lat="49.86182" lon="2.19912">
        <ele>108.3</ele>
        <time>2022-12-09T13:51:19Z</time>
      </trkpt>
      <trkpt lat="49.86181" lon="2.19911">
        <ele>108.4</ele>
        <time>2022-12-09T13:51:20Z</time>
      </trkpt>
      <trkpt lat="49.8618" lon="2.1991">
        <ele>108.4</ele>
        <time>2022-12-09T13:51:21Z</time>
      </trkpt>
      <trkpt lat="49.86179" lon="2.1991">
        <ele>108.4</ele>
        <time>2022-12-09T13:51:22Z</time>
      </trkpt>
      <trkpt lat="49.86178" lon="2.19908">
        <ele>108.4</ele>
        <time>2022-12-09T13:51:23Z</time>
      </trkpt>
      <trkpt lat="49.86177" lon="2.19906">
        <ele>108.4</ele>
        <time>2022-12-09T13:51:25Z</time>
      </trkpt>
      <trkpt lat="49.86176" lon="2.19904">
        <ele>108.5</ele>
        <time>2022-12-09T13:51:26Z</time>
      </trkpt>
      <trkpt lat="49.86175" lon="2.19903">
        <ele>108.5</ele>
        <time>2022-12-09T13:51:27Z</time>
      </trkpt>
      <trkpt lat="49.86175" lon="2.19901">
        <ele>108.5</ele>
        <time>2022-12-09T13:51:28Z</time>
      </trkpt>
      <trkpt lat="49.86174" lon="2.19899">
        <ele>108.5</ele>
        <time>2022-12-09T13:51:29Z</time>
      </trkpt>
      <trkpt lat="49.86173" lon="2.19897">
        <ele>108.6</ele>
        <time>2022-12-09T13:51:30Z</time>
      </trkpt>
      <trkpt lat="49.86172" lon="2.19895">
        <ele>108.6</ele>
        <time>2022-12-09T13:51:31Z</time>
      </trkpt>
      <trkpt lat="49.86172" lon="2.19893">
        <ele>108.6</ele>
        <time>2022-12-09T13:51:32Z</time>
      </trkpt>
      <trkpt lat="49.86171" lon="2.1989">
        <ele>108.6</ele>
        <time>2022-12-09T13:51:34Z</time>
      </trkpt>
      <trkpt lat="49.86171" lon="2.19888">
        <ele>108.7</ele>
        <time>2022-12-09T13:51:35Z</time>
      </trkpt>
      <trkpt lat="49.8617" lon="2.19886">
        <ele>108.7</ele>
        <time>2022-12-09T13:51:36Z</time>
      </trkpt>
      <trkpt lat="49.86169" lon="2.19883">
        <ele>108.7</ele>
        <time>2022-12-09T13:51:37Z</time>
      </trkpt>
      <trkpt lat="49.86168" lon="2.19882">
        <ele>108.7</ele>
        <time>2022-12-09T13:51:38Z</time>
      </trkpt>
      <trkpt lat="49.86168" lon="2.19881">
        <ele>108.7</ele>
        <time>2022-12-09T13:51:39Z</time>
      </trkpt>
      <trkpt lat="49.86167" lon="2.19878">
        <ele>108.8</ele>
        <time>2022-12-09T13:51:40Z</time>
      </trkpt>
      <trkpt lat="49.86166" lon="2.19877">
        <ele>108.8</ele>
        <time>2022-12-09T13:51:42Z</time>
      </trkpt>
      <trkpt lat="49.86166" lon="2.19875">
        <ele>108.8</ele>
        <time>2022-12-09T13:51:43Z</time>
      </trkpt>
      <trkpt lat="49.86164" lon="2.19872">
        <ele>108.8</ele>
        <time>2022-12-09T13:51:44Z</time>
      </trkpt>
      <trkpt lat="49.86164" lon="2.19871">
        <ele>108.8</ele>
        <time>2022-12-09T13:51:45Z</time>
      </trkpt>
      <trkpt lat="49.86164" lon="2.1987">
        <ele>108.8</ele>
        <time>2022-12-09T13:51:46Z</time>
      </trkpt>
      <trkpt lat="49.86163" lon="2.19869">
        <ele>108.9</ele>
        <time>2022-12-09T13:51:47Z</time>
      </trkpt>
      <trkpt lat="49.86162" lon="2.19867">
        <ele>108.9</ele>
        <time>2022-12-09T13:51:48Z</time>
      </trkpt>
      <trkpt lat="49.86162" lon="2.19865">
        <ele>108.9</ele>
        <time>2022-12-09T13:51:50Z</time>
      </trkpt>
      <trkpt lat="49.86161" lon="2.19863">
        <ele>108.9</ele>
        <time>2022-12-09T13:51:51Z</time>
      </trkpt>
      <trkpt lat="49.8616" lon="2.19861">
        <ele>108.9</ele>
        <time>2022-12-09T13:51:52Z</time>
      </trkpt>
      <trkpt lat="49.86159" lon="2.19859">
        <ele>109</ele>
        <time>2022-12-09T13:51:53Z</time>
      </trkpt>
      <trkpt lat="49.86159" lon="2.19857">
        <ele>109</ele>
        <time>2022-12-09T13:51:54Z</time>
      </trkpt>
      <trkpt lat="49.86157" lon="2.19854">
        <ele>109</ele>
        <time>2022-12-09T13:51:55Z</time>
      </trkpt>
      <trkpt lat="49.86157" lon="2.19853">
        <ele>109</ele>
        <time>2022-12-09T13:51:57Z</time>
      </trkpt>
      <trkpt lat="49.86156" lon="2.19852">
        <ele>109.1</ele>
        <time>2022-12-09T13:51:58Z</time>
      </trkpt>
      <trkpt lat="49.86155" lon="2.1985">
        <ele>109.1</ele>
        <time>2022-12-09T13:51:59Z</time>
      </trkpt>
      <trkpt lat="49.86155" lon="2.19849">
        <ele>109.1</ele>
        <time>2022-12-09T13:52:00Z</time>
      </trkpt>
      <trkpt lat="49.86154" lon="2.19846">
        <ele>109.1</ele>
        <time>2022-12-09T13:52:01Z</time>
      </trkpt>
      <trkpt lat="49.86153" lon="2.19845">
        <ele>109.1</ele>
        <time>2022-12-09T13:52:02Z</time>
      </trkpt>
      <trkpt lat="49.86153" lon="2.19844">
        <ele>109.2</ele>
        <time>2022-12-09T13:52:03Z</time>
      </trkpt>
      <trkpt lat="49.86152" lon="2.19843">
        <ele>109.2</ele>
        <time>2022-12-09T13:52:04Z</time>
      </trkpt>
      <trkpt lat="49.86151" lon="2.19842">
        <ele>109.2</ele>
        <time>2022-12-09T13:52:05Z</time>
      </trkpt>
      <trkpt lat="49.86151" lon="2.1984">
        <ele>109.2</ele>
        <time>2022-12-09T13:52:06Z</time>
      </trkpt>
      <trkpt lat="49.86149" lon="2.19837">
        <ele>109.3</ele>
        <time>2022-12-09T13:52:07Z</time>
      </trkpt>
      <trkpt lat="49.86149" lon="2.19836">
        <ele>109.3</ele>
        <time>2022-12-09T13:52:08Z</time>
      </trkpt>
      <trkpt lat="49.86148" lon="2.19835">
        <ele>109.3</ele>
        <time>2022-12-09T13:52:09Z</time>
      </trkpt>
      <trkpt lat="49.86147" lon="2.19832">
        <ele>109.3</ele>
        <time>2022-12-09T13:52:10Z</time>
      </trkpt>
      <trkpt lat="49.86146" lon="2.1983">
        <ele>109.3</ele>
        <time>2022-12-09T13:52:12Z</time>
      </trkpt>
      <trkpt lat="49.86146" lon="2.19829">
        <ele>109.4</ele>
        <time>2022-12-09T13:52:13Z</time>
      </trkpt>
      <trkpt lat="49.86145" lon="2.19828">
        <ele>109.4</ele>
        <time>2022-12-09T13:52:14Z</time>
      </trkpt>
      <trkpt lat="49.86145" lon="2.19826">
        <ele>109.4</ele>
        <time>2022-12-09T13:52:15Z</time>
      </trkpt>
      <trkpt lat="49.86144" lon="2.19825">
        <ele>109.4</ele>
        <time>2022-12-09T13:52:16Z</time>
      </trkpt>
      <trkpt lat="49.86143" lon="2.19824">
        <ele>109.4</ele>
        <time>2022-12-09T13:52:17Z</time>
      </trkpt>
      <trkpt lat="49.86143" lon="2.19822">
        <ele>109.4</ele>
        <time>2022-12-09T13:52:18Z</time>
      </trkpt>
      <trkpt lat="49.86141" lon="2.19819">
        <ele>109.4</ele>
        <time>2022-12-09T13:52:19Z</time>
      </trkpt>
      <trkpt lat="49.86141" lon="2.19818">
        <ele>109.4</ele>
        <time>2022-12-09T13:52:21Z</time>
      </trkpt>
      <trkpt lat="49.8614" lon="2.19817">
        <ele>109.5</ele>
        <time>2022-12-09T13:52:22Z</time>
      </trkpt>
      <trkpt lat="49.86139" lon="2.19814">
        <ele>109.5</ele>
        <time>2022-12-09T13:52:23Z</time>
      </trkpt>
      <trkpt lat="49.86139" lon="2.19812">
        <ele>109.5</ele>
        <time>2022-12-09T13:52:24Z</time>
      </trkpt>
      <trkpt lat="49.86138" lon="2.19811">
        <ele>109.5</ele>
        <time>2022-12-09T13:52:25Z</time>
      </trkpt>
      <trkpt lat="49.86137" lon="2.19808">
        <ele>109.5</ele>
        <time>2022-12-09T13:52:26Z</time>
      </trkpt>
      <trkpt lat="49.86137" lon="2.19807">
        <ele>109.5</ele>
        <time>2022-12-09T13:52:28Z</time>
      </trkpt>
      <trkpt lat="49.86136" lon="2.19806">
        <ele>109.5</ele>
        <time>2022-12-09T13:52:29Z</time>
      </trkpt>
      <trkpt lat="49.86136" lon="2.19804">
        <ele>109.5</ele>
        <time>2022-12-09T13:52:30Z</time>
      </trkpt>
      <trkpt lat="49.86135" lon="2.19802">
        <ele>109.5</ele>
        <time>2022-12-09T13:52:31Z</time>
      </trkpt>
      <trkpt lat="49.86135" lon="2.19801">
        <ele>109.4</ele>
        <time>2022-12-09T13:52:32Z</time>
      </trkpt>
      <trkpt lat="49.86134" lon="2.19799">
        <ele>109.4</ele>
        <time>2022-12-09T13:52:33Z</time>
      </trkpt>
      <trkpt lat="49.86133" lon="2.19797">
        <ele>109.4</ele>
        <time>2022-12-09T13:52:34Z</time>
      </trkpt>
      <trkpt lat="49.86132" lon="2.19795">
        <ele>109.4</ele>
        <time>2022-12-09T13:52:36Z</time>
      </trkpt>
      <trkpt lat="49.86132" lon="2.19793">
        <ele>109.4</ele>
        <time>2022-12-09T13:52:37Z</time>
      </trkpt>
      <trkpt lat="49.86131" lon="2.19792">
        <ele>109.4</ele>
        <time>2022-12-09T13:52:38Z</time>
      </trkpt>
      <trkpt lat="49.8613" lon="2.1979">
        <ele>109.4</ele>
        <time>2022-12-09T13:52:39Z</time>
      </trkpt>
      <trkpt lat="49.86129" lon="2.19789">
        <ele>109.4</ele>
        <time>2022-12-09T13:52:40Z</time>
      </trkpt>
      <trkpt lat="49.86128" lon="2.19786">
        <ele>109.3</ele>
        <time>2022-12-09T13:52:42Z</time>
      </trkpt>
      <trkpt lat="49.86127" lon="2.19785">
        <ele>109.3</ele>
        <time>2022-12-09T13:52:43Z</time>
      </trkpt>
      <trkpt lat="49.86126" lon="2.19783">
        <ele>109.3</ele>
        <time>2022-12-09T13:52:44Z</time>
      </trkpt>
      <trkpt lat="49.86125" lon="2.19781">
        <ele>109.3</ele>
        <time>2022-12-09T13:52:45Z</time>
      </trkpt>
      <trkpt lat="49.86125" lon="2.19779">
        <ele>109.3</ele>
        <time>2022-12-09T13:52:46Z</time>
      </trkpt>
      <trkpt lat="49.86124" lon="2.19777">
        <ele>109.3</ele>
        <time>2022-12-09T13:52:47Z</time>
      </trkpt>
      <trkpt lat="49.86123" lon="2.19774">
        <ele>109.3</ele>
        <time>2022-12-09T13:52:49Z</time>
      </trkpt>
      <trkpt lat="49.86122" lon="2.19773">
        <ele>109.2</ele>
        <time>2022-12-09T13:52:50Z</time>
      </trkpt>
      <trkpt lat="49.86122" lon="2.19772">
        <ele>109.2</ele>
        <time>2022-12-09T13:52:51Z</time>
      </trkpt>
      <trkpt lat="49.86121" lon="2.19771">
        <ele>109.2</ele>
        <time>2022-12-09T13:52:52Z</time>
      </trkpt>
      <trkpt lat="49.8612" lon="2.1977">
        <ele>109.2</ele>
        <time>2022-12-09T13:52:53Z</time>
      </trkpt>
      <trkpt lat="49.86119" lon="2.19769">
        <ele>109.2</ele>
        <time>2022-12-09T13:52:54Z</time>
      </trkpt>
      <trkpt lat="49.86119" lon="2.19768">
        <ele>109.2</ele>
        <time>2022-12-09T13:52:55Z</time>
      </trkpt>
      <trkpt lat="49.86118" lon="2.19766">
        <ele>109.2</ele>
        <time>2022-12-09T13:52:57Z</time>
      </trkpt>
      <trkpt lat="49.86117" lon="2.19765">
        <ele>109.2</ele>
        <time>2022-12-09T13:52:58Z</time>
      </trkpt>
      <trkpt lat="49.86116" lon="2.19763">
        <ele>109.2</ele>
        <time>2022-12-09T13:52:59Z</time>
      </trkpt>
      <trkpt lat="49.86115" lon="2.19761">
        <ele>109.2</ele>
        <time>2022-12-09T13:53:00Z</time>
      </trkpt>
      <trkpt lat="49.86115" lon="2.19759">
        <ele>109.2</ele>
        <time>2022-12-09T13:53:01Z</time>
      </trkpt>
      <trkpt lat="49.86114" lon="2.19757">
        <ele>109.2</ele>
        <time>2022-12-09T13:53:03Z</time>
      </trkpt>
      <trkpt lat="49.86113" lon="2.19755">
        <ele>109.2</ele>
        <time>2022-12-09T13:53:04Z</time>
      </trkpt>
      <trkpt lat="49.86112" lon="2.19753">
        <ele>109.1</ele>
        <time>2022-12-09T13:53:05Z</time>
      </trkpt>
      <trkpt lat="49.86111" lon="2.19751">
        <ele>109.1</ele>
        <time>2022-12-09T13:53:06Z</time>
      </trkpt>
      <trkpt lat="49.8611" lon="2.19749">
        <ele>109.1</ele>
        <time>2022-12-09T13:53:07Z</time>
      </trkpt>
      <trkpt lat="49.8611" lon="2.19748">
        <ele>109.1</ele>
        <time>2022-12-09T13:53:08Z</time>
      </trkpt>
      <trkpt lat="49.86109" lon="2.19747">
        <ele>109.1</ele>
        <time>2022-12-09T13:53:09Z</time>
      </trkpt>
      <trkpt lat="49.86109" lon="2.19746">
        <ele>109.1</ele>
        <time>2022-12-09T13:53:10Z</time>
      </trkpt>
      <trkpt lat="49.86108" lon="2.19745">
        <ele>109.1</ele>
        <time>2022-12-09T13:53:12Z</time>
      </trkpt>
      <trkpt lat="49.86107" lon="2.19744">
        <ele>109.1</ele>
        <time>2022-12-09T13:53:13Z</time>
      </trkpt>
      <trkpt lat="49.86106" lon="2.19742">
        <ele>109.1</ele>
        <time>2022-12-09T13:53:14Z</time>
      </trkpt>
      <trkpt lat="49.86106" lon="2.19741">
        <ele>109.1</ele>
        <time>2022-12-09T13:53:15Z</time>
      </trkpt>
      <trkpt lat="49.86105" lon="2.19739">
        <ele>109.1</ele>
        <time>2022-12-09T13:53:16Z</time>
      </trkpt>
      <trkpt lat="49.86105" lon="2.19738">
        <ele>109.1</ele>
        <time>2022-12-09T13:53:17Z</time>
      </trkpt>
      <trkpt lat="49.86104" lon="2.19737">
        <ele>109.1</ele>
        <time>2022-12-09T13:53:18Z</time>
      </trkpt>
      <trkpt lat="49.86103" lon="2.19736">
        <ele>109.1</ele>
        <time>2022-12-09T13:53:19Z</time>
      </trkpt>
      <trkpt lat="49.86103" lon="2.19734">
        <ele>109.1</ele>
        <time>2022-12-09T13:53:20Z</time>
      </trkpt>
      <trkpt lat="49.86102" lon="2.19733">
        <ele>109.1</ele>
        <time>2022-12-09T13:53:21Z</time>
      </trkpt>
      <trkpt lat="49.86101" lon="2.1973">
        <ele>109.1</ele>
        <time>2022-12-09T13:53:22Z</time>
      </trkpt>
      <trkpt lat="49.86101" lon="2.19729">
        <ele>109.1</ele>
        <time>2022-12-09T13:53:24Z</time>
      </trkpt>
      <trkpt lat="49.861" lon="2.19728">
        <ele>109.1</ele>
        <time>2022-12-09T13:53:25Z</time>
      </trkpt>
      <trkpt lat="49.86099" lon="2.19725">
        <ele>109.1</ele>
        <time>2022-12-09T13:53:26Z</time>
      </trkpt>
      <trkpt lat="49.86098" lon="2.19724">
        <ele>109.1</ele>
        <time>2022-12-09T13:53:27Z</time>
      </trkpt>
      <trkpt lat="49.86098" lon="2.19723">
        <ele>109.2</ele>
        <time>2022-12-09T13:53:28Z</time>
      </trkpt>
      <trkpt lat="49.86097" lon="2.19721">
        <ele>109.2</ele>
        <time>2022-12-09T13:53:29Z</time>
      </trkpt>
      <trkpt lat="49.86096" lon="2.1972">
        <ele>109.2</ele>
        <time>2022-12-09T13:53:30Z</time>
      </trkpt>
      <trkpt lat="49.86095" lon="2.19718">
        <ele>109.2</ele>
        <time>2022-12-09T13:53:31Z</time>
      </trkpt>
      <trkpt lat="49.86095" lon="2.19717">
        <ele>109.2</ele>
        <time>2022-12-09T13:53:32Z</time>
      </trkpt>
      <trkpt lat="49.86094" lon="2.19716">
        <ele>109.2</ele>
        <time>2022-12-09T13:53:33Z</time>
      </trkpt>
      <trkpt lat="49.86093" lon="2.19713">
        <ele>109.2</ele>
        <time>2022-12-09T13:53:35Z</time>
      </trkpt>
      <trkpt lat="49.86092" lon="2.19712">
        <ele>109.2</ele>
        <time>2022-12-09T13:53:36Z</time>
      </trkpt>
      <trkpt lat="49.86092" lon="2.1971">
        <ele>109.2</ele>
        <time>2022-12-09T13:53:37Z</time>
      </trkpt>
      <trkpt lat="49.86091" lon="2.19708">
        <ele>109.2</ele>
        <time>2022-12-09T13:53:38Z</time>
      </trkpt>
      <trkpt lat="49.8609" lon="2.19706">
        <ele>109.2</ele>
        <time>2022-12-09T13:53:39Z</time>
      </trkpt>
      <trkpt lat="49.8609" lon="2.19705">
        <ele>109.2</ele>
        <time>2022-12-09T13:53:40Z</time>
      </trkpt>
      <trkpt lat="49.86089" lon="2.19702">
        <ele>109.3</ele>
        <time>2022-12-09T13:53:41Z</time>
      </trkpt>
      <trkpt lat="49.86088" lon="2.19701">
        <ele>109.3</ele>
        <time>2022-12-09T13:53:43Z</time>
      </trkpt>
      <trkpt lat="49.86087" lon="2.19699">
        <ele>109.3</ele>
        <time>2022-12-09T13:53:44Z</time>
      </trkpt>
      <trkpt lat="49.86087" lon="2.19698">
        <ele>109.3</ele>
        <time>2022-12-09T13:53:45Z</time>
      </trkpt>
      <trkpt lat="49.86086" lon="2.19697">
        <ele>109.3</ele>
        <time>2022-12-09T13:53:46Z</time>
      </trkpt>
      <trkpt lat="49.86086" lon="2.19695">
        <ele>109.3</ele>
        <time>2022-12-09T13:53:47Z</time>
      </trkpt>
      <trkpt lat="49.86085" lon="2.19694">
        <ele>109.3</ele>
        <time>2022-12-09T13:53:48Z</time>
      </trkpt>
      <trkpt lat="49.86084" lon="2.19693">
        <ele>109.3</ele>
        <time>2022-12-09T13:53:49Z</time>
      </trkpt>
      <trkpt lat="49.86084" lon="2.19691">
        <ele>109.4</ele>
        <time>2022-12-09T13:53:50Z</time>
      </trkpt>
      <trkpt lat="49.86083" lon="2.19689">
        <ele>109.4</ele>
        <time>2022-12-09T13:53:51Z</time>
      </trkpt>
      <trkpt lat="49.86083" lon="2.19688">
        <ele>109.4</ele>
        <time>2022-12-09T13:53:52Z</time>
      </trkpt>
      <trkpt lat="49.86082" lon="2.19685">
        <ele>109.4</ele>
        <time>2022-12-09T13:53:53Z</time>
      </trkpt>
      <trkpt lat="49.86081" lon="2.19684">
        <ele>109.4</ele>
        <time>2022-12-09T13:53:55Z</time>
      </trkpt>
      <trkpt lat="49.86081" lon="2.19682">
        <ele>109.4</ele>
        <time>2022-12-09T13:53:56Z</time>
      </trkpt>
      <trkpt lat="49.8608" lon="2.19681">
        <ele>109.4</ele>
        <time>2022-12-09T13:53:57Z</time>
      </trkpt>
      <trkpt lat="49.86079" lon="2.19679">
        <ele>109.5</ele>
        <time>2022-12-09T13:53:58Z</time>
      </trkpt>
      <trkpt lat="49.86079" lon="2.19678">
        <ele>109.5</ele>
        <time>2022-12-09T13:53:59Z</time>
      </trkpt>
      <trkpt lat="49.86078" lon="2.19675">
        <ele>109.5</ele>
        <time>2022-12-09T13:54:00Z</time>
      </trkpt>
      <trkpt lat="49.86077" lon="2.19674">
        <ele>109.5</ele>
        <time>2022-12-09T13:54:02Z</time>
      </trkpt>
      <trkpt lat="49.86077" lon="2.19673">
        <ele>109.5</ele>
        <time>2022-12-09T13:54:03Z</time>
      </trkpt>
      <trkpt lat="49.86076" lon="2.19671">
        <ele>109.5</ele>
        <time>2022-12-09T13:54:04Z</time>
      </trkpt>
      <trkpt lat="49.86075" lon="2.1967">
        <ele>109.5</ele>
        <time>2022-12-09T13:54:05Z</time>
      </trkpt>
      <trkpt lat="49.86075" lon="2.19669">
        <ele>109.5</ele>
        <time>2022-12-09T13:54:06Z</time>
      </trkpt>
      <trkpt lat="49.86074" lon="2.19667">
        <ele>109.5</ele>
        <time>2022-12-09T13:54:07Z</time>
      </trkpt>
      <trkpt lat="49.86074" lon="2.19666">
        <ele>109.5</ele>
        <time>2022-12-09T13:54:08Z</time>
      </trkpt>
      <trkpt lat="49.86073" lon="2.19665">
        <ele>109.6</ele>
        <time>2022-12-09T13:54:09Z</time>
      </trkpt>
      <trkpt lat="49.86073" lon="2.19663">
        <ele>109.6</ele>
        <time>2022-12-09T13:54:11Z</time>
      </trkpt>
      <trkpt lat="49.86072" lon="2.19662">
        <ele>109.6</ele>
        <time>2022-12-09T13:54:12Z</time>
      </trkpt>
      <trkpt lat="49.86071" lon="2.1966">
        <ele>109.6</ele>
        <time>2022-12-09T13:54:13Z</time>
      </trkpt>
      <trkpt lat="49.8607" lon="2.19658">
        <ele>109.6</ele>
        <time>2022-12-09T13:54:14Z</time>
      </trkpt>
      <trkpt lat="49.8607" lon="2.19657">
        <ele>109.6</ele>
        <time>2022-12-09T13:54:15Z</time>
      </trkpt>
      <trkpt lat="49.86069" lon="2.19656">
        <ele>109.6</ele>
        <time>2022-12-09T13:54:16Z</time>
      </trkpt>
      <trkpt lat="49.86068" lon="2.19654">
        <ele>109.6</ele>
        <time>2022-12-09T13:54:17Z</time>
      </trkpt>
      <trkpt lat="49.86068" lon="2.19653">
        <ele>109.6</ele>
        <time>2022-12-09T13:54:18Z</time>
      </trkpt>
      <trkpt lat="49.86067" lon="2.19652">
        <ele>109.6</ele>
        <time>2022-12-09T13:54:19Z</time>
      </trkpt>
      <trkpt lat="49.86066" lon="2.19649">
        <ele>109.7</ele>
        <time>2022-12-09T13:54:21Z</time>
      </trkpt>
      <trkpt lat="49.86066" lon="2.19648">
        <ele>109.7</ele>
        <time>2022-12-09T13:54:22Z</time>
      </trkpt>
      <trkpt lat="49.86065" lon="2.19646">
        <ele>109.7</ele>
        <time>2022-12-09T13:54:23Z</time>
      </trkpt>
      <trkpt lat="49.86064" lon="2.19644">
        <ele>109.7</ele>
        <time>2022-12-09T13:54:24Z</time>
      </trkpt>
      <trkpt lat="49.86064" lon="2.19643">
        <ele>109.7</ele>
        <time>2022-12-09T13:54:25Z</time>
      </trkpt>
      <trkpt lat="49.86063" lon="2.19642">
        <ele>109.7</ele>
        <time>2022-12-09T13:54:26Z</time>
      </trkpt>
      <trkpt lat="49.86062" lon="2.19639">
        <ele>109.7</ele>
        <time>2022-12-09T13:54:27Z</time>
      </trkpt>
      <trkpt lat="49.86061" lon="2.19638">
        <ele>109.7</ele>
        <time>2022-12-09T13:54:28Z</time>
      </trkpt>
      <trkpt lat="49.86061" lon="2.19637">
        <ele>109.8</ele>
        <time>2022-12-09T13:54:29Z</time>
      </trkpt>
      <trkpt lat="49.8606" lon="2.19634">
        <ele>109.8</ele>
        <time>2022-12-09T13:54:30Z</time>
      </trkpt>
      <trkpt lat="49.86059" lon="2.19633">
        <ele>109.8</ele>
        <time>2022-12-09T13:54:31Z</time>
      </trkpt>
      <trkpt lat="49.86059" lon="2.19631">
        <ele>109.8</ele>
        <time>2022-12-09T13:54:33Z</time>
      </trkpt>
      <trkpt lat="49.86058" lon="2.1963">
        <ele>109.8</ele>
        <time>2022-12-09T13:54:34Z</time>
      </trkpt>
      <trkpt lat="49.86058" lon="2.19629">
        <ele>109.8</ele>
        <time>2022-12-09T13:54:35Z</time>
      </trkpt>
      <trkpt lat="49.86057" lon="2.19627">
        <ele>109.8</ele>
        <time>2022-12-09T13:54:36Z</time>
      </trkpt>
      <trkpt lat="49.86056" lon="2.19626">
        <ele>109.9</ele>
        <time>2022-12-09T13:54:37Z</time>
      </trkpt>
      <trkpt lat="49.86055" lon="2.19624">
        <ele>109.9</ele>
        <time>2022-12-09T13:54:38Z</time>
      </trkpt>
      <trkpt lat="49.86054" lon="2.19621">
        <ele>109.9</ele>
        <time>2022-12-09T13:54:39Z</time>
      </trkpt>
      <trkpt lat="49.86054" lon="2.1962">
        <ele>109.9</ele>
        <time>2022-12-09T13:54:40Z</time>
      </trkpt>
      <trkpt lat="49.86053" lon="2.19619">
        <ele>109.9</ele>
        <time>2022-12-09T13:54:41Z</time>
      </trkpt>
      <trkpt lat="49.86052" lon="2.19616">
        <ele>110</ele>
        <time>2022-12-09T13:54:43Z</time>
      </trkpt>
      <trkpt lat="49.86052" lon="2.19615">
        <ele>110</ele>
        <time>2022-12-09T13:54:44Z</time>
      </trkpt>
      <trkpt lat="49.86051" lon="2.19614">
        <ele>110</ele>
        <time>2022-12-09T13:54:45Z</time>
      </trkpt>
      <trkpt lat="49.8605" lon="2.19612">
        <ele>110</ele>
        <time>2022-12-09T13:54:46Z</time>
      </trkpt>
      <trkpt lat="49.86049" lon="2.19611">
        <ele>110</ele>
        <time>2022-12-09T13:54:47Z</time>
      </trkpt>
      <trkpt lat="49.86049" lon="2.1961">
        <ele>110</ele>
        <time>2022-12-09T13:54:48Z</time>
      </trkpt>
      <trkpt lat="49.86047" lon="2.19607">
        <ele>110.1</ele>
        <time>2022-12-09T13:54:50Z</time>
      </trkpt>
      <trkpt lat="49.86047" lon="2.19606">
        <ele>110.1</ele>
        <time>2022-12-09T13:54:51Z</time>
      </trkpt>
      <trkpt lat="49.86046" lon="2.19605">
        <ele>110.1</ele>
        <time>2022-12-09T13:54:52Z</time>
      </trkpt>
      <trkpt lat="49.86046" lon="2.19604">
        <ele>110.1</ele>
        <time>2022-12-09T13:54:53Z</time>
      </trkpt>
      <trkpt lat="49.86045" lon="2.19603">
        <ele>110.1</ele>
        <time>2022-12-09T13:54:54Z</time>
      </trkpt>
      <trkpt lat="49.86044" lon="2.19602">
        <ele>110.1</ele>
        <time>2022-12-09T13:54:55Z</time>
      </trkpt>
      <trkpt lat="49.86044" lon="2.196">
        <ele>110.1</ele>
        <time>2022-12-09T13:54:56Z</time>
      </trkpt>
      <trkpt lat="49.86043" lon="2.19599">
        <ele>110.2</ele>
        <time>2022-12-09T13:54:57Z</time>
      </trkpt>
      <trkpt lat="49.86042" lon="2.19597">
        <ele>110.2</ele>
        <time>2022-12-09T13:54:59Z</time>
      </trkpt>
      <trkpt lat="49.86042" lon="2.19596">
        <ele>110.2</ele>
        <time>2022-12-09T13:55:00Z</time>
      </trkpt>
      <trkpt lat="49.86041" lon="2.19594">
        <ele>110.2</ele>
        <time>2022-12-09T13:55:01Z</time>
      </trkpt>
      <trkpt lat="49.86041" lon="2.19592">
        <ele>110.2</ele>
        <time>2022-12-09T13:55:02Z</time>
      </trkpt>
      <trkpt lat="49.8604" lon="2.1959">
        <ele>110.3</ele>
        <time>2022-12-09T13:55:03Z</time>
      </trkpt>
      <trkpt lat="49.86039" lon="2.19589">
        <ele>110.3</ele>
        <time>2022-12-09T13:55:04Z</time>
      </trkpt>
      <trkpt lat="49.86039" lon="2.19588">
        <ele>110.3</ele>
        <time>2022-12-09T13:55:05Z</time>
      </trkpt>
      <trkpt lat="49.86038" lon="2.19586">
        <ele>110.3</ele>
        <time>2022-12-09T13:55:06Z</time>
      </trkpt>
      <trkpt lat="49.86038" lon="2.19585">
        <ele>110.3</ele>
        <time>2022-12-09T13:55:07Z</time>
      </trkpt>
      <trkpt lat="49.86037" lon="2.19583">
        <ele>110.4</ele>
        <time>2022-12-09T13:55:08Z</time>
      </trkpt>
      <trkpt lat="49.86036" lon="2.1958">
        <ele>110.4</ele>
        <time>2022-12-09T13:55:10Z</time>
      </trkpt>
      <trkpt lat="49.86036" lon="2.19579">
        <ele>110.4</ele>
        <time>2022-12-09T13:55:11Z</time>
      </trkpt>
      <trkpt lat="49.86036" lon="2.19578">
        <ele>110.4</ele>
        <time>2022-12-09T13:55:12Z</time>
      </trkpt>
      <trkpt lat="49.86035" lon="2.19576">
        <ele>110.4</ele>
        <time>2022-12-09T13:55:13Z</time>
      </trkpt>
      <trkpt lat="49.86034" lon="2.19575">
        <ele>110.4</ele>
        <time>2022-12-09T13:55:14Z</time>
      </trkpt>
      <trkpt lat="49.86033" lon="2.19574">
        <ele>110.4</ele>
        <time>2022-12-09T13:55:15Z</time>
      </trkpt>
      <trkpt lat="49.86033" lon="2.19572">
        <ele>110.4</ele>
        <time>2022-12-09T13:55:16Z</time>
      </trkpt>
      <trkpt lat="49.86032" lon="2.19571">
        <ele>110.5</ele>
        <time>2022-12-09T13:55:17Z</time>
      </trkpt>
      <trkpt lat="49.86032" lon="2.1957">
        <ele>110.5</ele>
        <time>2022-12-09T13:55:19Z</time>
      </trkpt>
      <trkpt lat="49.86031" lon="2.19568">
        <ele>110.5</ele>
        <time>2022-12-09T13:55:20Z</time>
      </trkpt>
      <trkpt lat="49.8603" lon="2.19567">
        <ele>110.5</ele>
        <time>2022-12-09T13:55:21Z</time>
      </trkpt>
      <trkpt lat="49.8603" lon="2.19566">
        <ele>110.5</ele>
        <time>2022-12-09T13:55:22Z</time>
      </trkpt>
      <trkpt lat="49.86029" lon="2.19564">
        <ele>110.5</ele>
        <time>2022-12-09T13:55:23Z</time>
      </trkpt>
      <trkpt lat="49.86029" lon="2.19563">
        <ele>110.5</ele>
        <time>2022-12-09T13:55:24Z</time>
      </trkpt>
      <trkpt lat="49.86028" lon="2.19561">
        <ele>110.5</ele>
        <time>2022-12-09T13:55:25Z</time>
      </trkpt>
      <trkpt lat="49.86028" lon="2.19559">
        <ele>110.5</ele>
        <time>2022-12-09T13:55:26Z</time>
      </trkpt>
      <trkpt lat="49.86028" lon="2.19558">
        <ele>110.6</ele>
        <time>2022-12-09T13:55:27Z</time>
      </trkpt>
      <trkpt lat="49.86027" lon="2.19557">
        <ele>110.6</ele>
        <time>2022-12-09T13:55:28Z</time>
      </trkpt>
      <trkpt lat="49.86026" lon="2.19554">
        <ele>110.6</ele>
        <time>2022-12-09T13:55:30Z</time>
      </trkpt>
      <trkpt lat="49.86025" lon="2.19553">
        <ele>110.6</ele>
        <time>2022-12-09T13:55:31Z</time>
      </trkpt>
      <trkpt lat="49.86025" lon="2.19551">
        <ele>110.6</ele>
        <time>2022-12-09T13:55:32Z</time>
      </trkpt>
      <trkpt lat="49.86023" lon="2.19549">
        <ele>110.6</ele>
        <time>2022-12-09T13:55:33Z</time>
      </trkpt>
      <trkpt lat="49.86023" lon="2.19547">
        <ele>110.6</ele>
        <time>2022-12-09T13:55:34Z</time>
      </trkpt>
      <trkpt lat="49.86022" lon="2.19546">
        <ele>110.6</ele>
        <time>2022-12-09T13:55:35Z</time>
      </trkpt>
      <trkpt lat="49.86021" lon="2.19544">
        <ele>110.7</ele>
        <time>2022-12-09T13:55:36Z</time>
      </trkpt>
      <trkpt lat="49.8602" lon="2.19543">
        <ele>110.7</ele>
        <time>2022-12-09T13:55:37Z</time>
      </trkpt>
      <trkpt lat="49.86019" lon="2.1954">
        <ele>110.7</ele>
        <time>2022-12-09T13:55:39Z</time>
      </trkpt>
      <trkpt lat="49.86019" lon="2.19539">
        <ele>110.7</ele>
        <time>2022-12-09T13:55:40Z</time>
      </trkpt>
      <trkpt lat="49.86018" lon="2.19537">
        <ele>110.7</ele>
        <time>2022-12-09T13:55:41Z</time>
      </trkpt>
      <trkpt lat="49.86017" lon="2.19536">
        <ele>110.7</ele>
        <time>2022-12-09T13:55:42Z</time>
      </trkpt>
      <trkpt lat="49.86017" lon="2.19534">
        <ele>110.7</ele>
        <time>2022-12-09T13:55:43Z</time>
      </trkpt>
      <trkpt lat="49.86016" lon="2.19533">
        <ele>110.7</ele>
        <time>2022-12-09T13:55:44Z</time>
      </trkpt>
      <trkpt lat="49.86015" lon="2.19531">
        <ele>110.8</ele>
        <time>2022-12-09T13:55:45Z</time>
      </trkpt>
      <trkpt lat="49.86014" lon="2.1953">
        <ele>110.8</ele>
        <time>2022-12-09T13:55:47Z</time>
      </trkpt>
      <trkpt lat="49.86013" lon="2.19527">
        <ele>110.8</ele>
        <time>2022-12-09T13:55:48Z</time>
      </trkpt>
      <trkpt lat="49.86012" lon="2.19526">
        <ele>110.8</ele>
        <time>2022-12-09T13:55:49Z</time>
      </trkpt>
      <trkpt lat="49.86012" lon="2.19525">
        <ele>110.8</ele>
        <time>2022-12-09T13:55:50Z</time>
      </trkpt>
      <trkpt lat="49.86011" lon="2.19524">
        <ele>110.8</ele>
        <time>2022-12-09T13:55:51Z</time>
      </trkpt>
      <trkpt lat="49.8601" lon="2.19523">
        <ele>110.8</ele>
        <time>2022-12-09T13:55:52Z</time>
      </trkpt>
      <trkpt lat="49.86009" lon="2.19521">
        <ele>110.8</ele>
        <time>2022-12-09T13:55:53Z</time>
      </trkpt>
      <trkpt lat="49.86009" lon="2.1952">
        <ele>110.8</ele>
        <time>2022-12-09T13:55:54Z</time>
      </trkpt>
      <trkpt lat="49.86008" lon="2.19519">
        <ele>110.8</ele>
        <time>2022-12-09T13:55:55Z</time>
      </trkpt>
      <trkpt lat="49.86007" lon="2.19517">
        <ele>110.8</ele>
        <time>2022-12-09T13:55:56Z</time>
      </trkpt>
      <trkpt lat="49.86006" lon="2.19514">
        <ele>110.9</ele>
        <time>2022-12-09T13:55:58Z</time>
      </trkpt>
      <trkpt lat="49.86006" lon="2.19513">
        <ele>110.9</ele>
        <time>2022-12-09T13:55:59Z</time>
      </trkpt>
      <trkpt lat="49.86005" lon="2.19512">
        <ele>110.9</ele>
        <time>2022-12-09T13:56:00Z</time>
      </trkpt>
      <trkpt lat="49.86004" lon="2.19511">
        <ele>110.9</ele>
        <time>2022-12-09T13:56:01Z</time>
      </trkpt>
      <trkpt lat="49.86004" lon="2.19509">
        <ele>110.9</ele>
        <time>2022-12-09T13:56:02Z</time>
      </trkpt>
      <trkpt lat="49.86003" lon="2.19508">
        <ele>110.9</ele>
        <time>2022-12-09T13:56:03Z</time>
      </trkpt>
      <trkpt lat="49.86002" lon="2.19507">
        <ele>110.9</ele>
        <time>2022-12-09T13:56:04Z</time>
      </trkpt>
      <trkpt lat="49.86001" lon="2.19506">
        <ele>110.9</ele>
        <time>2022-12-09T13:56:05Z</time>
      </trkpt>
      <trkpt lat="49.86001" lon="2.19504">
        <ele>110.9</ele>
        <time>2022-12-09T13:56:06Z</time>
      </trkpt>
      <trkpt lat="49.85999" lon="2.19502">
        <ele>110.9</ele>
        <time>2022-12-09T13:56:07Z</time>
      </trkpt>
      <trkpt lat="49.85999" lon="2.19501">
        <ele>110.9</ele>
        <time>2022-12-09T13:56:08Z</time>
      </trkpt>
      <trkpt lat="49.85998" lon="2.19499">
        <ele>110.9</ele>
        <time>2022-12-09T13:56:10Z</time>
      </trkpt>
      <trkpt lat="49.85997" lon="2.19498">
        <ele>110.9</ele>
        <time>2022-12-09T13:56:11Z</time>
      </trkpt>
      <trkpt lat="49.85997" lon="2.19497">
        <ele>110.9</ele>
        <time>2022-12-09T13:56:12Z</time>
      </trkpt>
      <trkpt lat="49.85996" lon="2.19496">
        <ele>110.9</ele>
        <time>2022-12-09T13:56:13Z</time>
      </trkpt>
      <trkpt lat="49.85994" lon="2.19493">
        <ele>110.9</ele>
        <time>2022-12-09T13:56:14Z</time>
      </trkpt>
      <trkpt lat="49.85994" lon="2.19492">
        <ele>110.9</ele>
        <time>2022-12-09T13:56:15Z</time>
      </trkpt>
      <trkpt lat="49.85993" lon="2.19491">
        <ele>110.9</ele>
        <time>2022-12-09T13:56:16Z</time>
      </trkpt>
      <trkpt lat="49.85993" lon="2.19488">
        <ele>110.9</ele>
        <time>2022-12-09T13:56:18Z</time>
      </trkpt>
      <trkpt lat="49.85992" lon="2.19487">
        <ele>110.9</ele>
        <time>2022-12-09T13:56:19Z</time>
      </trkpt>
      <trkpt lat="49.85992" lon="2.19486">
        <ele>110.9</ele>
        <time>2022-12-09T13:56:20Z</time>
      </trkpt>
      <trkpt lat="49.85992" lon="2.19484">
        <ele>110.9</ele>
        <time>2022-12-09T13:56:21Z</time>
      </trkpt>
      <trkpt lat="49.85991" lon="2.19482">
        <ele>110.9</ele>
        <time>2022-12-09T13:56:22Z</time>
      </trkpt>
      <trkpt lat="49.85991" lon="2.19481">
        <ele>110.9</ele>
        <time>2022-12-09T13:56:23Z</time>
      </trkpt>
      <trkpt lat="49.8599" lon="2.19478">
        <ele>110.9</ele>
        <time>2022-12-09T13:56:24Z</time>
      </trkpt>
      <trkpt lat="49.85989" lon="2.19477">
        <ele>110.9</ele>
        <time>2022-12-09T13:56:25Z</time>
      </trkpt>
      <trkpt lat="49.85989" lon="2.19476">
        <ele>110.9</ele>
        <time>2022-12-09T13:56:26Z</time>
      </trkpt>
      <trkpt lat="49.85988" lon="2.19475">
        <ele>110.9</ele>
        <time>2022-12-09T13:56:27Z</time>
      </trkpt>
      <trkpt lat="49.85987" lon="2.19474">
        <ele>110.9</ele>
        <time>2022-12-09T13:56:29Z</time>
      </trkpt>
      <trkpt lat="49.85986" lon="2.19473">
        <ele>110.9</ele>
        <time>2022-12-09T13:56:30Z</time>
      </trkpt>
      <trkpt lat="49.85985" lon="2.19472">
        <ele>110.9</ele>
        <time>2022-12-09T13:56:31Z</time>
      </trkpt>
      <trkpt lat="49.85984" lon="2.1947">
        <ele>110.9</ele>
        <time>2022-12-09T13:56:32Z</time>
      </trkpt>
      <trkpt lat="49.85984" lon="2.19469">
        <ele>110.9</ele>
        <time>2022-12-09T13:56:33Z</time>
      </trkpt>
      <trkpt lat="49.85983" lon="2.19468">
        <ele>110.9</ele>
        <time>2022-12-09T13:56:34Z</time>
      </trkpt>
      <trkpt lat="49.85982" lon="2.19467">
        <ele>111</ele>
        <time>2022-12-09T13:56:35Z</time>
      </trkpt>
      <trkpt lat="49.85981" lon="2.19465">
        <ele>111</ele>
        <time>2022-12-09T13:56:36Z</time>
      </trkpt>
      <trkpt lat="49.85981" lon="2.19462">
        <ele>111</ele>
        <time>2022-12-09T13:56:37Z</time>
      </trkpt>
      <trkpt lat="49.8598" lon="2.19461">
        <ele>111</ele>
        <time>2022-12-09T13:56:39Z</time>
      </trkpt>
      <trkpt lat="49.8598" lon="2.19459">
        <ele>111</ele>
        <time>2022-12-09T13:56:40Z</time>
      </trkpt>
      <trkpt lat="49.85979" lon="2.19458">
        <ele>111</ele>
        <time>2022-12-09T13:56:41Z</time>
      </trkpt>
      <trkpt lat="49.85979" lon="2.19455">
        <ele>111</ele>
        <time>2022-12-09T13:56:42Z</time>
      </trkpt>
      <trkpt lat="49.85979" lon="2.19454">
        <ele>111</ele>
        <time>2022-12-09T13:56:43Z</time>
      </trkpt>
      <trkpt lat="49.85978" lon="2.19451">
        <ele>111.1</ele>
        <time>2022-12-09T13:56:44Z</time>
      </trkpt>
      <trkpt lat="49.85978" lon="2.1945">
        <ele>111.1</ele>
        <time>2022-12-09T13:56:46Z</time>
      </trkpt>
      <trkpt lat="49.85977" lon="2.19448">
        <ele>111.1</ele>
        <time>2022-12-09T13:56:47Z</time>
      </trkpt>
      <trkpt lat="49.85977" lon="2.19447">
        <ele>111.1</ele>
        <time>2022-12-09T13:56:48Z</time>
      </trkpt>
      <trkpt lat="49.85976" lon="2.19445">
        <ele>111.1</ele>
        <time>2022-12-09T13:56:49Z</time>
      </trkpt>
      <trkpt lat="49.85975" lon="2.19443">
        <ele>111.1</ele>
        <time>2022-12-09T13:56:50Z</time>
      </trkpt>
      <trkpt lat="49.85975" lon="2.19442">
        <ele>111.1</ele>
        <time>2022-12-09T13:56:51Z</time>
      </trkpt>
      <trkpt lat="49.85974" lon="2.19441">
        <ele>111.1</ele>
        <time>2022-12-09T13:56:52Z</time>
      </trkpt>
      <trkpt lat="49.85974" lon="2.19439">
        <ele>111.2</ele>
        <time>2022-12-09T13:56:53Z</time>
      </trkpt>
      <trkpt lat="49.85973" lon="2.19438">
        <ele>111.2</ele>
        <time>2022-12-09T13:56:54Z</time>
      </trkpt>
      <trkpt lat="49.85972" lon="2.19436">
        <ele>111.2</ele>
        <time>2022-12-09T13:56:56Z</time>
      </trkpt>
      <trkpt lat="49.85971" lon="2.19434">
        <ele>111.2</ele>
        <time>2022-12-09T13:56:57Z</time>
      </trkpt>
      <trkpt lat="49.85971" lon="2.19432">
        <ele>111.2</ele>
        <time>2022-12-09T13:56:58Z</time>
      </trkpt>
      <trkpt lat="49.8597" lon="2.1943">
        <ele>111.2</ele>
        <time>2022-12-09T13:56:59Z</time>
      </trkpt>
      <trkpt lat="49.85969" lon="2.19428">
        <ele>111.2</ele>
        <time>2022-12-09T13:57:00Z</time>
      </trkpt>
      <trkpt lat="49.85969" lon="2.19426">
        <ele>111.3</ele>
        <time>2022-12-09T13:57:01Z</time>
      </trkpt>
      <trkpt lat="49.85968" lon="2.19425">
        <ele>111.3</ele>
        <time>2022-12-09T13:57:02Z</time>
      </trkpt>
      <trkpt lat="49.85968" lon="2.19423">
        <ele>111.3</ele>
        <time>2022-12-09T13:57:04Z</time>
      </trkpt>
      <trkpt lat="49.85967" lon="2.1942">
        <ele>111.3</ele>
        <time>2022-12-09T13:57:05Z</time>
      </trkpt>
      <trkpt lat="49.85966" lon="2.19419">
        <ele>111.3</ele>
        <time>2022-12-09T13:57:06Z</time>
      </trkpt>
      <trkpt lat="49.85966" lon="2.19418">
        <ele>111.3</ele>
        <time>2022-12-09T13:57:07Z</time>
      </trkpt>
      <trkpt lat="49.85964" lon="2.19416">
        <ele>111.3</ele>
        <time>2022-12-09T13:57:08Z</time>
      </trkpt>
      <trkpt lat="49.85964" lon="2.19415">
        <ele>111.4</ele>
        <time>2022-12-09T13:57:09Z</time>
      </trkpt>
      <trkpt lat="49.85963" lon="2.19414">
        <ele>111.4</ele>
        <time>2022-12-09T13:57:10Z</time>
      </trkpt>
      <trkpt lat="49.85962" lon="2.19413">
        <ele>111.4</ele>
        <time>2022-12-09T13:57:11Z</time>
      </trkpt>
      <trkpt lat="49.85962" lon="2.19412">
        <ele>111.4</ele>
        <time>2022-12-09T13:57:12Z</time>
      </trkpt>
      <trkpt lat="49.85961" lon="2.1941">
        <ele>111.4</ele>
        <time>2022-12-09T13:57:14Z</time>
      </trkpt>
      <trkpt lat="49.8596" lon="2.19409">
        <ele>111.4</ele>
        <time>2022-12-09T13:57:15Z</time>
      </trkpt>
      <trkpt lat="49.85959" lon="2.19407">
        <ele>111.4</ele>
        <time>2022-12-09T13:57:16Z</time>
      </trkpt>
      <trkpt lat="49.85959" lon="2.19406">
        <ele>111.4</ele>
        <time>2022-12-09T13:57:17Z</time>
      </trkpt>
      <trkpt lat="49.85958" lon="2.19405">
        <ele>111.5</ele>
        <time>2022-12-09T13:57:18Z</time>
      </trkpt>
      <trkpt lat="49.85958" lon="2.19403">
        <ele>111.5</ele>
        <time>2022-12-09T13:57:19Z</time>
      </trkpt>
      <trkpt lat="49.85957" lon="2.19402">
        <ele>111.5</ele>
        <time>2022-12-09T13:57:20Z</time>
      </trkpt>
      <trkpt lat="49.85956" lon="2.19399">
        <ele>111.5</ele>
        <time>2022-12-09T13:57:21Z</time>
      </trkpt>
      <trkpt lat="49.85955" lon="2.19397">
        <ele>111.5</ele>
        <time>2022-12-09T13:57:23Z</time>
      </trkpt>
      <trkpt lat="49.85954" lon="2.19396">
        <ele>111.5</ele>
        <time>2022-12-09T13:57:24Z</time>
      </trkpt>
      <trkpt lat="49.85954" lon="2.19395">
        <ele>111.5</ele>
        <time>2022-12-09T13:57:25Z</time>
      </trkpt>
      <trkpt lat="49.85953" lon="2.19393">
        <ele>111.6</ele>
        <time>2022-12-09T13:57:26Z</time>
      </trkpt>
      <trkpt lat="49.85952" lon="2.19391">
        <ele>111.6</ele>
        <time>2022-12-09T13:57:28Z</time>
      </trkpt>
      <trkpt lat="49.85951" lon="2.1939">
        <ele>111.6</ele>
        <time>2022-12-09T13:57:29Z</time>
      </trkpt>
      <trkpt lat="49.8595" lon="2.19388">
        <ele>111.6</ele>
        <time>2022-12-09T13:57:30Z</time>
      </trkpt>
      <trkpt lat="49.85949" lon="2.19386">
        <ele>111.6</ele>
        <time>2022-12-09T13:57:31Z</time>
      </trkpt>
      <trkpt lat="49.85949" lon="2.19385">
        <ele>111.6</ele>
        <time>2022-12-09T13:57:32Z</time>
      </trkpt>
      <trkpt lat="49.85948" lon="2.19384">
        <ele>111.6</ele>
        <time>2022-12-09T13:57:33Z</time>
      </trkpt>
      <trkpt lat="49.85947" lon="2.19382">
        <ele>111.7</ele>
        <time>2022-12-09T13:57:34Z</time>
      </trkpt>
      <trkpt lat="49.85947" lon="2.19381">
        <ele>111.7</ele>
        <time>2022-12-09T13:57:35Z</time>
      </trkpt>
      <trkpt lat="49.85947" lon="2.1938">
        <ele>111.7</ele>
        <time>2022-12-09T13:57:36Z</time>
      </trkpt>
      <trkpt lat="49.85946" lon="2.19378">
        <ele>111.7</ele>
        <time>2022-12-09T13:57:38Z</time>
      </trkpt>
      <trkpt lat="49.85945" lon="2.19376">
        <ele>111.7</ele>
        <time>2022-12-09T13:57:39Z</time>
      </trkpt>
      <trkpt lat="49.85944" lon="2.19373">
        <ele>111.7</ele>
        <time>2022-12-09T13:57:40Z</time>
      </trkpt>
      <trkpt lat="49.85944" lon="2.19372">
        <ele>111.7</ele>
        <time>2022-12-09T13:57:41Z</time>
      </trkpt>
      <trkpt lat="49.85944" lon="2.19371">
        <ele>111.7</ele>
        <time>2022-12-09T13:57:42Z</time>
      </trkpt>
      <trkpt lat="49.85942" lon="2.19367">
        <ele>111.7</ele>
        <time>2022-12-09T13:57:43Z</time>
      </trkpt>
      <trkpt lat="49.85942" lon="2.19366">
        <ele>111.7</ele>
        <time>2022-12-09T13:57:45Z</time>
      </trkpt>
      <trkpt lat="49.85941" lon="2.19364">
        <ele>111.7</ele>
        <time>2022-12-09T13:57:46Z</time>
      </trkpt>
      <trkpt lat="49.85941" lon="2.19363">
        <ele>111.7</ele>
        <time>2022-12-09T13:57:47Z</time>
      </trkpt>
      <trkpt lat="49.8594" lon="2.19362">
        <ele>111.8</ele>
        <time>2022-12-09T13:57:48Z</time>
      </trkpt>
      <trkpt lat="49.8594" lon="2.1936">
        <ele>111.8</ele>
        <time>2022-12-09T13:57:49Z</time>
      </trkpt>
      <trkpt lat="49.85939" lon="2.19359">
        <ele>111.8</ele>
        <time>2022-12-09T13:57:50Z</time>
      </trkpt>
      <trkpt lat="49.85938" lon="2.19357">
        <ele>111.8</ele>
        <time>2022-12-09T13:57:51Z</time>
      </trkpt>
      <trkpt lat="49.85938" lon="2.19356">
        <ele>111.8</ele>
        <time>2022-12-09T13:57:52Z</time>
      </trkpt>
      <trkpt lat="49.85938" lon="2.19355">
        <ele>111.8</ele>
        <time>2022-12-09T13:57:53Z</time>
      </trkpt>
      <trkpt lat="49.85937" lon="2.19353">
        <ele>111.8</ele>
        <time>2022-12-09T13:57:54Z</time>
      </trkpt>
      <trkpt lat="49.85936" lon="2.1935">
        <ele>111.8</ele>
        <time>2022-12-09T13:57:56Z</time>
      </trkpt>
      <trkpt lat="49.85936" lon="2.19349">
        <ele>111.8</ele>
        <time>2022-12-09T13:57:57Z</time>
      </trkpt>
      <trkpt lat="49.85935" lon="2.19348">
        <ele>111.8</ele>
        <time>2022-12-09T13:57:58Z</time>
      </trkpt>
      <trkpt lat="49.85934" lon="2.19344">
        <ele>111.8</ele>
        <time>2022-12-09T13:57:59Z</time>
      </trkpt>
      <trkpt lat="49.85934" lon="2.19343">
        <ele>111.8</ele>
        <time>2022-12-09T13:58:00Z</time>
      </trkpt>
      <trkpt lat="49.85933" lon="2.19342">
        <ele>111.8</ele>
        <time>2022-12-09T13:58:01Z</time>
      </trkpt>
      <trkpt lat="49.85933" lon="2.1934">
        <ele>111.9</ele>
        <time>2022-12-09T13:58:02Z</time>
      </trkpt>
      <trkpt lat="49.85932" lon="2.19338">
        <ele>111.9</ele>
        <time>2022-12-09T13:58:03Z</time>
      </trkpt>
      <trkpt lat="49.85931" lon="2.19336">
        <ele>111.9</ele>
        <time>2022-12-09T13:58:05Z</time>
      </trkpt>
      <trkpt lat="49.8593" lon="2.19335">
        <ele>111.9</ele>
        <time>2022-12-09T13:58:06Z</time>
      </trkpt>
      <trkpt lat="49.85929" lon="2.19332">
        <ele>111.9</ele>
        <time>2022-12-09T13:58:07Z</time>
      </trkpt>
      <trkpt lat="49.85928" lon="2.19331">
        <ele>111.9</ele>
        <time>2022-12-09T13:58:08Z</time>
      </trkpt>
      <trkpt lat="49.85928" lon="2.1933">
        <ele>111.9</ele>
        <time>2022-12-09T13:58:09Z</time>
      </trkpt>
      <trkpt lat="49.85927" lon="2.19329">
        <ele>111.9</ele>
        <time>2022-12-09T13:58:10Z</time>
      </trkpt>
      <trkpt lat="49.85926" lon="2.19327">
        <ele>111.9</ele>
        <time>2022-12-09T13:58:11Z</time>
      </trkpt>
      <trkpt lat="49.85926" lon="2.19326">
        <ele>111.9</ele>
        <time>2022-12-09T13:58:12Z</time>
      </trkpt>
      <trkpt lat="49.85925" lon="2.19324">
        <ele>112</ele>
        <time>2022-12-09T13:58:14Z</time>
      </trkpt>
      <trkpt lat="49.85924" lon="2.19322">
        <ele>112</ele>
        <time>2022-12-09T13:58:15Z</time>
      </trkpt>
      <trkpt lat="49.85923" lon="2.1932">
        <ele>112</ele>
        <time>2022-12-09T13:58:16Z</time>
      </trkpt>
      <trkpt lat="49.85922" lon="2.19318">
        <ele>112</ele>
        <time>2022-12-09T13:58:17Z</time>
      </trkpt>
      <trkpt lat="49.85921" lon="2.19317">
        <ele>112</ele>
        <time>2022-12-09T13:58:18Z</time>
      </trkpt>
      <trkpt lat="49.8592" lon="2.19315">
        <ele>112</ele>
        <time>2022-12-09T13:58:19Z</time>
      </trkpt>
      <trkpt lat="49.85919" lon="2.19312">
        <ele>112</ele>
        <time>2022-12-09T13:58:20Z</time>
      </trkpt>
      <trkpt lat="49.85918" lon="2.19311">
        <ele>112.1</ele>
        <time>2022-12-09T13:58:22Z</time>
      </trkpt>
      <trkpt lat="49.85918" lon="2.1931">
        <ele>112.1</ele>
        <time>2022-12-09T13:58:23Z</time>
      </trkpt>
      <trkpt lat="49.85917" lon="2.19308">
        <ele>112.1</ele>
        <time>2022-12-09T13:58:24Z</time>
      </trkpt>
      <trkpt lat="49.85916" lon="2.19307">
        <ele>112.1</ele>
        <time>2022-12-09T13:58:25Z</time>
      </trkpt>
      <trkpt lat="49.85915" lon="2.19306">
        <ele>112.1</ele>
        <time>2022-12-09T13:58:26Z</time>
      </trkpt>
      <trkpt lat="49.85914" lon="2.19303">
        <ele>112.1</ele>
        <time>2022-12-09T13:58:27Z</time>
      </trkpt>
      <trkpt lat="49.85914" lon="2.19302">
        <ele>112.1</ele>
        <time>2022-12-09T13:58:29Z</time>
      </trkpt>
      <trkpt lat="49.85913" lon="2.19301">
        <ele>112.1</ele>
        <time>2022-12-09T13:58:30Z</time>
      </trkpt>
      <trkpt lat="49.85911" lon="2.19299">
        <ele>112.1</ele>
        <time>2022-12-09T13:58:31Z</time>
      </trkpt>
      <trkpt lat="49.85911" lon="2.19298">
        <ele>112.1</ele>
        <time>2022-12-09T13:58:32Z</time>
      </trkpt>
      <trkpt lat="49.8591" lon="2.19297">
        <ele>112.2</ele>
        <time>2022-12-09T13:58:33Z</time>
      </trkpt>
      <trkpt lat="49.85909" lon="2.19296">
        <ele>112.2</ele>
        <time>2022-12-09T13:58:34Z</time>
      </trkpt>
      <trkpt lat="49.85908" lon="2.19295">
        <ele>112.2</ele>
        <time>2022-12-09T13:58:35Z</time>
      </trkpt>
      <trkpt lat="49.85908" lon="2.19294">
        <ele>112.2</ele>
        <time>2022-12-09T13:58:36Z</time>
      </trkpt>
      <trkpt lat="49.85907" lon="2.19293">
        <ele>112.2</ele>
        <time>2022-12-09T13:58:37Z</time>
      </trkpt>
      <trkpt lat="49.85907" lon="2.19292">
        <ele>112.2</ele>
        <time>2022-12-09T13:58:39Z</time>
      </trkpt>
      <trkpt lat="49.85906" lon="2.1929">
        <ele>112.2</ele>
        <time>2022-12-09T13:58:40Z</time>
      </trkpt>
      <trkpt lat="49.85906" lon="2.19289">
        <ele>112.2</ele>
        <time>2022-12-09T13:58:41Z</time>
      </trkpt>
      <trkpt lat="49.85905" lon="2.19287">
        <ele>112.2</ele>
        <time>2022-12-09T13:58:42Z</time>
      </trkpt>
      <trkpt lat="49.85905" lon="2.19286">
        <ele>112.2</ele>
        <time>2022-12-09T13:58:43Z</time>
      </trkpt>
      <trkpt lat="49.85904" lon="2.19284">
        <ele>112.2</ele>
        <time>2022-12-09T13:58:44Z</time>
      </trkpt>
      <trkpt lat="49.85903" lon="2.19283">
        <ele>112.3</ele>
        <time>2022-12-09T13:58:45Z</time>
      </trkpt>
      <trkpt lat="49.85903" lon="2.19282">
        <ele>112.3</ele>
        <time>2022-12-09T13:58:46Z</time>
      </trkpt>
      <trkpt lat="49.85902" lon="2.1928">
        <ele>112.3</ele>
        <time>2022-12-09T13:58:48Z</time>
      </trkpt>
      <trkpt lat="49.85901" lon="2.19279">
        <ele>112.3</ele>
        <time>2022-12-09T13:58:49Z</time>
      </trkpt>
      <trkpt lat="49.85901" lon="2.19277">
        <ele>112.3</ele>
        <time>2022-12-09T13:58:50Z</time>
      </trkpt>
      <trkpt lat="49.859" lon="2.19276">
        <ele>112.3</ele>
        <time>2022-12-09T13:58:51Z</time>
      </trkpt>
      <trkpt lat="49.859" lon="2.19274">
        <ele>112.3</ele>
        <time>2022-12-09T13:58:52Z</time>
      </trkpt>
      <trkpt lat="49.859" lon="2.19273">
        <ele>112.3</ele>
        <time>2022-12-09T13:58:53Z</time>
      </trkpt>
      <trkpt lat="49.85899" lon="2.19271">
        <ele>112.3</ele>
        <time>2022-12-09T13:58:55Z</time>
      </trkpt>
      <trkpt lat="49.85899" lon="2.1927">
        <ele>112.3</ele>
        <time>2022-12-09T13:58:56Z</time>
      </trkpt>
      <trkpt lat="49.85898" lon="2.19269">
        <ele>112.4</ele>
        <time>2022-12-09T13:58:57Z</time>
      </trkpt>
      <trkpt lat="49.85898" lon="2.19268">
        <ele>112.4</ele>
        <time>2022-12-09T13:58:58Z</time>
      </trkpt>
      <trkpt lat="49.85898" lon="2.19267">
        <ele>112.4</ele>
        <time>2022-12-09T13:58:59Z</time>
      </trkpt>
      <trkpt lat="49.85897" lon="2.19266">
        <ele>112.4</ele>
        <time>2022-12-09T13:59:00Z</time>
      </trkpt>
      <trkpt lat="49.85896" lon="2.19266">
        <ele>112.4</ele>
        <time>2022-12-09T13:59:02Z</time>
      </trkpt>
      <trkpt lat="49.85896" lon="2.19267">
        <ele>112.4</ele>
        <time>2022-12-09T13:59:03Z</time>
      </trkpt>
      <trkpt lat="49.85895" lon="2.19267">
        <ele>112.4</ele>
        <time>2022-12-09T13:59:05Z</time>
      </trkpt>
      <trkpt lat="49.85895" lon="2.19267">
        <ele>112.4</ele>
        <time>2022-12-09T13:59:06Z</time>
      </trkpt>
      <trkpt lat="49.85895" lon="2.19268">
        <ele>112.4</ele>
        <time>2022-12-09T13:59:08Z</time>
      </trkpt>
      <trkpt lat="49.85895" lon="2.19268">
        <ele>112.4</ele>
        <time>2022-12-09T13:59:09Z</time>
      </trkpt>
      <trkpt lat="49.85895" lon="2.19269">
        <ele>112.4</ele>
        <time>2022-12-09T13:59:10Z</time>
      </trkpt>
      <trkpt lat="49.85895" lon="2.19269">
        <ele>112.4</ele>
        <time>2022-12-09T13:59:12Z</time>
      </trkpt>
      <trkpt lat="49.85895" lon="2.19269">
        <ele>112.4</ele>
        <time>2022-12-09T13:59:13Z</time>
      </trkpt>
      <trkpt lat="49.85895" lon="2.19269">
        <ele>112.4</ele>
        <time>2022-12-09T13:59:15Z</time>
      </trkpt>
      <trkpt lat="49.85895" lon="2.1927">
        <ele>112.4</ele>
        <time>2022-12-09T13:59:16Z</time>
      </trkpt>
      <trkpt lat="49.85895" lon="2.19271">
        <ele>112.4</ele>
        <time>2022-12-09T13:59:18Z</time>
      </trkpt>
      <trkpt lat="49.85895" lon="2.19271">
        <ele>112.4</ele>
        <time>2022-12-09T13:59:19Z</time>
      </trkpt>
      <trkpt lat="49.85895" lon="2.19272">
        <ele>112.4</ele>
        <time>2022-12-09T13:59:20Z</time>
      </trkpt>
      <trkpt lat="49.85896" lon="2.19273">
        <ele>112.4</ele>
        <time>2022-12-09T13:59:21Z</time>
      </trkpt>
      <trkpt lat="49.85896" lon="2.19273">
        <ele>112.4</ele>
        <time>2022-12-09T13:59:22Z</time>
      </trkpt>
      <trkpt lat="49.85896" lon="2.19273">
        <ele>112.4</ele>
        <time>2022-12-09T13:59:23Z</time>
      </trkpt>
      <trkpt lat="49.85896" lon="2.19273">
        <ele>112.4</ele>
        <time>2022-12-09T13:59:24Z</time>
      </trkpt>
      <trkpt lat="49.85896" lon="2.19274">
        <ele>112.4</ele>
        <time>2022-12-09T13:59:25Z</time>
      </trkpt>
      <trkpt lat="49.85896" lon="2.19274">
        <ele>112.4</ele>
        <time>2022-12-09T13:59:26Z</time>
      </trkpt>
      <trkpt lat="49.85896" lon="2.19274">
        <ele>112.4</ele>
        <time>2022-12-09T13:59:27Z</time>
      </trkpt>
      <trkpt lat="49.85896" lon="2.19274">
        <ele>112.4</ele>
        <time>2022-12-09T13:59:29Z</time>
      </trkpt>
      <trkpt lat="49.85896" lon="2.19275">
        <ele>112.4</ele>
        <time>2022-12-09T13:59:30Z</time>
      </trkpt>
      <trkpt lat="49.85896" lon="2.19275">
        <ele>112.4</ele>
        <time>2022-12-09T13:59:32Z</time>
      </trkpt>
      <trkpt lat="49.85896" lon="2.19275">
        <ele>112.4</ele>
        <time>2022-12-09T13:59:33Z</time>
      </trkpt>
      <trkpt lat="49.85897" lon="2.19276">
        <ele>112.4</ele>
        <time>2022-12-09T13:59:35Z</time>
      </trkpt>
      <trkpt lat="49.85897" lon="2.19276">
        <ele>112.4</ele>
        <time>2022-12-09T13:59:36Z</time>
      </trkpt>
      <trkpt lat="49.85897" lon="2.19277">
        <ele>112.5</ele>
        <time>2022-12-09T13:59:38Z</time>
      </trkpt>
      <trkpt lat="49.85897" lon="2.19277">
        <ele>112.5</ele>
        <time>2022-12-09T13:59:39Z</time>
      </trkpt>
      <trkpt lat="49.85897" lon="2.19277">
        <ele>112.5</ele>
        <time>2022-12-09T13:59:41Z</time>
      </trkpt>
      <trkpt lat="49.85897" lon="2.19277">
        <ele>112.5</ele>
        <time>2022-12-09T13:59:43Z</time>
      </trkpt>
      <trkpt lat="49.85898" lon="2.19277">
        <ele>112.5</ele>
        <time>2022-12-09T13:59:45Z</time>
      </trkpt>
      <trkpt lat="49.85898" lon="2.19277">
        <ele>112.5</ele>
        <time>2022-12-09T13:59:46Z</time>
      </trkpt>
      <trkpt lat="49.85898" lon="2.19276">
        <ele>112.5</ele>
        <time>2022-12-09T13:59:48Z</time>
      </trkpt>
      <trkpt lat="49.85898" lon="2.19276">
        <ele>112.5</ele>
        <time>2022-12-09T13:59:49Z</time>
      </trkpt>
      <trkpt lat="49.85898" lon="2.19276">
        <ele>112.5</ele>
        <time>2022-12-09T13:59:50Z</time>
      </trkpt>
      <trkpt lat="49.85899" lon="2.19275">
        <ele>112.5</ele>
        <time>2022-12-09T13:59:51Z</time>
      </trkpt>
      <trkpt lat="49.85899" lon="2.19275">
        <ele>112.5</ele>
        <time>2022-12-09T13:59:52Z</time>
      </trkpt>
      <trkpt lat="49.85899" lon="2.19275">
        <ele>112.5</ele>
        <time>2022-12-09T13:59:53Z</time>
      </trkpt>
      <trkpt lat="49.85899" lon="2.19275">
        <ele>112.5</ele>
        <time>2022-12-09T13:59:54Z</time>
      </trkpt>
      <trkpt lat="49.85899" lon="2.19275">
        <ele>112.5</ele>
        <time>2022-12-09T13:59:55Z</time>
      </trkpt>
      <trkpt lat="49.85899" lon="2.19275">
        <ele>112.5</ele>
        <time>2022-12-09T13:59:56Z</time>
      </trkpt>
      <trkpt lat="49.85899" lon="2.19275">
        <ele>112.5</ele>
        <time>2022-12-09T13:59:57Z</time>
      </trkpt>
      <trkpt lat="49.85899" lon="2.19275">
        <ele>112.5</ele>
        <time>2022-12-09T13:59:58Z</time>
      </trkpt>
      <trkpt lat="49.85899" lon="2.19275">
        <ele>112.5</ele>
        <time>2022-12-09T13:59:59Z</time>
      </trkpt>
      <trkpt lat="49.85899" lon="2.19275">
        <ele>112.5</ele>
        <time>2022-12-09T14:00:00Z</time>
      </trkpt>
      <trkpt lat="49.85899" lon="2.19275">
        <ele>112.5</ele>
        <time>2022-12-09T14:00:01Z</time>
      </trkpt>
      <trkpt lat="49.85899" lon="2.19276">
        <ele>112.5</ele>
        <time>2022-12-09T14:00:03Z</time>
      </trkpt>
      <trkpt lat="49.85899" lon="2.19276">
        <ele>112.5</ele>
        <time>2022-12-09T14:00:04Z</time>
      </trkpt>
      <trkpt lat="49.859" lon="2.19276">
        <ele>112.5</ele>
        <time>2022-12-09T14:00:06Z</time>
      </trkpt>
      <trkpt lat="49.859" lon="2.19276">
        <ele>112.5</ele>
        <time>2022-12-09T14:00:07Z</time>
      </trkpt>
      <trkpt lat="49.85899" lon="2.19276">
        <ele>112.5</ele>
        <time>2022-12-09T14:00:08Z</time>
      </trkpt>
      <trkpt lat="49.85899" lon="2.19277">
        <ele>112.5</ele>
        <time>2022-12-09T14:00:10Z</time>
      </trkpt>
      <trkpt lat="49.85899" lon="2.19277">
        <ele>112.5</ele>
        <time>2022-12-09T14:00:11Z</time>
      </trkpt>
      <trkpt lat="49.85898" lon="2.19277">
        <ele>112.5</ele>
        <time>2022-12-09T14:00:12Z</time>
      </trkpt>
      <trkpt lat="49.85897" lon="2.19276">
        <ele>112.5</ele>
        <time>2022-12-09T14:00:13Z</time>
      </trkpt>
      <trkpt lat="49.85897" lon="2.19276">
        <ele>112.5</ele>
        <time>2022-12-09T14:00:14Z</time>
      </trkpt>
      <trkpt lat="49.85896" lon="2.19274">
        <ele>112.6</ele>
        <time>2022-12-09T14:00:15Z</time>
      </trkpt>
      <trkpt lat="49.85895" lon="2.1927">
        <ele>112.6</ele>
        <time>2022-12-09T14:00:16Z</time>
      </trkpt>
      <trkpt lat="49.85895" lon="2.19269">
        <ele>112.6</ele>
        <time>2022-12-09T14:00:18Z</time>
      </trkpt>
      <trkpt lat="49.85895" lon="2.19267">
        <ele>112.6</ele>
        <time>2022-12-09T14:00:19Z</time>
      </trkpt>
      <trkpt lat="49.85895" lon="2.19266">
        <ele>112.6</ele>
        <time>2022-12-09T14:00:20Z</time>
      </trkpt>
      <trkpt lat="49.85895" lon="2.19264">
        <ele>112.7</ele>
        <time>2022-12-09T14:00:21Z</time>
      </trkpt>
      <trkpt lat="49.85894" lon="2.19262">
        <ele>112.7</ele>
        <time>2022-12-09T14:00:22Z</time>
      </trkpt>
      <trkpt lat="49.85894" lon="2.19261">
        <ele>112.7</ele>
        <time>2022-12-09T14:00:23Z</time>
      </trkpt>
      <trkpt lat="49.85894" lon="2.1926">
        <ele>112.7</ele>
        <time>2022-12-09T14:00:25Z</time>
      </trkpt>
      <trkpt lat="49.85894" lon="2.19258">
        <ele>112.7</ele>
        <time>2022-12-09T14:00:26Z</time>
      </trkpt>
      <trkpt lat="49.85894" lon="2.19256">
        <ele>112.7</ele>
        <time>2022-12-09T14:00:27Z</time>
      </trkpt>
      <trkpt lat="49.85894" lon="2.19255">
        <ele>112.7</ele>
        <time>2022-12-09T14:00:28Z</time>
      </trkpt>
      <trkpt lat="49.85894" lon="2.19253">
        <ele>112.8</ele>
        <time>2022-12-09T14:00:29Z</time>
      </trkpt>
      <trkpt lat="49.85894" lon="2.19252">
        <ele>112.8</ele>
        <time>2022-12-09T14:00:30Z</time>
      </trkpt>
      <trkpt lat="49.85894" lon="2.1925">
        <ele>112.8</ele>
        <time>2022-12-09T14:00:31Z</time>
      </trkpt>
      <trkpt lat="49.85894" lon="2.19249">
        <ele>112.8</ele>
        <time>2022-12-09T14:00:32Z</time>
      </trkpt>
      <trkpt lat="49.85893" lon="2.19244">
        <ele>112.8</ele>
        <time>2022-12-09T14:00:33Z</time>
      </trkpt>
      <trkpt lat="49.85893" lon="2.19242">
        <ele>112.9</ele>
        <time>2022-12-09T14:00:35Z</time>
      </trkpt>
      <trkpt lat="49.85892" lon="2.1924">
        <ele>112.9</ele>
        <time>2022-12-09T14:00:36Z</time>
      </trkpt>
      <trkpt lat="49.85892" lon="2.19237">
        <ele>112.9</ele>
        <time>2022-12-09T14:00:37Z</time>
      </trkpt>
      <trkpt lat="49.85892" lon="2.19235">
        <ele>112.9</ele>
        <time>2022-12-09T14:00:38Z</time>
      </trkpt>
      <trkpt lat="49.85892" lon="2.19233">
        <ele>113</ele>
        <time>2022-12-09T14:00:39Z</time>
      </trkpt>
      <trkpt lat="49.85892" lon="2.1923">
        <ele>113</ele>
        <time>2022-12-09T14:00:40Z</time>
      </trkpt>
      <trkpt lat="49.85892" lon="2.19227">
        <ele>113</ele>
        <time>2022-12-09T14:00:42Z</time>
      </trkpt>
      <trkpt lat="49.85891" lon="2.19225">
        <ele>113</ele>
        <time>2022-12-09T14:00:43Z</time>
      </trkpt>
      <trkpt lat="49.85891" lon="2.19222">
        <ele>113</ele>
        <time>2022-12-09T14:00:44Z</time>
      </trkpt>
      <trkpt lat="49.85891" lon="2.1922">
        <ele>113.1</ele>
        <time>2022-12-09T14:00:45Z</time>
      </trkpt>
      <trkpt lat="49.85891" lon="2.19218">
        <ele>113.1</ele>
        <time>2022-12-09T14:00:46Z</time>
      </trkpt>
      <trkpt lat="49.85891" lon="2.19216">
        <ele>113.1</ele>
        <time>2022-12-09T14:00:47Z</time>
      </trkpt>
      <trkpt lat="49.85891" lon="2.19214">
        <ele>113.1</ele>
        <time>2022-12-09T14:00:48Z</time>
      </trkpt>
      <trkpt lat="49.8589" lon="2.19212">
        <ele>113.2</ele>
        <time>2022-12-09T14:00:50Z</time>
      </trkpt>
      <trkpt lat="49.8589" lon="2.19209">
        <ele>113.2</ele>
        <time>2022-12-09T14:00:51Z</time>
      </trkpt>
      <trkpt lat="49.8589" lon="2.19207">
        <ele>113.2</ele>
        <time>2022-12-09T14:00:52Z</time>
      </trkpt>
      <trkpt lat="49.85889" lon="2.19206">
        <ele>113.2</ele>
        <time>2022-12-09T14:00:53Z</time>
      </trkpt>
      <trkpt lat="49.85888" lon="2.19203">
        <ele>113.3</ele>
        <time>2022-12-09T14:00:54Z</time>
      </trkpt>
      <trkpt lat="49.85887" lon="2.19203">
        <ele>113.3</ele>
        <time>2022-12-09T14:00:55Z</time>
      </trkpt>
      <trkpt lat="49.85887" lon="2.19202">
        <ele>113.3</ele>
        <time>2022-12-09T14:00:56Z</time>
      </trkpt>
      <trkpt lat="49.85886" lon="2.192">
        <ele>113.3</ele>
        <time>2022-12-09T14:00:57Z</time>
      </trkpt>
      <trkpt lat="49.85885" lon="2.19199">
        <ele>113.4</ele>
        <time>2022-12-09T14:00:58Z</time>
      </trkpt>
      <trkpt lat="49.85883" lon="2.19196">
        <ele>113.4</ele>
        <time>2022-12-09T14:01:00Z</time>
      </trkpt>
      <trkpt lat="49.85883" lon="2.19195">
        <ele>113.4</ele>
        <time>2022-12-09T14:01:01Z</time>
      </trkpt>
      <trkpt lat="49.85883" lon="2.19194">
        <ele>113.4</ele>
        <time>2022-12-09T14:01:02Z</time>
      </trkpt>
      <trkpt lat="49.85882" lon="2.19192">
        <ele>113.4</ele>
        <time>2022-12-09T14:01:03Z</time>
      </trkpt>
      <trkpt lat="49.85882" lon="2.19191">
        <ele>113.5</ele>
        <time>2022-12-09T14:01:04Z</time>
      </trkpt>
      <trkpt lat="49.85882" lon="2.19189">
        <ele>113.5</ele>
        <time>2022-12-09T14:01:06Z</time>
      </trkpt>
      <trkpt lat="49.85882" lon="2.19188">
        <ele>113.5</ele>
        <time>2022-12-09T14:01:07Z</time>
      </trkpt>
      <trkpt lat="49.85881" lon="2.19186">
        <ele>113.5</ele>
        <time>2022-12-09T14:01:08Z</time>
      </trkpt>
      <trkpt lat="49.85881" lon="2.19185">
        <ele>113.5</ele>
        <time>2022-12-09T14:01:09Z</time>
      </trkpt>
      <trkpt lat="49.85881" lon="2.19183">
        <ele>113.5</ele>
        <time>2022-12-09T14:01:10Z</time>
      </trkpt>
      <trkpt lat="49.85881" lon="2.19181">
        <ele>113.6</ele>
        <time>2022-12-09T14:01:11Z</time>
      </trkpt>
      <trkpt lat="49.85881" lon="2.19179">
        <ele>113.6</ele>
        <time>2022-12-09T14:01:12Z</time>
      </trkpt>
      <trkpt lat="49.85881" lon="2.19176">
        <ele>113.6</ele>
        <time>2022-12-09T14:01:13Z</time>
      </trkpt>
      <trkpt lat="49.85881" lon="2.19175">
        <ele>113.6</ele>
        <time>2022-12-09T14:01:14Z</time>
      </trkpt>
      <trkpt lat="49.85881" lon="2.19174">
        <ele>113.6</ele>
        <time>2022-12-09T14:01:15Z</time>
      </trkpt>
      <trkpt lat="49.85881" lon="2.19172">
        <ele>113.7</ele>
        <time>2022-12-09T14:01:17Z</time>
      </trkpt>
      <trkpt lat="49.85881" lon="2.1917">
        <ele>113.7</ele>
        <time>2022-12-09T14:01:18Z</time>
      </trkpt>
      <trkpt lat="49.85881" lon="2.19169">
        <ele>113.7</ele>
        <time>2022-12-09T14:01:19Z</time>
      </trkpt>
      <trkpt lat="49.85881" lon="2.19167">
        <ele>113.7</ele>
        <time>2022-12-09T14:01:20Z</time>
      </trkpt>
      <trkpt lat="49.85881" lon="2.19165">
        <ele>113.7</ele>
        <time>2022-12-09T14:01:21Z</time>
      </trkpt>
      <trkpt lat="49.85881" lon="2.19163">
        <ele>113.8</ele>
        <time>2022-12-09T14:01:22Z</time>
      </trkpt>
      <trkpt lat="49.85881" lon="2.19162">
        <ele>113.8</ele>
        <time>2022-12-09T14:01:23Z</time>
      </trkpt>
      <trkpt lat="49.85882" lon="2.1916">
        <ele>113.8</ele>
        <time>2022-12-09T14:01:24Z</time>
      </trkpt>
      <trkpt lat="49.85883" lon="2.19156">
        <ele>113.8</ele>
        <time>2022-12-09T14:01:26Z</time>
      </trkpt>
      <trkpt lat="49.85884" lon="2.19153">
        <ele>113.9</ele>
        <time>2022-12-09T14:01:28Z</time>
      </trkpt>
      <trkpt lat="49.85884" lon="2.19152">
        <ele>113.9</ele>
        <time>2022-12-09T14:01:29Z</time>
      </trkpt>
      <trkpt lat="49.85885" lon="2.1915">
        <ele>113.9</ele>
        <time>2022-12-09T14:01:30Z</time>
      </trkpt>
      <trkpt lat="49.85885" lon="2.19148">
        <ele>113.9</ele>
        <time>2022-12-09T14:01:31Z</time>
      </trkpt>
      <trkpt lat="49.85886" lon="2.19147">
        <ele>113.9</ele>
        <time>2022-12-09T14:01:32Z</time>
      </trkpt>
      <trkpt lat="49.85886" lon="2.19144">
        <ele>114</ele>
        <time>2022-12-09T14:01:33Z</time>
      </trkpt>
      <trkpt lat="49.85887" lon="2.19143">
        <ele>114</ele>
        <time>2022-12-09T14:01:34Z</time>
      </trkpt>
      <trkpt lat="49.85887" lon="2.19142">
        <ele>114</ele>
        <time>2022-12-09T14:01:35Z</time>
      </trkpt>
      <trkpt lat="49.85887" lon="2.1914">
        <ele>114</ele>
        <time>2022-12-09T14:01:36Z</time>
      </trkpt>
      <trkpt lat="49.85888" lon="2.19138">
        <ele>114</ele>
        <time>2022-12-09T14:01:38Z</time>
      </trkpt>
      <trkpt lat="49.85888" lon="2.19137">
        <ele>114</ele>
        <time>2022-12-09T14:01:39Z</time>
      </trkpt>
      <trkpt lat="49.85889" lon="2.19135">
        <ele>114.1</ele>
        <time>2022-12-09T14:01:40Z</time>
      </trkpt>
      <trkpt lat="49.85889" lon="2.19133">
        <ele>114.1</ele>
        <time>2022-12-09T14:01:41Z</time>
      </trkpt>
      <trkpt lat="49.85889" lon="2.19132">
        <ele>114.1</ele>
        <time>2022-12-09T14:01:42Z</time>
      </trkpt>
      <trkpt lat="49.8589" lon="2.1913">
        <ele>114.1</ele>
        <time>2022-12-09T14:01:43Z</time>
      </trkpt>
      <trkpt lat="49.8589" lon="2.19129">
        <ele>114.1</ele>
        <time>2022-12-09T14:01:44Z</time>
      </trkpt>
      <trkpt lat="49.8589" lon="2.19127">
        <ele>114.1</ele>
        <time>2022-12-09T14:01:45Z</time>
      </trkpt>
      <trkpt lat="49.85891" lon="2.19124">
        <ele>114.2</ele>
        <time>2022-12-09T14:01:46Z</time>
      </trkpt>
      <trkpt lat="49.85892" lon="2.19123">
        <ele>114.2</ele>
        <time>2022-12-09T14:01:47Z</time>
      </trkpt>
      <trkpt lat="49.85892" lon="2.19122">
        <ele>114.2</ele>
        <time>2022-12-09T14:01:48Z</time>
      </trkpt>
      <trkpt lat="49.85892" lon="2.19119">
        <ele>114.2</ele>
        <time>2022-12-09T14:01:50Z</time>
      </trkpt>
      <trkpt lat="49.85893" lon="2.19117">
        <ele>114.2</ele>
        <time>2022-12-09T14:01:51Z</time>
      </trkpt>
      <trkpt lat="49.85893" lon="2.19116">
        <ele>114.2</ele>
        <time>2022-12-09T14:01:52Z</time>
      </trkpt>
      <trkpt lat="49.85894" lon="2.19113">
        <ele>114.3</ele>
        <time>2022-12-09T14:01:53Z</time>
      </trkpt>
      <trkpt lat="49.85894" lon="2.19112">
        <ele>114.3</ele>
        <time>2022-12-09T14:01:54Z</time>
      </trkpt>
      <trkpt lat="49.85895" lon="2.19111">
        <ele>114.3</ele>
        <time>2022-12-09T14:01:55Z</time>
      </trkpt>
      <trkpt lat="49.85895" lon="2.19108">
        <ele>114.3</ele>
        <time>2022-12-09T14:01:56Z</time>
      </trkpt>
      <trkpt lat="49.85896" lon="2.19107">
        <ele>114.3</ele>
        <time>2022-12-09T14:01:57Z</time>
      </trkpt>
      <trkpt lat="49.85896" lon="2.19105">
        <ele>114.3</ele>
        <time>2022-12-09T14:01:58Z</time>
      </trkpt>
      <trkpt lat="49.85897" lon="2.19102">
        <ele>114.4</ele>
        <time>2022-12-09T14:02:00Z</time>
      </trkpt>
      <trkpt lat="49.85897" lon="2.19101">
        <ele>114.4</ele>
        <time>2022-12-09T14:02:01Z</time>
      </trkpt>
      <trkpt lat="49.85897" lon="2.191">
        <ele>114.4</ele>
        <time>2022-12-09T14:02:02Z</time>
      </trkpt>
      <trkpt lat="49.85897" lon="2.19098">
        <ele>114.4</ele>
        <time>2022-12-09T14:02:03Z</time>
      </trkpt>
      <trkpt lat="49.85897" lon="2.19097">
        <ele>114.4</ele>
        <time>2022-12-09T14:02:04Z</time>
      </trkpt>
      <trkpt lat="49.85898" lon="2.19095">
        <ele>114.4</ele>
        <time>2022-12-09T14:02:05Z</time>
      </trkpt>
      <trkpt lat="49.85898" lon="2.19093">
        <ele>114.5</ele>
        <time>2022-12-09T14:02:06Z</time>
      </trkpt>
      <trkpt lat="49.85898" lon="2.19091">
        <ele>114.5</ele>
        <time>2022-12-09T14:02:07Z</time>
      </trkpt>
      <trkpt lat="49.85899" lon="2.1909">
        <ele>114.5</ele>
        <time>2022-12-09T14:02:08Z</time>
      </trkpt>
      <trkpt lat="49.85899" lon="2.19088">
        <ele>114.5</ele>
        <time>2022-12-09T14:02:10Z</time>
      </trkpt>
      <trkpt lat="49.859" lon="2.19086">
        <ele>114.5</ele>
        <time>2022-12-09T14:02:11Z</time>
      </trkpt>
      <trkpt lat="49.859" lon="2.19084">
        <ele>114.5</ele>
        <time>2022-12-09T14:02:12Z</time>
      </trkpt>
      <trkpt lat="49.859" lon="2.19082">
        <ele>114.5</ele>
        <time>2022-12-09T14:02:13Z</time>
      </trkpt>
      <trkpt lat="49.85901" lon="2.19081">
        <ele>114.6</ele>
        <time>2022-12-09T14:02:14Z</time>
      </trkpt>
      <trkpt lat="49.85901" lon="2.19078">
        <ele>114.6</ele>
        <time>2022-12-09T14:02:15Z</time>
      </trkpt>
      <trkpt lat="49.85902" lon="2.19076">
        <ele>114.6</ele>
        <time>2022-12-09T14:02:17Z</time>
      </trkpt>
      <trkpt lat="49.85902" lon="2.19075">
        <ele>114.6</ele>
        <time>2022-12-09T14:02:18Z</time>
      </trkpt>
      <trkpt lat="49.85902" lon="2.19072">
        <ele>114.6</ele>
        <time>2022-12-09T14:02:19Z</time>
      </trkpt>
      <trkpt lat="49.85903" lon="2.19071">
        <ele>114.6</ele>
        <time>2022-12-09T14:02:20Z</time>
      </trkpt>
      <trkpt lat="49.85903" lon="2.19069">
        <ele>114.6</ele>
        <time>2022-12-09T14:02:21Z</time>
      </trkpt>
      <trkpt lat="49.85903" lon="2.19066">
        <ele>114.6</ele>
        <time>2022-12-09T14:02:22Z</time>
      </trkpt>
      <trkpt lat="49.85904" lon="2.19065">
        <ele>114.6</ele>
        <time>2022-12-09T14:02:23Z</time>
      </trkpt>
      <trkpt lat="49.85904" lon="2.19064">
        <ele>114.7</ele>
        <time>2022-12-09T14:02:24Z</time>
      </trkpt>
      <trkpt lat="49.85904" lon="2.19063">
        <ele>114.7</ele>
        <time>2022-12-09T14:02:25Z</time>
      </trkpt>
      <trkpt lat="49.85904" lon="2.19061">
        <ele>114.7</ele>
        <time>2022-12-09T14:02:26Z</time>
      </trkpt>
      <trkpt lat="49.85905" lon="2.19059">
        <ele>114.7</ele>
        <time>2022-12-09T14:02:27Z</time>
      </trkpt>
      <trkpt lat="49.85905" lon="2.19057">
        <ele>114.7</ele>
        <time>2022-12-09T14:02:29Z</time>
      </trkpt>
      <trkpt lat="49.85906" lon="2.19055">
        <ele>114.7</ele>
        <time>2022-12-09T14:02:30Z</time>
      </trkpt>
      <trkpt lat="49.85906" lon="2.19053">
        <ele>114.7</ele>
        <time>2022-12-09T14:02:31Z</time>
      </trkpt>
      <trkpt lat="49.85907" lon="2.19051">
        <ele>114.7</ele>
        <time>2022-12-09T14:02:32Z</time>
      </trkpt>
      <trkpt lat="49.85908" lon="2.19048">
        <ele>114.7</ele>
        <time>2022-12-09T14:02:33Z</time>
      </trkpt>
      <trkpt lat="49.85908" lon="2.19047">
        <ele>114.7</ele>
        <time>2022-12-09T14:02:34Z</time>
      </trkpt>
      <trkpt lat="49.85908" lon="2.19046">
        <ele>114.7</ele>
        <time>2022-12-09T14:02:35Z</time>
      </trkpt>
      <trkpt lat="49.85909" lon="2.19044">
        <ele>114.8</ele>
        <time>2022-12-09T14:02:36Z</time>
      </trkpt>
      <trkpt lat="49.8591" lon="2.19043">
        <ele>114.8</ele>
        <time>2022-12-09T14:02:38Z</time>
      </trkpt>
      <trkpt lat="49.8591" lon="2.19041">
        <ele>114.8</ele>
        <time>2022-12-09T14:02:39Z</time>
      </trkpt>
      <trkpt lat="49.85911" lon="2.19038">
        <ele>114.8</ele>
        <time>2022-12-09T14:02:40Z</time>
      </trkpt>
      <trkpt lat="49.85912" lon="2.19037">
        <ele>114.8</ele>
        <time>2022-12-09T14:02:41Z</time>
      </trkpt>
      <trkpt lat="49.85912" lon="2.19035">
        <ele>114.8</ele>
        <time>2022-12-09T14:02:42Z</time>
      </trkpt>
      <trkpt lat="49.85913" lon="2.19033">
        <ele>114.8</ele>
        <time>2022-12-09T14:02:43Z</time>
      </trkpt>
      <trkpt lat="49.85913" lon="2.19032">
        <ele>114.8</ele>
        <time>2022-12-09T14:02:44Z</time>
      </trkpt>
      <trkpt lat="49.85913" lon="2.19029">
        <ele>114.8</ele>
        <time>2022-12-09T14:02:46Z</time>
      </trkpt>
      <trkpt lat="49.85914" lon="2.19027">
        <ele>114.8</ele>
        <time>2022-12-09T14:02:47Z</time>
      </trkpt>
      <trkpt lat="49.85914" lon="2.19025">
        <ele>114.8</ele>
        <time>2022-12-09T14:02:48Z</time>
      </trkpt>
      <trkpt lat="49.85915" lon="2.19024">
        <ele>114.8</ele>
        <time>2022-12-09T14:02:49Z</time>
      </trkpt>
      <trkpt lat="49.85915" lon="2.19023">
        <ele>114.8</ele>
        <time>2022-12-09T14:02:50Z</time>
      </trkpt>
      <trkpt lat="49.85915" lon="2.19021">
        <ele>114.8</ele>
        <time>2022-12-09T14:02:52Z</time>
      </trkpt>
      <trkpt lat="49.85915" lon="2.19019">
        <ele>114.8</ele>
        <time>2022-12-09T14:02:53Z</time>
      </trkpt>
      <trkpt lat="49.85916" lon="2.19017">
        <ele>114.8</ele>
        <time>2022-12-09T14:02:54Z</time>
      </trkpt>
      <trkpt lat="49.85916" lon="2.19015">
        <ele>114.9</ele>
        <time>2022-12-09T14:02:55Z</time>
      </trkpt>
      <trkpt lat="49.85916" lon="2.19014">
        <ele>114.9</ele>
        <time>2022-12-09T14:02:56Z</time>
      </trkpt>
      <trkpt lat="49.85916" lon="2.19012">
        <ele>114.9</ele>
        <time>2022-12-09T14:02:57Z</time>
      </trkpt>
      <trkpt lat="49.85917" lon="2.1901">
        <ele>114.9</ele>
        <time>2022-12-09T14:02:58Z</time>
      </trkpt>
      <trkpt lat="49.85917" lon="2.19008">
        <ele>114.9</ele>
        <time>2022-12-09T14:02:59Z</time>
      </trkpt>
      <trkpt lat="49.85917" lon="2.19006">
        <ele>114.9</ele>
        <time>2022-12-09T14:03:01Z</time>
      </trkpt>
      <trkpt lat="49.85917" lon="2.19004">
        <ele>114.9</ele>
        <time>2022-12-09T14:03:02Z</time>
      </trkpt>
      <trkpt lat="49.85918" lon="2.19003">
        <ele>114.9</ele>
        <time>2022-12-09T14:03:03Z</time>
      </trkpt>
      <trkpt lat="49.85918" lon="2.19001">
        <ele>114.9</ele>
        <time>2022-12-09T14:03:04Z</time>
      </trkpt>
      <trkpt lat="49.85918" lon="2.18999">
        <ele>114.9</ele>
        <time>2022-12-09T14:03:05Z</time>
      </trkpt>
      <trkpt lat="49.85918" lon="2.18998">
        <ele>114.9</ele>
        <time>2022-12-09T14:03:06Z</time>
      </trkpt>
      <trkpt lat="49.85919" lon="2.18996">
        <ele>115</ele>
        <time>2022-12-09T14:03:07Z</time>
      </trkpt>
      <trkpt lat="49.85919" lon="2.18994">
        <ele>115</ele>
        <time>2022-12-09T14:03:08Z</time>
      </trkpt>
      <trkpt lat="49.8592" lon="2.18991">
        <ele>115</ele>
        <time>2022-12-09T14:03:09Z</time>
      </trkpt>
      <trkpt lat="49.8592" lon="2.1899">
        <ele>115</ele>
        <time>2022-12-09T14:03:10Z</time>
      </trkpt>
      <trkpt lat="49.8592" lon="2.18989">
        <ele>115</ele>
        <time>2022-12-09T14:03:11Z</time>
      </trkpt>
      <trkpt lat="49.85921" lon="2.18986">
        <ele>115</ele>
        <time>2022-12-09T14:03:13Z</time>
      </trkpt>
      <trkpt lat="49.85921" lon="2.18985">
        <ele>115</ele>
        <time>2022-12-09T14:03:14Z</time>
      </trkpt>
      <trkpt lat="49.85921" lon="2.18983">
        <ele>115</ele>
        <time>2022-12-09T14:03:15Z</time>
      </trkpt>
      <trkpt lat="49.85922" lon="2.18981">
        <ele>115</ele>
        <time>2022-12-09T14:03:16Z</time>
      </trkpt>
      <trkpt lat="49.85922" lon="2.1898">
        <ele>115.1</ele>
        <time>2022-12-09T14:03:17Z</time>
      </trkpt>
      <trkpt lat="49.85923" lon="2.18977">
        <ele>115.1</ele>
        <time>2022-12-09T14:03:19Z</time>
      </trkpt>
      <trkpt lat="49.85924" lon="2.18976">
        <ele>115.1</ele>
        <time>2022-12-09T14:03:20Z</time>
      </trkpt>
      <trkpt lat="49.85924" lon="2.18974">
        <ele>115.1</ele>
        <time>2022-12-09T14:03:21Z</time>
      </trkpt>
      <trkpt lat="49.85925" lon="2.18971">
        <ele>115.1</ele>
        <time>2022-12-09T14:03:22Z</time>
      </trkpt>
      <trkpt lat="49.85925" lon="2.1897">
        <ele>115.1</ele>
        <time>2022-12-09T14:03:23Z</time>
      </trkpt>
      <trkpt lat="49.85925" lon="2.18969">
        <ele>115.1</ele>
        <time>2022-12-09T14:03:24Z</time>
      </trkpt>
      <trkpt lat="49.85926" lon="2.18967">
        <ele>115.1</ele>
        <time>2022-12-09T14:03:25Z</time>
      </trkpt>
      <trkpt lat="49.85927" lon="2.18966">
        <ele>115.1</ele>
        <time>2022-12-09T14:03:26Z</time>
      </trkpt>
      <trkpt lat="49.85927" lon="2.18965">
        <ele>115.2</ele>
        <time>2022-12-09T14:03:27Z</time>
      </trkpt>
      <trkpt lat="49.85928" lon="2.18963">
        <ele>115.2</ele>
        <time>2022-12-09T14:03:28Z</time>
      </trkpt>
      <trkpt lat="49.85928" lon="2.18961">
        <ele>115.2</ele>
        <time>2022-12-09T14:03:29Z</time>
      </trkpt>
      <trkpt lat="49.85929" lon="2.18958">
        <ele>115.2</ele>
        <time>2022-12-09T14:03:31Z</time>
      </trkpt>
      <trkpt lat="49.85929" lon="2.18956">
        <ele>115.2</ele>
        <time>2022-12-09T14:03:32Z</time>
      </trkpt>
      <trkpt lat="49.85929" lon="2.18954">
        <ele>115.2</ele>
        <time>2022-12-09T14:03:33Z</time>
      </trkpt>
      <trkpt lat="49.8593" lon="2.18952">
        <ele>115.2</ele>
        <time>2022-12-09T14:03:34Z</time>
      </trkpt>
      <trkpt lat="49.8593" lon="2.1895">
        <ele>115.2</ele>
        <time>2022-12-09T14:03:35Z</time>
      </trkpt>
      <trkpt lat="49.8593" lon="2.18948">
        <ele>115.2</ele>
        <time>2022-12-09T14:03:36Z</time>
      </trkpt>
      <trkpt lat="49.85931" lon="2.18946">
        <ele>115.2</ele>
        <time>2022-12-09T14:03:37Z</time>
      </trkpt>
      <trkpt lat="49.85932" lon="2.18943">
        <ele>115.3</ele>
        <time>2022-12-09T14:03:39Z</time>
      </trkpt>
      <trkpt lat="49.85932" lon="2.18942">
        <ele>115.3</ele>
        <time>2022-12-09T14:03:40Z</time>
      </trkpt>
      <trkpt lat="49.85932" lon="2.1894">
        <ele>115.3</ele>
        <time>2022-12-09T14:03:41Z</time>
      </trkpt>
      <trkpt lat="49.85933" lon="2.18939">
        <ele>115.3</ele>
        <time>2022-12-09T14:03:42Z</time>
      </trkpt>
      <trkpt lat="49.85933" lon="2.18937">
        <ele>115.3</ele>
        <time>2022-12-09T14:03:43Z</time>
      </trkpt>
      <trkpt lat="49.85933" lon="2.18935">
        <ele>115.3</ele>
        <time>2022-12-09T14:03:44Z</time>
      </trkpt>
      <trkpt lat="49.85933" lon="2.18932">
        <ele>115.3</ele>
        <time>2022-12-09T14:03:45Z</time>
      </trkpt>
      <trkpt lat="49.85934" lon="2.18931">
        <ele>115.3</ele>
        <time>2022-12-09T14:03:46Z</time>
      </trkpt>
      <trkpt lat="49.85934" lon="2.18929">
        <ele>115.3</ele>
        <time>2022-12-09T14:03:47Z</time>
      </trkpt>
      <trkpt lat="49.85935" lon="2.18928">
        <ele>115.3</ele>
        <time>2022-12-09T14:03:48Z</time>
      </trkpt>
      <trkpt lat="49.85935" lon="2.18926">
        <ele>115.3</ele>
        <time>2022-12-09T14:03:50Z</time>
      </trkpt>
      <trkpt lat="49.85935" lon="2.18925">
        <ele>115.3</ele>
        <time>2022-12-09T14:03:51Z</time>
      </trkpt>
      <trkpt lat="49.85936" lon="2.18923">
        <ele>115.4</ele>
        <time>2022-12-09T14:03:52Z</time>
      </trkpt>
      <trkpt lat="49.85936" lon="2.18922">
        <ele>115.4</ele>
        <time>2022-12-09T14:03:53Z</time>
      </trkpt>
      <trkpt lat="49.85937" lon="2.1892">
        <ele>115.4</ele>
        <time>2022-12-09T14:03:54Z</time>
      </trkpt>
      <trkpt lat="49.85938" lon="2.18919">
        <ele>115.4</ele>
        <time>2022-12-09T14:03:55Z</time>
      </trkpt>
      <trkpt lat="49.85938" lon="2.18917">
        <ele>115.4</ele>
        <time>2022-12-09T14:03:56Z</time>
      </trkpt>
      <trkpt lat="49.85939" lon="2.18916">
        <ele>115.4</ele>
        <time>2022-12-09T14:03:57Z</time>
      </trkpt>
      <trkpt lat="49.85939" lon="2.18914">
        <ele>115.4</ele>
        <time>2022-12-09T14:03:59Z</time>
      </trkpt>
      <trkpt lat="49.8594" lon="2.18912">
        <ele>115.4</ele>
        <time>2022-12-09T14:04:00Z</time>
      </trkpt>
      <trkpt lat="49.8594" lon="2.1891">
        <ele>115.4</ele>
        <time>2022-12-09T14:04:01Z</time>
      </trkpt>
      <trkpt lat="49.8594" lon="2.18909">
        <ele>115.4</ele>
        <time>2022-12-09T14:04:02Z</time>
      </trkpt>
      <trkpt lat="49.85941" lon="2.18908">
        <ele>115.4</ele>
        <time>2022-12-09T14:04:03Z</time>
      </trkpt>
      <trkpt lat="49.85941" lon="2.18906">
        <ele>115.4</ele>
        <time>2022-12-09T14:04:04Z</time>
      </trkpt>
      <trkpt lat="49.85941" lon="2.18905">
        <ele>115.4</ele>
        <time>2022-12-09T14:04:06Z</time>
      </trkpt>
      <trkpt lat="49.85942" lon="2.18903">
        <ele>115.4</ele>
        <time>2022-12-09T14:04:07Z</time>
      </trkpt>
      <trkpt lat="49.85942" lon="2.18899">
        <ele>115.4</ele>
        <time>2022-12-09T14:04:08Z</time>
      </trkpt>
      <trkpt lat="49.85942" lon="2.18898">
        <ele>115.4</ele>
        <time>2022-12-09T14:04:09Z</time>
      </trkpt>
      <trkpt lat="49.85943" lon="2.18897">
        <ele>115.4</ele>
        <time>2022-12-09T14:04:10Z</time>
      </trkpt>
      <trkpt lat="49.85943" lon="2.18895">
        <ele>115.4</ele>
        <time>2022-12-09T14:04:11Z</time>
      </trkpt>
      <trkpt lat="49.85943" lon="2.18893">
        <ele>115.4</ele>
        <time>2022-12-09T14:04:13Z</time>
      </trkpt>
      <trkpt lat="49.85943" lon="2.18892">
        <ele>115.4</ele>
        <time>2022-12-09T14:04:14Z</time>
      </trkpt>
      <trkpt lat="49.85944" lon="2.18889">
        <ele>115.4</ele>
        <time>2022-12-09T14:04:15Z</time>
      </trkpt>
      <trkpt lat="49.85944" lon="2.18887">
        <ele>115.4</ele>
        <time>2022-12-09T14:04:16Z</time>
      </trkpt>
      <trkpt lat="49.85945" lon="2.18886">
        <ele>115.4</ele>
        <time>2022-12-09T14:04:17Z</time>
      </trkpt>
      <trkpt lat="49.85945" lon="2.18884">
        <ele>115.4</ele>
        <time>2022-12-09T14:04:18Z</time>
      </trkpt>
      <trkpt lat="49.85946" lon="2.18882">
        <ele>115.4</ele>
        <time>2022-12-09T14:04:19Z</time>
      </trkpt>
      <trkpt lat="49.85947" lon="2.18881">
        <ele>115.4</ele>
        <time>2022-12-09T14:04:20Z</time>
      </trkpt>
      <trkpt lat="49.85948" lon="2.18879">
        <ele>115.4</ele>
        <time>2022-12-09T14:04:22Z</time>
      </trkpt>
      <trkpt lat="49.85948" lon="2.18877">
        <ele>115.4</ele>
        <time>2022-12-09T14:04:23Z</time>
      </trkpt>
      <trkpt lat="49.85949" lon="2.18876">
        <ele>115.4</ele>
        <time>2022-12-09T14:04:24Z</time>
      </trkpt>
      <trkpt lat="49.85949" lon="2.18874">
        <ele>115.4</ele>
        <time>2022-12-09T14:04:25Z</time>
      </trkpt>
      <trkpt lat="49.8595" lon="2.18871">
        <ele>115.4</ele>
        <time>2022-12-09T14:04:26Z</time>
      </trkpt>
      <trkpt lat="49.8595" lon="2.1887">
        <ele>115.4</ele>
        <time>2022-12-09T14:04:28Z</time>
      </trkpt>
      <trkpt lat="49.85951" lon="2.18869">
        <ele>115.4</ele>
        <time>2022-12-09T14:04:29Z</time>
      </trkpt>
      <trkpt lat="49.85951" lon="2.18867">
        <ele>115.4</ele>
        <time>2022-12-09T14:04:30Z</time>
      </trkpt>
      <trkpt lat="49.85952" lon="2.18865">
        <ele>115.4</ele>
        <time>2022-12-09T14:04:31Z</time>
      </trkpt>
      <trkpt lat="49.85953" lon="2.18862">
        <ele>115.4</ele>
        <time>2022-12-09T14:04:32Z</time>
      </trkpt>
      <trkpt lat="49.85953" lon="2.18861">
        <ele>115.4</ele>
        <time>2022-12-09T14:04:33Z</time>
      </trkpt>
      <trkpt lat="49.85954" lon="2.1886">
        <ele>115.4</ele>
        <time>2022-12-09T14:04:34Z</time>
      </trkpt>
      <trkpt lat="49.85954" lon="2.18859">
        <ele>115.4</ele>
        <time>2022-12-09T14:04:35Z</time>
      </trkpt>
      <trkpt lat="49.85955" lon="2.18857">
        <ele>115.4</ele>
        <time>2022-12-09T14:04:36Z</time>
      </trkpt>
      <trkpt lat="49.85956" lon="2.18855">
        <ele>115.4</ele>
        <time>2022-12-09T14:04:38Z</time>
      </trkpt>
      <trkpt lat="49.85957" lon="2.18853">
        <ele>115.4</ele>
        <time>2022-12-09T14:04:39Z</time>
      </trkpt>
      <trkpt lat="49.85957" lon="2.18851">
        <ele>115.4</ele>
        <time>2022-12-09T14:04:40Z</time>
      </trkpt>
      <trkpt lat="49.85958" lon="2.18849">
        <ele>115.4</ele>
        <time>2022-12-09T14:04:41Z</time>
      </trkpt>
      <trkpt lat="49.85959" lon="2.18848">
        <ele>115.4</ele>
        <time>2022-12-09T14:04:42Z</time>
      </trkpt>
      <trkpt lat="49.85961" lon="2.18845">
        <ele>115.4</ele>
        <time>2022-12-09T14:04:43Z</time>
      </trkpt>
      <trkpt lat="49.85961" lon="2.18843">
        <ele>115.4</ele>
        <time>2022-12-09T14:04:45Z</time>
      </trkpt>
      <trkpt lat="49.85962" lon="2.18842">
        <ele>115.4</ele>
        <time>2022-12-09T14:04:46Z</time>
      </trkpt>
      <trkpt lat="49.85963" lon="2.18841">
        <ele>115.4</ele>
        <time>2022-12-09T14:04:47Z</time>
      </trkpt>
      <trkpt lat="49.85963" lon="2.18839">
        <ele>115.4</ele>
        <time>2022-12-09T14:04:48Z</time>
      </trkpt>
      <trkpt lat="49.85964" lon="2.18838">
        <ele>115.4</ele>
        <time>2022-12-09T14:04:49Z</time>
      </trkpt>
      <trkpt lat="49.85965" lon="2.18837">
        <ele>115.3</ele>
        <time>2022-12-09T14:04:50Z</time>
      </trkpt>
      <trkpt lat="49.85966" lon="2.18835">
        <ele>115.3</ele>
        <time>2022-12-09T14:04:52Z</time>
      </trkpt>
      <trkpt lat="49.85966" lon="2.18833">
        <ele>115.3</ele>
        <time>2022-12-09T14:04:53Z</time>
      </trkpt>
      <trkpt lat="49.85967" lon="2.18831">
        <ele>115.3</ele>
        <time>2022-12-09T14:04:54Z</time>
      </trkpt>
      <trkpt lat="49.85968" lon="2.18829">
        <ele>115.3</ele>
        <time>2022-12-09T14:04:55Z</time>
      </trkpt>
      <trkpt lat="49.85969" lon="2.18827">
        <ele>115.3</ele>
        <time>2022-12-09T14:04:56Z</time>
      </trkpt>
      <trkpt lat="49.8597" lon="2.18826">
        <ele>115.3</ele>
        <time>2022-12-09T14:04:57Z</time>
      </trkpt>
      <trkpt lat="49.85971" lon="2.18824">
        <ele>115.3</ele>
        <time>2022-12-09T14:04:59Z</time>
      </trkpt>
      <trkpt lat="49.85972" lon="2.18823">
        <ele>115.3</ele>
        <time>2022-12-09T14:05:00Z</time>
      </trkpt>
      <trkpt lat="49.85973" lon="2.18821">
        <ele>115.3</ele>
        <time>2022-12-09T14:05:01Z</time>
      </trkpt>
      <trkpt lat="49.85974" lon="2.1882">
        <ele>115.3</ele>
        <time>2022-12-09T14:05:02Z</time>
      </trkpt>
      <trkpt lat="49.85975" lon="2.18818">
        <ele>115.3</ele>
        <time>2022-12-09T14:05:03Z</time>
      </trkpt>
      <trkpt lat="49.85975" lon="2.18817">
        <ele>115.3</ele>
        <time>2022-12-09T14:05:04Z</time>
      </trkpt>
      <trkpt lat="49.85976" lon="2.18815">
        <ele>115.3</ele>
        <time>2022-12-09T14:05:05Z</time>
      </trkpt>
      <trkpt lat="49.85976" lon="2.18814">
        <ele>115.3</ele>
        <time>2022-12-09T14:05:07Z</time>
      </trkpt>
      <trkpt lat="49.85977" lon="2.18813">
        <ele>115.3</ele>
        <time>2022-12-09T14:05:08Z</time>
      </trkpt>
      <trkpt lat="49.85978" lon="2.18811">
        <ele>115.3</ele>
        <time>2022-12-09T14:05:09Z</time>
      </trkpt>
      <trkpt lat="49.85979" lon="2.1881">
        <ele>115.2</ele>
        <time>2022-12-09T14:05:10Z</time>
      </trkpt>
      <trkpt lat="49.8598" lon="2.18809">
        <ele>115.2</ele>
        <time>2022-12-09T14:05:11Z</time>
      </trkpt>
      <trkpt lat="49.85981" lon="2.18806">
        <ele>115.2</ele>
        <time>2022-12-09T14:05:12Z</time>
      </trkpt>
      <trkpt lat="49.85981" lon="2.18805">
        <ele>115.2</ele>
        <time>2022-12-09T14:05:13Z</time>
      </trkpt>
      <trkpt lat="49.85982" lon="2.18804">
        <ele>115.2</ele>
        <time>2022-12-09T14:05:14Z</time>
      </trkpt>
      <trkpt lat="49.85983" lon="2.18801">
        <ele>115.2</ele>
        <time>2022-12-09T14:05:15Z</time>
      </trkpt>
      <trkpt lat="49.85984" lon="2.188">
        <ele>115.2</ele>
        <time>2022-12-09T14:05:17Z</time>
      </trkpt>
      <trkpt lat="49.85984" lon="2.18799">
        <ele>115.2</ele>
        <time>2022-12-09T14:05:18Z</time>
      </trkpt>
      <trkpt lat="49.85985" lon="2.18797">
        <ele>115.2</ele>
        <time>2022-12-09T14:05:19Z</time>
      </trkpt>
      <trkpt lat="49.85986" lon="2.18796">
        <ele>115.2</ele>
        <time>2022-12-09T14:05:20Z</time>
      </trkpt>
      <trkpt lat="49.85986" lon="2.18794">
        <ele>115.2</ele>
        <time>2022-12-09T14:05:21Z</time>
      </trkpt>
      <trkpt lat="49.85988" lon="2.18791">
        <ele>115.2</ele>
        <time>2022-12-09T14:05:22Z</time>
      </trkpt>
      <trkpt lat="49.85988" lon="2.1879">
        <ele>115.2</ele>
        <time>2022-12-09T14:05:23Z</time>
      </trkpt>
      <trkpt lat="49.85988" lon="2.18789">
        <ele>115.2</ele>
        <time>2022-12-09T14:05:24Z</time>
      </trkpt>
      <trkpt lat="49.85989" lon="2.18787">
        <ele>115.2</ele>
        <time>2022-12-09T14:05:26Z</time>
      </trkpt>
      <trkpt lat="49.8599" lon="2.18785">
        <ele>115.1</ele>
        <time>2022-12-09T14:05:27Z</time>
      </trkpt>
      <trkpt lat="49.85991" lon="2.18783">
        <ele>115.1</ele>
        <time>2022-12-09T14:05:28Z</time>
      </trkpt>
      <trkpt lat="49.85992" lon="2.18782">
        <ele>115.1</ele>
        <time>2022-12-09T14:05:29Z</time>
      </trkpt>
      <trkpt lat="49.85993" lon="2.1878">
        <ele>115.1</ele>
        <time>2022-12-09T14:05:30Z</time>
      </trkpt>
      <trkpt lat="49.85994" lon="2.18778">
        <ele>115.1</ele>
        <time>2022-12-09T14:05:31Z</time>
      </trkpt>
      <trkpt lat="49.85994" lon="2.18776">
        <ele>115.1</ele>
        <time>2022-12-09T14:05:32Z</time>
      </trkpt>
      <trkpt lat="49.85995" lon="2.18775">
        <ele>115.1</ele>
        <time>2022-12-09T14:05:34Z</time>
      </trkpt>
      <trkpt lat="49.85996" lon="2.18773">
        <ele>115.1</ele>
        <time>2022-12-09T14:05:35Z</time>
      </trkpt>
      <trkpt lat="49.85997" lon="2.18771">
        <ele>115.1</ele>
        <time>2022-12-09T14:05:36Z</time>
      </trkpt>
      <trkpt lat="49.85998" lon="2.18768">
        <ele>115.1</ele>
        <time>2022-12-09T14:05:37Z</time>
      </trkpt>
      <trkpt lat="49.85998" lon="2.18767">
        <ele>115.1</ele>
        <time>2022-12-09T14:05:38Z</time>
      </trkpt>
      <trkpt lat="49.85999" lon="2.18766">
        <ele>115.1</ele>
        <time>2022-12-09T14:05:39Z</time>
      </trkpt>
      <trkpt lat="49.85999" lon="2.18764">
        <ele>115.1</ele>
        <time>2022-12-09T14:05:41Z</time>
      </trkpt>
      <trkpt lat="49.86" lon="2.18762">
        <ele>115</ele>
        <time>2022-12-09T14:05:42Z</time>
      </trkpt>
      <trkpt lat="49.86001" lon="2.18761">
        <ele>115</ele>
        <time>2022-12-09T14:05:43Z</time>
      </trkpt>
      <trkpt lat="49.86002" lon="2.18759">
        <ele>115</ele>
        <time>2022-12-09T14:05:44Z</time>
      </trkpt>
      <trkpt lat="49.86002" lon="2.18758">
        <ele>115</ele>
        <time>2022-12-09T14:05:45Z</time>
      </trkpt>
      <trkpt lat="49.86003" lon="2.18757">
        <ele>115</ele>
        <time>2022-12-09T14:05:46Z</time>
      </trkpt>
      <trkpt lat="49.86004" lon="2.18756">
        <ele>115</ele>
        <time>2022-12-09T14:05:47Z</time>
      </trkpt>
      <trkpt lat="49.86004" lon="2.18755">
        <ele>115</ele>
        <time>2022-12-09T14:05:48Z</time>
      </trkpt>
      <trkpt lat="49.86005" lon="2.18753">
        <ele>115</ele>
        <time>2022-12-09T14:05:49Z</time>
      </trkpt>
      <trkpt lat="49.86006" lon="2.18752">
        <ele>115</ele>
        <time>2022-12-09T14:05:51Z</time>
      </trkpt>
      <trkpt lat="49.86007" lon="2.18751">
        <ele>115</ele>
        <time>2022-12-09T14:05:52Z</time>
      </trkpt>
      <trkpt lat="49.86008" lon="2.18748">
        <ele>115</ele>
        <time>2022-12-09T14:05:53Z</time>
      </trkpt>
      <trkpt lat="49.86009" lon="2.18747">
        <ele>115</ele>
        <time>2022-12-09T14:05:54Z</time>
      </trkpt>
      <trkpt lat="49.86009" lon="2.18746">
        <ele>115</ele>
        <time>2022-12-09T14:05:55Z</time>
      </trkpt>
      <trkpt lat="49.86011" lon="2.18744">
        <ele>114.9</ele>
        <time>2022-12-09T14:05:57Z</time>
      </trkpt>
      <trkpt lat="49.86011" lon="2.18743">
        <ele>114.9</ele>
        <time>2022-12-09T14:05:58Z</time>
      </trkpt>
      <trkpt lat="49.86012" lon="2.18742">
        <ele>114.9</ele>
        <time>2022-12-09T14:05:59Z</time>
      </trkpt>
      <trkpt lat="49.86013" lon="2.18741">
        <ele>114.9</ele>
        <time>2022-12-09T14:06:00Z</time>
      </trkpt>
      <trkpt lat="49.86013" lon="2.1874">
        <ele>114.9</ele>
        <time>2022-12-09T14:06:01Z</time>
      </trkpt>
      <trkpt lat="49.86014" lon="2.18739">
        <ele>114.9</ele>
        <time>2022-12-09T14:06:02Z</time>
      </trkpt>
      <trkpt lat="49.86016" lon="2.18736">
        <ele>114.9</ele>
        <time>2022-12-09T14:06:03Z</time>
      </trkpt>
      <trkpt lat="49.86017" lon="2.18736">
        <ele>114.9</ele>
        <time>2022-12-09T14:06:04Z</time>
      </trkpt>
      <trkpt lat="49.86017" lon="2.18735">
        <ele>114.9</ele>
        <time>2022-12-09T14:06:05Z</time>
      </trkpt>
      <trkpt lat="49.86018" lon="2.18733">
        <ele>114.9</ele>
        <time>2022-12-09T14:06:07Z</time>
      </trkpt>
      <trkpt lat="49.86019" lon="2.18731">
        <ele>114.9</ele>
        <time>2022-12-09T14:06:08Z</time>
      </trkpt>
      <trkpt lat="49.8602" lon="2.1873">
        <ele>114.9</ele>
        <time>2022-12-09T14:06:09Z</time>
      </trkpt>
      <trkpt lat="49.86021" lon="2.18728">
        <ele>114.9</ele>
        <time>2022-12-09T14:06:10Z</time>
      </trkpt>
      <trkpt lat="49.86022" lon="2.18727">
        <ele>114.9</ele>
        <time>2022-12-09T14:06:11Z</time>
      </trkpt>
      <trkpt lat="49.86023" lon="2.18726">
        <ele>114.9</ele>
        <time>2022-12-09T14:06:12Z</time>
      </trkpt>
      <trkpt lat="49.86024" lon="2.18725">
        <ele>114.8</ele>
        <time>2022-12-09T14:06:13Z</time>
      </trkpt>
      <trkpt lat="49.86025" lon="2.18723">
        <ele>114.8</ele>
        <time>2022-12-09T14:06:15Z</time>
      </trkpt>
      <trkpt lat="49.86026" lon="2.18722">
        <ele>114.8</ele>
        <time>2022-12-09T14:06:16Z</time>
      </trkpt>
      <trkpt lat="49.86027" lon="2.1872">
        <ele>114.8</ele>
        <time>2022-12-09T14:06:17Z</time>
      </trkpt>
      <trkpt lat="49.86028" lon="2.18718">
        <ele>114.8</ele>
        <time>2022-12-09T14:06:18Z</time>
      </trkpt>
      <trkpt lat="49.86029" lon="2.18717">
        <ele>114.8</ele>
        <time>2022-12-09T14:06:19Z</time>
      </trkpt>
      <trkpt lat="49.86029" lon="2.18716">
        <ele>114.8</ele>
        <time>2022-12-09T14:06:20Z</time>
      </trkpt>
      <trkpt lat="49.8603" lon="2.18714">
        <ele>114.8</ele>
        <time>2022-12-09T14:06:22Z</time>
      </trkpt>
      <trkpt lat="49.86031" lon="2.18712">
        <ele>114.8</ele>
        <time>2022-12-09T14:06:23Z</time>
      </trkpt>
      <trkpt lat="49.86032" lon="2.1871">
        <ele>114.8</ele>
        <time>2022-12-09T14:06:24Z</time>
      </trkpt>
      <trkpt lat="49.86033" lon="2.18709">
        <ele>114.8</ele>
        <time>2022-12-09T14:06:25Z</time>
      </trkpt>
      <trkpt lat="49.86034" lon="2.18708">
        <ele>114.8</ele>
        <time>2022-12-09T14:06:26Z</time>
      </trkpt>
      <trkpt lat="49.86035" lon="2.18706">
        <ele>114.8</ele>
        <time>2022-12-09T14:06:27Z</time>
      </trkpt>
      <trkpt lat="49.86036" lon="2.18705">
        <ele>114.8</ele>
        <time>2022-12-09T14:06:28Z</time>
      </trkpt>
      <trkpt lat="49.86037" lon="2.18704">
        <ele>114.8</ele>
        <time>2022-12-09T14:06:29Z</time>
      </trkpt>
      <trkpt lat="49.86037" lon="2.18702">
        <ele>114.8</ele>
        <time>2022-12-09T14:06:30Z</time>
      </trkpt>
      <trkpt lat="49.86038" lon="2.18701">
        <ele>114.7</ele>
        <time>2022-12-09T14:06:32Z</time>
      </trkpt>
      <trkpt lat="49.86039" lon="2.187">
        <ele>114.7</ele>
        <time>2022-12-09T14:06:33Z</time>
      </trkpt>
      <trkpt lat="49.8604" lon="2.18698">
        <ele>114.7</ele>
        <time>2022-12-09T14:06:34Z</time>
      </trkpt>
      <trkpt lat="49.86041" lon="2.18697">
        <ele>114.7</ele>
        <time>2022-12-09T14:06:35Z</time>
      </trkpt>
      <trkpt lat="49.86041" lon="2.18696">
        <ele>114.7</ele>
        <time>2022-12-09T14:06:36Z</time>
      </trkpt>
      <trkpt lat="49.86042" lon="2.18695">
        <ele>114.7</ele>
        <time>2022-12-09T14:06:37Z</time>
      </trkpt>
      <trkpt lat="49.86043" lon="2.18693">
        <ele>114.7</ele>
        <time>2022-12-09T14:06:38Z</time>
      </trkpt>
      <trkpt lat="49.86044" lon="2.18692">
        <ele>114.7</ele>
        <time>2022-12-09T14:06:39Z</time>
      </trkpt>
      <trkpt lat="49.86044" lon="2.1869">
        <ele>114.7</ele>
        <time>2022-12-09T14:06:40Z</time>
      </trkpt>
      <trkpt lat="49.86045" lon="2.18689">
        <ele>114.7</ele>
        <time>2022-12-09T14:06:42Z</time>
      </trkpt>
      <trkpt lat="49.86046" lon="2.18687">
        <ele>114.7</ele>
        <time>2022-12-09T14:06:43Z</time>
      </trkpt>
      <trkpt lat="49.86046" lon="2.18686">
        <ele>114.7</ele>
        <time>2022-12-09T14:06:44Z</time>
      </trkpt>
      <trkpt lat="49.86047" lon="2.18684">
        <ele>114.7</ele>
        <time>2022-12-09T14:06:45Z</time>
      </trkpt>
      <trkpt lat="49.86047" lon="2.18683">
        <ele>114.7</ele>
        <time>2022-12-09T14:06:46Z</time>
      </trkpt>
      <trkpt lat="49.86048" lon="2.18681">
        <ele>114.7</ele>
        <time>2022-12-09T14:06:47Z</time>
      </trkpt>
      <trkpt lat="49.86049" lon="2.1868">
        <ele>114.7</ele>
        <time>2022-12-09T14:06:48Z</time>
      </trkpt>
      <trkpt lat="49.86049" lon="2.18678">
        <ele>114.7</ele>
        <time>2022-12-09T14:06:49Z</time>
      </trkpt>
      <trkpt lat="49.8605" lon="2.18677">
        <ele>114.7</ele>
        <time>2022-12-09T14:06:50Z</time>
      </trkpt>
      <trkpt lat="49.86051" lon="2.18675">
        <ele>114.7</ele>
        <time>2022-12-09T14:06:52Z</time>
      </trkpt>
      <trkpt lat="49.86052" lon="2.18674">
        <ele>114.7</ele>
        <time>2022-12-09T14:06:53Z</time>
      </trkpt>
      <trkpt lat="49.86053" lon="2.18672">
        <ele>114.7</ele>
        <time>2022-12-09T14:06:54Z</time>
      </trkpt>
      <trkpt lat="49.86053" lon="2.18671">
        <ele>114.7</ele>
        <time>2022-12-09T14:06:55Z</time>
      </trkpt>
      <trkpt lat="49.86054" lon="2.18669">
        <ele>114.6</ele>
        <time>2022-12-09T14:06:56Z</time>
      </trkpt>
      <trkpt lat="49.86055" lon="2.18668">
        <ele>114.6</ele>
        <time>2022-12-09T14:06:57Z</time>
      </trkpt>
      <trkpt lat="49.86055" lon="2.18667">
        <ele>114.6</ele>
        <time>2022-12-09T14:06:58Z</time>
      </trkpt>
      <trkpt lat="49.86056" lon="2.18665">
        <ele>114.6</ele>
        <time>2022-12-09T14:06:59Z</time>
      </trkpt>
      <trkpt lat="49.86057" lon="2.18664">
        <ele>114.6</ele>
        <time>2022-12-09T14:07:00Z</time>
      </trkpt>
      <trkpt lat="49.86058" lon="2.18663">
        <ele>114.6</ele>
        <time>2022-12-09T14:07:02Z</time>
      </trkpt>
      <trkpt lat="49.86059" lon="2.18662">
        <ele>114.6</ele>
        <time>2022-12-09T14:07:03Z</time>
      </trkpt>
      <trkpt lat="49.8606" lon="2.1866">
        <ele>114.6</ele>
        <time>2022-12-09T14:07:04Z</time>
      </trkpt>
      <trkpt lat="49.86061" lon="2.18659">
        <ele>114.6</ele>
        <time>2022-12-09T14:07:05Z</time>
      </trkpt>
      <trkpt lat="49.86061" lon="2.18658">
        <ele>114.6</ele>
        <time>2022-12-09T14:07:06Z</time>
      </trkpt>
      <trkpt lat="49.86062" lon="2.18656">
        <ele>114.6</ele>
        <time>2022-12-09T14:07:08Z</time>
      </trkpt>
      <trkpt lat="49.86063" lon="2.18655">
        <ele>114.6</ele>
        <time>2022-12-09T14:07:09Z</time>
      </trkpt>
      <trkpt lat="49.86063" lon="2.18654">
        <ele>114.6</ele>
        <time>2022-12-09T14:07:10Z</time>
      </trkpt>
      <trkpt lat="49.86064" lon="2.18653">
        <ele>114.6</ele>
        <time>2022-12-09T14:07:11Z</time>
      </trkpt>
      <trkpt lat="49.86065" lon="2.18652">
        <ele>114.6</ele>
        <time>2022-12-09T14:07:12Z</time>
      </trkpt>
      <trkpt lat="49.86066" lon="2.1865">
        <ele>114.6</ele>
        <time>2022-12-09T14:07:13Z</time>
      </trkpt>
      <trkpt lat="49.86067" lon="2.18649">
        <ele>114.6</ele>
        <time>2022-12-09T14:07:14Z</time>
      </trkpt>
      <trkpt lat="49.86067" lon="2.18648">
        <ele>114.6</ele>
        <time>2022-12-09T14:07:15Z</time>
      </trkpt>
      <trkpt lat="49.86068" lon="2.18647">
        <ele>114.5</ele>
        <time>2022-12-09T14:07:17Z</time>
      </trkpt>
      <trkpt lat="49.86069" lon="2.18645">
        <ele>114.5</ele>
        <time>2022-12-09T14:07:18Z</time>
      </trkpt>
      <trkpt lat="49.8607" lon="2.18644">
        <ele>114.5</ele>
        <time>2022-12-09T14:07:19Z</time>
      </trkpt>
      <trkpt lat="49.86071" lon="2.18643">
        <ele>114.5</ele>
        <time>2022-12-09T14:07:20Z</time>
      </trkpt>
      <trkpt lat="49.86071" lon="2.18642">
        <ele>114.5</ele>
        <time>2022-12-09T14:07:21Z</time>
      </trkpt>
      <trkpt lat="49.86072" lon="2.1864">
        <ele>114.5</ele>
        <time>2022-12-09T14:07:22Z</time>
      </trkpt>
      <trkpt lat="49.86073" lon="2.18638">
        <ele>114.5</ele>
        <time>2022-12-09T14:07:23Z</time>
      </trkpt>
      <trkpt lat="49.86073" lon="2.18636">
        <ele>114.5</ele>
        <time>2022-12-09T14:07:24Z</time>
      </trkpt>
      <trkpt lat="49.86074" lon="2.18634">
        <ele>114.5</ele>
        <time>2022-12-09T14:07:26Z</time>
      </trkpt>
      <trkpt lat="49.86074" lon="2.18631">
        <ele>114.5</ele>
        <time>2022-12-09T14:07:27Z</time>
      </trkpt>
      <trkpt lat="49.86075" lon="2.1863">
        <ele>114.5</ele>
        <time>2022-12-09T14:07:28Z</time>
      </trkpt>
      <trkpt lat="49.86075" lon="2.18629">
        <ele>114.5</ele>
        <time>2022-12-09T14:07:29Z</time>
      </trkpt>
      <trkpt lat="49.86076" lon="2.18627">
        <ele>114.5</ele>
        <time>2022-12-09T14:07:30Z</time>
      </trkpt>
      <trkpt lat="49.86077" lon="2.18625">
        <ele>114.5</ele>
        <time>2022-12-09T14:07:31Z</time>
      </trkpt>
      <trkpt lat="49.86077" lon="2.18624">
        <ele>114.5</ele>
        <time>2022-12-09T14:07:32Z</time>
      </trkpt>
      <trkpt lat="49.86078" lon="2.18622">
        <ele>114.4</ele>
        <time>2022-12-09T14:07:34Z</time>
      </trkpt>
      <trkpt lat="49.86079" lon="2.18621">
        <ele>114.4</ele>
        <time>2022-12-09T14:07:35Z</time>
      </trkpt>
      <trkpt lat="49.86079" lon="2.1862">
        <ele>114.4</ele>
        <time>2022-12-09T14:07:36Z</time>
      </trkpt>
      <trkpt lat="49.8608" lon="2.18619">
        <ele>114.4</ele>
        <time>2022-12-09T14:07:37Z</time>
      </trkpt>
      <trkpt lat="49.8608" lon="2.18618">
        <ele>114.3</ele>
        <time>2022-12-09T14:07:38Z</time>
      </trkpt>
      <trkpt lat="49.86081" lon="2.18616">
        <ele>114.3</ele>
        <time>2022-12-09T14:07:39Z</time>
      </trkpt>
      <trkpt lat="49.8608" lon="2.18614">
        <ele>114.3</ele>
        <time>2022-12-09T14:07:41Z</time>
      </trkpt>
      <trkpt lat="49.8608" lon="2.18614">
        <ele>114.3</ele>
        <time>2022-12-09T14:07:42Z</time>
      </trkpt>
      <trkpt lat="49.8608" lon="2.18614">
        <ele>114.3</ele>
        <time>2022-12-09T14:07:43Z</time>
      </trkpt>
      <trkpt lat="49.8608" lon="2.18614">
        <ele>114.3</ele>
        <time>2022-12-09T14:07:44Z</time>
      </trkpt>
      <trkpt lat="49.8608" lon="2.18615">
        <ele>114.3</ele>
        <time>2022-12-09T14:07:46Z</time>
      </trkpt>
      <trkpt lat="49.8608" lon="2.18615">
        <ele>114.3</ele>
        <time>2022-12-09T14:07:47Z</time>
      </trkpt>
      <trkpt lat="49.86081" lon="2.18615">
        <ele>114.3</ele>
        <time>2022-12-09T14:07:48Z</time>
      </trkpt>
      <trkpt lat="49.86081" lon="2.18615">
        <ele>114.3</ele>
        <time>2022-12-09T14:07:49Z</time>
      </trkpt>
      <trkpt lat="49.86082" lon="2.18615">
        <ele>114.2</ele>
        <time>2022-12-09T14:07:51Z</time>
      </trkpt>
      <trkpt lat="49.86083" lon="2.18616">
        <ele>114.2</ele>
        <time>2022-12-09T14:07:52Z</time>
      </trkpt>
      <trkpt lat="49.86085" lon="2.18617">
        <ele>114.2</ele>
        <time>2022-12-09T14:07:53Z</time>
      </trkpt>
      <trkpt lat="49.86086" lon="2.18617">
        <ele>114.2</ele>
        <time>2022-12-09T14:07:54Z</time>
      </trkpt>
      <trkpt lat="49.86087" lon="2.18618">
        <ele>114.2</ele>
        <time>2022-12-09T14:07:55Z</time>
      </trkpt>
      <trkpt lat="49.86088" lon="2.18618">
        <ele>114.2</ele>
        <time>2022-12-09T14:07:56Z</time>
      </trkpt>
      <trkpt lat="49.86089" lon="2.18619">
        <ele>114.1</ele>
        <time>2022-12-09T14:07:58Z</time>
      </trkpt>
      <trkpt lat="49.8609" lon="2.1862">
        <ele>114.1</ele>
        <time>2022-12-09T14:07:59Z</time>
      </trkpt>
      <trkpt lat="49.86091" lon="2.18621">
        <ele>114.1</ele>
        <time>2022-12-09T14:08:00Z</time>
      </trkpt>
      <trkpt lat="49.86091" lon="2.18621">
        <ele>114.1</ele>
        <time>2022-12-09T14:08:01Z</time>
      </trkpt>
      <trkpt lat="49.86092" lon="2.18622">
        <ele>114.1</ele>
        <time>2022-12-09T14:08:02Z</time>
      </trkpt>
      <trkpt lat="49.86092" lon="2.18624">
        <ele>114.1</ele>
        <time>2022-12-09T14:08:04Z</time>
      </trkpt>
      <trkpt lat="49.86093" lon="2.18625">
        <ele>114.1</ele>
        <time>2022-12-09T14:08:05Z</time>
      </trkpt>
      <trkpt lat="49.86094" lon="2.18626">
        <ele>114</ele>
        <time>2022-12-09T14:08:06Z</time>
      </trkpt>
      <trkpt lat="49.86094" lon="2.18628">
        <ele>114</ele>
        <time>2022-12-09T14:08:07Z</time>
      </trkpt>
      <trkpt lat="49.86095" lon="2.18629">
        <ele>114</ele>
        <time>2022-12-09T14:08:08Z</time>
      </trkpt>
      <trkpt lat="49.86095" lon="2.1863">
        <ele>114</ele>
        <time>2022-12-09T14:08:09Z</time>
      </trkpt>
      <trkpt lat="49.86095" lon="2.18631">
        <ele>114</ele>
        <time>2022-12-09T14:08:11Z</time>
      </trkpt>
      <trkpt lat="49.86096" lon="2.18632">
        <ele>114</ele>
        <time>2022-12-09T14:08:12Z</time>
      </trkpt>
      <trkpt lat="49.86096" lon="2.18633">
        <ele>114</ele>
        <time>2022-12-09T14:08:13Z</time>
      </trkpt>
      <trkpt lat="49.86097" lon="2.18633">
        <ele>114</ele>
        <time>2022-12-09T14:08:14Z</time>
      </trkpt>
      <trkpt lat="49.86098" lon="2.18634">
        <ele>114</ele>
        <time>2022-12-09T14:08:15Z</time>
      </trkpt>
      <trkpt lat="49.86098" lon="2.18634">
        <ele>114</ele>
        <time>2022-12-09T14:08:16Z</time>
      </trkpt>
      <trkpt lat="49.86099" lon="2.18635">
        <ele>114</ele>
        <time>2022-12-09T14:08:17Z</time>
      </trkpt>
      <trkpt lat="49.86099" lon="2.18636">
        <ele>114</ele>
        <time>2022-12-09T14:08:19Z</time>
      </trkpt>
      <trkpt lat="49.861" lon="2.18637">
        <ele>113.9</ele>
        <time>2022-12-09T14:08:20Z</time>
      </trkpt>
      <trkpt lat="49.86101" lon="2.18637">
        <ele>113.9</ele>
        <time>2022-12-09T14:08:21Z</time>
      </trkpt>
      <trkpt lat="49.86101" lon="2.18638">
        <ele>113.9</ele>
        <time>2022-12-09T14:08:22Z</time>
      </trkpt>
      <trkpt lat="49.86102" lon="2.18638">
        <ele>113.9</ele>
        <time>2022-12-09T14:08:23Z</time>
      </trkpt>
      <trkpt lat="49.86103" lon="2.18639">
        <ele>113.9</ele>
        <time>2022-12-09T14:08:24Z</time>
      </trkpt>
      <trkpt lat="49.86105" lon="2.1864">
        <ele>113.9</ele>
        <time>2022-12-09T14:08:26Z</time>
      </trkpt>
      <trkpt lat="49.86106" lon="2.1864">
        <ele>113.9</ele>
        <time>2022-12-09T14:08:27Z</time>
      </trkpt>
      <trkpt lat="49.86107" lon="2.18641">
        <ele>113.9</ele>
        <time>2022-12-09T14:08:28Z</time>
      </trkpt>
      <trkpt lat="49.86109" lon="2.18642">
        <ele>113.9</ele>
        <time>2022-12-09T14:08:29Z</time>
      </trkpt>
      <trkpt lat="49.8611" lon="2.18642">
        <ele>113.9</ele>
        <time>2022-12-09T14:08:31Z</time>
      </trkpt>
      <trkpt lat="49.86111" lon="2.18642">
        <ele>113.9</ele>
        <time>2022-12-09T14:08:32Z</time>
      </trkpt>
      <trkpt lat="49.86113" lon="2.18643">
        <ele>113.9</ele>
        <time>2022-12-09T14:08:33Z</time>
      </trkpt>
      <trkpt lat="49.86114" lon="2.18644">
        <ele>113.9</ele>
        <time>2022-12-09T14:08:34Z</time>
      </trkpt>
      <trkpt lat="49.86115" lon="2.18644">
        <ele>113.9</ele>
        <time>2022-12-09T14:08:35Z</time>
      </trkpt>
      <trkpt lat="49.86117" lon="2.18646">
        <ele>113.8</ele>
        <time>2022-12-09T14:08:36Z</time>
      </trkpt>
      <trkpt lat="49.86117" lon="2.18646">
        <ele>113.8</ele>
        <time>2022-12-09T14:08:37Z</time>
      </trkpt>
      <trkpt lat="49.86118" lon="2.18647">
        <ele>113.8</ele>
        <time>2022-12-09T14:08:38Z</time>
      </trkpt>
      <trkpt lat="49.86119" lon="2.18648">
        <ele>113.8</ele>
        <time>2022-12-09T14:08:40Z</time>
      </trkpt>
      <trkpt lat="49.8612" lon="2.18649">
        <ele>113.8</ele>
        <time>2022-12-09T14:08:41Z</time>
      </trkpt>
      <trkpt lat="49.86121" lon="2.1865">
        <ele>113.8</ele>
        <time>2022-12-09T14:08:42Z</time>
      </trkpt>
      <trkpt lat="49.86122" lon="2.18651">
        <ele>113.8</ele>
        <time>2022-12-09T14:08:43Z</time>
      </trkpt>
      <trkpt lat="49.86123" lon="2.18652">
        <ele>113.8</ele>
        <time>2022-12-09T14:08:44Z</time>
      </trkpt>
      <trkpt lat="49.86124" lon="2.18652">
        <ele>113.8</ele>
        <time>2022-12-09T14:08:45Z</time>
      </trkpt>
      <trkpt lat="49.86125" lon="2.18653">
        <ele>113.8</ele>
        <time>2022-12-09T14:08:46Z</time>
      </trkpt>
      <trkpt lat="49.86126" lon="2.18654">
        <ele>113.8</ele>
        <time>2022-12-09T14:08:47Z</time>
      </trkpt>
      <trkpt lat="49.86127" lon="2.18655">
        <ele>113.8</ele>
        <time>2022-12-09T14:08:48Z</time>
      </trkpt>
      <trkpt lat="49.86128" lon="2.18656">
        <ele>113.8</ele>
        <time>2022-12-09T14:08:50Z</time>
      </trkpt>
      <trkpt lat="49.86129" lon="2.18657">
        <ele>113.7</ele>
        <time>2022-12-09T14:08:51Z</time>
      </trkpt>
      <trkpt lat="49.86129" lon="2.18658">
        <ele>113.7</ele>
        <time>2022-12-09T14:08:52Z</time>
      </trkpt>
      <trkpt lat="49.8613" lon="2.18659">
        <ele>113.7</ele>
        <time>2022-12-09T14:08:53Z</time>
      </trkpt>
      <trkpt lat="49.86131" lon="2.1866">
        <ele>113.7</ele>
        <time>2022-12-09T14:08:54Z</time>
      </trkpt>
      <trkpt lat="49.86132" lon="2.18661">
        <ele>113.7</ele>
        <time>2022-12-09T14:08:55Z</time>
      </trkpt>
      <trkpt lat="49.86133" lon="2.18663">
        <ele>113.7</ele>
        <time>2022-12-09T14:08:56Z</time>
      </trkpt>
      <trkpt lat="49.86134" lon="2.18664">
        <ele>113.7</ele>
        <time>2022-12-09T14:08:58Z</time>
      </trkpt>
      <trkpt lat="49.86134" lon="2.18665">
        <ele>113.7</ele>
        <time>2022-12-09T14:08:59Z</time>
      </trkpt>
      <trkpt lat="49.86135" lon="2.18666">
        <ele>113.7</ele>
        <time>2022-12-09T14:09:00Z</time>
      </trkpt>
      <trkpt lat="49.86136" lon="2.18667">
        <ele>113.7</ele>
        <time>2022-12-09T14:09:01Z</time>
      </trkpt>
      <trkpt lat="49.86137" lon="2.18668">
        <ele>113.7</ele>
        <time>2022-12-09T14:09:02Z</time>
      </trkpt>
      <trkpt lat="49.86138" lon="2.18668">
        <ele>113.7</ele>
        <time>2022-12-09T14:09:03Z</time>
      </trkpt>
      <trkpt lat="49.86139" lon="2.18668">
        <ele>113.6</ele>
        <time>2022-12-09T14:09:04Z</time>
      </trkpt>
      <trkpt lat="49.86139" lon="2.18667">
        <ele>113.6</ele>
        <time>2022-12-09T14:09:05Z</time>
      </trkpt>
      <trkpt lat="49.86141" lon="2.18667">
        <ele>113.6</ele>
        <time>2022-12-09T14:09:07Z</time>
      </trkpt>
      <trkpt lat="49.86142" lon="2.18667">
        <ele>113.6</ele>
        <time>2022-12-09T14:09:08Z</time>
      </trkpt>
      <trkpt lat="49.86143" lon="2.18668">
        <ele>113.6</ele>
        <time>2022-12-09T14:09:09Z</time>
      </trkpt>
      <trkpt lat="49.86144" lon="2.1867">
        <ele>113.6</ele>
        <time>2022-12-09T14:09:10Z</time>
      </trkpt>
      <trkpt lat="49.86145" lon="2.18671">
        <ele>113.6</ele>
        <time>2022-12-09T14:09:11Z</time>
      </trkpt>
      <trkpt lat="49.86145" lon="2.18672">
        <ele>113.6</ele>
        <time>2022-12-09T14:09:12Z</time>
      </trkpt>
      <trkpt lat="49.86146" lon="2.18673">
        <ele>113.6</ele>
        <time>2022-12-09T14:09:13Z</time>
      </trkpt>
      <trkpt lat="49.86146" lon="2.18675">
        <ele>113.6</ele>
        <time>2022-12-09T14:09:15Z</time>
      </trkpt>
      <trkpt lat="49.86147" lon="2.18676">
        <ele>113.6</ele>
        <time>2022-12-09T14:09:16Z</time>
      </trkpt>
      <trkpt lat="49.86148" lon="2.18677">
        <ele>113.5</ele>
        <time>2022-12-09T14:09:17Z</time>
      </trkpt>
      <trkpt lat="49.8615" lon="2.18679">
        <ele>113.5</ele>
        <time>2022-12-09T14:09:18Z</time>
      </trkpt>
      <trkpt lat="49.8615" lon="2.1868">
        <ele>113.5</ele>
        <time>2022-12-09T14:09:19Z</time>
      </trkpt>
      <trkpt lat="49.86151" lon="2.18681">
        <ele>113.5</ele>
        <time>2022-12-09T14:09:20Z</time>
      </trkpt>
      <trkpt lat="49.86152" lon="2.18684">
        <ele>113.5</ele>
        <time>2022-12-09T14:09:21Z</time>
      </trkpt>
      <trkpt lat="49.86153" lon="2.18685">
        <ele>113.5</ele>
        <time>2022-12-09T14:09:22Z</time>
      </trkpt>
      <trkpt lat="49.86153" lon="2.18686">
        <ele>113.5</ele>
        <time>2022-12-09T14:09:23Z</time>
      </trkpt>
      <trkpt lat="49.86155" lon="2.18689">
        <ele>113.5</ele>
        <time>2022-12-09T14:09:24Z</time>
      </trkpt>
      <trkpt lat="49.86156" lon="2.1869">
        <ele>113.5</ele>
        <time>2022-12-09T14:09:26Z</time>
      </trkpt>
      <trkpt lat="49.86156" lon="2.18691">
        <ele>113.4</ele>
        <time>2022-12-09T14:09:27Z</time>
      </trkpt>
      <trkpt lat="49.86157" lon="2.18692">
        <ele>113.4</ele>
        <time>2022-12-09T14:09:28Z</time>
      </trkpt>
      <trkpt lat="49.86158" lon="2.18693">
        <ele>113.4</ele>
        <time>2022-12-09T14:09:29Z</time>
      </trkpt>
      <trkpt lat="49.86159" lon="2.18694">
        <ele>113.4</ele>
        <time>2022-12-09T14:09:30Z</time>
      </trkpt>
      <trkpt lat="49.8616" lon="2.18695">
        <ele>113.4</ele>
        <time>2022-12-09T14:09:31Z</time>
      </trkpt>
      <trkpt lat="49.86161" lon="2.18696">
        <ele>113.4</ele>
        <time>2022-12-09T14:09:33Z</time>
      </trkpt>
      <trkpt lat="49.86161" lon="2.18698">
        <ele>113.4</ele>
        <time>2022-12-09T14:09:34Z</time>
      </trkpt>
      <trkpt lat="49.86163" lon="2.18699">
        <ele>113.4</ele>
        <time>2022-12-09T14:09:35Z</time>
      </trkpt>
      <trkpt lat="49.86163" lon="2.187">
        <ele>113.4</ele>
        <time>2022-12-09T14:09:36Z</time>
      </trkpt>
      <trkpt lat="49.86164" lon="2.18701">
        <ele>113.4</ele>
        <time>2022-12-09T14:09:38Z</time>
      </trkpt>
      <trkpt lat="49.86165" lon="2.18702">
        <ele>113.3</ele>
        <time>2022-12-09T14:09:39Z</time>
      </trkpt>
      <trkpt lat="49.86166" lon="2.18703">
        <ele>113.3</ele>
        <time>2022-12-09T14:09:40Z</time>
      </trkpt>
      <trkpt lat="49.86168" lon="2.18704">
        <ele>113.3</ele>
        <time>2022-12-09T14:09:41Z</time>
      </trkpt>
      <trkpt lat="49.86169" lon="2.18705">
        <ele>113.3</ele>
        <time>2022-12-09T14:09:43Z</time>
      </trkpt>
      <trkpt lat="49.86171" lon="2.18707">
        <ele>113.3</ele>
        <time>2022-12-09T14:09:44Z</time>
      </trkpt>
      <trkpt lat="49.86172" lon="2.18708">
        <ele>113.3</ele>
        <time>2022-12-09T14:09:45Z</time>
      </trkpt>
      <trkpt lat="49.86172" lon="2.18709">
        <ele>113.3</ele>
        <time>2022-12-09T14:09:46Z</time>
      </trkpt>
      <trkpt lat="49.86173" lon="2.18709">
        <ele>113.2</ele>
        <time>2022-12-09T14:09:47Z</time>
      </trkpt>
      <trkpt lat="49.86174" lon="2.1871">
        <ele>113.2</ele>
        <time>2022-12-09T14:09:48Z</time>
      </trkpt>
      <trkpt lat="49.86175" lon="2.18711">
        <ele>113.2</ele>
        <time>2022-12-09T14:09:49Z</time>
      </trkpt>
      <trkpt lat="49.86176" lon="2.18713">
        <ele>113.2</ele>
        <time>2022-12-09T14:09:51Z</time>
      </trkpt>
      <trkpt lat="49.86177" lon="2.18714">
        <ele>113.2</ele>
        <time>2022-12-09T14:09:52Z</time>
      </trkpt>
      <trkpt lat="49.86178" lon="2.18715">
        <ele>113.2</ele>
        <time>2022-12-09T14:09:53Z</time>
      </trkpt>
      <trkpt lat="49.8618" lon="2.18716">
        <ele>113.2</ele>
        <time>2022-12-09T14:09:54Z</time>
      </trkpt>
      <trkpt lat="49.8618" lon="2.18717">
        <ele>113.2</ele>
        <time>2022-12-09T14:09:55Z</time>
      </trkpt>
      <trkpt lat="49.86181" lon="2.18718">
        <ele>113.1</ele>
        <time>2022-12-09T14:09:56Z</time>
      </trkpt>
      <trkpt lat="49.86182" lon="2.18719">
        <ele>113.1</ele>
        <time>2022-12-09T14:09:57Z</time>
      </trkpt>
      <trkpt lat="49.86183" lon="2.1872">
        <ele>113.1</ele>
        <time>2022-12-09T14:09:58Z</time>
      </trkpt>
      <trkpt lat="49.86184" lon="2.18721">
        <ele>113.1</ele>
        <time>2022-12-09T14:10:00Z</time>
      </trkpt>
      <trkpt lat="49.86185" lon="2.18722">
        <ele>113.1</ele>
        <time>2022-12-09T14:10:01Z</time>
      </trkpt>
      <trkpt lat="49.86186" lon="2.18723">
        <ele>113.1</ele>
        <time>2022-12-09T14:10:02Z</time>
      </trkpt>
      <trkpt lat="49.86187" lon="2.18724">
        <ele>113.1</ele>
        <time>2022-12-09T14:10:03Z</time>
      </trkpt>
      <trkpt lat="49.86187" lon="2.18725">
        <ele>113.1</ele>
        <time>2022-12-09T14:10:04Z</time>
      </trkpt>
      <trkpt lat="49.86188" lon="2.18727">
        <ele>113</ele>
        <time>2022-12-09T14:10:05Z</time>
      </trkpt>
      <trkpt lat="49.86189" lon="2.18728">
        <ele>113</ele>
        <time>2022-12-09T14:10:06Z</time>
      </trkpt>
      <trkpt lat="49.8619" lon="2.1873">
        <ele>113</ele>
        <time>2022-12-09T14:10:07Z</time>
      </trkpt>
      <trkpt lat="49.86191" lon="2.18731">
        <ele>113</ele>
        <time>2022-12-09T14:10:08Z</time>
      </trkpt>
      <trkpt lat="49.86191" lon="2.18732">
        <ele>113</ele>
        <time>2022-12-09T14:10:09Z</time>
      </trkpt>
      <trkpt lat="49.86193" lon="2.18734">
        <ele>113</ele>
        <time>2022-12-09T14:10:11Z</time>
      </trkpt>
      <trkpt lat="49.86194" lon="2.18735">
        <ele>113</ele>
        <time>2022-12-09T14:10:12Z</time>
      </trkpt>
      <trkpt lat="49.86195" lon="2.18736">
        <ele>112.9</ele>
        <time>2022-12-09T14:10:13Z</time>
      </trkpt>
      <trkpt lat="49.86196" lon="2.18737">
        <ele>112.9</ele>
        <time>2022-12-09T14:10:14Z</time>
      </trkpt>
      <trkpt lat="49.86197" lon="2.18738">
        <ele>112.9</ele>
        <time>2022-12-09T14:10:15Z</time>
      </trkpt>
      <trkpt lat="49.86198" lon="2.18739">
        <ele>112.9</ele>
        <time>2022-12-09T14:10:16Z</time>
      </trkpt>
      <trkpt lat="49.86199" lon="2.18739">
        <ele>112.9</ele>
        <time>2022-12-09T14:10:17Z</time>
      </trkpt>
      <trkpt lat="49.862" lon="2.1874">
        <ele>112.9</ele>
        <time>2022-12-09T14:10:19Z</time>
      </trkpt>
      <trkpt lat="49.86201" lon="2.18741">
        <ele>112.9</ele>
        <time>2022-12-09T14:10:20Z</time>
      </trkpt>
      <trkpt lat="49.86203" lon="2.18741">
        <ele>112.8</ele>
        <time>2022-12-09T14:10:21Z</time>
      </trkpt>
      <trkpt lat="49.86204" lon="2.18742">
        <ele>112.8</ele>
        <time>2022-12-09T14:10:22Z</time>
      </trkpt>
      <trkpt lat="49.86205" lon="2.18743">
        <ele>112.8</ele>
        <time>2022-12-09T14:10:23Z</time>
      </trkpt>
      <trkpt lat="49.86208" lon="2.18744">
        <ele>112.8</ele>
        <time>2022-12-09T14:10:24Z</time>
      </trkpt>
      <trkpt lat="49.86208" lon="2.18745">
        <ele>112.8</ele>
        <time>2022-12-09T14:10:25Z</time>
      </trkpt>
      <trkpt lat="49.86209" lon="2.18745">
        <ele>112.8</ele>
        <time>2022-12-09T14:10:26Z</time>
      </trkpt>
      <trkpt lat="49.86211" lon="2.18746">
        <ele>112.7</ele>
        <time>2022-12-09T14:10:28Z</time>
      </trkpt>
      <trkpt lat="49.86212" lon="2.18747">
        <ele>112.7</ele>
        <time>2022-12-09T14:10:29Z</time>
      </trkpt>
      <trkpt lat="49.86213" lon="2.18748">
        <ele>112.7</ele>
        <time>2022-12-09T14:10:30Z</time>
      </trkpt>
      <trkpt lat="49.86213" lon="2.18748">
        <ele>112.7</ele>
        <time>2022-12-09T14:10:31Z</time>
      </trkpt>
      <trkpt lat="49.86214" lon="2.18749">
        <ele>112.7</ele>
        <time>2022-12-09T14:10:32Z</time>
      </trkpt>
      <trkpt lat="49.86215" lon="2.1875">
        <ele>112.7</ele>
        <time>2022-12-09T14:10:33Z</time>
      </trkpt>
      <trkpt lat="49.86216" lon="2.18751">
        <ele>112.7</ele>
        <time>2022-12-09T14:10:34Z</time>
      </trkpt>
      <trkpt lat="49.86218" lon="2.18752">
        <ele>112.6</ele>
        <time>2022-12-09T14:10:36Z</time>
      </trkpt>
      <trkpt lat="49.86219" lon="2.18754">
        <ele>112.6</ele>
        <time>2022-12-09T14:10:37Z</time>
      </trkpt>
      <trkpt lat="49.8622" lon="2.18755">
        <ele>112.6</ele>
        <time>2022-12-09T14:10:38Z</time>
      </trkpt>
      <trkpt lat="49.86221" lon="2.18756">
        <ele>112.6</ele>
        <time>2022-12-09T14:10:39Z</time>
      </trkpt>
      <trkpt lat="49.86222" lon="2.18757">
        <ele>112.6</ele>
        <time>2022-12-09T14:10:40Z</time>
      </trkpt>
      <trkpt lat="49.86223" lon="2.18759">
        <ele>112.5</ele>
        <time>2022-12-09T14:10:42Z</time>
      </trkpt>
      <trkpt lat="49.86224" lon="2.1876">
        <ele>112.5</ele>
        <time>2022-12-09T14:10:43Z</time>
      </trkpt>
      <trkpt lat="49.86226" lon="2.18762">
        <ele>112.5</ele>
        <time>2022-12-09T14:10:44Z</time>
      </trkpt>
      <trkpt lat="49.86227" lon="2.18762">
        <ele>112.5</ele>
        <time>2022-12-09T14:10:45Z</time>
      </trkpt>
      <trkpt lat="49.86227" lon="2.18763">
        <ele>112.5</ele>
        <time>2022-12-09T14:10:46Z</time>
      </trkpt>
      <trkpt lat="49.86228" lon="2.18764">
        <ele>112.5</ele>
        <time>2022-12-09T14:10:47Z</time>
      </trkpt>
      <trkpt lat="49.86229" lon="2.18766">
        <ele>112.4</ele>
        <time>2022-12-09T14:10:48Z</time>
      </trkpt>
      <trkpt lat="49.86231" lon="2.18768">
        <ele>112.4</ele>
        <time>2022-12-09T14:10:50Z</time>
      </trkpt>
      <trkpt lat="49.86232" lon="2.18769">
        <ele>112.4</ele>
        <time>2022-12-09T14:10:51Z</time>
      </trkpt>
      <trkpt lat="49.86233" lon="2.18771">
        <ele>112.4</ele>
        <time>2022-12-09T14:10:52Z</time>
      </trkpt>
      <trkpt lat="49.86234" lon="2.18773">
        <ele>112.4</ele>
        <time>2022-12-09T14:10:53Z</time>
      </trkpt>
      <trkpt lat="49.86235" lon="2.18774">
        <ele>112.3</ele>
        <time>2022-12-09T14:10:54Z</time>
      </trkpt>
      <trkpt lat="49.86237" lon="2.18775">
        <ele>112.3</ele>
        <time>2022-12-09T14:10:55Z</time>
      </trkpt>
      <trkpt lat="49.86238" lon="2.18777">
        <ele>112.3</ele>
        <time>2022-12-09T14:10:57Z</time>
      </trkpt>
      <trkpt lat="49.8624" lon="2.18778">
        <ele>112.3</ele>
        <time>2022-12-09T14:10:58Z</time>
      </trkpt>
      <trkpt lat="49.86241" lon="2.18779">
        <ele>112.3</ele>
        <time>2022-12-09T14:10:59Z</time>
      </trkpt>
      <trkpt lat="49.86243" lon="2.1878">
        <ele>112.3</ele>
        <time>2022-12-09T14:11:00Z</time>
      </trkpt>
      <trkpt lat="49.86243" lon="2.18781">
        <ele>112.2</ele>
        <time>2022-12-09T14:11:01Z</time>
      </trkpt>
      <trkpt lat="49.86244" lon="2.18782">
        <ele>112.2</ele>
        <time>2022-12-09T14:11:02Z</time>
      </trkpt>
      <trkpt lat="49.86246" lon="2.18784">
        <ele>112.2</ele>
        <time>2022-12-09T14:11:03Z</time>
      </trkpt>
      <trkpt lat="49.86246" lon="2.18785">
        <ele>112.2</ele>
        <time>2022-12-09T14:11:05Z</time>
      </trkpt>
      <trkpt lat="49.86247" lon="2.18786">
        <ele>112.2</ele>
        <time>2022-12-09T14:11:06Z</time>
      </trkpt>
      <trkpt lat="49.86248" lon="2.18787">
        <ele>112.2</ele>
        <time>2022-12-09T14:11:07Z</time>
      </trkpt>
      <trkpt lat="49.8625" lon="2.18789">
        <ele>112.2</ele>
        <time>2022-12-09T14:11:08Z</time>
      </trkpt>
      <trkpt lat="49.86251" lon="2.1879">
        <ele>112.1</ele>
        <time>2022-12-09T14:11:10Z</time>
      </trkpt>
      <trkpt lat="49.86252" lon="2.18792">
        <ele>112.1</ele>
        <time>2022-12-09T14:11:11Z</time>
      </trkpt>
      <trkpt lat="49.86254" lon="2.18794">
        <ele>112.1</ele>
        <time>2022-12-09T14:11:12Z</time>
      </trkpt>
      <trkpt lat="49.86255" lon="2.18794">
        <ele>112.1</ele>
        <time>2022-12-09T14:11:13Z</time>
      </trkpt>
      <trkpt lat="49.86255" lon="2.18795">
        <ele>112.1</ele>
        <time>2022-12-09T14:11:14Z</time>
      </trkpt>
      <trkpt lat="49.86256" lon="2.18796">
        <ele>112.1</ele>
        <time>2022-12-09T14:11:15Z</time>
      </trkpt>
      <trkpt lat="49.86257" lon="2.18797">
        <ele>112.1</ele>
        <time>2022-12-09T14:11:17Z</time>
      </trkpt>
      <trkpt lat="49.86258" lon="2.18798">
        <ele>112.1</ele>
        <time>2022-12-09T14:11:18Z</time>
      </trkpt>
      <trkpt lat="49.86259" lon="2.18799">
        <ele>112.1</ele>
        <time>2022-12-09T14:11:19Z</time>
      </trkpt>
      <trkpt lat="49.8626" lon="2.18799">
        <ele>112</ele>
        <time>2022-12-09T14:11:20Z</time>
      </trkpt>
      <trkpt lat="49.86261" lon="2.188">
        <ele>112</ele>
        <time>2022-12-09T14:11:21Z</time>
      </trkpt>
      <trkpt lat="49.86262" lon="2.18801">
        <ele>112</ele>
        <time>2022-12-09T14:11:22Z</time>
      </trkpt>
      <trkpt lat="49.86263" lon="2.18802">
        <ele>112</ele>
        <time>2022-12-09T14:11:23Z</time>
      </trkpt>
      <trkpt lat="49.86263" lon="2.18803">
        <ele>112</ele>
        <time>2022-12-09T14:11:24Z</time>
      </trkpt>
      <trkpt lat="49.86264" lon="2.18804">
        <ele>112</ele>
        <time>2022-12-09T14:11:26Z</time>
      </trkpt>
      <trkpt lat="49.86265" lon="2.18805">
        <ele>112</ele>
        <time>2022-12-09T14:11:27Z</time>
      </trkpt>
      <trkpt lat="49.86265" lon="2.18806">
        <ele>112</ele>
        <time>2022-12-09T14:11:28Z</time>
      </trkpt>
      <trkpt lat="49.86265" lon="2.18806">
        <ele>112</ele>
        <time>2022-12-09T14:11:30Z</time>
      </trkpt>
      <trkpt lat="49.86265" lon="2.18808">
        <ele>112</ele>
        <time>2022-12-09T14:11:31Z</time>
      </trkpt>
      <trkpt lat="49.86265" lon="2.18809">
        <ele>112</ele>
        <time>2022-12-09T14:11:32Z</time>
      </trkpt>
      <trkpt lat="49.86265" lon="2.1881">
        <ele>112</ele>
        <time>2022-12-09T14:11:33Z</time>
      </trkpt>
      <trkpt lat="49.86266" lon="2.1881">
        <ele>112</ele>
        <time>2022-12-09T14:11:34Z</time>
      </trkpt>
      <trkpt lat="49.86266" lon="2.18811">
        <ele>112</ele>
        <time>2022-12-09T14:11:35Z</time>
      </trkpt>
      <trkpt lat="49.86267" lon="2.18812">
        <ele>112</ele>
        <time>2022-12-09T14:11:36Z</time>
      </trkpt>
      <trkpt lat="49.86268" lon="2.18812">
        <ele>112</ele>
        <time>2022-12-09T14:11:38Z</time>
      </trkpt>
      <trkpt lat="49.86269" lon="2.18813">
        <ele>112</ele>
        <time>2022-12-09T14:11:39Z</time>
      </trkpt>
      <trkpt lat="49.86269" lon="2.18813">
        <ele>112</ele>
        <time>2022-12-09T14:11:41Z</time>
      </trkpt>
      <trkpt lat="49.8627" lon="2.18813">
        <ele>112</ele>
        <time>2022-12-09T14:11:42Z</time>
      </trkpt>
      <trkpt lat="49.8627" lon="2.18812">
        <ele>112</ele>
        <time>2022-12-09T14:11:44Z</time>
      </trkpt>
      <trkpt lat="49.8627" lon="2.18812">
        <ele>112</ele>
        <time>2022-12-09T14:11:45Z</time>
      </trkpt>
      <trkpt lat="49.8627" lon="2.18811">
        <ele>112</ele>
        <time>2022-12-09T14:11:47Z</time>
      </trkpt>
      <trkpt lat="49.86271" lon="2.18811">
        <ele>112</ele>
        <time>2022-12-09T14:11:48Z</time>
      </trkpt>
      <trkpt lat="49.86271" lon="2.18811">
        <ele>112</ele>
        <time>2022-12-09T14:11:49Z</time>
      </trkpt>
      <trkpt lat="49.86271" lon="2.18811">
        <ele>112</ele>
        <time>2022-12-09T14:11:51Z</time>
      </trkpt>
      <trkpt lat="49.86272" lon="2.18812">
        <ele>111.9</ele>
        <time>2022-12-09T14:11:52Z</time>
      </trkpt>
      <trkpt lat="49.86272" lon="2.18813">
        <ele>111.9</ele>
        <time>2022-12-09T14:11:53Z</time>
      </trkpt>
      <trkpt lat="49.86273" lon="2.18813">
        <ele>111.9</ele>
        <time>2022-12-09T14:11:54Z</time>
      </trkpt>
      <trkpt lat="49.86274" lon="2.18814">
        <ele>111.9</ele>
        <time>2022-12-09T14:11:55Z</time>
      </trkpt>
      <trkpt lat="49.86275" lon="2.18815">
        <ele>111.9</ele>
        <time>2022-12-09T14:11:56Z</time>
      </trkpt>
      <trkpt lat="49.86276" lon="2.18816">
        <ele>111.9</ele>
        <time>2022-12-09T14:11:57Z</time>
      </trkpt>
      <trkpt lat="49.86276" lon="2.18816">
        <ele>111.9</ele>
        <time>2022-12-09T14:11:58Z</time>
      </trkpt>
      <trkpt lat="49.86277" lon="2.18817">
        <ele>111.9</ele>
        <time>2022-12-09T14:11:59Z</time>
      </trkpt>
      <trkpt lat="49.86279" lon="2.18818">
        <ele>111.9</ele>
        <time>2022-12-09T14:12:00Z</time>
      </trkpt>
      <trkpt lat="49.86279" lon="2.18819">
        <ele>111.9</ele>
        <time>2022-12-09T14:12:02Z</time>
      </trkpt>
      <trkpt lat="49.8628" lon="2.1882">
        <ele>111.9</ele>
        <time>2022-12-09T14:12:03Z</time>
      </trkpt>
      <trkpt lat="49.86281" lon="2.18821">
        <ele>111.9</ele>
        <time>2022-12-09T14:12:04Z</time>
      </trkpt>
      <trkpt lat="49.86282" lon="2.18821">
        <ele>111.9</ele>
        <time>2022-12-09T14:12:05Z</time>
      </trkpt>
      <trkpt lat="49.86283" lon="2.18822">
        <ele>111.9</ele>
        <time>2022-12-09T14:12:06Z</time>
      </trkpt>
      <trkpt lat="49.86284" lon="2.18822">
        <ele>111.9</ele>
        <time>2022-12-09T14:12:07Z</time>
      </trkpt>
      <trkpt lat="49.86285" lon="2.18823">
        <ele>111.9</ele>
        <time>2022-12-09T14:12:09Z</time>
      </trkpt>
      <trkpt lat="49.86286" lon="2.18824">
        <ele>111.9</ele>
        <time>2022-12-09T14:12:10Z</time>
      </trkpt>
      <trkpt lat="49.86287" lon="2.18825">
        <ele>111.9</ele>
        <time>2022-12-09T14:12:11Z</time>
      </trkpt>
      <trkpt lat="49.86288" lon="2.18827">
        <ele>111.9</ele>
        <time>2022-12-09T14:12:12Z</time>
      </trkpt>
      <trkpt lat="49.86288" lon="2.18828">
        <ele>111.9</ele>
        <time>2022-12-09T14:12:13Z</time>
      </trkpt>
      <trkpt lat="49.86289" lon="2.18829">
        <ele>111.9</ele>
        <time>2022-12-09T14:12:14Z</time>
      </trkpt>
      <trkpt lat="49.8629" lon="2.1883">
        <ele>111.9</ele>
        <time>2022-12-09T14:12:15Z</time>
      </trkpt>
      <trkpt lat="49.86291" lon="2.18831">
        <ele>111.9</ele>
        <time>2022-12-09T14:12:17Z</time>
      </trkpt>
      <trkpt lat="49.86292" lon="2.18832">
        <ele>111.9</ele>
        <time>2022-12-09T14:12:18Z</time>
      </trkpt>
      <trkpt lat="49.86293" lon="2.18833">
        <ele>111.9</ele>
        <time>2022-12-09T14:12:19Z</time>
      </trkpt>
      <trkpt lat="49.86294" lon="2.18834">
        <ele>111.9</ele>
        <time>2022-12-09T14:12:20Z</time>
      </trkpt>
      <trkpt lat="49.86294" lon="2.18835">
        <ele>111.9</ele>
        <time>2022-12-09T14:12:21Z</time>
      </trkpt>
      <trkpt lat="49.86295" lon="2.18836">
        <ele>111.9</ele>
        <time>2022-12-09T14:12:22Z</time>
      </trkpt>
      <trkpt lat="49.86296" lon="2.18838">
        <ele>111.9</ele>
        <time>2022-12-09T14:12:23Z</time>
      </trkpt>
      <trkpt lat="49.86297" lon="2.18839">
        <ele>111.9</ele>
        <time>2022-12-09T14:12:24Z</time>
      </trkpt>
      <trkpt lat="49.86298" lon="2.1884">
        <ele>111.9</ele>
        <time>2022-12-09T14:12:26Z</time>
      </trkpt>
      <trkpt lat="49.86299" lon="2.18841">
        <ele>111.9</ele>
        <time>2022-12-09T14:12:27Z</time>
      </trkpt>
      <trkpt lat="49.863" lon="2.18843">
        <ele>111.9</ele>
        <time>2022-12-09T14:12:28Z</time>
      </trkpt>
      <trkpt lat="49.86301" lon="2.18844">
        <ele>111.9</ele>
        <time>2022-12-09T14:12:29Z</time>
      </trkpt>
      <trkpt lat="49.86302" lon="2.18844">
        <ele>111.9</ele>
        <time>2022-12-09T14:12:30Z</time>
      </trkpt>
      <trkpt lat="49.86303" lon="2.18846">
        <ele>111.8</ele>
        <time>2022-12-09T14:12:31Z</time>
      </trkpt>
      <trkpt lat="49.86304" lon="2.18847">
        <ele>111.8</ele>
        <time>2022-12-09T14:12:33Z</time>
      </trkpt>
      <trkpt lat="49.86305" lon="2.18847">
        <ele>111.8</ele>
        <time>2022-12-09T14:12:34Z</time>
      </trkpt>
      <trkpt lat="49.86306" lon="2.18848">
        <ele>111.8</ele>
        <time>2022-12-09T14:12:35Z</time>
      </trkpt>
      <trkpt lat="49.86307" lon="2.18849">
        <ele>111.8</ele>
        <time>2022-12-09T14:12:36Z</time>
      </trkpt>
      <trkpt lat="49.86307" lon="2.1885">
        <ele>111.8</ele>
        <time>2022-12-09T14:12:37Z</time>
      </trkpt>
      <trkpt lat="49.86308" lon="2.18851">
        <ele>111.8</ele>
        <time>2022-12-09T14:12:38Z</time>
      </trkpt>
      <trkpt lat="49.86309" lon="2.18852">
        <ele>111.8</ele>
        <time>2022-12-09T14:12:39Z</time>
      </trkpt>
      <trkpt lat="49.8631" lon="2.18853">
        <ele>111.8</ele>
        <time>2022-12-09T14:12:40Z</time>
      </trkpt>
      <trkpt lat="49.86311" lon="2.18855">
        <ele>111.8</ele>
        <time>2022-12-09T14:12:42Z</time>
      </trkpt>
      <trkpt lat="49.86312" lon="2.18856">
        <ele>111.8</ele>
        <time>2022-12-09T14:12:43Z</time>
      </trkpt>
      <trkpt lat="49.86312" lon="2.18857">
        <ele>111.8</ele>
        <time>2022-12-09T14:12:44Z</time>
      </trkpt>
      <trkpt lat="49.86313" lon="2.18858">
        <ele>111.8</ele>
        <time>2022-12-09T14:12:45Z</time>
      </trkpt>
      <trkpt lat="49.86314" lon="2.18859">
        <ele>111.8</ele>
        <time>2022-12-09T14:12:46Z</time>
      </trkpt>
      <trkpt lat="49.86315" lon="2.1886">
        <ele>111.8</ele>
        <time>2022-12-09T14:12:47Z</time>
      </trkpt>
      <trkpt lat="49.86316" lon="2.18861">
        <ele>111.8</ele>
        <time>2022-12-09T14:12:48Z</time>
      </trkpt>
      <trkpt lat="49.86317" lon="2.18862">
        <ele>111.8</ele>
        <time>2022-12-09T14:12:49Z</time>
      </trkpt>
      <trkpt lat="49.86318" lon="2.18863">
        <ele>111.7</ele>
        <time>2022-12-09T14:12:51Z</time>
      </trkpt>
      <trkpt lat="49.86319" lon="2.18865">
        <ele>111.7</ele>
        <time>2022-12-09T14:12:52Z</time>
      </trkpt>
      <trkpt lat="49.86319" lon="2.18866">
        <ele>111.7</ele>
        <time>2022-12-09T14:12:53Z</time>
      </trkpt>
      <trkpt lat="49.8632" lon="2.18866">
        <ele>111.7</ele>
        <time>2022-12-09T14:12:54Z</time>
      </trkpt>
      <trkpt lat="49.86321" lon="2.18867">
        <ele>111.7</ele>
        <time>2022-12-09T14:12:55Z</time>
      </trkpt>
      <trkpt lat="49.86322" lon="2.18868">
        <ele>111.7</ele>
        <time>2022-12-09T14:12:56Z</time>
      </trkpt>
      <trkpt lat="49.86323" lon="2.18869">
        <ele>111.7</ele>
        <time>2022-12-09T14:12:57Z</time>
      </trkpt>
      <trkpt lat="49.86324" lon="2.1887">
        <ele>111.7</ele>
        <time>2022-12-09T14:12:59Z</time>
      </trkpt>
      <trkpt lat="49.86325" lon="2.18871">
        <ele>111.7</ele>
        <time>2022-12-09T14:13:00Z</time>
      </trkpt>
      <trkpt lat="49.86326" lon="2.18873">
        <ele>111.6</ele>
        <time>2022-12-09T14:13:01Z</time>
      </trkpt>
      <trkpt lat="49.86327" lon="2.18874">
        <ele>111.6</ele>
        <time>2022-12-09T14:13:02Z</time>
      </trkpt>
      <trkpt lat="49.86328" lon="2.18875">
        <ele>111.6</ele>
        <time>2022-12-09T14:13:03Z</time>
      </trkpt>
      <trkpt lat="49.86329" lon="2.18876">
        <ele>111.6</ele>
        <time>2022-12-09T14:13:04Z</time>
      </trkpt>
      <trkpt lat="49.8633" lon="2.18877">
        <ele>111.6</ele>
        <time>2022-12-09T14:13:05Z</time>
      </trkpt>
      <trkpt lat="49.86331" lon="2.18878">
        <ele>111.6</ele>
        <time>2022-12-09T14:13:06Z</time>
      </trkpt>
      <trkpt lat="49.86332" lon="2.18879">
        <ele>111.6</ele>
        <time>2022-12-09T14:13:08Z</time>
      </trkpt>
      <trkpt lat="49.86333" lon="2.1888">
        <ele>111.6</ele>
        <time>2022-12-09T14:13:09Z</time>
      </trkpt>
      <trkpt lat="49.86335" lon="2.18882">
        <ele>111.5</ele>
        <time>2022-12-09T14:13:10Z</time>
      </trkpt>
      <trkpt lat="49.86336" lon="2.18882">
        <ele>111.5</ele>
        <time>2022-12-09T14:13:11Z</time>
      </trkpt>
      <trkpt lat="49.86336" lon="2.18883">
        <ele>111.5</ele>
        <time>2022-12-09T14:13:12Z</time>
      </trkpt>
      <trkpt lat="49.86338" lon="2.18885">
        <ele>111.5</ele>
        <time>2022-12-09T14:13:13Z</time>
      </trkpt>
      <trkpt lat="49.86339" lon="2.18886">
        <ele>111.5</ele>
        <time>2022-12-09T14:13:14Z</time>
      </trkpt>
      <trkpt lat="49.86339" lon="2.18887">
        <ele>111.5</ele>
        <time>2022-12-09T14:13:15Z</time>
      </trkpt>
      <trkpt lat="49.8634" lon="2.18888">
        <ele>111.5</ele>
        <time>2022-12-09T14:13:16Z</time>
      </trkpt>
      <trkpt lat="49.86341" lon="2.18889">
        <ele>111.4</ele>
        <time>2022-12-09T14:13:18Z</time>
      </trkpt>
      <trkpt lat="49.86342" lon="2.18891">
        <ele>111.4</ele>
        <time>2022-12-09T14:13:19Z</time>
      </trkpt>
      <trkpt lat="49.86342" lon="2.18893">
        <ele>111.4</ele>
        <time>2022-12-09T14:13:20Z</time>
      </trkpt>
      <trkpt lat="49.86342" lon="2.18894">
        <ele>111.4</ele>
        <time>2022-12-09T14:13:22Z</time>
      </trkpt>
      <trkpt lat="49.86343" lon="2.18895">
        <ele>111.4</ele>
        <time>2022-12-09T14:13:23Z</time>
      </trkpt>
      <trkpt lat="49.86344" lon="2.18896">
        <ele>111.4</ele>
        <time>2022-12-09T14:13:24Z</time>
      </trkpt>
      <trkpt lat="49.86345" lon="2.18896">
        <ele>111.4</ele>
        <time>2022-12-09T14:13:25Z</time>
      </trkpt>
      <trkpt lat="49.86346" lon="2.18897">
        <ele>111.4</ele>
        <time>2022-12-09T14:13:26Z</time>
      </trkpt>
      <trkpt lat="49.86347" lon="2.18898">
        <ele>111.4</ele>
        <time>2022-12-09T14:13:27Z</time>
      </trkpt>
      <trkpt lat="49.86348" lon="2.18898">
        <ele>111.4</ele>
        <time>2022-12-09T14:13:28Z</time>
      </trkpt>
      <trkpt lat="49.86349" lon="2.18899">
        <ele>111.3</ele>
        <time>2022-12-09T14:13:29Z</time>
      </trkpt>
      <trkpt lat="49.8635" lon="2.18899">
        <ele>111.3</ele>
        <time>2022-12-09T14:13:31Z</time>
      </trkpt>
      <trkpt lat="49.86352" lon="2.189">
        <ele>111.3</ele>
        <time>2022-12-09T14:13:32Z</time>
      </trkpt>
      <trkpt lat="49.86353" lon="2.18899">
        <ele>111.3</ele>
        <time>2022-12-09T14:13:33Z</time>
      </trkpt>
      <trkpt lat="49.86354" lon="2.18899">
        <ele>111.3</ele>
        <time>2022-12-09T14:13:35Z</time>
      </trkpt>
      <trkpt lat="49.86355" lon="2.189">
        <ele>111.3</ele>
        <time>2022-12-09T14:13:36Z</time>
      </trkpt>
      <trkpt lat="49.86356" lon="2.18901">
        <ele>111.3</ele>
        <time>2022-12-09T14:13:37Z</time>
      </trkpt>
      <trkpt lat="49.86357" lon="2.18902">
        <ele>111.3</ele>
        <time>2022-12-09T14:13:38Z</time>
      </trkpt>
      <trkpt lat="49.86358" lon="2.18902">
        <ele>111.3</ele>
        <time>2022-12-09T14:13:39Z</time>
      </trkpt>
      <trkpt lat="49.86359" lon="2.18904">
        <ele>111.3</ele>
        <time>2022-12-09T14:13:40Z</time>
      </trkpt>
      <trkpt lat="49.8636" lon="2.18905">
        <ele>111.2</ele>
        <time>2022-12-09T14:13:41Z</time>
      </trkpt>
      <trkpt lat="49.86361" lon="2.18905">
        <ele>111.2</ele>
        <time>2022-12-09T14:13:42Z</time>
      </trkpt>
      <trkpt lat="49.86362" lon="2.18906">
        <ele>111.2</ele>
        <time>2022-12-09T14:13:43Z</time>
      </trkpt>
      <trkpt lat="49.86363" lon="2.18907">
        <ele>111.2</ele>
        <time>2022-12-09T14:13:44Z</time>
      </trkpt>
      <trkpt lat="49.86364" lon="2.18908">
        <ele>111.2</ele>
        <time>2022-12-09T14:13:45Z</time>
      </trkpt>
      <trkpt lat="49.86366" lon="2.1891">
        <ele>111.2</ele>
        <time>2022-12-09T14:13:47Z</time>
      </trkpt>
      <trkpt lat="49.86367" lon="2.18911">
        <ele>111.2</ele>
        <time>2022-12-09T14:13:48Z</time>
      </trkpt>
      <trkpt lat="49.86367" lon="2.18911">
        <ele>111.2</ele>
        <time>2022-12-09T14:13:49Z</time>
      </trkpt>
      <trkpt lat="49.86369" lon="2.18912">
        <ele>111.2</ele>
        <time>2022-12-09T14:13:50Z</time>
      </trkpt>
      <trkpt lat="49.8637" lon="2.18913">
        <ele>111.2</ele>
        <time>2022-12-09T14:13:51Z</time>
      </trkpt>
      <trkpt lat="49.86371" lon="2.18914">
        <ele>111.2</ele>
        <time>2022-12-09T14:13:52Z</time>
      </trkpt>
      <trkpt lat="49.86372" lon="2.18915">
        <ele>111.1</ele>
        <time>2022-12-09T14:13:53Z</time>
      </trkpt>
      <trkpt lat="49.86373" lon="2.18916">
        <ele>111.1</ele>
        <time>2022-12-09T14:13:55Z</time>
      </trkpt>
      <trkpt lat="49.86374" lon="2.18918">
        <ele>111.1</ele>
        <time>2022-12-09T14:13:56Z</time>
      </trkpt>
      <trkpt lat="49.86375" lon="2.18919">
        <ele>111.1</ele>
        <time>2022-12-09T14:13:57Z</time>
      </trkpt>
      <trkpt lat="49.86375" lon="2.1892">
        <ele>111.1</ele>
        <time>2022-12-09T14:13:58Z</time>
      </trkpt>
      <trkpt lat="49.86377" lon="2.18921">
        <ele>111.1</ele>
        <time>2022-12-09T14:13:59Z</time>
      </trkpt>
      <trkpt lat="49.86378" lon="2.18922">
        <ele>111.1</ele>
        <time>2022-12-09T14:14:00Z</time>
      </trkpt>
      <trkpt lat="49.86379" lon="2.18923">
        <ele>111.1</ele>
        <time>2022-12-09T14:14:02Z</time>
      </trkpt>
      <trkpt lat="49.8638" lon="2.18923">
        <ele>111.1</ele>
        <time>2022-12-09T14:14:03Z</time>
      </trkpt>
      <trkpt lat="49.86381" lon="2.18924">
        <ele>111.1</ele>
        <time>2022-12-09T14:14:04Z</time>
      </trkpt>
      <trkpt lat="49.86382" lon="2.18925">
        <ele>111.1</ele>
        <time>2022-12-09T14:14:05Z</time>
      </trkpt>
      <trkpt lat="49.86383" lon="2.18927">
        <ele>111</ele>
        <time>2022-12-09T14:14:06Z</time>
      </trkpt>
      <trkpt lat="49.86384" lon="2.18928">
        <ele>111</ele>
        <time>2022-12-09T14:14:07Z</time>
      </trkpt>
      <trkpt lat="49.86384" lon="2.18929">
        <ele>111</ele>
        <time>2022-12-09T14:14:08Z</time>
      </trkpt>
      <trkpt lat="49.86385" lon="2.1893">
        <ele>111</ele>
        <time>2022-12-09T14:14:09Z</time>
      </trkpt>
      <trkpt lat="49.86386" lon="2.18931">
        <ele>111</ele>
        <time>2022-12-09T14:14:10Z</time>
      </trkpt>
      <trkpt lat="49.86387" lon="2.18932">
        <ele>111</ele>
        <time>2022-12-09T14:14:12Z</time>
      </trkpt>
      <trkpt lat="49.86387" lon="2.18933">
        <ele>111</ele>
        <time>2022-12-09T14:14:13Z</time>
      </trkpt>
      <trkpt lat="49.86388" lon="2.18934">
        <ele>111</ele>
        <time>2022-12-09T14:14:14Z</time>
      </trkpt>
      <trkpt lat="49.86389" lon="2.18935">
        <ele>111</ele>
        <time>2022-12-09T14:14:15Z</time>
      </trkpt>
      <trkpt lat="49.8639" lon="2.18936">
        <ele>111</ele>
        <time>2022-12-09T14:14:16Z</time>
      </trkpt>
      <trkpt lat="49.86391" lon="2.18937">
        <ele>110.9</ele>
        <time>2022-12-09T14:14:17Z</time>
      </trkpt>
      <trkpt lat="49.86392" lon="2.18938">
        <ele>110.9</ele>
        <time>2022-12-09T14:14:18Z</time>
      </trkpt>
      <trkpt lat="49.86393" lon="2.18939">
        <ele>110.9</ele>
        <time>2022-12-09T14:14:19Z</time>
      </trkpt>
      <trkpt lat="49.86394" lon="2.1894">
        <ele>110.9</ele>
        <time>2022-12-09T14:14:21Z</time>
      </trkpt>
      <trkpt lat="49.86395" lon="2.18941">
        <ele>110.9</ele>
        <time>2022-12-09T14:14:22Z</time>
      </trkpt>
      <trkpt lat="49.86397" lon="2.18942">
        <ele>110.9</ele>
        <time>2022-12-09T14:14:23Z</time>
      </trkpt>
      <trkpt lat="49.86398" lon="2.18943">
        <ele>110.9</ele>
        <time>2022-12-09T14:14:24Z</time>
      </trkpt>
      <trkpt lat="49.86398" lon="2.18943">
        <ele>110.8</ele>
        <time>2022-12-09T14:14:25Z</time>
      </trkpt>
      <trkpt lat="49.86399" lon="2.18943">
        <ele>110.8</ele>
        <time>2022-12-09T14:14:26Z</time>
      </trkpt>
      <trkpt lat="49.864" lon="2.18944">
        <ele>110.8</ele>
        <time>2022-12-09T14:14:27Z</time>
      </trkpt>
      <trkpt lat="49.86401" lon="2.18945">
        <ele>110.8</ele>
        <time>2022-12-09T14:14:28Z</time>
      </trkpt>
      <trkpt lat="49.86402" lon="2.18946">
        <ele>110.8</ele>
        <time>2022-12-09T14:14:30Z</time>
      </trkpt>
      <trkpt lat="49.86403" lon="2.18947">
        <ele>110.8</ele>
        <time>2022-12-09T14:14:31Z</time>
      </trkpt>
      <trkpt lat="49.86405" lon="2.18948">
        <ele>110.7</ele>
        <time>2022-12-09T14:14:32Z</time>
      </trkpt>
      <trkpt lat="49.86406" lon="2.18949">
        <ele>110.7</ele>
        <time>2022-12-09T14:14:33Z</time>
      </trkpt>
      <trkpt lat="49.86407" lon="2.1895">
        <ele>110.7</ele>
        <time>2022-12-09T14:14:34Z</time>
      </trkpt>
      <trkpt lat="49.86408" lon="2.18951">
        <ele>110.7</ele>
        <time>2022-12-09T14:14:35Z</time>
      </trkpt>
      <trkpt lat="49.86409" lon="2.18952">
        <ele>110.6</ele>
        <time>2022-12-09T14:14:37Z</time>
      </trkpt>
      <trkpt lat="49.8641" lon="2.18953">
        <ele>110.6</ele>
        <time>2022-12-09T14:14:38Z</time>
      </trkpt>
      <trkpt lat="49.86411" lon="2.18954">
        <ele>110.6</ele>
        <time>2022-12-09T14:14:39Z</time>
      </trkpt>
      <trkpt lat="49.86412" lon="2.18955">
        <ele>110.5</ele>
        <time>2022-12-09T14:14:40Z</time>
      </trkpt>
      <trkpt lat="49.86413" lon="2.18957">
        <ele>110.5</ele>
        <time>2022-12-09T14:14:41Z</time>
      </trkpt>
      <trkpt lat="49.86415" lon="2.18958">
        <ele>110.5</ele>
        <time>2022-12-09T14:14:42Z</time>
      </trkpt>
      <trkpt lat="49.86416" lon="2.18959">
        <ele>110.5</ele>
        <time>2022-12-09T14:14:43Z</time>
      </trkpt>
      <trkpt lat="49.86417" lon="2.1896">
        <ele>110.4</ele>
        <time>2022-12-09T14:14:45Z</time>
      </trkpt>
      <trkpt lat="49.86418" lon="2.18961">
        <ele>110.4</ele>
        <time>2022-12-09T14:14:46Z</time>
      </trkpt>
      <trkpt lat="49.8642" lon="2.18962">
        <ele>110.4</ele>
        <time>2022-12-09T14:14:47Z</time>
      </trkpt>
      <trkpt lat="49.86422" lon="2.18963">
        <ele>110.3</ele>
        <time>2022-12-09T14:14:48Z</time>
      </trkpt>
      <trkpt lat="49.86423" lon="2.18964">
        <ele>110.3</ele>
        <time>2022-12-09T14:14:49Z</time>
      </trkpt>
      <trkpt lat="49.86423" lon="2.18965">
        <ele>110.3</ele>
        <time>2022-12-09T14:14:51Z</time>
      </trkpt>
      <trkpt lat="49.86424" lon="2.18965">
        <ele>110.2</ele>
        <time>2022-12-09T14:14:52Z</time>
      </trkpt>
      <trkpt lat="49.86425" lon="2.18966">
        <ele>110.2</ele>
        <time>2022-12-09T14:14:53Z</time>
      </trkpt>
      <trkpt lat="49.86426" lon="2.18967">
        <ele>110.2</ele>
        <time>2022-12-09T14:14:54Z</time>
      </trkpt>
      <trkpt lat="49.86427" lon="2.18967">
        <ele>110.2</ele>
        <time>2022-12-09T14:14:55Z</time>
      </trkpt>
      <trkpt lat="49.86428" lon="2.18968">
        <ele>110.1</ele>
        <time>2022-12-09T14:14:56Z</time>
      </trkpt>
      <trkpt lat="49.86429" lon="2.18969">
        <ele>110.1</ele>
        <time>2022-12-09T14:14:57Z</time>
      </trkpt>
      <trkpt lat="49.8643" lon="2.18969">
        <ele>110.1</ele>
        <time>2022-12-09T14:14:59Z</time>
      </trkpt>
      <trkpt lat="49.86431" lon="2.1897">
        <ele>110.1</ele>
        <time>2022-12-09T14:15:00Z</time>
      </trkpt>
      <trkpt lat="49.86432" lon="2.18971">
        <ele>110</ele>
        <time>2022-12-09T14:15:01Z</time>
      </trkpt>
      <trkpt lat="49.86434" lon="2.18972">
        <ele>110</ele>
        <time>2022-12-09T14:15:02Z</time>
      </trkpt>
      <trkpt lat="49.86435" lon="2.18973">
        <ele>110</ele>
        <time>2022-12-09T14:15:03Z</time>
      </trkpt>
      <trkpt lat="49.86436" lon="2.18973">
        <ele>110</ele>
        <time>2022-12-09T14:15:04Z</time>
      </trkpt>
      <trkpt lat="49.86437" lon="2.18973">
        <ele>109.9</ele>
        <time>2022-12-09T14:15:05Z</time>
      </trkpt>
      <trkpt lat="49.86438" lon="2.18974">
        <ele>109.9</ele>
        <time>2022-12-09T14:15:06Z</time>
      </trkpt>
      <trkpt lat="49.86439" lon="2.18974">
        <ele>109.9</ele>
        <time>2022-12-09T14:15:08Z</time>
      </trkpt>
      <trkpt lat="49.86441" lon="2.18974">
        <ele>109.8</ele>
        <time>2022-12-09T14:15:09Z</time>
      </trkpt>
      <trkpt lat="49.86442" lon="2.18974">
        <ele>109.8</ele>
        <time>2022-12-09T14:15:10Z</time>
      </trkpt>
      <trkpt lat="49.86443" lon="2.18975">
        <ele>109.8</ele>
        <time>2022-12-09T14:15:11Z</time>
      </trkpt>
      <trkpt lat="49.86444" lon="2.18976">
        <ele>109.8</ele>
        <time>2022-12-09T14:15:12Z</time>
      </trkpt>
      <trkpt lat="49.86444" lon="2.18976">
        <ele>109.7</ele>
        <time>2022-12-09T14:15:13Z</time>
      </trkpt>
      <trkpt lat="49.86446" lon="2.18977">
        <ele>109.7</ele>
        <time>2022-12-09T14:15:15Z</time>
      </trkpt>
      <trkpt lat="49.86446" lon="2.18979">
        <ele>109.7</ele>
        <time>2022-12-09T14:15:16Z</time>
      </trkpt>
      <trkpt lat="49.86446" lon="2.18981">
        <ele>109.6</ele>
        <time>2022-12-09T14:15:18Z</time>
      </trkpt>
      <trkpt lat="49.86446" lon="2.18982">
        <ele>109.6</ele>
        <time>2022-12-09T14:15:19Z</time>
      </trkpt>
      <trkpt lat="49.86445" lon="2.18983">
        <ele>109.6</ele>
        <time>2022-12-09T14:15:21Z</time>
      </trkpt>
      <trkpt lat="49.86446" lon="2.18984">
        <ele>109.6</ele>
        <time>2022-12-09T14:15:22Z</time>
      </trkpt>
      <trkpt lat="49.86447" lon="2.18985">
        <ele>109.6</ele>
        <time>2022-12-09T14:15:23Z</time>
      </trkpt>
      <trkpt lat="49.86448" lon="2.18985">
        <ele>109.5</ele>
        <time>2022-12-09T14:15:24Z</time>
      </trkpt>
      <trkpt lat="49.86449" lon="2.18986">
        <ele>109.5</ele>
        <time>2022-12-09T14:15:25Z</time>
      </trkpt>
      <trkpt lat="49.86451" lon="2.18986">
        <ele>109.5</ele>
        <time>2022-12-09T14:15:26Z</time>
      </trkpt>
      <trkpt lat="49.86452" lon="2.18986">
        <ele>109.5</ele>
        <time>2022-12-09T14:15:28Z</time>
      </trkpt>
      <trkpt lat="49.86453" lon="2.18986">
        <ele>109.4</ele>
        <time>2022-12-09T14:15:29Z</time>
      </trkpt>
      <trkpt lat="49.86455" lon="2.18987">
        <ele>109.4</ele>
        <time>2022-12-09T14:15:30Z</time>
      </trkpt>
      <trkpt lat="49.86457" lon="2.18987">
        <ele>109.3</ele>
        <time>2022-12-09T14:15:31Z</time>
      </trkpt>
      <trkpt lat="49.86458" lon="2.18987">
        <ele>109.3</ele>
        <time>2022-12-09T14:15:32Z</time>
      </trkpt>
      <trkpt lat="49.86459" lon="2.18987">
        <ele>109.3</ele>
        <time>2022-12-09T14:15:33Z</time>
      </trkpt>
      <trkpt lat="49.86461" lon="2.18987">
        <ele>109.3</ele>
        <time>2022-12-09T14:15:34Z</time>
      </trkpt>
      <trkpt lat="49.86462" lon="2.18987">
        <ele>109.3</ele>
        <time>2022-12-09T14:15:35Z</time>
      </trkpt>
      <trkpt lat="49.86463" lon="2.18987">
        <ele>109.2</ele>
        <time>2022-12-09T14:15:37Z</time>
      </trkpt>
      <trkpt lat="49.86465" lon="2.18988">
        <ele>109.2</ele>
        <time>2022-12-09T14:15:38Z</time>
      </trkpt>
      <trkpt lat="49.86467" lon="2.18989">
        <ele>109.2</ele>
        <time>2022-12-09T14:15:39Z</time>
      </trkpt>
      <trkpt lat="49.86468" lon="2.18989">
        <ele>109.1</ele>
        <time>2022-12-09T14:15:40Z</time>
      </trkpt>
      <trkpt lat="49.86469" lon="2.1899">
        <ele>109.1</ele>
        <time>2022-12-09T14:15:41Z</time>
      </trkpt>
      <trkpt lat="49.86471" lon="2.18991">
        <ele>109.1</ele>
        <time>2022-12-09T14:15:42Z</time>
      </trkpt>
      <trkpt lat="49.86472" lon="2.18991">
        <ele>109.1</ele>
        <time>2022-12-09T14:15:44Z</time>
      </trkpt>
      <trkpt lat="49.86473" lon="2.18992">
        <ele>109</ele>
        <time>2022-12-09T14:15:45Z</time>
      </trkpt>
      <trkpt lat="49.86474" lon="2.18992">
        <ele>109</ele>
        <time>2022-12-09T14:15:46Z</time>
      </trkpt>
      <trkpt lat="49.86475" lon="2.18993">
        <ele>109</ele>
        <time>2022-12-09T14:15:47Z</time>
      </trkpt>
      <trkpt lat="49.86476" lon="2.18994">
        <ele>109</ele>
        <time>2022-12-09T14:15:48Z</time>
      </trkpt>
      <trkpt lat="49.86476" lon="2.18994">
        <ele>109</ele>
        <time>2022-12-09T14:15:49Z</time>
      </trkpt>
      <trkpt lat="49.86477" lon="2.18995">
        <ele>108.9</ele>
        <time>2022-12-09T14:15:50Z</time>
      </trkpt>
      <trkpt lat="49.86478" lon="2.18996">
        <ele>108.9</ele>
        <time>2022-12-09T14:15:52Z</time>
      </trkpt>
      <trkpt lat="49.86479" lon="2.18997">
        <ele>108.9</ele>
        <time>2022-12-09T14:15:53Z</time>
      </trkpt>
      <trkpt lat="49.86481" lon="2.18998">
        <ele>108.8</ele>
        <time>2022-12-09T14:15:54Z</time>
      </trkpt>
      <trkpt lat="49.86482" lon="2.18999">
        <ele>108.8</ele>
        <time>2022-12-09T14:15:55Z</time>
      </trkpt>
      <trkpt lat="49.86483" lon="2.19">
        <ele>108.8</ele>
        <time>2022-12-09T14:15:56Z</time>
      </trkpt>
      <trkpt lat="49.86484" lon="2.19001">
        <ele>108.8</ele>
        <time>2022-12-09T14:15:57Z</time>
      </trkpt>
      <trkpt lat="49.86485" lon="2.19003">
        <ele>108.7</ele>
        <time>2022-12-09T14:15:59Z</time>
      </trkpt>
      <trkpt lat="49.86486" lon="2.19003">
        <ele>108.7</ele>
        <time>2022-12-09T14:16:00Z</time>
      </trkpt>
      <trkpt lat="49.86487" lon="2.19004">
        <ele>108.7</ele>
        <time>2022-12-09T14:16:01Z</time>
      </trkpt>
      <trkpt lat="49.86488" lon="2.19005">
        <ele>108.7</ele>
        <time>2022-12-09T14:16:02Z</time>
      </trkpt>
      <trkpt lat="49.86489" lon="2.19005">
        <ele>108.6</ele>
        <time>2022-12-09T14:16:03Z</time>
      </trkpt>
      <trkpt lat="49.8649" lon="2.19006">
        <ele>108.6</ele>
        <time>2022-12-09T14:16:04Z</time>
      </trkpt>
      <trkpt lat="49.86491" lon="2.19007">
        <ele>108.6</ele>
        <time>2022-12-09T14:16:05Z</time>
      </trkpt>
      <trkpt lat="49.86491" lon="2.19008">
        <ele>108.6</ele>
        <time>2022-12-09T14:16:06Z</time>
      </trkpt>
      <trkpt lat="49.86493" lon="2.19008">
        <ele>108.5</ele>
        <time>2022-12-09T14:16:07Z</time>
      </trkpt>
      <trkpt lat="49.86494" lon="2.19009">
        <ele>108.5</ele>
        <time>2022-12-09T14:16:09Z</time>
      </trkpt>
      <trkpt lat="49.86495" lon="2.1901">
        <ele>108.5</ele>
        <time>2022-12-09T14:16:10Z</time>
      </trkpt>
      <trkpt lat="49.86496" lon="2.1901">
        <ele>108.4</ele>
        <time>2022-12-09T14:16:11Z</time>
      </trkpt>
      <trkpt lat="49.86498" lon="2.19011">
        <ele>108.4</ele>
        <time>2022-12-09T14:16:12Z</time>
      </trkpt>
      <trkpt lat="49.86499" lon="2.19012">
        <ele>108.4</ele>
        <time>2022-12-09T14:16:13Z</time>
      </trkpt>
      <trkpt lat="49.86501" lon="2.19012">
        <ele>108.3</ele>
        <time>2022-12-09T14:16:15Z</time>
      </trkpt>
      <trkpt lat="49.86502" lon="2.19013">
        <ele>108.3</ele>
        <time>2022-12-09T14:16:16Z</time>
      </trkpt>
      <trkpt lat="49.86503" lon="2.19014">
        <ele>108.3</ele>
        <time>2022-12-09T14:16:17Z</time>
      </trkpt>
      <trkpt lat="49.86504" lon="2.19014">
        <ele>108.3</ele>
        <time>2022-12-09T14:16:18Z</time>
      </trkpt>
      <trkpt lat="49.86506" lon="2.19016">
        <ele>108.2</ele>
        <time>2022-12-09T14:16:19Z</time>
      </trkpt>
      <trkpt lat="49.86507" lon="2.19016">
        <ele>108.2</ele>
        <time>2022-12-09T14:16:20Z</time>
      </trkpt>
      <trkpt lat="49.86508" lon="2.19017">
        <ele>108.2</ele>
        <time>2022-12-09T14:16:21Z</time>
      </trkpt>
      <trkpt lat="49.86509" lon="2.19018">
        <ele>108.1</ele>
        <time>2022-12-09T14:16:23Z</time>
      </trkpt>
      <trkpt lat="49.8651" lon="2.19019">
        <ele>108.1</ele>
        <time>2022-12-09T14:16:24Z</time>
      </trkpt>
      <trkpt lat="49.86511" lon="2.1902">
        <ele>108.1</ele>
        <time>2022-12-09T14:16:25Z</time>
      </trkpt>
      <trkpt lat="49.86513" lon="2.19021">
        <ele>108</ele>
        <time>2022-12-09T14:16:26Z</time>
      </trkpt>
      <trkpt lat="49.86514" lon="2.19022">
        <ele>108</ele>
        <time>2022-12-09T14:16:27Z</time>
      </trkpt>
      <trkpt lat="49.86515" lon="2.19023">
        <ele>108</ele>
        <time>2022-12-09T14:16:28Z</time>
      </trkpt>
      <trkpt lat="49.86516" lon="2.19024">
        <ele>108</ele>
        <time>2022-12-09T14:16:29Z</time>
      </trkpt>
      <trkpt lat="49.86517" lon="2.19025">
        <ele>107.9</ele>
        <time>2022-12-09T14:16:30Z</time>
      </trkpt>
      <trkpt lat="49.86519" lon="2.19025">
        <ele>107.9</ele>
        <time>2022-12-09T14:16:32Z</time>
      </trkpt>
      <trkpt lat="49.8652" lon="2.19026">
        <ele>107.9</ele>
        <time>2022-12-09T14:16:33Z</time>
      </trkpt>
      <trkpt lat="49.86521" lon="2.19027">
        <ele>107.8</ele>
        <time>2022-12-09T14:16:34Z</time>
      </trkpt>
      <trkpt lat="49.86522" lon="2.19027">
        <ele>107.8</ele>
        <time>2022-12-09T14:16:35Z</time>
      </trkpt>
      <trkpt lat="49.86523" lon="2.19028">
        <ele>107.8</ele>
        <time>2022-12-09T14:16:36Z</time>
      </trkpt>
      <trkpt lat="49.86524" lon="2.19029">
        <ele>107.7</ele>
        <time>2022-12-09T14:16:37Z</time>
      </trkpt>
      <trkpt lat="49.86525" lon="2.1903">
        <ele>107.7</ele>
        <time>2022-12-09T14:16:38Z</time>
      </trkpt>
      <trkpt lat="49.86527" lon="2.19031">
        <ele>107.7</ele>
        <time>2022-12-09T14:16:40Z</time>
      </trkpt>
      <trkpt lat="49.86528" lon="2.19031">
        <ele>107.6</ele>
        <time>2022-12-09T14:16:41Z</time>
      </trkpt>
      <trkpt lat="49.86529" lon="2.19032">
        <ele>107.6</ele>
        <time>2022-12-09T14:16:42Z</time>
      </trkpt>
      <trkpt lat="49.8653" lon="2.19032">
        <ele>107.6</ele>
        <time>2022-12-09T14:16:43Z</time>
      </trkpt>
      <trkpt lat="49.86531" lon="2.19032">
        <ele>107.5</ele>
        <time>2022-12-09T14:16:44Z</time>
      </trkpt>
      <trkpt lat="49.86532" lon="2.19031">
        <ele>107.5</ele>
        <time>2022-12-09T14:16:45Z</time>
      </trkpt>
      <trkpt lat="49.86533" lon="2.19031">
        <ele>107.5</ele>
        <time>2022-12-09T14:16:46Z</time>
      </trkpt>
      <trkpt lat="49.86534" lon="2.19031">
        <ele>107.5</ele>
        <time>2022-12-09T14:16:47Z</time>
      </trkpt>
      <trkpt lat="49.86535" lon="2.19031">
        <ele>107.4</ele>
        <time>2022-12-09T14:16:48Z</time>
      </trkpt>
      <trkpt lat="49.86536" lon="2.19031">
        <ele>107.4</ele>
        <time>2022-12-09T14:16:50Z</time>
      </trkpt>
      <trkpt lat="49.86537" lon="2.19031">
        <ele>107.4</ele>
        <time>2022-12-09T14:16:51Z</time>
      </trkpt>
      <trkpt lat="49.86538" lon="2.19032">
        <ele>107.3</ele>
        <time>2022-12-09T14:16:52Z</time>
      </trkpt>
      <trkpt lat="49.86539" lon="2.19033">
        <ele>107.3</ele>
        <time>2022-12-09T14:16:53Z</time>
      </trkpt>
      <trkpt lat="49.8654" lon="2.19034">
        <ele>107.3</ele>
        <time>2022-12-09T14:16:54Z</time>
      </trkpt>
      <trkpt lat="49.8654" lon="2.19035">
        <ele>107.3</ele>
        <time>2022-12-09T14:16:55Z</time>
      </trkpt>
      <trkpt lat="49.86541" lon="2.19036">
        <ele>107.2</ele>
        <time>2022-12-09T14:16:57Z</time>
      </trkpt>
      <trkpt lat="49.86542" lon="2.19037">
        <ele>107.2</ele>
        <time>2022-12-09T14:16:58Z</time>
      </trkpt>
      <trkpt lat="49.86543" lon="2.19037">
        <ele>107.2</ele>
        <time>2022-12-09T14:16:59Z</time>
      </trkpt>
      <trkpt lat="49.86543" lon="2.19037">
        <ele>107.2</ele>
        <time>2022-12-09T14:17:00Z</time>
      </trkpt>
      <trkpt lat="49.86544" lon="2.19038">
        <ele>107.1</ele>
        <time>2022-12-09T14:17:01Z</time>
      </trkpt>
      <trkpt lat="49.86545" lon="2.19039">
        <ele>107.1</ele>
        <time>2022-12-09T14:17:02Z</time>
      </trkpt>
      <trkpt lat="49.86546" lon="2.19039">
        <ele>107.1</ele>
        <time>2022-12-09T14:17:04Z</time>
      </trkpt>
      <trkpt lat="49.86547" lon="2.1904">
        <ele>107</ele>
        <time>2022-12-09T14:17:05Z</time>
      </trkpt>
      <trkpt lat="49.86548" lon="2.19041">
        <ele>107</ele>
        <time>2022-12-09T14:17:06Z</time>
      </trkpt>
      <trkpt lat="49.86549" lon="2.19041">
        <ele>107</ele>
        <time>2022-12-09T14:17:07Z</time>
      </trkpt>
      <trkpt lat="49.8655" lon="2.19041">
        <ele>106.9</ele>
        <time>2022-12-09T14:17:08Z</time>
      </trkpt>
      <trkpt lat="49.86551" lon="2.19042">
        <ele>106.9</ele>
        <time>2022-12-09T14:17:09Z</time>
      </trkpt>
      <trkpt lat="49.86551" lon="2.19042">
        <ele>106.9</ele>
        <time>2022-12-09T14:17:10Z</time>
      </trkpt>
      <trkpt lat="49.86552" lon="2.19043">
        <ele>106.9</ele>
        <time>2022-12-09T14:17:11Z</time>
      </trkpt>
      <trkpt lat="49.86552" lon="2.19045">
        <ele>106.8</ele>
        <time>2022-12-09T14:17:13Z</time>
      </trkpt>
      <trkpt lat="49.86552" lon="2.19047">
        <ele>106.8</ele>
        <time>2022-12-09T14:17:14Z</time>
      </trkpt>
      <trkpt lat="49.86553" lon="2.19048">
        <ele>106.8</ele>
        <time>2022-12-09T14:17:15Z</time>
      </trkpt>
      <trkpt lat="49.86553" lon="2.19049">
        <ele>106.8</ele>
        <time>2022-12-09T14:17:16Z</time>
      </trkpt>
      <trkpt lat="49.86554" lon="2.1905">
        <ele>106.7</ele>
        <time>2022-12-09T14:17:17Z</time>
      </trkpt>
      <trkpt lat="49.86555" lon="2.1905">
        <ele>106.7</ele>
        <time>2022-12-09T14:17:18Z</time>
      </trkpt>
      <trkpt lat="49.86556" lon="2.19051">
        <ele>106.7</ele>
        <time>2022-12-09T14:17:19Z</time>
      </trkpt>
      <trkpt lat="49.86558" lon="2.19051">
        <ele>106.6</ele>
        <time>2022-12-09T14:17:20Z</time>
      </trkpt>
      <trkpt lat="49.86559" lon="2.19051">
        <ele>106.6</ele>
        <time>2022-12-09T14:17:21Z</time>
      </trkpt>
      <trkpt lat="49.86561" lon="2.19052">
        <ele>106.5</ele>
        <time>2022-12-09T14:17:23Z</time>
      </trkpt>
      <trkpt lat="49.86562" lon="2.19052">
        <ele>106.5</ele>
        <time>2022-12-09T14:17:24Z</time>
      </trkpt>
      <trkpt lat="49.86563" lon="2.19052">
        <ele>106.5</ele>
        <time>2022-12-09T14:17:25Z</time>
      </trkpt>
      <trkpt lat="49.86564" lon="2.19053">
        <ele>106.4</ele>
        <time>2022-12-09T14:17:26Z</time>
      </trkpt>
      <trkpt lat="49.86566" lon="2.19053">
        <ele>106.4</ele>
        <time>2022-12-09T14:17:27Z</time>
      </trkpt>
      <trkpt lat="49.86567" lon="2.19054">
        <ele>106.3</ele>
        <time>2022-12-09T14:17:28Z</time>
      </trkpt>
      <trkpt lat="49.86568" lon="2.19054">
        <ele>106.3</ele>
        <time>2022-12-09T14:17:30Z</time>
      </trkpt>
      <trkpt lat="49.86569" lon="2.19054">
        <ele>106.3</ele>
        <time>2022-12-09T14:17:31Z</time>
      </trkpt>
      <trkpt lat="49.8657" lon="2.19055">
        <ele>106.2</ele>
        <time>2022-12-09T14:17:32Z</time>
      </trkpt>
      <trkpt lat="49.86571" lon="2.19055">
        <ele>106.2</ele>
        <time>2022-12-09T14:17:33Z</time>
      </trkpt>
      <trkpt lat="49.86572" lon="2.19055">
        <ele>106.2</ele>
        <time>2022-12-09T14:17:34Z</time>
      </trkpt>
      <trkpt lat="49.86573" lon="2.19055">
        <ele>106.1</ele>
        <time>2022-12-09T14:17:35Z</time>
      </trkpt>
      <trkpt lat="49.86574" lon="2.19055">
        <ele>106.1</ele>
        <time>2022-12-09T14:17:36Z</time>
      </trkpt>
      <trkpt lat="49.86575" lon="2.19055">
        <ele>106.1</ele>
        <time>2022-12-09T14:17:37Z</time>
      </trkpt>
      <trkpt lat="49.86576" lon="2.19056">
        <ele>106</ele>
        <time>2022-12-09T14:17:39Z</time>
      </trkpt>
      <trkpt lat="49.86576" lon="2.19056">
        <ele>106</ele>
        <time>2022-12-09T14:17:40Z</time>
      </trkpt>
      <trkpt lat="49.86577" lon="2.19057">
        <ele>106</ele>
        <time>2022-12-09T14:17:41Z</time>
      </trkpt>
      <trkpt lat="49.86578" lon="2.19058">
        <ele>105.9</ele>
        <time>2022-12-09T14:17:42Z</time>
      </trkpt>
      <trkpt lat="49.8658" lon="2.19058">
        <ele>105.9</ele>
        <time>2022-12-09T14:17:43Z</time>
      </trkpt>
      <trkpt lat="49.86581" lon="2.19059">
        <ele>105.8</ele>
        <time>2022-12-09T14:17:44Z</time>
      </trkpt>
      <trkpt lat="49.86582" lon="2.19059">
        <ele>105.8</ele>
        <time>2022-12-09T14:17:45Z</time>
      </trkpt>
      <trkpt lat="49.86583" lon="2.19059">
        <ele>105.8</ele>
        <time>2022-12-09T14:17:46Z</time>
      </trkpt>
      <trkpt lat="49.86585" lon="2.1906">
        <ele>105.7</ele>
        <time>2022-12-09T14:17:47Z</time>
      </trkpt>
      <trkpt lat="49.86585" lon="2.1906">
        <ele>105.7</ele>
        <time>2022-12-09T14:17:48Z</time>
      </trkpt>
      <trkpt lat="49.86586" lon="2.1906">
        <ele>105.7</ele>
        <time>2022-12-09T14:17:49Z</time>
      </trkpt>
      <trkpt lat="49.86588" lon="2.1906">
        <ele>105.6</ele>
        <time>2022-12-09T14:17:50Z</time>
      </trkpt>
      <trkpt lat="49.86589" lon="2.19061">
        <ele>105.6</ele>
        <time>2022-12-09T14:17:52Z</time>
      </trkpt>
      <trkpt lat="49.8659" lon="2.19061">
        <ele>105.6</ele>
        <time>2022-12-09T14:17:53Z</time>
      </trkpt>
      <trkpt lat="49.86592" lon="2.19062">
        <ele>105.5</ele>
        <time>2022-12-09T14:17:54Z</time>
      </trkpt>
      <trkpt lat="49.86593" lon="2.19062">
        <ele>105.5</ele>
        <time>2022-12-09T14:17:55Z</time>
      </trkpt>
      <trkpt lat="49.86593" lon="2.19063">
        <ele>105.4</ele>
        <time>2022-12-09T14:17:56Z</time>
      </trkpt>
      <trkpt lat="49.86594" lon="2.19064">
        <ele>105.4</ele>
        <time>2022-12-09T14:17:57Z</time>
      </trkpt>
      <trkpt lat="49.86596" lon="2.19064">
        <ele>105.4</ele>
        <time>2022-12-09T14:17:59Z</time>
      </trkpt>
      <trkpt lat="49.86597" lon="2.19065">
        <ele>105.3</ele>
        <time>2022-12-09T14:18:00Z</time>
      </trkpt>
      <trkpt lat="49.86599" lon="2.19066">
        <ele>105.3</ele>
        <time>2022-12-09T14:18:01Z</time>
      </trkpt>
      <trkpt lat="49.86599" lon="2.19066">
        <ele>105.3</ele>
        <time>2022-12-09T14:18:02Z</time>
      </trkpt>
      <trkpt lat="49.866" lon="2.19067">
        <ele>105.2</ele>
        <time>2022-12-09T14:18:03Z</time>
      </trkpt>
      <trkpt lat="49.86602" lon="2.19067">
        <ele>105.2</ele>
        <time>2022-12-09T14:18:04Z</time>
      </trkpt>
      <trkpt lat="49.86603" lon="2.19068">
        <ele>105.2</ele>
        <time>2022-12-09T14:18:05Z</time>
      </trkpt>
      <trkpt lat="49.86605" lon="2.19069">
        <ele>105.1</ele>
        <time>2022-12-09T14:18:07Z</time>
      </trkpt>
      <trkpt lat="49.86606" lon="2.19069">
        <ele>105.1</ele>
        <time>2022-12-09T14:18:08Z</time>
      </trkpt>
      <trkpt lat="49.86607" lon="2.1907">
        <ele>105.1</ele>
        <time>2022-12-09T14:18:09Z</time>
      </trkpt>
      <trkpt lat="49.86608" lon="2.19071">
        <ele>105</ele>
        <time>2022-12-09T14:18:10Z</time>
      </trkpt>
      <trkpt lat="49.86609" lon="2.19072">
        <ele>105</ele>
        <time>2022-12-09T14:18:11Z</time>
      </trkpt>
      <trkpt lat="49.8661" lon="2.19072">
        <ele>105</ele>
        <time>2022-12-09T14:18:12Z</time>
      </trkpt>
      <trkpt lat="49.86612" lon="2.19074">
        <ele>104.9</ele>
        <time>2022-12-09T14:18:13Z</time>
      </trkpt>
      <trkpt lat="49.86613" lon="2.19074">
        <ele>104.9</ele>
        <time>2022-12-09T14:18:15Z</time>
      </trkpt>
      <trkpt lat="49.86614" lon="2.19075">
        <ele>104.9</ele>
        <time>2022-12-09T14:18:16Z</time>
      </trkpt>
      <trkpt lat="49.86615" lon="2.19076">
        <ele>104.9</ele>
        <time>2022-12-09T14:18:17Z</time>
      </trkpt>
      <trkpt lat="49.86616" lon="2.19077">
        <ele>104.8</ele>
        <time>2022-12-09T14:18:18Z</time>
      </trkpt>
      <trkpt lat="49.86618" lon="2.19078">
        <ele>104.8</ele>
        <time>2022-12-09T14:18:19Z</time>
      </trkpt>
      <trkpt lat="49.86619" lon="2.19078">
        <ele>104.8</ele>
        <time>2022-12-09T14:18:20Z</time>
      </trkpt>
      <trkpt lat="49.8662" lon="2.19079">
        <ele>104.8</ele>
        <time>2022-12-09T14:18:21Z</time>
      </trkpt>
      <trkpt lat="49.86621" lon="2.1908">
        <ele>104.7</ele>
        <time>2022-12-09T14:18:22Z</time>
      </trkpt>
      <trkpt lat="49.86622" lon="2.1908">
        <ele>104.7</ele>
        <time>2022-12-09T14:18:23Z</time>
      </trkpt>
      <trkpt lat="49.86623" lon="2.19081">
        <ele>104.7</ele>
        <time>2022-12-09T14:18:25Z</time>
      </trkpt>
      <trkpt lat="49.86625" lon="2.19082">
        <ele>104.6</ele>
        <time>2022-12-09T14:18:26Z</time>
      </trkpt>
      <trkpt lat="49.86626" lon="2.19083">
        <ele>104.6</ele>
        <time>2022-12-09T14:18:27Z</time>
      </trkpt>
      <trkpt lat="49.86627" lon="2.19083">
        <ele>104.6</ele>
        <time>2022-12-09T14:18:28Z</time>
      </trkpt>
      <trkpt lat="49.86629" lon="2.19084">
        <ele>104.5</ele>
        <time>2022-12-09T14:18:29Z</time>
      </trkpt>
      <trkpt lat="49.8663" lon="2.19085">
        <ele>104.5</ele>
        <time>2022-12-09T14:18:31Z</time>
      </trkpt>
      <trkpt lat="49.86631" lon="2.19085">
        <ele>104.5</ele>
        <time>2022-12-09T14:18:32Z</time>
      </trkpt>
      <trkpt lat="49.86633" lon="2.19086">
        <ele>104.4</ele>
        <time>2022-12-09T14:18:33Z</time>
      </trkpt>
      <trkpt lat="49.86634" lon="2.19086">
        <ele>104.4</ele>
        <time>2022-12-09T14:18:34Z</time>
      </trkpt>
      <trkpt lat="49.86635" lon="2.19087">
        <ele>104.4</ele>
        <time>2022-12-09T14:18:35Z</time>
      </trkpt>
      <trkpt lat="49.86636" lon="2.19087">
        <ele>104.4</ele>
        <time>2022-12-09T14:18:36Z</time>
      </trkpt>
      <trkpt lat="49.86637" lon="2.19088">
        <ele>104.3</ele>
        <time>2022-12-09T14:18:37Z</time>
      </trkpt>
      <trkpt lat="49.86638" lon="2.19089">
        <ele>104.3</ele>
        <time>2022-12-09T14:18:39Z</time>
      </trkpt>
      <trkpt lat="49.8664" lon="2.19089">
        <ele>104.3</ele>
        <time>2022-12-09T14:18:40Z</time>
      </trkpt>
      <trkpt lat="49.86641" lon="2.1909">
        <ele>104.2</ele>
        <time>2022-12-09T14:18:41Z</time>
      </trkpt>
      <trkpt lat="49.86642" lon="2.19091">
        <ele>104.2</ele>
        <time>2022-12-09T14:18:42Z</time>
      </trkpt>
      <trkpt lat="49.86644" lon="2.19092">
        <ele>104.1</ele>
        <time>2022-12-09T14:18:43Z</time>
      </trkpt>
      <trkpt lat="49.86645" lon="2.19092">
        <ele>104.1</ele>
        <time>2022-12-09T14:18:44Z</time>
      </trkpt>
      <trkpt lat="49.86646" lon="2.19093">
        <ele>104.1</ele>
        <time>2022-12-09T14:18:45Z</time>
      </trkpt>
      <trkpt lat="49.86647" lon="2.19093">
        <ele>104.1</ele>
        <time>2022-12-09T14:18:46Z</time>
      </trkpt>
      <trkpt lat="49.86647" lon="2.19094">
        <ele>104</ele>
        <time>2022-12-09T14:18:47Z</time>
      </trkpt>
      <trkpt lat="49.86648" lon="2.19094">
        <ele>104</ele>
        <time>2022-12-09T14:18:49Z</time>
      </trkpt>
      <trkpt lat="49.86649" lon="2.19095">
        <ele>104</ele>
        <time>2022-12-09T14:18:50Z</time>
      </trkpt>
      <trkpt lat="49.8665" lon="2.19096">
        <ele>104</ele>
        <time>2022-12-09T14:18:51Z</time>
      </trkpt>
      <trkpt lat="49.86651" lon="2.19097">
        <ele>103.9</ele>
        <time>2022-12-09T14:18:52Z</time>
      </trkpt>
      <trkpt lat="49.86652" lon="2.19098">
        <ele>103.9</ele>
        <time>2022-12-09T14:18:53Z</time>
      </trkpt>
      <trkpt lat="49.86653" lon="2.19098">
        <ele>103.9</ele>
        <time>2022-12-09T14:18:54Z</time>
      </trkpt>
      <trkpt lat="49.86654" lon="2.19099">
        <ele>103.9</ele>
        <time>2022-12-09T14:18:55Z</time>
      </trkpt>
      <trkpt lat="49.86655" lon="2.191">
        <ele>103.8</ele>
        <time>2022-12-09T14:18:57Z</time>
      </trkpt>
      <trkpt lat="49.86656" lon="2.191">
        <ele>103.8</ele>
        <time>2022-12-09T14:18:58Z</time>
      </trkpt>
      <trkpt lat="49.86657" lon="2.19101">
        <ele>103.8</ele>
        <time>2022-12-09T14:18:59Z</time>
      </trkpt>
      <trkpt lat="49.86659" lon="2.19101">
        <ele>103.7</ele>
        <time>2022-12-09T14:19:00Z</time>
      </trkpt>
      <trkpt lat="49.8666" lon="2.19101">
        <ele>103.7</ele>
        <time>2022-12-09T14:19:01Z</time>
      </trkpt>
      <trkpt lat="49.86661" lon="2.19102">
        <ele>103.7</ele>
        <time>2022-12-09T14:19:02Z</time>
      </trkpt>
      <trkpt lat="49.86663" lon="2.19102">
        <ele>103.6</ele>
        <time>2022-12-09T14:19:04Z</time>
      </trkpt>
      <trkpt lat="49.86664" lon="2.19103">
        <ele>103.6</ele>
        <time>2022-12-09T14:19:05Z</time>
      </trkpt>
      <trkpt lat="49.86665" lon="2.19103">
        <ele>103.6</ele>
        <time>2022-12-09T14:19:06Z</time>
      </trkpt>
      <trkpt lat="49.86665" lon="2.19103">
        <ele>103.6</ele>
        <time>2022-12-09T14:19:07Z</time>
      </trkpt>
      <trkpt lat="49.86667" lon="2.19103">
        <ele>103.5</ele>
        <time>2022-12-09T14:19:08Z</time>
      </trkpt>
      <trkpt lat="49.86668" lon="2.19103">
        <ele>103.5</ele>
        <time>2022-12-09T14:19:09Z</time>
      </trkpt>
      <trkpt lat="49.86669" lon="2.19101">
        <ele>103.5</ele>
        <time>2022-12-09T14:19:11Z</time>
      </trkpt>
      <trkpt lat="49.8667" lon="2.19102">
        <ele>103.4</ele>
        <time>2022-12-09T14:19:12Z</time>
      </trkpt>
      <trkpt lat="49.8667" lon="2.19103">
        <ele>103.4</ele>
        <time>2022-12-09T14:19:13Z</time>
      </trkpt>
      <trkpt lat="49.86671" lon="2.19103">
        <ele>103.4</ele>
        <time>2022-12-09T14:19:14Z</time>
      </trkpt>
      <trkpt lat="49.86672" lon="2.19104">
        <ele>103.4</ele>
        <time>2022-12-09T14:19:16Z</time>
      </trkpt>
      <trkpt lat="49.86673" lon="2.19106">
        <ele>103.3</ele>
        <time>2022-12-09T14:19:17Z</time>
      </trkpt>
      <trkpt lat="49.86673" lon="2.19106">
        <ele>103.3</ele>
        <time>2022-12-09T14:19:18Z</time>
      </trkpt>
      <trkpt lat="49.86674" lon="2.19106">
        <ele>103.3</ele>
        <time>2022-12-09T14:19:20Z</time>
      </trkpt>
      <trkpt lat="49.86673" lon="2.19106">
        <ele>103.3</ele>
        <time>2022-12-09T14:19:21Z</time>
      </trkpt>
      <trkpt lat="49.86673" lon="2.19106">
        <ele>103.3</ele>
        <time>2022-12-09T14:19:22Z</time>
      </trkpt>
      <trkpt lat="49.86673" lon="2.19106">
        <ele>103.3</ele>
        <time>2022-12-09T14:19:24Z</time>
      </trkpt>
      <trkpt lat="49.86672" lon="2.19106">
        <ele>103.3</ele>
        <time>2022-12-09T14:19:25Z</time>
      </trkpt>
      <trkpt lat="49.86672" lon="2.19106">
        <ele>103.2</ele>
        <time>2022-12-09T14:19:27Z</time>
      </trkpt>
      <trkpt lat="49.86672" lon="2.19106">
        <ele>103.2</ele>
        <time>2022-12-09T14:19:28Z</time>
      </trkpt>
      <trkpt lat="49.86671" lon="2.19106">
        <ele>103.2</ele>
        <time>2022-12-09T14:19:29Z</time>
      </trkpt>
      <trkpt lat="49.86671" lon="2.19106">
        <ele>103.2</ele>
        <time>2022-12-09T14:19:31Z</time>
      </trkpt>
      <trkpt lat="49.86671" lon="2.19106">
        <ele>103.2</ele>
        <time>2022-12-09T14:19:32Z</time>
      </trkpt>
      <trkpt lat="49.8667" lon="2.19107">
        <ele>103.2</ele>
        <time>2022-12-09T14:19:35Z</time>
      </trkpt>
      <trkpt lat="49.8667" lon="2.19107">
        <ele>103.2</ele>
        <time>2022-12-09T14:19:36Z</time>
      </trkpt>
      <trkpt lat="49.86669" lon="2.19107">
        <ele>103.2</ele>
        <time>2022-12-09T14:19:37Z</time>
      </trkpt>
      <trkpt lat="49.86669" lon="2.19107">
        <ele>103.2</ele>
        <time>2022-12-09T14:19:38Z</time>
      </trkpt>
      <trkpt lat="49.8667" lon="2.19106">
        <ele>103.1</ele>
        <time>2022-12-09T14:19:39Z</time>
      </trkpt>
      <trkpt lat="49.8667" lon="2.19106">
        <ele>103.1</ele>
        <time>2022-12-09T14:19:40Z</time>
      </trkpt>
      <trkpt lat="49.8667" lon="2.19106">
        <ele>103.1</ele>
        <time>2022-12-09T14:19:41Z</time>
      </trkpt>
      <trkpt lat="49.8667" lon="2.19106">
        <ele>103.1</ele>
        <time>2022-12-09T14:19:43Z</time>
      </trkpt>
      <trkpt lat="49.8667" lon="2.19106">
        <ele>103.1</ele>
        <time>2022-12-09T14:19:44Z</time>
      </trkpt>
      <trkpt lat="49.8667" lon="2.19107">
        <ele>103.1</ele>
        <time>2022-12-09T14:19:45Z</time>
      </trkpt>
      <trkpt lat="49.8667" lon="2.19107">
        <ele>103.1</ele>
        <time>2022-12-09T14:19:46Z</time>
      </trkpt>
      <trkpt lat="49.8667" lon="2.19107">
        <ele>103.1</ele>
        <time>2022-12-09T14:19:47Z</time>
      </trkpt>
      <trkpt lat="49.86672" lon="2.19107">
        <ele>103</ele>
        <time>2022-12-09T14:19:48Z</time>
      </trkpt>
      <trkpt lat="49.86673" lon="2.19107">
        <ele>103</ele>
        <time>2022-12-09T14:19:50Z</time>
      </trkpt>
      <trkpt lat="49.86675" lon="2.19107">
        <ele>102.9</ele>
        <time>2022-12-09T14:19:51Z</time>
      </trkpt>
      <trkpt lat="49.86677" lon="2.19107">
        <ele>102.9</ele>
        <time>2022-12-09T14:19:52Z</time>
      </trkpt>
      <trkpt lat="49.86678" lon="2.19107">
        <ele>102.9</ele>
        <time>2022-12-09T14:19:53Z</time>
      </trkpt>
      <trkpt lat="49.86679" lon="2.19107">
        <ele>102.8</ele>
        <time>2022-12-09T14:19:54Z</time>
      </trkpt>
      <trkpt lat="49.8668" lon="2.19107">
        <ele>102.8</ele>
        <time>2022-12-09T14:19:55Z</time>
      </trkpt>
      <trkpt lat="49.86681" lon="2.19108">
        <ele>102.8</ele>
        <time>2022-12-09T14:19:56Z</time>
      </trkpt>
      <trkpt lat="49.86681" lon="2.19109">
        <ele>102.8</ele>
        <time>2022-12-09T14:19:57Z</time>
      </trkpt>
      <trkpt lat="49.86682" lon="2.1911">
        <ele>102.7</ele>
        <time>2022-12-09T14:19:58Z</time>
      </trkpt>
      <trkpt lat="49.86683" lon="2.19111">
        <ele>102.7</ele>
        <time>2022-12-09T14:20:00Z</time>
      </trkpt>
      <trkpt lat="49.86683" lon="2.19111">
        <ele>102.7</ele>
        <time>2022-12-09T14:20:01Z</time>
      </trkpt>
      <trkpt lat="49.86684" lon="2.19112">
        <ele>102.7</ele>
        <time>2022-12-09T14:20:02Z</time>
      </trkpt>
      <trkpt lat="49.86684" lon="2.19112">
        <ele>102.7</ele>
        <time>2022-12-09T14:20:03Z</time>
      </trkpt>
      <trkpt lat="49.86685" lon="2.19113">
        <ele>102.6</ele>
        <time>2022-12-09T14:20:04Z</time>
      </trkpt>
      <trkpt lat="49.86687" lon="2.19114">
        <ele>102.6</ele>
        <time>2022-12-09T14:20:05Z</time>
      </trkpt>
      <trkpt lat="49.86689" lon="2.19115">
        <ele>102.5</ele>
        <time>2022-12-09T14:20:07Z</time>
      </trkpt>
      <trkpt lat="49.8669" lon="2.19116">
        <ele>102.5</ele>
        <time>2022-12-09T14:20:08Z</time>
      </trkpt>
      <trkpt lat="49.86693" lon="2.19117">
        <ele>102.4</ele>
        <time>2022-12-09T14:20:09Z</time>
      </trkpt>
      <trkpt lat="49.86694" lon="2.19118">
        <ele>102.4</ele>
        <time>2022-12-09T14:20:10Z</time>
      </trkpt>
      <trkpt lat="49.86695" lon="2.19119">
        <ele>102.3</ele>
        <time>2022-12-09T14:20:11Z</time>
      </trkpt>
      <trkpt lat="49.86697" lon="2.19119">
        <ele>102.3</ele>
        <time>2022-12-09T14:20:12Z</time>
      </trkpt>
      <trkpt lat="49.86698" lon="2.1912">
        <ele>102.3</ele>
        <time>2022-12-09T14:20:14Z</time>
      </trkpt>
      <trkpt lat="49.867" lon="2.19121">
        <ele>102.2</ele>
        <time>2022-12-09T14:20:15Z</time>
      </trkpt>
      <trkpt lat="49.86701" lon="2.19122">
        <ele>102.2</ele>
        <time>2022-12-09T14:20:16Z</time>
      </trkpt>
      <trkpt lat="49.86703" lon="2.19122">
        <ele>102.1</ele>
        <time>2022-12-09T14:20:17Z</time>
      </trkpt>
      <trkpt lat="49.86704" lon="2.19123">
        <ele>102.1</ele>
        <time>2022-12-09T14:20:18Z</time>
      </trkpt>
      <trkpt lat="49.86706" lon="2.19123">
        <ele>102.1</ele>
        <time>2022-12-09T14:20:20Z</time>
      </trkpt>
      <trkpt lat="49.86707" lon="2.19123">
        <ele>102</ele>
        <time>2022-12-09T14:20:21Z</time>
      </trkpt>
      <trkpt lat="49.86709" lon="2.19124">
        <ele>102</ele>
        <time>2022-12-09T14:20:22Z</time>
      </trkpt>
      <trkpt lat="49.86711" lon="2.19124">
        <ele>101.9</ele>
        <time>2022-12-09T14:20:23Z</time>
      </trkpt>
      <trkpt lat="49.86712" lon="2.19125">
        <ele>101.9</ele>
        <time>2022-12-09T14:20:24Z</time>
      </trkpt>
      <trkpt lat="49.86713" lon="2.19125">
        <ele>101.9</ele>
        <time>2022-12-09T14:20:25Z</time>
      </trkpt>
      <trkpt lat="49.86714" lon="2.19126">
        <ele>101.9</ele>
        <time>2022-12-09T14:20:27Z</time>
      </trkpt>
      <trkpt lat="49.86715" lon="2.19126">
        <ele>101.8</ele>
        <time>2022-12-09T14:20:28Z</time>
      </trkpt>
      <trkpt lat="49.86717" lon="2.19127">
        <ele>101.8</ele>
        <time>2022-12-09T14:20:29Z</time>
      </trkpt>
      <trkpt lat="49.86718" lon="2.19128">
        <ele>101.8</ele>
        <time>2022-12-09T14:20:30Z</time>
      </trkpt>
      <trkpt lat="49.86719" lon="2.19128">
        <ele>101.7</ele>
        <time>2022-12-09T14:20:31Z</time>
      </trkpt>
      <trkpt lat="49.86721" lon="2.19129">
        <ele>101.7</ele>
        <time>2022-12-09T14:20:32Z</time>
      </trkpt>
      <trkpt lat="49.86722" lon="2.19129">
        <ele>101.7</ele>
        <time>2022-12-09T14:20:33Z</time>
      </trkpt>
      <trkpt lat="49.86722" lon="2.19129">
        <ele>101.7</ele>
        <time>2022-12-09T14:20:34Z</time>
      </trkpt>
      <trkpt lat="49.86724" lon="2.1913">
        <ele>101.6</ele>
        <time>2022-12-09T14:20:35Z</time>
      </trkpt>
      <trkpt lat="49.86725" lon="2.19131">
        <ele>101.6</ele>
        <time>2022-12-09T14:20:36Z</time>
      </trkpt>
      <trkpt lat="49.86726" lon="2.19131">
        <ele>101.6</ele>
        <time>2022-12-09T14:20:37Z</time>
      </trkpt>
      <trkpt lat="49.86728" lon="2.19133">
        <ele>101.5</ele>
        <time>2022-12-09T14:20:39Z</time>
      </trkpt>
      <trkpt lat="49.86729" lon="2.19133">
        <ele>101.5</ele>
        <time>2022-12-09T14:20:40Z</time>
      </trkpt>
      <trkpt lat="49.86729" lon="2.19134">
        <ele>101.5</ele>
        <time>2022-12-09T14:20:41Z</time>
      </trkpt>
      <trkpt lat="49.8673" lon="2.19134">
        <ele>101.4</ele>
        <time>2022-12-09T14:20:42Z</time>
      </trkpt>
      <trkpt lat="49.86732" lon="2.19135">
        <ele>101.4</ele>
        <time>2022-12-09T14:20:43Z</time>
      </trkpt>
      <trkpt lat="49.86732" lon="2.19136">
        <ele>101.4</ele>
        <time>2022-12-09T14:20:44Z</time>
      </trkpt>
      <trkpt lat="49.86734" lon="2.19137">
        <ele>101.3</ele>
        <time>2022-12-09T14:20:45Z</time>
      </trkpt>
      <trkpt lat="49.86735" lon="2.19137">
        <ele>101.3</ele>
        <time>2022-12-09T14:20:46Z</time>
      </trkpt>
      <trkpt lat="49.86736" lon="2.19138">
        <ele>101.3</ele>
        <time>2022-12-09T14:20:47Z</time>
      </trkpt>
      <trkpt lat="49.86737" lon="2.19139">
        <ele>101.3</ele>
        <time>2022-12-09T14:20:49Z</time>
      </trkpt>
      <trkpt lat="49.86739" lon="2.1914">
        <ele>101.2</ele>
        <time>2022-12-09T14:20:50Z</time>
      </trkpt>
      <trkpt lat="49.86741" lon="2.19141">
        <ele>101.1</ele>
        <time>2022-12-09T14:20:51Z</time>
      </trkpt>
      <trkpt lat="49.86742" lon="2.19142">
        <ele>101.1</ele>
        <time>2022-12-09T14:20:52Z</time>
      </trkpt>
      <trkpt lat="49.86742" lon="2.19142">
        <ele>101.1</ele>
        <time>2022-12-09T14:20:53Z</time>
      </trkpt>
      <trkpt lat="49.86743" lon="2.19143">
        <ele>101</ele>
        <time>2022-12-09T14:20:54Z</time>
      </trkpt>
      <trkpt lat="49.86744" lon="2.19144">
        <ele>101</ele>
        <time>2022-12-09T14:20:55Z</time>
      </trkpt>
      <trkpt lat="49.86746" lon="2.19144">
        <ele>101</ele>
        <time>2022-12-09T14:20:56Z</time>
      </trkpt>
      <trkpt lat="49.86748" lon="2.19145">
        <ele>100.9</ele>
        <time>2022-12-09T14:20:58Z</time>
      </trkpt>
      <trkpt lat="49.86748" lon="2.19146">
        <ele>100.9</ele>
        <time>2022-12-09T14:20:59Z</time>
      </trkpt>
      <trkpt lat="49.86749" lon="2.19147">
        <ele>100.8</ele>
        <time>2022-12-09T14:21:00Z</time>
      </trkpt>
      <trkpt lat="49.8675" lon="2.19148">
        <ele>100.8</ele>
        <time>2022-12-09T14:21:01Z</time>
      </trkpt>
      <trkpt lat="49.8675" lon="2.19148">
        <ele>100.8</ele>
        <time>2022-12-09T14:21:02Z</time>
      </trkpt>
      <trkpt lat="49.86751" lon="2.1915">
        <ele>100.7</ele>
        <time>2022-12-09T14:21:03Z</time>
      </trkpt>
      <trkpt lat="49.86753" lon="2.19152">
        <ele>100.6</ele>
        <time>2022-12-09T14:21:04Z</time>
      </trkpt>
      <trkpt lat="49.86753" lon="2.19153">
        <ele>100.6</ele>
        <time>2022-12-09T14:21:06Z</time>
      </trkpt>
      <trkpt lat="49.86754" lon="2.19154">
        <ele>100.6</ele>
        <time>2022-12-09T14:21:07Z</time>
      </trkpt>
      <trkpt lat="49.86755" lon="2.19155">
        <ele>100.5</ele>
        <time>2022-12-09T14:21:08Z</time>
      </trkpt>
      <trkpt lat="49.86756" lon="2.19156">
        <ele>100.5</ele>
        <time>2022-12-09T14:21:09Z</time>
      </trkpt>
      <trkpt lat="49.86757" lon="2.19157">
        <ele>100.4</ele>
        <time>2022-12-09T14:21:10Z</time>
      </trkpt>
      <trkpt lat="49.86757" lon="2.19158">
        <ele>100.4</ele>
        <time>2022-12-09T14:21:11Z</time>
      </trkpt>
      <trkpt lat="49.86758" lon="2.19159">
        <ele>100.3</ele>
        <time>2022-12-09T14:21:12Z</time>
      </trkpt>
      <trkpt lat="49.86759" lon="2.1916">
        <ele>100.3</ele>
        <time>2022-12-09T14:21:13Z</time>
      </trkpt>
      <trkpt lat="49.8676" lon="2.19161">
        <ele>100.3</ele>
        <time>2022-12-09T14:21:14Z</time>
      </trkpt>
      <trkpt lat="49.86761" lon="2.19162">
        <ele>100.2</ele>
        <time>2022-12-09T14:21:16Z</time>
      </trkpt>
      <trkpt lat="49.86762" lon="2.19163">
        <ele>100.2</ele>
        <time>2022-12-09T14:21:17Z</time>
      </trkpt>
      <trkpt lat="49.86764" lon="2.19166">
        <ele>100.1</ele>
        <time>2022-12-09T14:21:18Z</time>
      </trkpt>
      <trkpt lat="49.86764" lon="2.19167">
        <ele>100</ele>
        <time>2022-12-09T14:21:19Z</time>
      </trkpt>
      <trkpt lat="49.86765" lon="2.19167">
        <ele>100</ele>
        <time>2022-12-09T14:21:20Z</time>
      </trkpt>
      <trkpt lat="49.86766" lon="2.19169">
        <ele>100</ele>
        <time>2022-12-09T14:21:21Z</time>
      </trkpt>
      <trkpt lat="49.86767" lon="2.1917">
        <ele>99.9</ele>
        <time>2022-12-09T14:21:23Z</time>
      </trkpt>
      <trkpt lat="49.86769" lon="2.19171">
        <ele>99.8</ele>
        <time>2022-12-09T14:21:24Z</time>
      </trkpt>
      <trkpt lat="49.8677" lon="2.19171">
        <ele>99.8</ele>
        <time>2022-12-09T14:21:25Z</time>
      </trkpt>
      <trkpt lat="49.86771" lon="2.19172">
        <ele>99.7</ele>
        <time>2022-12-09T14:21:26Z</time>
      </trkpt>
      <trkpt lat="49.86773" lon="2.19173">
        <ele>99.7</ele>
        <time>2022-12-09T14:21:28Z</time>
      </trkpt>
      <trkpt lat="49.86774" lon="2.19175">
        <ele>99.6</ele>
        <time>2022-12-09T14:21:29Z</time>
      </trkpt>
      <trkpt lat="49.86776" lon="2.19176">
        <ele>99.6</ele>
        <time>2022-12-09T14:21:30Z</time>
      </trkpt>
      <trkpt lat="49.86777" lon="2.19178">
        <ele>99.5</ele>
        <time>2022-12-09T14:21:31Z</time>
      </trkpt>
      <trkpt lat="49.86778" lon="2.19179">
        <ele>99.4</ele>
        <time>2022-12-09T14:21:32Z</time>
      </trkpt>
      <trkpt lat="49.86779" lon="2.19179">
        <ele>99.4</ele>
        <time>2022-12-09T14:21:33Z</time>
      </trkpt>
      <trkpt lat="49.8678" lon="2.19181">
        <ele>99.4</ele>
        <time>2022-12-09T14:21:35Z</time>
      </trkpt>
      <trkpt lat="49.86781" lon="2.19182">
        <ele>99.3</ele>
        <time>2022-12-09T14:21:36Z</time>
      </trkpt>
      <trkpt lat="49.86783" lon="2.19183">
        <ele>99.2</ele>
        <time>2022-12-09T14:21:37Z</time>
      </trkpt>
      <trkpt lat="49.86784" lon="2.19185">
        <ele>99.2</ele>
        <time>2022-12-09T14:21:38Z</time>
      </trkpt>
      <trkpt lat="49.86786" lon="2.19186">
        <ele>99.1</ele>
        <time>2022-12-09T14:21:39Z</time>
      </trkpt>
      <trkpt lat="49.86787" lon="2.19187">
        <ele>99.1</ele>
        <time>2022-12-09T14:21:40Z</time>
      </trkpt>
      <trkpt lat="49.86788" lon="2.19188">
        <ele>99</ele>
        <time>2022-12-09T14:21:41Z</time>
      </trkpt>
      <trkpt lat="49.86789" lon="2.1919">
        <ele>99</ele>
        <time>2022-12-09T14:21:42Z</time>
      </trkpt>
      <trkpt lat="49.8679" lon="2.19191">
        <ele>98.9</ele>
        <time>2022-12-09T14:21:44Z</time>
      </trkpt>
      <trkpt lat="49.86792" lon="2.19192">
        <ele>98.9</ele>
        <time>2022-12-09T14:21:45Z</time>
      </trkpt>
      <trkpt lat="49.86793" lon="2.19194">
        <ele>98.8</ele>
        <time>2022-12-09T14:21:46Z</time>
      </trkpt>
      <trkpt lat="49.86794" lon="2.19196">
        <ele>98.8</ele>
        <time>2022-12-09T14:21:47Z</time>
      </trkpt>
      <trkpt lat="49.86795" lon="2.19197">
        <ele>98.7</ele>
        <time>2022-12-09T14:21:48Z</time>
      </trkpt>
      <trkpt lat="49.86796" lon="2.19198">
        <ele>98.7</ele>
        <time>2022-12-09T14:21:49Z</time>
      </trkpt>
      <trkpt lat="49.86797" lon="2.19199">
        <ele>98.6</ele>
        <time>2022-12-09T14:21:50Z</time>
      </trkpt>
      <trkpt lat="49.86798" lon="2.192">
        <ele>98.6</ele>
        <time>2022-12-09T14:21:52Z</time>
      </trkpt>
      <trkpt lat="49.86798" lon="2.19201">
        <ele>98.6</ele>
        <time>2022-12-09T14:21:53Z</time>
      </trkpt>
      <trkpt lat="49.868" lon="2.19203">
        <ele>98.5</ele>
        <time>2022-12-09T14:21:54Z</time>
      </trkpt>
      <trkpt lat="49.86801" lon="2.19204">
        <ele>98.4</ele>
        <time>2022-12-09T14:21:55Z</time>
      </trkpt>
      <trkpt lat="49.86801" lon="2.19205">
        <ele>98.4</ele>
        <time>2022-12-09T14:21:56Z</time>
      </trkpt>
      <trkpt lat="49.86802" lon="2.19207">
        <ele>98.4</ele>
        <time>2022-12-09T14:21:57Z</time>
      </trkpt>
      <trkpt lat="49.86803" lon="2.19208">
        <ele>98.3</ele>
        <time>2022-12-09T14:21:58Z</time>
      </trkpt>
      <trkpt lat="49.86804" lon="2.1921">
        <ele>98.3</ele>
        <time>2022-12-09T14:22:00Z</time>
      </trkpt>
      <trkpt lat="49.86806" lon="2.19212">
        <ele>98.2</ele>
        <time>2022-12-09T14:22:01Z</time>
      </trkpt>
      <trkpt lat="49.86807" lon="2.19212">
        <ele>98.1</ele>
        <time>2022-12-09T14:22:02Z</time>
      </trkpt>
      <trkpt lat="49.86807" lon="2.19213">
        <ele>98.1</ele>
        <time>2022-12-09T14:22:03Z</time>
      </trkpt>
      <trkpt lat="49.86809" lon="2.19215">
        <ele>98</ele>
        <time>2022-12-09T14:22:04Z</time>
      </trkpt>
      <trkpt lat="49.8681" lon="2.19216">
        <ele>98</ele>
        <time>2022-12-09T14:22:05Z</time>
      </trkpt>
      <trkpt lat="49.86811" lon="2.19217">
        <ele>97.9</ele>
        <time>2022-12-09T14:22:06Z</time>
      </trkpt>
      <trkpt lat="49.86812" lon="2.19219">
        <ele>97.9</ele>
        <time>2022-12-09T14:22:07Z</time>
      </trkpt>
      <trkpt lat="49.86813" lon="2.1922">
        <ele>97.8</ele>
        <time>2022-12-09T14:22:09Z</time>
      </trkpt>
      <trkpt lat="49.86814" lon="2.19221">
        <ele>97.8</ele>
        <time>2022-12-09T14:22:10Z</time>
      </trkpt>
      <trkpt lat="49.86815" lon="2.19222">
        <ele>97.7</ele>
        <time>2022-12-09T14:22:11Z</time>
      </trkpt>
      <trkpt lat="49.86816" lon="2.19223">
        <ele>97.7</ele>
        <time>2022-12-09T14:22:12Z</time>
      </trkpt>
      <trkpt lat="49.86817" lon="2.19224">
        <ele>97.6</ele>
        <time>2022-12-09T14:22:13Z</time>
      </trkpt>
      <trkpt lat="49.86818" lon="2.19225">
        <ele>97.6</ele>
        <time>2022-12-09T14:22:14Z</time>
      </trkpt>
      <trkpt lat="49.86819" lon="2.19226">
        <ele>97.5</ele>
        <time>2022-12-09T14:22:15Z</time>
      </trkpt>
      <trkpt lat="49.8682" lon="2.19227">
        <ele>97.5</ele>
        <time>2022-12-09T14:22:16Z</time>
      </trkpt>
      <trkpt lat="49.86821" lon="2.19228">
        <ele>97.4</ele>
        <time>2022-12-09T14:22:17Z</time>
      </trkpt>
      <trkpt lat="49.86823" lon="2.1923">
        <ele>97.3</ele>
        <time>2022-12-09T14:22:19Z</time>
      </trkpt>
      <trkpt lat="49.86824" lon="2.19231">
        <ele>97.3</ele>
        <time>2022-12-09T14:22:20Z</time>
      </trkpt>
      <trkpt lat="49.86825" lon="2.19232">
        <ele>97.2</ele>
        <time>2022-12-09T14:22:21Z</time>
      </trkpt>
      <trkpt lat="49.86826" lon="2.19233">
        <ele>97.2</ele>
        <time>2022-12-09T14:22:22Z</time>
      </trkpt>
      <trkpt lat="49.86827" lon="2.19234">
        <ele>97.1</ele>
        <time>2022-12-09T14:22:23Z</time>
      </trkpt>
      <trkpt lat="49.86828" lon="2.19235">
        <ele>97.1</ele>
        <time>2022-12-09T14:22:24Z</time>
      </trkpt>
      <trkpt lat="49.86829" lon="2.19236">
        <ele>97</ele>
        <time>2022-12-09T14:22:26Z</time>
      </trkpt>
      <trkpt lat="49.86831" lon="2.19237">
        <ele>97</ele>
        <time>2022-12-09T14:22:27Z</time>
      </trkpt>
      <trkpt lat="49.86831" lon="2.19239">
        <ele>96.9</ele>
        <time>2022-12-09T14:22:28Z</time>
      </trkpt>
      <trkpt lat="49.86832" lon="2.1924">
        <ele>96.9</ele>
        <time>2022-12-09T14:22:29Z</time>
      </trkpt>
      <trkpt lat="49.86833" lon="2.19241">
        <ele>96.8</ele>
        <time>2022-12-09T14:22:30Z</time>
      </trkpt>
      <trkpt lat="49.86835" lon="2.19243">
        <ele>96.7</ele>
        <time>2022-12-09T14:22:31Z</time>
      </trkpt>
      <trkpt lat="49.86836" lon="2.19243">
        <ele>96.7</ele>
        <time>2022-12-09T14:22:33Z</time>
      </trkpt>
      <trkpt lat="49.86837" lon="2.19244">
        <ele>96.6</ele>
        <time>2022-12-09T14:22:34Z</time>
      </trkpt>
      <trkpt lat="49.86838" lon="2.19245">
        <ele>96.6</ele>
        <time>2022-12-09T14:22:35Z</time>
      </trkpt>
      <trkpt lat="49.86839" lon="2.19246">
        <ele>96.5</ele>
        <time>2022-12-09T14:22:36Z</time>
      </trkpt>
      <trkpt lat="49.86841" lon="2.19247">
        <ele>96.5</ele>
        <time>2022-12-09T14:22:37Z</time>
      </trkpt>
      <trkpt lat="49.86842" lon="2.19247">
        <ele>96.4</ele>
        <time>2022-12-09T14:22:38Z</time>
      </trkpt>
      <trkpt lat="49.86842" lon="2.19248">
        <ele>96.4</ele>
        <time>2022-12-09T14:22:39Z</time>
      </trkpt>
      <trkpt lat="49.86844" lon="2.1925">
        <ele>96.3</ele>
        <time>2022-12-09T14:22:41Z</time>
      </trkpt>
      <trkpt lat="49.86844" lon="2.19251">
        <ele>96.2</ele>
        <time>2022-12-09T14:22:42Z</time>
      </trkpt>
      <trkpt lat="49.86846" lon="2.19253">
        <ele>96.1</ele>
        <time>2022-12-09T14:22:43Z</time>
      </trkpt>
      <trkpt lat="49.86847" lon="2.19254">
        <ele>96.1</ele>
        <time>2022-12-09T14:22:44Z</time>
      </trkpt>
      <trkpt lat="49.86848" lon="2.19255">
        <ele>96.1</ele>
        <time>2022-12-09T14:22:45Z</time>
      </trkpt>
      <trkpt lat="49.86849" lon="2.19257">
        <ele>96</ele>
        <time>2022-12-09T14:22:46Z</time>
      </trkpt>
      <trkpt lat="49.8685" lon="2.19257">
        <ele>95.9</ele>
        <time>2022-12-09T14:22:48Z</time>
      </trkpt>
      <trkpt lat="49.86851" lon="2.19258">
        <ele>95.9</ele>
        <time>2022-12-09T14:22:49Z</time>
      </trkpt>
      <trkpt lat="49.86852" lon="2.19259">
        <ele>95.8</ele>
        <time>2022-12-09T14:22:50Z</time>
      </trkpt>
      <trkpt lat="49.86853" lon="2.1926">
        <ele>95.8</ele>
        <time>2022-12-09T14:22:51Z</time>
      </trkpt>
      <trkpt lat="49.86854" lon="2.19261">
        <ele>95.7</ele>
        <time>2022-12-09T14:22:52Z</time>
      </trkpt>
      <trkpt lat="49.86855" lon="2.19262">
        <ele>95.7</ele>
        <time>2022-12-09T14:22:53Z</time>
      </trkpt>
      <trkpt lat="49.86856" lon="2.19263">
        <ele>95.6</ele>
        <time>2022-12-09T14:22:55Z</time>
      </trkpt>
      <trkpt lat="49.86857" lon="2.19265">
        <ele>95.5</ele>
        <time>2022-12-09T14:22:56Z</time>
      </trkpt>
      <trkpt lat="49.86858" lon="2.19267">
        <ele>95.5</ele>
        <time>2022-12-09T14:22:57Z</time>
      </trkpt>
      <trkpt lat="49.86859" lon="2.19269">
        <ele>95.4</ele>
        <time>2022-12-09T14:22:58Z</time>
      </trkpt>
      <trkpt lat="49.8686" lon="2.1927">
        <ele>95.3</ele>
        <time>2022-12-09T14:22:59Z</time>
      </trkpt>
      <trkpt lat="49.86861" lon="2.19272">
        <ele>95.3</ele>
        <time>2022-12-09T14:23:00Z</time>
      </trkpt>
      <trkpt lat="49.86862" lon="2.19273">
        <ele>95.2</ele>
        <time>2022-12-09T14:23:01Z</time>
      </trkpt>
      <trkpt lat="49.86863" lon="2.19275">
        <ele>95.1</ele>
        <time>2022-12-09T14:23:02Z</time>
      </trkpt>
      <trkpt lat="49.86864" lon="2.19276">
        <ele>95.1</ele>
        <time>2022-12-09T14:23:04Z</time>
      </trkpt>
      <trkpt lat="49.86865" lon="2.19278">
        <ele>95</ele>
        <time>2022-12-09T14:23:05Z</time>
      </trkpt>
      <trkpt lat="49.86866" lon="2.19279">
        <ele>95</ele>
        <time>2022-12-09T14:23:06Z</time>
      </trkpt>
      <trkpt lat="49.86867" lon="2.1928">
        <ele>94.9</ele>
        <time>2022-12-09T14:23:07Z</time>
      </trkpt>
      <trkpt lat="49.86868" lon="2.19282">
        <ele>94.8</ele>
        <time>2022-12-09T14:23:08Z</time>
      </trkpt>
      <trkpt lat="49.86869" lon="2.19283">
        <ele>94.8</ele>
        <time>2022-12-09T14:23:09Z</time>
      </trkpt>
      <trkpt lat="49.8687" lon="2.19284">
        <ele>94.7</ele>
        <time>2022-12-09T14:23:10Z</time>
      </trkpt>
      <trkpt lat="49.86872" lon="2.19286">
        <ele>94.6</ele>
        <time>2022-12-09T14:23:11Z</time>
      </trkpt>
      <trkpt lat="49.86873" lon="2.19287">
        <ele>94.5</ele>
        <time>2022-12-09T14:23:13Z</time>
      </trkpt>
      <trkpt lat="49.86874" lon="2.19288">
        <ele>94.5</ele>
        <time>2022-12-09T14:23:14Z</time>
      </trkpt>
      <trkpt lat="49.86875" lon="2.19289">
        <ele>94.4</ele>
        <time>2022-12-09T14:23:15Z</time>
      </trkpt>
      <trkpt lat="49.86876" lon="2.1929">
        <ele>94.4</ele>
        <time>2022-12-09T14:23:16Z</time>
      </trkpt>
      <trkpt lat="49.86877" lon="2.19291">
        <ele>94.3</ele>
        <time>2022-12-09T14:23:17Z</time>
      </trkpt>
      <trkpt lat="49.86878" lon="2.19292">
        <ele>94.3</ele>
        <time>2022-12-09T14:23:18Z</time>
      </trkpt>
      <trkpt lat="49.86879" lon="2.19293">
        <ele>94.2</ele>
        <time>2022-12-09T14:23:19Z</time>
      </trkpt>
      <trkpt lat="49.8688" lon="2.19294">
        <ele>94.1</ele>
        <time>2022-12-09T14:23:20Z</time>
      </trkpt>
      <trkpt lat="49.86881" lon="2.19295">
        <ele>94.1</ele>
        <time>2022-12-09T14:23:21Z</time>
      </trkpt>
      <trkpt lat="49.86882" lon="2.19295">
        <ele>94</ele>
        <time>2022-12-09T14:23:22Z</time>
      </trkpt>
      <trkpt lat="49.86882" lon="2.19296">
        <ele>94</ele>
        <time>2022-12-09T14:23:23Z</time>
      </trkpt>
      <trkpt lat="49.86883" lon="2.19297">
        <ele>94</ele>
        <time>2022-12-09T14:23:24Z</time>
      </trkpt>
      <trkpt lat="49.86884" lon="2.19298">
        <ele>93.9</ele>
        <time>2022-12-09T14:23:26Z</time>
      </trkpt>
      <trkpt lat="49.86885" lon="2.19299">
        <ele>93.9</ele>
        <time>2022-12-09T14:23:27Z</time>
      </trkpt>
      <trkpt lat="49.86886" lon="2.19301">
        <ele>93.8</ele>
        <time>2022-12-09T14:23:28Z</time>
      </trkpt>
      <trkpt lat="49.86886" lon="2.19302">
        <ele>93.7</ele>
        <time>2022-12-09T14:23:29Z</time>
      </trkpt>
      <trkpt lat="49.86887" lon="2.19303">
        <ele>93.7</ele>
        <time>2022-12-09T14:23:30Z</time>
      </trkpt>
      <trkpt lat="49.86888" lon="2.19305">
        <ele>93.6</ele>
        <time>2022-12-09T14:23:31Z</time>
      </trkpt>
      <trkpt lat="49.86889" lon="2.19306">
        <ele>93.6</ele>
        <time>2022-12-09T14:23:32Z</time>
      </trkpt>
      <trkpt lat="49.8689" lon="2.19307">
        <ele>93.5</ele>
        <time>2022-12-09T14:23:33Z</time>
      </trkpt>
      <trkpt lat="49.86891" lon="2.19309">
        <ele>93.4</ele>
        <time>2022-12-09T14:23:35Z</time>
      </trkpt>
      <trkpt lat="49.86891" lon="2.1931">
        <ele>93.4</ele>
        <time>2022-12-09T14:23:36Z</time>
      </trkpt>
      <trkpt lat="49.86892" lon="2.19311">
        <ele>93.3</ele>
        <time>2022-12-09T14:23:37Z</time>
      </trkpt>
      <trkpt lat="49.86893" lon="2.19312">
        <ele>93.3</ele>
        <time>2022-12-09T14:23:38Z</time>
      </trkpt>
      <trkpt lat="49.86894" lon="2.19313">
        <ele>93.3</ele>
        <time>2022-12-09T14:23:39Z</time>
      </trkpt>
      <trkpt lat="49.86895" lon="2.19314">
        <ele>93.2</ele>
        <time>2022-12-09T14:23:40Z</time>
      </trkpt>
      <trkpt lat="49.86895" lon="2.19315">
        <ele>93.1</ele>
        <time>2022-12-09T14:23:41Z</time>
      </trkpt>
      <trkpt lat="49.86897" lon="2.19316">
        <ele>93.1</ele>
        <time>2022-12-09T14:23:42Z</time>
      </trkpt>
      <trkpt lat="49.86898" lon="2.19318">
        <ele>93</ele>
        <time>2022-12-09T14:23:43Z</time>
      </trkpt>
      <trkpt lat="49.86899" lon="2.19319">
        <ele>92.9</ele>
        <time>2022-12-09T14:23:44Z</time>
      </trkpt>
      <trkpt lat="49.869" lon="2.19319">
        <ele>92.9</ele>
        <time>2022-12-09T14:23:45Z</time>
      </trkpt>
      <trkpt lat="49.86901" lon="2.19321">
        <ele>92.8</ele>
        <time>2022-12-09T14:23:46Z</time>
      </trkpt>
      <trkpt lat="49.86902" lon="2.19322">
        <ele>92.7</ele>
        <time>2022-12-09T14:23:47Z</time>
      </trkpt>
      <trkpt lat="49.86903" lon="2.19323">
        <ele>92.7</ele>
        <time>2022-12-09T14:23:48Z</time>
      </trkpt>
      <trkpt lat="49.86904" lon="2.19325">
        <ele>92.6</ele>
        <time>2022-12-09T14:23:50Z</time>
      </trkpt>
      <trkpt lat="49.86906" lon="2.19326">
        <ele>92.5</ele>
        <time>2022-12-09T14:23:51Z</time>
      </trkpt>
      <trkpt lat="49.86907" lon="2.19327">
        <ele>92.5</ele>
        <time>2022-12-09T14:23:52Z</time>
      </trkpt>
      <trkpt lat="49.86908" lon="2.19329">
        <ele>92.4</ele>
        <time>2022-12-09T14:23:53Z</time>
      </trkpt>
      <trkpt lat="49.8691" lon="2.19331">
        <ele>92.3</ele>
        <time>2022-12-09T14:23:54Z</time>
      </trkpt>
      <trkpt lat="49.8691" lon="2.19331">
        <ele>92.2</ele>
        <time>2022-12-09T14:23:55Z</time>
      </trkpt>
      <trkpt lat="49.86911" lon="2.19332">
        <ele>92.2</ele>
        <time>2022-12-09T14:23:56Z</time>
      </trkpt>
      <trkpt lat="49.86913" lon="2.19334">
        <ele>92.1</ele>
        <time>2022-12-09T14:23:57Z</time>
      </trkpt>
      <trkpt lat="49.86914" lon="2.19335">
        <ele>92</ele>
        <time>2022-12-09T14:23:58Z</time>
      </trkpt>
      <trkpt lat="49.86915" lon="2.19336">
        <ele>92</ele>
        <time>2022-12-09T14:23:59Z</time>
      </trkpt>
      <trkpt lat="49.86916" lon="2.19337">
        <ele>91.9</ele>
        <time>2022-12-09T14:24:01Z</time>
      </trkpt>
      <trkpt lat="49.86917" lon="2.19338">
        <ele>91.8</ele>
        <time>2022-12-09T14:24:02Z</time>
      </trkpt>
      <trkpt lat="49.86919" lon="2.1934">
        <ele>91.7</ele>
        <time>2022-12-09T14:24:03Z</time>
      </trkpt>
      <trkpt lat="49.8692" lon="2.19341">
        <ele>91.6</ele>
        <time>2022-12-09T14:24:04Z</time>
      </trkpt>
      <trkpt lat="49.86921" lon="2.19341">
        <ele>91.6</ele>
        <time>2022-12-09T14:24:05Z</time>
      </trkpt>
      <trkpt lat="49.86922" lon="2.19343">
        <ele>91.5</ele>
        <time>2022-12-09T14:24:06Z</time>
      </trkpt>
      <trkpt lat="49.86923" lon="2.19344">
        <ele>91.4</ele>
        <time>2022-12-09T14:24:07Z</time>
      </trkpt>
      <trkpt lat="49.86924" lon="2.19345">
        <ele>91.3</ele>
        <time>2022-12-09T14:24:09Z</time>
      </trkpt>
      <trkpt lat="49.86926" lon="2.19347">
        <ele>91.2</ele>
        <time>2022-12-09T14:24:10Z</time>
      </trkpt>
      <trkpt lat="49.86928" lon="2.19349">
        <ele>91.1</ele>
        <time>2022-12-09T14:24:11Z</time>
      </trkpt>
      <trkpt lat="49.86928" lon="2.19349">
        <ele>91.1</ele>
        <time>2022-12-09T14:24:12Z</time>
      </trkpt>
      <trkpt lat="49.86929" lon="2.1935">
        <ele>91</ele>
        <time>2022-12-09T14:24:13Z</time>
      </trkpt>
      <trkpt lat="49.86931" lon="2.19352">
        <ele>90.9</ele>
        <time>2022-12-09T14:24:14Z</time>
      </trkpt>
      <trkpt lat="49.86931" lon="2.19353">
        <ele>90.9</ele>
        <time>2022-12-09T14:24:15Z</time>
      </trkpt>
      <trkpt lat="49.86932" lon="2.19354">
        <ele>90.8</ele>
        <time>2022-12-09T14:24:16Z</time>
      </trkpt>
      <trkpt lat="49.86933" lon="2.19355">
        <ele>90.7</ele>
        <time>2022-12-09T14:24:18Z</time>
      </trkpt>
      <trkpt lat="49.86934" lon="2.19356">
        <ele>90.7</ele>
        <time>2022-12-09T14:24:19Z</time>
      </trkpt>
      <trkpt lat="49.86935" lon="2.19358">
        <ele>90.6</ele>
        <time>2022-12-09T14:24:20Z</time>
      </trkpt>
      <trkpt lat="49.86936" lon="2.19359">
        <ele>90.5</ele>
        <time>2022-12-09T14:24:21Z</time>
      </trkpt>
      <trkpt lat="49.86937" lon="2.19361">
        <ele>90.4</ele>
        <time>2022-12-09T14:24:22Z</time>
      </trkpt>
      <trkpt lat="49.86938" lon="2.19362">
        <ele>90.4</ele>
        <time>2022-12-09T14:24:23Z</time>
      </trkpt>
      <trkpt lat="49.86939" lon="2.19364">
        <ele>90.3</ele>
        <time>2022-12-09T14:24:24Z</time>
      </trkpt>
      <trkpt lat="49.8694" lon="2.19366">
        <ele>90.2</ele>
        <time>2022-12-09T14:24:25Z</time>
      </trkpt>
      <trkpt lat="49.86941" lon="2.19368">
        <ele>90.1</ele>
        <time>2022-12-09T14:24:27Z</time>
      </trkpt>
      <trkpt lat="49.86942" lon="2.1937">
        <ele>90</ele>
        <time>2022-12-09T14:24:28Z</time>
      </trkpt>
      <trkpt lat="49.86943" lon="2.19371">
        <ele>90</ele>
        <time>2022-12-09T14:24:29Z</time>
      </trkpt>
      <trkpt lat="49.86944" lon="2.19372">
        <ele>89.9</ele>
        <time>2022-12-09T14:24:30Z</time>
      </trkpt>
      <trkpt lat="49.86945" lon="2.19374">
        <ele>89.9</ele>
        <time>2022-12-09T14:24:32Z</time>
      </trkpt>
      <trkpt lat="49.86945" lon="2.19375">
        <ele>89.8</ele>
        <time>2022-12-09T14:24:33Z</time>
      </trkpt>
      <trkpt lat="49.86946" lon="2.19376">
        <ele>89.7</ele>
        <time>2022-12-09T14:24:34Z</time>
      </trkpt>
      <trkpt lat="49.86947" lon="2.19377">
        <ele>89.7</ele>
        <time>2022-12-09T14:24:35Z</time>
      </trkpt>
      <trkpt lat="49.86948" lon="2.1938">
        <ele>89.6</ele>
        <time>2022-12-09T14:24:36Z</time>
      </trkpt>
      <trkpt lat="49.86949" lon="2.19381">
        <ele>89.5</ele>
        <time>2022-12-09T14:24:37Z</time>
      </trkpt>
      <trkpt lat="49.86949" lon="2.19382">
        <ele>89.5</ele>
        <time>2022-12-09T14:24:39Z</time>
      </trkpt>
      <trkpt lat="49.8695" lon="2.19384">
        <ele>89.4</ele>
        <time>2022-12-09T14:24:40Z</time>
      </trkpt>
      <trkpt lat="49.86951" lon="2.19385">
        <ele>89.3</ele>
        <time>2022-12-09T14:24:41Z</time>
      </trkpt>
      <trkpt lat="49.86951" lon="2.19386">
        <ele>89.3</ele>
        <time>2022-12-09T14:24:42Z</time>
      </trkpt>
      <trkpt lat="49.86953" lon="2.19389">
        <ele>89.2</ele>
        <time>2022-12-09T14:24:43Z</time>
      </trkpt>
      <trkpt lat="49.86953" lon="2.1939">
        <ele>89.1</ele>
        <time>2022-12-09T14:24:44Z</time>
      </trkpt>
      <trkpt lat="49.86954" lon="2.1939">
        <ele>89.1</ele>
        <time>2022-12-09T14:24:45Z</time>
      </trkpt>
      <trkpt lat="49.86955" lon="2.19392">
        <ele>89</ele>
        <time>2022-12-09T14:24:46Z</time>
      </trkpt>
      <trkpt lat="49.86956" lon="2.19393">
        <ele>88.9</ele>
        <time>2022-12-09T14:24:47Z</time>
      </trkpt>
      <trkpt lat="49.86956" lon="2.19395">
        <ele>88.9</ele>
        <time>2022-12-09T14:24:48Z</time>
      </trkpt>
      <trkpt lat="49.86957" lon="2.19396">
        <ele>88.8</ele>
        <time>2022-12-09T14:24:49Z</time>
      </trkpt>
      <trkpt lat="49.86958" lon="2.19397">
        <ele>88.8</ele>
        <time>2022-12-09T14:24:50Z</time>
      </trkpt>
      <trkpt lat="49.86958" lon="2.19399">
        <ele>88.7</ele>
        <time>2022-12-09T14:24:51Z</time>
      </trkpt>
      <trkpt lat="49.86959" lon="2.194">
        <ele>88.7</ele>
        <time>2022-12-09T14:24:52Z</time>
      </trkpt>
      <trkpt lat="49.8696" lon="2.19401">
        <ele>88.6</ele>
        <time>2022-12-09T14:24:53Z</time>
      </trkpt>
      <trkpt lat="49.86961" lon="2.19402">
        <ele>88.5</ele>
        <time>2022-12-09T14:24:55Z</time>
      </trkpt>
      <trkpt lat="49.86963" lon="2.19404">
        <ele>88.4</ele>
        <time>2022-12-09T14:24:56Z</time>
      </trkpt>
      <trkpt lat="49.86964" lon="2.19404">
        <ele>88.4</ele>
        <time>2022-12-09T14:24:57Z</time>
      </trkpt>
      <trkpt lat="49.86964" lon="2.19405">
        <ele>88.4</ele>
        <time>2022-12-09T14:24:58Z</time>
      </trkpt>
      <trkpt lat="49.86965" lon="2.19406">
        <ele>88.3</ele>
        <time>2022-12-09T14:24:59Z</time>
      </trkpt>
      <trkpt lat="49.86966" lon="2.19407">
        <ele>88.3</ele>
        <time>2022-12-09T14:25:00Z</time>
      </trkpt>
      <trkpt lat="49.86967" lon="2.19408">
        <ele>88.2</ele>
        <time>2022-12-09T14:25:02Z</time>
      </trkpt>
      <trkpt lat="49.86968" lon="2.19409">
        <ele>88.2</ele>
        <time>2022-12-09T14:25:03Z</time>
      </trkpt>
      <trkpt lat="49.86968" lon="2.1941">
        <ele>88.1</ele>
        <time>2022-12-09T14:25:04Z</time>
      </trkpt>
      <trkpt lat="49.86969" lon="2.19411">
        <ele>88.1</ele>
        <time>2022-12-09T14:25:05Z</time>
      </trkpt>
      <trkpt lat="49.8697" lon="2.19412">
        <ele>88</ele>
        <time>2022-12-09T14:25:06Z</time>
      </trkpt>
      <trkpt lat="49.86971" lon="2.19413">
        <ele>88</ele>
        <time>2022-12-09T14:25:07Z</time>
      </trkpt>
      <trkpt lat="49.86972" lon="2.19414">
        <ele>87.9</ele>
        <time>2022-12-09T14:25:08Z</time>
      </trkpt>
      <trkpt lat="49.86973" lon="2.19416">
        <ele>87.8</ele>
        <time>2022-12-09T14:25:09Z</time>
      </trkpt>
      <trkpt lat="49.86974" lon="2.19417">
        <ele>87.8</ele>
        <time>2022-12-09T14:25:10Z</time>
      </trkpt>
      <trkpt lat="49.86975" lon="2.19418">
        <ele>87.8</ele>
        <time>2022-12-09T14:25:11Z</time>
      </trkpt>
      <trkpt lat="49.86977" lon="2.1942">
        <ele>87.7</ele>
        <time>2022-12-09T14:25:13Z</time>
      </trkpt>
      <trkpt lat="49.86977" lon="2.19421">
        <ele>87.7</ele>
        <time>2022-12-09T14:25:14Z</time>
      </trkpt>
      <trkpt lat="49.86978" lon="2.19421">
        <ele>87.6</ele>
        <time>2022-12-09T14:25:15Z</time>
      </trkpt>
      <trkpt lat="49.86979" lon="2.19422">
        <ele>87.6</ele>
        <time>2022-12-09T14:25:16Z</time>
      </trkpt>
      <trkpt lat="49.86979" lon="2.19423">
        <ele>87.6</ele>
        <time>2022-12-09T14:25:17Z</time>
      </trkpt>
      <trkpt lat="49.8698" lon="2.19424">
        <ele>87.5</ele>
        <time>2022-12-09T14:25:18Z</time>
      </trkpt>
      <trkpt lat="49.86981" lon="2.19425">
        <ele>87.5</ele>
        <time>2022-12-09T14:25:19Z</time>
      </trkpt>
      <trkpt lat="49.86982" lon="2.19425">
        <ele>87.4</ele>
        <time>2022-12-09T14:25:20Z</time>
      </trkpt>
      <trkpt lat="49.86983" lon="2.19427">
        <ele>87.4</ele>
        <time>2022-12-09T14:25:21Z</time>
      </trkpt>
      <trkpt lat="49.86984" lon="2.19428">
        <ele>87.4</ele>
        <time>2022-12-09T14:25:22Z</time>
      </trkpt>
      <trkpt lat="49.86985" lon="2.19429">
        <ele>87.3</ele>
        <time>2022-12-09T14:25:23Z</time>
      </trkpt>
      <trkpt lat="49.86986" lon="2.19431">
        <ele>87.3</ele>
        <time>2022-12-09T14:25:25Z</time>
      </trkpt>
      <trkpt lat="49.86987" lon="2.19432">
        <ele>87.3</ele>
        <time>2022-12-09T14:25:26Z</time>
      </trkpt>
      <trkpt lat="49.86988" lon="2.19433">
        <ele>87.2</ele>
        <time>2022-12-09T14:25:27Z</time>
      </trkpt>
      <trkpt lat="49.86988" lon="2.19434">
        <ele>87.2</ele>
        <time>2022-12-09T14:25:28Z</time>
      </trkpt>
      <trkpt lat="49.86989" lon="2.19435">
        <ele>87.2</ele>
        <time>2022-12-09T14:25:29Z</time>
      </trkpt>
      <trkpt lat="49.86988" lon="2.19436">
        <ele>87.2</ele>
        <time>2022-12-09T14:25:31Z</time>
      </trkpt>
      <trkpt lat="49.86988" lon="2.19435">
        <ele>87.2</ele>
        <time>2022-12-09T14:25:32Z</time>
      </trkpt>
      <trkpt lat="49.86987" lon="2.19435">
        <ele>87.2</ele>
        <time>2022-12-09T14:25:34Z</time>
      </trkpt>
      <trkpt lat="49.86987" lon="2.19435">
        <ele>87.2</ele>
        <time>2022-12-09T14:25:35Z</time>
      </trkpt>
      <trkpt lat="49.86987" lon="2.19435">
        <ele>87.2</ele>
        <time>2022-12-09T14:25:37Z</time>
      </trkpt>
      <trkpt lat="49.86987" lon="2.19435">
        <ele>87.2</ele>
        <time>2022-12-09T14:25:38Z</time>
      </trkpt>
      <trkpt lat="49.86987" lon="2.19435">
        <ele>87.2</ele>
        <time>2022-12-09T14:25:39Z</time>
      </trkpt>
      <trkpt lat="49.86987" lon="2.19435">
        <ele>87.2</ele>
        <time>2022-12-09T14:25:41Z</time>
      </trkpt>
      <trkpt lat="49.86987" lon="2.19435">
        <ele>87.2</ele>
        <time>2022-12-09T14:25:42Z</time>
      </trkpt>
      <trkpt lat="49.86987" lon="2.19435">
        <ele>87.2</ele>
        <time>2022-12-09T14:25:44Z</time>
      </trkpt>
      <trkpt lat="49.86987" lon="2.19435">
        <ele>87.2</ele>
        <time>2022-12-09T14:25:45Z</time>
      </trkpt>
      <trkpt lat="49.86986" lon="2.19434">
        <ele>87.1</ele>
        <time>2022-12-09T14:25:46Z</time>
      </trkpt>
      <trkpt lat="49.86986" lon="2.19434">
        <ele>87.1</ele>
        <time>2022-12-09T14:25:47Z</time>
      </trkpt>
      <trkpt lat="49.86986" lon="2.19434">
        <ele>87.1</ele>
        <time>2022-12-09T14:25:48Z</time>
      </trkpt>
      <trkpt lat="49.86986" lon="2.19434">
        <ele>87.1</ele>
        <time>2022-12-09T14:25:49Z</time>
      </trkpt>
      <trkpt lat="49.86986" lon="2.19434">
        <ele>87.1</ele>
        <time>2022-12-09T14:25:50Z</time>
      </trkpt>
      <trkpt lat="49.86986" lon="2.19433">
        <ele>87.1</ele>
        <time>2022-12-09T14:25:51Z</time>
      </trkpt>
      <trkpt lat="49.86985" lon="2.19431">
        <ele>87.1</ele>
        <time>2022-12-09T14:25:52Z</time>
      </trkpt>
      <trkpt lat="49.86985" lon="2.19431">
        <ele>87.1</ele>
        <time>2022-12-09T14:25:53Z</time>
      </trkpt>
      <trkpt lat="49.86987" lon="2.19434">
        <ele>87</ele>
        <time>2022-12-09T14:25:55Z</time>
      </trkpt>
      <trkpt lat="49.86987" lon="2.19434">
        <ele>87</ele>
        <time>2022-12-09T14:25:56Z</time>
      </trkpt>
      <trkpt lat="49.86988" lon="2.19434">
        <ele>87</ele>
        <time>2022-12-09T14:25:57Z</time>
      </trkpt>
      <trkpt lat="49.86988" lon="2.19435">
        <ele>87</ele>
        <time>2022-12-09T14:25:58Z</time>
      </trkpt>
      <trkpt lat="49.86988" lon="2.19435">
        <ele>87</ele>
        <time>2022-12-09T14:25:59Z</time>
      </trkpt>
      <trkpt lat="49.86989" lon="2.19436">
        <ele>87</ele>
        <time>2022-12-09T14:26:01Z</time>
      </trkpt>
      <trkpt lat="49.8699" lon="2.19437">
        <ele>87</ele>
        <time>2022-12-09T14:26:02Z</time>
      </trkpt>
      <trkpt lat="49.86991" lon="2.19438">
        <ele>86.9</ele>
        <time>2022-12-09T14:26:03Z</time>
      </trkpt>
      <trkpt lat="49.86991" lon="2.19439">
        <ele>86.9</ele>
        <time>2022-12-09T14:26:04Z</time>
      </trkpt>
      <trkpt lat="49.86992" lon="2.1944">
        <ele>86.9</ele>
        <time>2022-12-09T14:26:05Z</time>
      </trkpt>
      <trkpt lat="49.86992" lon="2.19441">
        <ele>86.9</ele>
        <time>2022-12-09T14:26:07Z</time>
      </trkpt>
      <trkpt lat="49.86993" lon="2.19442">
        <ele>86.9</ele>
        <time>2022-12-09T14:26:08Z</time>
      </trkpt>
      <trkpt lat="49.86993" lon="2.19443">
        <ele>86.9</ele>
        <time>2022-12-09T14:26:09Z</time>
      </trkpt>
      <trkpt lat="49.86993" lon="2.19444">
        <ele>86.9</ele>
        <time>2022-12-09T14:26:10Z</time>
      </trkpt>
      <trkpt lat="49.86993" lon="2.19444">
        <ele>86.9</ele>
        <time>2022-12-09T14:26:11Z</time>
      </trkpt>
      <trkpt lat="49.86993" lon="2.19446">
        <ele>86.9</ele>
        <time>2022-12-09T14:26:12Z</time>
      </trkpt>
      <trkpt lat="49.86993" lon="2.19447">
        <ele>86.9</ele>
        <time>2022-12-09T14:26:13Z</time>
      </trkpt>
      <trkpt lat="49.86993" lon="2.19448">
        <ele>86.8</ele>
        <time>2022-12-09T14:26:15Z</time>
      </trkpt>
      <trkpt lat="49.86993" lon="2.19449">
        <ele>86.8</ele>
        <time>2022-12-09T14:26:16Z</time>
      </trkpt>
      <trkpt lat="49.86994" lon="2.1945">
        <ele>86.8</ele>
        <time>2022-12-09T14:26:17Z</time>
      </trkpt>
      <trkpt lat="49.86994" lon="2.19451">
        <ele>86.8</ele>
        <time>2022-12-09T14:26:18Z</time>
      </trkpt>
      <trkpt lat="49.86994" lon="2.19452">
        <ele>86.8</ele>
        <time>2022-12-09T14:26:19Z</time>
      </trkpt>
      <trkpt lat="49.86995" lon="2.19452">
        <ele>86.8</ele>
        <time>2022-12-09T14:26:20Z</time>
      </trkpt>
      <trkpt lat="49.86995" lon="2.19453">
        <ele>86.8</ele>
        <time>2022-12-09T14:26:22Z</time>
      </trkpt>
      <trkpt lat="49.86996" lon="2.19455">
        <ele>86.8</ele>
        <time>2022-12-09T14:26:23Z</time>
      </trkpt>
      <trkpt lat="49.86996" lon="2.19456">
        <ele>86.8</ele>
        <time>2022-12-09T14:26:24Z</time>
      </trkpt>
      <trkpt lat="49.86997" lon="2.19457">
        <ele>86.8</ele>
        <time>2022-12-09T14:26:25Z</time>
      </trkpt>
      <trkpt lat="49.86998" lon="2.19458">
        <ele>86.7</ele>
        <time>2022-12-09T14:26:26Z</time>
      </trkpt>
      <trkpt lat="49.86998" lon="2.19459">
        <ele>86.7</ele>
        <time>2022-12-09T14:26:27Z</time>
      </trkpt>
      <trkpt lat="49.86999" lon="2.19461">
        <ele>86.7</ele>
        <time>2022-12-09T14:26:29Z</time>
      </trkpt>
      <trkpt lat="49.87" lon="2.19462">
        <ele>86.7</ele>
        <time>2022-12-09T14:26:30Z</time>
      </trkpt>
      <trkpt lat="49.87001" lon="2.19463">
        <ele>86.7</ele>
        <time>2022-12-09T14:26:31Z</time>
      </trkpt>
      <trkpt lat="49.87002" lon="2.19464">
        <ele>86.7</ele>
        <time>2022-12-09T14:26:32Z</time>
      </trkpt>
      <trkpt lat="49.87002" lon="2.19465">
        <ele>86.7</ele>
        <time>2022-12-09T14:26:33Z</time>
      </trkpt>
      <trkpt lat="49.87002" lon="2.19466">
        <ele>86.7</ele>
        <time>2022-12-09T14:26:34Z</time>
      </trkpt>
      <trkpt lat="49.87002" lon="2.19467">
        <ele>86.7</ele>
        <time>2022-12-09T14:26:36Z</time>
      </trkpt>
      <trkpt lat="49.87002" lon="2.19467">
        <ele>86.6</ele>
        <time>2022-12-09T14:26:37Z</time>
      </trkpt>
      <trkpt lat="49.87001" lon="2.19467">
        <ele>86.6</ele>
        <time>2022-12-09T14:26:38Z</time>
      </trkpt>
      <trkpt lat="49.87001" lon="2.19467">
        <ele>86.6</ele>
        <time>2022-12-09T14:26:39Z</time>
      </trkpt>
      <trkpt lat="49.87001" lon="2.19467">
        <ele>86.6</ele>
        <time>2022-12-09T14:26:41Z</time>
      </trkpt>
      <trkpt lat="49.87001" lon="2.19467">
        <ele>86.6</ele>
        <time>2022-12-09T14:26:42Z</time>
      </trkpt>
      <trkpt lat="49.87" lon="2.19467">
        <ele>86.6</ele>
        <time>2022-12-09T14:26:43Z</time>
      </trkpt>
      <trkpt lat="49.87" lon="2.19467">
        <ele>86.6</ele>
        <time>2022-12-09T14:26:44Z</time>
      </trkpt>
      <trkpt lat="49.87" lon="2.19466">
        <ele>86.6</ele>
        <time>2022-12-09T14:26:46Z</time>
      </trkpt>
      <trkpt lat="49.87" lon="2.19466">
        <ele>86.6</ele>
        <time>2022-12-09T14:26:47Z</time>
      </trkpt>
      <trkpt lat="49.87" lon="2.19466">
        <ele>86.6</ele>
        <time>2022-12-09T14:26:48Z</time>
      </trkpt>
      <trkpt lat="49.87" lon="2.19466">
        <ele>86.6</ele>
        <time>2022-12-09T14:26:50Z</time>
      </trkpt>
      <trkpt lat="49.87" lon="2.19467">
        <ele>86.6</ele>
        <time>2022-12-09T14:26:51Z</time>
      </trkpt>
      <trkpt lat="49.87" lon="2.19466">
        <ele>86.6</ele>
        <time>2022-12-09T14:26:52Z</time>
      </trkpt>
      <trkpt lat="49.87" lon="2.19466">
        <ele>86.6</ele>
        <time>2022-12-09T14:26:53Z</time>
      </trkpt>
      <trkpt lat="49.87" lon="2.19465">
        <ele>86.6</ele>
        <time>2022-12-09T14:26:54Z</time>
      </trkpt>
      <trkpt lat="49.87" lon="2.19465">
        <ele>86.6</ele>
        <time>2022-12-09T14:26:55Z</time>
      </trkpt>
      <trkpt lat="49.87" lon="2.19465">
        <ele>86.6</ele>
        <time>2022-12-09T14:26:56Z</time>
      </trkpt>
      <trkpt lat="49.87" lon="2.19465">
        <ele>86.6</ele>
        <time>2022-12-09T14:26:57Z</time>
      </trkpt>
      <trkpt lat="49.87" lon="2.19465">
        <ele>86.6</ele>
        <time>2022-12-09T14:26:58Z</time>
      </trkpt>
      <trkpt lat="49.87" lon="2.19465">
        <ele>86.6</ele>
        <time>2022-12-09T14:26:59Z</time>
      </trkpt>
      <trkpt lat="49.87" lon="2.19465">
        <ele>86.6</ele>
        <time>2022-12-09T14:27:00Z</time>
      </trkpt>
      <trkpt lat="49.87" lon="2.19465">
        <ele>86.6</ele>
        <time>2022-12-09T14:27:01Z</time>
      </trkpt>
      <trkpt lat="49.87" lon="2.19465">
        <ele>86.6</ele>
        <time>2022-12-09T14:27:02Z</time>
      </trkpt>
      <trkpt lat="49.87" lon="2.19465">
        <ele>86.6</ele>
        <time>2022-12-09T14:27:03Z</time>
      </trkpt>
      <trkpt lat="49.87" lon="2.19465">
        <ele>86.6</ele>
        <time>2022-12-09T14:27:04Z</time>
      </trkpt>
      <trkpt lat="49.87" lon="2.19465">
        <ele>86.6</ele>
        <time>2022-12-09T14:27:05Z</time>
      </trkpt>
      <trkpt lat="49.87" lon="2.19465">
        <ele>86.6</ele>
        <time>2022-12-09T14:27:06Z</time>
      </trkpt>
      <trkpt lat="49.87" lon="2.19465">
        <ele>86.6</ele>
        <time>2022-12-09T14:27:07Z</time>
      </trkpt>
      <trkpt lat="49.87" lon="2.19465">
        <ele>86.6</ele>
        <time>2022-12-09T14:27:08Z</time>
      </trkpt>
      <trkpt lat="49.87" lon="2.19465">
        <ele>86.6</ele>
        <time>2022-12-09T14:27:09Z</time>
      </trkpt>
      <trkpt lat="49.87" lon="2.19465">
        <ele>86.6</ele>
        <time>2022-12-09T14:27:10Z</time>
      </trkpt>
      <trkpt lat="49.87" lon="2.19465">
        <ele>86.6</ele>
        <time>2022-12-09T14:27:11Z</time>
      </trkpt>
      <trkpt lat="49.87" lon="2.19465">
        <ele>86.6</ele>
        <time>2022-12-09T14:27:12Z</time>
      </trkpt>
      <trkpt lat="49.87" lon="2.19465">
        <ele>86.6</ele>
        <time>2022-12-09T14:27:13Z</time>
      </trkpt>
      <trkpt lat="49.87" lon="2.19465">
        <ele>86.6</ele>
        <time>2022-12-09T14:27:14Z</time>
      </trkpt>
      <trkpt lat="49.87" lon="2.19465">
        <ele>86.6</ele>
        <time>2022-12-09T14:27:15Z</time>
      </trkpt>
      <trkpt lat="49.87" lon="2.19465">
        <ele>86.6</ele>
        <time>2022-12-09T14:27:16Z</time>
      </trkpt>
      <trkpt lat="49.87" lon="2.19465">
        <ele>86.6</ele>
        <time>2022-12-09T14:27:17Z</time>
      </trkpt>
      <trkpt lat="49.87" lon="2.19465">
        <ele>86.6</ele>
        <time>2022-12-09T14:27:18Z</time>
      </trkpt>
      <trkpt lat="49.87" lon="2.19465">
        <ele>86.6</ele>
        <time>2022-12-09T14:27:19Z</time>
      </trkpt>
      <trkpt lat="49.87" lon="2.19465">
        <ele>86.6</ele>
        <time>2022-12-09T14:27:20Z</time>
      </trkpt>
      <trkpt lat="49.87" lon="2.19465">
        <ele>86.6</ele>
        <time>2022-12-09T14:27:21Z</time>
      </trkpt>
      <trkpt lat="49.87" lon="2.19465">
        <ele>86.6</ele>
        <time>2022-12-09T14:27:22Z</time>
      </trkpt>
      <trkpt lat="49.87" lon="2.19465">
        <ele>86.6</ele>
        <time>2022-12-09T14:27:23Z</time>
      </trkpt>
      <trkpt lat="49.87" lon="2.19465">
        <ele>86.6</ele>
        <time>2022-12-09T14:27:24Z</time>
      </trkpt>
      <trkpt lat="49.87" lon="2.19465">
        <ele>86.6</ele>
        <time>2022-12-09T14:27:25Z</time>
      </trkpt>
      <trkpt lat="49.87" lon="2.19465">
        <ele>86.6</ele>
        <time>2022-12-09T14:27:26Z</time>
      </trkpt>
      <trkpt lat="49.87" lon="2.19465">
        <ele>86.6</ele>
        <time>2022-12-09T14:27:27Z</time>
      </trkpt>
      <trkpt lat="49.87" lon="2.19465">
        <ele>86.6</ele>
        <time>2022-12-09T14:27:28Z</time>
      </trkpt>
      <trkpt lat="49.87" lon="2.19465">
        <ele>86.6</ele>
        <time>2022-12-09T14:27:29Z</time>
      </trkpt>
      <trkpt lat="49.87" lon="2.19465">
        <ele>86.6</ele>
        <time>2022-12-09T14:27:30Z</time>
      </trkpt>
      <trkpt lat="49.87" lon="2.19465">
        <ele>86.6</ele>
        <time>2022-12-09T14:27:31Z</time>
      </trkpt>
      <trkpt lat="49.87" lon="2.19465">
        <ele>86.6</ele>
        <time>2022-12-09T14:27:32Z</time>
      </trkpt>
      <trkpt lat="49.87" lon="2.19465">
        <ele>86.6</ele>
        <time>2022-12-09T14:27:33Z</time>
      </trkpt>
      <trkpt lat="49.87" lon="2.19465">
        <ele>86.6</ele>
        <time>2022-12-09T14:27:34Z</time>
      </trkpt>
      <trkpt lat="49.87" lon="2.19465">
        <ele>86.6</ele>
        <time>2022-12-09T14:27:35Z</time>
      </trkpt>
      <trkpt lat="49.87" lon="2.19465">
        <ele>86.6</ele>
        <time>2022-12-09T14:27:36Z</time>
      </trkpt>
      <trkpt lat="49.87" lon="2.19465">
        <ele>86.6</ele>
        <time>2022-12-09T14:27:37Z</time>
      </trkpt>
      <trkpt lat="49.87" lon="2.19465">
        <ele>86.6</ele>
        <time>2022-12-09T14:27:38Z</time>
      </trkpt>
      <trkpt lat="49.87" lon="2.19465">
        <ele>86.6</ele>
        <time>2022-12-09T14:27:39Z</time>
      </trkpt>
      <trkpt lat="49.87" lon="2.19465">
        <ele>86.6</ele>
        <time>2022-12-09T14:27:40Z</time>
      </trkpt>
      <trkpt lat="49.87" lon="2.19465">
        <ele>86.6</ele>
        <time>2022-12-09T14:27:41Z</time>
      </trkpt>
      <trkpt lat="49.87" lon="2.19465">
        <ele>86.6</ele>
        <time>2022-12-09T14:27:42Z</time>
      </trkpt>
      <trkpt lat="49.87" lon="2.19464">
        <ele>86.6</ele>
        <time>2022-12-09T14:27:43Z</time>
      </trkpt>
      <trkpt lat="49.86999" lon="2.19463">
        <ele>86.6</ele>
        <time>2022-12-09T14:27:45Z</time>
      </trkpt>
      <trkpt lat="49.86999" lon="2.19461">
        <ele>86.6</ele>
        <time>2022-12-09T14:27:46Z</time>
      </trkpt>
      <trkpt lat="49.86999" lon="2.1946">
        <ele>86.6</ele>
        <time>2022-12-09T14:27:47Z</time>
      </trkpt>
      <trkpt lat="49.86999" lon="2.1946">
        <ele>86.6</ele>
        <time>2022-12-09T14:27:48Z</time>
      </trkpt>
      <trkpt lat="49.86999" lon="2.19459">
        <ele>86.6</ele>
        <time>2022-12-09T14:27:49Z</time>
      </trkpt>
      <trkpt lat="49.86999" lon="2.19459">
        <ele>86.6</ele>
        <time>2022-12-09T14:27:51Z</time>
      </trkpt>
      <trkpt lat="49.86999" lon="2.19459">
        <ele>86.6</ele>
        <time>2022-12-09T14:27:52Z</time>
      </trkpt>
      <trkpt lat="49.86999" lon="2.19459">
        <ele>86.5</ele>
        <time>2022-12-09T14:27:53Z</time>
      </trkpt>
      <trkpt lat="49.86999" lon="2.19459">
        <ele>86.5</ele>
        <time>2022-12-09T14:27:55Z</time>
      </trkpt>
      <trkpt lat="49.86998" lon="2.19458">
        <ele>86.5</ele>
        <time>2022-12-09T14:27:57Z</time>
      </trkpt>
      <trkpt lat="49.86998" lon="2.19458">
        <ele>86.5</ele>
        <time>2022-12-09T14:27:58Z</time>
      </trkpt>
      <trkpt lat="49.86998" lon="2.19457">
        <ele>86.5</ele>
        <time>2022-12-09T14:27:59Z</time>
      </trkpt>
      <trkpt lat="49.86998" lon="2.19457">
        <ele>86.5</ele>
        <time>2022-12-09T14:28:01Z</time>
      </trkpt>
      <trkpt lat="49.86998" lon="2.19458">
        <ele>86.5</ele>
        <time>2022-12-09T14:28:02Z</time>
      </trkpt>
      <trkpt lat="49.86999" lon="2.19458">
        <ele>86.5</ele>
        <time>2022-12-09T14:28:04Z</time>
      </trkpt>
      <trkpt lat="49.86999" lon="2.19459">
        <ele>86.5</ele>
        <time>2022-12-09T14:28:05Z</time>
      </trkpt>
      <trkpt lat="49.86999" lon="2.19459">
        <ele>86.5</ele>
        <time>2022-12-09T14:28:06Z</time>
      </trkpt>
      <trkpt lat="49.86999" lon="2.19459">
        <ele>86.5</ele>
        <time>2022-12-09T14:28:08Z</time>
      </trkpt>
      <trkpt lat="49.86999" lon="2.19459">
        <ele>86.5</ele>
        <time>2022-12-09T14:28:09Z</time>
      </trkpt>
      <trkpt lat="49.86999" lon="2.19459">
        <ele>86.5</ele>
        <time>2022-12-09T14:28:11Z</time>
      </trkpt>
      <trkpt lat="49.86998" lon="2.19459">
        <ele>86.5</ele>
        <time>2022-12-09T14:28:12Z</time>
      </trkpt>
      <trkpt lat="49.86998" lon="2.19459">
        <ele>86.5</ele>
        <time>2022-12-09T14:28:13Z</time>
      </trkpt>
      <trkpt lat="49.86998" lon="2.19459">
        <ele>86.5</ele>
        <time>2022-12-09T14:28:15Z</time>
      </trkpt>
      <trkpt lat="49.86998" lon="2.19459">
        <ele>86.5</ele>
        <time>2022-12-09T14:28:16Z</time>
      </trkpt>
      <trkpt lat="49.86998" lon="2.1946">
        <ele>86.5</ele>
        <time>2022-12-09T14:28:17Z</time>
      </trkpt>
      <trkpt lat="49.86998" lon="2.1946">
        <ele>86.5</ele>
        <time>2022-12-09T14:28:18Z</time>
      </trkpt>
      <trkpt lat="49.86998" lon="2.1946">
        <ele>86.5</ele>
        <time>2022-12-09T14:28:19Z</time>
      </trkpt>
      <trkpt lat="49.86998" lon="2.1946">
        <ele>86.5</ele>
        <time>2022-12-09T14:28:20Z</time>
      </trkpt>
      <trkpt lat="49.86998" lon="2.1946">
        <ele>86.5</ele>
        <time>2022-12-09T14:28:21Z</time>
      </trkpt>
      <trkpt lat="49.86998" lon="2.1946">
        <ele>86.5</ele>
        <time>2022-12-09T14:28:22Z</time>
      </trkpt>
      <trkpt lat="49.86998" lon="2.1946">
        <ele>86.5</ele>
        <time>2022-12-09T14:28:23Z</time>
      </trkpt>
      <trkpt lat="49.86998" lon="2.1946">
        <ele>86.5</ele>
        <time>2022-12-09T14:28:24Z</time>
      </trkpt>
      <trkpt lat="49.86998" lon="2.1946">
        <ele>86.5</ele>
        <time>2022-12-09T14:28:25Z</time>
      </trkpt>
      <trkpt lat="49.86998" lon="2.1946">
        <ele>86.5</ele>
        <time>2022-12-09T14:28:26Z</time>
      </trkpt>
      <trkpt lat="49.86998" lon="2.1946">
        <ele>86.5</ele>
        <time>2022-12-09T14:28:27Z</time>
      </trkpt>
      <trkpt lat="49.86998" lon="2.1946">
        <ele>86.5</ele>
        <time>2022-12-09T14:28:28Z</time>
      </trkpt>
      <trkpt lat="49.86998" lon="2.1946">
        <ele>86.5</ele>
        <time>2022-12-09T14:28:29Z</time>
      </trkpt>
      <trkpt lat="49.86998" lon="2.1946">
        <ele>86.5</ele>
        <time>2022-12-09T14:28:30Z</time>
      </trkpt>
      <trkpt lat="49.86999" lon="2.19461">
        <ele>86.5</ele>
        <time>2022-12-09T14:28:31Z</time>
      </trkpt>
      <trkpt lat="49.86999" lon="2.19461">
        <ele>86.5</ele>
        <time>2022-12-09T14:28:32Z</time>
      </trkpt>
      <trkpt lat="49.86999" lon="2.19462">
        <ele>86.5</ele>
        <time>2022-12-09T14:28:33Z</time>
      </trkpt>
      <trkpt lat="49.86999" lon="2.19462">
        <ele>86.5</ele>
        <time>2022-12-09T14:28:34Z</time>
      </trkpt>
      <trkpt lat="49.86999" lon="2.19462">
        <ele>86.5</ele>
        <time>2022-12-09T14:28:35Z</time>
      </trkpt>
      <trkpt lat="49.86999" lon="2.19462">
        <ele>86.5</ele>
        <time>2022-12-09T14:28:36Z</time>
      </trkpt>
      <trkpt lat="49.86999" lon="2.19462">
        <ele>86.5</ele>
        <time>2022-12-09T14:28:37Z</time>
      </trkpt>
      <trkpt lat="49.86999" lon="2.19462">
        <ele>86.5</ele>
        <time>2022-12-09T14:28:38Z</time>
      </trkpt>
      <trkpt lat="49.86999" lon="2.19462">
        <ele>86.5</ele>
        <time>2022-12-09T14:28:39Z</time>
      </trkpt>
      <trkpt lat="49.86999" lon="2.19462">
        <ele>86.5</ele>
        <time>2022-12-09T14:28:40Z</time>
      </trkpt>
      <trkpt lat="49.86999" lon="2.19462">
        <ele>86.5</ele>
        <time>2022-12-09T14:28:41Z</time>
      </trkpt>
      <trkpt lat="49.86999" lon="2.19462">
        <ele>86.5</ele>
        <time>2022-12-09T14:28:42Z</time>
      </trkpt>
      <trkpt lat="49.86999" lon="2.19462">
        <ele>86.5</ele>
        <time>2022-12-09T14:28:43Z</time>
      </trkpt>
      <trkpt lat="49.86999" lon="2.19462">
        <ele>86.5</ele>
        <time>2022-12-09T14:28:44Z</time>
      </trkpt>
      <trkpt lat="49.86999" lon="2.19462">
        <ele>86.5</ele>
        <time>2022-12-09T14:28:45Z</time>
      </trkpt>
      <trkpt lat="49.86999" lon="2.19462">
        <ele>86.5</ele>
        <time>2022-12-09T14:28:46Z</time>
      </trkpt>
      <trkpt lat="49.86999" lon="2.19462">
        <ele>86.5</ele>
        <time>2022-12-09T14:28:47Z</time>
      </trkpt>
      <trkpt lat="49.86999" lon="2.19462">
        <ele>86.5</ele>
        <time>2022-12-09T14:28:48Z</time>
      </trkpt>
      <trkpt lat="49.86999" lon="2.19462">
        <ele>86.5</ele>
        <time>2022-12-09T14:28:49Z</time>
      </trkpt>
      <trkpt lat="49.86999" lon="2.19462">
        <ele>86.5</ele>
        <time>2022-12-09T14:28:50Z</time>
      </trkpt>
      <trkpt lat="49.86999" lon="2.19462">
        <ele>86.5</ele>
        <time>2022-12-09T14:28:51Z</time>
      </trkpt>
      <trkpt lat="49.86999" lon="2.19462">
        <ele>86.5</ele>
        <time>2022-12-09T14:28:52Z</time>
      </trkpt>
      <trkpt lat="49.86999" lon="2.19462">
        <ele>86.5</ele>
        <time>2022-12-09T14:28:53Z</time>
      </trkpt>
      <trkpt lat="49.86999" lon="2.19462">
        <ele>86.5</ele>
        <time>2022-12-09T14:28:54Z</time>
      </trkpt>
      <trkpt lat="49.86999" lon="2.19462">
        <ele>86.5</ele>
        <time>2022-12-09T14:28:55Z</time>
      </trkpt>
      <trkpt lat="49.86999" lon="2.19462">
        <ele>86.5</ele>
        <time>2022-12-09T14:28:56Z</time>
      </trkpt>
      <trkpt lat="49.86999" lon="2.19462">
        <ele>86.5</ele>
        <time>2022-12-09T14:28:57Z</time>
      </trkpt>
      <trkpt lat="49.86999" lon="2.19462">
        <ele>86.5</ele>
        <time>2022-12-09T14:28:58Z</time>
      </trkpt>
      <trkpt lat="49.86999" lon="2.19462">
        <ele>86.5</ele>
        <time>2022-12-09T14:28:59Z</time>
      </trkpt>
      <trkpt lat="49.86999" lon="2.19462">
        <ele>86.5</ele>
        <time>2022-12-09T14:29:00Z</time>
      </trkpt>
      <trkpt lat="49.86999" lon="2.19462">
        <ele>86.5</ele>
        <time>2022-12-09T14:29:01Z</time>
      </trkpt>
      <trkpt lat="49.86999" lon="2.19462">
        <ele>86.5</ele>
        <time>2022-12-09T14:29:02Z</time>
      </trkpt>
      <trkpt lat="49.86999" lon="2.19462">
        <ele>86.5</ele>
        <time>2022-12-09T14:29:03Z</time>
      </trkpt>
      <trkpt lat="49.86999" lon="2.19462">
        <ele>86.5</ele>
        <time>2022-12-09T14:29:04Z</time>
      </trkpt>
      <trkpt lat="49.86999" lon="2.19462">
        <ele>86.5</ele>
        <time>2022-12-09T14:29:05Z</time>
      </trkpt>
      <trkpt lat="49.86999" lon="2.19462">
        <ele>86.5</ele>
        <time>2022-12-09T14:29:06Z</time>
      </trkpt>
      <trkpt lat="49.86999" lon="2.19462">
        <ele>86.5</ele>
        <time>2022-12-09T14:29:07Z</time>
      </trkpt>
      <trkpt lat="49.86999" lon="2.19462">
        <ele>86.5</ele>
        <time>2022-12-09T14:29:08Z</time>
      </trkpt>
      <trkpt lat="49.86999" lon="2.19462">
        <ele>86.5</ele>
        <time>2022-12-09T14:29:09Z</time>
      </trkpt>
      <trkpt lat="49.86999" lon="2.19462">
        <ele>86.5</ele>
        <time>2022-12-09T14:29:10Z</time>
      </trkpt>
      <trkpt lat="49.86999" lon="2.19462">
        <ele>86.5</ele>
        <time>2022-12-09T14:29:11Z</time>
      </trkpt>
      <trkpt lat="49.86999" lon="2.19462">
        <ele>86.5</ele>
        <time>2022-12-09T14:29:12Z</time>
      </trkpt>
      <trkpt lat="49.86999" lon="2.19462">
        <ele>86.5</ele>
        <time>2022-12-09T14:29:13Z</time>
      </trkpt>
      <trkpt lat="49.86999" lon="2.19462">
        <ele>86.5</ele>
        <time>2022-12-09T14:29:14Z</time>
      </trkpt>
      <trkpt lat="49.86999" lon="2.19462">
        <ele>86.5</ele>
        <time>2022-12-09T14:29:15Z</time>
      </trkpt>
      <trkpt lat="49.86999" lon="2.19462">
        <ele>86.5</ele>
        <time>2022-12-09T14:29:16Z</time>
      </trkpt>
      <trkpt lat="49.86999" lon="2.19462">
        <ele>86.5</ele>
        <time>2022-12-09T14:29:17Z</time>
      </trkpt>
      <trkpt lat="49.86999" lon="2.19462">
        <ele>86.5</ele>
        <time>2022-12-09T14:29:18Z</time>
      </trkpt>
      <trkpt lat="49.86999" lon="2.19462">
        <ele>86.5</ele>
        <time>2022-12-09T14:29:19Z</time>
      </trkpt>
      <trkpt lat="49.86999" lon="2.19462">
        <ele>86.5</ele>
        <time>2022-12-09T14:29:20Z</time>
      </trkpt>
      <trkpt lat="49.86999" lon="2.19462">
        <ele>86.5</ele>
        <time>2022-12-09T14:29:21Z</time>
      </trkpt>
      <trkpt lat="49.86999" lon="2.19462">
        <ele>86.5</ele>
        <time>2022-12-09T14:29:22Z</time>
      </trkpt>
      <trkpt lat="49.86999" lon="2.19462">
        <ele>86.5</ele>
        <time>2022-12-09T14:29:23Z</time>
      </trkpt>
      <trkpt lat="49.86999" lon="2.19462">
        <ele>86.5</ele>
        <time>2022-12-09T14:29:24Z</time>
      </trkpt>
      <trkpt lat="49.86999" lon="2.19462">
        <ele>86.5</ele>
        <time>2022-12-09T14:29:25Z</time>
      </trkpt>
      <trkpt lat="49.86999" lon="2.19462">
        <ele>86.5</ele>
        <time>2022-12-09T14:29:26Z</time>
      </trkpt>
      <trkpt lat="49.86999" lon="2.19462">
        <ele>86.5</ele>
        <time>2022-12-09T14:29:27Z</time>
      </trkpt>
      <trkpt lat="49.86999" lon="2.19462">
        <ele>86.5</ele>
        <time>2022-12-09T14:29:28Z</time>
      </trkpt>
      <trkpt lat="49.86999" lon="2.19462">
        <ele>86.5</ele>
        <time>2022-12-09T14:29:29Z</time>
      </trkpt>
      <trkpt lat="49.86999" lon="2.19462">
        <ele>86.5</ele>
        <time>2022-12-09T14:29:30Z</time>
      </trkpt>
      <trkpt lat="49.86999" lon="2.19462">
        <ele>86.5</ele>
        <time>2022-12-09T14:29:31Z</time>
      </trkpt>
      <trkpt lat="49.86999" lon="2.19462">
        <ele>86.5</ele>
        <time>2022-12-09T14:29:32Z</time>
      </trkpt>
      <trkpt lat="49.86999" lon="2.19462">
        <ele>86.5</ele>
        <time>2022-12-09T14:29:33Z</time>
      </trkpt>
      <trkpt lat="49.86999" lon="2.19462">
        <ele>86.5</ele>
        <time>2022-12-09T14:29:34Z</time>
      </trkpt>
      <trkpt lat="49.86999" lon="2.19462">
        <ele>86.5</ele>
        <time>2022-12-09T14:29:35Z</time>
      </trkpt>
      <trkpt lat="49.86999" lon="2.19462">
        <ele>86.5</ele>
        <time>2022-12-09T14:29:36Z</time>
      </trkpt>
      <trkpt lat="49.86999" lon="2.19462">
        <ele>86.5</ele>
        <time>2022-12-09T14:29:37Z</time>
      </trkpt>
      <trkpt lat="49.86999" lon="2.19462">
        <ele>86.5</ele>
        <time>2022-12-09T14:29:38Z</time>
      </trkpt>
      <trkpt lat="49.86999" lon="2.19462">
        <ele>86.5</ele>
        <time>2022-12-09T14:29:39Z</time>
      </trkpt>
      <trkpt lat="49.86999" lon="2.19462">
        <ele>86.5</ele>
        <time>2022-12-09T14:29:40Z</time>
      </trkpt>
      <trkpt lat="49.86999" lon="2.19462">
        <ele>86.5</ele>
        <time>2022-12-09T14:29:41Z</time>
      </trkpt>
      <trkpt lat="49.86999" lon="2.19462">
        <ele>86.5</ele>
        <time>2022-12-09T14:29:42Z</time>
      </trkpt>
      <trkpt lat="49.86999" lon="2.19462">
        <ele>86.5</ele>
        <time>2022-12-09T14:29:43Z</time>
      </trkpt>
      <trkpt lat="49.86999" lon="2.19462">
        <ele>86.5</ele>
        <time>2022-12-09T14:29:44Z</time>
      </trkpt>
      <trkpt lat="49.86999" lon="2.19462">
        <ele>86.5</ele>
        <time>2022-12-09T14:29:45Z</time>
      </trkpt>
      <trkpt lat="49.86999" lon="2.19462">
        <ele>86.5</ele>
        <time>2022-12-09T14:29:46Z</time>
      </trkpt>
      <trkpt lat="49.86999" lon="2.19462">
        <ele>86.5</ele>
        <time>2022-12-09T14:29:47Z</time>
      </trkpt>
      <trkpt lat="49.86999" lon="2.19462">
        <ele>86.5</ele>
        <time>2022-12-09T14:29:48Z</time>
      </trkpt>
      <trkpt lat="49.86999" lon="2.19462">
        <ele>86.5</ele>
        <time>2022-12-09T14:29:49Z</time>
      </trkpt>
      <trkpt lat="49.86999" lon="2.19462">
        <ele>86.5</ele>
        <time>2022-12-09T14:29:50Z</time>
      </trkpt>
      <trkpt lat="49.86999" lon="2.19462">
        <ele>86.5</ele>
        <time>2022-12-09T14:29:51Z</time>
      </trkpt>
      <trkpt lat="49.86999" lon="2.19462">
        <ele>86.5</ele>
        <time>2022-12-09T14:29:52Z</time>
      </trkpt>
      <trkpt lat="49.86999" lon="2.19462">
        <ele>86.5</ele>
        <time>2022-12-09T14:29:53Z</time>
      </trkpt>
      <trkpt lat="49.86999" lon="2.19462">
        <ele>86.5</ele>
        <time>2022-12-09T14:29:54Z</time>
      </trkpt>
      <trkpt lat="49.86999" lon="2.19462">
        <ele>86.5</ele>
        <time>2022-12-09T14:29:55Z</time>
      </trkpt>
      <trkpt lat="49.86999" lon="2.19462">
        <ele>86.5</ele>
        <time>2022-12-09T14:29:56Z</time>
      </trkpt>
      <trkpt lat="49.86999" lon="2.19462">
        <ele>86.5</ele>
        <time>2022-12-09T14:29:57Z</time>
      </trkpt>
      <trkpt lat="49.86999" lon="2.19462">
        <ele>86.5</ele>
        <time>2022-12-09T14:29:58Z</time>
      </trkpt>
      <trkpt lat="49.86999" lon="2.19462">
        <ele>86.5</ele>
        <time>2022-12-09T14:29:59Z</time>
      </trkpt>
      <trkpt lat="49.86999" lon="2.19462">
        <ele>86.5</ele>
        <time>2022-12-09T14:30:00Z</time>
      </trkpt>
      <trkpt lat="49.86999" lon="2.19462">
        <ele>86.5</ele>
        <time>2022-12-09T14:30:01Z</time>
      </trkpt>
      <trkpt lat="49.86999" lon="2.19462">
        <ele>86.5</ele>
        <time>2022-12-09T14:30:02Z</time>
      </trkpt>
      <trkpt lat="49.86999" lon="2.19462">
        <ele>86.5</ele>
        <time>2022-12-09T14:30:03Z</time>
      </trkpt>
      <trkpt lat="49.86999" lon="2.19462">
        <ele>86.5</ele>
        <time>2022-12-09T14:30:04Z</time>
      </trkpt>
      <trkpt lat="49.86999" lon="2.19462">
        <ele>86.5</ele>
        <time>2022-12-09T14:30:05Z</time>
      </trkpt>
      <trkpt lat="49.86999" lon="2.19462">
        <ele>86.5</ele>
        <time>2022-12-09T14:30:06Z</time>
      </trkpt>
      <trkpt lat="49.86999" lon="2.19462">
        <ele>86.5</ele>
        <time>2022-12-09T14:30:07Z</time>
      </trkpt>
      <trkpt lat="49.86999" lon="2.19462">
        <ele>86.5</ele>
        <time>2022-12-09T14:30:08Z</time>
      </trkpt>
      <trkpt lat="49.86999" lon="2.19462">
        <ele>86.5</ele>
        <time>2022-12-09T14:30:09Z</time>
      </trkpt>
      <trkpt lat="49.86999" lon="2.19462">
        <ele>86.5</ele>
        <time>2022-12-09T14:30:10Z</time>
      </trkpt>
      <trkpt lat="49.86999" lon="2.19462">
        <ele>86.5</ele>
        <time>2022-12-09T14:30:11Z</time>
      </trkpt>
      <trkpt lat="49.86999" lon="2.19462">
        <ele>86.5</ele>
        <time>2022-12-09T14:30:12Z</time>
      </trkpt>
      <trkpt lat="49.86999" lon="2.19462">
        <ele>86.5</ele>
        <time>2022-12-09T14:30:13Z</time>
      </trkpt>
      <trkpt lat="49.86999" lon="2.19462">
        <ele>86.5</ele>
        <time>2022-12-09T14:30:14Z</time>
      </trkpt>
      <trkpt lat="49.86999" lon="2.19462">
        <ele>86.5</ele>
        <time>2022-12-09T14:30:15Z</time>
      </trkpt>
      <trkpt lat="49.86999" lon="2.19462">
        <ele>86.5</ele>
        <time>2022-12-09T14:30:16Z</time>
      </trkpt>
      <trkpt lat="49.86999" lon="2.19462">
        <ele>86.5</ele>
        <time>2022-12-09T14:30:17Z</time>
      </trkpt>
      <trkpt lat="49.86999" lon="2.19462">
        <ele>86.5</ele>
        <time>2022-12-09T14:30:18Z</time>
      </trkpt>
      <trkpt lat="49.86999" lon="2.19462">
        <ele>86.5</ele>
        <time>2022-12-09T14:30:19Z</time>
      </trkpt>
      <trkpt lat="49.86999" lon="2.19462">
        <ele>86.5</ele>
        <time>2022-12-09T14:30:20Z</time>
      </trkpt>
      <trkpt lat="49.86999" lon="2.19462">
        <ele>86.5</ele>
        <time>2022-12-09T14:30:21Z</time>
      </trkpt>
      <trkpt lat="49.86999" lon="2.19462">
        <ele>86.5</ele>
        <time>2022-12-09T14:30:22Z</time>
      </trkpt>
      <trkpt lat="49.86999" lon="2.19462">
        <ele>86.5</ele>
        <time>2022-12-09T14:30:23Z</time>
      </trkpt>
      <trkpt lat="49.86999" lon="2.19462">
        <ele>86.5</ele>
        <time>2022-12-09T14:30:24Z</time>
      </trkpt>
      <trkpt lat="49.86999" lon="2.19462">
        <ele>86.5</ele>
        <time>2022-12-09T14:30:25Z</time>
      </trkpt>
      <trkpt lat="49.86999" lon="2.19462">
        <ele>86.5</ele>
        <time>2022-12-09T14:30:26Z</time>
      </trkpt>
      <trkpt lat="49.86999" lon="2.19462">
        <ele>86.5</ele>
        <time>2022-12-09T14:30:27Z</time>
      </trkpt>
      <trkpt lat="49.86999" lon="2.19462">
        <ele>86.5</ele>
        <time>2022-12-09T14:30:28Z</time>
      </trkpt>
      <trkpt lat="49.86999" lon="2.19462">
        <ele>86.5</ele>
        <time>2022-12-09T14:30:29Z</time>
      </trkpt>
      <trkpt lat="49.86999" lon="2.19462">
        <ele>86.5</ele>
        <time>2022-12-09T14:30:30Z</time>
      </trkpt>
      <trkpt lat="49.86999" lon="2.19463">
        <ele>86.4</ele>
        <time>2022-12-09T14:30:31Z</time>
      </trkpt>
      <trkpt lat="49.87" lon="2.19464">
        <ele>86.4</ele>
        <time>2022-12-09T14:30:32Z</time>
      </trkpt>
      <trkpt lat="49.87" lon="2.19464">
        <ele>86.4</ele>
        <time>2022-12-09T14:30:33Z</time>
      </trkpt>
      <trkpt lat="49.87" lon="2.19465">
        <ele>86.4</ele>
        <time>2022-12-09T14:30:34Z</time>
      </trkpt>
      <trkpt lat="49.87001" lon="2.19466">
        <ele>86.4</ele>
        <time>2022-12-09T14:30:36Z</time>
      </trkpt>
      <trkpt lat="49.87001" lon="2.19467">
        <ele>86.4</ele>
        <time>2022-12-09T14:30:37Z</time>
      </trkpt>
      <trkpt lat="49.87002" lon="2.19468">
        <ele>86.4</ele>
        <time>2022-12-09T14:30:38Z</time>
      </trkpt>
      <trkpt lat="49.87003" lon="2.1947">
        <ele>86.3</ele>
        <time>2022-12-09T14:30:39Z</time>
      </trkpt>
      <trkpt lat="49.87004" lon="2.19471">
        <ele>86.3</ele>
        <time>2022-12-09T14:30:40Z</time>
      </trkpt>
      <trkpt lat="49.87005" lon="2.19473">
        <ele>86.3</ele>
        <time>2022-12-09T14:30:42Z</time>
      </trkpt>
      <trkpt lat="49.87006" lon="2.19474">
        <ele>86.3</ele>
        <time>2022-12-09T14:30:43Z</time>
      </trkpt>
      <trkpt lat="49.87006" lon="2.19475">
        <ele>86.2</ele>
        <time>2022-12-09T14:30:44Z</time>
      </trkpt>
      <trkpt lat="49.87007" lon="2.19476">
        <ele>86.2</ele>
        <time>2022-12-09T14:30:45Z</time>
      </trkpt>
      <trkpt lat="49.87007" lon="2.19477">
        <ele>86.2</ele>
        <time>2022-12-09T14:30:46Z</time>
      </trkpt>
      <trkpt lat="49.87008" lon="2.19478">
        <ele>86.2</ele>
        <time>2022-12-09T14:30:47Z</time>
      </trkpt>
      <trkpt lat="49.87009" lon="2.1948">
        <ele>86.1</ele>
        <time>2022-12-09T14:30:49Z</time>
      </trkpt>
      <trkpt lat="49.8701" lon="2.19481">
        <ele>86.1</ele>
        <time>2022-12-09T14:30:50Z</time>
      </trkpt>
      <trkpt lat="49.87011" lon="2.19482">
        <ele>86.1</ele>
        <time>2022-12-09T14:30:51Z</time>
      </trkpt>
      <trkpt lat="49.87011" lon="2.19483">
        <ele>86.1</ele>
        <time>2022-12-09T14:30:53Z</time>
      </trkpt>
      <trkpt lat="49.87012" lon="2.19484">
        <ele>86.1</ele>
        <time>2022-12-09T14:30:54Z</time>
      </trkpt>
      <trkpt lat="49.87013" lon="2.19485">
        <ele>86</ele>
        <time>2022-12-09T14:30:55Z</time>
      </trkpt>
      <trkpt lat="49.87013" lon="2.19486">
        <ele>86</ele>
        <time>2022-12-09T14:30:56Z</time>
      </trkpt>
      <trkpt lat="49.87014" lon="2.19487">
        <ele>86</ele>
        <time>2022-12-09T14:30:57Z</time>
      </trkpt>
      <trkpt lat="49.87015" lon="2.19488">
        <ele>86</ele>
        <time>2022-12-09T14:30:58Z</time>
      </trkpt>
      <trkpt lat="49.87015" lon="2.19489">
        <ele>85.9</ele>
        <time>2022-12-09T14:31:00Z</time>
      </trkpt>
      <trkpt lat="49.87016" lon="2.1949">
        <ele>85.9</ele>
        <time>2022-12-09T14:31:01Z</time>
      </trkpt>
      <trkpt lat="49.87016" lon="2.19491">
        <ele>85.9</ele>
        <time>2022-12-09T14:31:02Z</time>
      </trkpt>
      <trkpt lat="49.87017" lon="2.19493">
        <ele>85.9</ele>
        <time>2022-12-09T14:31:03Z</time>
      </trkpt>
      <trkpt lat="49.87018" lon="2.19494">
        <ele>85.8</ele>
        <time>2022-12-09T14:31:04Z</time>
      </trkpt>
      <trkpt lat="49.87018" lon="2.19495">
        <ele>85.8</ele>
        <time>2022-12-09T14:31:05Z</time>
      </trkpt>
      <trkpt lat="49.87019" lon="2.19496">
        <ele>85.8</ele>
        <time>2022-12-09T14:31:06Z</time>
      </trkpt>
      <trkpt lat="49.8702" lon="2.19498">
        <ele>85.8</ele>
        <time>2022-12-09T14:31:07Z</time>
      </trkpt>
      <trkpt lat="49.87021" lon="2.195">
        <ele>85.7</ele>
        <time>2022-12-09T14:31:08Z</time>
      </trkpt>
      <trkpt lat="49.87022" lon="2.19502">
        <ele>85.7</ele>
        <time>2022-12-09T14:31:10Z</time>
      </trkpt>
      <trkpt lat="49.87023" lon="2.19504">
        <ele>85.6</ele>
        <time>2022-12-09T14:31:11Z</time>
      </trkpt>
      <trkpt lat="49.87023" lon="2.19505">
        <ele>85.6</ele>
        <time>2022-12-09T14:31:12Z</time>
      </trkpt>
      <trkpt lat="49.87024" lon="2.19506">
        <ele>85.6</ele>
        <time>2022-12-09T14:31:13Z</time>
      </trkpt>
      <trkpt lat="49.87025" lon="2.19507">
        <ele>85.6</ele>
        <time>2022-12-09T14:31:14Z</time>
      </trkpt>
      <trkpt lat="49.87025" lon="2.19508">
        <ele>85.6</ele>
        <time>2022-12-09T14:31:15Z</time>
      </trkpt>
      <trkpt lat="49.87026" lon="2.19509">
        <ele>85.5</ele>
        <time>2022-12-09T14:31:16Z</time>
      </trkpt>
      <trkpt lat="49.87026" lon="2.1951">
        <ele>85.5</ele>
        <time>2022-12-09T14:31:17Z</time>
      </trkpt>
      <trkpt lat="49.87027" lon="2.19512">
        <ele>85.5</ele>
        <time>2022-12-09T14:31:19Z</time>
      </trkpt>
      <trkpt lat="49.87027" lon="2.19513">
        <ele>85.5</ele>
        <time>2022-12-09T14:31:20Z</time>
      </trkpt>
      <trkpt lat="49.87028" lon="2.19514">
        <ele>85.4</ele>
        <time>2022-12-09T14:31:21Z</time>
      </trkpt>
      <trkpt lat="49.8703" lon="2.19516">
        <ele>85.4</ele>
        <time>2022-12-09T14:31:22Z</time>
      </trkpt>
      <trkpt lat="49.87031" lon="2.19517">
        <ele>85.3</ele>
        <time>2022-12-09T14:31:23Z</time>
      </trkpt>
      <trkpt lat="49.87031" lon="2.19518">
        <ele>85.3</ele>
        <time>2022-12-09T14:31:24Z</time>
      </trkpt>
      <trkpt lat="49.87032" lon="2.1952">
        <ele>85.3</ele>
        <time>2022-12-09T14:31:25Z</time>
      </trkpt>
      <trkpt lat="49.87033" lon="2.19521">
        <ele>85.2</ele>
        <time>2022-12-09T14:31:26Z</time>
      </trkpt>
      <trkpt lat="49.87034" lon="2.19523">
        <ele>85.2</ele>
        <time>2022-12-09T14:31:27Z</time>
      </trkpt>
      <trkpt lat="49.87036" lon="2.19525">
        <ele>85.1</ele>
        <time>2022-12-09T14:31:28Z</time>
      </trkpt>
      <trkpt lat="49.87037" lon="2.19528">
        <ele>85.1</ele>
        <time>2022-12-09T14:31:29Z</time>
      </trkpt>
      <trkpt lat="49.87037" lon="2.19529">
        <ele>85</ele>
        <time>2022-12-09T14:31:31Z</time>
      </trkpt>
      <trkpt lat="49.87038" lon="2.19531">
        <ele>85</ele>
        <time>2022-12-09T14:31:32Z</time>
      </trkpt>
      <trkpt lat="49.87039" lon="2.19532">
        <ele>84.9</ele>
        <time>2022-12-09T14:31:33Z</time>
      </trkpt>
      <trkpt lat="49.8704" lon="2.19534">
        <ele>84.9</ele>
        <time>2022-12-09T14:31:34Z</time>
      </trkpt>
      <trkpt lat="49.8704" lon="2.19534">
        <ele>84.9</ele>
        <time>2022-12-09T14:31:35Z</time>
      </trkpt>
      <trkpt lat="49.87041" lon="2.19535">
        <ele>84.9</ele>
        <time>2022-12-09T14:31:37Z</time>
      </trkpt>
      <trkpt lat="49.87041" lon="2.19536">
        <ele>84.8</ele>
        <time>2022-12-09T14:31:38Z</time>
      </trkpt>
      <trkpt lat="49.87041" lon="2.19537">
        <ele>84.8</ele>
        <time>2022-12-09T14:31:39Z</time>
      </trkpt>
      <trkpt lat="49.87042" lon="2.19538">
        <ele>84.8</ele>
        <time>2022-12-09T14:31:40Z</time>
      </trkpt>
      <trkpt lat="49.87042" lon="2.19539">
        <ele>84.8</ele>
        <time>2022-12-09T14:31:41Z</time>
      </trkpt>
      <trkpt lat="49.87043" lon="2.1954">
        <ele>84.7</ele>
        <time>2022-12-09T14:31:42Z</time>
      </trkpt>
      <trkpt lat="49.87044" lon="2.19542">
        <ele>84.7</ele>
        <time>2022-12-09T14:31:44Z</time>
      </trkpt>
      <trkpt lat="49.87045" lon="2.19546">
        <ele>84.6</ele>
        <time>2022-12-09T14:31:45Z</time>
      </trkpt>
      <trkpt lat="49.87046" lon="2.19548">
        <ele>84.5</ele>
        <time>2022-12-09T14:31:46Z</time>
      </trkpt>
      <trkpt lat="49.87047" lon="2.19551">
        <ele>84.5</ele>
        <time>2022-12-09T14:31:47Z</time>
      </trkpt>
      <trkpt lat="49.87048" lon="2.19552">
        <ele>84.4</ele>
        <time>2022-12-09T14:31:48Z</time>
      </trkpt>
      <trkpt lat="49.87048" lon="2.19553">
        <ele>84.4</ele>
        <time>2022-12-09T14:31:49Z</time>
      </trkpt>
      <trkpt lat="49.87048" lon="2.19554">
        <ele>84.4</ele>
        <time>2022-12-09T14:31:50Z</time>
      </trkpt>
      <trkpt lat="49.87048" lon="2.19554">
        <ele>84.4</ele>
        <time>2022-12-09T14:31:52Z</time>
      </trkpt>
      <trkpt lat="49.87049" lon="2.19556">
        <ele>84.4</ele>
        <time>2022-12-09T14:31:53Z</time>
      </trkpt>
      <trkpt lat="49.87049" lon="2.19557">
        <ele>84.3</ele>
        <time>2022-12-09T14:31:54Z</time>
      </trkpt>
      <trkpt lat="49.8705" lon="2.19558">
        <ele>84.3</ele>
        <time>2022-12-09T14:31:55Z</time>
      </trkpt>
      <trkpt lat="49.8705" lon="2.1956">
        <ele>84.3</ele>
        <time>2022-12-09T14:31:56Z</time>
      </trkpt>
      <trkpt lat="49.87051" lon="2.19561">
        <ele>84.2</ele>
        <time>2022-12-09T14:31:57Z</time>
      </trkpt>
      <trkpt lat="49.87052" lon="2.19565">
        <ele>84.1</ele>
        <time>2022-12-09T14:31:58Z</time>
      </trkpt>
      <trkpt lat="49.87053" lon="2.19566">
        <ele>84.1</ele>
        <time>2022-12-09T14:31:59Z</time>
      </trkpt>
      <trkpt lat="49.87055" lon="2.1957">
        <ele>84</ele>
        <time>2022-12-09T14:32:00Z</time>
      </trkpt>
      <trkpt lat="49.87056" lon="2.19572">
        <ele>83.9</ele>
        <time>2022-12-09T14:32:02Z</time>
      </trkpt>
      <trkpt lat="49.87056" lon="2.19574">
        <ele>83.9</ele>
        <time>2022-12-09T14:32:03Z</time>
      </trkpt>
      <trkpt lat="49.87057" lon="2.19576">
        <ele>83.9</ele>
        <time>2022-12-09T14:32:04Z</time>
      </trkpt>
      <trkpt lat="49.87058" lon="2.19577">
        <ele>83.8</ele>
        <time>2022-12-09T14:32:05Z</time>
      </trkpt>
      <trkpt lat="49.87058" lon="2.19579">
        <ele>83.8</ele>
        <time>2022-12-09T14:32:06Z</time>
      </trkpt>
      <trkpt lat="49.87059" lon="2.1958">
        <ele>83.7</ele>
        <time>2022-12-09T14:32:07Z</time>
      </trkpt>
      <trkpt lat="49.8706" lon="2.19583">
        <ele>83.7</ele>
        <time>2022-12-09T14:32:08Z</time>
      </trkpt>
      <trkpt lat="49.87062" lon="2.19587">
        <ele>83.6</ele>
        <time>2022-12-09T14:32:09Z</time>
      </trkpt>
      <trkpt lat="49.87062" lon="2.19588">
        <ele>83.6</ele>
        <time>2022-12-09T14:32:10Z</time>
      </trkpt>
      <trkpt lat="49.87063" lon="2.19591">
        <ele>83.5</ele>
        <time>2022-12-09T14:32:11Z</time>
      </trkpt>
      <trkpt lat="49.87064" lon="2.19594">
        <ele>83.4</ele>
        <time>2022-12-09T14:32:13Z</time>
      </trkpt>
      <trkpt lat="49.87066" lon="2.19598">
        <ele>83.4</ele>
        <time>2022-12-09T14:32:14Z</time>
      </trkpt>
      <trkpt lat="49.87067" lon="2.19599">
        <ele>83.3</ele>
        <time>2022-12-09T14:32:15Z</time>
      </trkpt>
      <trkpt lat="49.87068" lon="2.19601">
        <ele>83.3</ele>
        <time>2022-12-09T14:32:16Z</time>
      </trkpt>
      <trkpt lat="49.87069" lon="2.19603">
        <ele>83.2</ele>
        <time>2022-12-09T14:32:17Z</time>
      </trkpt>
      <trkpt lat="49.87069" lon="2.19604">
        <ele>83.2</ele>
        <time>2022-12-09T14:32:18Z</time>
      </trkpt>
      <trkpt lat="49.8707" lon="2.19606">
        <ele>83.1</ele>
        <time>2022-12-09T14:32:19Z</time>
      </trkpt>
      <trkpt lat="49.87071" lon="2.19608">
        <ele>83.1</ele>
        <time>2022-12-09T14:32:20Z</time>
      </trkpt>
      <trkpt lat="49.87072" lon="2.1961">
        <ele>83.1</ele>
        <time>2022-12-09T14:32:21Z</time>
      </trkpt>
      <trkpt lat="49.87073" lon="2.19613">
        <ele>83</ele>
        <time>2022-12-09T14:32:22Z</time>
      </trkpt>
      <trkpt lat="49.87073" lon="2.19614">
        <ele>83</ele>
        <time>2022-12-09T14:32:23Z</time>
      </trkpt>
      <trkpt lat="49.87074" lon="2.19616">
        <ele>82.9</ele>
        <time>2022-12-09T14:32:24Z</time>
      </trkpt>
      <trkpt lat="49.87075" lon="2.19618">
        <ele>82.9</ele>
        <time>2022-12-09T14:32:26Z</time>
      </trkpt>
      <trkpt lat="49.87075" lon="2.1962">
        <ele>82.9</ele>
        <time>2022-12-09T14:32:27Z</time>
      </trkpt>
      <trkpt lat="49.87076" lon="2.19621">
        <ele>82.8</ele>
        <time>2022-12-09T14:32:28Z</time>
      </trkpt>
      <trkpt lat="49.87076" lon="2.19622">
        <ele>82.8</ele>
        <time>2022-12-09T14:32:29Z</time>
      </trkpt>
      <trkpt lat="49.87077" lon="2.19623">
        <ele>82.8</ele>
        <time>2022-12-09T14:32:30Z</time>
      </trkpt>
      <trkpt lat="49.87078" lon="2.19625">
        <ele>82.8</ele>
        <time>2022-12-09T14:32:31Z</time>
      </trkpt>
      <trkpt lat="49.87079" lon="2.19627">
        <ele>82.7</ele>
        <time>2022-12-09T14:32:33Z</time>
      </trkpt>
      <trkpt lat="49.87079" lon="2.19629">
        <ele>82.7</ele>
        <time>2022-12-09T14:32:34Z</time>
      </trkpt>
      <trkpt lat="49.8708" lon="2.1963">
        <ele>82.7</ele>
        <time>2022-12-09T14:32:35Z</time>
      </trkpt>
      <trkpt lat="49.8708" lon="2.19633">
        <ele>82.6</ele>
        <time>2022-12-09T14:32:36Z</time>
      </trkpt>
      <trkpt lat="49.87081" lon="2.19634">
        <ele>82.6</ele>
        <time>2022-12-09T14:32:37Z</time>
      </trkpt>
      <trkpt lat="49.87081" lon="2.19635">
        <ele>82.6</ele>
        <time>2022-12-09T14:32:38Z</time>
      </trkpt>
      <trkpt lat="49.87082" lon="2.19638">
        <ele>82.6</ele>
        <time>2022-12-09T14:32:39Z</time>
      </trkpt>
      <trkpt lat="49.87082" lon="2.19639">
        <ele>82.6</ele>
        <time>2022-12-09T14:32:40Z</time>
      </trkpt>
      <trkpt lat="49.87082" lon="2.1964">
        <ele>82.6</ele>
        <time>2022-12-09T14:32:41Z</time>
      </trkpt>
      <trkpt lat="49.87083" lon="2.19644">
        <ele>82.5</ele>
        <time>2022-12-09T14:32:42Z</time>
      </trkpt>
      <trkpt lat="49.87083" lon="2.19645">
        <ele>82.5</ele>
        <time>2022-12-09T14:32:43Z</time>
      </trkpt>
      <trkpt lat="49.87084" lon="2.19646">
        <ele>82.5</ele>
        <time>2022-12-09T14:32:44Z</time>
      </trkpt>
      <trkpt lat="49.87084" lon="2.19649">
        <ele>82.5</ele>
        <time>2022-12-09T14:32:46Z</time>
      </trkpt>
      <trkpt lat="49.87085" lon="2.19651">
        <ele>82.5</ele>
        <time>2022-12-09T14:32:47Z</time>
      </trkpt>
      <trkpt lat="49.87086" lon="2.19654">
        <ele>82.4</ele>
        <time>2022-12-09T14:32:48Z</time>
      </trkpt>
      <trkpt lat="49.87086" lon="2.19655">
        <ele>82.4</ele>
        <time>2022-12-09T14:32:49Z</time>
      </trkpt>
      <trkpt lat="49.87086" lon="2.19656">
        <ele>82.4</ele>
        <time>2022-12-09T14:32:50Z</time>
      </trkpt>
      <trkpt lat="49.87087" lon="2.19659">
        <ele>82.4</ele>
        <time>2022-12-09T14:32:51Z</time>
      </trkpt>
      <trkpt lat="49.87087" lon="2.19661">
        <ele>82.4</ele>
        <time>2022-12-09T14:32:52Z</time>
      </trkpt>
      <trkpt lat="49.87088" lon="2.19664">
        <ele>82.3</ele>
        <time>2022-12-09T14:32:53Z</time>
      </trkpt>
      <trkpt lat="49.87089" lon="2.19666">
        <ele>82.3</ele>
        <time>2022-12-09T14:32:55Z</time>
      </trkpt>
      <trkpt lat="49.87089" lon="2.19668">
        <ele>82.3</ele>
        <time>2022-12-09T14:32:56Z</time>
      </trkpt>
      <trkpt lat="49.87089" lon="2.19669">
        <ele>82.3</ele>
        <time>2022-12-09T14:32:57Z</time>
      </trkpt>
      <trkpt lat="49.8709" lon="2.19671">
        <ele>82.3</ele>
        <time>2022-12-09T14:32:58Z</time>
      </trkpt>
      <trkpt lat="49.87091" lon="2.19674">
        <ele>82.2</ele>
        <time>2022-12-09T14:32:59Z</time>
      </trkpt>
      <trkpt lat="49.87091" lon="2.19675">
        <ele>82.2</ele>
        <time>2022-12-09T14:33:00Z</time>
      </trkpt>
      <trkpt lat="49.87092" lon="2.19676">
        <ele>82.2</ele>
        <time>2022-12-09T14:33:01Z</time>
      </trkpt>
      <trkpt lat="49.87093" lon="2.19678">
        <ele>82.2</ele>
        <time>2022-12-09T14:33:02Z</time>
      </trkpt>
      <trkpt lat="49.87094" lon="2.19679">
        <ele>82.2</ele>
        <time>2022-12-09T14:33:03Z</time>
      </trkpt>
      <trkpt lat="49.87094" lon="2.1968">
        <ele>82.2</ele>
        <time>2022-12-09T14:33:04Z</time>
      </trkpt>
      <trkpt lat="49.87095" lon="2.19682">
        <ele>82.1</ele>
        <time>2022-12-09T14:33:05Z</time>
      </trkpt>
      <trkpt lat="49.87096" lon="2.19684">
        <ele>82.1</ele>
        <time>2022-12-09T14:33:06Z</time>
      </trkpt>
      <trkpt lat="49.87097" lon="2.19685">
        <ele>82.1</ele>
        <time>2022-12-09T14:33:07Z</time>
      </trkpt>
      <trkpt lat="49.87097" lon="2.19687">
        <ele>82.1</ele>
        <time>2022-12-09T14:33:08Z</time>
      </trkpt>
      <trkpt lat="49.87098" lon="2.19689">
        <ele>82.1</ele>
        <time>2022-12-09T14:33:10Z</time>
      </trkpt>
      <trkpt lat="49.87099" lon="2.19692">
        <ele>82</ele>
        <time>2022-12-09T14:33:11Z</time>
      </trkpt>
      <trkpt lat="49.87099" lon="2.19693">
        <ele>82</ele>
        <time>2022-12-09T14:33:12Z</time>
      </trkpt>
      <trkpt lat="49.871" lon="2.19694">
        <ele>82</ele>
        <time>2022-12-09T14:33:13Z</time>
      </trkpt>
      <trkpt lat="49.871" lon="2.19696">
        <ele>82</ele>
        <time>2022-12-09T14:33:14Z</time>
      </trkpt>
      <trkpt lat="49.87101" lon="2.19697">
        <ele>82</ele>
        <time>2022-12-09T14:33:15Z</time>
      </trkpt>
      <trkpt lat="49.87102" lon="2.19698">
        <ele>82</ele>
        <time>2022-12-09T14:33:16Z</time>
      </trkpt>
      <trkpt lat="49.87103" lon="2.19701">
        <ele>82</ele>
        <time>2022-12-09T14:33:17Z</time>
      </trkpt>
      <trkpt lat="49.87104" lon="2.19702">
        <ele>82</ele>
        <time>2022-12-09T14:33:19Z</time>
      </trkpt>
      <trkpt lat="49.87105" lon="2.19703">
        <ele>81.9</ele>
        <time>2022-12-09T14:33:20Z</time>
      </trkpt>
      <trkpt lat="49.87106" lon="2.19704">
        <ele>81.9</ele>
        <time>2022-12-09T14:33:21Z</time>
      </trkpt>
      <trkpt lat="49.87107" lon="2.19706">
        <ele>81.9</ele>
        <time>2022-12-09T14:33:22Z</time>
      </trkpt>
      <trkpt lat="49.87108" lon="2.19708">
        <ele>81.9</ele>
        <time>2022-12-09T14:33:23Z</time>
      </trkpt>
      <trkpt lat="49.87109" lon="2.19709">
        <ele>81.9</ele>
        <time>2022-12-09T14:33:24Z</time>
      </trkpt>
      <trkpt lat="49.87109" lon="2.1971">
        <ele>81.9</ele>
        <time>2022-12-09T14:33:25Z</time>
      </trkpt>
      <trkpt lat="49.8711" lon="2.19712">
        <ele>81.9</ele>
        <time>2022-12-09T14:33:27Z</time>
      </trkpt>
      <trkpt lat="49.87111" lon="2.19713">
        <ele>81.9</ele>
        <time>2022-12-09T14:33:28Z</time>
      </trkpt>
      <trkpt lat="49.87111" lon="2.19715">
        <ele>81.9</ele>
        <time>2022-12-09T14:33:29Z</time>
      </trkpt>
      <trkpt lat="49.87112" lon="2.19716">
        <ele>81.8</ele>
        <time>2022-12-09T14:33:30Z</time>
      </trkpt>
      <trkpt lat="49.87113" lon="2.19718">
        <ele>81.8</ele>
        <time>2022-12-09T14:33:31Z</time>
      </trkpt>
      <trkpt lat="49.87113" lon="2.19719">
        <ele>81.8</ele>
        <time>2022-12-09T14:33:32Z</time>
      </trkpt>
      <trkpt lat="49.87114" lon="2.19722">
        <ele>81.8</ele>
        <time>2022-12-09T14:33:33Z</time>
      </trkpt>
      <trkpt lat="49.87115" lon="2.19723">
        <ele>81.8</ele>
        <time>2022-12-09T14:33:34Z</time>
      </trkpt>
      <trkpt lat="49.87115" lon="2.19724">
        <ele>81.8</ele>
        <time>2022-12-09T14:33:35Z</time>
      </trkpt>
      <trkpt lat="49.87116" lon="2.19727">
        <ele>81.8</ele>
        <time>2022-12-09T14:33:36Z</time>
      </trkpt>
      <trkpt lat="49.87117" lon="2.19728">
        <ele>81.8</ele>
        <time>2022-12-09T14:33:37Z</time>
      </trkpt>
      <trkpt lat="49.87117" lon="2.19729">
        <ele>81.7</ele>
        <time>2022-12-09T14:33:38Z</time>
      </trkpt>
      <trkpt lat="49.87118" lon="2.19732">
        <ele>81.7</ele>
        <time>2022-12-09T14:33:40Z</time>
      </trkpt>
      <trkpt lat="49.87118" lon="2.19733">
        <ele>81.7</ele>
        <time>2022-12-09T14:33:41Z</time>
      </trkpt>
      <trkpt lat="49.87119" lon="2.19735">
        <ele>81.7</ele>
        <time>2022-12-09T14:33:42Z</time>
      </trkpt>
      <trkpt lat="49.87119" lon="2.19736">
        <ele>81.7</ele>
        <time>2022-12-09T14:33:43Z</time>
      </trkpt>
      <trkpt lat="49.8712" lon="2.19738">
        <ele>81.7</ele>
        <time>2022-12-09T14:33:44Z</time>
      </trkpt>
      <trkpt lat="49.8712" lon="2.19739">
        <ele>81.7</ele>
        <time>2022-12-09T14:33:45Z</time>
      </trkpt>
      <trkpt lat="49.87121" lon="2.19742">
        <ele>81.7</ele>
        <time>2022-12-09T14:33:46Z</time>
      </trkpt>
      <trkpt lat="49.87121" lon="2.19743">
        <ele>81.7</ele>
        <time>2022-12-09T14:33:47Z</time>
      </trkpt>
      <trkpt lat="49.87122" lon="2.19745">
        <ele>81.6</ele>
        <time>2022-12-09T14:33:48Z</time>
      </trkpt>
      <trkpt lat="49.87122" lon="2.19746">
        <ele>81.6</ele>
        <time>2022-12-09T14:33:49Z</time>
      </trkpt>
      <trkpt lat="49.87123" lon="2.19748">
        <ele>81.6</ele>
        <time>2022-12-09T14:33:50Z</time>
      </trkpt>
      <trkpt lat="49.87123" lon="2.1975">
        <ele>81.6</ele>
        <time>2022-12-09T14:33:51Z</time>
      </trkpt>
      <trkpt lat="49.87124" lon="2.19753">
        <ele>81.6</ele>
        <time>2022-12-09T14:33:53Z</time>
      </trkpt>
      <trkpt lat="49.87124" lon="2.19754">
        <ele>81.6</ele>
        <time>2022-12-09T14:33:54Z</time>
      </trkpt>
      <trkpt lat="49.87124" lon="2.19755">
        <ele>81.6</ele>
        <time>2022-12-09T14:33:55Z</time>
      </trkpt>
      <trkpt lat="49.87125" lon="2.19757">
        <ele>81.6</ele>
        <time>2022-12-09T14:33:56Z</time>
      </trkpt>
      <trkpt lat="49.87125" lon="2.19758">
        <ele>81.5</ele>
        <time>2022-12-09T14:33:57Z</time>
      </trkpt>
      <trkpt lat="49.87126" lon="2.1976">
        <ele>81.5</ele>
        <time>2022-12-09T14:33:58Z</time>
      </trkpt>
      <trkpt lat="49.87126" lon="2.19763">
        <ele>81.5</ele>
        <time>2022-12-09T14:33:59Z</time>
      </trkpt>
      <trkpt lat="49.87127" lon="2.19764">
        <ele>81.5</ele>
        <time>2022-12-09T14:34:00Z</time>
      </trkpt>
      <trkpt lat="49.87127" lon="2.19765">
        <ele>81.5</ele>
        <time>2022-12-09T14:34:01Z</time>
      </trkpt>
      <trkpt lat="49.87127" lon="2.19767">
        <ele>81.5</ele>
        <time>2022-12-09T14:34:02Z</time>
      </trkpt>
      <trkpt lat="49.87128" lon="2.19769">
        <ele>81.5</ele>
        <time>2022-12-09T14:34:03Z</time>
      </trkpt>
      <trkpt lat="49.87128" lon="2.1977">
        <ele>81.5</ele>
        <time>2022-12-09T14:34:05Z</time>
      </trkpt>
      <trkpt lat="49.87129" lon="2.19772">
        <ele>81.4</ele>
        <time>2022-12-09T14:34:06Z</time>
      </trkpt>
      <trkpt lat="49.87129" lon="2.19773">
        <ele>81.4</ele>
        <time>2022-12-09T14:34:07Z</time>
      </trkpt>
      <trkpt lat="49.8713" lon="2.19775">
        <ele>81.4</ele>
        <time>2022-12-09T14:34:08Z</time>
      </trkpt>
      <trkpt lat="49.87131" lon="2.19776">
        <ele>81.4</ele>
        <time>2022-12-09T14:34:09Z</time>
      </trkpt>
      <trkpt lat="49.87131" lon="2.19777">
        <ele>81.4</ele>
        <time>2022-12-09T14:34:10Z</time>
      </trkpt>
      <trkpt lat="49.87132" lon="2.19779">
        <ele>81.4</ele>
        <time>2022-12-09T14:34:11Z</time>
      </trkpt>
      <trkpt lat="49.87133" lon="2.19781">
        <ele>81.4</ele>
        <time>2022-12-09T14:34:12Z</time>
      </trkpt>
      <trkpt lat="49.87133" lon="2.19782">
        <ele>81.4</ele>
        <time>2022-12-09T14:34:14Z</time>
      </trkpt>
      <trkpt lat="49.87134" lon="2.19784">
        <ele>81.4</ele>
        <time>2022-12-09T14:34:15Z</time>
      </trkpt>
      <trkpt lat="49.87134" lon="2.19785">
        <ele>81.3</ele>
        <time>2022-12-09T14:34:16Z</time>
      </trkpt>
      <trkpt lat="49.87135" lon="2.19787">
        <ele>81.3</ele>
        <time>2022-12-09T14:34:17Z</time>
      </trkpt>
      <trkpt lat="49.87135" lon="2.19788">
        <ele>81.3</ele>
        <time>2022-12-09T14:34:18Z</time>
      </trkpt>
      <trkpt lat="49.87136" lon="2.1979">
        <ele>81.3</ele>
        <time>2022-12-09T14:34:20Z</time>
      </trkpt>
      <trkpt lat="49.87136" lon="2.19791">
        <ele>81.3</ele>
        <time>2022-12-09T14:34:21Z</time>
      </trkpt>
      <trkpt lat="49.87136" lon="2.19793">
        <ele>81.3</ele>
        <time>2022-12-09T14:34:22Z</time>
      </trkpt>
      <trkpt lat="49.87137" lon="2.19795">
        <ele>81.3</ele>
        <time>2022-12-09T14:34:23Z</time>
      </trkpt>
      <trkpt lat="49.87137" lon="2.19796">
        <ele>81.3</ele>
        <time>2022-12-09T14:34:24Z</time>
      </trkpt>
      <trkpt lat="49.87138" lon="2.19798">
        <ele>81.3</ele>
        <time>2022-12-09T14:34:25Z</time>
      </trkpt>
      <trkpt lat="49.87138" lon="2.19801">
        <ele>81.3</ele>
        <time>2022-12-09T14:34:26Z</time>
      </trkpt>
      <trkpt lat="49.87139" lon="2.19802">
        <ele>81.2</ele>
        <time>2022-12-09T14:34:27Z</time>
      </trkpt>
      <trkpt lat="49.87139" lon="2.19803">
        <ele>81.2</ele>
        <time>2022-12-09T14:34:28Z</time>
      </trkpt>
      <trkpt lat="49.8714" lon="2.19806">
        <ele>81.2</ele>
        <time>2022-12-09T14:34:30Z</time>
      </trkpt>
      <trkpt lat="49.8714" lon="2.19808">
        <ele>81.2</ele>
        <time>2022-12-09T14:34:31Z</time>
      </trkpt>
      <trkpt lat="49.8714" lon="2.19809">
        <ele>81.2</ele>
        <time>2022-12-09T14:34:32Z</time>
      </trkpt>
      <trkpt lat="49.87141" lon="2.19811">
        <ele>81.2</ele>
        <time>2022-12-09T14:34:33Z</time>
      </trkpt>
      <trkpt lat="49.87142" lon="2.19813">
        <ele>81.2</ele>
        <time>2022-12-09T14:34:34Z</time>
      </trkpt>
      <trkpt lat="49.87142" lon="2.19814">
        <ele>81.2</ele>
        <time>2022-12-09T14:34:35Z</time>
      </trkpt>
      <trkpt lat="49.87143" lon="2.19817">
        <ele>81.2</ele>
        <time>2022-12-09T14:34:36Z</time>
      </trkpt>
      <trkpt lat="49.87144" lon="2.19818">
        <ele>81.2</ele>
        <time>2022-12-09T14:34:38Z</time>
      </trkpt>
      <trkpt lat="49.87144" lon="2.19819">
        <ele>81.2</ele>
        <time>2022-12-09T14:34:39Z</time>
      </trkpt>
      <trkpt lat="49.87145" lon="2.19822">
        <ele>81.1</ele>
        <time>2022-12-09T14:34:40Z</time>
      </trkpt>
      <trkpt lat="49.87146" lon="2.19823">
        <ele>81.1</ele>
        <time>2022-12-09T14:34:41Z</time>
      </trkpt>
      <trkpt lat="49.87146" lon="2.19824">
        <ele>81.1</ele>
        <time>2022-12-09T14:34:42Z</time>
      </trkpt>
      <trkpt lat="49.87147" lon="2.19825">
        <ele>81.1</ele>
        <time>2022-12-09T14:34:43Z</time>
      </trkpt>
      <trkpt lat="49.87148" lon="2.19827">
        <ele>81.1</ele>
        <time>2022-12-09T14:34:44Z</time>
      </trkpt>
      <trkpt lat="49.8715" lon="2.1983">
        <ele>81.1</ele>
        <time>2022-12-09T14:34:45Z</time>
      </trkpt>
      <trkpt lat="49.8715" lon="2.19831">
        <ele>81.1</ele>
        <time>2022-12-09T14:34:47Z</time>
      </trkpt>
      <trkpt lat="49.87151" lon="2.19833">
        <ele>81.1</ele>
        <time>2022-12-09T14:34:48Z</time>
      </trkpt>
      <trkpt lat="49.87152" lon="2.19834">
        <ele>81</ele>
        <time>2022-12-09T14:34:49Z</time>
      </trkpt>
      <trkpt lat="49.87152" lon="2.19835">
        <ele>81</ele>
        <time>2022-12-09T14:34:50Z</time>
      </trkpt>
      <trkpt lat="49.87153" lon="2.19836">
        <ele>81</ele>
        <time>2022-12-09T14:34:51Z</time>
      </trkpt>
      <trkpt lat="49.87154" lon="2.19838">
        <ele>81</ele>
        <time>2022-12-09T14:34:52Z</time>
      </trkpt>
      <trkpt lat="49.87154" lon="2.19839">
        <ele>81</ele>
        <time>2022-12-09T14:34:53Z</time>
      </trkpt>
      <trkpt lat="49.87155" lon="2.19842">
        <ele>81</ele>
        <time>2022-12-09T14:34:54Z</time>
      </trkpt>
      <trkpt lat="49.87156" lon="2.19843">
        <ele>81</ele>
        <time>2022-12-09T14:34:55Z</time>
      </trkpt>
      <trkpt lat="49.87156" lon="2.19844">
        <ele>81</ele>
        <time>2022-12-09T14:34:56Z</time>
      </trkpt>
      <trkpt lat="49.87157" lon="2.19846">
        <ele>81</ele>
        <time>2022-12-09T14:34:57Z</time>
      </trkpt>
      <trkpt lat="49.87157" lon="2.19847">
        <ele>80.9</ele>
        <time>2022-12-09T14:34:58Z</time>
      </trkpt>
      <trkpt lat="49.87158" lon="2.19849">
        <ele>80.9</ele>
        <time>2022-12-09T14:34:59Z</time>
      </trkpt>
      <trkpt lat="49.87159" lon="2.19851">
        <ele>80.9</ele>
        <time>2022-12-09T14:35:01Z</time>
      </trkpt>
      <trkpt lat="49.87159" lon="2.19852">
        <ele>80.9</ele>
        <time>2022-12-09T14:35:02Z</time>
      </trkpt>
      <trkpt lat="49.8716" lon="2.19855">
        <ele>80.9</ele>
        <time>2022-12-09T14:35:03Z</time>
      </trkpt>
      <trkpt lat="49.87161" lon="2.19856">
        <ele>80.9</ele>
        <time>2022-12-09T14:35:04Z</time>
      </trkpt>
      <trkpt lat="49.87162" lon="2.19859">
        <ele>80.9</ele>
        <time>2022-12-09T14:35:05Z</time>
      </trkpt>
      <trkpt lat="49.87162" lon="2.1986">
        <ele>80.9</ele>
        <time>2022-12-09T14:35:07Z</time>
      </trkpt>
      <trkpt lat="49.87163" lon="2.19861">
        <ele>80.9</ele>
        <time>2022-12-09T14:35:08Z</time>
      </trkpt>
      <trkpt lat="49.87164" lon="2.19864">
        <ele>80.8</ele>
        <time>2022-12-09T14:35:09Z</time>
      </trkpt>
      <trkpt lat="49.87164" lon="2.19865">
        <ele>80.8</ele>
        <time>2022-12-09T14:35:10Z</time>
      </trkpt>
      <trkpt lat="49.87164" lon="2.19866">
        <ele>80.8</ele>
        <time>2022-12-09T14:35:11Z</time>
      </trkpt>
      <trkpt lat="49.87165" lon="2.19869">
        <ele>80.8</ele>
        <time>2022-12-09T14:35:12Z</time>
      </trkpt>
      <trkpt lat="49.87166" lon="2.19871">
        <ele>80.8</ele>
        <time>2022-12-09T14:35:13Z</time>
      </trkpt>
      <trkpt lat="49.87166" lon="2.19872">
        <ele>80.8</ele>
        <time>2022-12-09T14:35:14Z</time>
      </trkpt>
      <trkpt lat="49.87166" lon="2.19873">
        <ele>80.8</ele>
        <time>2022-12-09T14:35:15Z</time>
      </trkpt>
      <trkpt lat="49.87167" lon="2.19875">
        <ele>80.8</ele>
        <time>2022-12-09T14:35:16Z</time>
      </trkpt>
      <trkpt lat="49.87167" lon="2.19876">
        <ele>80.7</ele>
        <time>2022-12-09T14:35:17Z</time>
      </trkpt>
      <trkpt lat="49.87168" lon="2.19878">
        <ele>80.7</ele>
        <time>2022-12-09T14:35:19Z</time>
      </trkpt>
      <trkpt lat="49.87168" lon="2.19879">
        <ele>80.7</ele>
        <time>2022-12-09T14:35:20Z</time>
      </trkpt>
      <trkpt lat="49.87169" lon="2.19881">
        <ele>80.7</ele>
        <time>2022-12-09T14:35:21Z</time>
      </trkpt>
      <trkpt lat="49.8717" lon="2.19884">
        <ele>80.7</ele>
        <time>2022-12-09T14:35:22Z</time>
      </trkpt>
      <trkpt lat="49.8717" lon="2.19885">
        <ele>80.7</ele>
        <time>2022-12-09T14:35:23Z</time>
      </trkpt>
      <trkpt lat="49.8717" lon="2.19886">
        <ele>80.7</ele>
        <time>2022-12-09T14:35:24Z</time>
      </trkpt>
      <trkpt lat="49.87171" lon="2.19889">
        <ele>80.6</ele>
        <time>2022-12-09T14:35:25Z</time>
      </trkpt>
      <trkpt lat="49.87171" lon="2.1989">
        <ele>80.6</ele>
        <time>2022-12-09T14:35:26Z</time>
      </trkpt>
      <trkpt lat="49.87172" lon="2.19891">
        <ele>80.6</ele>
        <time>2022-12-09T14:35:27Z</time>
      </trkpt>
      <trkpt lat="49.87172" lon="2.19893">
        <ele>80.6</ele>
        <time>2022-12-09T14:35:28Z</time>
      </trkpt>
      <trkpt lat="49.87173" lon="2.19894">
        <ele>80.6</ele>
        <time>2022-12-09T14:35:29Z</time>
      </trkpt>
      <trkpt lat="49.87173" lon="2.19896">
        <ele>80.6</ele>
        <time>2022-12-09T14:35:30Z</time>
      </trkpt>
      <trkpt lat="49.87173" lon="2.19897">
        <ele>80.6</ele>
        <time>2022-12-09T14:35:31Z</time>
      </trkpt>
      <trkpt lat="49.87173" lon="2.19899">
        <ele>80.6</ele>
        <time>2022-12-09T14:35:32Z</time>
      </trkpt>
      <trkpt lat="49.87174" lon="2.199">
        <ele>80.5</ele>
        <time>2022-12-09T14:35:34Z</time>
      </trkpt>
      <trkpt lat="49.87174" lon="2.19902">
        <ele>80.5</ele>
        <time>2022-12-09T14:35:35Z</time>
      </trkpt>
      <trkpt lat="49.87175" lon="2.19904">
        <ele>80.5</ele>
        <time>2022-12-09T14:35:36Z</time>
      </trkpt>
      <trkpt lat="49.87175" lon="2.19905">
        <ele>80.5</ele>
        <time>2022-12-09T14:35:37Z</time>
      </trkpt>
      <trkpt lat="49.87176" lon="2.19907">
        <ele>80.5</ele>
        <time>2022-12-09T14:35:38Z</time>
      </trkpt>
      <trkpt lat="49.87176" lon="2.19908">
        <ele>80.5</ele>
        <time>2022-12-09T14:35:39Z</time>
      </trkpt>
      <trkpt lat="49.87177" lon="2.1991">
        <ele>80.5</ele>
        <time>2022-12-09T14:35:40Z</time>
      </trkpt>
      <trkpt lat="49.87177" lon="2.19912">
        <ele>80.5</ele>
        <time>2022-12-09T14:35:41Z</time>
      </trkpt>
      <trkpt lat="49.87178" lon="2.19913">
        <ele>80.4</ele>
        <time>2022-12-09T14:35:42Z</time>
      </trkpt>
      <trkpt lat="49.87178" lon="2.19915">
        <ele>80.4</ele>
        <time>2022-12-09T14:35:43Z</time>
      </trkpt>
      <trkpt lat="49.87179" lon="2.19916">
        <ele>80.4</ele>
        <time>2022-12-09T14:35:44Z</time>
      </trkpt>
      <trkpt lat="49.8718" lon="2.19917">
        <ele>80.4</ele>
        <time>2022-12-09T14:35:45Z</time>
      </trkpt>
      <trkpt lat="49.8718" lon="2.19918">
        <ele>80.4</ele>
        <time>2022-12-09T14:35:46Z</time>
      </trkpt>
      <trkpt lat="49.87181" lon="2.1992">
        <ele>80.4</ele>
        <time>2022-12-09T14:35:48Z</time>
      </trkpt>
      <trkpt lat="49.87182" lon="2.19922">
        <ele>80.4</ele>
        <time>2022-12-09T14:35:49Z</time>
      </trkpt>
      <trkpt lat="49.87182" lon="2.19925">
        <ele>80.3</ele>
        <time>2022-12-09T14:35:50Z</time>
      </trkpt>
      <trkpt lat="49.87183" lon="2.19926">
        <ele>80.3</ele>
        <time>2022-12-09T14:35:51Z</time>
      </trkpt>
      <trkpt lat="49.87183" lon="2.19928">
        <ele>80.3</ele>
        <time>2022-12-09T14:35:52Z</time>
      </trkpt>
      <trkpt lat="49.87184" lon="2.19931">
        <ele>80.3</ele>
        <time>2022-12-09T14:35:53Z</time>
      </trkpt>
      <trkpt lat="49.87184" lon="2.19932">
        <ele>80.3</ele>
        <time>2022-12-09T14:35:55Z</time>
      </trkpt>
      <trkpt lat="49.87185" lon="2.19933">
        <ele>80.3</ele>
        <time>2022-12-09T14:35:56Z</time>
      </trkpt>
      <trkpt lat="49.87185" lon="2.19935">
        <ele>80.2</ele>
        <time>2022-12-09T14:35:57Z</time>
      </trkpt>
      <trkpt lat="49.87185" lon="2.19937">
        <ele>80.2</ele>
        <time>2022-12-09T14:35:58Z</time>
      </trkpt>
      <trkpt lat="49.87186" lon="2.19938">
        <ele>80.2</ele>
        <time>2022-12-09T14:35:59Z</time>
      </trkpt>
      <trkpt lat="49.87187" lon="2.19942">
        <ele>80.2</ele>
        <time>2022-12-09T14:36:00Z</time>
      </trkpt>
      <trkpt lat="49.87187" lon="2.19943">
        <ele>80.2</ele>
        <time>2022-12-09T14:36:02Z</time>
      </trkpt>
      <trkpt lat="49.87188" lon="2.19945">
        <ele>80.2</ele>
        <time>2022-12-09T14:36:03Z</time>
      </trkpt>
      <trkpt lat="49.87188" lon="2.19946">
        <ele>80.2</ele>
        <time>2022-12-09T14:36:04Z</time>
      </trkpt>
      <trkpt lat="49.87189" lon="2.19947">
        <ele>80.2</ele>
        <time>2022-12-09T14:36:05Z</time>
      </trkpt>
      <trkpt lat="49.87189" lon="2.1995">
        <ele>80.1</ele>
        <time>2022-12-09T14:36:06Z</time>
      </trkpt>
      <trkpt lat="49.8719" lon="2.19951">
        <ele>80.1</ele>
        <time>2022-12-09T14:36:07Z</time>
      </trkpt>
      <trkpt lat="49.8719" lon="2.19952">
        <ele>80.1</ele>
        <time>2022-12-09T14:36:08Z</time>
      </trkpt>
      <trkpt lat="49.87191" lon="2.19955">
        <ele>80.1</ele>
        <time>2022-12-09T14:36:09Z</time>
      </trkpt>
      <trkpt lat="49.87192" lon="2.19956">
        <ele>80.1</ele>
        <time>2022-12-09T14:36:10Z</time>
      </trkpt>
      <trkpt lat="49.87192" lon="2.19958">
        <ele>80.1</ele>
        <time>2022-12-09T14:36:12Z</time>
      </trkpt>
      <trkpt lat="49.87193" lon="2.19959">
        <ele>80.1</ele>
        <time>2022-12-09T14:36:13Z</time>
      </trkpt>
      <trkpt lat="49.87194" lon="2.1996">
        <ele>80.1</ele>
        <time>2022-12-09T14:36:14Z</time>
      </trkpt>
      <trkpt lat="49.87194" lon="2.19962">
        <ele>80.1</ele>
        <time>2022-12-09T14:36:15Z</time>
      </trkpt>
      <trkpt lat="49.87195" lon="2.19965">
        <ele>80</ele>
        <time>2022-12-09T14:36:16Z</time>
      </trkpt>
      <trkpt lat="49.87195" lon="2.19966">
        <ele>80</ele>
        <time>2022-12-09T14:36:17Z</time>
      </trkpt>
      <trkpt lat="49.87196" lon="2.19967">
        <ele>80</ele>
        <time>2022-12-09T14:36:18Z</time>
      </trkpt>
      <trkpt lat="49.87197" lon="2.1997">
        <ele>80</ele>
        <time>2022-12-09T14:36:19Z</time>
      </trkpt>
      <trkpt lat="49.87197" lon="2.19971">
        <ele>80</ele>
        <time>2022-12-09T14:36:20Z</time>
      </trkpt>
      <trkpt lat="49.87197" lon="2.19973">
        <ele>80</ele>
        <time>2022-12-09T14:36:21Z</time>
      </trkpt>
      <trkpt lat="49.87198" lon="2.19974">
        <ele>80</ele>
        <time>2022-12-09T14:36:22Z</time>
      </trkpt>
      <trkpt lat="49.87198" lon="2.19975">
        <ele>80</ele>
        <time>2022-12-09T14:36:23Z</time>
      </trkpt>
      <trkpt lat="49.87199" lon="2.19977">
        <ele>80</ele>
        <time>2022-12-09T14:36:24Z</time>
      </trkpt>
      <trkpt lat="49.87199" lon="2.19978">
        <ele>80</ele>
        <time>2022-12-09T14:36:26Z</time>
      </trkpt>
      <trkpt lat="49.872" lon="2.1998">
        <ele>79.9</ele>
        <time>2022-12-09T14:36:27Z</time>
      </trkpt>
      <trkpt lat="49.87201" lon="2.19981">
        <ele>79.9</ele>
        <time>2022-12-09T14:36:28Z</time>
      </trkpt>
      <trkpt lat="49.87202" lon="2.19984">
        <ele>79.9</ele>
        <time>2022-12-09T14:36:29Z</time>
      </trkpt>
      <trkpt lat="49.87202" lon="2.19985">
        <ele>79.9</ele>
        <time>2022-12-09T14:36:30Z</time>
      </trkpt>
      <trkpt lat="49.87202" lon="2.19986">
        <ele>79.9</ele>
        <time>2022-12-09T14:36:31Z</time>
      </trkpt>
      <trkpt lat="49.87203" lon="2.19989">
        <ele>79.9</ele>
        <time>2022-12-09T14:36:32Z</time>
      </trkpt>
      <trkpt lat="49.87203" lon="2.1999">
        <ele>79.9</ele>
        <time>2022-12-09T14:36:33Z</time>
      </trkpt>
      <trkpt lat="49.87204" lon="2.19991">
        <ele>79.8</ele>
        <time>2022-12-09T14:36:34Z</time>
      </trkpt>
      <trkpt lat="49.87204" lon="2.19993">
        <ele>79.8</ele>
        <time>2022-12-09T14:36:36Z</time>
      </trkpt>
      <trkpt lat="49.87205" lon="2.19995">
        <ele>79.8</ele>
        <time>2022-12-09T14:36:37Z</time>
      </trkpt>
      <trkpt lat="49.87205" lon="2.19996">
        <ele>79.8</ele>
        <time>2022-12-09T14:36:38Z</time>
      </trkpt>
      <trkpt lat="49.87206" lon="2.19999">
        <ele>79.8</ele>
        <time>2022-12-09T14:36:39Z</time>
      </trkpt>
      <trkpt lat="49.87206" lon="2.20001">
        <ele>79.8</ele>
        <time>2022-12-09T14:36:40Z</time>
      </trkpt>
      <trkpt lat="49.87207" lon="2.20002">
        <ele>79.8</ele>
        <time>2022-12-09T14:36:41Z</time>
      </trkpt>
      <trkpt lat="49.87207" lon="2.20003">
        <ele>79.7</ele>
        <time>2022-12-09T14:36:42Z</time>
      </trkpt>
      <trkpt lat="49.87208" lon="2.20005">
        <ele>79.7</ele>
        <time>2022-12-09T14:36:43Z</time>
      </trkpt>
      <trkpt lat="49.87208" lon="2.20007">
        <ele>79.7</ele>
        <time>2022-12-09T14:36:44Z</time>
      </trkpt>
      <trkpt lat="49.87209" lon="2.20009">
        <ele>79.7</ele>
        <time>2022-12-09T14:36:46Z</time>
      </trkpt>
      <trkpt lat="49.87209" lon="2.20011">
        <ele>79.7</ele>
        <time>2022-12-09T14:36:47Z</time>
      </trkpt>
      <trkpt lat="49.87209" lon="2.20012">
        <ele>79.7</ele>
        <time>2022-12-09T14:36:48Z</time>
      </trkpt>
      <trkpt lat="49.87209" lon="2.20013">
        <ele>79.7</ele>
        <time>2022-12-09T14:36:49Z</time>
      </trkpt>
      <trkpt lat="49.87209" lon="2.20015">
        <ele>79.7</ele>
        <time>2022-12-09T14:36:50Z</time>
      </trkpt>
      <trkpt lat="49.8721" lon="2.20016">
        <ele>79.6</ele>
        <time>2022-12-09T14:36:51Z</time>
      </trkpt>
      <trkpt lat="49.87211" lon="2.20018">
        <ele>79.6</ele>
        <time>2022-12-09T14:36:52Z</time>
      </trkpt>
      <trkpt lat="49.87211" lon="2.20019">
        <ele>79.6</ele>
        <time>2022-12-09T14:36:53Z</time>
      </trkpt>
      <trkpt lat="49.87212" lon="2.20021">
        <ele>79.6</ele>
        <time>2022-12-09T14:36:54Z</time>
      </trkpt>
      <trkpt lat="49.87212" lon="2.20024">
        <ele>79.6</ele>
        <time>2022-12-09T14:36:56Z</time>
      </trkpt>
      <trkpt lat="49.87213" lon="2.20025">
        <ele>79.6</ele>
        <time>2022-12-09T14:36:57Z</time>
      </trkpt>
      <trkpt lat="49.87213" lon="2.20026">
        <ele>79.6</ele>
        <time>2022-12-09T14:36:58Z</time>
      </trkpt>
      <trkpt lat="49.87213" lon="2.20027">
        <ele>79.6</ele>
        <time>2022-12-09T14:36:59Z</time>
      </trkpt>
      <trkpt lat="49.87214" lon="2.20029">
        <ele>79.6</ele>
        <time>2022-12-09T14:37:00Z</time>
      </trkpt>
      <trkpt lat="49.87214" lon="2.2003">
        <ele>79.5</ele>
        <time>2022-12-09T14:37:01Z</time>
      </trkpt>
      <trkpt lat="49.87215" lon="2.20031">
        <ele>79.5</ele>
        <time>2022-12-09T14:37:02Z</time>
      </trkpt>
      <trkpt lat="49.87216" lon="2.20033">
        <ele>79.5</ele>
        <time>2022-12-09T14:37:03Z</time>
      </trkpt>
      <trkpt lat="49.87216" lon="2.20034">
        <ele>79.5</ele>
        <time>2022-12-09T14:37:04Z</time>
      </trkpt>
      <trkpt lat="49.87218" lon="2.20037">
        <ele>79.5</ele>
        <time>2022-12-09T14:37:05Z</time>
      </trkpt>
      <trkpt lat="49.87218" lon="2.20038">
        <ele>79.5</ele>
        <time>2022-12-09T14:37:07Z</time>
      </trkpt>
      <trkpt lat="49.87219" lon="2.20039">
        <ele>79.5</ele>
        <time>2022-12-09T14:37:08Z</time>
      </trkpt>
      <trkpt lat="49.87219" lon="2.2004">
        <ele>79.5</ele>
        <time>2022-12-09T14:37:09Z</time>
      </trkpt>
      <trkpt lat="49.8722" lon="2.20041">
        <ele>79.5</ele>
        <time>2022-12-09T14:37:10Z</time>
      </trkpt>
      <trkpt lat="49.87221" lon="2.20042">
        <ele>79.5</ele>
        <time>2022-12-09T14:37:11Z</time>
      </trkpt>
      <trkpt lat="49.87222" lon="2.20045">
        <ele>79.5</ele>
        <time>2022-12-09T14:37:12Z</time>
      </trkpt>
      <trkpt lat="49.87222" lon="2.20046">
        <ele>79.5</ele>
        <time>2022-12-09T14:37:13Z</time>
      </trkpt>
      <trkpt lat="49.87223" lon="2.20047">
        <ele>79.5</ele>
        <time>2022-12-09T14:37:14Z</time>
      </trkpt>
      <trkpt lat="49.87224" lon="2.2005">
        <ele>79.5</ele>
        <time>2022-12-09T14:37:16Z</time>
      </trkpt>
      <trkpt lat="49.87224" lon="2.20052">
        <ele>79.4</ele>
        <time>2022-12-09T14:37:17Z</time>
      </trkpt>
      <trkpt lat="49.87225" lon="2.20054">
        <ele>79.4</ele>
        <time>2022-12-09T14:37:18Z</time>
      </trkpt>
      <trkpt lat="49.87226" lon="2.20056">
        <ele>79.4</ele>
        <time>2022-12-09T14:37:19Z</time>
      </trkpt>
      <trkpt lat="49.87227" lon="2.20057">
        <ele>79.4</ele>
        <time>2022-12-09T14:37:20Z</time>
      </trkpt>
      <trkpt lat="49.87227" lon="2.20058">
        <ele>79.4</ele>
        <time>2022-12-09T14:37:21Z</time>
      </trkpt>
      <trkpt lat="49.87228" lon="2.2006">
        <ele>79.4</ele>
        <time>2022-12-09T14:37:22Z</time>
      </trkpt>
      <trkpt lat="49.87229" lon="2.20062">
        <ele>79.4</ele>
        <time>2022-12-09T14:37:23Z</time>
      </trkpt>
      <trkpt lat="49.8723" lon="2.20063">
        <ele>79.4</ele>
        <time>2022-12-09T14:37:24Z</time>
      </trkpt>
      <trkpt lat="49.8723" lon="2.20065">
        <ele>79.4</ele>
        <time>2022-12-09T14:37:26Z</time>
      </trkpt>
      <trkpt lat="49.87231" lon="2.20068">
        <ele>79.4</ele>
        <time>2022-12-09T14:37:27Z</time>
      </trkpt>
      <trkpt lat="49.87231" lon="2.20069">
        <ele>79.4</ele>
        <time>2022-12-09T14:37:28Z</time>
      </trkpt>
      <trkpt lat="49.87232" lon="2.2007">
        <ele>79.4</ele>
        <time>2022-12-09T14:37:29Z</time>
      </trkpt>
      <trkpt lat="49.87233" lon="2.20073">
        <ele>79.3</ele>
        <time>2022-12-09T14:37:30Z</time>
      </trkpt>
      <trkpt lat="49.87233" lon="2.20074">
        <ele>79.3</ele>
        <time>2022-12-09T14:37:31Z</time>
      </trkpt>
      <trkpt lat="49.87233" lon="2.20075">
        <ele>79.3</ele>
        <time>2022-12-09T14:37:32Z</time>
      </trkpt>
      <trkpt lat="49.87234" lon="2.20078">
        <ele>79.3</ele>
        <time>2022-12-09T14:37:34Z</time>
      </trkpt>
      <trkpt lat="49.87234" lon="2.20079">
        <ele>79.3</ele>
        <time>2022-12-09T14:37:35Z</time>
      </trkpt>
      <trkpt lat="49.87235" lon="2.20081">
        <ele>79.3</ele>
        <time>2022-12-09T14:37:36Z</time>
      </trkpt>
      <trkpt lat="49.87236" lon="2.20083">
        <ele>79.3</ele>
        <time>2022-12-09T14:37:37Z</time>
      </trkpt>
      <trkpt lat="49.87237" lon="2.20086">
        <ele>79.3</ele>
        <time>2022-12-09T14:37:38Z</time>
      </trkpt>
      <trkpt lat="49.87237" lon="2.20087">
        <ele>79.3</ele>
        <time>2022-12-09T14:37:39Z</time>
      </trkpt>
      <trkpt lat="49.87238" lon="2.20088">
        <ele>79.2</ele>
        <time>2022-12-09T14:37:40Z</time>
      </trkpt>
      <trkpt lat="49.87238" lon="2.2009">
        <ele>79.2</ele>
        <time>2022-12-09T14:37:41Z</time>
      </trkpt>
      <trkpt lat="49.87239" lon="2.20092">
        <ele>79.2</ele>
        <time>2022-12-09T14:37:42Z</time>
      </trkpt>
      <trkpt lat="49.8724" lon="2.20094">
        <ele>79.2</ele>
        <time>2022-12-09T14:37:44Z</time>
      </trkpt>
      <trkpt lat="49.87241" lon="2.20097">
        <ele>79.2</ele>
        <time>2022-12-09T14:37:45Z</time>
      </trkpt>
      <trkpt lat="49.87241" lon="2.20098">
        <ele>79.2</ele>
        <time>2022-12-09T14:37:46Z</time>
      </trkpt>
      <trkpt lat="49.87242" lon="2.20099">
        <ele>79.2</ele>
        <time>2022-12-09T14:37:47Z</time>
      </trkpt>
      <trkpt lat="49.87242" lon="2.20101">
        <ele>79.1</ele>
        <time>2022-12-09T14:37:49Z</time>
      </trkpt>
      <trkpt lat="49.87243" lon="2.20103">
        <ele>79.1</ele>
        <time>2022-12-09T14:37:50Z</time>
      </trkpt>
      <trkpt lat="49.87244" lon="2.20105">
        <ele>79.1</ele>
        <time>2022-12-09T14:37:51Z</time>
      </trkpt>
      <trkpt lat="49.87245" lon="2.20107">
        <ele>79.1</ele>
        <time>2022-12-09T14:37:52Z</time>
      </trkpt>
      <trkpt lat="49.87245" lon="2.20109">
        <ele>79.1</ele>
        <time>2022-12-09T14:37:53Z</time>
      </trkpt>
      <trkpt lat="49.87246" lon="2.2011">
        <ele>79.1</ele>
        <time>2022-12-09T14:37:54Z</time>
      </trkpt>
      <trkpt lat="49.87247" lon="2.20113">
        <ele>79.1</ele>
        <time>2022-12-09T14:37:56Z</time>
      </trkpt>
      <trkpt lat="49.87248" lon="2.20114">
        <ele>79.1</ele>
        <time>2022-12-09T14:37:57Z</time>
      </trkpt>
      <trkpt lat="49.87248" lon="2.20115">
        <ele>79.1</ele>
        <time>2022-12-09T14:37:58Z</time>
      </trkpt>
      <trkpt lat="49.87249" lon="2.20116">
        <ele>79</ele>
        <time>2022-12-09T14:37:59Z</time>
      </trkpt>
      <trkpt lat="49.87249" lon="2.20118">
        <ele>79</ele>
        <time>2022-12-09T14:38:00Z</time>
      </trkpt>
      <trkpt lat="49.8725" lon="2.20119">
        <ele>79</ele>
        <time>2022-12-09T14:38:01Z</time>
      </trkpt>
      <trkpt lat="49.8725" lon="2.20121">
        <ele>79</ele>
        <time>2022-12-09T14:38:02Z</time>
      </trkpt>
      <trkpt lat="49.87251" lon="2.20123">
        <ele>79</ele>
        <time>2022-12-09T14:38:03Z</time>
      </trkpt>
      <trkpt lat="49.87251" lon="2.20124">
        <ele>79</ele>
        <time>2022-12-09T14:38:04Z</time>
      </trkpt>
      <trkpt lat="49.87252" lon="2.20127">
        <ele>79</ele>
        <time>2022-12-09T14:38:06Z</time>
      </trkpt>
      <trkpt lat="49.87253" lon="2.20128">
        <ele>79</ele>
        <time>2022-12-09T14:38:07Z</time>
      </trkpt>
      <trkpt lat="49.87253" lon="2.20129">
        <ele>79</ele>
        <time>2022-12-09T14:38:08Z</time>
      </trkpt>
      <trkpt lat="49.87254" lon="2.20132">
        <ele>79</ele>
        <time>2022-12-09T14:38:09Z</time>
      </trkpt>
      <trkpt lat="49.87255" lon="2.20133">
        <ele>79</ele>
        <time>2022-12-09T14:38:10Z</time>
      </trkpt>
      <trkpt lat="49.87256" lon="2.20135">
        <ele>79</ele>
        <time>2022-12-09T14:38:12Z</time>
      </trkpt>
      <trkpt lat="49.87256" lon="2.20136">
        <ele>79</ele>
        <time>2022-12-09T14:38:13Z</time>
      </trkpt>
      <trkpt lat="49.87257" lon="2.20137">
        <ele>79</ele>
        <time>2022-12-09T14:38:14Z</time>
      </trkpt>
      <trkpt lat="49.87257" lon="2.20139">
        <ele>79</ele>
        <time>2022-12-09T14:38:15Z</time>
      </trkpt>
      <trkpt lat="49.87258" lon="2.2014">
        <ele>79</ele>
        <time>2022-12-09T14:38:16Z</time>
      </trkpt>
      <trkpt lat="49.87259" lon="2.20142">
        <ele>79</ele>
        <time>2022-12-09T14:38:17Z</time>
      </trkpt>
      <trkpt lat="49.87259" lon="2.20143">
        <ele>79</ele>
        <time>2022-12-09T14:38:18Z</time>
      </trkpt>
      <trkpt lat="49.8726" lon="2.20145">
        <ele>79</ele>
        <time>2022-12-09T14:38:19Z</time>
      </trkpt>
      <trkpt lat="49.8726" lon="2.20146">
        <ele>79</ele>
        <time>2022-12-09T14:38:20Z</time>
      </trkpt>
      <trkpt lat="49.8726" lon="2.20148">
        <ele>79</ele>
        <time>2022-12-09T14:38:21Z</time>
      </trkpt>
      <trkpt lat="49.87261" lon="2.20151">
        <ele>78.9</ele>
        <time>2022-12-09T14:38:22Z</time>
      </trkpt>
      <trkpt lat="49.87261" lon="2.20152">
        <ele>78.9</ele>
        <time>2022-12-09T14:38:24Z</time>
      </trkpt>
      <trkpt lat="49.87262" lon="2.20153">
        <ele>78.9</ele>
        <time>2022-12-09T14:38:25Z</time>
      </trkpt>
      <trkpt lat="49.87262" lon="2.20156">
        <ele>78.9</ele>
        <time>2022-12-09T14:38:26Z</time>
      </trkpt>
      <trkpt lat="49.87263" lon="2.20158">
        <ele>78.9</ele>
        <time>2022-12-09T14:38:27Z</time>
      </trkpt>
      <trkpt lat="49.87263" lon="2.20159">
        <ele>78.9</ele>
        <time>2022-12-09T14:38:28Z</time>
      </trkpt>
      <trkpt lat="49.87264" lon="2.20162">
        <ele>78.9</ele>
        <time>2022-12-09T14:38:29Z</time>
      </trkpt>
      <trkpt lat="49.87264" lon="2.20163">
        <ele>78.9</ele>
        <time>2022-12-09T14:38:30Z</time>
      </trkpt>
      <trkpt lat="49.87264" lon="2.20164">
        <ele>78.9</ele>
        <time>2022-12-09T14:38:31Z</time>
      </trkpt>
      <trkpt lat="49.87265" lon="2.20166">
        <ele>78.9</ele>
        <time>2022-12-09T14:38:32Z</time>
      </trkpt>
      <trkpt lat="49.87265" lon="2.20167">
        <ele>78.9</ele>
        <time>2022-12-09T14:38:33Z</time>
      </trkpt>
      <trkpt lat="49.87266" lon="2.20169">
        <ele>78.9</ele>
        <time>2022-12-09T14:38:34Z</time>
      </trkpt>
      <trkpt lat="49.87267" lon="2.20172">
        <ele>78.9</ele>
        <time>2022-12-09T14:38:36Z</time>
      </trkpt>
      <trkpt lat="49.87267" lon="2.20173">
        <ele>78.9</ele>
        <time>2022-12-09T14:38:37Z</time>
      </trkpt>
      <trkpt lat="49.87268" lon="2.20174">
        <ele>78.9</ele>
        <time>2022-12-09T14:38:38Z</time>
      </trkpt>
      <trkpt lat="49.87268" lon="2.20176">
        <ele>78.9</ele>
        <time>2022-12-09T14:38:39Z</time>
      </trkpt>
      <trkpt lat="49.87269" lon="2.20178">
        <ele>78.9</ele>
        <time>2022-12-09T14:38:40Z</time>
      </trkpt>
      <trkpt lat="49.8727" lon="2.2018">
        <ele>78.8</ele>
        <time>2022-12-09T14:38:41Z</time>
      </trkpt>
      <trkpt lat="49.87271" lon="2.20182">
        <ele>78.8</ele>
        <time>2022-12-09T14:38:42Z</time>
      </trkpt>
      <trkpt lat="49.87271" lon="2.20183">
        <ele>78.8</ele>
        <time>2022-12-09T14:38:43Z</time>
      </trkpt>
      <trkpt lat="49.87272" lon="2.20184">
        <ele>78.8</ele>
        <time>2022-12-09T14:38:44Z</time>
      </trkpt>
      <trkpt lat="49.87272" lon="2.20186">
        <ele>78.8</ele>
        <time>2022-12-09T14:38:45Z</time>
      </trkpt>
      <trkpt lat="49.87273" lon="2.20187">
        <ele>78.8</ele>
        <time>2022-12-09T14:38:46Z</time>
      </trkpt>
      <trkpt lat="49.87273" lon="2.2019">
        <ele>78.8</ele>
        <time>2022-12-09T14:38:47Z</time>
      </trkpt>
      <trkpt lat="49.87274" lon="2.20191">
        <ele>78.8</ele>
        <time>2022-12-09T14:38:49Z</time>
      </trkpt>
      <trkpt lat="49.87274" lon="2.20192">
        <ele>78.8</ele>
        <time>2022-12-09T14:38:50Z</time>
      </trkpt>
      <trkpt lat="49.87275" lon="2.20195">
        <ele>78.8</ele>
        <time>2022-12-09T14:38:51Z</time>
      </trkpt>
      <trkpt lat="49.87276" lon="2.20197">
        <ele>78.8</ele>
        <time>2022-12-09T14:38:52Z</time>
      </trkpt>
      <trkpt lat="49.87276" lon="2.20198">
        <ele>78.8</ele>
        <time>2022-12-09T14:38:53Z</time>
      </trkpt>
      <trkpt lat="49.87277" lon="2.20199">
        <ele>78.8</ele>
        <time>2022-12-09T14:38:54Z</time>
      </trkpt>
      <trkpt lat="49.87277" lon="2.20201">
        <ele>78.8</ele>
        <time>2022-12-09T14:38:55Z</time>
      </trkpt>
      <trkpt lat="49.87278" lon="2.20203">
        <ele>78.8</ele>
        <time>2022-12-09T14:38:56Z</time>
      </trkpt>
      <trkpt lat="49.87278" lon="2.20205">
        <ele>78.8</ele>
        <time>2022-12-09T14:38:57Z</time>
      </trkpt>
      <trkpt lat="49.87278" lon="2.20206">
        <ele>78.8</ele>
        <time>2022-12-09T14:38:58Z</time>
      </trkpt>
      <trkpt lat="49.87279" lon="2.20207">
        <ele>78.8</ele>
        <time>2022-12-09T14:39:00Z</time>
      </trkpt>
      <trkpt lat="49.87279" lon="2.20208">
        <ele>78.8</ele>
        <time>2022-12-09T14:39:01Z</time>
      </trkpt>
      <trkpt lat="49.87279" lon="2.20209">
        <ele>78.8</ele>
        <time>2022-12-09T14:39:02Z</time>
      </trkpt>
      <trkpt lat="49.8728" lon="2.20211">
        <ele>78.7</ele>
        <time>2022-12-09T14:39:03Z</time>
      </trkpt>
      <trkpt lat="49.8728" lon="2.20213">
        <ele>78.7</ele>
        <time>2022-12-09T14:39:04Z</time>
      </trkpt>
      <trkpt lat="49.8728" lon="2.20214">
        <ele>78.7</ele>
        <time>2022-12-09T14:39:05Z</time>
      </trkpt>
      <trkpt lat="49.87281" lon="2.20216">
        <ele>78.7</ele>
        <time>2022-12-09T14:39:06Z</time>
      </trkpt>
      <trkpt lat="49.87281" lon="2.20217">
        <ele>78.7</ele>
        <time>2022-12-09T14:39:07Z</time>
      </trkpt>
      <trkpt lat="49.87281" lon="2.20218">
        <ele>78.7</ele>
        <time>2022-12-09T14:39:08Z</time>
      </trkpt>
      <trkpt lat="49.87282" lon="2.2022">
        <ele>78.7</ele>
        <time>2022-12-09T14:39:10Z</time>
      </trkpt>
      <trkpt lat="49.87282" lon="2.20222">
        <ele>78.7</ele>
        <time>2022-12-09T14:39:11Z</time>
      </trkpt>
      <trkpt lat="49.87283" lon="2.20225">
        <ele>78.7</ele>
        <time>2022-12-09T14:39:12Z</time>
      </trkpt>
      <trkpt lat="49.87283" lon="2.20226">
        <ele>78.7</ele>
        <time>2022-12-09T14:39:13Z</time>
      </trkpt>
      <trkpt lat="49.87284" lon="2.20227">
        <ele>78.7</ele>
        <time>2022-12-09T14:39:14Z</time>
      </trkpt>
      <trkpt lat="49.87284" lon="2.20229">
        <ele>78.7</ele>
        <time>2022-12-09T14:39:15Z</time>
      </trkpt>
      <trkpt lat="49.87285" lon="2.20231">
        <ele>78.7</ele>
        <time>2022-12-09T14:39:16Z</time>
      </trkpt>
      <trkpt lat="49.87286" lon="2.20234">
        <ele>78.7</ele>
        <time>2022-12-09T14:39:17Z</time>
      </trkpt>
      <trkpt lat="49.87286" lon="2.20235">
        <ele>78.7</ele>
        <time>2022-12-09T14:39:19Z</time>
      </trkpt>
      <trkpt lat="49.87287" lon="2.20236">
        <ele>78.7</ele>
        <time>2022-12-09T14:39:20Z</time>
      </trkpt>
      <trkpt lat="49.87288" lon="2.20238">
        <ele>78.7</ele>
        <time>2022-12-09T14:39:21Z</time>
      </trkpt>
      <trkpt lat="49.87289" lon="2.20239">
        <ele>78.7</ele>
        <time>2022-12-09T14:39:22Z</time>
      </trkpt>
      <trkpt lat="49.87289" lon="2.2024">
        <ele>78.7</ele>
        <time>2022-12-09T14:39:23Z</time>
      </trkpt>
      <trkpt lat="49.8729" lon="2.20243">
        <ele>78.6</ele>
        <time>2022-12-09T14:39:24Z</time>
      </trkpt>
      <trkpt lat="49.87291" lon="2.20244">
        <ele>78.6</ele>
        <time>2022-12-09T14:39:25Z</time>
      </trkpt>
      <trkpt lat="49.87292" lon="2.20246">
        <ele>78.6</ele>
        <time>2022-12-09T14:39:27Z</time>
      </trkpt>
      <trkpt lat="49.87292" lon="2.20247">
        <ele>78.6</ele>
        <time>2022-12-09T14:39:28Z</time>
      </trkpt>
      <trkpt lat="49.87293" lon="2.20248">
        <ele>78.6</ele>
        <time>2022-12-09T14:39:29Z</time>
      </trkpt>
      <trkpt lat="49.87293" lon="2.20249">
        <ele>78.6</ele>
        <time>2022-12-09T14:39:30Z</time>
      </trkpt>
      <trkpt lat="49.87294" lon="2.20252">
        <ele>78.6</ele>
        <time>2022-12-09T14:39:31Z</time>
      </trkpt>
      <trkpt lat="49.87294" lon="2.20253">
        <ele>78.6</ele>
        <time>2022-12-09T14:39:32Z</time>
      </trkpt>
      <trkpt lat="49.87295" lon="2.20255">
        <ele>78.6</ele>
        <time>2022-12-09T14:39:33Z</time>
      </trkpt>
      <trkpt lat="49.87295" lon="2.20256">
        <ele>78.6</ele>
        <time>2022-12-09T14:39:34Z</time>
      </trkpt>
      <trkpt lat="49.87295" lon="2.20257">
        <ele>78.6</ele>
        <time>2022-12-09T14:39:36Z</time>
      </trkpt>
      <trkpt lat="49.87296" lon="2.20259">
        <ele>78.6</ele>
        <time>2022-12-09T14:39:37Z</time>
      </trkpt>
      <trkpt lat="49.87296" lon="2.2026">
        <ele>78.6</ele>
        <time>2022-12-09T14:39:38Z</time>
      </trkpt>
      <trkpt lat="49.87297" lon="2.20262">
        <ele>78.6</ele>
        <time>2022-12-09T14:39:39Z</time>
      </trkpt>
      <trkpt lat="49.87297" lon="2.20263">
        <ele>78.6</ele>
        <time>2022-12-09T14:39:40Z</time>
      </trkpt>
      <trkpt lat="49.87298" lon="2.20266">
        <ele>78.5</ele>
        <time>2022-12-09T14:39:41Z</time>
      </trkpt>
      <trkpt lat="49.87299" lon="2.20267">
        <ele>78.5</ele>
        <time>2022-12-09T14:39:42Z</time>
      </trkpt>
      <trkpt lat="49.87299" lon="2.20268">
        <ele>78.5</ele>
        <time>2022-12-09T14:39:43Z</time>
      </trkpt>
      <trkpt lat="49.873" lon="2.2027">
        <ele>78.5</ele>
        <time>2022-12-09T14:39:44Z</time>
      </trkpt>
      <trkpt lat="49.873" lon="2.20271">
        <ele>78.5</ele>
        <time>2022-12-09T14:39:45Z</time>
      </trkpt>
      <trkpt lat="49.873" lon="2.20273">
        <ele>78.5</ele>
        <time>2022-12-09T14:39:47Z</time>
      </trkpt>
      <trkpt lat="49.87301" lon="2.20274">
        <ele>78.5</ele>
        <time>2022-12-09T14:39:48Z</time>
      </trkpt>
      <trkpt lat="49.87301" lon="2.20276">
        <ele>78.5</ele>
        <time>2022-12-09T14:39:49Z</time>
      </trkpt>
      <trkpt lat="49.87302" lon="2.20278">
        <ele>78.5</ele>
        <time>2022-12-09T14:39:50Z</time>
      </trkpt>
      <trkpt lat="49.87303" lon="2.20279">
        <ele>78.5</ele>
        <time>2022-12-09T14:39:51Z</time>
      </trkpt>
      <trkpt lat="49.87303" lon="2.20281">
        <ele>78.5</ele>
        <time>2022-12-09T14:39:52Z</time>
      </trkpt>
      <trkpt lat="49.87304" lon="2.20283">
        <ele>78.5</ele>
        <time>2022-12-09T14:39:54Z</time>
      </trkpt>
      <trkpt lat="49.87305" lon="2.20285">
        <ele>78.5</ele>
        <time>2022-12-09T14:39:55Z</time>
      </trkpt>
      <trkpt lat="49.87305" lon="2.20287">
        <ele>78.5</ele>
        <time>2022-12-09T14:39:56Z</time>
      </trkpt>
      <trkpt lat="49.87306" lon="2.20288">
        <ele>78.4</ele>
        <time>2022-12-09T14:39:57Z</time>
      </trkpt>
      <trkpt lat="49.87306" lon="2.2029">
        <ele>78.4</ele>
        <time>2022-12-09T14:39:58Z</time>
      </trkpt>
      <trkpt lat="49.87307" lon="2.20292">
        <ele>78.4</ele>
        <time>2022-12-09T14:39:59Z</time>
      </trkpt>
      <trkpt lat="49.87307" lon="2.20293">
        <ele>78.4</ele>
        <time>2022-12-09T14:40:00Z</time>
      </trkpt>
      <trkpt lat="49.87308" lon="2.20294">
        <ele>78.4</ele>
        <time>2022-12-09T14:40:01Z</time>
      </trkpt>
      <trkpt lat="49.87309" lon="2.20297">
        <ele>78.4</ele>
        <time>2022-12-09T14:40:03Z</time>
      </trkpt>
      <trkpt lat="49.87309" lon="2.20298">
        <ele>78.4</ele>
        <time>2022-12-09T14:40:04Z</time>
      </trkpt>
      <trkpt lat="49.8731" lon="2.20301">
        <ele>78.4</ele>
        <time>2022-12-09T14:40:05Z</time>
      </trkpt>
      <trkpt lat="49.87311" lon="2.20303">
        <ele>78.4</ele>
        <time>2022-12-09T14:40:06Z</time>
      </trkpt>
      <trkpt lat="49.87312" lon="2.20305">
        <ele>78.4</ele>
        <time>2022-12-09T14:40:07Z</time>
      </trkpt>
      <trkpt lat="49.87312" lon="2.20306">
        <ele>78.4</ele>
        <time>2022-12-09T14:40:08Z</time>
      </trkpt>
      <trkpt lat="49.87313" lon="2.20309">
        <ele>78.4</ele>
        <time>2022-12-09T14:40:09Z</time>
      </trkpt>
      <trkpt lat="49.87314" lon="2.2031">
        <ele>78.4</ele>
        <time>2022-12-09T14:40:10Z</time>
      </trkpt>
      <trkpt lat="49.87314" lon="2.20311">
        <ele>78.4</ele>
        <time>2022-12-09T14:40:11Z</time>
      </trkpt>
      <trkpt lat="49.87315" lon="2.20313">
        <ele>78.4</ele>
        <time>2022-12-09T14:40:12Z</time>
      </trkpt>
      <trkpt lat="49.87315" lon="2.20315">
        <ele>78.4</ele>
        <time>2022-12-09T14:40:13Z</time>
      </trkpt>
      <trkpt lat="49.87316" lon="2.20316">
        <ele>78.4</ele>
        <time>2022-12-09T14:40:15Z</time>
      </trkpt>
      <trkpt lat="49.87316" lon="2.20317">
        <ele>78.4</ele>
        <time>2022-12-09T14:40:16Z</time>
      </trkpt>
      <trkpt lat="49.87317" lon="2.20319">
        <ele>78.4</ele>
        <time>2022-12-09T14:40:17Z</time>
      </trkpt>
      <trkpt lat="49.87317" lon="2.2032">
        <ele>78.4</ele>
        <time>2022-12-09T14:40:18Z</time>
      </trkpt>
      <trkpt lat="49.87318" lon="2.20322">
        <ele>78.4</ele>
        <time>2022-12-09T14:40:19Z</time>
      </trkpt>
      <trkpt lat="49.87318" lon="2.20323">
        <ele>78.4</ele>
        <time>2022-12-09T14:40:20Z</time>
      </trkpt>
      <trkpt lat="49.87319" lon="2.20325">
        <ele>78.4</ele>
        <time>2022-12-09T14:40:22Z</time>
      </trkpt>
      <trkpt lat="49.87319" lon="2.20326">
        <ele>78.4</ele>
        <time>2022-12-09T14:40:23Z</time>
      </trkpt>
      <trkpt lat="49.8732" lon="2.20328">
        <ele>78.4</ele>
        <time>2022-12-09T14:40:24Z</time>
      </trkpt>
      <trkpt lat="49.8732" lon="2.20329">
        <ele>78.4</ele>
        <time>2022-12-09T14:40:25Z</time>
      </trkpt>
      <trkpt lat="49.87321" lon="2.2033">
        <ele>78.4</ele>
        <time>2022-12-09T14:40:26Z</time>
      </trkpt>
      <trkpt lat="49.87321" lon="2.20332">
        <ele>78.5</ele>
        <time>2022-12-09T14:40:27Z</time>
      </trkpt>
      <trkpt lat="49.87322" lon="2.20334">
        <ele>78.5</ele>
        <time>2022-12-09T14:40:28Z</time>
      </trkpt>
      <trkpt lat="49.87322" lon="2.20335">
        <ele>78.5</ele>
        <time>2022-12-09T14:40:29Z</time>
      </trkpt>
      <trkpt lat="49.87323" lon="2.20337">
        <ele>78.5</ele>
        <time>2022-12-09T14:40:30Z</time>
      </trkpt>
      <trkpt lat="49.87324" lon="2.20338">
        <ele>78.5</ele>
        <time>2022-12-09T14:40:31Z</time>
      </trkpt>
      <trkpt lat="49.87324" lon="2.2034">
        <ele>78.5</ele>
        <time>2022-12-09T14:40:33Z</time>
      </trkpt>
      <trkpt lat="49.87325" lon="2.20341">
        <ele>78.5</ele>
        <time>2022-12-09T14:40:34Z</time>
      </trkpt>
      <trkpt lat="49.87326" lon="2.20343">
        <ele>78.5</ele>
        <time>2022-12-09T14:40:35Z</time>
      </trkpt>
      <trkpt lat="49.87326" lon="2.20344">
        <ele>78.5</ele>
        <time>2022-12-09T14:40:36Z</time>
      </trkpt>
      <trkpt lat="49.87327" lon="2.20346">
        <ele>78.5</ele>
        <time>2022-12-09T14:40:37Z</time>
      </trkpt>
      <trkpt lat="49.87327" lon="2.20347">
        <ele>78.5</ele>
        <time>2022-12-09T14:40:38Z</time>
      </trkpt>
      <trkpt lat="49.87327" lon="2.20349">
        <ele>78.5</ele>
        <time>2022-12-09T14:40:39Z</time>
      </trkpt>
      <trkpt lat="49.87328" lon="2.20351">
        <ele>78.5</ele>
        <time>2022-12-09T14:40:40Z</time>
      </trkpt>
      <trkpt lat="49.87328" lon="2.20352">
        <ele>78.5</ele>
        <time>2022-12-09T14:40:41Z</time>
      </trkpt>
      <trkpt lat="49.87329" lon="2.20354">
        <ele>78.5</ele>
        <time>2022-12-09T14:40:42Z</time>
      </trkpt>
      <trkpt lat="49.87329" lon="2.20356">
        <ele>78.5</ele>
        <time>2022-12-09T14:40:43Z</time>
      </trkpt>
      <trkpt lat="49.8733" lon="2.20358">
        <ele>78.5</ele>
        <time>2022-12-09T14:40:45Z</time>
      </trkpt>
      <trkpt lat="49.8733" lon="2.2036">
        <ele>78.5</ele>
        <time>2022-12-09T14:40:46Z</time>
      </trkpt>
      <trkpt lat="49.87331" lon="2.20362">
        <ele>78.5</ele>
        <time>2022-12-09T14:40:47Z</time>
      </trkpt>
      <trkpt lat="49.87331" lon="2.20363">
        <ele>78.5</ele>
        <time>2022-12-09T14:40:48Z</time>
      </trkpt>
      <trkpt lat="49.87332" lon="2.20365">
        <ele>78.6</ele>
        <time>2022-12-09T14:40:49Z</time>
      </trkpt>
      <trkpt lat="49.87332" lon="2.20367">
        <ele>78.6</ele>
        <time>2022-12-09T14:40:51Z</time>
      </trkpt>
      <trkpt lat="49.87333" lon="2.20369">
        <ele>78.6</ele>
        <time>2022-12-09T14:40:52Z</time>
      </trkpt>
      <trkpt lat="49.87334" lon="2.20371">
        <ele>78.6</ele>
        <time>2022-12-09T14:40:53Z</time>
      </trkpt>
      <trkpt lat="49.87335" lon="2.20374">
        <ele>78.6</ele>
        <time>2022-12-09T14:40:54Z</time>
      </trkpt>
      <trkpt lat="49.87335" lon="2.20375">
        <ele>78.6</ele>
        <time>2022-12-09T14:40:55Z</time>
      </trkpt>
      <trkpt lat="49.87336" lon="2.20376">
        <ele>78.6</ele>
        <time>2022-12-09T14:40:56Z</time>
      </trkpt>
      <trkpt lat="49.87336" lon="2.20378">
        <ele>78.6</ele>
        <time>2022-12-09T14:40:57Z</time>
      </trkpt>
      <trkpt lat="49.87337" lon="2.20379">
        <ele>78.6</ele>
        <time>2022-12-09T14:40:58Z</time>
      </trkpt>
      <trkpt lat="49.87338" lon="2.2038">
        <ele>78.7</ele>
        <time>2022-12-09T14:40:59Z</time>
      </trkpt>
      <trkpt lat="49.87339" lon="2.20383">
        <ele>78.7</ele>
        <time>2022-12-09T14:41:01Z</time>
      </trkpt>
      <trkpt lat="49.87339" lon="2.20384">
        <ele>78.7</ele>
        <time>2022-12-09T14:41:02Z</time>
      </trkpt>
      <trkpt lat="49.8734" lon="2.20385">
        <ele>78.7</ele>
        <time>2022-12-09T14:41:03Z</time>
      </trkpt>
      <trkpt lat="49.87341" lon="2.20387">
        <ele>78.7</ele>
        <time>2022-12-09T14:41:04Z</time>
      </trkpt>
      <trkpt lat="49.87342" lon="2.20388">
        <ele>78.7</ele>
        <time>2022-12-09T14:41:05Z</time>
      </trkpt>
      <trkpt lat="49.87342" lon="2.2039">
        <ele>78.8</ele>
        <time>2022-12-09T14:41:06Z</time>
      </trkpt>
      <trkpt lat="49.87343" lon="2.20391">
        <ele>78.8</ele>
        <time>2022-12-09T14:41:07Z</time>
      </trkpt>
      <trkpt lat="49.87343" lon="2.20393">
        <ele>78.8</ele>
        <time>2022-12-09T14:41:08Z</time>
      </trkpt>
      <trkpt lat="49.87344" lon="2.20394">
        <ele>78.8</ele>
        <time>2022-12-09T14:41:09Z</time>
      </trkpt>
      <trkpt lat="49.87345" lon="2.20397">
        <ele>78.8</ele>
        <time>2022-12-09T14:41:11Z</time>
      </trkpt>
      <trkpt lat="49.87345" lon="2.20398">
        <ele>78.8</ele>
        <time>2022-12-09T14:41:12Z</time>
      </trkpt>
      <trkpt lat="49.87346" lon="2.20399">
        <ele>78.8</ele>
        <time>2022-12-09T14:41:13Z</time>
      </trkpt>
      <trkpt lat="49.87347" lon="2.20401">
        <ele>78.9</ele>
        <time>2022-12-09T14:41:14Z</time>
      </trkpt>
      <trkpt lat="49.87348" lon="2.20402">
        <ele>78.9</ele>
        <time>2022-12-09T14:41:15Z</time>
      </trkpt>
      <trkpt lat="49.87348" lon="2.20403">
        <ele>78.9</ele>
        <time>2022-12-09T14:41:16Z</time>
      </trkpt>
      <trkpt lat="49.87349" lon="2.20405">
        <ele>78.9</ele>
        <time>2022-12-09T14:41:17Z</time>
      </trkpt>
      <trkpt lat="49.87349" lon="2.20406">
        <ele>78.9</ele>
        <time>2022-12-09T14:41:18Z</time>
      </trkpt>
      <trkpt lat="49.8735" lon="2.20408">
        <ele>79</ele>
        <time>2022-12-09T14:41:19Z</time>
      </trkpt>
      <trkpt lat="49.87351" lon="2.2041">
        <ele>79</ele>
        <time>2022-12-09T14:41:21Z</time>
      </trkpt>
      <trkpt lat="49.87352" lon="2.20411">
        <ele>79</ele>
        <time>2022-12-09T14:41:22Z</time>
      </trkpt>
      <trkpt lat="49.87352" lon="2.20412">
        <ele>79</ele>
        <time>2022-12-09T14:41:23Z</time>
      </trkpt>
      <trkpt lat="49.87353" lon="2.20413">
        <ele>79</ele>
        <time>2022-12-09T14:41:24Z</time>
      </trkpt>
      <trkpt lat="49.87354" lon="2.20415">
        <ele>79.1</ele>
        <time>2022-12-09T14:41:25Z</time>
      </trkpt>
      <trkpt lat="49.87354" lon="2.20416">
        <ele>79.1</ele>
        <time>2022-12-09T14:41:26Z</time>
      </trkpt>
      <trkpt lat="49.87355" lon="2.20417">
        <ele>79.1</ele>
        <time>2022-12-09T14:41:27Z</time>
      </trkpt>
      <trkpt lat="49.87355" lon="2.20419">
        <ele>79.1</ele>
        <time>2022-12-09T14:41:28Z</time>
      </trkpt>
      <trkpt lat="49.87356" lon="2.2042">
        <ele>79.1</ele>
        <time>2022-12-09T14:41:30Z</time>
      </trkpt>
      <trkpt lat="49.87356" lon="2.20422">
        <ele>79.2</ele>
        <time>2022-12-09T14:41:31Z</time>
      </trkpt>
      <trkpt lat="49.87357" lon="2.20423">
        <ele>79.2</ele>
        <time>2022-12-09T14:41:32Z</time>
      </trkpt>
      <trkpt lat="49.87358" lon="2.20425">
        <ele>79.2</ele>
        <time>2022-12-09T14:41:33Z</time>
      </trkpt>
      <trkpt lat="49.87358" lon="2.20426">
        <ele>79.2</ele>
        <time>2022-12-09T14:41:34Z</time>
      </trkpt>
      <trkpt lat="49.87359" lon="2.20428">
        <ele>79.3</ele>
        <time>2022-12-09T14:41:35Z</time>
      </trkpt>
      <trkpt lat="49.87359" lon="2.20429">
        <ele>79.3</ele>
        <time>2022-12-09T14:41:36Z</time>
      </trkpt>
      <trkpt lat="49.8736" lon="2.20431">
        <ele>79.3</ele>
        <time>2022-12-09T14:41:37Z</time>
      </trkpt>
      <trkpt lat="49.8736" lon="2.20432">
        <ele>79.3</ele>
        <time>2022-12-09T14:41:39Z</time>
      </trkpt>
      <trkpt lat="49.87361" lon="2.20434">
        <ele>79.4</ele>
        <time>2022-12-09T14:41:40Z</time>
      </trkpt>
      <trkpt lat="49.87362" lon="2.20437">
        <ele>79.4</ele>
        <time>2022-12-09T14:41:41Z</time>
      </trkpt>
      <trkpt lat="49.87362" lon="2.20438">
        <ele>79.4</ele>
        <time>2022-12-09T14:41:42Z</time>
      </trkpt>
      <trkpt lat="49.87362" lon="2.20439">
        <ele>79.5</ele>
        <time>2022-12-09T14:41:43Z</time>
      </trkpt>
      <trkpt lat="49.87363" lon="2.20441">
        <ele>79.5</ele>
        <time>2022-12-09T14:41:44Z</time>
      </trkpt>
      <trkpt lat="49.87363" lon="2.20443">
        <ele>79.5</ele>
        <time>2022-12-09T14:41:45Z</time>
      </trkpt>
      <trkpt lat="49.87364" lon="2.20444">
        <ele>79.5</ele>
        <time>2022-12-09T14:41:46Z</time>
      </trkpt>
      <trkpt lat="49.87364" lon="2.20445">
        <ele>79.6</ele>
        <time>2022-12-09T14:41:47Z</time>
      </trkpt>
      <trkpt lat="49.87365" lon="2.20447">
        <ele>79.6</ele>
        <time>2022-12-09T14:41:49Z</time>
      </trkpt>
      <trkpt lat="49.87365" lon="2.20448">
        <ele>79.7</ele>
        <time>2022-12-09T14:41:50Z</time>
      </trkpt>
      <trkpt lat="49.87366" lon="2.2045">
        <ele>79.7</ele>
        <time>2022-12-09T14:41:51Z</time>
      </trkpt>
      <trkpt lat="49.87366" lon="2.20452">
        <ele>79.7</ele>
        <time>2022-12-09T14:41:52Z</time>
      </trkpt>
      <trkpt lat="49.87367" lon="2.20453">
        <ele>79.8</ele>
        <time>2022-12-09T14:41:53Z</time>
      </trkpt>
      <trkpt lat="49.87367" lon="2.20455">
        <ele>79.8</ele>
        <time>2022-12-09T14:41:54Z</time>
      </trkpt>
      <trkpt lat="49.87368" lon="2.20456">
        <ele>79.8</ele>
        <time>2022-12-09T14:41:56Z</time>
      </trkpt>
      <trkpt lat="49.87368" lon="2.20458">
        <ele>79.9</ele>
        <time>2022-12-09T14:41:57Z</time>
      </trkpt>
      <trkpt lat="49.87369" lon="2.20461">
        <ele>79.9</ele>
        <time>2022-12-09T14:41:58Z</time>
      </trkpt>
      <trkpt lat="49.87369" lon="2.20462">
        <ele>79.9</ele>
        <time>2022-12-09T14:41:59Z</time>
      </trkpt>
      <trkpt lat="49.8737" lon="2.20463">
        <ele>80</ele>
        <time>2022-12-09T14:42:00Z</time>
      </trkpt>
      <trkpt lat="49.8737" lon="2.20465">
        <ele>80</ele>
        <time>2022-12-09T14:42:01Z</time>
      </trkpt>
      <trkpt lat="49.87371" lon="2.20466">
        <ele>80</ele>
        <time>2022-12-09T14:42:02Z</time>
      </trkpt>
      <trkpt lat="49.87371" lon="2.20468">
        <ele>80</ele>
        <time>2022-12-09T14:42:04Z</time>
      </trkpt>
      <trkpt lat="49.87372" lon="2.20469">
        <ele>80</ele>
        <time>2022-12-09T14:42:05Z</time>
      </trkpt>
      <trkpt lat="49.87373" lon="2.2047">
        <ele>80</ele>
        <time>2022-12-09T14:42:06Z</time>
      </trkpt>
      <trkpt lat="49.87373" lon="2.20471">
        <ele>80</ele>
        <time>2022-12-09T14:42:07Z</time>
      </trkpt>
      <trkpt lat="49.87373" lon="2.20473">
        <ele>80</ele>
        <time>2022-12-09T14:42:08Z</time>
      </trkpt>
      <trkpt lat="49.87373" lon="2.20474">
        <ele>80.1</ele>
        <time>2022-12-09T14:42:10Z</time>
      </trkpt>
      <trkpt lat="49.87373" lon="2.20476">
        <ele>80.2</ele>
        <time>2022-12-09T14:42:11Z</time>
      </trkpt>
      <trkpt lat="49.87373" lon="2.20477">
        <ele>80.2</ele>
        <time>2022-12-09T14:42:12Z</time>
      </trkpt>
      <trkpt lat="49.87373" lon="2.20479">
        <ele>80.3</ele>
        <time>2022-12-09T14:42:13Z</time>
      </trkpt>
      <trkpt lat="49.87373" lon="2.2048">
        <ele>80.3</ele>
        <time>2022-12-09T14:42:14Z</time>
      </trkpt>
      <trkpt lat="49.87373" lon="2.20481">
        <ele>80.3</ele>
        <time>2022-12-09T14:42:15Z</time>
      </trkpt>
      <trkpt lat="49.87373" lon="2.20483">
        <ele>80.4</ele>
        <time>2022-12-09T14:42:16Z</time>
      </trkpt>
      <trkpt lat="49.87373" lon="2.20484">
        <ele>80.4</ele>
        <time>2022-12-09T14:42:18Z</time>
      </trkpt>
      <trkpt lat="49.87372" lon="2.20486">
        <ele>80.5</ele>
        <time>2022-12-09T14:42:19Z</time>
      </trkpt>
      <trkpt lat="49.87372" lon="2.20487">
        <ele>80.5</ele>
        <time>2022-12-09T14:42:20Z</time>
      </trkpt>
      <trkpt lat="49.87372" lon="2.20488">
        <ele>80.6</ele>
        <time>2022-12-09T14:42:21Z</time>
      </trkpt>
      <trkpt lat="49.87372" lon="2.20489">
        <ele>80.6</ele>
        <time>2022-12-09T14:42:22Z</time>
      </trkpt>
      <trkpt lat="49.87371" lon="2.20491">
        <ele>80.7</ele>
        <time>2022-12-09T14:42:23Z</time>
      </trkpt>
      <trkpt lat="49.87371" lon="2.20492">
        <ele>80.7</ele>
        <time>2022-12-09T14:42:24Z</time>
      </trkpt>
      <trkpt lat="49.8737" lon="2.20493">
        <ele>80.8</ele>
        <time>2022-12-09T14:42:26Z</time>
      </trkpt>
      <trkpt lat="49.87369" lon="2.20494">
        <ele>80.8</ele>
        <time>2022-12-09T14:42:28Z</time>
      </trkpt>
      <trkpt lat="49.87368" lon="2.20494">
        <ele>80.9</ele>
        <time>2022-12-09T14:42:30Z</time>
      </trkpt>
      <trkpt lat="49.87367" lon="2.20494">
        <ele>80.9</ele>
        <time>2022-12-09T14:42:31Z</time>
      </trkpt>
      <trkpt lat="49.87366" lon="2.20495">
        <ele>80.9</ele>
        <time>2022-12-09T14:42:32Z</time>
      </trkpt>
      <trkpt lat="49.87366" lon="2.20496">
        <ele>81</ele>
        <time>2022-12-09T14:42:33Z</time>
      </trkpt>
      <trkpt lat="49.87366" lon="2.20497">
        <ele>81</ele>
        <time>2022-12-09T14:42:34Z</time>
      </trkpt>
      <trkpt lat="49.87365" lon="2.20498">
        <ele>81</ele>
        <time>2022-12-09T14:42:35Z</time>
      </trkpt>
      <trkpt lat="49.87365" lon="2.205">
        <ele>81.1</ele>
        <time>2022-12-09T14:42:36Z</time>
      </trkpt>
      <trkpt lat="49.87364" lon="2.20501">
        <ele>81.1</ele>
        <time>2022-12-09T14:42:38Z</time>
      </trkpt>
      <trkpt lat="49.87364" lon="2.20503">
        <ele>81.1</ele>
        <time>2022-12-09T14:42:39Z</time>
      </trkpt>
      <trkpt lat="49.87364" lon="2.20504">
        <ele>81.2</ele>
        <time>2022-12-09T14:42:40Z</time>
      </trkpt>
      <trkpt lat="49.87363" lon="2.20506">
        <ele>81.2</ele>
        <time>2022-12-09T14:42:41Z</time>
      </trkpt>
      <trkpt lat="49.87363" lon="2.20507">
        <ele>81.3</ele>
        <time>2022-12-09T14:42:42Z</time>
      </trkpt>
      <trkpt lat="49.87362" lon="2.20509">
        <ele>81.3</ele>
        <time>2022-12-09T14:42:43Z</time>
      </trkpt>
      <trkpt lat="49.87362" lon="2.2051">
        <ele>81.4</ele>
        <time>2022-12-09T14:42:44Z</time>
      </trkpt>
      <trkpt lat="49.87361" lon="2.20512">
        <ele>81.4</ele>
        <time>2022-12-09T14:42:45Z</time>
      </trkpt>
      <trkpt lat="49.87361" lon="2.20514">
        <ele>81.4</ele>
        <time>2022-12-09T14:42:46Z</time>
      </trkpt>
      <trkpt lat="49.8736" lon="2.20516">
        <ele>81.5</ele>
        <time>2022-12-09T14:42:48Z</time>
      </trkpt>
      <trkpt lat="49.87359" lon="2.20519">
        <ele>81.6</ele>
        <time>2022-12-09T14:42:49Z</time>
      </trkpt>
      <trkpt lat="49.87359" lon="2.20521">
        <ele>81.6</ele>
        <time>2022-12-09T14:42:50Z</time>
      </trkpt>
      <trkpt lat="49.87359" lon="2.20522">
        <ele>81.6</ele>
        <time>2022-12-09T14:42:51Z</time>
      </trkpt>
      <trkpt lat="49.87358" lon="2.20525">
        <ele>81.7</ele>
        <time>2022-12-09T14:42:52Z</time>
      </trkpt>
      <trkpt lat="49.87357" lon="2.20526">
        <ele>81.7</ele>
        <time>2022-12-09T14:42:53Z</time>
      </trkpt>
      <trkpt lat="49.87357" lon="2.20528">
        <ele>81.7</ele>
        <time>2022-12-09T14:42:55Z</time>
      </trkpt>
      <trkpt lat="49.87357" lon="2.20529">
        <ele>81.7</ele>
        <time>2022-12-09T14:42:56Z</time>
      </trkpt>
      <trkpt lat="49.87356" lon="2.2053">
        <ele>81.8</ele>
        <time>2022-12-09T14:42:57Z</time>
      </trkpt>
      <trkpt lat="49.87356" lon="2.20532">
        <ele>81.8</ele>
        <time>2022-12-09T14:42:58Z</time>
      </trkpt>
      <trkpt lat="49.87355" lon="2.20533">
        <ele>81.8</ele>
        <time>2022-12-09T14:42:59Z</time>
      </trkpt>
      <trkpt lat="49.87355" lon="2.20535">
        <ele>81.8</ele>
        <time>2022-12-09T14:43:00Z</time>
      </trkpt>
      <trkpt lat="49.87354" lon="2.20537">
        <ele>81.9</ele>
        <time>2022-12-09T14:43:01Z</time>
      </trkpt>
      <trkpt lat="49.87354" lon="2.20538">
        <ele>81.9</ele>
        <time>2022-12-09T14:43:02Z</time>
      </trkpt>
      <trkpt lat="49.87353" lon="2.20539">
        <ele>81.9</ele>
        <time>2022-12-09T14:43:03Z</time>
      </trkpt>
      <trkpt lat="49.87353" lon="2.2054">
        <ele>81.9</ele>
        <time>2022-12-09T14:43:04Z</time>
      </trkpt>
      <trkpt lat="49.87353" lon="2.20542">
        <ele>81.9</ele>
        <time>2022-12-09T14:43:05Z</time>
      </trkpt>
      <trkpt lat="49.87353" lon="2.20544">
        <ele>82</ele>
        <time>2022-12-09T14:43:07Z</time>
      </trkpt>
      <trkpt lat="49.87352" lon="2.20545">
        <ele>82</ele>
        <time>2022-12-09T14:43:08Z</time>
      </trkpt>
      <trkpt lat="49.87352" lon="2.20548">
        <ele>82</ele>
        <time>2022-12-09T14:43:09Z</time>
      </trkpt>
      <trkpt lat="49.87352" lon="2.2055">
        <ele>82</ele>
        <time>2022-12-09T14:43:10Z</time>
      </trkpt>
      <trkpt lat="49.87351" lon="2.20551">
        <ele>82</ele>
        <time>2022-12-09T14:43:11Z</time>
      </trkpt>
      <trkpt lat="49.87351" lon="2.20553">
        <ele>82.1</ele>
        <time>2022-12-09T14:43:12Z</time>
      </trkpt>
      <trkpt lat="49.8735" lon="2.20555">
        <ele>82.1</ele>
        <time>2022-12-09T14:43:13Z</time>
      </trkpt>
      <trkpt lat="49.8735" lon="2.20556">
        <ele>82.1</ele>
        <time>2022-12-09T14:43:14Z</time>
      </trkpt>
      <trkpt lat="49.87349" lon="2.20557">
        <ele>82.1</ele>
        <time>2022-12-09T14:43:15Z</time>
      </trkpt>
      <trkpt lat="49.87348" lon="2.20559">
        <ele>82.1</ele>
        <time>2022-12-09T14:43:17Z</time>
      </trkpt>
      <trkpt lat="49.87348" lon="2.2056">
        <ele>82.1</ele>
        <time>2022-12-09T14:43:18Z</time>
      </trkpt>
      <trkpt lat="49.87347" lon="2.20562">
        <ele>82.1</ele>
        <time>2022-12-09T14:43:19Z</time>
      </trkpt>
      <trkpt lat="49.87346" lon="2.20563">
        <ele>82.1</ele>
        <time>2022-12-09T14:43:20Z</time>
      </trkpt>
      <trkpt lat="49.87346" lon="2.20565">
        <ele>82.2</ele>
        <time>2022-12-09T14:43:21Z</time>
      </trkpt>
      <trkpt lat="49.87345" lon="2.20566">
        <ele>82.2</ele>
        <time>2022-12-09T14:43:22Z</time>
      </trkpt>
      <trkpt lat="49.87345" lon="2.20568">
        <ele>82.2</ele>
        <time>2022-12-09T14:43:23Z</time>
      </trkpt>
      <trkpt lat="49.87343" lon="2.20571">
        <ele>82.2</ele>
        <time>2022-12-09T14:43:24Z</time>
      </trkpt>
      <trkpt lat="49.87343" lon="2.20572">
        <ele>82.2</ele>
        <time>2022-12-09T14:43:25Z</time>
      </trkpt>
      <trkpt lat="49.87342" lon="2.20573">
        <ele>82.2</ele>
        <time>2022-12-09T14:43:27Z</time>
      </trkpt>
      <trkpt lat="49.87341" lon="2.20574">
        <ele>82.2</ele>
        <time>2022-12-09T14:43:28Z</time>
      </trkpt>
      <trkpt lat="49.87341" lon="2.20576">
        <ele>82.3</ele>
        <time>2022-12-09T14:43:29Z</time>
      </trkpt>
      <trkpt lat="49.8734" lon="2.20577">
        <ele>82.3</ele>
        <time>2022-12-09T14:43:30Z</time>
      </trkpt>
      <trkpt lat="49.87339" lon="2.20579">
        <ele>82.3</ele>
        <time>2022-12-09T14:43:31Z</time>
      </trkpt>
      <trkpt lat="49.87339" lon="2.2058">
        <ele>82.3</ele>
        <time>2022-12-09T14:43:32Z</time>
      </trkpt>
      <trkpt lat="49.87338" lon="2.20582">
        <ele>82.3</ele>
        <time>2022-12-09T14:43:34Z</time>
      </trkpt>
      <trkpt lat="49.87338" lon="2.20584">
        <ele>82.3</ele>
        <time>2022-12-09T14:43:35Z</time>
      </trkpt>
      <trkpt lat="49.87337" lon="2.20586">
        <ele>82.3</ele>
        <time>2022-12-09T14:43:36Z</time>
      </trkpt>
      <trkpt lat="49.87337" lon="2.20587">
        <ele>82.3</ele>
        <time>2022-12-09T14:43:37Z</time>
      </trkpt>
      <trkpt lat="49.87336" lon="2.20588">
        <ele>82.4</ele>
        <time>2022-12-09T14:43:38Z</time>
      </trkpt>
      <trkpt lat="49.87335" lon="2.20589">
        <ele>82.4</ele>
        <time>2022-12-09T14:43:39Z</time>
      </trkpt>
      <trkpt lat="49.87334" lon="2.2059">
        <ele>82.4</ele>
        <time>2022-12-09T14:43:40Z</time>
      </trkpt>
      <trkpt lat="49.87333" lon="2.20591">
        <ele>82.4</ele>
        <time>2022-12-09T14:43:42Z</time>
      </trkpt>
      <trkpt lat="49.87333" lon="2.20592">
        <ele>82.4</ele>
        <time>2022-12-09T14:43:43Z</time>
      </trkpt>
      <trkpt lat="49.87332" lon="2.20593">
        <ele>82.4</ele>
        <time>2022-12-09T14:43:44Z</time>
      </trkpt>
      <trkpt lat="49.87332" lon="2.20595">
        <ele>82.4</ele>
        <time>2022-12-09T14:43:45Z</time>
      </trkpt>
      <trkpt lat="49.87331" lon="2.20596">
        <ele>82.4</ele>
        <time>2022-12-09T14:43:46Z</time>
      </trkpt>
      <trkpt lat="49.87331" lon="2.20598">
        <ele>82.4</ele>
        <time>2022-12-09T14:43:47Z</time>
      </trkpt>
      <trkpt lat="49.87331" lon="2.206">
        <ele>82.4</ele>
        <time>2022-12-09T14:43:48Z</time>
      </trkpt>
      <trkpt lat="49.87332" lon="2.20601">
        <ele>82.4</ele>
        <time>2022-12-09T14:43:49Z</time>
      </trkpt>
      <trkpt lat="49.87333" lon="2.20603">
        <ele>82.4</ele>
        <time>2022-12-09T14:43:51Z</time>
      </trkpt>
      <trkpt lat="49.87332" lon="2.20605">
        <ele>82.4</ele>
        <time>2022-12-09T14:43:52Z</time>
      </trkpt>
      <trkpt lat="49.87332" lon="2.20607">
        <ele>82.4</ele>
        <time>2022-12-09T14:43:53Z</time>
      </trkpt>
      <trkpt lat="49.87331" lon="2.20608">
        <ele>82.4</ele>
        <time>2022-12-09T14:43:54Z</time>
      </trkpt>
      <trkpt lat="49.8733" lon="2.2061">
        <ele>82.4</ele>
        <time>2022-12-09T14:43:55Z</time>
      </trkpt>
      <trkpt lat="49.87329" lon="2.20611">
        <ele>82.4</ele>
        <time>2022-12-09T14:43:56Z</time>
      </trkpt>
      <trkpt lat="49.87329" lon="2.20612">
        <ele>82.5</ele>
        <time>2022-12-09T14:43:57Z</time>
      </trkpt>
      <trkpt lat="49.87328" lon="2.20614">
        <ele>82.5</ele>
        <time>2022-12-09T14:43:58Z</time>
      </trkpt>
      <trkpt lat="49.87327" lon="2.20615">
        <ele>82.5</ele>
        <time>2022-12-09T14:43:59Z</time>
      </trkpt>
      <trkpt lat="49.87325" lon="2.20618">
        <ele>82.5</ele>
        <time>2022-12-09T14:44:00Z</time>
      </trkpt>
      <trkpt lat="49.87325" lon="2.20619">
        <ele>82.5</ele>
        <time>2022-12-09T14:44:01Z</time>
      </trkpt>
      <trkpt lat="49.87324" lon="2.2062">
        <ele>82.5</ele>
        <time>2022-12-09T14:44:02Z</time>
      </trkpt>
      <trkpt lat="49.87323" lon="2.20622">
        <ele>82.5</ele>
        <time>2022-12-09T14:44:04Z</time>
      </trkpt>
      <trkpt lat="49.87322" lon="2.20624">
        <ele>82.5</ele>
        <time>2022-12-09T14:44:05Z</time>
      </trkpt>
      <trkpt lat="49.87321" lon="2.20625">
        <ele>82.5</ele>
        <time>2022-12-09T14:44:06Z</time>
      </trkpt>
      <trkpt lat="49.8732" lon="2.20626">
        <ele>82.5</ele>
        <time>2022-12-09T14:44:07Z</time>
      </trkpt>
      <trkpt lat="49.87319" lon="2.20627">
        <ele>82.5</ele>
        <time>2022-12-09T14:44:09Z</time>
      </trkpt>
      <trkpt lat="49.87318" lon="2.20629">
        <ele>82.5</ele>
        <time>2022-12-09T14:44:11Z</time>
      </trkpt>
      <trkpt lat="49.87318" lon="2.20631">
        <ele>82.5</ele>
        <time>2022-12-09T14:44:12Z</time>
      </trkpt>
      <trkpt lat="49.87317" lon="2.20633">
        <ele>82.6</ele>
        <time>2022-12-09T14:44:13Z</time>
      </trkpt>
      <trkpt lat="49.87317" lon="2.20634">
        <ele>82.6</ele>
        <time>2022-12-09T14:44:14Z</time>
      </trkpt>
      <trkpt lat="49.87316" lon="2.20636">
        <ele>82.6</ele>
        <time>2022-12-09T14:44:15Z</time>
      </trkpt>
      <trkpt lat="49.87315" lon="2.20638">
        <ele>82.6</ele>
        <time>2022-12-09T14:44:16Z</time>
      </trkpt>
      <trkpt lat="49.87314" lon="2.2064">
        <ele>82.6</ele>
        <time>2022-12-09T14:44:17Z</time>
      </trkpt>
      <trkpt lat="49.87313" lon="2.20641">
        <ele>82.6</ele>
        <time>2022-12-09T14:44:19Z</time>
      </trkpt>
      <trkpt lat="49.87313" lon="2.20642">
        <ele>82.6</ele>
        <time>2022-12-09T14:44:20Z</time>
      </trkpt>
      <trkpt lat="49.87312" lon="2.20644">
        <ele>82.6</ele>
        <time>2022-12-09T14:44:21Z</time>
      </trkpt>
      <trkpt lat="49.87312" lon="2.20645">
        <ele>82.6</ele>
        <time>2022-12-09T14:44:22Z</time>
      </trkpt>
      <trkpt lat="49.87311" lon="2.20646">
        <ele>82.6</ele>
        <time>2022-12-09T14:44:23Z</time>
      </trkpt>
      <trkpt lat="49.87311" lon="2.20647">
        <ele>82.6</ele>
        <time>2022-12-09T14:44:24Z</time>
      </trkpt>
      <trkpt lat="49.8731" lon="2.20649">
        <ele>82.6</ele>
        <time>2022-12-09T14:44:26Z</time>
      </trkpt>
      <trkpt lat="49.8731" lon="2.2065">
        <ele>82.6</ele>
        <time>2022-12-09T14:44:27Z</time>
      </trkpt>
      <trkpt lat="49.87309" lon="2.20651">
        <ele>82.6</ele>
        <time>2022-12-09T14:44:28Z</time>
      </trkpt>
      <trkpt lat="49.87308" lon="2.20653">
        <ele>82.7</ele>
        <time>2022-12-09T14:44:29Z</time>
      </trkpt>
      <trkpt lat="49.87308" lon="2.20654">
        <ele>82.7</ele>
        <time>2022-12-09T14:44:30Z</time>
      </trkpt>
      <trkpt lat="49.87307" lon="2.20655">
        <ele>82.7</ele>
        <time>2022-12-09T14:44:31Z</time>
      </trkpt>
      <trkpt lat="49.87307" lon="2.20657">
        <ele>82.7</ele>
        <time>2022-12-09T14:44:32Z</time>
      </trkpt>
      <trkpt lat="49.87306" lon="2.20658">
        <ele>82.7</ele>
        <time>2022-12-09T14:44:33Z</time>
      </trkpt>
      <trkpt lat="49.87305" lon="2.2066">
        <ele>82.7</ele>
        <time>2022-12-09T14:44:34Z</time>
      </trkpt>
      <trkpt lat="49.87305" lon="2.20661">
        <ele>82.7</ele>
        <time>2022-12-09T14:44:35Z</time>
      </trkpt>
      <trkpt lat="49.87304" lon="2.20662">
        <ele>82.7</ele>
        <time>2022-12-09T14:44:36Z</time>
      </trkpt>
      <trkpt lat="49.87303" lon="2.20663">
        <ele>82.7</ele>
        <time>2022-12-09T14:44:37Z</time>
      </trkpt>
      <trkpt lat="49.87303" lon="2.20664">
        <ele>82.7</ele>
        <time>2022-12-09T14:44:38Z</time>
      </trkpt>
      <trkpt lat="49.87302" lon="2.20666">
        <ele>82.7</ele>
        <time>2022-12-09T14:44:40Z</time>
      </trkpt>
      <trkpt lat="49.87302" lon="2.20667">
        <ele>82.7</ele>
        <time>2022-12-09T14:44:41Z</time>
      </trkpt>
      <trkpt lat="49.87301" lon="2.20669">
        <ele>82.7</ele>
        <time>2022-12-09T14:44:42Z</time>
      </trkpt>
      <trkpt lat="49.873" lon="2.2067">
        <ele>82.7</ele>
        <time>2022-12-09T14:44:43Z</time>
      </trkpt>
      <trkpt lat="49.873" lon="2.20672">
        <ele>82.8</ele>
        <time>2022-12-09T14:44:44Z</time>
      </trkpt>
      <trkpt lat="49.87299" lon="2.20674">
        <ele>82.8</ele>
        <time>2022-12-09T14:44:45Z</time>
      </trkpt>
      <trkpt lat="49.87298" lon="2.20676">
        <ele>82.8</ele>
        <time>2022-12-09T14:44:46Z</time>
      </trkpt>
      <trkpt lat="49.87298" lon="2.20678">
        <ele>82.8</ele>
        <time>2022-12-09T14:44:47Z</time>
      </trkpt>
      <trkpt lat="49.87297" lon="2.20679">
        <ele>82.8</ele>
        <time>2022-12-09T14:44:48Z</time>
      </trkpt>
      <trkpt lat="49.87296" lon="2.2068">
        <ele>82.8</ele>
        <time>2022-12-09T14:44:49Z</time>
      </trkpt>
      <trkpt lat="49.87296" lon="2.20682">
        <ele>82.8</ele>
        <time>2022-12-09T14:44:50Z</time>
      </trkpt>
      <trkpt lat="49.87295" lon="2.20683">
        <ele>82.8</ele>
        <time>2022-12-09T14:44:51Z</time>
      </trkpt>
      <trkpt lat="49.87294" lon="2.20685">
        <ele>82.8</ele>
        <time>2022-12-09T14:44:52Z</time>
      </trkpt>
      <trkpt lat="49.87294" lon="2.20686">
        <ele>82.8</ele>
        <time>2022-12-09T14:44:54Z</time>
      </trkpt>
      <trkpt lat="49.87293" lon="2.20688">
        <ele>82.8</ele>
        <time>2022-12-09T14:44:55Z</time>
      </trkpt>
      <trkpt lat="49.87292" lon="2.20691">
        <ele>82.8</ele>
        <time>2022-12-09T14:44:56Z</time>
      </trkpt>
      <trkpt lat="49.87292" lon="2.20692">
        <ele>82.8</ele>
        <time>2022-12-09T14:44:57Z</time>
      </trkpt>
      <trkpt lat="49.87292" lon="2.20693">
        <ele>82.8</ele>
        <time>2022-12-09T14:44:58Z</time>
      </trkpt>
      <trkpt lat="49.87291" lon="2.20696">
        <ele>82.8</ele>
        <time>2022-12-09T14:44:59Z</time>
      </trkpt>
      <trkpt lat="49.8729" lon="2.20697">
        <ele>82.8</ele>
        <time>2022-12-09T14:45:00Z</time>
      </trkpt>
      <trkpt lat="49.8729" lon="2.20699">
        <ele>82.8</ele>
        <time>2022-12-09T14:45:01Z</time>
      </trkpt>
      <trkpt lat="49.87289" lon="2.20701">
        <ele>82.8</ele>
        <time>2022-12-09T14:45:02Z</time>
      </trkpt>
      <trkpt lat="49.87289" lon="2.20703">
        <ele>82.8</ele>
        <time>2022-12-09T14:45:04Z</time>
      </trkpt>
      <trkpt lat="49.87288" lon="2.20705">
        <ele>82.8</ele>
        <time>2022-12-09T14:45:05Z</time>
      </trkpt>
      <trkpt lat="49.87287" lon="2.20707">
        <ele>82.8</ele>
        <time>2022-12-09T14:45:06Z</time>
      </trkpt>
      <trkpt lat="49.87287" lon="2.2071">
        <ele>82.8</ele>
        <time>2022-12-09T14:45:07Z</time>
      </trkpt>
      <trkpt lat="49.87286" lon="2.20711">
        <ele>82.8</ele>
        <time>2022-12-09T14:45:08Z</time>
      </trkpt>
      <trkpt lat="49.87286" lon="2.20712">
        <ele>82.8</ele>
        <time>2022-12-09T14:45:09Z</time>
      </trkpt>
      <trkpt lat="49.87286" lon="2.20713">
        <ele>82.8</ele>
        <time>2022-12-09T14:45:10Z</time>
      </trkpt>
      <trkpt lat="49.87285" lon="2.20715">
        <ele>82.8</ele>
        <time>2022-12-09T14:45:11Z</time>
      </trkpt>
      <trkpt lat="49.87285" lon="2.20716">
        <ele>82.8</ele>
        <time>2022-12-09T14:45:12Z</time>
      </trkpt>
      <trkpt lat="49.87284" lon="2.20719">
        <ele>82.8</ele>
        <time>2022-12-09T14:45:13Z</time>
      </trkpt>
      <trkpt lat="49.87283" lon="2.2072">
        <ele>82.8</ele>
        <time>2022-12-09T14:45:15Z</time>
      </trkpt>
      <trkpt lat="49.87283" lon="2.20722">
        <ele>82.8</ele>
        <time>2022-12-09T14:45:16Z</time>
      </trkpt>
      <trkpt lat="49.87282" lon="2.20724">
        <ele>82.8</ele>
        <time>2022-12-09T14:45:17Z</time>
      </trkpt>
      <trkpt lat="49.87282" lon="2.20725">
        <ele>82.8</ele>
        <time>2022-12-09T14:45:18Z</time>
      </trkpt>
      <trkpt lat="49.87281" lon="2.20727">
        <ele>82.8</ele>
        <time>2022-12-09T14:45:19Z</time>
      </trkpt>
      <trkpt lat="49.8728" lon="2.2073">
        <ele>82.8</ele>
        <time>2022-12-09T14:45:20Z</time>
      </trkpt>
      <trkpt lat="49.8728" lon="2.20731">
        <ele>82.8</ele>
        <time>2022-12-09T14:45:22Z</time>
      </trkpt>
      <trkpt lat="49.8728" lon="2.20732">
        <ele>82.8</ele>
        <time>2022-12-09T14:45:23Z</time>
      </trkpt>
      <trkpt lat="49.87279" lon="2.20735">
        <ele>82.8</ele>
        <time>2022-12-09T14:45:24Z</time>
      </trkpt>
      <trkpt lat="49.87278" lon="2.20736">
        <ele>82.8</ele>
        <time>2022-12-09T14:45:25Z</time>
      </trkpt>
      <trkpt lat="49.87278" lon="2.20737">
        <ele>82.8</ele>
        <time>2022-12-09T14:45:26Z</time>
      </trkpt>
      <trkpt lat="49.87277" lon="2.2074">
        <ele>82.8</ele>
        <time>2022-12-09T14:45:27Z</time>
      </trkpt>
      <trkpt lat="49.87277" lon="2.20741">
        <ele>82.8</ele>
        <time>2022-12-09T14:45:28Z</time>
      </trkpt>
      <trkpt lat="49.87276" lon="2.20742">
        <ele>82.8</ele>
        <time>2022-12-09T14:45:29Z</time>
      </trkpt>
      <trkpt lat="49.87275" lon="2.20745">
        <ele>82.8</ele>
        <time>2022-12-09T14:45:30Z</time>
      </trkpt>
      <trkpt lat="49.87275" lon="2.20746">
        <ele>82.8</ele>
        <time>2022-12-09T14:45:31Z</time>
      </trkpt>
      <trkpt lat="49.87274" lon="2.20747">
        <ele>82.8</ele>
        <time>2022-12-09T14:45:32Z</time>
      </trkpt>
      <trkpt lat="49.87273" lon="2.2075">
        <ele>82.8</ele>
        <time>2022-12-09T14:45:33Z</time>
      </trkpt>
      <trkpt lat="49.87272" lon="2.20751">
        <ele>82.8</ele>
        <time>2022-12-09T14:45:35Z</time>
      </trkpt>
      <trkpt lat="49.87272" lon="2.20752">
        <ele>82.8</ele>
        <time>2022-12-09T14:45:36Z</time>
      </trkpt>
      <trkpt lat="49.87271" lon="2.20754">
        <ele>82.8</ele>
        <time>2022-12-09T14:45:37Z</time>
      </trkpt>
      <trkpt lat="49.8727" lon="2.20755">
        <ele>82.8</ele>
        <time>2022-12-09T14:45:38Z</time>
      </trkpt>
      <trkpt lat="49.87269" lon="2.20759">
        <ele>82.7</ele>
        <time>2022-12-09T14:45:39Z</time>
      </trkpt>
      <trkpt lat="49.87269" lon="2.2076">
        <ele>82.7</ele>
        <time>2022-12-09T14:45:40Z</time>
      </trkpt>
      <trkpt lat="49.87269" lon="2.20761">
        <ele>82.7</ele>
        <time>2022-12-09T14:45:41Z</time>
      </trkpt>
      <trkpt lat="49.87268" lon="2.20764">
        <ele>82.7</ele>
        <time>2022-12-09T14:45:42Z</time>
      </trkpt>
      <trkpt lat="49.87268" lon="2.20766">
        <ele>82.7</ele>
        <time>2022-12-09T14:45:43Z</time>
      </trkpt>
      <trkpt lat="49.87268" lon="2.20767">
        <ele>82.7</ele>
        <time>2022-12-09T14:45:44Z</time>
      </trkpt>
      <trkpt lat="49.87267" lon="2.2077">
        <ele>82.7</ele>
        <time>2022-12-09T14:45:45Z</time>
      </trkpt>
      <trkpt lat="49.87267" lon="2.20771">
        <ele>82.7</ele>
        <time>2022-12-09T14:45:46Z</time>
      </trkpt>
      <trkpt lat="49.87266" lon="2.20773">
        <ele>82.7</ele>
        <time>2022-12-09T14:45:48Z</time>
      </trkpt>
      <trkpt lat="49.87266" lon="2.20774">
        <ele>82.7</ele>
        <time>2022-12-09T14:45:49Z</time>
      </trkpt>
      <trkpt lat="49.87266" lon="2.20776">
        <ele>82.7</ele>
        <time>2022-12-09T14:45:50Z</time>
      </trkpt>
      <trkpt lat="49.87265" lon="2.20777">
        <ele>82.7</ele>
        <time>2022-12-09T14:45:51Z</time>
      </trkpt>
      <trkpt lat="49.87265" lon="2.20779">
        <ele>82.7</ele>
        <time>2022-12-09T14:45:52Z</time>
      </trkpt>
      <trkpt lat="49.87264" lon="2.20781">
        <ele>82.7</ele>
        <time>2022-12-09T14:45:53Z</time>
      </trkpt>
      <trkpt lat="49.87264" lon="2.20784">
        <ele>82.7</ele>
        <time>2022-12-09T14:45:54Z</time>
      </trkpt>
      <trkpt lat="49.87263" lon="2.20786">
        <ele>82.7</ele>
        <time>2022-12-09T14:45:55Z</time>
      </trkpt>
      <trkpt lat="49.87263" lon="2.20787">
        <ele>82.7</ele>
        <time>2022-12-09T14:45:56Z</time>
      </trkpt>
      <trkpt lat="49.87262" lon="2.20788">
        <ele>82.7</ele>
        <time>2022-12-09T14:45:57Z</time>
      </trkpt>
      <trkpt lat="49.87261" lon="2.20789">
        <ele>82.7</ele>
        <time>2022-12-09T14:45:58Z</time>
      </trkpt>
      <trkpt lat="49.87259" lon="2.20792">
        <ele>82.7</ele>
        <time>2022-12-09T14:46:00Z</time>
      </trkpt>
      <trkpt lat="49.87259" lon="2.20793">
        <ele>82.7</ele>
        <time>2022-12-09T14:46:01Z</time>
      </trkpt>
      <trkpt lat="49.87258" lon="2.20794">
        <ele>82.7</ele>
        <time>2022-12-09T14:46:02Z</time>
      </trkpt>
      <trkpt lat="49.87257" lon="2.20796">
        <ele>82.7</ele>
        <time>2022-12-09T14:46:03Z</time>
      </trkpt>
      <trkpt lat="49.87256" lon="2.20797">
        <ele>82.7</ele>
        <time>2022-12-09T14:46:04Z</time>
      </trkpt>
      <trkpt lat="49.87255" lon="2.20798">
        <ele>82.7</ele>
        <time>2022-12-09T14:46:05Z</time>
      </trkpt>
      <trkpt lat="49.87254" lon="2.208">
        <ele>82.7</ele>
        <time>2022-12-09T14:46:06Z</time>
      </trkpt>
      <trkpt lat="49.87254" lon="2.20801">
        <ele>82.7</ele>
        <time>2022-12-09T14:46:07Z</time>
      </trkpt>
      <trkpt lat="49.87253" lon="2.20802">
        <ele>82.7</ele>
        <time>2022-12-09T14:46:08Z</time>
      </trkpt>
      <trkpt lat="49.87253" lon="2.20804">
        <ele>82.7</ele>
        <time>2022-12-09T14:46:09Z</time>
      </trkpt>
      <trkpt lat="49.87252" lon="2.20805">
        <ele>82.7</ele>
        <time>2022-12-09T14:46:11Z</time>
      </trkpt>
      <trkpt lat="49.87251" lon="2.20807">
        <ele>82.7</ele>
        <time>2022-12-09T14:46:12Z</time>
      </trkpt>
      <trkpt lat="49.87251" lon="2.20809">
        <ele>82.7</ele>
        <time>2022-12-09T14:46:13Z</time>
      </trkpt>
      <trkpt lat="49.8725" lon="2.2081">
        <ele>82.7</ele>
        <time>2022-12-09T14:46:14Z</time>
      </trkpt>
      <trkpt lat="49.8725" lon="2.20811">
        <ele>82.7</ele>
        <time>2022-12-09T14:46:15Z</time>
      </trkpt>
      <trkpt lat="49.87249" lon="2.20813">
        <ele>82.7</ele>
        <time>2022-12-09T14:46:16Z</time>
      </trkpt>
      <trkpt lat="49.87249" lon="2.20815">
        <ele>82.7</ele>
        <time>2022-12-09T14:46:18Z</time>
      </trkpt>
      <trkpt lat="49.87249" lon="2.20817">
        <ele>82.7</ele>
        <time>2022-12-09T14:46:19Z</time>
      </trkpt>
      <trkpt lat="49.87248" lon="2.2082">
        <ele>82.7</ele>
        <time>2022-12-09T14:46:20Z</time>
      </trkpt>
      <trkpt lat="49.87248" lon="2.20821">
        <ele>82.7</ele>
        <time>2022-12-09T14:46:21Z</time>
      </trkpt>
      <trkpt lat="49.87248" lon="2.20822">
        <ele>82.7</ele>
        <time>2022-12-09T14:46:22Z</time>
      </trkpt>
      <trkpt lat="49.87248" lon="2.20825">
        <ele>82.7</ele>
        <time>2022-12-09T14:46:23Z</time>
      </trkpt>
      <trkpt lat="49.87248" lon="2.20827">
        <ele>82.7</ele>
        <time>2022-12-09T14:46:24Z</time>
      </trkpt>
      <trkpt lat="49.87248" lon="2.20828">
        <ele>82.8</ele>
        <time>2022-12-09T14:46:25Z</time>
      </trkpt>
      <trkpt lat="49.87248" lon="2.20831">
        <ele>82.8</ele>
        <time>2022-12-09T14:46:26Z</time>
      </trkpt>
      <trkpt lat="49.87247" lon="2.20833">
        <ele>82.8</ele>
        <time>2022-12-09T14:46:28Z</time>
      </trkpt>
      <trkpt lat="49.87247" lon="2.20834">
        <ele>82.8</ele>
        <time>2022-12-09T14:46:29Z</time>
      </trkpt>
      <trkpt lat="49.87247" lon="2.20836">
        <ele>82.8</ele>
        <time>2022-12-09T14:46:30Z</time>
      </trkpt>
      <trkpt lat="49.87247" lon="2.20838">
        <ele>82.9</ele>
        <time>2022-12-09T14:46:31Z</time>
      </trkpt>
      <trkpt lat="49.87247" lon="2.2084">
        <ele>82.9</ele>
        <time>2022-12-09T14:46:32Z</time>
      </trkpt>
      <trkpt lat="49.87247" lon="2.20841">
        <ele>82.9</ele>
        <time>2022-12-09T14:46:33Z</time>
      </trkpt>
      <trkpt lat="49.87247" lon="2.20843">
        <ele>82.9</ele>
        <time>2022-12-09T14:46:35Z</time>
      </trkpt>
      <trkpt lat="49.87247" lon="2.20845">
        <ele>82.9</ele>
        <time>2022-12-09T14:46:36Z</time>
      </trkpt>
      <trkpt lat="49.87247" lon="2.20848">
        <ele>83</ele>
        <time>2022-12-09T14:46:37Z</time>
      </trkpt>
      <trkpt lat="49.87247" lon="2.20849">
        <ele>83</ele>
        <time>2022-12-09T14:46:38Z</time>
      </trkpt>
      <trkpt lat="49.87247" lon="2.20851">
        <ele>83</ele>
        <time>2022-12-09T14:46:39Z</time>
      </trkpt>
      <trkpt lat="49.87247" lon="2.20854">
        <ele>83</ele>
        <time>2022-12-09T14:46:40Z</time>
      </trkpt>
      <trkpt lat="49.87247" lon="2.20855">
        <ele>83.1</ele>
        <time>2022-12-09T14:46:41Z</time>
      </trkpt>
      <trkpt lat="49.87247" lon="2.20857">
        <ele>83.1</ele>
        <time>2022-12-09T14:46:42Z</time>
      </trkpt>
      <trkpt lat="49.87247" lon="2.20859">
        <ele>83.1</ele>
        <time>2022-12-09T14:46:44Z</time>
      </trkpt>
      <trkpt lat="49.87246" lon="2.2086">
        <ele>83.1</ele>
        <time>2022-12-09T14:46:45Z</time>
      </trkpt>
      <trkpt lat="49.87246" lon="2.20862">
        <ele>83.1</ele>
        <time>2022-12-09T14:46:46Z</time>
      </trkpt>
      <trkpt lat="49.87246" lon="2.20864">
        <ele>83.1</ele>
        <time>2022-12-09T14:46:47Z</time>
      </trkpt>
      <trkpt lat="49.87246" lon="2.20865">
        <ele>83.2</ele>
        <time>2022-12-09T14:46:48Z</time>
      </trkpt>
      <trkpt lat="49.87245" lon="2.20867">
        <ele>83.2</ele>
        <time>2022-12-09T14:46:49Z</time>
      </trkpt>
      <trkpt lat="49.87245" lon="2.2087">
        <ele>83.2</ele>
        <time>2022-12-09T14:46:50Z</time>
      </trkpt>
      <trkpt lat="49.87245" lon="2.20871">
        <ele>83.2</ele>
        <time>2022-12-09T14:46:51Z</time>
      </trkpt>
      <trkpt lat="49.87244" lon="2.20873">
        <ele>83.2</ele>
        <time>2022-12-09T14:46:52Z</time>
      </trkpt>
      <trkpt lat="49.87244" lon="2.20875">
        <ele>83.3</ele>
        <time>2022-12-09T14:46:53Z</time>
      </trkpt>
      <trkpt lat="49.87244" lon="2.20877">
        <ele>83.3</ele>
        <time>2022-12-09T14:46:54Z</time>
      </trkpt>
      <trkpt lat="49.87243" lon="2.20879">
        <ele>83.3</ele>
        <time>2022-12-09T14:46:56Z</time>
      </trkpt>
      <trkpt lat="49.87243" lon="2.20881">
        <ele>83.4</ele>
        <time>2022-12-09T14:46:57Z</time>
      </trkpt>
      <trkpt lat="49.87243" lon="2.20884">
        <ele>83.4</ele>
        <time>2022-12-09T14:46:58Z</time>
      </trkpt>
      <trkpt lat="49.87242" lon="2.20886">
        <ele>83.4</ele>
        <time>2022-12-09T14:46:59Z</time>
      </trkpt>
      <trkpt lat="49.87242" lon="2.20888">
        <ele>83.4</ele>
        <time>2022-12-09T14:47:00Z</time>
      </trkpt>
      <trkpt lat="49.87242" lon="2.2089">
        <ele>83.5</ele>
        <time>2022-12-09T14:47:01Z</time>
      </trkpt>
      <trkpt lat="49.87242" lon="2.20891">
        <ele>83.5</ele>
        <time>2022-12-09T14:47:02Z</time>
      </trkpt>
      <trkpt lat="49.87242" lon="2.20893">
        <ele>83.5</ele>
        <time>2022-12-09T14:47:03Z</time>
      </trkpt>
      <trkpt lat="49.87241" lon="2.20894">
        <ele>83.5</ele>
        <time>2022-12-09T14:47:04Z</time>
      </trkpt>
      <trkpt lat="49.87241" lon="2.20896">
        <ele>83.6</ele>
        <time>2022-12-09T14:47:05Z</time>
      </trkpt>
      <trkpt lat="49.87241" lon="2.20897">
        <ele>83.6</ele>
        <time>2022-12-09T14:47:07Z</time>
      </trkpt>
      <trkpt lat="49.8724" lon="2.20899">
        <ele>83.6</ele>
        <time>2022-12-09T14:47:08Z</time>
      </trkpt>
      <trkpt lat="49.8724" lon="2.20902">
        <ele>83.6</ele>
        <time>2022-12-09T14:47:09Z</time>
      </trkpt>
      <trkpt lat="49.87239" lon="2.20905">
        <ele>83.7</ele>
        <time>2022-12-09T14:47:10Z</time>
      </trkpt>
      <trkpt lat="49.87239" lon="2.20906">
        <ele>83.7</ele>
        <time>2022-12-09T14:47:11Z</time>
      </trkpt>
      <trkpt lat="49.87239" lon="2.20908">
        <ele>83.7</ele>
        <time>2022-12-09T14:47:12Z</time>
      </trkpt>
      <trkpt lat="49.87238" lon="2.20911">
        <ele>83.8</ele>
        <time>2022-12-09T14:47:14Z</time>
      </trkpt>
      <trkpt lat="49.87238" lon="2.20912">
        <ele>83.8</ele>
        <time>2022-12-09T14:47:15Z</time>
      </trkpt>
      <trkpt lat="49.87237" lon="2.20913">
        <ele>83.8</ele>
        <time>2022-12-09T14:47:16Z</time>
      </trkpt>
      <trkpt lat="49.87237" lon="2.20915">
        <ele>83.8</ele>
        <time>2022-12-09T14:47:17Z</time>
      </trkpt>
      <trkpt lat="49.87237" lon="2.20916">
        <ele>83.9</ele>
        <time>2022-12-09T14:47:18Z</time>
      </trkpt>
      <trkpt lat="49.87236" lon="2.20918">
        <ele>83.9</ele>
        <time>2022-12-09T14:47:19Z</time>
      </trkpt>
      <trkpt lat="49.87236" lon="2.2092">
        <ele>83.9</ele>
        <time>2022-12-09T14:47:20Z</time>
      </trkpt>
      <trkpt lat="49.87236" lon="2.20921">
        <ele>84</ele>
        <time>2022-12-09T14:47:21Z</time>
      </trkpt>
      <trkpt lat="49.87235" lon="2.20923">
        <ele>84</ele>
        <time>2022-12-09T14:47:23Z</time>
      </trkpt>
      <trkpt lat="49.87234" lon="2.20927">
        <ele>84.1</ele>
        <time>2022-12-09T14:47:24Z</time>
      </trkpt>
      <trkpt lat="49.87234" lon="2.20928">
        <ele>84.1</ele>
        <time>2022-12-09T14:47:25Z</time>
      </trkpt>
      <trkpt lat="49.87234" lon="2.20929">
        <ele>84.1</ele>
        <time>2022-12-09T14:47:26Z</time>
      </trkpt>
      <trkpt lat="49.87233" lon="2.20931">
        <ele>84.2</ele>
        <time>2022-12-09T14:47:27Z</time>
      </trkpt>
      <trkpt lat="49.87233" lon="2.20933">
        <ele>84.2</ele>
        <time>2022-12-09T14:47:28Z</time>
      </trkpt>
      <trkpt lat="49.87232" lon="2.20935">
        <ele>84.3</ele>
        <time>2022-12-09T14:47:30Z</time>
      </trkpt>
      <trkpt lat="49.87232" lon="2.20938">
        <ele>84.3</ele>
        <time>2022-12-09T14:47:31Z</time>
      </trkpt>
      <trkpt lat="49.87232" lon="2.2094">
        <ele>84.4</ele>
        <time>2022-12-09T14:47:32Z</time>
      </trkpt>
      <trkpt lat="49.87231" lon="2.20941">
        <ele>84.4</ele>
        <time>2022-12-09T14:47:33Z</time>
      </trkpt>
      <trkpt lat="49.87231" lon="2.20942">
        <ele>84.4</ele>
        <time>2022-12-09T14:47:34Z</time>
      </trkpt>
      <trkpt lat="49.87231" lon="2.20944">
        <ele>84.5</ele>
        <time>2022-12-09T14:47:35Z</time>
      </trkpt>
      <trkpt lat="49.87231" lon="2.20946">
        <ele>84.5</ele>
        <time>2022-12-09T14:47:36Z</time>
      </trkpt>
      <trkpt lat="49.8723" lon="2.20949">
        <ele>84.6</ele>
        <time>2022-12-09T14:47:37Z</time>
      </trkpt>
      <trkpt lat="49.8723" lon="2.20951">
        <ele>84.6</ele>
        <time>2022-12-09T14:47:38Z</time>
      </trkpt>
      <trkpt lat="49.8723" lon="2.20952">
        <ele>84.6</ele>
        <time>2022-12-09T14:47:39Z</time>
      </trkpt>
      <trkpt lat="49.8723" lon="2.20954">
        <ele>84.7</ele>
        <time>2022-12-09T14:47:40Z</time>
      </trkpt>
      <trkpt lat="49.87229" lon="2.20957">
        <ele>84.7</ele>
        <time>2022-12-09T14:47:42Z</time>
      </trkpt>
      <trkpt lat="49.87228" lon="2.20958">
        <ele>84.8</ele>
        <time>2022-12-09T14:47:43Z</time>
      </trkpt>
      <trkpt lat="49.87228" lon="2.2096">
        <ele>84.8</ele>
        <time>2022-12-09T14:47:44Z</time>
      </trkpt>
      <trkpt lat="49.87228" lon="2.20962">
        <ele>84.9</ele>
        <time>2022-12-09T14:47:45Z</time>
      </trkpt>
      <trkpt lat="49.87227" lon="2.20963">
        <ele>84.9</ele>
        <time>2022-12-09T14:47:46Z</time>
      </trkpt>
      <trkpt lat="49.87227" lon="2.20965">
        <ele>85</ele>
        <time>2022-12-09T14:47:48Z</time>
      </trkpt>
      <trkpt lat="49.87226" lon="2.20967">
        <ele>85</ele>
        <time>2022-12-09T14:47:49Z</time>
      </trkpt>
      <trkpt lat="49.87226" lon="2.2097">
        <ele>85.1</ele>
        <time>2022-12-09T14:47:50Z</time>
      </trkpt>
      <trkpt lat="49.87226" lon="2.20971">
        <ele>85.1</ele>
        <time>2022-12-09T14:47:51Z</time>
      </trkpt>
      <trkpt lat="49.87226" lon="2.20972">
        <ele>85.1</ele>
        <time>2022-12-09T14:47:52Z</time>
      </trkpt>
      <trkpt lat="49.87225" lon="2.20976">
        <ele>85.2</ele>
        <time>2022-12-09T14:47:53Z</time>
      </trkpt>
      <trkpt lat="49.87225" lon="2.20977">
        <ele>85.3</ele>
        <time>2022-12-09T14:47:54Z</time>
      </trkpt>
      <trkpt lat="49.87225" lon="2.20978">
        <ele>85.3</ele>
        <time>2022-12-09T14:47:55Z</time>
      </trkpt>
      <trkpt lat="49.87224" lon="2.2098">
        <ele>85.3</ele>
        <time>2022-12-09T14:47:56Z</time>
      </trkpt>
      <trkpt lat="49.87224" lon="2.20981">
        <ele>85.4</ele>
        <time>2022-12-09T14:47:57Z</time>
      </trkpt>
      <trkpt lat="49.87224" lon="2.20982">
        <ele>85.4</ele>
        <time>2022-12-09T14:47:58Z</time>
      </trkpt>
      <trkpt lat="49.87223" lon="2.20984">
        <ele>85.5</ele>
        <time>2022-12-09T14:48:00Z</time>
      </trkpt>
      <trkpt lat="49.87223" lon="2.20985">
        <ele>85.5</ele>
        <time>2022-12-09T14:48:01Z</time>
      </trkpt>
      <trkpt lat="49.87222" lon="2.20987">
        <ele>85.6</ele>
        <time>2022-12-09T14:48:02Z</time>
      </trkpt>
      <trkpt lat="49.87222" lon="2.2099">
        <ele>85.7</ele>
        <time>2022-12-09T14:48:03Z</time>
      </trkpt>
      <trkpt lat="49.87221" lon="2.20991">
        <ele>85.7</ele>
        <time>2022-12-09T14:48:04Z</time>
      </trkpt>
      <trkpt lat="49.87221" lon="2.20992">
        <ele>85.7</ele>
        <time>2022-12-09T14:48:05Z</time>
      </trkpt>
      <trkpt lat="49.87221" lon="2.20994">
        <ele>85.8</ele>
        <time>2022-12-09T14:48:06Z</time>
      </trkpt>
      <trkpt lat="49.8722" lon="2.20996">
        <ele>85.9</ele>
        <time>2022-12-09T14:48:07Z</time>
      </trkpt>
      <trkpt lat="49.87219" lon="2.20997">
        <ele>85.9</ele>
        <time>2022-12-09T14:48:08Z</time>
      </trkpt>
      <trkpt lat="49.87219" lon="2.21">
        <ele>86</ele>
        <time>2022-12-09T14:48:09Z</time>
      </trkpt>
      <trkpt lat="49.87218" lon="2.21001">
        <ele>86</ele>
        <time>2022-12-09T14:48:11Z</time>
      </trkpt>
      <trkpt lat="49.87218" lon="2.21002">
        <ele>86.1</ele>
        <time>2022-12-09T14:48:12Z</time>
      </trkpt>
      <trkpt lat="49.87217" lon="2.21005">
        <ele>86.2</ele>
        <time>2022-12-09T14:48:13Z</time>
      </trkpt>
      <trkpt lat="49.87217" lon="2.21006">
        <ele>86.3</ele>
        <time>2022-12-09T14:48:14Z</time>
      </trkpt>
      <trkpt lat="49.87216" lon="2.21008">
        <ele>86.3</ele>
        <time>2022-12-09T14:48:15Z</time>
      </trkpt>
      <trkpt lat="49.87216" lon="2.2101">
        <ele>86.4</ele>
        <time>2022-12-09T14:48:16Z</time>
      </trkpt>
      <trkpt lat="49.87215" lon="2.21011">
        <ele>86.4</ele>
        <time>2022-12-09T14:48:17Z</time>
      </trkpt>
      <trkpt lat="49.87215" lon="2.21013">
        <ele>86.5</ele>
        <time>2022-12-09T14:48:18Z</time>
      </trkpt>
      <trkpt lat="49.87214" lon="2.21014">
        <ele>86.6</ele>
        <time>2022-12-09T14:48:19Z</time>
      </trkpt>
      <trkpt lat="49.87213" lon="2.21016">
        <ele>86.6</ele>
        <time>2022-12-09T14:48:21Z</time>
      </trkpt>
      <trkpt lat="49.87213" lon="2.21018">
        <ele>86.7</ele>
        <time>2022-12-09T14:48:22Z</time>
      </trkpt>
      <trkpt lat="49.87212" lon="2.2102">
        <ele>86.8</ele>
        <time>2022-12-09T14:48:23Z</time>
      </trkpt>
      <trkpt lat="49.87212" lon="2.21021">
        <ele>86.8</ele>
        <time>2022-12-09T14:48:24Z</time>
      </trkpt>
      <trkpt lat="49.8721" lon="2.21024">
        <ele>86.9</ele>
        <time>2022-12-09T14:48:25Z</time>
      </trkpt>
      <trkpt lat="49.8721" lon="2.21025">
        <ele>87</ele>
        <time>2022-12-09T14:48:26Z</time>
      </trkpt>
      <trkpt lat="49.8721" lon="2.21026">
        <ele>87</ele>
        <time>2022-12-09T14:48:27Z</time>
      </trkpt>
      <trkpt lat="49.87209" lon="2.21029">
        <ele>87.1</ele>
        <time>2022-12-09T14:48:28Z</time>
      </trkpt>
      <trkpt lat="49.87209" lon="2.21031">
        <ele>87.2</ele>
        <time>2022-12-09T14:48:29Z</time>
      </trkpt>
      <trkpt lat="49.87208" lon="2.21032">
        <ele>87.3</ele>
        <time>2022-12-09T14:48:31Z</time>
      </trkpt>
      <trkpt lat="49.87208" lon="2.21033">
        <ele>87.3</ele>
        <time>2022-12-09T14:48:32Z</time>
      </trkpt>
      <trkpt lat="49.87207" lon="2.21035">
        <ele>87.4</ele>
        <time>2022-12-09T14:48:33Z</time>
      </trkpt>
      <trkpt lat="49.87207" lon="2.21036">
        <ele>87.4</ele>
        <time>2022-12-09T14:48:34Z</time>
      </trkpt>
      <trkpt lat="49.87206" lon="2.21039">
        <ele>87.6</ele>
        <time>2022-12-09T14:48:35Z</time>
      </trkpt>
      <trkpt lat="49.87206" lon="2.2104">
        <ele>87.6</ele>
        <time>2022-12-09T14:48:36Z</time>
      </trkpt>
      <trkpt lat="49.87205" lon="2.21041">
        <ele>87.7</ele>
        <time>2022-12-09T14:48:37Z</time>
      </trkpt>
      <trkpt lat="49.87205" lon="2.21043">
        <ele>87.7</ele>
        <time>2022-12-09T14:48:38Z</time>
      </trkpt>
      <trkpt lat="49.87204" lon="2.21045">
        <ele>87.8</ele>
        <time>2022-12-09T14:48:40Z</time>
      </trkpt>
      <trkpt lat="49.87204" lon="2.21046">
        <ele>87.9</ele>
        <time>2022-12-09T14:48:41Z</time>
      </trkpt>
      <trkpt lat="49.87203" lon="2.21048">
        <ele>88</ele>
        <time>2022-12-09T14:48:42Z</time>
      </trkpt>
      <trkpt lat="49.87203" lon="2.21049">
        <ele>88</ele>
        <time>2022-12-09T14:48:43Z</time>
      </trkpt>
      <trkpt lat="49.87202" lon="2.21051">
        <ele>88.1</ele>
        <time>2022-12-09T14:48:44Z</time>
      </trkpt>
      <trkpt lat="49.87202" lon="2.21053">
        <ele>88.2</ele>
        <time>2022-12-09T14:48:45Z</time>
      </trkpt>
      <trkpt lat="49.87201" lon="2.21054">
        <ele>88.2</ele>
        <time>2022-12-09T14:48:46Z</time>
      </trkpt>
      <trkpt lat="49.87201" lon="2.21055">
        <ele>88.3</ele>
        <time>2022-12-09T14:48:47Z</time>
      </trkpt>
      <trkpt lat="49.872" lon="2.21057">
        <ele>88.4</ele>
        <time>2022-12-09T14:48:49Z</time>
      </trkpt>
      <trkpt lat="49.87199" lon="2.21058">
        <ele>88.5</ele>
        <time>2022-12-09T14:48:50Z</time>
      </trkpt>
      <trkpt lat="49.87199" lon="2.2106">
        <ele>88.5</ele>
        <time>2022-12-09T14:48:51Z</time>
      </trkpt>
      <trkpt lat="49.87198" lon="2.21062">
        <ele>88.7</ele>
        <time>2022-12-09T14:48:52Z</time>
      </trkpt>
      <trkpt lat="49.87197" lon="2.21063">
        <ele>88.7</ele>
        <time>2022-12-09T14:48:53Z</time>
      </trkpt>
      <trkpt lat="49.87197" lon="2.21064">
        <ele>88.8</ele>
        <time>2022-12-09T14:48:54Z</time>
      </trkpt>
      <trkpt lat="49.87196" lon="2.21066">
        <ele>88.8</ele>
        <time>2022-12-09T14:48:55Z</time>
      </trkpt>
      <trkpt lat="49.87196" lon="2.21067">
        <ele>88.9</ele>
        <time>2022-12-09T14:48:56Z</time>
      </trkpt>
      <trkpt lat="49.87195" lon="2.21069">
        <ele>89</ele>
        <time>2022-12-09T14:48:58Z</time>
      </trkpt>
      <trkpt lat="49.87194" lon="2.21071">
        <ele>89.1</ele>
        <time>2022-12-09T14:48:59Z</time>
      </trkpt>
      <trkpt lat="49.87193" lon="2.21072">
        <ele>89.2</ele>
        <time>2022-12-09T14:49:00Z</time>
      </trkpt>
      <trkpt lat="49.87192" lon="2.21075">
        <ele>89.3</ele>
        <time>2022-12-09T14:49:01Z</time>
      </trkpt>
      <trkpt lat="49.87192" lon="2.21076">
        <ele>89.4</ele>
        <time>2022-12-09T14:49:02Z</time>
      </trkpt>
      <trkpt lat="49.87191" lon="2.21077">
        <ele>89.5</ele>
        <time>2022-12-09T14:49:03Z</time>
      </trkpt>
      <trkpt lat="49.87191" lon="2.21079">
        <ele>89.5</ele>
        <time>2022-12-09T14:49:04Z</time>
      </trkpt>
      <trkpt lat="49.8719" lon="2.2108">
        <ele>89.6</ele>
        <time>2022-12-09T14:49:06Z</time>
      </trkpt>
      <trkpt lat="49.8719" lon="2.21082">
        <ele>89.7</ele>
        <time>2022-12-09T14:49:07Z</time>
      </trkpt>
      <trkpt lat="49.87189" lon="2.21083">
        <ele>89.7</ele>
        <time>2022-12-09T14:49:08Z</time>
      </trkpt>
      <trkpt lat="49.87189" lon="2.21084">
        <ele>89.8</ele>
        <time>2022-12-09T14:49:09Z</time>
      </trkpt>
      <trkpt lat="49.87188" lon="2.21086">
        <ele>89.9</ele>
        <time>2022-12-09T14:49:10Z</time>
      </trkpt>
      <trkpt lat="49.87187" lon="2.21087">
        <ele>90</ele>
        <time>2022-12-09T14:49:11Z</time>
      </trkpt>
      <trkpt lat="49.87187" lon="2.21088">
        <ele>90</ele>
        <time>2022-12-09T14:49:13Z</time>
      </trkpt>
      <trkpt lat="49.87186" lon="2.2109">
        <ele>90.1</ele>
        <time>2022-12-09T14:49:14Z</time>
      </trkpt>
      <trkpt lat="49.87184" lon="2.21093">
        <ele>90.3</ele>
        <time>2022-12-09T14:49:15Z</time>
      </trkpt>
      <trkpt lat="49.87184" lon="2.21094">
        <ele>90.3</ele>
        <time>2022-12-09T14:49:16Z</time>
      </trkpt>
      <trkpt lat="49.87183" lon="2.21095">
        <ele>90.4</ele>
        <time>2022-12-09T14:49:17Z</time>
      </trkpt>
      <trkpt lat="49.87182" lon="2.21096">
        <ele>90.5</ele>
        <time>2022-12-09T14:49:18Z</time>
      </trkpt>
      <trkpt lat="49.87182" lon="2.21098">
        <ele>90.6</ele>
        <time>2022-12-09T14:49:19Z</time>
      </trkpt>
      <trkpt lat="49.87181" lon="2.21099">
        <ele>90.6</ele>
        <time>2022-12-09T14:49:21Z</time>
      </trkpt>
      <trkpt lat="49.8718" lon="2.21102">
        <ele>90.8</ele>
        <time>2022-12-09T14:49:22Z</time>
      </trkpt>
      <trkpt lat="49.87179" lon="2.21103">
        <ele>90.8</ele>
        <time>2022-12-09T14:49:23Z</time>
      </trkpt>
      <trkpt lat="49.87179" lon="2.21104">
        <ele>90.9</ele>
        <time>2022-12-09T14:49:24Z</time>
      </trkpt>
      <trkpt lat="49.87178" lon="2.21106">
        <ele>91</ele>
        <time>2022-12-09T14:49:25Z</time>
      </trkpt>
      <trkpt lat="49.87178" lon="2.21107">
        <ele>91</ele>
        <time>2022-12-09T14:49:26Z</time>
      </trkpt>
      <trkpt lat="49.87177" lon="2.21109">
        <ele>91.1</ele>
        <time>2022-12-09T14:49:27Z</time>
      </trkpt>
      <trkpt lat="49.87176" lon="2.21111">
        <ele>91.3</ele>
        <time>2022-12-09T14:49:29Z</time>
      </trkpt>
      <trkpt lat="49.87175" lon="2.21112">
        <ele>91.3</ele>
        <time>2022-12-09T14:49:30Z</time>
      </trkpt>
      <trkpt lat="49.87175" lon="2.21113">
        <ele>91.4</ele>
        <time>2022-12-09T14:49:31Z</time>
      </trkpt>
      <trkpt lat="49.87174" lon="2.21115">
        <ele>91.5</ele>
        <time>2022-12-09T14:49:32Z</time>
      </trkpt>
      <trkpt lat="49.87173" lon="2.21117">
        <ele>91.5</ele>
        <time>2022-12-09T14:49:33Z</time>
      </trkpt>
      <trkpt lat="49.87173" lon="2.21118">
        <ele>91.6</ele>
        <time>2022-12-09T14:49:34Z</time>
      </trkpt>
      <trkpt lat="49.87171" lon="2.2112">
        <ele>91.7</ele>
        <time>2022-12-09T14:49:36Z</time>
      </trkpt>
      <trkpt lat="49.87171" lon="2.21121">
        <ele>91.8</ele>
        <time>2022-12-09T14:49:37Z</time>
      </trkpt>
      <trkpt lat="49.8717" lon="2.21122">
        <ele>91.8</ele>
        <time>2022-12-09T14:49:38Z</time>
      </trkpt>
      <trkpt lat="49.87169" lon="2.21125">
        <ele>92</ele>
        <time>2022-12-09T14:49:39Z</time>
      </trkpt>
      <trkpt lat="49.87169" lon="2.21126">
        <ele>92</ele>
        <time>2022-12-09T14:49:40Z</time>
      </trkpt>
      <trkpt lat="49.87168" lon="2.21127">
        <ele>92.1</ele>
        <time>2022-12-09T14:49:41Z</time>
      </trkpt>
      <trkpt lat="49.87168" lon="2.21128">
        <ele>92.2</ele>
        <time>2022-12-09T14:49:42Z</time>
      </trkpt>
      <trkpt lat="49.87167" lon="2.2113">
        <ele>92.2</ele>
        <time>2022-12-09T14:49:44Z</time>
      </trkpt>
      <trkpt lat="49.87167" lon="2.21132">
        <ele>92.3</ele>
        <time>2022-12-09T14:49:45Z</time>
      </trkpt>
      <trkpt lat="49.87165" lon="2.21134">
        <ele>92.5</ele>
        <time>2022-12-09T14:49:46Z</time>
      </trkpt>
      <trkpt lat="49.87165" lon="2.21135">
        <ele>92.5</ele>
        <time>2022-12-09T14:49:47Z</time>
      </trkpt>
      <trkpt lat="49.87165" lon="2.21136">
        <ele>92.6</ele>
        <time>2022-12-09T14:49:48Z</time>
      </trkpt>
      <trkpt lat="49.87164" lon="2.21138">
        <ele>92.6</ele>
        <time>2022-12-09T14:49:49Z</time>
      </trkpt>
      <trkpt lat="49.87164" lon="2.21139">
        <ele>92.7</ele>
        <time>2022-12-09T14:49:50Z</time>
      </trkpt>
      <trkpt lat="49.87163" lon="2.21141">
        <ele>92.8</ele>
        <time>2022-12-09T14:49:52Z</time>
      </trkpt>
      <trkpt lat="49.87163" lon="2.21142">
        <ele>92.9</ele>
        <time>2022-12-09T14:49:53Z</time>
      </trkpt>
      <trkpt lat="49.87162" lon="2.21144">
        <ele>92.9</ele>
        <time>2022-12-09T14:49:54Z</time>
      </trkpt>
      <trkpt lat="49.87161" lon="2.21145">
        <ele>93</ele>
        <time>2022-12-09T14:49:55Z</time>
      </trkpt>
      <trkpt lat="49.87161" lon="2.21147">
        <ele>93.1</ele>
        <time>2022-12-09T14:49:56Z</time>
      </trkpt>
      <trkpt lat="49.8716" lon="2.21148">
        <ele>93.2</ele>
        <time>2022-12-09T14:49:57Z</time>
      </trkpt>
      <trkpt lat="49.87159" lon="2.21149">
        <ele>93.2</ele>
        <time>2022-12-09T14:49:58Z</time>
      </trkpt>
      <trkpt lat="49.87158" lon="2.21152">
        <ele>93.4</ele>
        <time>2022-12-09T14:50:00Z</time>
      </trkpt>
      <trkpt lat="49.87157" lon="2.21153">
        <ele>93.4</ele>
        <time>2022-12-09T14:50:01Z</time>
      </trkpt>
      <trkpt lat="49.87157" lon="2.21154">
        <ele>93.5</ele>
        <time>2022-12-09T14:50:02Z</time>
      </trkpt>
      <trkpt lat="49.87156" lon="2.21156">
        <ele>93.6</ele>
        <time>2022-12-09T14:50:03Z</time>
      </trkpt>
      <trkpt lat="49.87155" lon="2.21157">
        <ele>93.6</ele>
        <time>2022-12-09T14:50:04Z</time>
      </trkpt>
      <trkpt lat="49.87155" lon="2.21158">
        <ele>93.7</ele>
        <time>2022-12-09T14:50:05Z</time>
      </trkpt>
      <trkpt lat="49.87154" lon="2.2116">
        <ele>93.8</ele>
        <time>2022-12-09T14:50:07Z</time>
      </trkpt>
      <trkpt lat="49.87154" lon="2.21162">
        <ele>93.8</ele>
        <time>2022-12-09T14:50:08Z</time>
      </trkpt>
      <trkpt lat="49.87153" lon="2.21163">
        <ele>93.9</ele>
        <time>2022-12-09T14:50:09Z</time>
      </trkpt>
      <trkpt lat="49.87152" lon="2.21165">
        <ele>94</ele>
        <time>2022-12-09T14:50:10Z</time>
      </trkpt>
      <trkpt lat="49.87152" lon="2.21166">
        <ele>94.1</ele>
        <time>2022-12-09T14:50:11Z</time>
      </trkpt>
      <trkpt lat="49.87151" lon="2.21168">
        <ele>94.1</ele>
        <time>2022-12-09T14:50:12Z</time>
      </trkpt>
      <trkpt lat="49.8715" lon="2.2117">
        <ele>94.3</ele>
        <time>2022-12-09T14:50:13Z</time>
      </trkpt>
      <trkpt lat="49.8715" lon="2.21172">
        <ele>94.3</ele>
        <time>2022-12-09T14:50:14Z</time>
      </trkpt>
      <trkpt lat="49.87149" lon="2.21173">
        <ele>94.4</ele>
        <time>2022-12-09T14:50:16Z</time>
      </trkpt>
      <trkpt lat="49.87149" lon="2.21174">
        <ele>94.4</ele>
        <time>2022-12-09T14:50:17Z</time>
      </trkpt>
      <trkpt lat="49.87148" lon="2.21175">
        <ele>94.5</ele>
        <time>2022-12-09T14:50:18Z</time>
      </trkpt>
      <trkpt lat="49.87148" lon="2.21177">
        <ele>94.6</ele>
        <time>2022-12-09T14:50:19Z</time>
      </trkpt>
      <trkpt lat="49.87147" lon="2.2118">
        <ele>94.7</ele>
        <time>2022-12-09T14:50:20Z</time>
      </trkpt>
      <trkpt lat="49.87146" lon="2.21181">
        <ele>94.8</ele>
        <time>2022-12-09T14:50:21Z</time>
      </trkpt>
      <trkpt lat="49.87146" lon="2.21182">
        <ele>94.8</ele>
        <time>2022-12-09T14:50:23Z</time>
      </trkpt>
      <trkpt lat="49.87145" lon="2.21184">
        <ele>94.9</ele>
        <time>2022-12-09T14:50:24Z</time>
      </trkpt>
      <trkpt lat="49.87145" lon="2.21185">
        <ele>94.9</ele>
        <time>2022-12-09T14:50:25Z</time>
      </trkpt>
      <trkpt lat="49.87145" lon="2.21186">
        <ele>95</ele>
        <time>2022-12-09T14:50:26Z</time>
      </trkpt>
      <trkpt lat="49.87144" lon="2.21188">
        <ele>95.1</ele>
        <time>2022-12-09T14:50:27Z</time>
      </trkpt>
      <trkpt lat="49.87143" lon="2.21189">
        <ele>95.1</ele>
        <time>2022-12-09T14:50:28Z</time>
      </trkpt>
      <trkpt lat="49.87143" lon="2.21191">
        <ele>95.2</ele>
        <time>2022-12-09T14:50:29Z</time>
      </trkpt>
      <trkpt lat="49.87142" lon="2.21192">
        <ele>95.3</ele>
        <time>2022-12-09T14:50:30Z</time>
      </trkpt>
      <trkpt lat="49.87142" lon="2.21194">
        <ele>95.3</ele>
        <time>2022-12-09T14:50:32Z</time>
      </trkpt>
      <trkpt lat="49.87141" lon="2.21196">
        <ele>95.4</ele>
        <time>2022-12-09T14:50:33Z</time>
      </trkpt>
      <trkpt lat="49.8714" lon="2.21198">
        <ele>95.5</ele>
        <time>2022-12-09T14:50:34Z</time>
      </trkpt>
      <trkpt lat="49.87139" lon="2.21199">
        <ele>95.6</ele>
        <time>2022-12-09T14:50:35Z</time>
      </trkpt>
      <trkpt lat="49.87139" lon="2.212">
        <ele>95.6</ele>
        <time>2022-12-09T14:50:36Z</time>
      </trkpt>
      <trkpt lat="49.87138" lon="2.21203">
        <ele>95.7</ele>
        <time>2022-12-09T14:50:37Z</time>
      </trkpt>
      <trkpt lat="49.87137" lon="2.21205">
        <ele>95.7</ele>
        <time>2022-12-09T14:50:38Z</time>
      </trkpt>
      <trkpt lat="49.87137" lon="2.21206">
        <ele>95.8</ele>
        <time>2022-12-09T14:50:40Z</time>
      </trkpt>
      <trkpt lat="49.87136" lon="2.21207">
        <ele>95.8</ele>
        <time>2022-12-09T14:50:41Z</time>
      </trkpt>
      <trkpt lat="49.87136" lon="2.21208">
        <ele>95.9</ele>
        <time>2022-12-09T14:50:42Z</time>
      </trkpt>
      <trkpt lat="49.87135" lon="2.2121">
        <ele>95.9</ele>
        <time>2022-12-09T14:50:43Z</time>
      </trkpt>
      <trkpt lat="49.87134" lon="2.21212">
        <ele>96</ele>
        <time>2022-12-09T14:50:44Z</time>
      </trkpt>
      <trkpt lat="49.87133" lon="2.21213">
        <ele>96.1</ele>
        <time>2022-12-09T14:50:45Z</time>
      </trkpt>
      <trkpt lat="49.87133" lon="2.21214">
        <ele>96.1</ele>
        <time>2022-12-09T14:50:46Z</time>
      </trkpt>
      <trkpt lat="49.87132" lon="2.21216">
        <ele>96.1</ele>
        <time>2022-12-09T14:50:47Z</time>
      </trkpt>
      <trkpt lat="49.87132" lon="2.21217">
        <ele>96.2</ele>
        <time>2022-12-09T14:50:48Z</time>
      </trkpt>
      <trkpt lat="49.87131" lon="2.21219">
        <ele>96.2</ele>
        <time>2022-12-09T14:50:49Z</time>
      </trkpt>
      <trkpt lat="49.8713" lon="2.21222">
        <ele>96.3</ele>
        <time>2022-12-09T14:50:51Z</time>
      </trkpt>
      <trkpt lat="49.87129" lon="2.21223">
        <ele>96.3</ele>
        <time>2022-12-09T14:50:52Z</time>
      </trkpt>
      <trkpt lat="49.87129" lon="2.21224">
        <ele>96.4</ele>
        <time>2022-12-09T14:50:53Z</time>
      </trkpt>
      <trkpt lat="49.87128" lon="2.21226">
        <ele>96.5</ele>
        <time>2022-12-09T14:50:54Z</time>
      </trkpt>
      <trkpt lat="49.87127" lon="2.21228">
        <ele>96.5</ele>
        <time>2022-12-09T14:50:55Z</time>
      </trkpt>
      <trkpt lat="49.87127" lon="2.21229">
        <ele>96.5</ele>
        <time>2022-12-09T14:50:56Z</time>
      </trkpt>
      <trkpt lat="49.87125" lon="2.21231">
        <ele>96.6</ele>
        <time>2022-12-09T14:50:57Z</time>
      </trkpt>
      <trkpt lat="49.87125" lon="2.21232">
        <ele>96.6</ele>
        <time>2022-12-09T14:50:58Z</time>
      </trkpt>
      <trkpt lat="49.87124" lon="2.21234">
        <ele>96.6</ele>
        <time>2022-12-09T14:51:00Z</time>
      </trkpt>
      <trkpt lat="49.87124" lon="2.21235">
        <ele>96.7</ele>
        <time>2022-12-09T14:51:01Z</time>
      </trkpt>
      <trkpt lat="49.87123" lon="2.21236">
        <ele>96.7</ele>
        <time>2022-12-09T14:51:02Z</time>
      </trkpt>
      <trkpt lat="49.87123" lon="2.21238">
        <ele>96.7</ele>
        <time>2022-12-09T14:51:03Z</time>
      </trkpt>
      <trkpt lat="49.87122" lon="2.2124">
        <ele>96.8</ele>
        <time>2022-12-09T14:51:04Z</time>
      </trkpt>
      <trkpt lat="49.87121" lon="2.21241">
        <ele>96.8</ele>
        <time>2022-12-09T14:51:05Z</time>
      </trkpt>
      <trkpt lat="49.8712" lon="2.21242">
        <ele>96.9</ele>
        <time>2022-12-09T14:51:06Z</time>
      </trkpt>
      <trkpt lat="49.87119" lon="2.21244">
        <ele>96.9</ele>
        <time>2022-12-09T14:51:07Z</time>
      </trkpt>
      <trkpt lat="49.87118" lon="2.21245">
        <ele>96.9</ele>
        <time>2022-12-09T14:51:08Z</time>
      </trkpt>
      <trkpt lat="49.87118" lon="2.21246">
        <ele>97</ele>
        <time>2022-12-09T14:51:09Z</time>
      </trkpt>
      <trkpt lat="49.87116" lon="2.21248">
        <ele>97</ele>
        <time>2022-12-09T14:51:10Z</time>
      </trkpt>
      <trkpt lat="49.87115" lon="2.21249">
        <ele>97.1</ele>
        <time>2022-12-09T14:51:12Z</time>
      </trkpt>
      <trkpt lat="49.87115" lon="2.2125">
        <ele>97.1</ele>
        <time>2022-12-09T14:51:13Z</time>
      </trkpt>
      <trkpt lat="49.87113" lon="2.21253">
        <ele>97.2</ele>
        <time>2022-12-09T14:51:14Z</time>
      </trkpt>
      <trkpt lat="49.87113" lon="2.21254">
        <ele>97.2</ele>
        <time>2022-12-09T14:51:15Z</time>
      </trkpt>
      <trkpt lat="49.87112" lon="2.21254">
        <ele>97.2</ele>
        <time>2022-12-09T14:51:16Z</time>
      </trkpt>
      <trkpt lat="49.87111" lon="2.21256">
        <ele>97.3</ele>
        <time>2022-12-09T14:51:17Z</time>
      </trkpt>
      <trkpt lat="49.8711" lon="2.21257">
        <ele>97.3</ele>
        <time>2022-12-09T14:51:18Z</time>
      </trkpt>
      <trkpt lat="49.8711" lon="2.21258">
        <ele>97.3</ele>
        <time>2022-12-09T14:51:19Z</time>
      </trkpt>
      <trkpt lat="49.87108" lon="2.21261">
        <ele>97.4</ele>
        <time>2022-12-09T14:51:21Z</time>
      </trkpt>
      <trkpt lat="49.87108" lon="2.21262">
        <ele>97.4</ele>
        <time>2022-12-09T14:51:22Z</time>
      </trkpt>
      <trkpt lat="49.87107" lon="2.21263">
        <ele>97.4</ele>
        <time>2022-12-09T14:51:23Z</time>
      </trkpt>
      <trkpt lat="49.87107" lon="2.21264">
        <ele>97.5</ele>
        <time>2022-12-09T14:51:24Z</time>
      </trkpt>
      <trkpt lat="49.87106" lon="2.21266">
        <ele>97.5</ele>
        <time>2022-12-09T14:51:25Z</time>
      </trkpt>
      <trkpt lat="49.87106" lon="2.21268">
        <ele>97.5</ele>
        <time>2022-12-09T14:51:26Z</time>
      </trkpt>
      <trkpt lat="49.87104" lon="2.2127">
        <ele>97.6</ele>
        <time>2022-12-09T14:51:27Z</time>
      </trkpt>
      <trkpt lat="49.87104" lon="2.21271">
        <ele>97.6</ele>
        <time>2022-12-09T14:51:28Z</time>
      </trkpt>
      <trkpt lat="49.87103" lon="2.21272">
        <ele>97.7</ele>
        <time>2022-12-09T14:51:29Z</time>
      </trkpt>
      <trkpt lat="49.87102" lon="2.21275">
        <ele>97.7</ele>
        <time>2022-12-09T14:51:30Z</time>
      </trkpt>
      <trkpt lat="49.87102" lon="2.21276">
        <ele>97.7</ele>
        <time>2022-12-09T14:51:32Z</time>
      </trkpt>
      <trkpt lat="49.87101" lon="2.21277">
        <ele>97.7</ele>
        <time>2022-12-09T14:51:33Z</time>
      </trkpt>
      <trkpt lat="49.871" lon="2.21279">
        <ele>97.8</ele>
        <time>2022-12-09T14:51:34Z</time>
      </trkpt>
      <trkpt lat="49.87099" lon="2.2128">
        <ele>97.8</ele>
        <time>2022-12-09T14:51:35Z</time>
      </trkpt>
      <trkpt lat="49.87098" lon="2.21281">
        <ele>97.9</ele>
        <time>2022-12-09T14:51:36Z</time>
      </trkpt>
      <trkpt lat="49.87097" lon="2.21282">
        <ele>97.9</ele>
        <time>2022-12-09T14:51:37Z</time>
      </trkpt>
      <trkpt lat="49.87096" lon="2.21283">
        <ele>97.9</ele>
        <time>2022-12-09T14:51:39Z</time>
      </trkpt>
      <trkpt lat="49.87096" lon="2.21284">
        <ele>97.9</ele>
        <time>2022-12-09T14:51:40Z</time>
      </trkpt>
      <trkpt lat="49.87095" lon="2.21285">
        <ele>98</ele>
        <time>2022-12-09T14:51:41Z</time>
      </trkpt>
      <trkpt lat="49.87095" lon="2.21286">
        <ele>98</ele>
        <time>2022-12-09T14:51:43Z</time>
      </trkpt>
      <trkpt lat="49.87094" lon="2.21286">
        <ele>98</ele>
        <time>2022-12-09T14:51:44Z</time>
      </trkpt>
      <trkpt lat="49.87093" lon="2.21288">
        <ele>98</ele>
        <time>2022-12-09T14:51:45Z</time>
      </trkpt>
      <trkpt lat="49.87093" lon="2.21288">
        <ele>98</ele>
        <time>2022-12-09T14:51:46Z</time>
      </trkpt>
      <trkpt lat="49.87092" lon="2.21289">
        <ele>98.1</ele>
        <time>2022-12-09T14:51:47Z</time>
      </trkpt>
      <trkpt lat="49.87091" lon="2.21289">
        <ele>98.1</ele>
        <time>2022-12-09T14:51:48Z</time>
      </trkpt>
      <trkpt lat="49.87089" lon="2.21288">
        <ele>98.1</ele>
        <time>2022-12-09T14:51:49Z</time>
      </trkpt>
      <trkpt lat="49.87088" lon="2.21289">
        <ele>98.1</ele>
        <time>2022-12-09T14:51:51Z</time>
      </trkpt>
      <trkpt lat="49.87087" lon="2.21289">
        <ele>98.1</ele>
        <time>2022-12-09T14:51:52Z</time>
      </trkpt>
      <trkpt lat="49.87087" lon="2.21289">
        <ele>98.1</ele>
        <time>2022-12-09T14:51:54Z</time>
      </trkpt>
      <trkpt lat="49.87087" lon="2.21289">
        <ele>98.1</ele>
        <time>2022-12-09T14:51:55Z</time>
      </trkpt>
      <trkpt lat="49.87087" lon="2.21289">
        <ele>98.1</ele>
        <time>2022-12-09T14:51:56Z</time>
      </trkpt>
      <trkpt lat="49.87087" lon="2.21288">
        <ele>98.1</ele>
        <time>2022-12-09T14:51:58Z</time>
      </trkpt>
      <trkpt lat="49.87087" lon="2.21288">
        <ele>98.2</ele>
        <time>2022-12-09T14:51:59Z</time>
      </trkpt>
      <trkpt lat="49.87087" lon="2.21288">
        <ele>98.2</ele>
        <time>2022-12-09T14:52:00Z</time>
      </trkpt>
      <trkpt lat="49.87087" lon="2.21288">
        <ele>98.2</ele>
        <time>2022-12-09T14:52:01Z</time>
      </trkpt>
      <trkpt lat="49.87087" lon="2.21288">
        <ele>98.2</ele>
        <time>2022-12-09T14:52:02Z</time>
      </trkpt>
      <trkpt lat="49.87087" lon="2.21288">
        <ele>98.2</ele>
        <time>2022-12-09T14:52:03Z</time>
      </trkpt>
      <trkpt lat="49.87087" lon="2.21287">
        <ele>98.2</ele>
        <time>2022-12-09T14:52:05Z</time>
      </trkpt>
      <trkpt lat="49.87087" lon="2.21287">
        <ele>98.2</ele>
        <time>2022-12-09T14:52:06Z</time>
      </trkpt>
      <trkpt lat="49.87087" lon="2.21287">
        <ele>98.2</ele>
        <time>2022-12-09T14:52:07Z</time>
      </trkpt>
      <trkpt lat="49.87088" lon="2.21286">
        <ele>98.2</ele>
        <time>2022-12-09T14:52:09Z</time>
      </trkpt>
      <trkpt lat="49.87088" lon="2.21286">
        <ele>98.2</ele>
        <time>2022-12-09T14:52:10Z</time>
      </trkpt>
      <trkpt lat="49.87088" lon="2.21286">
        <ele>98.2</ele>
        <time>2022-12-09T14:52:12Z</time>
      </trkpt>
      <trkpt lat="49.87088" lon="2.21286">
        <ele>98.2</ele>
        <time>2022-12-09T14:52:13Z</time>
      </trkpt>
      <trkpt lat="49.87088" lon="2.21286">
        <ele>98.2</ele>
        <time>2022-12-09T14:52:14Z</time>
      </trkpt>
      <trkpt lat="49.87088" lon="2.21286">
        <ele>98.2</ele>
        <time>2022-12-09T14:52:16Z</time>
      </trkpt>
      <trkpt lat="49.87088" lon="2.21286">
        <ele>98.2</ele>
        <time>2022-12-09T14:52:17Z</time>
      </trkpt>
      <trkpt lat="49.87088" lon="2.21286">
        <ele>98.2</ele>
        <time>2022-12-09T14:52:18Z</time>
      </trkpt>
      <trkpt lat="49.87089" lon="2.21285">
        <ele>98.2</ele>
        <time>2022-12-09T14:52:19Z</time>
      </trkpt>
      <trkpt lat="49.87089" lon="2.21285">
        <ele>98.2</ele>
        <time>2022-12-09T14:52:20Z</time>
      </trkpt>
      <trkpt lat="49.87089" lon="2.21285">
        <ele>98.2</ele>
        <time>2022-12-09T14:52:21Z</time>
      </trkpt>
      <trkpt lat="49.87089" lon="2.21285">
        <ele>98.2</ele>
        <time>2022-12-09T14:52:22Z</time>
      </trkpt>
      <trkpt lat="49.87089" lon="2.21284">
        <ele>98.2</ele>
        <time>2022-12-09T14:52:23Z</time>
      </trkpt>
      <trkpt lat="49.87089" lon="2.21284">
        <ele>98.2</ele>
        <time>2022-12-09T14:52:24Z</time>
      </trkpt>
      <trkpt lat="49.87089" lon="2.21284">
        <ele>98.2</ele>
        <time>2022-12-09T14:52:25Z</time>
      </trkpt>
      <trkpt lat="49.87089" lon="2.21284">
        <ele>98.2</ele>
        <time>2022-12-09T14:52:26Z</time>
      </trkpt>
      <trkpt lat="49.87089" lon="2.21284">
        <ele>98.2</ele>
        <time>2022-12-09T14:52:27Z</time>
      </trkpt>
      <trkpt lat="49.87089" lon="2.21284">
        <ele>98.2</ele>
        <time>2022-12-09T14:52:28Z</time>
      </trkpt>
      <trkpt lat="49.87089" lon="2.21284">
        <ele>98.2</ele>
        <time>2022-12-09T14:52:29Z</time>
      </trkpt>
      <trkpt lat="49.87089" lon="2.21284">
        <ele>98.2</ele>
        <time>2022-12-09T14:52:30Z</time>
      </trkpt>
      <trkpt lat="49.87089" lon="2.21284">
        <ele>98.2</ele>
        <time>2022-12-09T14:52:31Z</time>
      </trkpt>
      <trkpt lat="49.87089" lon="2.21284">
        <ele>98.2</ele>
        <time>2022-12-09T14:52:32Z</time>
      </trkpt>
      <trkpt lat="49.87089" lon="2.21284">
        <ele>98.2</ele>
        <time>2022-12-09T14:52:33Z</time>
      </trkpt>
      <trkpt lat="49.87089" lon="2.21284">
        <ele>98.2</ele>
        <time>2022-12-09T14:52:34Z</time>
      </trkpt>
      <trkpt lat="49.87089" lon="2.21284">
        <ele>98.2</ele>
        <time>2022-12-09T14:52:35Z</time>
      </trkpt>
      <trkpt lat="49.87089" lon="2.21284">
        <ele>98.2</ele>
        <time>2022-12-09T14:52:36Z</time>
      </trkpt>
      <trkpt lat="49.87089" lon="2.21284">
        <ele>98.2</ele>
        <time>2022-12-09T14:52:37Z</time>
      </trkpt>
      <trkpt lat="49.87089" lon="2.21284">
        <ele>98.2</ele>
        <time>2022-12-09T14:52:38Z</time>
      </trkpt>
      <trkpt lat="49.87089" lon="2.21284">
        <ele>98.2</ele>
        <time>2022-12-09T14:52:39Z</time>
      </trkpt>
      <trkpt lat="49.87089" lon="2.21284">
        <ele>98.2</ele>
        <time>2022-12-09T14:52:40Z</time>
      </trkpt>
      <trkpt lat="49.87089" lon="2.21284">
        <ele>98.2</ele>
        <time>2022-12-09T14:52:41Z</time>
      </trkpt>
      <trkpt lat="49.87089" lon="2.21284">
        <ele>98.2</ele>
        <time>2022-12-09T14:52:42Z</time>
      </trkpt>
      <trkpt lat="49.87089" lon="2.21284">
        <ele>98.2</ele>
        <time>2022-12-09T14:52:43Z</time>
      </trkpt>
      <trkpt lat="49.87089" lon="2.21284">
        <ele>98.2</ele>
        <time>2022-12-09T14:52:44Z</time>
      </trkpt>
      <trkpt lat="49.87089" lon="2.21284">
        <ele>98.2</ele>
        <time>2022-12-09T14:52:45Z</time>
      </trkpt>
      <trkpt lat="49.87089" lon="2.21284">
        <ele>98.2</ele>
        <time>2022-12-09T14:52:46Z</time>
      </trkpt>
      <trkpt lat="49.87089" lon="2.21284">
        <ele>98.2</ele>
        <time>2022-12-09T14:52:47Z</time>
      </trkpt>
      <trkpt lat="49.87089" lon="2.21284">
        <ele>98.2</ele>
        <time>2022-12-09T14:52:48Z</time>
      </trkpt>
      <trkpt lat="49.87089" lon="2.21284">
        <ele>98.2</ele>
        <time>2022-12-09T14:52:49Z</time>
      </trkpt>
      <trkpt lat="49.87089" lon="2.21284">
        <ele>98.2</ele>
        <time>2022-12-09T14:52:50Z</time>
      </trkpt>
      <trkpt lat="49.87089" lon="2.21284">
        <ele>98.2</ele>
        <time>2022-12-09T14:52:51Z</time>
      </trkpt>
      <trkpt lat="49.87089" lon="2.21284">
        <ele>98.2</ele>
        <time>2022-12-09T14:52:52Z</time>
      </trkpt>
      <trkpt lat="49.87089" lon="2.21284">
        <ele>98.2</ele>
        <time>2022-12-09T14:52:53Z</time>
      </trkpt>
      <trkpt lat="49.87089" lon="2.21284">
        <ele>98.2</ele>
        <time>2022-12-09T14:52:54Z</time>
      </trkpt>
      <trkpt lat="49.87089" lon="2.21284">
        <ele>98.2</ele>
        <time>2022-12-09T14:52:55Z</time>
      </trkpt>
      <trkpt lat="49.87089" lon="2.21284">
        <ele>98.2</ele>
        <time>2022-12-09T14:52:56Z</time>
      </trkpt>
      <trkpt lat="49.87089" lon="2.21284">
        <ele>98.2</ele>
        <time>2022-12-09T14:52:57Z</time>
      </trkpt>
      <trkpt lat="49.87089" lon="2.21284">
        <ele>98.2</ele>
        <time>2022-12-09T14:52:58Z</time>
      </trkpt>
      <trkpt lat="49.87089" lon="2.21284">
        <ele>98.2</ele>
        <time>2022-12-09T14:52:59Z</time>
      </trkpt>
      <trkpt lat="49.87089" lon="2.21284">
        <ele>98.2</ele>
        <time>2022-12-09T14:53:00Z</time>
      </trkpt>
      <trkpt lat="49.87089" lon="2.21284">
        <ele>98.2</ele>
        <time>2022-12-09T14:53:01Z</time>
      </trkpt>
      <trkpt lat="49.87089" lon="2.21284">
        <ele>98.2</ele>
        <time>2022-12-09T14:53:02Z</time>
      </trkpt>
      <trkpt lat="49.87089" lon="2.21284">
        <ele>98.2</ele>
        <time>2022-12-09T14:53:03Z</time>
      </trkpt>
      <trkpt lat="49.87089" lon="2.21284">
        <ele>98.2</ele>
        <time>2022-12-09T14:53:04Z</time>
      </trkpt>
      <trkpt lat="49.87089" lon="2.21284">
        <ele>98.2</ele>
        <time>2022-12-09T14:53:05Z</time>
      </trkpt>
      <trkpt lat="49.87089" lon="2.21284">
        <ele>98.2</ele>
        <time>2022-12-09T14:53:06Z</time>
      </trkpt>
      <trkpt lat="49.87089" lon="2.21284">
        <ele>98.2</ele>
        <time>2022-12-09T14:53:07Z</time>
      </trkpt>
      <trkpt lat="49.87089" lon="2.21284">
        <ele>98.2</ele>
        <time>2022-12-09T14:53:08Z</time>
      </trkpt>
      <trkpt lat="49.87089" lon="2.21284">
        <ele>98.2</ele>
        <time>2022-12-09T14:53:09Z</time>
      </trkpt>
      <trkpt lat="49.87089" lon="2.21284">
        <ele>98.2</ele>
        <time>2022-12-09T14:53:10Z</time>
      </trkpt>
      <trkpt lat="49.87089" lon="2.21284">
        <ele>98.2</ele>
        <time>2022-12-09T14:53:11Z</time>
      </trkpt>
      <trkpt lat="49.87089" lon="2.21284">
        <ele>98.2</ele>
        <time>2022-12-09T14:53:12Z</time>
      </trkpt>
      <trkpt lat="49.87089" lon="2.21284">
        <ele>98.2</ele>
        <time>2022-12-09T14:53:13Z</time>
      </trkpt>
      <trkpt lat="49.87089" lon="2.21284">
        <ele>98.2</ele>
        <time>2022-12-09T14:53:14Z</time>
      </trkpt>
      <trkpt lat="49.87089" lon="2.21284">
        <ele>98.2</ele>
        <time>2022-12-09T14:53:15Z</time>
      </trkpt>
      <trkpt lat="49.87089" lon="2.21284">
        <ele>98.2</ele>
        <time>2022-12-09T14:53:16Z</time>
      </trkpt>
      <trkpt lat="49.87089" lon="2.21284">
        <ele>98.2</ele>
        <time>2022-12-09T14:53:17Z</time>
      </trkpt>
      <trkpt lat="49.87089" lon="2.21284">
        <ele>98.2</ele>
        <time>2022-12-09T14:53:18Z</time>
      </trkpt>
      <trkpt lat="49.87089" lon="2.21284">
        <ele>98.2</ele>
        <time>2022-12-09T14:53:19Z</time>
      </trkpt>
      <trkpt lat="49.87089" lon="2.21284">
        <ele>98.2</ele>
        <time>2022-12-09T14:53:20Z</time>
      </trkpt>
      <trkpt lat="49.87089" lon="2.21284">
        <ele>98.2</ele>
        <time>2022-12-09T14:53:21Z</time>
      </trkpt>
      <trkpt lat="49.87089" lon="2.21284">
        <ele>98.2</ele>
        <time>2022-12-09T14:53:22Z</time>
      </trkpt>
      <trkpt lat="49.87089" lon="2.21284">
        <ele>98.2</ele>
        <time>2022-12-09T14:53:23Z</time>
      </trkpt>
      <trkpt lat="49.87089" lon="2.21284">
        <ele>98.2</ele>
        <time>2022-12-09T14:53:24Z</time>
      </trkpt>
      <trkpt lat="49.87089" lon="2.21284">
        <ele>98.2</ele>
        <time>2022-12-09T14:53:25Z</time>
      </trkpt>
      <trkpt lat="49.87089" lon="2.21284">
        <ele>98.2</ele>
        <time>2022-12-09T14:53:26Z</time>
      </trkpt>
      <trkpt lat="49.87089" lon="2.21284">
        <ele>98.2</ele>
        <time>2022-12-09T14:53:27Z</time>
      </trkpt>
      <trkpt lat="49.87089" lon="2.21284">
        <ele>98.2</ele>
        <time>2022-12-09T14:53:28Z</time>
      </trkpt>
      <trkpt lat="49.87089" lon="2.21284">
        <ele>98.2</ele>
        <time>2022-12-09T14:53:29Z</time>
      </trkpt>
      <trkpt lat="49.87089" lon="2.21284">
        <ele>98.2</ele>
        <time>2022-12-09T14:53:30Z</time>
      </trkpt>
      <trkpt lat="49.87089" lon="2.21284">
        <ele>98.2</ele>
        <time>2022-12-09T14:53:31Z</time>
      </trkpt>
      <trkpt lat="49.87089" lon="2.21284">
        <ele>98.2</ele>
        <time>2022-12-09T14:53:32Z</time>
      </trkpt>
      <trkpt lat="49.87089" lon="2.21284">
        <ele>98.2</ele>
        <time>2022-12-09T14:53:33Z</time>
      </trkpt>
      <trkpt lat="49.87089" lon="2.21284">
        <ele>98.2</ele>
        <time>2022-12-09T14:53:34Z</time>
      </trkpt>
      <trkpt lat="49.87089" lon="2.21284">
        <ele>98.2</ele>
        <time>2022-12-09T14:53:35Z</time>
      </trkpt>
      <trkpt lat="49.87089" lon="2.21284">
        <ele>98.2</ele>
        <time>2022-12-09T14:53:36Z</time>
      </trkpt>
      <trkpt lat="49.87089" lon="2.21284">
        <ele>98.2</ele>
        <time>2022-12-09T14:53:37Z</time>
      </trkpt>
      <trkpt lat="49.87089" lon="2.21284">
        <ele>98.2</ele>
        <time>2022-12-09T14:53:38Z</time>
      </trkpt>
      <trkpt lat="49.87089" lon="2.21284">
        <ele>98.2</ele>
        <time>2022-12-09T14:53:39Z</time>
      </trkpt>
      <trkpt lat="49.87089" lon="2.21284">
        <ele>98.2</ele>
        <time>2022-12-09T14:53:40Z</time>
      </trkpt>
      <trkpt lat="49.87089" lon="2.21284">
        <ele>98.2</ele>
        <time>2022-12-09T14:53:41Z</time>
      </trkpt>
      <trkpt lat="49.87089" lon="2.21284">
        <ele>98.2</ele>
        <time>2022-12-09T14:53:42Z</time>
      </trkpt>
      <trkpt lat="49.87089" lon="2.21284">
        <ele>98.2</ele>
        <time>2022-12-09T14:53:43Z</time>
      </trkpt>
      <trkpt lat="49.87089" lon="2.21284">
        <ele>98.2</ele>
        <time>2022-12-09T14:53:44Z</time>
      </trkpt>
      <trkpt lat="49.87089" lon="2.21284">
        <ele>98.2</ele>
        <time>2022-12-09T14:53:45Z</time>
      </trkpt>
      <trkpt lat="49.87089" lon="2.21284">
        <ele>98.2</ele>
        <time>2022-12-09T14:53:46Z</time>
      </trkpt>
      <trkpt lat="49.87089" lon="2.21284">
        <ele>98.2</ele>
        <time>2022-12-09T14:53:47Z</time>
      </trkpt>
      <trkpt lat="49.87089" lon="2.21284">
        <ele>98.2</ele>
        <time>2022-12-09T14:53:48Z</time>
      </trkpt>
      <trkpt lat="49.87089" lon="2.21284">
        <ele>98.2</ele>
        <time>2022-12-09T14:53:49Z</time>
      </trkpt>
      <trkpt lat="49.87089" lon="2.21284">
        <ele>98.2</ele>
        <time>2022-12-09T14:53:50Z</time>
      </trkpt>
      <trkpt lat="49.87089" lon="2.21284">
        <ele>98.2</ele>
        <time>2022-12-09T14:53:51Z</time>
      </trkpt>
      <trkpt lat="49.87089" lon="2.21284">
        <ele>98.2</ele>
        <time>2022-12-09T14:53:52Z</time>
      </trkpt>
      <trkpt lat="49.87089" lon="2.21284">
        <ele>98.2</ele>
        <time>2022-12-09T14:53:53Z</time>
      </trkpt>
      <trkpt lat="49.87089" lon="2.21284">
        <ele>98.2</ele>
        <time>2022-12-09T14:53:54Z</time>
      </trkpt>
      <trkpt lat="49.87089" lon="2.21284">
        <ele>98.2</ele>
        <time>2022-12-09T14:53:55Z</time>
      </trkpt>
      <trkpt lat="49.87089" lon="2.21284">
        <ele>98.2</ele>
        <time>2022-12-09T14:53:56Z</time>
      </trkpt>
      <trkpt lat="49.87089" lon="2.21284">
        <ele>98.2</ele>
        <time>2022-12-09T14:53:57Z</time>
      </trkpt>
      <trkpt lat="49.87089" lon="2.21284">
        <ele>98.2</ele>
        <time>2022-12-09T14:53:58Z</time>
      </trkpt>
      <trkpt lat="49.87089" lon="2.21284">
        <ele>98.2</ele>
        <time>2022-12-09T14:53:59Z</time>
      </trkpt>
      <trkpt lat="49.87089" lon="2.21284">
        <ele>98.2</ele>
        <time>2022-12-09T14:54:00Z</time>
      </trkpt>
      <trkpt lat="49.87089" lon="2.21284">
        <ele>98.2</ele>
        <time>2022-12-09T14:54:01Z</time>
      </trkpt>
      <trkpt lat="49.87089" lon="2.21284">
        <ele>98.2</ele>
        <time>2022-12-09T14:54:02Z</time>
      </trkpt>
      <trkpt lat="49.87089" lon="2.21284">
        <ele>98.2</ele>
        <time>2022-12-09T14:54:03Z</time>
      </trkpt>
      <trkpt lat="49.87089" lon="2.21284">
        <ele>98.2</ele>
        <time>2022-12-09T14:54:04Z</time>
      </trkpt>
      <trkpt lat="49.87089" lon="2.21284">
        <ele>98.2</ele>
        <time>2022-12-09T14:54:05Z</time>
      </trkpt>
      <trkpt lat="49.87089" lon="2.21284">
        <ele>98.2</ele>
        <time>2022-12-09T14:54:06Z</time>
      </trkpt>
      <trkpt lat="49.87089" lon="2.21284">
        <ele>98.2</ele>
        <time>2022-12-09T14:54:07Z</time>
      </trkpt>
      <trkpt lat="49.87089" lon="2.21284">
        <ele>98.2</ele>
        <time>2022-12-09T14:54:08Z</time>
      </trkpt>
      <trkpt lat="49.87089" lon="2.21284">
        <ele>98.2</ele>
        <time>2022-12-09T14:54:09Z</time>
      </trkpt>
      <trkpt lat="49.87089" lon="2.21284">
        <ele>98.2</ele>
        <time>2022-12-09T14:54:10Z</time>
      </trkpt>
      <trkpt lat="49.87089" lon="2.21284">
        <ele>98.2</ele>
        <time>2022-12-09T14:54:11Z</time>
      </trkpt>
      <trkpt lat="49.87089" lon="2.21284">
        <ele>98.2</ele>
        <time>2022-12-09T14:54:12Z</time>
      </trkpt>
      <trkpt lat="49.87089" lon="2.21284">
        <ele>98.2</ele>
        <time>2022-12-09T14:54:13Z</time>
      </trkpt>
      <trkpt lat="49.87089" lon="2.21284">
        <ele>98.2</ele>
        <time>2022-12-09T14:54:14Z</time>
      </trkpt>
      <trkpt lat="49.87089" lon="2.21284">
        <ele>98.2</ele>
        <time>2022-12-09T14:54:15Z</time>
      </trkpt>
      <trkpt lat="49.87089" lon="2.21284">
        <ele>98.2</ele>
        <time>2022-12-09T14:54:16Z</time>
      </trkpt>
      <trkpt lat="49.87089" lon="2.21284">
        <ele>98.2</ele>
        <time>2022-12-09T14:54:17Z</time>
      </trkpt>
      <trkpt lat="49.87089" lon="2.21284">
        <ele>98.2</ele>
        <time>2022-12-09T14:54:18Z</time>
      </trkpt>
      <trkpt lat="49.87089" lon="2.21284">
        <ele>98.2</ele>
        <time>2022-12-09T14:54:19Z</time>
      </trkpt>
      <trkpt lat="49.87089" lon="2.21284">
        <ele>98.2</ele>
        <time>2022-12-09T14:54:20Z</time>
      </trkpt>
      <trkpt lat="49.87089" lon="2.21284">
        <ele>98.2</ele>
        <time>2022-12-09T14:54:21Z</time>
      </trkpt>
      <trkpt lat="49.87089" lon="2.21284">
        <ele>98.2</ele>
        <time>2022-12-09T14:54:22Z</time>
      </trkpt>
      <trkpt lat="49.87089" lon="2.21284">
        <ele>98.2</ele>
        <time>2022-12-09T14:54:23Z</time>
      </trkpt>
      <trkpt lat="49.87089" lon="2.21284">
        <ele>98.2</ele>
        <time>2022-12-09T14:54:24Z</time>
      </trkpt>
      <trkpt lat="49.87089" lon="2.21284">
        <ele>98.2</ele>
        <time>2022-12-09T14:54:25Z</time>
      </trkpt>
      <trkpt lat="49.87089" lon="2.21284">
        <ele>98.2</ele>
        <time>2022-12-09T14:54:26Z</time>
      </trkpt>
      <trkpt lat="49.87089" lon="2.21284">
        <ele>98.2</ele>
        <time>2022-12-09T14:54:27Z</time>
      </trkpt>
      <trkpt lat="49.87089" lon="2.21284">
        <ele>98.2</ele>
        <time>2022-12-09T14:54:28Z</time>
      </trkpt>
      <trkpt lat="49.87089" lon="2.21284">
        <ele>98.2</ele>
        <time>2022-12-09T14:54:29Z</time>
      </trkpt>
      <trkpt lat="49.87089" lon="2.21284">
        <ele>98.2</ele>
        <time>2022-12-09T14:54:30Z</time>
      </trkpt>
      <trkpt lat="49.87089" lon="2.21284">
        <ele>98.2</ele>
        <time>2022-12-09T14:54:31Z</time>
      </trkpt>
      <trkpt lat="49.87089" lon="2.21284">
        <ele>98.2</ele>
        <time>2022-12-09T14:54:32Z</time>
      </trkpt>
      <trkpt lat="49.87089" lon="2.21284">
        <ele>98.2</ele>
        <time>2022-12-09T14:54:33Z</time>
      </trkpt>
      <trkpt lat="49.87089" lon="2.21284">
        <ele>98.2</ele>
        <time>2022-12-09T14:54:34Z</time>
      </trkpt>
      <trkpt lat="49.87089" lon="2.21284">
        <ele>98.2</ele>
        <time>2022-12-09T14:54:35Z</time>
      </trkpt>
      <trkpt lat="49.87089" lon="2.21284">
        <ele>98.2</ele>
        <time>2022-12-09T14:54:36Z</time>
      </trkpt>
      <trkpt lat="49.87089" lon="2.21284">
        <ele>98.2</ele>
        <time>2022-12-09T14:54:37Z</time>
      </trkpt>
      <trkpt lat="49.87089" lon="2.21284">
        <ele>98.2</ele>
        <time>2022-12-09T14:54:38Z</time>
      </trkpt>
      <trkpt lat="49.87089" lon="2.21284">
        <ele>98.2</ele>
        <time>2022-12-09T14:54:39Z</time>
      </trkpt>
      <trkpt lat="49.87089" lon="2.21284">
        <ele>98.2</ele>
        <time>2022-12-09T14:54:40Z</time>
      </trkpt>
      <trkpt lat="49.87089" lon="2.21284">
        <ele>98.2</ele>
        <time>2022-12-09T14:54:41Z</time>
      </trkpt>
      <trkpt lat="49.87089" lon="2.21284">
        <ele>98.2</ele>
        <time>2022-12-09T14:54:42Z</time>
      </trkpt>
      <trkpt lat="49.87089" lon="2.21284">
        <ele>98.2</ele>
        <time>2022-12-09T14:54:43Z</time>
      </trkpt>
      <trkpt lat="49.87089" lon="2.21284">
        <ele>98.2</ele>
        <time>2022-12-09T14:54:44Z</time>
      </trkpt>
      <trkpt lat="49.87089" lon="2.21284">
        <ele>98.2</ele>
        <time>2022-12-09T14:54:45Z</time>
      </trkpt>
      <trkpt lat="49.87089" lon="2.21284">
        <ele>98.2</ele>
        <time>2022-12-09T14:54:46Z</time>
      </trkpt>
      <trkpt lat="49.87089" lon="2.21284">
        <ele>98.2</ele>
        <time>2022-12-09T14:54:47Z</time>
      </trkpt>
      <trkpt lat="49.87089" lon="2.21284">
        <ele>98.2</ele>
        <time>2022-12-09T14:54:48Z</time>
      </trkpt>
      <trkpt lat="49.87089" lon="2.21284">
        <ele>98.2</ele>
        <time>2022-12-09T14:54:49Z</time>
      </trkpt>
      <trkpt lat="49.87089" lon="2.21284">
        <ele>98.2</ele>
        <time>2022-12-09T14:54:50Z</time>
      </trkpt>
      <trkpt lat="49.87089" lon="2.21284">
        <ele>98.2</ele>
        <time>2022-12-09T14:54:51Z</time>
      </trkpt>
      <trkpt lat="49.87089" lon="2.21284">
        <ele>98.2</ele>
        <time>2022-12-09T14:54:52Z</time>
      </trkpt>
      <trkpt lat="49.87089" lon="2.21284">
        <ele>98.2</ele>
        <time>2022-12-09T14:54:53Z</time>
      </trkpt>
      <trkpt lat="49.87089" lon="2.21284">
        <ele>98.2</ele>
        <time>2022-12-09T14:54:54Z</time>
      </trkpt>
      <trkpt lat="49.87089" lon="2.21284">
        <ele>98.2</ele>
        <time>2022-12-09T14:54:55Z</time>
      </trkpt>
      <trkpt lat="49.87089" lon="2.21284">
        <ele>98.2</ele>
        <time>2022-12-09T14:54:56Z</time>
      </trkpt>
      <trkpt lat="49.87089" lon="2.21284">
        <ele>98.2</ele>
        <time>2022-12-09T14:54:57Z</time>
      </trkpt>
      <trkpt lat="49.87089" lon="2.21284">
        <ele>98.2</ele>
        <time>2022-12-09T14:54:58Z</time>
      </trkpt>
      <trkpt lat="49.87089" lon="2.21284">
        <ele>98.2</ele>
        <time>2022-12-09T14:54:59Z</time>
      </trkpt>
      <trkpt lat="49.87089" lon="2.21284">
        <ele>98.2</ele>
        <time>2022-12-09T14:55:00Z</time>
      </trkpt>
      <trkpt lat="49.87089" lon="2.21284">
        <ele>98.2</ele>
        <time>2022-12-09T14:55:01Z</time>
      </trkpt>
      <trkpt lat="49.87089" lon="2.21284">
        <ele>98.2</ele>
        <time>2022-12-09T14:55:02Z</time>
      </trkpt>
      <trkpt lat="49.87089" lon="2.21284">
        <ele>98.2</ele>
        <time>2022-12-09T14:55:03Z</time>
      </trkpt>
      <trkpt lat="49.87089" lon="2.21284">
        <ele>98.2</ele>
        <time>2022-12-09T14:55:04Z</time>
      </trkpt>
      <trkpt lat="49.87089" lon="2.21284">
        <ele>98.2</ele>
        <time>2022-12-09T14:55:05Z</time>
      </trkpt>
      <trkpt lat="49.87089" lon="2.21284">
        <ele>98.2</ele>
        <time>2022-12-09T14:55:06Z</time>
      </trkpt>
      <trkpt lat="49.87089" lon="2.21284">
        <ele>98.2</ele>
        <time>2022-12-09T14:55:07Z</time>
      </trkpt>
      <trkpt lat="49.87089" lon="2.21284">
        <ele>98.2</ele>
        <time>2022-12-09T14:55:08Z</time>
      </trkpt>
      <trkpt lat="49.87089" lon="2.21284">
        <ele>98.2</ele>
        <time>2022-12-09T14:55:09Z</time>
      </trkpt>
      <trkpt lat="49.87089" lon="2.21284">
        <ele>98.2</ele>
        <time>2022-12-09T14:55:10Z</time>
      </trkpt>
      <trkpt lat="49.87089" lon="2.21284">
        <ele>98.2</ele>
        <time>2022-12-09T14:55:11Z</time>
      </trkpt>
      <trkpt lat="49.87089" lon="2.21284">
        <ele>98.2</ele>
        <time>2022-12-09T14:55:12Z</time>
      </trkpt>
      <trkpt lat="49.87089" lon="2.21284">
        <ele>98.2</ele>
        <time>2022-12-09T14:55:13Z</time>
      </trkpt>
      <trkpt lat="49.87089" lon="2.21284">
        <ele>98.2</ele>
        <time>2022-12-09T14:55:14Z</time>
      </trkpt>
      <trkpt lat="49.87089" lon="2.21284">
        <ele>98.2</ele>
        <time>2022-12-09T14:55:15Z</time>
      </trkpt>
      <trkpt lat="49.87089" lon="2.21284">
        <ele>98.2</ele>
        <time>2022-12-09T14:55:16Z</time>
      </trkpt>
      <trkpt lat="49.87089" lon="2.21284">
        <ele>98.2</ele>
        <time>2022-12-09T14:55:17Z</time>
      </trkpt>
      <trkpt lat="49.87089" lon="2.21284">
        <ele>98.2</ele>
        <time>2022-12-09T14:55:18Z</time>
      </trkpt>
      <trkpt lat="49.87089" lon="2.21284">
        <ele>98.2</ele>
        <time>2022-12-09T14:55:19Z</time>
      </trkpt>
      <trkpt lat="49.87089" lon="2.21284">
        <ele>98.2</ele>
        <time>2022-12-09T14:55:20Z</time>
      </trkpt>
      <trkpt lat="49.87089" lon="2.21284">
        <ele>98.2</ele>
        <time>2022-12-09T14:55:21Z</time>
      </trkpt>
      <trkpt lat="49.87089" lon="2.21284">
        <ele>98.2</ele>
        <time>2022-12-09T14:55:22Z</time>
      </trkpt>
      <trkpt lat="49.87089" lon="2.21284">
        <ele>98.2</ele>
        <time>2022-12-09T14:55:23Z</time>
      </trkpt>
      <trkpt lat="49.87089" lon="2.21284">
        <ele>98.2</ele>
        <time>2022-12-09T14:55:24Z</time>
      </trkpt>
      <trkpt lat="49.87089" lon="2.21284">
        <ele>98.2</ele>
        <time>2022-12-09T14:55:25Z</time>
      </trkpt>
      <trkpt lat="49.87089" lon="2.21284">
        <ele>98.2</ele>
        <time>2022-12-09T14:55:26Z</time>
      </trkpt>
      <trkpt lat="49.87089" lon="2.21284">
        <ele>98.2</ele>
        <time>2022-12-09T14:55:27Z</time>
      </trkpt>
      <trkpt lat="49.87089" lon="2.21284">
        <ele>98.2</ele>
        <time>2022-12-09T14:55:28Z</time>
      </trkpt>
      <trkpt lat="49.87089" lon="2.21284">
        <ele>98.2</ele>
        <time>2022-12-09T14:55:29Z</time>
      </trkpt>
      <trkpt lat="49.87089" lon="2.21284">
        <ele>98.2</ele>
        <time>2022-12-09T14:55:30Z</time>
      </trkpt>
      <trkpt lat="49.87089" lon="2.21284">
        <ele>98.2</ele>
        <time>2022-12-09T14:55:31Z</time>
      </trkpt>
      <trkpt lat="49.87089" lon="2.21284">
        <ele>98.2</ele>
        <time>2022-12-09T14:55:32Z</time>
      </trkpt>
      <trkpt lat="49.87089" lon="2.21284">
        <ele>98.2</ele>
        <time>2022-12-09T14:55:33Z</time>
      </trkpt>
      <trkpt lat="49.87089" lon="2.21284">
        <ele>98.2</ele>
        <time>2022-12-09T14:55:34Z</time>
      </trkpt>
      <trkpt lat="49.87089" lon="2.21284">
        <ele>98.2</ele>
        <time>2022-12-09T14:55:35Z</time>
      </trkpt>
      <trkpt lat="49.87089" lon="2.21284">
        <ele>98.2</ele>
        <time>2022-12-09T14:55:36Z</time>
      </trkpt>
      <trkpt lat="49.87089" lon="2.21284">
        <ele>98.2</ele>
        <time>2022-12-09T14:55:37Z</time>
      </trkpt>
      <trkpt lat="49.87089" lon="2.21284">
        <ele>98.2</ele>
        <time>2022-12-09T14:55:38Z</time>
      </trkpt>
      <trkpt lat="49.87089" lon="2.21284">
        <ele>98.2</ele>
        <time>2022-12-09T14:55:39Z</time>
      </trkpt>
      <trkpt lat="49.87089" lon="2.21284">
        <ele>98.2</ele>
        <time>2022-12-09T14:55:40Z</time>
      </trkpt>
      <trkpt lat="49.87089" lon="2.21284">
        <ele>98.2</ele>
        <time>2022-12-09T14:55:41Z</time>
      </trkpt>
      <trkpt lat="49.87089" lon="2.21284">
        <ele>98.2</ele>
        <time>2022-12-09T14:55:42Z</time>
      </trkpt>
      <trkpt lat="49.87089" lon="2.21284">
        <ele>98.2</ele>
        <time>2022-12-09T14:55:43Z</time>
      </trkpt>
      <trkpt lat="49.87089" lon="2.21284">
        <ele>98.2</ele>
        <time>2022-12-09T14:55:44Z</time>
      </trkpt>
      <trkpt lat="49.87089" lon="2.21284">
        <ele>98.2</ele>
        <time>2022-12-09T14:55:45Z</time>
      </trkpt>
      <trkpt lat="49.87089" lon="2.21284">
        <ele>98.2</ele>
        <time>2022-12-09T14:55:46Z</time>
      </trkpt>
      <trkpt lat="49.87089" lon="2.21284">
        <ele>98.2</ele>
        <time>2022-12-09T14:55:47Z</time>
      </trkpt>
      <trkpt lat="49.87089" lon="2.21284">
        <ele>98.2</ele>
        <time>2022-12-09T14:55:48Z</time>
      </trkpt>
      <trkpt lat="49.87089" lon="2.21284">
        <ele>98.2</ele>
        <time>2022-12-09T14:55:49Z</time>
      </trkpt>
      <trkpt lat="49.87089" lon="2.21284">
        <ele>98.2</ele>
        <time>2022-12-09T14:55:50Z</time>
      </trkpt>
      <trkpt lat="49.87089" lon="2.21284">
        <ele>98.2</ele>
        <time>2022-12-09T14:55:51Z</time>
      </trkpt>
      <trkpt lat="49.87089" lon="2.21284">
        <ele>98.2</ele>
        <time>2022-12-09T14:55:52Z</time>
      </trkpt>
      <trkpt lat="49.87089" lon="2.21284">
        <ele>98.2</ele>
        <time>2022-12-09T14:55:53Z</time>
      </trkpt>
      <trkpt lat="49.87089" lon="2.21284">
        <ele>98.2</ele>
        <time>2022-12-09T14:55:54Z</time>
      </trkpt>
      <trkpt lat="49.87089" lon="2.21284">
        <ele>98.2</ele>
        <time>2022-12-09T14:55:55Z</time>
      </trkpt>
      <trkpt lat="49.87089" lon="2.21284">
        <ele>98.2</ele>
        <time>2022-12-09T14:55:56Z</time>
      </trkpt>
      <trkpt lat="49.87089" lon="2.21284">
        <ele>98.2</ele>
        <time>2022-12-09T14:55:57Z</time>
      </trkpt>
      <trkpt lat="49.87089" lon="2.21284">
        <ele>98.2</ele>
        <time>2022-12-09T14:55:58Z</time>
      </trkpt>
      <trkpt lat="49.87089" lon="2.21284">
        <ele>98.2</ele>
        <time>2022-12-09T14:55:59Z</time>
      </trkpt>
      <trkpt lat="49.87089" lon="2.21284">
        <ele>98.2</ele>
        <time>2022-12-09T14:56:00Z</time>
      </trkpt>
      <trkpt lat="49.87089" lon="2.21284">
        <ele>98.2</ele>
        <time>2022-12-09T14:56:01Z</time>
      </trkpt>
      <trkpt lat="49.87089" lon="2.21284">
        <ele>98.2</ele>
        <time>2022-12-09T14:56:02Z</time>
      </trkpt>
      <trkpt lat="49.87089" lon="2.21284">
        <ele>98.2</ele>
        <time>2022-12-09T14:56:03Z</time>
      </trkpt>
      <trkpt lat="49.87089" lon="2.21284">
        <ele>98.2</ele>
        <time>2022-12-09T14:56:04Z</time>
      </trkpt>
      <trkpt lat="49.87089" lon="2.21284">
        <ele>98.2</ele>
        <time>2022-12-09T14:56:05Z</time>
      </trkpt>
      <trkpt lat="49.87089" lon="2.21284">
        <ele>98.2</ele>
        <time>2022-12-09T14:56:06Z</time>
      </trkpt>
      <trkpt lat="49.87089" lon="2.21284">
        <ele>98.2</ele>
        <time>2022-12-09T14:56:07Z</time>
      </trkpt>
      <trkpt lat="49.87089" lon="2.21284">
        <ele>98.2</ele>
        <time>2022-12-09T14:56:08Z</time>
      </trkpt>
      <trkpt lat="49.87089" lon="2.21284">
        <ele>98.2</ele>
        <time>2022-12-09T14:56:09Z</time>
      </trkpt>
      <trkpt lat="49.87089" lon="2.21284">
        <ele>98.2</ele>
        <time>2022-12-09T14:56:10Z</time>
      </trkpt>
      <trkpt lat="49.87089" lon="2.21284">
        <ele>98.2</ele>
        <time>2022-12-09T14:56:11Z</time>
      </trkpt>
      <trkpt lat="49.87089" lon="2.21284">
        <ele>98.2</ele>
        <time>2022-12-09T14:56:12Z</time>
      </trkpt>
      <trkpt lat="49.87089" lon="2.21284">
        <ele>98.2</ele>
        <time>2022-12-09T14:56:13Z</time>
      </trkpt>
      <trkpt lat="49.87089" lon="2.21284">
        <ele>98.2</ele>
        <time>2022-12-09T14:56:14Z</time>
      </trkpt>
      <trkpt lat="49.87089" lon="2.21284">
        <ele>98.2</ele>
        <time>2022-12-09T14:56:15Z</time>
      </trkpt>
      <trkpt lat="49.87089" lon="2.21284">
        <ele>98.2</ele>
        <time>2022-12-09T14:56:16Z</time>
      </trkpt>
      <trkpt lat="49.87089" lon="2.21284">
        <ele>98.2</ele>
        <time>2022-12-09T14:56:17Z</time>
      </trkpt>
      <trkpt lat="49.87089" lon="2.21284">
        <ele>98.2</ele>
        <time>2022-12-09T14:56:18Z</time>
      </trkpt>
      <trkpt lat="49.87089" lon="2.21284">
        <ele>98.2</ele>
        <time>2022-12-09T14:56:19Z</time>
      </trkpt>
      <trkpt lat="49.87089" lon="2.21284">
        <ele>98.2</ele>
        <time>2022-12-09T14:56:20Z</time>
      </trkpt>
      <trkpt lat="49.87089" lon="2.21284">
        <ele>98.2</ele>
        <time>2022-12-09T14:56:21Z</time>
      </trkpt>
      <trkpt lat="49.87089" lon="2.21284">
        <ele>98.2</ele>
        <time>2022-12-09T14:56:22Z</time>
      </trkpt>
      <trkpt lat="49.87089" lon="2.21284">
        <ele>98.2</ele>
        <time>2022-12-09T14:56:23Z</time>
      </trkpt>
      <trkpt lat="49.87089" lon="2.21284">
        <ele>98.2</ele>
        <time>2022-12-09T14:56:24Z</time>
      </trkpt>
      <trkpt lat="49.87089" lon="2.21284">
        <ele>98.2</ele>
        <time>2022-12-09T14:56:25Z</time>
      </trkpt>
      <trkpt lat="49.87089" lon="2.21284">
        <ele>98.2</ele>
        <time>2022-12-09T14:56:26Z</time>
      </trkpt>
      <trkpt lat="49.87089" lon="2.21284">
        <ele>98.2</ele>
        <time>2022-12-09T14:56:27Z</time>
      </trkpt>
      <trkpt lat="49.87089" lon="2.21284">
        <ele>98.2</ele>
        <time>2022-12-09T14:56:28Z</time>
      </trkpt>
      <trkpt lat="49.87089" lon="2.21284">
        <ele>98.2</ele>
        <time>2022-12-09T14:56:29Z</time>
      </trkpt>
      <trkpt lat="49.87089" lon="2.21284">
        <ele>98.2</ele>
        <time>2022-12-09T14:56:30Z</time>
      </trkpt>
      <trkpt lat="49.87089" lon="2.21284">
        <ele>98.2</ele>
        <time>2022-12-09T14:56:31Z</time>
      </trkpt>
      <trkpt lat="49.87089" lon="2.21284">
        <ele>98.2</ele>
        <time>2022-12-09T14:56:32Z</time>
      </trkpt>
      <trkpt lat="49.87089" lon="2.21284">
        <ele>98.2</ele>
        <time>2022-12-09T14:56:33Z</time>
      </trkpt>
      <trkpt lat="49.8709" lon="2.21285">
        <ele>98.2</ele>
        <time>2022-12-09T14:56:34Z</time>
      </trkpt>
      <trkpt lat="49.8709" lon="2.21285">
        <ele>98.2</ele>
        <time>2022-12-09T14:56:35Z</time>
      </trkpt>
      <trkpt lat="49.8709" lon="2.21286">
        <ele>98.2</ele>
        <time>2022-12-09T14:56:36Z</time>
      </trkpt>
      <trkpt lat="49.87089" lon="2.21287">
        <ele>98.3</ele>
        <time>2022-12-09T14:56:37Z</time>
      </trkpt>
      <trkpt lat="49.87089" lon="2.21289">
        <ele>98.3</ele>
        <time>2022-12-09T14:56:38Z</time>
      </trkpt>
      <trkpt lat="49.87088" lon="2.2129">
        <ele>98.3</ele>
        <time>2022-12-09T14:56:40Z</time>
      </trkpt>
      <trkpt lat="49.87087" lon="2.21292">
        <ele>98.3</ele>
        <time>2022-12-09T14:56:41Z</time>
      </trkpt>
      <trkpt lat="49.87086" lon="2.21294">
        <ele>98.4</ele>
        <time>2022-12-09T14:56:42Z</time>
      </trkpt>
      <trkpt lat="49.87085" lon="2.21295">
        <ele>98.4</ele>
        <time>2022-12-09T14:56:43Z</time>
      </trkpt>
      <trkpt lat="49.87084" lon="2.21296">
        <ele>98.4</ele>
        <time>2022-12-09T14:56:44Z</time>
      </trkpt>
      <trkpt lat="49.87083" lon="2.21298">
        <ele>98.4</ele>
        <time>2022-12-09T14:56:46Z</time>
      </trkpt>
      <trkpt lat="49.87082" lon="2.21299">
        <ele>98.4</ele>
        <time>2022-12-09T14:56:47Z</time>
      </trkpt>
      <trkpt lat="49.87081" lon="2.21301">
        <ele>98.5</ele>
        <time>2022-12-09T14:56:48Z</time>
      </trkpt>
      <trkpt lat="49.8708" lon="2.21302">
        <ele>98.5</ele>
        <time>2022-12-09T14:56:49Z</time>
      </trkpt>
      <trkpt lat="49.8708" lon="2.21303">
        <ele>98.5</ele>
        <time>2022-12-09T14:56:50Z</time>
      </trkpt>
      <trkpt lat="49.87079" lon="2.21304">
        <ele>98.5</ele>
        <time>2022-12-09T14:56:51Z</time>
      </trkpt>
      <trkpt lat="49.87078" lon="2.21305">
        <ele>98.5</ele>
        <time>2022-12-09T14:56:52Z</time>
      </trkpt>
      <trkpt lat="49.87077" lon="2.21307">
        <ele>98.6</ele>
        <time>2022-12-09T14:56:53Z</time>
      </trkpt>
      <trkpt lat="49.87077" lon="2.21308">
        <ele>98.6</ele>
        <time>2022-12-09T14:56:54Z</time>
      </trkpt>
      <trkpt lat="49.87076" lon="2.21309">
        <ele>98.6</ele>
        <time>2022-12-09T14:56:56Z</time>
      </trkpt>
      <trkpt lat="49.87076" lon="2.2131">
        <ele>98.6</ele>
        <time>2022-12-09T14:56:57Z</time>
      </trkpt>
      <trkpt lat="49.87075" lon="2.21312">
        <ele>98.6</ele>
        <time>2022-12-09T14:56:58Z</time>
      </trkpt>
      <trkpt lat="49.87073" lon="2.21313">
        <ele>98.6</ele>
        <time>2022-12-09T14:56:59Z</time>
      </trkpt>
      <trkpt lat="49.87071" lon="2.21316">
        <ele>98.6</ele>
        <time>2022-12-09T14:57:00Z</time>
      </trkpt>
      <trkpt lat="49.8707" lon="2.21317">
        <ele>98.7</ele>
        <time>2022-12-09T14:57:01Z</time>
      </trkpt>
      <trkpt lat="49.87069" lon="2.21318">
        <ele>98.7</ele>
        <time>2022-12-09T14:57:02Z</time>
      </trkpt>
      <trkpt lat="49.87068" lon="2.2132">
        <ele>98.7</ele>
        <time>2022-12-09T14:57:04Z</time>
      </trkpt>
      <trkpt lat="49.87067" lon="2.21322">
        <ele>98.7</ele>
        <time>2022-12-09T14:57:05Z</time>
      </trkpt>
      <trkpt lat="49.87065" lon="2.21323">
        <ele>98.7</ele>
        <time>2022-12-09T14:57:06Z</time>
      </trkpt>
      <trkpt lat="49.87064" lon="2.21325">
        <ele>98.7</ele>
        <time>2022-12-09T14:57:07Z</time>
      </trkpt>
      <trkpt lat="49.87063" lon="2.21326">
        <ele>98.7</ele>
        <time>2022-12-09T14:57:08Z</time>
      </trkpt>
      <trkpt lat="49.87062" lon="2.21327">
        <ele>98.7</ele>
        <time>2022-12-09T14:57:09Z</time>
      </trkpt>
      <trkpt lat="49.87061" lon="2.21329">
        <ele>98.7</ele>
        <time>2022-12-09T14:57:10Z</time>
      </trkpt>
      <trkpt lat="49.8706" lon="2.21329">
        <ele>98.7</ele>
        <time>2022-12-09T14:57:11Z</time>
      </trkpt>
      <trkpt lat="49.87059" lon="2.2133">
        <ele>98.7</ele>
        <time>2022-12-09T14:57:12Z</time>
      </trkpt>
      <trkpt lat="49.87058" lon="2.21332">
        <ele>98.7</ele>
        <time>2022-12-09T14:57:13Z</time>
      </trkpt>
      <trkpt lat="49.87057" lon="2.21333">
        <ele>98.6</ele>
        <time>2022-12-09T14:57:14Z</time>
      </trkpt>
      <trkpt lat="49.87056" lon="2.21335">
        <ele>98.6</ele>
        <time>2022-12-09T14:57:16Z</time>
      </trkpt>
      <trkpt lat="49.87054" lon="2.21337">
        <ele>98.6</ele>
        <time>2022-12-09T14:57:17Z</time>
      </trkpt>
      <trkpt lat="49.87054" lon="2.21338">
        <ele>98.6</ele>
        <time>2022-12-09T14:57:18Z</time>
      </trkpt>
      <trkpt lat="49.87053" lon="2.21339">
        <ele>98.6</ele>
        <time>2022-12-09T14:57:19Z</time>
      </trkpt>
      <trkpt lat="49.87052" lon="2.21341">
        <ele>98.6</ele>
        <time>2022-12-09T14:57:20Z</time>
      </trkpt>
      <trkpt lat="49.87052" lon="2.21342">
        <ele>98.6</ele>
        <time>2022-12-09T14:57:21Z</time>
      </trkpt>
      <trkpt lat="49.87051" lon="2.21343">
        <ele>98.6</ele>
        <time>2022-12-09T14:57:22Z</time>
      </trkpt>
      <trkpt lat="49.8705" lon="2.21345">
        <ele>98.5</ele>
        <time>2022-12-09T14:57:24Z</time>
      </trkpt>
      <trkpt lat="49.87049" lon="2.21346">
        <ele>98.5</ele>
        <time>2022-12-09T14:57:25Z</time>
      </trkpt>
      <trkpt lat="49.87048" lon="2.21348">
        <ele>98.5</ele>
        <time>2022-12-09T14:57:26Z</time>
      </trkpt>
      <trkpt lat="49.87047" lon="2.21349">
        <ele>98.5</ele>
        <time>2022-12-09T14:57:27Z</time>
      </trkpt>
      <trkpt lat="49.87047" lon="2.2135">
        <ele>98.5</ele>
        <time>2022-12-09T14:57:28Z</time>
      </trkpt>
      <trkpt lat="49.87046" lon="2.21352">
        <ele>98.5</ele>
        <time>2022-12-09T14:57:29Z</time>
      </trkpt>
      <trkpt lat="49.87045" lon="2.21353">
        <ele>98.4</ele>
        <time>2022-12-09T14:57:30Z</time>
      </trkpt>
      <trkpt lat="49.87044" lon="2.21354">
        <ele>98.4</ele>
        <time>2022-12-09T14:57:31Z</time>
      </trkpt>
      <trkpt lat="49.87043" lon="2.21356">
        <ele>98.4</ele>
        <time>2022-12-09T14:57:33Z</time>
      </trkpt>
      <trkpt lat="49.87042" lon="2.21357">
        <ele>98.4</ele>
        <time>2022-12-09T14:57:34Z</time>
      </trkpt>
      <trkpt lat="49.87042" lon="2.21358">
        <ele>98.4</ele>
        <time>2022-12-09T14:57:35Z</time>
      </trkpt>
      <trkpt lat="49.87041" lon="2.21359">
        <ele>98.3</ele>
        <time>2022-12-09T14:57:36Z</time>
      </trkpt>
      <trkpt lat="49.8704" lon="2.21361">
        <ele>98.3</ele>
        <time>2022-12-09T14:57:37Z</time>
      </trkpt>
      <trkpt lat="49.87039" lon="2.21362">
        <ele>98.3</ele>
        <time>2022-12-09T14:57:38Z</time>
      </trkpt>
      <trkpt lat="49.87038" lon="2.21364">
        <ele>98.2</ele>
        <time>2022-12-09T14:57:39Z</time>
      </trkpt>
      <trkpt lat="49.87037" lon="2.21365">
        <ele>98.2</ele>
        <time>2022-12-09T14:57:40Z</time>
      </trkpt>
      <trkpt lat="49.87037" lon="2.21366">
        <ele>98.2</ele>
        <time>2022-12-09T14:57:41Z</time>
      </trkpt>
      <trkpt lat="49.87036" lon="2.21368">
        <ele>98.2</ele>
        <time>2022-12-09T14:57:42Z</time>
      </trkpt>
      <trkpt lat="49.87034" lon="2.2137">
        <ele>98.1</ele>
        <time>2022-12-09T14:57:44Z</time>
      </trkpt>
      <trkpt lat="49.87033" lon="2.21371">
        <ele>98.1</ele>
        <time>2022-12-09T14:57:45Z</time>
      </trkpt>
      <trkpt lat="49.87032" lon="2.21373">
        <ele>98.1</ele>
        <time>2022-12-09T14:57:46Z</time>
      </trkpt>
      <trkpt lat="49.87031" lon="2.21374">
        <ele>98</ele>
        <time>2022-12-09T14:57:47Z</time>
      </trkpt>
      <trkpt lat="49.8703" lon="2.21375">
        <ele>98</ele>
        <time>2022-12-09T14:57:48Z</time>
      </trkpt>
      <trkpt lat="49.87028" lon="2.21377">
        <ele>97.9</ele>
        <time>2022-12-09T14:57:49Z</time>
      </trkpt>
      <trkpt lat="49.87027" lon="2.21378">
        <ele>97.9</ele>
        <time>2022-12-09T14:57:50Z</time>
      </trkpt>
      <trkpt lat="49.87026" lon="2.2138">
        <ele>97.9</ele>
        <time>2022-12-09T14:57:52Z</time>
      </trkpt>
      <trkpt lat="49.87025" lon="2.21381">
        <ele>97.8</ele>
        <time>2022-12-09T14:57:53Z</time>
      </trkpt>
      <trkpt lat="49.87024" lon="2.21383">
        <ele>97.8</ele>
        <time>2022-12-09T14:57:54Z</time>
      </trkpt>
      <trkpt lat="49.87023" lon="2.21384">
        <ele>97.7</ele>
        <time>2022-12-09T14:57:55Z</time>
      </trkpt>
      <trkpt lat="49.87023" lon="2.21385">
        <ele>97.7</ele>
        <time>2022-12-09T14:57:56Z</time>
      </trkpt>
      <trkpt lat="49.87022" lon="2.21386">
        <ele>97.7</ele>
        <time>2022-12-09T14:57:57Z</time>
      </trkpt>
      <trkpt lat="49.87021" lon="2.21388">
        <ele>97.6</ele>
        <time>2022-12-09T14:57:58Z</time>
      </trkpt>
      <trkpt lat="49.8702" lon="2.21389">
        <ele>97.6</ele>
        <time>2022-12-09T14:57:59Z</time>
      </trkpt>
      <trkpt lat="49.87019" lon="2.21391">
        <ele>97.5</ele>
        <time>2022-12-09T14:58:00Z</time>
      </trkpt>
      <trkpt lat="49.87018" lon="2.21392">
        <ele>97.5</ele>
        <time>2022-12-09T14:58:01Z</time>
      </trkpt>
      <trkpt lat="49.87018" lon="2.21393">
        <ele>97.5</ele>
        <time>2022-12-09T14:58:02Z</time>
      </trkpt>
      <trkpt lat="49.87017" lon="2.21395">
        <ele>97.4</ele>
        <time>2022-12-09T14:58:03Z</time>
      </trkpt>
      <trkpt lat="49.87017" lon="2.21396">
        <ele>97.4</ele>
        <time>2022-12-09T14:58:04Z</time>
      </trkpt>
      <trkpt lat="49.87016" lon="2.21398">
        <ele>97.4</ele>
        <time>2022-12-09T14:58:05Z</time>
      </trkpt>
      <trkpt lat="49.87015" lon="2.214">
        <ele>97.3</ele>
        <time>2022-12-09T14:58:06Z</time>
      </trkpt>
      <trkpt lat="49.87014" lon="2.21401">
        <ele>97.3</ele>
        <time>2022-12-09T14:58:08Z</time>
      </trkpt>
      <trkpt lat="49.87013" lon="2.21402">
        <ele>97.2</ele>
        <time>2022-12-09T14:58:09Z</time>
      </trkpt>
      <trkpt lat="49.87013" lon="2.21404">
        <ele>97.2</ele>
        <time>2022-12-09T14:58:10Z</time>
      </trkpt>
      <trkpt lat="49.87012" lon="2.21405">
        <ele>97.1</ele>
        <time>2022-12-09T14:58:11Z</time>
      </trkpt>
      <trkpt lat="49.87011" lon="2.21406">
        <ele>97.1</ele>
        <time>2022-12-09T14:58:12Z</time>
      </trkpt>
      <trkpt lat="49.8701" lon="2.21407">
        <ele>97.1</ele>
        <time>2022-12-09T14:58:13Z</time>
      </trkpt>
      <trkpt lat="49.87009" lon="2.21409">
        <ele>97</ele>
        <time>2022-12-09T14:58:14Z</time>
      </trkpt>
      <trkpt lat="49.87009" lon="2.2141">
        <ele>97</ele>
        <time>2022-12-09T14:58:15Z</time>
      </trkpt>
      <trkpt lat="49.87007" lon="2.21412">
        <ele>96.9</ele>
        <time>2022-12-09T14:58:16Z</time>
      </trkpt>
      <trkpt lat="49.87007" lon="2.21413">
        <ele>96.8</ele>
        <time>2022-12-09T14:58:17Z</time>
      </trkpt>
      <trkpt lat="49.87006" lon="2.21414">
        <ele>96.8</ele>
        <time>2022-12-09T14:58:18Z</time>
      </trkpt>
      <trkpt lat="49.87005" lon="2.21416">
        <ele>96.7</ele>
        <time>2022-12-09T14:58:19Z</time>
      </trkpt>
      <trkpt lat="49.87004" lon="2.21417">
        <ele>96.7</ele>
        <time>2022-12-09T14:58:20Z</time>
      </trkpt>
      <trkpt lat="49.87003" lon="2.21418">
        <ele>96.6</ele>
        <time>2022-12-09T14:58:21Z</time>
      </trkpt>
      <trkpt lat="49.87002" lon="2.21419">
        <ele>96.6</ele>
        <time>2022-12-09T14:58:22Z</time>
      </trkpt>
      <trkpt lat="49.87001" lon="2.21421">
        <ele>96.5</ele>
        <time>2022-12-09T14:58:23Z</time>
      </trkpt>
      <trkpt lat="49.87001" lon="2.21423">
        <ele>96.5</ele>
        <time>2022-12-09T14:58:25Z</time>
      </trkpt>
      <trkpt lat="49.87" lon="2.21424">
        <ele>96.4</ele>
        <time>2022-12-09T14:58:26Z</time>
      </trkpt>
      <trkpt lat="49.86999" lon="2.21425">
        <ele>96.4</ele>
        <time>2022-12-09T14:58:27Z</time>
      </trkpt>
      <trkpt lat="49.86998" lon="2.21427">
        <ele>96.3</ele>
        <time>2022-12-09T14:58:28Z</time>
      </trkpt>
      <trkpt lat="49.86998" lon="2.21428">
        <ele>96.3</ele>
        <time>2022-12-09T14:58:29Z</time>
      </trkpt>
      <trkpt lat="49.86997" lon="2.21429">
        <ele>96.2</ele>
        <time>2022-12-09T14:58:30Z</time>
      </trkpt>
      <trkpt lat="49.86996" lon="2.21431">
        <ele>96.1</ele>
        <time>2022-12-09T14:58:31Z</time>
      </trkpt>
      <trkpt lat="49.86995" lon="2.21432">
        <ele>96.1</ele>
        <time>2022-12-09T14:58:32Z</time>
      </trkpt>
      <trkpt lat="49.86994" lon="2.21433">
        <ele>96</ele>
        <time>2022-12-09T14:58:33Z</time>
      </trkpt>
      <trkpt lat="49.86994" lon="2.21434">
        <ele>96</ele>
        <time>2022-12-09T14:58:34Z</time>
      </trkpt>
      <trkpt lat="49.86993" lon="2.21435">
        <ele>95.9</ele>
        <time>2022-12-09T14:58:36Z</time>
      </trkpt>
      <trkpt lat="49.86992" lon="2.21437">
        <ele>95.9</ele>
        <time>2022-12-09T14:58:37Z</time>
      </trkpt>
      <trkpt lat="49.86991" lon="2.21438">
        <ele>95.8</ele>
        <time>2022-12-09T14:58:38Z</time>
      </trkpt>
      <trkpt lat="49.86991" lon="2.2144">
        <ele>95.8</ele>
        <time>2022-12-09T14:58:39Z</time>
      </trkpt>
      <trkpt lat="49.8699" lon="2.21441">
        <ele>95.7</ele>
        <time>2022-12-09T14:58:40Z</time>
      </trkpt>
      <trkpt lat="49.86989" lon="2.21443">
        <ele>95.6</ele>
        <time>2022-12-09T14:58:41Z</time>
      </trkpt>
      <trkpt lat="49.86988" lon="2.21444">
        <ele>95.6</ele>
        <time>2022-12-09T14:58:42Z</time>
      </trkpt>
      <trkpt lat="49.86988" lon="2.21446">
        <ele>95.5</ele>
        <time>2022-12-09T14:58:43Z</time>
      </trkpt>
      <trkpt lat="49.86987" lon="2.21447">
        <ele>95.5</ele>
        <time>2022-12-09T14:58:45Z</time>
      </trkpt>
      <trkpt lat="49.86987" lon="2.21449">
        <ele>95.4</ele>
        <time>2022-12-09T14:58:46Z</time>
      </trkpt>
      <trkpt lat="49.86986" lon="2.21451">
        <ele>95.3</ele>
        <time>2022-12-09T14:58:47Z</time>
      </trkpt>
      <trkpt lat="49.86985" lon="2.21454">
        <ele>95.2</ele>
        <time>2022-12-09T14:58:48Z</time>
      </trkpt>
      <trkpt lat="49.86984" lon="2.21455">
        <ele>95.2</ele>
        <time>2022-12-09T14:58:49Z</time>
      </trkpt>
      <trkpt lat="49.86984" lon="2.21456">
        <ele>95.1</ele>
        <time>2022-12-09T14:58:51Z</time>
      </trkpt>
      <trkpt lat="49.86983" lon="2.21458">
        <ele>95.1</ele>
        <time>2022-12-09T14:58:52Z</time>
      </trkpt>
      <trkpt lat="49.86982" lon="2.21459">
        <ele>95</ele>
        <time>2022-12-09T14:58:53Z</time>
      </trkpt>
      <trkpt lat="49.86982" lon="2.2146">
        <ele>95</ele>
        <time>2022-12-09T14:58:54Z</time>
      </trkpt>
      <trkpt lat="49.86981" lon="2.21461">
        <ele>94.9</ele>
        <time>2022-12-09T14:58:55Z</time>
      </trkpt>
      <trkpt lat="49.8698" lon="2.21462">
        <ele>94.9</ele>
        <time>2022-12-09T14:58:56Z</time>
      </trkpt>
      <trkpt lat="49.86979" lon="2.21464">
        <ele>94.8</ele>
        <time>2022-12-09T14:58:57Z</time>
      </trkpt>
      <trkpt lat="49.86978" lon="2.21466">
        <ele>94.7</ele>
        <time>2022-12-09T14:58:58Z</time>
      </trkpt>
      <trkpt lat="49.86977" lon="2.21467">
        <ele>94.7</ele>
        <time>2022-12-09T14:58:59Z</time>
      </trkpt>
      <trkpt lat="49.86977" lon="2.21468">
        <ele>94.6</ele>
        <time>2022-12-09T14:59:01Z</time>
      </trkpt>
      <trkpt lat="49.86976" lon="2.21469">
        <ele>94.6</ele>
        <time>2022-12-09T14:59:02Z</time>
      </trkpt>
      <trkpt lat="49.86975" lon="2.21471">
        <ele>94.5</ele>
        <time>2022-12-09T14:59:03Z</time>
      </trkpt>
      <trkpt lat="49.86975" lon="2.21472">
        <ele>94.4</ele>
        <time>2022-12-09T14:59:04Z</time>
      </trkpt>
      <trkpt lat="49.86973" lon="2.21473">
        <ele>94.4</ele>
        <time>2022-12-09T14:59:05Z</time>
      </trkpt>
      <trkpt lat="49.86972" lon="2.21473">
        <ele>94.3</ele>
        <time>2022-12-09T14:59:06Z</time>
      </trkpt>
      <trkpt lat="49.86972" lon="2.21474">
        <ele>94.3</ele>
        <time>2022-12-09T14:59:07Z</time>
      </trkpt>
      <trkpt lat="49.86971" lon="2.21475">
        <ele>94.2</ele>
        <time>2022-12-09T14:59:08Z</time>
      </trkpt>
      <trkpt lat="49.8697" lon="2.21476">
        <ele>94.2</ele>
        <time>2022-12-09T14:59:10Z</time>
      </trkpt>
      <trkpt lat="49.86969" lon="2.21477">
        <ele>94.1</ele>
        <time>2022-12-09T14:59:11Z</time>
      </trkpt>
      <trkpt lat="49.86968" lon="2.21478">
        <ele>94</ele>
        <time>2022-12-09T14:59:12Z</time>
      </trkpt>
      <trkpt lat="49.86968" lon="2.21479">
        <ele>94</ele>
        <time>2022-12-09T14:59:13Z</time>
      </trkpt>
      <trkpt lat="49.86967" lon="2.21481">
        <ele>93.9</ele>
        <time>2022-12-09T14:59:14Z</time>
      </trkpt>
      <trkpt lat="49.86966" lon="2.21482">
        <ele>93.9</ele>
        <time>2022-12-09T14:59:15Z</time>
      </trkpt>
      <trkpt lat="49.86965" lon="2.21483">
        <ele>93.8</ele>
        <time>2022-12-09T14:59:16Z</time>
      </trkpt>
      <trkpt lat="49.86965" lon="2.21484">
        <ele>93.7</ele>
        <time>2022-12-09T14:59:17Z</time>
      </trkpt>
      <trkpt lat="49.86964" lon="2.21485">
        <ele>93.7</ele>
        <time>2022-12-09T14:59:18Z</time>
      </trkpt>
      <trkpt lat="49.86963" lon="2.21488">
        <ele>93.6</ele>
        <time>2022-12-09T14:59:20Z</time>
      </trkpt>
      <trkpt lat="49.86962" lon="2.2149">
        <ele>93.5</ele>
        <time>2022-12-09T14:59:22Z</time>
      </trkpt>
      <trkpt lat="49.86961" lon="2.21492">
        <ele>93.4</ele>
        <time>2022-12-09T14:59:23Z</time>
      </trkpt>
      <trkpt lat="49.8696" lon="2.21495">
        <ele>93.3</ele>
        <time>2022-12-09T14:59:24Z</time>
      </trkpt>
      <trkpt lat="49.8696" lon="2.21496">
        <ele>93.2</ele>
        <time>2022-12-09T14:59:25Z</time>
      </trkpt>
      <trkpt lat="49.86959" lon="2.21497">
        <ele>93.2</ele>
        <time>2022-12-09T14:59:26Z</time>
      </trkpt>
      <trkpt lat="49.86959" lon="2.21499">
        <ele>93.1</ele>
        <time>2022-12-09T14:59:27Z</time>
      </trkpt>
      <trkpt lat="49.86958" lon="2.215">
        <ele>93.1</ele>
        <time>2022-12-09T14:59:29Z</time>
      </trkpt>
      <trkpt lat="49.86957" lon="2.21502">
        <ele>93</ele>
        <time>2022-12-09T14:59:30Z</time>
      </trkpt>
      <trkpt lat="49.86957" lon="2.21503">
        <ele>93</ele>
        <time>2022-12-09T14:59:31Z</time>
      </trkpt>
      <trkpt lat="49.86956" lon="2.21504">
        <ele>92.9</ele>
        <time>2022-12-09T14:59:32Z</time>
      </trkpt>
      <trkpt lat="49.86955" lon="2.21504">
        <ele>92.9</ele>
        <time>2022-12-09T14:59:33Z</time>
      </trkpt>
      <trkpt lat="49.86954" lon="2.21505">
        <ele>92.8</ele>
        <time>2022-12-09T14:59:34Z</time>
      </trkpt>
      <trkpt lat="49.86954" lon="2.21506">
        <ele>92.8</ele>
        <time>2022-12-09T14:59:35Z</time>
      </trkpt>
      <trkpt lat="49.86953" lon="2.21507">
        <ele>92.8</ele>
        <time>2022-12-09T14:59:36Z</time>
      </trkpt>
      <trkpt lat="49.86952" lon="2.21508">
        <ele>92.7</ele>
        <time>2022-12-09T14:59:38Z</time>
      </trkpt>
      <trkpt lat="49.86951" lon="2.21509">
        <ele>92.7</ele>
        <time>2022-12-09T14:59:39Z</time>
      </trkpt>
      <trkpt lat="49.86951" lon="2.21511">
        <ele>92.6</ele>
        <time>2022-12-09T14:59:40Z</time>
      </trkpt>
      <trkpt lat="49.8695" lon="2.21512">
        <ele>92.6</ele>
        <time>2022-12-09T14:59:41Z</time>
      </trkpt>
      <trkpt lat="49.86949" lon="2.21512">
        <ele>92.6</ele>
        <time>2022-12-09T14:59:42Z</time>
      </trkpt>
      <trkpt lat="49.86949" lon="2.21513">
        <ele>92.5</ele>
        <time>2022-12-09T14:59:43Z</time>
      </trkpt>
      <trkpt lat="49.86948" lon="2.21513">
        <ele>92.5</ele>
        <time>2022-12-09T14:59:45Z</time>
      </trkpt>
      <trkpt lat="49.86948" lon="2.21514">
        <ele>92.5</ele>
        <time>2022-12-09T14:59:46Z</time>
      </trkpt>
      <trkpt lat="49.86947" lon="2.21515">
        <ele>92.4</ele>
        <time>2022-12-09T14:59:47Z</time>
      </trkpt>
      <trkpt lat="49.86947" lon="2.21517">
        <ele>92.4</ele>
        <time>2022-12-09T14:59:48Z</time>
      </trkpt>
      <trkpt lat="49.86947" lon="2.21518">
        <ele>92.4</ele>
        <time>2022-12-09T14:59:49Z</time>
      </trkpt>
      <trkpt lat="49.86946" lon="2.21518">
        <ele>92.3</ele>
        <time>2022-12-09T14:59:51Z</time>
      </trkpt>
      <trkpt lat="49.86945" lon="2.21519">
        <ele>92.3</ele>
        <time>2022-12-09T14:59:52Z</time>
      </trkpt>
      <trkpt lat="49.86944" lon="2.21519">
        <ele>92.3</ele>
        <time>2022-12-09T14:59:53Z</time>
      </trkpt>
      <trkpt lat="49.86943" lon="2.21519">
        <ele>92.2</ele>
        <time>2022-12-09T14:59:54Z</time>
      </trkpt>
      <trkpt lat="49.86941" lon="2.21519">
        <ele>92.1</ele>
        <time>2022-12-09T14:59:55Z</time>
      </trkpt>
      <trkpt lat="49.8694" lon="2.21519">
        <ele>92.1</ele>
        <time>2022-12-09T14:59:56Z</time>
      </trkpt>
      <trkpt lat="49.86939" lon="2.21519">
        <ele>92.1</ele>
        <time>2022-12-09T14:59:58Z</time>
      </trkpt>
      <trkpt lat="49.86938" lon="2.21519">
        <ele>92</ele>
        <time>2022-12-09T14:59:59Z</time>
      </trkpt>
      <trkpt lat="49.86937" lon="2.21519">
        <ele>92</ele>
        <time>2022-12-09T15:00:00Z</time>
      </trkpt>
      <trkpt lat="49.86936" lon="2.21519">
        <ele>91.9</ele>
        <time>2022-12-09T15:00:01Z</time>
      </trkpt>
      <trkpt lat="49.86935" lon="2.21519">
        <ele>91.9</ele>
        <time>2022-12-09T15:00:02Z</time>
      </trkpt>
      <trkpt lat="49.86934" lon="2.21519">
        <ele>91.8</ele>
        <time>2022-12-09T15:00:03Z</time>
      </trkpt>
      <trkpt lat="49.86933" lon="2.21518">
        <ele>91.8</ele>
        <time>2022-12-09T15:00:05Z</time>
      </trkpt>
      <trkpt lat="49.86931" lon="2.21518">
        <ele>91.7</ele>
        <time>2022-12-09T15:00:06Z</time>
      </trkpt>
      <trkpt lat="49.8693" lon="2.21518">
        <ele>91.7</ele>
        <time>2022-12-09T15:00:07Z</time>
      </trkpt>
      <trkpt lat="49.86929" lon="2.21518">
        <ele>91.7</ele>
        <time>2022-12-09T15:00:08Z</time>
      </trkpt>
      <trkpt lat="49.86927" lon="2.21516">
        <ele>91.6</ele>
        <time>2022-12-09T15:00:09Z</time>
      </trkpt>
      <trkpt lat="49.86927" lon="2.21515">
        <ele>91.5</ele>
        <time>2022-12-09T15:00:10Z</time>
      </trkpt>
      <trkpt lat="49.86926" lon="2.21514">
        <ele>91.5</ele>
        <time>2022-12-09T15:00:11Z</time>
      </trkpt>
      <trkpt lat="49.86924" lon="2.21512">
        <ele>91.4</ele>
        <time>2022-12-09T15:00:13Z</time>
      </trkpt>
      <trkpt lat="49.86923" lon="2.21512">
        <ele>91.4</ele>
        <time>2022-12-09T15:00:14Z</time>
      </trkpt>
      <trkpt lat="49.86923" lon="2.21512">
        <ele>91.3</ele>
        <time>2022-12-09T15:00:15Z</time>
      </trkpt>
      <trkpt lat="49.86921" lon="2.21512">
        <ele>91.2</ele>
        <time>2022-12-09T15:00:16Z</time>
      </trkpt>
      <trkpt lat="49.8692" lon="2.21512">
        <ele>91.2</ele>
        <time>2022-12-09T15:00:17Z</time>
      </trkpt>
      <trkpt lat="49.86919" lon="2.21513">
        <ele>91.2</ele>
        <time>2022-12-09T15:00:18Z</time>
      </trkpt>
      <trkpt lat="49.86918" lon="2.21513">
        <ele>91.1</ele>
        <time>2022-12-09T15:00:19Z</time>
      </trkpt>
      <trkpt lat="49.86917" lon="2.21513">
        <ele>91.1</ele>
        <time>2022-12-09T15:00:20Z</time>
      </trkpt>
      <trkpt lat="49.86915" lon="2.21513">
        <ele>91</ele>
        <time>2022-12-09T15:00:22Z</time>
      </trkpt>
      <trkpt lat="49.86914" lon="2.21513">
        <ele>91</ele>
        <time>2022-12-09T15:00:23Z</time>
      </trkpt>
      <trkpt lat="49.86913" lon="2.21514">
        <ele>90.9</ele>
        <time>2022-12-09T15:00:24Z</time>
      </trkpt>
      <trkpt lat="49.86912" lon="2.21514">
        <ele>90.9</ele>
        <time>2022-12-09T15:00:25Z</time>
      </trkpt>
      <trkpt lat="49.86911" lon="2.21515">
        <ele>90.8</ele>
        <time>2022-12-09T15:00:26Z</time>
      </trkpt>
      <trkpt lat="49.86911" lon="2.21516">
        <ele>90.8</ele>
        <time>2022-12-09T15:00:27Z</time>
      </trkpt>
      <trkpt lat="49.8691" lon="2.21518">
        <ele>90.7</ele>
        <time>2022-12-09T15:00:28Z</time>
      </trkpt>
      <trkpt lat="49.8691" lon="2.2152">
        <ele>90.7</ele>
        <time>2022-12-09T15:00:29Z</time>
      </trkpt>
      <trkpt lat="49.86909" lon="2.21521">
        <ele>90.6</ele>
        <time>2022-12-09T15:00:30Z</time>
      </trkpt>
      <trkpt lat="49.86907" lon="2.21521">
        <ele>90.6</ele>
        <time>2022-12-09T15:00:31Z</time>
      </trkpt>
      <trkpt lat="49.86906" lon="2.21521">
        <ele>90.5</ele>
        <time>2022-12-09T15:00:32Z</time>
      </trkpt>
      <trkpt lat="49.86905" lon="2.21521">
        <ele>90.4</ele>
        <time>2022-12-09T15:00:34Z</time>
      </trkpt>
      <trkpt lat="49.86903" lon="2.21521">
        <ele>90.4</ele>
        <time>2022-12-09T15:00:35Z</time>
      </trkpt>
      <trkpt lat="49.86902" lon="2.21521">
        <ele>90.3</ele>
        <time>2022-12-09T15:00:36Z</time>
      </trkpt>
      <trkpt lat="49.869" lon="2.21521">
        <ele>90.2</ele>
        <time>2022-12-09T15:00:37Z</time>
      </trkpt>
      <trkpt lat="49.86899" lon="2.21521">
        <ele>90.2</ele>
        <time>2022-12-09T15:00:38Z</time>
      </trkpt>
      <trkpt lat="49.86898" lon="2.21521">
        <ele>90.1</ele>
        <time>2022-12-09T15:00:39Z</time>
      </trkpt>
      <trkpt lat="49.86896" lon="2.21521">
        <ele>90</ele>
        <time>2022-12-09T15:00:40Z</time>
      </trkpt>
      <trkpt lat="49.86895" lon="2.21521">
        <ele>90</ele>
        <time>2022-12-09T15:00:42Z</time>
      </trkpt>
      <trkpt lat="49.86894" lon="2.21522">
        <ele>89.9</ele>
        <time>2022-12-09T15:00:43Z</time>
      </trkpt>
      <trkpt lat="49.86892" lon="2.21522">
        <ele>89.8</ele>
        <time>2022-12-09T15:00:44Z</time>
      </trkpt>
      <trkpt lat="49.86891" lon="2.21522">
        <ele>89.7</ele>
        <time>2022-12-09T15:00:45Z</time>
      </trkpt>
      <trkpt lat="49.8689" lon="2.21522">
        <ele>89.7</ele>
        <time>2022-12-09T15:00:46Z</time>
      </trkpt>
      <trkpt lat="49.86888" lon="2.21522">
        <ele>89.6</ele>
        <time>2022-12-09T15:00:47Z</time>
      </trkpt>
      <trkpt lat="49.86888" lon="2.21523">
        <ele>89.5</ele>
        <time>2022-12-09T15:00:49Z</time>
      </trkpt>
      <trkpt lat="49.86887" lon="2.21523">
        <ele>89.5</ele>
        <time>2022-12-09T15:00:50Z</time>
      </trkpt>
      <trkpt lat="49.86886" lon="2.21524">
        <ele>89.5</ele>
        <time>2022-12-09T15:00:51Z</time>
      </trkpt>
      <trkpt lat="49.86885" lon="2.21525">
        <ele>89.5</ele>
        <time>2022-12-09T15:00:52Z</time>
      </trkpt>
      <trkpt lat="49.86884" lon="2.21526">
        <ele>89.4</ele>
        <time>2022-12-09T15:00:53Z</time>
      </trkpt>
      <trkpt lat="49.86884" lon="2.21527">
        <ele>89.4</ele>
        <time>2022-12-09T15:00:54Z</time>
      </trkpt>
      <trkpt lat="49.86883" lon="2.21529">
        <ele>89.4</ele>
        <time>2022-12-09T15:00:55Z</time>
      </trkpt>
      <trkpt lat="49.86883" lon="2.21531">
        <ele>89.4</ele>
        <time>2022-12-09T15:00:56Z</time>
      </trkpt>
      <trkpt lat="49.86883" lon="2.21533">
        <ele>89.4</ele>
        <time>2022-12-09T15:00:57Z</time>
      </trkpt>
      <trkpt lat="49.86882" lon="2.21535">
        <ele>89.3</ele>
        <time>2022-12-09T15:00:58Z</time>
      </trkpt>
      <trkpt lat="49.86882" lon="2.21537">
        <ele>89.3</ele>
        <time>2022-12-09T15:01:00Z</time>
      </trkpt>
      <trkpt lat="49.86882" lon="2.21539">
        <ele>89.3</ele>
        <time>2022-12-09T15:01:01Z</time>
      </trkpt>
      <trkpt lat="49.86881" lon="2.21541">
        <ele>89.2</ele>
        <time>2022-12-09T15:01:02Z</time>
      </trkpt>
      <trkpt lat="49.86881" lon="2.21545">
        <ele>89</ele>
        <time>2022-12-09T15:01:03Z</time>
      </trkpt>
      <trkpt lat="49.86881" lon="2.21546">
        <ele>88.9</ele>
        <time>2022-12-09T15:01:04Z</time>
      </trkpt>
      <trkpt lat="49.86881" lon="2.21548">
        <ele>88.8</ele>
        <time>2022-12-09T15:01:05Z</time>
      </trkpt>
      <trkpt lat="49.86881" lon="2.21549">
        <ele>88.7</ele>
        <time>2022-12-09T15:01:06Z</time>
      </trkpt>
      <trkpt lat="49.86881" lon="2.21551">
        <ele>88.7</ele>
        <time>2022-12-09T15:01:07Z</time>
      </trkpt>
      <trkpt lat="49.86881" lon="2.21553">
        <ele>88.6</ele>
        <time>2022-12-09T15:01:08Z</time>
      </trkpt>
      <trkpt lat="49.86881" lon="2.21554">
        <ele>88.5</ele>
        <time>2022-12-09T15:01:09Z</time>
      </trkpt>
      <trkpt lat="49.86882" lon="2.21556">
        <ele>88.4</ele>
        <time>2022-12-09T15:01:10Z</time>
      </trkpt>
      <trkpt lat="49.86882" lon="2.21558">
        <ele>88.3</ele>
        <time>2022-12-09T15:01:11Z</time>
      </trkpt>
      <trkpt lat="49.86882" lon="2.21561">
        <ele>88.1</ele>
        <time>2022-12-09T15:01:13Z</time>
      </trkpt>
      <trkpt lat="49.86882" lon="2.21563">
        <ele>88</ele>
        <time>2022-12-09T15:01:14Z</time>
      </trkpt>
      <trkpt lat="49.86882" lon="2.21566">
        <ele>87.9</ele>
        <time>2022-12-09T15:01:15Z</time>
      </trkpt>
      <trkpt lat="49.86882" lon="2.21568">
        <ele>87.8</ele>
        <time>2022-12-09T15:01:16Z</time>
      </trkpt>
      <trkpt lat="49.86882" lon="2.21569">
        <ele>87.7</ele>
        <time>2022-12-09T15:01:17Z</time>
      </trkpt>
      <trkpt lat="49.86882" lon="2.21571">
        <ele>87.6</ele>
        <time>2022-12-09T15:01:18Z</time>
      </trkpt>
      <trkpt lat="49.86882" lon="2.21574">
        <ele>87.5</ele>
        <time>2022-12-09T15:01:20Z</time>
      </trkpt>
      <trkpt lat="49.86882" lon="2.21576">
        <ele>87.4</ele>
        <time>2022-12-09T15:01:21Z</time>
      </trkpt>
      <trkpt lat="49.86882" lon="2.21578">
        <ele>87.3</ele>
        <time>2022-12-09T15:01:22Z</time>
      </trkpt>
      <trkpt lat="49.86882" lon="2.2158">
        <ele>87.2</ele>
        <time>2022-12-09T15:01:23Z</time>
      </trkpt>
      <trkpt lat="49.86882" lon="2.21582">
        <ele>87.1</ele>
        <time>2022-12-09T15:01:24Z</time>
      </trkpt>
      <trkpt lat="49.86882" lon="2.21585">
        <ele>87</ele>
        <time>2022-12-09T15:01:25Z</time>
      </trkpt>
      <trkpt lat="49.86882" lon="2.21586">
        <ele>87</ele>
        <time>2022-12-09T15:01:26Z</time>
      </trkpt>
      <trkpt lat="49.86882" lon="2.21588">
        <ele>86.9</ele>
        <time>2022-12-09T15:01:27Z</time>
      </trkpt>
      <trkpt lat="49.86882" lon="2.21591">
        <ele>86.8</ele>
        <time>2022-12-09T15:01:28Z</time>
      </trkpt>
      <trkpt lat="49.86882" lon="2.21592">
        <ele>86.7</ele>
        <time>2022-12-09T15:01:30Z</time>
      </trkpt>
      <trkpt lat="49.86881" lon="2.21594">
        <ele>86.6</ele>
        <time>2022-12-09T15:01:31Z</time>
      </trkpt>
      <trkpt lat="49.86882" lon="2.21597">
        <ele>86.5</ele>
        <time>2022-12-09T15:01:32Z</time>
      </trkpt>
      <trkpt lat="49.86882" lon="2.21598">
        <ele>86.5</ele>
        <time>2022-12-09T15:01:33Z</time>
      </trkpt>
      <trkpt lat="49.86882" lon="2.21599">
        <ele>86.4</ele>
        <time>2022-12-09T15:01:34Z</time>
      </trkpt>
      <trkpt lat="49.86882" lon="2.21601">
        <ele>86.3</ele>
        <time>2022-12-09T15:01:35Z</time>
      </trkpt>
      <trkpt lat="49.86882" lon="2.21603">
        <ele>86.3</ele>
        <time>2022-12-09T15:01:36Z</time>
      </trkpt>
      <trkpt lat="49.86882" lon="2.21605">
        <ele>86.2</ele>
        <time>2022-12-09T15:01:37Z</time>
      </trkpt>
      <trkpt lat="49.86882" lon="2.21607">
        <ele>86.1</ele>
        <time>2022-12-09T15:01:39Z</time>
      </trkpt>
      <trkpt lat="49.86882" lon="2.21608">
        <ele>86</ele>
        <time>2022-12-09T15:01:40Z</time>
      </trkpt>
      <trkpt lat="49.86883" lon="2.2161">
        <ele>86</ele>
        <time>2022-12-09T15:01:41Z</time>
      </trkpt>
      <trkpt lat="49.86883" lon="2.21612">
        <ele>85.9</ele>
        <time>2022-12-09T15:01:42Z</time>
      </trkpt>
      <trkpt lat="49.86883" lon="2.21613">
        <ele>85.9</ele>
        <time>2022-12-09T15:01:43Z</time>
      </trkpt>
      <trkpt lat="49.86883" lon="2.21615">
        <ele>85.8</ele>
        <time>2022-12-09T15:01:44Z</time>
      </trkpt>
      <trkpt lat="49.86883" lon="2.21616">
        <ele>85.7</ele>
        <time>2022-12-09T15:01:45Z</time>
      </trkpt>
      <trkpt lat="49.86883" lon="2.21618">
        <ele>85.7</ele>
        <time>2022-12-09T15:01:46Z</time>
      </trkpt>
      <trkpt lat="49.86883" lon="2.2162">
        <ele>85.6</ele>
        <time>2022-12-09T15:01:47Z</time>
      </trkpt>
      <trkpt lat="49.86883" lon="2.21622">
        <ele>85.5</ele>
        <time>2022-12-09T15:01:48Z</time>
      </trkpt>
      <trkpt lat="49.86883" lon="2.21624">
        <ele>85.4</ele>
        <time>2022-12-09T15:01:50Z</time>
      </trkpt>
      <trkpt lat="49.86883" lon="2.21626">
        <ele>85.3</ele>
        <time>2022-12-09T15:01:51Z</time>
      </trkpt>
      <trkpt lat="49.86883" lon="2.21628">
        <ele>85.2</ele>
        <time>2022-12-09T15:01:52Z</time>
      </trkpt>
      <trkpt lat="49.86884" lon="2.2163">
        <ele>85.2</ele>
        <time>2022-12-09T15:01:53Z</time>
      </trkpt>
      <trkpt lat="49.86884" lon="2.21632">
        <ele>85.1</ele>
        <time>2022-12-09T15:01:54Z</time>
      </trkpt>
      <trkpt lat="49.86884" lon="2.21634">
        <ele>85.1</ele>
        <time>2022-12-09T15:01:55Z</time>
      </trkpt>
      <trkpt lat="49.86884" lon="2.21635">
        <ele>85</ele>
        <time>2022-12-09T15:01:56Z</time>
      </trkpt>
      <trkpt lat="49.86883" lon="2.21637">
        <ele>85</ele>
        <time>2022-12-09T15:01:57Z</time>
      </trkpt>
      <trkpt lat="49.86883" lon="2.21638">
        <ele>85</ele>
        <time>2022-12-09T15:01:58Z</time>
      </trkpt>
      <trkpt lat="49.86883" lon="2.21639">
        <ele>84.9</ele>
        <time>2022-12-09T15:02:00Z</time>
      </trkpt>
      <trkpt lat="49.86883" lon="2.21641">
        <ele>84.9</ele>
        <time>2022-12-09T15:02:01Z</time>
      </trkpt>
      <trkpt lat="49.86883" lon="2.21643">
        <ele>84.8</ele>
        <time>2022-12-09T15:02:02Z</time>
      </trkpt>
      <trkpt lat="49.86883" lon="2.21644">
        <ele>84.8</ele>
        <time>2022-12-09T15:02:03Z</time>
      </trkpt>
      <trkpt lat="49.86883" lon="2.21646">
        <ele>84.7</ele>
        <time>2022-12-09T15:02:04Z</time>
      </trkpt>
      <trkpt lat="49.86883" lon="2.21648">
        <ele>84.7</ele>
        <time>2022-12-09T15:02:05Z</time>
      </trkpt>
      <trkpt lat="49.86883" lon="2.2165">
        <ele>84.6</ele>
        <time>2022-12-09T15:02:06Z</time>
      </trkpt>
      <trkpt lat="49.86882" lon="2.21651">
        <ele>84.6</ele>
        <time>2022-12-09T15:02:07Z</time>
      </trkpt>
      <trkpt lat="49.86882" lon="2.21653">
        <ele>84.5</ele>
        <time>2022-12-09T15:02:08Z</time>
      </trkpt>
      <trkpt lat="49.86882" lon="2.21654">
        <ele>84.5</ele>
        <time>2022-12-09T15:02:09Z</time>
      </trkpt>
      <trkpt lat="49.86882" lon="2.21656">
        <ele>84.4</ele>
        <time>2022-12-09T15:02:10Z</time>
      </trkpt>
      <trkpt lat="49.86881" lon="2.21657">
        <ele>84.3</ele>
        <time>2022-12-09T15:02:12Z</time>
      </trkpt>
      <trkpt lat="49.86881" lon="2.21659">
        <ele>84.3</ele>
        <time>2022-12-09T15:02:13Z</time>
      </trkpt>
      <trkpt lat="49.86881" lon="2.21662">
        <ele>84.2</ele>
        <time>2022-12-09T15:02:14Z</time>
      </trkpt>
      <trkpt lat="49.8688" lon="2.21664">
        <ele>84.1</ele>
        <time>2022-12-09T15:02:15Z</time>
      </trkpt>
      <trkpt lat="49.8688" lon="2.21665">
        <ele>84.1</ele>
        <time>2022-12-09T15:02:16Z</time>
      </trkpt>
      <trkpt lat="49.8688" lon="2.21667">
        <ele>84</ele>
        <time>2022-12-09T15:02:17Z</time>
      </trkpt>
      <trkpt lat="49.8688" lon="2.21669">
        <ele>83.9</ele>
        <time>2022-12-09T15:02:18Z</time>
      </trkpt>
      <trkpt lat="49.86879" lon="2.2167">
        <ele>83.9</ele>
        <time>2022-12-09T15:02:19Z</time>
      </trkpt>
      <trkpt lat="49.86879" lon="2.21672">
        <ele>83.8</ele>
        <time>2022-12-09T15:02:20Z</time>
      </trkpt>
      <trkpt lat="49.86879" lon="2.21673">
        <ele>83.7</ele>
        <time>2022-12-09T15:02:21Z</time>
      </trkpt>
      <trkpt lat="49.86879" lon="2.21675">
        <ele>83.7</ele>
        <time>2022-12-09T15:02:22Z</time>
      </trkpt>
      <trkpt lat="49.86878" lon="2.21678">
        <ele>83.5</ele>
        <time>2022-12-09T15:02:24Z</time>
      </trkpt>
      <trkpt lat="49.86878" lon="2.21679">
        <ele>83.5</ele>
        <time>2022-12-09T15:02:25Z</time>
      </trkpt>
      <trkpt lat="49.86878" lon="2.2168">
        <ele>83.4</ele>
        <time>2022-12-09T15:02:26Z</time>
      </trkpt>
      <trkpt lat="49.86877" lon="2.21684">
        <ele>83.3</ele>
        <time>2022-12-09T15:02:27Z</time>
      </trkpt>
      <trkpt lat="49.86877" lon="2.21685">
        <ele>83.2</ele>
        <time>2022-12-09T15:02:28Z</time>
      </trkpt>
      <trkpt lat="49.86877" lon="2.21686">
        <ele>83.2</ele>
        <time>2022-12-09T15:02:29Z</time>
      </trkpt>
      <trkpt lat="49.86877" lon="2.21688">
        <ele>83.1</ele>
        <time>2022-12-09T15:02:30Z</time>
      </trkpt>
      <trkpt lat="49.86877" lon="2.2169">
        <ele>83</ele>
        <time>2022-12-09T15:02:32Z</time>
      </trkpt>
      <trkpt lat="49.86876" lon="2.21692">
        <ele>82.9</ele>
        <time>2022-12-09T15:02:33Z</time>
      </trkpt>
      <trkpt lat="49.86876" lon="2.21694">
        <ele>82.8</ele>
        <time>2022-12-09T15:02:34Z</time>
      </trkpt>
      <trkpt lat="49.86876" lon="2.21696">
        <ele>82.8</ele>
        <time>2022-12-09T15:02:35Z</time>
      </trkpt>
      <trkpt lat="49.86876" lon="2.21697">
        <ele>82.7</ele>
        <time>2022-12-09T15:02:36Z</time>
      </trkpt>
      <trkpt lat="49.86875" lon="2.21699">
        <ele>82.6</ele>
        <time>2022-12-09T15:02:37Z</time>
      </trkpt>
      <trkpt lat="49.86875" lon="2.21701">
        <ele>82.6</ele>
        <time>2022-12-09T15:02:38Z</time>
      </trkpt>
      <trkpt lat="49.86875" lon="2.21704">
        <ele>82.4</ele>
        <time>2022-12-09T15:02:39Z</time>
      </trkpt>
      <trkpt lat="49.86875" lon="2.21706">
        <ele>82.4</ele>
        <time>2022-12-09T15:02:40Z</time>
      </trkpt>
      <trkpt lat="49.86875" lon="2.21707">
        <ele>82.3</ele>
        <time>2022-12-09T15:02:41Z</time>
      </trkpt>
      <trkpt lat="49.86875" lon="2.2171">
        <ele>82.2</ele>
        <time>2022-12-09T15:02:43Z</time>
      </trkpt>
      <trkpt lat="49.86874" lon="2.21711">
        <ele>82.1</ele>
        <time>2022-12-09T15:02:44Z</time>
      </trkpt>
      <trkpt lat="49.86874" lon="2.21713">
        <ele>82.1</ele>
        <time>2022-12-09T15:02:45Z</time>
      </trkpt>
      <trkpt lat="49.86874" lon="2.21715">
        <ele>82</ele>
        <time>2022-12-09T15:02:46Z</time>
      </trkpt>
      <trkpt lat="49.86874" lon="2.21716">
        <ele>81.9</ele>
        <time>2022-12-09T15:02:47Z</time>
      </trkpt>
      <trkpt lat="49.86874" lon="2.21718">
        <ele>81.8</ele>
        <time>2022-12-09T15:02:48Z</time>
      </trkpt>
      <trkpt lat="49.86873" lon="2.21719">
        <ele>81.8</ele>
        <time>2022-12-09T15:02:49Z</time>
      </trkpt>
      <trkpt lat="49.86873" lon="2.21721">
        <ele>81.7</ele>
        <time>2022-12-09T15:02:50Z</time>
      </trkpt>
      <trkpt lat="49.86873" lon="2.21723">
        <ele>81.6</ele>
        <time>2022-12-09T15:02:51Z</time>
      </trkpt>
      <trkpt lat="49.86872" lon="2.21725">
        <ele>81.5</ele>
        <time>2022-12-09T15:02:53Z</time>
      </trkpt>
      <trkpt lat="49.86872" lon="2.21727">
        <ele>81.5</ele>
        <time>2022-12-09T15:02:54Z</time>
      </trkpt>
      <trkpt lat="49.86872" lon="2.21729">
        <ele>81.4</ele>
        <time>2022-12-09T15:02:55Z</time>
      </trkpt>
      <trkpt lat="49.86871" lon="2.21731">
        <ele>81.3</ele>
        <time>2022-12-09T15:02:56Z</time>
      </trkpt>
      <trkpt lat="49.86871" lon="2.21734">
        <ele>81.2</ele>
        <time>2022-12-09T15:02:57Z</time>
      </trkpt>
      <trkpt lat="49.86871" lon="2.21736">
        <ele>81.1</ele>
        <time>2022-12-09T15:02:58Z</time>
      </trkpt>
      <trkpt lat="49.86871" lon="2.21737">
        <ele>81.1</ele>
        <time>2022-12-09T15:02:59Z</time>
      </trkpt>
      <trkpt lat="49.8687" lon="2.21739">
        <ele>81</ele>
        <time>2022-12-09T15:03:00Z</time>
      </trkpt>
      <trkpt lat="49.8687" lon="2.21741">
        <ele>80.9</ele>
        <time>2022-12-09T15:03:01Z</time>
      </trkpt>
      <trkpt lat="49.8687" lon="2.21744">
        <ele>80.8</ele>
        <time>2022-12-09T15:03:02Z</time>
      </trkpt>
      <trkpt lat="49.86869" lon="2.21745">
        <ele>80.8</ele>
        <time>2022-12-09T15:03:03Z</time>
      </trkpt>
      <trkpt lat="49.86869" lon="2.21747">
        <ele>80.7</ele>
        <time>2022-12-09T15:03:05Z</time>
      </trkpt>
      <trkpt lat="49.86869" lon="2.21748">
        <ele>80.7</ele>
        <time>2022-12-09T15:03:06Z</time>
      </trkpt>
      <trkpt lat="49.86868" lon="2.2175">
        <ele>80.6</ele>
        <time>2022-12-09T15:03:07Z</time>
      </trkpt>
      <trkpt lat="49.86868" lon="2.21751">
        <ele>80.5</ele>
        <time>2022-12-09T15:03:08Z</time>
      </trkpt>
      <trkpt lat="49.86868" lon="2.21753">
        <ele>80.5</ele>
        <time>2022-12-09T15:03:09Z</time>
      </trkpt>
      <trkpt lat="49.86867" lon="2.21755">
        <ele>80.4</ele>
        <time>2022-12-09T15:03:10Z</time>
      </trkpt>
      <trkpt lat="49.86867" lon="2.21757">
        <ele>80.3</ele>
        <time>2022-12-09T15:03:11Z</time>
      </trkpt>
      <trkpt lat="49.86867" lon="2.21758">
        <ele>80.3</ele>
        <time>2022-12-09T15:03:12Z</time>
      </trkpt>
      <trkpt lat="49.86867" lon="2.2176">
        <ele>80.2</ele>
        <time>2022-12-09T15:03:13Z</time>
      </trkpt>
      <trkpt lat="49.86866" lon="2.21762">
        <ele>80.2</ele>
        <time>2022-12-09T15:03:14Z</time>
      </trkpt>
      <trkpt lat="49.86866" lon="2.21764">
        <ele>80.1</ele>
        <time>2022-12-09T15:03:15Z</time>
      </trkpt>
      <trkpt lat="49.86866" lon="2.21765">
        <ele>80.1</ele>
        <time>2022-12-09T15:03:16Z</time>
      </trkpt>
      <trkpt lat="49.86866" lon="2.21767">
        <ele>80</ele>
        <time>2022-12-09T15:03:17Z</time>
      </trkpt>
      <trkpt lat="49.86865" lon="2.2177">
        <ele>79.9</ele>
        <time>2022-12-09T15:03:19Z</time>
      </trkpt>
      <trkpt lat="49.86865" lon="2.21771">
        <ele>79.8</ele>
        <time>2022-12-09T15:03:20Z</time>
      </trkpt>
      <trkpt lat="49.86865" lon="2.21772">
        <ele>79.8</ele>
        <time>2022-12-09T15:03:21Z</time>
      </trkpt>
      <trkpt lat="49.86864" lon="2.21776">
        <ele>79.7</ele>
        <time>2022-12-09T15:03:22Z</time>
      </trkpt>
      <trkpt lat="49.86864" lon="2.21777">
        <ele>79.6</ele>
        <time>2022-12-09T15:03:23Z</time>
      </trkpt>
      <trkpt lat="49.86864" lon="2.21778">
        <ele>79.6</ele>
        <time>2022-12-09T15:03:24Z</time>
      </trkpt>
      <trkpt lat="49.86864" lon="2.21781">
        <ele>79.5</ele>
        <time>2022-12-09T15:03:25Z</time>
      </trkpt>
      <trkpt lat="49.86864" lon="2.21783">
        <ele>79.5</ele>
        <time>2022-12-09T15:03:26Z</time>
      </trkpt>
      <trkpt lat="49.86864" lon="2.21784">
        <ele>79.4</ele>
        <time>2022-12-09T15:03:27Z</time>
      </trkpt>
      <trkpt lat="49.86863" lon="2.21786">
        <ele>79.4</ele>
        <time>2022-12-09T15:03:28Z</time>
      </trkpt>
      <trkpt lat="49.86863" lon="2.21787">
        <ele>79.3</ele>
        <time>2022-12-09T15:03:29Z</time>
      </trkpt>
      <trkpt lat="49.86863" lon="2.21789">
        <ele>79.3</ele>
        <time>2022-12-09T15:03:30Z</time>
      </trkpt>
      <trkpt lat="49.86862" lon="2.21792">
        <ele>79.2</ele>
        <time>2022-12-09T15:03:32Z</time>
      </trkpt>
      <trkpt lat="49.86862" lon="2.21793">
        <ele>79.1</ele>
        <time>2022-12-09T15:03:33Z</time>
      </trkpt>
      <trkpt lat="49.86862" lon="2.21794">
        <ele>79.1</ele>
        <time>2022-12-09T15:03:34Z</time>
      </trkpt>
      <trkpt lat="49.86861" lon="2.21797">
        <ele>79</ele>
        <time>2022-12-09T15:03:35Z</time>
      </trkpt>
      <trkpt lat="49.86861" lon="2.21799">
        <ele>79</ele>
        <time>2022-12-09T15:03:36Z</time>
      </trkpt>
      <trkpt lat="49.86861" lon="2.218">
        <ele>78.9</ele>
        <time>2022-12-09T15:03:37Z</time>
      </trkpt>
      <trkpt lat="49.86861" lon="2.21801">
        <ele>78.9</ele>
        <time>2022-12-09T15:03:38Z</time>
      </trkpt>
      <trkpt lat="49.8686" lon="2.21803">
        <ele>78.8</ele>
        <time>2022-12-09T15:03:39Z</time>
      </trkpt>
      <trkpt lat="49.8686" lon="2.21805">
        <ele>78.8</ele>
        <time>2022-12-09T15:03:40Z</time>
      </trkpt>
      <trkpt lat="49.8686" lon="2.21808">
        <ele>78.7</ele>
        <time>2022-12-09T15:03:41Z</time>
      </trkpt>
      <trkpt lat="49.8686" lon="2.21809">
        <ele>78.6</ele>
        <time>2022-12-09T15:03:42Z</time>
      </trkpt>
      <trkpt lat="49.8686" lon="2.2181">
        <ele>78.6</ele>
        <time>2022-12-09T15:03:43Z</time>
      </trkpt>
      <trkpt lat="49.8686" lon="2.21812">
        <ele>78.6</ele>
        <time>2022-12-09T15:03:44Z</time>
      </trkpt>
      <trkpt lat="49.8686" lon="2.21813">
        <ele>78.5</ele>
        <time>2022-12-09T15:03:45Z</time>
      </trkpt>
      <trkpt lat="49.8686" lon="2.21815">
        <ele>78.5</ele>
        <time>2022-12-09T15:03:46Z</time>
      </trkpt>
      <trkpt lat="49.8686" lon="2.21818">
        <ele>78.4</ele>
        <time>2022-12-09T15:03:48Z</time>
      </trkpt>
      <trkpt lat="49.86859" lon="2.2182">
        <ele>78.3</ele>
        <time>2022-12-09T15:03:49Z</time>
      </trkpt>
      <trkpt lat="49.86859" lon="2.21821">
        <ele>78.3</ele>
        <time>2022-12-09T15:03:50Z</time>
      </trkpt>
      <trkpt lat="49.86859" lon="2.21823">
        <ele>78.3</ele>
        <time>2022-12-09T15:03:51Z</time>
      </trkpt>
      <trkpt lat="49.86859" lon="2.21825">
        <ele>78.2</ele>
        <time>2022-12-09T15:03:52Z</time>
      </trkpt>
      <trkpt lat="49.86858" lon="2.21828">
        <ele>78.1</ele>
        <time>2022-12-09T15:03:53Z</time>
      </trkpt>
      <trkpt lat="49.86858" lon="2.21829">
        <ele>78.1</ele>
        <time>2022-12-09T15:03:54Z</time>
      </trkpt>
      <trkpt lat="49.86857" lon="2.21831">
        <ele>78</ele>
        <time>2022-12-09T15:03:55Z</time>
      </trkpt>
      <trkpt lat="49.86857" lon="2.21833">
        <ele>78</ele>
        <time>2022-12-09T15:03:56Z</time>
      </trkpt>
      <trkpt lat="49.86857" lon="2.21834">
        <ele>77.9</ele>
        <time>2022-12-09T15:03:57Z</time>
      </trkpt>
      <trkpt lat="49.86856" lon="2.21836">
        <ele>77.9</ele>
        <time>2022-12-09T15:03:58Z</time>
      </trkpt>
      <trkpt lat="49.86856" lon="2.21839">
        <ele>77.8</ele>
        <time>2022-12-09T15:03:59Z</time>
      </trkpt>
      <trkpt lat="49.86856" lon="2.2184">
        <ele>77.8</ele>
        <time>2022-12-09T15:04:01Z</time>
      </trkpt>
      <trkpt lat="49.86856" lon="2.21842">
        <ele>77.7</ele>
        <time>2022-12-09T15:04:02Z</time>
      </trkpt>
      <trkpt lat="49.86855" lon="2.21845">
        <ele>77.6</ele>
        <time>2022-12-09T15:04:03Z</time>
      </trkpt>
      <trkpt lat="49.86855" lon="2.21846">
        <ele>77.6</ele>
        <time>2022-12-09T15:04:04Z</time>
      </trkpt>
      <trkpt lat="49.86855" lon="2.21847">
        <ele>77.6</ele>
        <time>2022-12-09T15:04:05Z</time>
      </trkpt>
      <trkpt lat="49.86854" lon="2.21849">
        <ele>77.5</ele>
        <time>2022-12-09T15:04:06Z</time>
      </trkpt>
      <trkpt lat="49.86854" lon="2.21851">
        <ele>77.5</ele>
        <time>2022-12-09T15:04:07Z</time>
      </trkpt>
      <trkpt lat="49.86854" lon="2.21853">
        <ele>77.4</ele>
        <time>2022-12-09T15:04:09Z</time>
      </trkpt>
      <trkpt lat="49.86853" lon="2.21855">
        <ele>77.4</ele>
        <time>2022-12-09T15:04:10Z</time>
      </trkpt>
      <trkpt lat="49.86853" lon="2.21856">
        <ele>77.3</ele>
        <time>2022-12-09T15:04:11Z</time>
      </trkpt>
      <trkpt lat="49.86853" lon="2.21858">
        <ele>77.3</ele>
        <time>2022-12-09T15:04:12Z</time>
      </trkpt>
      <trkpt lat="49.86853" lon="2.2186">
        <ele>77.3</ele>
        <time>2022-12-09T15:04:13Z</time>
      </trkpt>
      <trkpt lat="49.86853" lon="2.21861">
        <ele>77.2</ele>
        <time>2022-12-09T15:04:14Z</time>
      </trkpt>
      <trkpt lat="49.86853" lon="2.21863">
        <ele>77.2</ele>
        <time>2022-12-09T15:04:15Z</time>
      </trkpt>
      <trkpt lat="49.86852" lon="2.21866">
        <ele>77.1</ele>
        <time>2022-12-09T15:04:17Z</time>
      </trkpt>
      <trkpt lat="49.86852" lon="2.21868">
        <ele>77.1</ele>
        <time>2022-12-09T15:04:18Z</time>
      </trkpt>
      <trkpt lat="49.86852" lon="2.21869">
        <ele>77.1</ele>
        <time>2022-12-09T15:04:19Z</time>
      </trkpt>
      <trkpt lat="49.86852" lon="2.21872">
        <ele>77</ele>
        <time>2022-12-09T15:04:20Z</time>
      </trkpt>
      <trkpt lat="49.86852" lon="2.21874">
        <ele>77</ele>
        <time>2022-12-09T15:04:21Z</time>
      </trkpt>
      <trkpt lat="49.86852" lon="2.21875">
        <ele>76.9</ele>
        <time>2022-12-09T15:04:22Z</time>
      </trkpt>
      <trkpt lat="49.86851" lon="2.21877">
        <ele>76.9</ele>
        <time>2022-12-09T15:04:23Z</time>
      </trkpt>
      <trkpt lat="49.86851" lon="2.21879">
        <ele>76.9</ele>
        <time>2022-12-09T15:04:24Z</time>
      </trkpt>
      <trkpt lat="49.86851" lon="2.2188">
        <ele>76.8</ele>
        <time>2022-12-09T15:04:25Z</time>
      </trkpt>
      <trkpt lat="49.8685" lon="2.21883">
        <ele>76.8</ele>
        <time>2022-12-09T15:04:26Z</time>
      </trkpt>
      <trkpt lat="49.8685" lon="2.21885">
        <ele>76.8</ele>
        <time>2022-12-09T15:04:28Z</time>
      </trkpt>
      <trkpt lat="49.8685" lon="2.21886">
        <ele>76.7</ele>
        <time>2022-12-09T15:04:29Z</time>
      </trkpt>
      <trkpt lat="49.86849" lon="2.21888">
        <ele>76.7</ele>
        <time>2022-12-09T15:04:30Z</time>
      </trkpt>
      <trkpt lat="49.86849" lon="2.2189">
        <ele>76.7</ele>
        <time>2022-12-09T15:04:31Z</time>
      </trkpt>
      <trkpt lat="49.86849" lon="2.21893">
        <ele>76.6</ele>
        <time>2022-12-09T15:04:32Z</time>
      </trkpt>
      <trkpt lat="49.86849" lon="2.21895">
        <ele>76.6</ele>
        <time>2022-12-09T15:04:33Z</time>
      </trkpt>
      <trkpt lat="49.86848" lon="2.21896">
        <ele>76.6</ele>
        <time>2022-12-09T15:04:34Z</time>
      </trkpt>
      <trkpt lat="49.86848" lon="2.21898">
        <ele>76.5</ele>
        <time>2022-12-09T15:04:35Z</time>
      </trkpt>
      <trkpt lat="49.86848" lon="2.219">
        <ele>76.5</ele>
        <time>2022-12-09T15:04:36Z</time>
      </trkpt>
      <trkpt lat="49.86848" lon="2.21901">
        <ele>76.5</ele>
        <time>2022-12-09T15:04:37Z</time>
      </trkpt>
      <trkpt lat="49.86848" lon="2.21903">
        <ele>76.4</ele>
        <time>2022-12-09T15:04:38Z</time>
      </trkpt>
      <trkpt lat="49.86847" lon="2.21904">
        <ele>76.4</ele>
        <time>2022-12-09T15:04:39Z</time>
      </trkpt>
      <trkpt lat="49.86847" lon="2.21906">
        <ele>76.4</ele>
        <time>2022-12-09T15:04:40Z</time>
      </trkpt>
      <trkpt lat="49.86847" lon="2.21909">
        <ele>76.3</ele>
        <time>2022-12-09T15:04:42Z</time>
      </trkpt>
      <trkpt lat="49.86846" lon="2.2191">
        <ele>76.3</ele>
        <time>2022-12-09T15:04:43Z</time>
      </trkpt>
      <trkpt lat="49.86846" lon="2.21912">
        <ele>76.3</ele>
        <time>2022-12-09T15:04:44Z</time>
      </trkpt>
      <trkpt lat="49.86846" lon="2.21915">
        <ele>76.2</ele>
        <time>2022-12-09T15:04:45Z</time>
      </trkpt>
      <trkpt lat="49.86846" lon="2.21916">
        <ele>76.2</ele>
        <time>2022-12-09T15:04:46Z</time>
      </trkpt>
      <trkpt lat="49.86845" lon="2.21917">
        <ele>76.2</ele>
        <time>2022-12-09T15:04:47Z</time>
      </trkpt>
      <trkpt lat="49.86845" lon="2.2192">
        <ele>76.1</ele>
        <time>2022-12-09T15:04:48Z</time>
      </trkpt>
      <trkpt lat="49.86845" lon="2.21922">
        <ele>76.1</ele>
        <time>2022-12-09T15:04:49Z</time>
      </trkpt>
      <trkpt lat="49.86844" lon="2.21923">
        <ele>76.1</ele>
        <time>2022-12-09T15:04:50Z</time>
      </trkpt>
      <trkpt lat="49.86844" lon="2.21925">
        <ele>76.1</ele>
        <time>2022-12-09T15:04:51Z</time>
      </trkpt>
      <trkpt lat="49.86844" lon="2.21926">
        <ele>76</ele>
        <time>2022-12-09T15:04:52Z</time>
      </trkpt>
      <trkpt lat="49.86843" lon="2.21927">
        <ele>76</ele>
        <time>2022-12-09T15:04:53Z</time>
      </trkpt>
      <trkpt lat="49.86843" lon="2.21929">
        <ele>76</ele>
        <time>2022-12-09T15:04:55Z</time>
      </trkpt>
      <trkpt lat="49.86843" lon="2.21931">
        <ele>75.9</ele>
        <time>2022-12-09T15:04:56Z</time>
      </trkpt>
      <trkpt lat="49.86843" lon="2.21933">
        <ele>75.9</ele>
        <time>2022-12-09T15:04:57Z</time>
      </trkpt>
      <trkpt lat="49.86843" lon="2.21936">
        <ele>75.9</ele>
        <time>2022-12-09T15:04:58Z</time>
      </trkpt>
      <trkpt lat="49.86842" lon="2.21937">
        <ele>75.9</ele>
        <time>2022-12-09T15:04:59Z</time>
      </trkpt>
      <trkpt lat="49.86842" lon="2.21938">
        <ele>75.8</ele>
        <time>2022-12-09T15:05:00Z</time>
      </trkpt>
      <trkpt lat="49.86842" lon="2.21942">
        <ele>75.8</ele>
        <time>2022-12-09T15:05:01Z</time>
      </trkpt>
      <trkpt lat="49.86842" lon="2.21943">
        <ele>75.8</ele>
        <time>2022-12-09T15:05:02Z</time>
      </trkpt>
      <trkpt lat="49.86841" lon="2.21944">
        <ele>75.8</ele>
        <time>2022-12-09T15:05:03Z</time>
      </trkpt>
      <trkpt lat="49.86841" lon="2.21947">
        <ele>75.7</ele>
        <time>2022-12-09T15:05:04Z</time>
      </trkpt>
      <trkpt lat="49.86841" lon="2.21948">
        <ele>75.7</ele>
        <time>2022-12-09T15:05:05Z</time>
      </trkpt>
      <trkpt lat="49.8684" lon="2.2195">
        <ele>75.7</ele>
        <time>2022-12-09T15:05:07Z</time>
      </trkpt>
      <trkpt lat="49.8684" lon="2.21951">
        <ele>75.7</ele>
        <time>2022-12-09T15:05:08Z</time>
      </trkpt>
      <trkpt lat="49.8684" lon="2.21953">
        <ele>75.6</ele>
        <time>2022-12-09T15:05:09Z</time>
      </trkpt>
      <trkpt lat="49.86839" lon="2.21954">
        <ele>75.6</ele>
        <time>2022-12-09T15:05:10Z</time>
      </trkpt>
      <trkpt lat="49.86839" lon="2.21957">
        <ele>75.6</ele>
        <time>2022-12-09T15:05:11Z</time>
      </trkpt>
      <trkpt lat="49.86839" lon="2.21958">
        <ele>75.6</ele>
        <time>2022-12-09T15:05:12Z</time>
      </trkpt>
      <trkpt lat="49.86839" lon="2.2196">
        <ele>75.6</ele>
        <time>2022-12-09T15:05:13Z</time>
      </trkpt>
      <trkpt lat="49.86838" lon="2.21962">
        <ele>75.5</ele>
        <time>2022-12-09T15:05:14Z</time>
      </trkpt>
      <trkpt lat="49.86838" lon="2.21964">
        <ele>75.5</ele>
        <time>2022-12-09T15:05:15Z</time>
      </trkpt>
      <trkpt lat="49.86838" lon="2.21965">
        <ele>75.5</ele>
        <time>2022-12-09T15:05:16Z</time>
      </trkpt>
      <trkpt lat="49.86838" lon="2.21967">
        <ele>75.5</ele>
        <time>2022-12-09T15:05:17Z</time>
      </trkpt>
      <trkpt lat="49.86837" lon="2.21968">
        <ele>75.4</ele>
        <time>2022-12-09T15:05:18Z</time>
      </trkpt>
      <trkpt lat="49.86837" lon="2.2197">
        <ele>75.4</ele>
        <time>2022-12-09T15:05:19Z</time>
      </trkpt>
      <trkpt lat="49.86837" lon="2.21972">
        <ele>75.4</ele>
        <time>2022-12-09T15:05:21Z</time>
      </trkpt>
      <trkpt lat="49.86836" lon="2.21974">
        <ele>75.3</ele>
        <time>2022-12-09T15:05:22Z</time>
      </trkpt>
      <trkpt lat="49.86836" lon="2.21976">
        <ele>75.3</ele>
        <time>2022-12-09T15:05:23Z</time>
      </trkpt>
      <trkpt lat="49.86836" lon="2.21978">
        <ele>75.3</ele>
        <time>2022-12-09T15:05:24Z</time>
      </trkpt>
      <trkpt lat="49.86836" lon="2.2198">
        <ele>75.2</ele>
        <time>2022-12-09T15:05:25Z</time>
      </trkpt>
      <trkpt lat="49.86835" lon="2.21983">
        <ele>75.2</ele>
        <time>2022-12-09T15:05:26Z</time>
      </trkpt>
      <trkpt lat="49.86835" lon="2.21984">
        <ele>75.2</ele>
        <time>2022-12-09T15:05:28Z</time>
      </trkpt>
      <trkpt lat="49.86835" lon="2.21986">
        <ele>75.2</ele>
        <time>2022-12-09T15:05:29Z</time>
      </trkpt>
      <trkpt lat="49.86835" lon="2.21989">
        <ele>75.1</ele>
        <time>2022-12-09T15:05:30Z</time>
      </trkpt>
      <trkpt lat="49.86835" lon="2.2199">
        <ele>75.1</ele>
        <time>2022-12-09T15:05:31Z</time>
      </trkpt>
      <trkpt lat="49.86834" lon="2.21991">
        <ele>75.1</ele>
        <time>2022-12-09T15:05:32Z</time>
      </trkpt>
      <trkpt lat="49.86834" lon="2.21993">
        <ele>75</ele>
        <time>2022-12-09T15:05:33Z</time>
      </trkpt>
      <trkpt lat="49.86834" lon="2.21994">
        <ele>75</ele>
        <time>2022-12-09T15:05:34Z</time>
      </trkpt>
      <trkpt lat="49.86834" lon="2.21996">
        <ele>75</ele>
        <time>2022-12-09T15:05:35Z</time>
      </trkpt>
      <trkpt lat="49.86834" lon="2.21999">
        <ele>74.9</ele>
        <time>2022-12-09T15:05:36Z</time>
      </trkpt>
      <trkpt lat="49.86833" lon="2.22001">
        <ele>74.9</ele>
        <time>2022-12-09T15:05:37Z</time>
      </trkpt>
      <trkpt lat="49.86833" lon="2.22002">
        <ele>74.9</ele>
        <time>2022-12-09T15:05:38Z</time>
      </trkpt>
      <trkpt lat="49.86833" lon="2.22005">
        <ele>74.8</ele>
        <time>2022-12-09T15:05:40Z</time>
      </trkpt>
      <trkpt lat="49.86833" lon="2.22006">
        <ele>74.8</ele>
        <time>2022-12-09T15:05:41Z</time>
      </trkpt>
      <trkpt lat="49.86832" lon="2.22008">
        <ele>74.8</ele>
        <time>2022-12-09T15:05:42Z</time>
      </trkpt>
      <trkpt lat="49.86832" lon="2.22009">
        <ele>74.7</ele>
        <time>2022-12-09T15:05:43Z</time>
      </trkpt>
      <trkpt lat="49.86832" lon="2.22011">
        <ele>74.7</ele>
        <time>2022-12-09T15:05:44Z</time>
      </trkpt>
      <trkpt lat="49.86832" lon="2.22012">
        <ele>74.7</ele>
        <time>2022-12-09T15:05:45Z</time>
      </trkpt>
      <trkpt lat="49.86831" lon="2.22016">
        <ele>74.6</ele>
        <time>2022-12-09T15:05:46Z</time>
      </trkpt>
      <trkpt lat="49.86831" lon="2.22017">
        <ele>74.6</ele>
        <time>2022-12-09T15:05:48Z</time>
      </trkpt>
      <trkpt lat="49.86831" lon="2.22019">
        <ele>74.6</ele>
        <time>2022-12-09T15:05:49Z</time>
      </trkpt>
      <trkpt lat="49.86831" lon="2.22022">
        <ele>74.5</ele>
        <time>2022-12-09T15:05:50Z</time>
      </trkpt>
      <trkpt lat="49.8683" lon="2.22023">
        <ele>74.5</ele>
        <time>2022-12-09T15:05:51Z</time>
      </trkpt>
      <trkpt lat="49.8683" lon="2.22024">
        <ele>74.5</ele>
        <time>2022-12-09T15:05:52Z</time>
      </trkpt>
      <trkpt lat="49.8683" lon="2.22028">
        <ele>74.4</ele>
        <time>2022-12-09T15:05:53Z</time>
      </trkpt>
      <trkpt lat="49.8683" lon="2.22029">
        <ele>74.4</ele>
        <time>2022-12-09T15:05:55Z</time>
      </trkpt>
      <trkpt lat="49.8683" lon="2.2203">
        <ele>74.4</ele>
        <time>2022-12-09T15:05:56Z</time>
      </trkpt>
      <trkpt lat="49.86829" lon="2.22034">
        <ele>74.3</ele>
        <time>2022-12-09T15:05:57Z</time>
      </trkpt>
      <trkpt lat="49.86829" lon="2.22035">
        <ele>74.3</ele>
        <time>2022-12-09T15:05:58Z</time>
      </trkpt>
      <trkpt lat="49.86828" lon="2.22036">
        <ele>74.3</ele>
        <time>2022-12-09T15:05:59Z</time>
      </trkpt>
      <trkpt lat="49.86828" lon="2.22038">
        <ele>74.2</ele>
        <time>2022-12-09T15:06:00Z</time>
      </trkpt>
      <trkpt lat="49.86828" lon="2.22039">
        <ele>74.2</ele>
        <time>2022-12-09T15:06:01Z</time>
      </trkpt>
      <trkpt lat="49.86828" lon="2.22041">
        <ele>74.2</ele>
        <time>2022-12-09T15:06:02Z</time>
      </trkpt>
      <trkpt lat="49.86828" lon="2.22043">
        <ele>74.1</ele>
        <time>2022-12-09T15:06:04Z</time>
      </trkpt>
      <trkpt lat="49.86827" lon="2.22045">
        <ele>74.1</ele>
        <time>2022-12-09T15:06:05Z</time>
      </trkpt>
      <trkpt lat="49.86827" lon="2.22047">
        <ele>74</ele>
        <time>2022-12-09T15:06:06Z</time>
      </trkpt>
      <trkpt lat="49.86827" lon="2.2205">
        <ele>74</ele>
        <time>2022-12-09T15:06:07Z</time>
      </trkpt>
      <trkpt lat="49.86827" lon="2.22052">
        <ele>73.9</ele>
        <time>2022-12-09T15:06:08Z</time>
      </trkpt>
      <trkpt lat="49.86826" lon="2.22054">
        <ele>73.9</ele>
        <time>2022-12-09T15:06:09Z</time>
      </trkpt>
      <trkpt lat="49.86826" lon="2.22056">
        <ele>73.8</ele>
        <time>2022-12-09T15:06:10Z</time>
      </trkpt>
      <trkpt lat="49.86826" lon="2.22058">
        <ele>73.8</ele>
        <time>2022-12-09T15:06:11Z</time>
      </trkpt>
      <trkpt lat="49.86826" lon="2.22059">
        <ele>73.8</ele>
        <time>2022-12-09T15:06:12Z</time>
      </trkpt>
      <trkpt lat="49.86826" lon="2.22062">
        <ele>73.7</ele>
        <time>2022-12-09T15:06:13Z</time>
      </trkpt>
      <trkpt lat="49.86825" lon="2.22064">
        <ele>73.7</ele>
        <time>2022-12-09T15:06:14Z</time>
      </trkpt>
      <trkpt lat="49.86825" lon="2.22065">
        <ele>73.6</ele>
        <time>2022-12-09T15:06:16Z</time>
      </trkpt>
      <trkpt lat="49.86825" lon="2.22067">
        <ele>73.6</ele>
        <time>2022-12-09T15:06:17Z</time>
      </trkpt>
      <trkpt lat="49.86825" lon="2.22069">
        <ele>73.6</ele>
        <time>2022-12-09T15:06:18Z</time>
      </trkpt>
      <trkpt lat="49.86825" lon="2.2207">
        <ele>73.5</ele>
        <time>2022-12-09T15:06:19Z</time>
      </trkpt>
      <trkpt lat="49.86824" lon="2.22073">
        <ele>73.4</ele>
        <time>2022-12-09T15:06:20Z</time>
      </trkpt>
      <trkpt lat="49.86824" lon="2.22074">
        <ele>73.4</ele>
        <time>2022-12-09T15:06:21Z</time>
      </trkpt>
      <trkpt lat="49.86824" lon="2.22076">
        <ele>73.4</ele>
        <time>2022-12-09T15:06:22Z</time>
      </trkpt>
      <trkpt lat="49.86823" lon="2.22078">
        <ele>73.3</ele>
        <time>2022-12-09T15:06:23Z</time>
      </trkpt>
      <trkpt lat="49.86823" lon="2.22079">
        <ele>73.3</ele>
        <time>2022-12-09T15:06:24Z</time>
      </trkpt>
      <trkpt lat="49.86823" lon="2.22081">
        <ele>73.3</ele>
        <time>2022-12-09T15:06:25Z</time>
      </trkpt>
      <trkpt lat="49.86822" lon="2.22082">
        <ele>73.2</ele>
        <time>2022-12-09T15:06:26Z</time>
      </trkpt>
      <trkpt lat="49.86822" lon="2.22084">
        <ele>73.2</ele>
        <time>2022-12-09T15:06:27Z</time>
      </trkpt>
      <trkpt lat="49.86822" lon="2.22086">
        <ele>73.2</ele>
        <time>2022-12-09T15:06:29Z</time>
      </trkpt>
      <trkpt lat="49.86822" lon="2.22087">
        <ele>73.1</ele>
        <time>2022-12-09T15:06:30Z</time>
      </trkpt>
      <trkpt lat="49.86821" lon="2.22089">
        <ele>73.1</ele>
        <time>2022-12-09T15:06:31Z</time>
      </trkpt>
      <trkpt lat="49.86821" lon="2.22091">
        <ele>73</ele>
        <time>2022-12-09T15:06:32Z</time>
      </trkpt>
      <trkpt lat="49.86821" lon="2.22092">
        <ele>73</ele>
        <time>2022-12-09T15:06:33Z</time>
      </trkpt>
      <trkpt lat="49.86821" lon="2.22094">
        <ele>73</ele>
        <time>2022-12-09T15:06:34Z</time>
      </trkpt>
      <trkpt lat="49.86821" lon="2.22096">
        <ele>72.9</ele>
        <time>2022-12-09T15:06:35Z</time>
      </trkpt>
      <trkpt lat="49.86821" lon="2.22098">
        <ele>72.9</ele>
        <time>2022-12-09T15:06:36Z</time>
      </trkpt>
      <trkpt lat="49.8682" lon="2.221">
        <ele>72.9</ele>
        <time>2022-12-09T15:06:37Z</time>
      </trkpt>
      <trkpt lat="49.8682" lon="2.22101">
        <ele>72.8</ele>
        <time>2022-12-09T15:06:38Z</time>
      </trkpt>
      <trkpt lat="49.86819" lon="2.22103">
        <ele>72.8</ele>
        <time>2022-12-09T15:06:40Z</time>
      </trkpt>
      <trkpt lat="49.86819" lon="2.22105">
        <ele>72.7</ele>
        <time>2022-12-09T15:06:41Z</time>
      </trkpt>
      <trkpt lat="49.86818" lon="2.22108">
        <ele>72.7</ele>
        <time>2022-12-09T15:06:42Z</time>
      </trkpt>
      <trkpt lat="49.86818" lon="2.22109">
        <ele>72.7</ele>
        <time>2022-12-09T15:06:43Z</time>
      </trkpt>
      <trkpt lat="49.86818" lon="2.22111">
        <ele>72.6</ele>
        <time>2022-12-09T15:06:44Z</time>
      </trkpt>
      <trkpt lat="49.86818" lon="2.22112">
        <ele>72.6</ele>
        <time>2022-12-09T15:06:45Z</time>
      </trkpt>
      <trkpt lat="49.86818" lon="2.22114">
        <ele>72.6</ele>
        <time>2022-12-09T15:06:46Z</time>
      </trkpt>
      <trkpt lat="49.86817" lon="2.22116">
        <ele>72.5</ele>
        <time>2022-12-09T15:06:48Z</time>
      </trkpt>
      <trkpt lat="49.86817" lon="2.22118">
        <ele>72.5</ele>
        <time>2022-12-09T15:06:49Z</time>
      </trkpt>
      <trkpt lat="49.86817" lon="2.2212">
        <ele>72.4</ele>
        <time>2022-12-09T15:06:50Z</time>
      </trkpt>
      <trkpt lat="49.86817" lon="2.22121">
        <ele>72.4</ele>
        <time>2022-12-09T15:06:51Z</time>
      </trkpt>
      <trkpt lat="49.86816" lon="2.22124">
        <ele>72.3</ele>
        <time>2022-12-09T15:06:52Z</time>
      </trkpt>
      <trkpt lat="49.86816" lon="2.22126">
        <ele>72.3</ele>
        <time>2022-12-09T15:06:53Z</time>
      </trkpt>
      <trkpt lat="49.86816" lon="2.22127">
        <ele>72.3</ele>
        <time>2022-12-09T15:06:54Z</time>
      </trkpt>
      <trkpt lat="49.86816" lon="2.22129">
        <ele>72.2</ele>
        <time>2022-12-09T15:06:55Z</time>
      </trkpt>
      <trkpt lat="49.86815" lon="2.22131">
        <ele>72.2</ele>
        <time>2022-12-09T15:06:56Z</time>
      </trkpt>
      <trkpt lat="49.86815" lon="2.22133">
        <ele>72.2</ele>
        <time>2022-12-09T15:06:57Z</time>
      </trkpt>
      <trkpt lat="49.86814" lon="2.22135">
        <ele>72.1</ele>
        <time>2022-12-09T15:06:58Z</time>
      </trkpt>
      <trkpt lat="49.86814" lon="2.22137">
        <ele>72.1</ele>
        <time>2022-12-09T15:07:00Z</time>
      </trkpt>
      <trkpt lat="49.86813" lon="2.22139">
        <ele>72</ele>
        <time>2022-12-09T15:07:01Z</time>
      </trkpt>
      <trkpt lat="49.86813" lon="2.22141">
        <ele>72</ele>
        <time>2022-12-09T15:07:02Z</time>
      </trkpt>
      <trkpt lat="49.86813" lon="2.22142">
        <ele>72</ele>
        <time>2022-12-09T15:07:03Z</time>
      </trkpt>
      <trkpt lat="49.86812" lon="2.22144">
        <ele>71.9</ele>
        <time>2022-12-09T15:07:04Z</time>
      </trkpt>
      <trkpt lat="49.86812" lon="2.22146">
        <ele>71.9</ele>
        <time>2022-12-09T15:07:05Z</time>
      </trkpt>
      <trkpt lat="49.86811" lon="2.22149">
        <ele>71.8</ele>
        <time>2022-12-09T15:07:06Z</time>
      </trkpt>
      <trkpt lat="49.86811" lon="2.2215">
        <ele>71.8</ele>
        <time>2022-12-09T15:07:07Z</time>
      </trkpt>
      <trkpt lat="49.86811" lon="2.22151">
        <ele>71.8</ele>
        <time>2022-12-09T15:07:08Z</time>
      </trkpt>
      <trkpt lat="49.86811" lon="2.22155">
        <ele>71.7</ele>
        <time>2022-12-09T15:07:09Z</time>
      </trkpt>
      <trkpt lat="49.8681" lon="2.22156">
        <ele>71.7</ele>
        <time>2022-12-09T15:07:10Z</time>
      </trkpt>
      <trkpt lat="49.8681" lon="2.22157">
        <ele>71.7</ele>
        <time>2022-12-09T15:07:11Z</time>
      </trkpt>
      <trkpt lat="49.8681" lon="2.22159">
        <ele>71.6</ele>
        <time>2022-12-09T15:07:13Z</time>
      </trkpt>
      <trkpt lat="49.8681" lon="2.22161">
        <ele>71.6</ele>
        <time>2022-12-09T15:07:14Z</time>
      </trkpt>
      <trkpt lat="49.8681" lon="2.22163">
        <ele>71.6</ele>
        <time>2022-12-09T15:07:15Z</time>
      </trkpt>
      <trkpt lat="49.86809" lon="2.22164">
        <ele>71.5</ele>
        <time>2022-12-09T15:07:16Z</time>
      </trkpt>
      <trkpt lat="49.86809" lon="2.22166">
        <ele>71.5</ele>
        <time>2022-12-09T15:07:17Z</time>
      </trkpt>
      <trkpt lat="49.86809" lon="2.22167">
        <ele>71.5</ele>
        <time>2022-12-09T15:07:18Z</time>
      </trkpt>
      <trkpt lat="49.86808" lon="2.22169">
        <ele>71.4</ele>
        <time>2022-12-09T15:07:19Z</time>
      </trkpt>
      <trkpt lat="49.86808" lon="2.22171">
        <ele>71.4</ele>
        <time>2022-12-09T15:07:20Z</time>
      </trkpt>
      <trkpt lat="49.86808" lon="2.22172">
        <ele>71.4</ele>
        <time>2022-12-09T15:07:21Z</time>
      </trkpt>
      <trkpt lat="49.86808" lon="2.22174">
        <ele>71.3</ele>
        <time>2022-12-09T15:07:22Z</time>
      </trkpt>
      <trkpt lat="49.86807" lon="2.22176">
        <ele>71.3</ele>
        <time>2022-12-09T15:07:23Z</time>
      </trkpt>
      <trkpt lat="49.86807" lon="2.22178">
        <ele>71.2</ele>
        <time>2022-12-09T15:07:25Z</time>
      </trkpt>
      <trkpt lat="49.86807" lon="2.2218">
        <ele>71.2</ele>
        <time>2022-12-09T15:07:26Z</time>
      </trkpt>
      <trkpt lat="49.86807" lon="2.22182">
        <ele>71.2</ele>
        <time>2022-12-09T15:07:27Z</time>
      </trkpt>
      <trkpt lat="49.86806" lon="2.22184">
        <ele>71.1</ele>
        <time>2022-12-09T15:07:28Z</time>
      </trkpt>
      <trkpt lat="49.86806" lon="2.22185">
        <ele>71.1</ele>
        <time>2022-12-09T15:07:29Z</time>
      </trkpt>
      <trkpt lat="49.86806" lon="2.22186">
        <ele>71.1</ele>
        <time>2022-12-09T15:07:30Z</time>
      </trkpt>
      <trkpt lat="49.86806" lon="2.22188">
        <ele>71.1</ele>
        <time>2022-12-09T15:07:31Z</time>
      </trkpt>
      <trkpt lat="49.86805" lon="2.2219">
        <ele>71</ele>
        <time>2022-12-09T15:07:32Z</time>
      </trkpt>
      <trkpt lat="49.86805" lon="2.22192">
        <ele>71</ele>
        <time>2022-12-09T15:07:33Z</time>
      </trkpt>
      <trkpt lat="49.86805" lon="2.22193">
        <ele>71</ele>
        <time>2022-12-09T15:07:34Z</time>
      </trkpt>
      <trkpt lat="49.86805" lon="2.22195">
        <ele>70.9</ele>
        <time>2022-12-09T15:07:35Z</time>
      </trkpt>
      <trkpt lat="49.86804" lon="2.22197">
        <ele>70.9</ele>
        <time>2022-12-09T15:07:36Z</time>
      </trkpt>
      <trkpt lat="49.86804" lon="2.22199">
        <ele>70.9</ele>
        <time>2022-12-09T15:07:38Z</time>
      </trkpt>
      <trkpt lat="49.86804" lon="2.222">
        <ele>70.9</ele>
        <time>2022-12-09T15:07:39Z</time>
      </trkpt>
      <trkpt lat="49.86804" lon="2.22202">
        <ele>70.8</ele>
        <time>2022-12-09T15:07:40Z</time>
      </trkpt>
      <trkpt lat="49.86804" lon="2.22204">
        <ele>70.8</ele>
        <time>2022-12-09T15:07:41Z</time>
      </trkpt>
      <trkpt lat="49.86803" lon="2.22207">
        <ele>70.8</ele>
        <time>2022-12-09T15:07:42Z</time>
      </trkpt>
      <trkpt lat="49.86803" lon="2.22208">
        <ele>70.8</ele>
        <time>2022-12-09T15:07:43Z</time>
      </trkpt>
      <trkpt lat="49.86803" lon="2.22209">
        <ele>70.7</ele>
        <time>2022-12-09T15:07:44Z</time>
      </trkpt>
      <trkpt lat="49.86803" lon="2.22211">
        <ele>70.7</ele>
        <time>2022-12-09T15:07:45Z</time>
      </trkpt>
      <trkpt lat="49.86803" lon="2.22213">
        <ele>70.7</ele>
        <time>2022-12-09T15:07:46Z</time>
      </trkpt>
      <trkpt lat="49.86803" lon="2.22215">
        <ele>70.7</ele>
        <time>2022-12-09T15:07:48Z</time>
      </trkpt>
      <trkpt lat="49.86802" lon="2.22218">
        <ele>70.6</ele>
        <time>2022-12-09T15:07:49Z</time>
      </trkpt>
      <trkpt lat="49.86802" lon="2.22219">
        <ele>70.6</ele>
        <time>2022-12-09T15:07:50Z</time>
      </trkpt>
      <trkpt lat="49.86802" lon="2.22221">
        <ele>70.6</ele>
        <time>2022-12-09T15:07:51Z</time>
      </trkpt>
      <trkpt lat="49.86802" lon="2.22222">
        <ele>70.6</ele>
        <time>2022-12-09T15:07:52Z</time>
      </trkpt>
      <trkpt lat="49.86801" lon="2.22224">
        <ele>70.5</ele>
        <time>2022-12-09T15:07:53Z</time>
      </trkpt>
      <trkpt lat="49.86801" lon="2.22226">
        <ele>70.5</ele>
        <time>2022-12-09T15:07:54Z</time>
      </trkpt>
      <trkpt lat="49.86801" lon="2.22229">
        <ele>70.5</ele>
        <time>2022-12-09T15:07:55Z</time>
      </trkpt>
      <trkpt lat="49.868" lon="2.2223">
        <ele>70.4</ele>
        <time>2022-12-09T15:07:56Z</time>
      </trkpt>
      <trkpt lat="49.868" lon="2.22231">
        <ele>70.4</ele>
        <time>2022-12-09T15:07:57Z</time>
      </trkpt>
      <trkpt lat="49.86799" lon="2.22234">
        <ele>70.4</ele>
        <time>2022-12-09T15:07:59Z</time>
      </trkpt>
      <trkpt lat="49.86799" lon="2.22236">
        <ele>70.4</ele>
        <time>2022-12-09T15:08:00Z</time>
      </trkpt>
      <trkpt lat="49.86799" lon="2.22237">
        <ele>70.4</ele>
        <time>2022-12-09T15:08:01Z</time>
      </trkpt>
      <trkpt lat="49.86798" lon="2.22238">
        <ele>70.3</ele>
        <time>2022-12-09T15:08:02Z</time>
      </trkpt>
      <trkpt lat="49.86798" lon="2.2224">
        <ele>70.3</ele>
        <time>2022-12-09T15:08:03Z</time>
      </trkpt>
      <trkpt lat="49.86797" lon="2.22242">
        <ele>70.3</ele>
        <time>2022-12-09T15:08:04Z</time>
      </trkpt>
      <trkpt lat="49.86797" lon="2.22243">
        <ele>70.2</ele>
        <time>2022-12-09T15:08:05Z</time>
      </trkpt>
      <trkpt lat="49.86796" lon="2.22245">
        <ele>70.2</ele>
        <time>2022-12-09T15:08:07Z</time>
      </trkpt>
      <trkpt lat="49.86796" lon="2.22246">
        <ele>70.1</ele>
        <time>2022-12-09T15:08:08Z</time>
      </trkpt>
      <trkpt lat="49.86795" lon="2.22247">
        <ele>70.1</ele>
        <time>2022-12-09T15:08:09Z</time>
      </trkpt>
      <trkpt lat="49.86794" lon="2.22248">
        <ele>70.1</ele>
        <time>2022-12-09T15:08:10Z</time>
      </trkpt>
      <trkpt lat="49.86794" lon="2.22249">
        <ele>70</ele>
        <time>2022-12-09T15:08:11Z</time>
      </trkpt>
      <trkpt lat="49.86793" lon="2.2225">
        <ele>70</ele>
        <time>2022-12-09T15:08:12Z</time>
      </trkpt>
      <trkpt lat="49.86793" lon="2.22251">
        <ele>70</ele>
        <time>2022-12-09T15:08:13Z</time>
      </trkpt>
      <trkpt lat="49.86793" lon="2.22252">
        <ele>70</ele>
        <time>2022-12-09T15:08:15Z</time>
      </trkpt>
      <trkpt lat="49.86794" lon="2.22252">
        <ele>70</ele>
        <time>2022-12-09T15:08:16Z</time>
      </trkpt>
      <trkpt lat="49.86794" lon="2.22252">
        <ele>70</ele>
        <time>2022-12-09T15:08:18Z</time>
      </trkpt>
      <trkpt lat="49.86794" lon="2.22252">
        <ele>70</ele>
        <time>2022-12-09T15:08:19Z</time>
      </trkpt>
      <trkpt lat="49.86794" lon="2.22252">
        <ele>70</ele>
        <time>2022-12-09T15:08:20Z</time>
      </trkpt>
      <trkpt lat="49.86794" lon="2.22252">
        <ele>70</ele>
        <time>2022-12-09T15:08:22Z</time>
      </trkpt>
      <trkpt lat="49.86794" lon="2.22252">
        <ele>70</ele>
        <time>2022-12-09T15:08:23Z</time>
      </trkpt>
      <trkpt lat="49.86794" lon="2.22252">
        <ele>69.9</ele>
        <time>2022-12-09T15:08:25Z</time>
      </trkpt>
      <trkpt lat="49.86794" lon="2.22252">
        <ele>69.9</ele>
        <time>2022-12-09T15:08:26Z</time>
      </trkpt>
      <trkpt lat="49.86794" lon="2.22252">
        <ele>69.9</ele>
        <time>2022-12-09T15:08:28Z</time>
      </trkpt>
      <trkpt lat="49.86794" lon="2.22252">
        <ele>69.9</ele>
        <time>2022-12-09T15:08:29Z</time>
      </trkpt>
      <trkpt lat="49.86794" lon="2.22252">
        <ele>69.9</ele>
        <time>2022-12-09T15:08:30Z</time>
      </trkpt>
      <trkpt lat="49.86794" lon="2.22251">
        <ele>69.9</ele>
        <time>2022-12-09T15:08:31Z</time>
      </trkpt>
      <trkpt lat="49.86794" lon="2.2225">
        <ele>69.9</ele>
        <time>2022-12-09T15:08:32Z</time>
      </trkpt>
      <trkpt lat="49.86794" lon="2.2225">
        <ele>69.9</ele>
        <time>2022-12-09T15:08:33Z</time>
      </trkpt>
      <trkpt lat="49.86794" lon="2.2225">
        <ele>69.9</ele>
        <time>2022-12-09T15:08:34Z</time>
      </trkpt>
      <trkpt lat="49.86794" lon="2.2225">
        <ele>69.9</ele>
        <time>2022-12-09T15:08:35Z</time>
      </trkpt>
      <trkpt lat="49.86794" lon="2.2225">
        <ele>69.9</ele>
        <time>2022-12-09T15:08:36Z</time>
      </trkpt>
      <trkpt lat="49.86794" lon="2.2225">
        <ele>69.9</ele>
        <time>2022-12-09T15:08:37Z</time>
      </trkpt>
      <trkpt lat="49.86794" lon="2.2225">
        <ele>69.9</ele>
        <time>2022-12-09T15:08:38Z</time>
      </trkpt>
      <trkpt lat="49.86794" lon="2.2225">
        <ele>69.9</ele>
        <time>2022-12-09T15:08:39Z</time>
      </trkpt>
      <trkpt lat="49.86794" lon="2.2225">
        <ele>69.9</ele>
        <time>2022-12-09T15:08:40Z</time>
      </trkpt>
      <trkpt lat="49.86794" lon="2.2225">
        <ele>69.9</ele>
        <time>2022-12-09T15:08:41Z</time>
      </trkpt>
      <trkpt lat="49.86794" lon="2.2225">
        <ele>69.9</ele>
        <time>2022-12-09T15:08:42Z</time>
      </trkpt>
      <trkpt lat="49.86794" lon="2.2225">
        <ele>69.9</ele>
        <time>2022-12-09T15:08:43Z</time>
      </trkpt>
      <trkpt lat="49.86794" lon="2.22249">
        <ele>69.9</ele>
        <time>2022-12-09T15:08:44Z</time>
      </trkpt>
      <trkpt lat="49.86794" lon="2.22249">
        <ele>69.9</ele>
        <time>2022-12-09T15:08:45Z</time>
      </trkpt>
      <trkpt lat="49.86794" lon="2.22249">
        <ele>69.9</ele>
        <time>2022-12-09T15:08:46Z</time>
      </trkpt>
      <trkpt lat="49.86794" lon="2.22249">
        <ele>69.9</ele>
        <time>2022-12-09T15:08:47Z</time>
      </trkpt>
      <trkpt lat="49.86794" lon="2.22249">
        <ele>69.9</ele>
        <time>2022-12-09T15:08:48Z</time>
      </trkpt>
      <trkpt lat="49.86794" lon="2.22249">
        <ele>69.9</ele>
        <time>2022-12-09T15:08:49Z</time>
      </trkpt>
      <trkpt lat="49.86794" lon="2.22249">
        <ele>69.9</ele>
        <time>2022-12-09T15:08:50Z</time>
      </trkpt>
      <trkpt lat="49.86795" lon="2.22247">
        <ele>69.8</ele>
        <time>2022-12-09T15:08:51Z</time>
      </trkpt>
      <trkpt lat="49.86796" lon="2.22246">
        <ele>69.8</ele>
        <time>2022-12-09T15:08:52Z</time>
      </trkpt>
      <trkpt lat="49.86796" lon="2.22245">
        <ele>69.8</ele>
        <time>2022-12-09T15:08:53Z</time>
      </trkpt>
      <trkpt lat="49.86796" lon="2.22246">
        <ele>69.8</ele>
        <time>2022-12-09T15:08:54Z</time>
      </trkpt>
      <trkpt lat="49.86795" lon="2.22246">
        <ele>69.8</ele>
        <time>2022-12-09T15:08:55Z</time>
      </trkpt>
      <trkpt lat="49.86795" lon="2.22246">
        <ele>69.8</ele>
        <time>2022-12-09T15:08:56Z</time>
      </trkpt>
      <trkpt lat="49.86794" lon="2.22246">
        <ele>69.7</ele>
        <time>2022-12-09T15:08:58Z</time>
      </trkpt>
      <trkpt lat="49.86794" lon="2.22246">
        <ele>69.7</ele>
        <time>2022-12-09T15:08:59Z</time>
      </trkpt>
      <trkpt lat="49.86793" lon="2.22247">
        <ele>69.7</ele>
        <time>2022-12-09T15:09:00Z</time>
      </trkpt>
      <trkpt lat="49.86791" lon="2.22247">
        <ele>69.6</ele>
        <time>2022-12-09T15:09:01Z</time>
      </trkpt>
      <trkpt lat="49.8679" lon="2.22248">
        <ele>69.6</ele>
        <time>2022-12-09T15:09:02Z</time>
      </trkpt>
      <trkpt lat="49.86788" lon="2.22249">
        <ele>69.6</ele>
        <time>2022-12-09T15:09:03Z</time>
      </trkpt>
      <trkpt lat="49.86787" lon="2.22249">
        <ele>69.5</ele>
        <time>2022-12-09T15:09:05Z</time>
      </trkpt>
      <trkpt lat="49.86785" lon="2.22249">
        <ele>69.5</ele>
        <time>2022-12-09T15:09:06Z</time>
      </trkpt>
      <trkpt lat="49.86784" lon="2.22249">
        <ele>69.4</ele>
        <time>2022-12-09T15:09:07Z</time>
      </trkpt>
      <trkpt lat="49.86782" lon="2.22249">
        <ele>69.4</ele>
        <time>2022-12-09T15:09:08Z</time>
      </trkpt>
      <trkpt lat="49.86781" lon="2.2225">
        <ele>69.3</ele>
        <time>2022-12-09T15:09:09Z</time>
      </trkpt>
      <trkpt lat="49.8678" lon="2.2225">
        <ele>69.3</ele>
        <time>2022-12-09T15:09:10Z</time>
      </trkpt>
      <trkpt lat="49.86778" lon="2.2225">
        <ele>69.2</ele>
        <time>2022-12-09T15:09:11Z</time>
      </trkpt>
      <trkpt lat="49.86777" lon="2.22251">
        <ele>69.2</ele>
        <time>2022-12-09T15:09:13Z</time>
      </trkpt>
      <trkpt lat="49.86776" lon="2.22251">
        <ele>69.2</ele>
        <time>2022-12-09T15:09:14Z</time>
      </trkpt>
      <trkpt lat="49.86775" lon="2.22252">
        <ele>69.2</ele>
        <time>2022-12-09T15:09:15Z</time>
      </trkpt>
      <trkpt lat="49.86774" lon="2.22252">
        <ele>69.1</ele>
        <time>2022-12-09T15:09:16Z</time>
      </trkpt>
      <trkpt lat="49.86773" lon="2.22252">
        <ele>69.1</ele>
        <time>2022-12-09T15:09:17Z</time>
      </trkpt>
      <trkpt lat="49.86771" lon="2.22252">
        <ele>69</ele>
        <time>2022-12-09T15:09:18Z</time>
      </trkpt>
      <trkpt lat="49.8677" lon="2.22252">
        <ele>69</ele>
        <time>2022-12-09T15:09:19Z</time>
      </trkpt>
      <trkpt lat="49.86769" lon="2.22252">
        <ele>69</ele>
        <time>2022-12-09T15:09:20Z</time>
      </trkpt>
      <trkpt lat="49.86767" lon="2.22252">
        <ele>68.9</ele>
        <time>2022-12-09T15:09:21Z</time>
      </trkpt>
      <trkpt lat="49.86766" lon="2.22253">
        <ele>68.9</ele>
        <time>2022-12-09T15:09:23Z</time>
      </trkpt>
      <trkpt lat="49.86765" lon="2.22253">
        <ele>68.9</ele>
        <time>2022-12-09T15:09:24Z</time>
      </trkpt>
      <trkpt lat="49.86764" lon="2.22253">
        <ele>68.8</ele>
        <time>2022-12-09T15:09:25Z</time>
      </trkpt>
      <trkpt lat="49.86763" lon="2.22253">
        <ele>68.8</ele>
        <time>2022-12-09T15:09:26Z</time>
      </trkpt>
      <trkpt lat="49.86761" lon="2.22254">
        <ele>68.8</ele>
        <time>2022-12-09T15:09:27Z</time>
      </trkpt>
      <trkpt lat="49.8676" lon="2.22254">
        <ele>68.8</ele>
        <time>2022-12-09T15:09:28Z</time>
      </trkpt>
      <trkpt lat="49.86759" lon="2.22255">
        <ele>68.7</ele>
        <time>2022-12-09T15:09:29Z</time>
      </trkpt>
      <trkpt lat="49.86757" lon="2.22256">
        <ele>68.7</ele>
        <time>2022-12-09T15:09:30Z</time>
      </trkpt>
      <trkpt lat="49.86756" lon="2.22256">
        <ele>68.6</ele>
        <time>2022-12-09T15:09:31Z</time>
      </trkpt>
      <trkpt lat="49.86756" lon="2.22256">
        <ele>68.6</ele>
        <time>2022-12-09T15:09:32Z</time>
      </trkpt>
      <trkpt lat="49.86754" lon="2.22257">
        <ele>68.6</ele>
        <time>2022-12-09T15:09:33Z</time>
      </trkpt>
      <trkpt lat="49.86753" lon="2.22257">
        <ele>68.6</ele>
        <time>2022-12-09T15:09:35Z</time>
      </trkpt>
      <trkpt lat="49.86752" lon="2.22257">
        <ele>68.5</ele>
        <time>2022-12-09T15:09:36Z</time>
      </trkpt>
      <trkpt lat="49.86751" lon="2.22258">
        <ele>68.5</ele>
        <time>2022-12-09T15:09:37Z</time>
      </trkpt>
      <trkpt lat="49.8675" lon="2.22258">
        <ele>68.5</ele>
        <time>2022-12-09T15:09:38Z</time>
      </trkpt>
      <trkpt lat="49.86749" lon="2.22258">
        <ele>68.4</ele>
        <time>2022-12-09T15:09:39Z</time>
      </trkpt>
      <trkpt lat="49.86748" lon="2.22257">
        <ele>68.4</ele>
        <time>2022-12-09T15:09:40Z</time>
      </trkpt>
      <trkpt lat="49.86747" lon="2.22257">
        <ele>68.4</ele>
        <time>2022-12-09T15:09:41Z</time>
      </trkpt>
      <trkpt lat="49.86746" lon="2.22257">
        <ele>68.4</ele>
        <time>2022-12-09T15:09:42Z</time>
      </trkpt>
      <trkpt lat="49.86744" lon="2.22257">
        <ele>68.3</ele>
        <time>2022-12-09T15:09:43Z</time>
      </trkpt>
      <trkpt lat="49.86743" lon="2.22257">
        <ele>68.3</ele>
        <time>2022-12-09T15:09:45Z</time>
      </trkpt>
      <trkpt lat="49.86742" lon="2.22258">
        <ele>68.3</ele>
        <time>2022-12-09T15:09:46Z</time>
      </trkpt>
      <trkpt lat="49.86741" lon="2.22258">
        <ele>68.2</ele>
        <time>2022-12-09T15:09:47Z</time>
      </trkpt>
      <trkpt lat="49.8674" lon="2.22259">
        <ele>68.2</ele>
        <time>2022-12-09T15:09:48Z</time>
      </trkpt>
      <trkpt lat="49.86739" lon="2.22259">
        <ele>68.2</ele>
        <time>2022-12-09T15:09:49Z</time>
      </trkpt>
      <trkpt lat="49.86737" lon="2.22259">
        <ele>68.1</ele>
        <time>2022-12-09T15:09:51Z</time>
      </trkpt>
      <trkpt lat="49.86736" lon="2.22259">
        <ele>68.1</ele>
        <time>2022-12-09T15:09:52Z</time>
      </trkpt>
      <trkpt lat="49.86736" lon="2.2226">
        <ele>68.1</ele>
        <time>2022-12-09T15:09:53Z</time>
      </trkpt>
      <trkpt lat="49.86734" lon="2.2226">
        <ele>68.1</ele>
        <time>2022-12-09T15:09:54Z</time>
      </trkpt>
      <trkpt lat="49.86733" lon="2.2226">
        <ele>68</ele>
        <time>2022-12-09T15:09:55Z</time>
      </trkpt>
      <trkpt lat="49.86732" lon="2.2226">
        <ele>68</ele>
        <time>2022-12-09T15:09:56Z</time>
      </trkpt>
      <trkpt lat="49.86731" lon="2.2226">
        <ele>68</ele>
        <time>2022-12-09T15:09:57Z</time>
      </trkpt>
      <trkpt lat="49.8673" lon="2.22261">
        <ele>68</ele>
        <time>2022-12-09T15:09:58Z</time>
      </trkpt>
      <trkpt lat="49.86729" lon="2.22261">
        <ele>67.9</ele>
        <time>2022-12-09T15:09:59Z</time>
      </trkpt>
      <trkpt lat="49.86728" lon="2.22261">
        <ele>67.9</ele>
        <time>2022-12-09T15:10:01Z</time>
      </trkpt>
      <trkpt lat="49.86727" lon="2.22261">
        <ele>67.9</ele>
        <time>2022-12-09T15:10:02Z</time>
      </trkpt>
      <trkpt lat="49.86726" lon="2.22261">
        <ele>67.8</ele>
        <time>2022-12-09T15:10:03Z</time>
      </trkpt>
      <trkpt lat="49.86725" lon="2.22261">
        <ele>67.8</ele>
        <time>2022-12-09T15:10:04Z</time>
      </trkpt>
      <trkpt lat="49.86723" lon="2.22261">
        <ele>67.8</ele>
        <time>2022-12-09T15:10:05Z</time>
      </trkpt>
      <trkpt lat="49.86722" lon="2.22261">
        <ele>67.8</ele>
        <time>2022-12-09T15:10:06Z</time>
      </trkpt>
      <trkpt lat="49.86721" lon="2.22261">
        <ele>67.8</ele>
        <time>2022-12-09T15:10:07Z</time>
      </trkpt>
      <trkpt lat="49.86721" lon="2.22261">
        <ele>67.7</ele>
        <time>2022-12-09T15:10:08Z</time>
      </trkpt>
      <trkpt lat="49.8672" lon="2.22261">
        <ele>67.7</ele>
        <time>2022-12-09T15:10:10Z</time>
      </trkpt>
      <trkpt lat="49.86718" lon="2.22261">
        <ele>67.7</ele>
        <time>2022-12-09T15:10:11Z</time>
      </trkpt>
      <trkpt lat="49.86717" lon="2.22261">
        <ele>67.7</ele>
        <time>2022-12-09T15:10:12Z</time>
      </trkpt>
      <trkpt lat="49.86716" lon="2.22261">
        <ele>67.6</ele>
        <time>2022-12-09T15:10:13Z</time>
      </trkpt>
      <trkpt lat="49.86716" lon="2.22262">
        <ele>67.6</ele>
        <time>2022-12-09T15:10:14Z</time>
      </trkpt>
      <trkpt lat="49.86715" lon="2.22264">
        <ele>67.6</ele>
        <time>2022-12-09T15:10:15Z</time>
      </trkpt>
      <trkpt lat="49.86715" lon="2.22265">
        <ele>67.6</ele>
        <time>2022-12-09T15:10:16Z</time>
      </trkpt>
      <trkpt lat="49.86714" lon="2.22266">
        <ele>67.6</ele>
        <time>2022-12-09T15:10:17Z</time>
      </trkpt>
      <trkpt lat="49.86714" lon="2.22267">
        <ele>67.5</ele>
        <time>2022-12-09T15:10:18Z</time>
      </trkpt>
      <trkpt lat="49.86713" lon="2.22268">
        <ele>67.5</ele>
        <time>2022-12-09T15:10:20Z</time>
      </trkpt>
      <trkpt lat="49.86712" lon="2.22268">
        <ele>67.5</ele>
        <time>2022-12-09T15:10:21Z</time>
      </trkpt>
      <trkpt lat="49.86711" lon="2.22269">
        <ele>67.5</ele>
        <time>2022-12-09T15:10:22Z</time>
      </trkpt>
      <trkpt lat="49.86709" lon="2.22269">
        <ele>67.4</ele>
        <time>2022-12-09T15:10:23Z</time>
      </trkpt>
      <trkpt lat="49.86707" lon="2.22269">
        <ele>67.4</ele>
        <time>2022-12-09T15:10:24Z</time>
      </trkpt>
      <trkpt lat="49.86707" lon="2.22269">
        <ele>67.4</ele>
        <time>2022-12-09T15:10:25Z</time>
      </trkpt>
      <trkpt lat="49.86706" lon="2.22269">
        <ele>67.4</ele>
        <time>2022-12-09T15:10:26Z</time>
      </trkpt>
      <trkpt lat="49.86705" lon="2.22269">
        <ele>67.3</ele>
        <time>2022-12-09T15:10:27Z</time>
      </trkpt>
      <trkpt lat="49.86703" lon="2.22269">
        <ele>67.3</ele>
        <time>2022-12-09T15:10:28Z</time>
      </trkpt>
      <trkpt lat="49.86702" lon="2.22269">
        <ele>67.3</ele>
        <time>2022-12-09T15:10:29Z</time>
      </trkpt>
      <trkpt lat="49.867" lon="2.22269">
        <ele>67.3</ele>
        <time>2022-12-09T15:10:31Z</time>
      </trkpt>
      <trkpt lat="49.867" lon="2.22269">
        <ele>67.2</ele>
        <time>2022-12-09T15:10:32Z</time>
      </trkpt>
      <trkpt lat="49.86699" lon="2.22269">
        <ele>67.2</ele>
        <time>2022-12-09T15:10:33Z</time>
      </trkpt>
      <trkpt lat="49.86697" lon="2.22268">
        <ele>67.2</ele>
        <time>2022-12-09T15:10:34Z</time>
      </trkpt>
      <trkpt lat="49.86696" lon="2.22268">
        <ele>67.2</ele>
        <time>2022-12-09T15:10:35Z</time>
      </trkpt>
      <trkpt lat="49.86695" lon="2.22268">
        <ele>67.1</ele>
        <time>2022-12-09T15:10:36Z</time>
      </trkpt>
      <trkpt lat="49.86694" lon="2.22268">
        <ele>67.1</ele>
        <time>2022-12-09T15:10:37Z</time>
      </trkpt>
      <trkpt lat="49.86693" lon="2.22269">
        <ele>67.1</ele>
        <time>2022-12-09T15:10:38Z</time>
      </trkpt>
      <trkpt lat="49.86692" lon="2.2227">
        <ele>67.1</ele>
        <time>2022-12-09T15:10:39Z</time>
      </trkpt>
      <trkpt lat="49.86691" lon="2.2227">
        <ele>67</ele>
        <time>2022-12-09T15:10:41Z</time>
      </trkpt>
      <trkpt lat="49.8669" lon="2.22271">
        <ele>67</ele>
        <time>2022-12-09T15:10:42Z</time>
      </trkpt>
      <trkpt lat="49.86689" lon="2.22271">
        <ele>67</ele>
        <time>2022-12-09T15:10:43Z</time>
      </trkpt>
      <trkpt lat="49.86688" lon="2.22271">
        <ele>67</ele>
        <time>2022-12-09T15:10:44Z</time>
      </trkpt>
      <trkpt lat="49.86686" lon="2.22271">
        <ele>66.9</ele>
        <time>2022-12-09T15:10:45Z</time>
      </trkpt>
      <trkpt lat="49.86685" lon="2.22271">
        <ele>66.9</ele>
        <time>2022-12-09T15:10:46Z</time>
      </trkpt>
      <trkpt lat="49.86684" lon="2.22271">
        <ele>66.9</ele>
        <time>2022-12-09T15:10:47Z</time>
      </trkpt>
      <trkpt lat="49.86683" lon="2.22271">
        <ele>66.9</ele>
        <time>2022-12-09T15:10:48Z</time>
      </trkpt>
      <trkpt lat="49.86682" lon="2.22271">
        <ele>66.8</ele>
        <time>2022-12-09T15:10:49Z</time>
      </trkpt>
      <trkpt lat="49.86679" lon="2.22271">
        <ele>66.8</ele>
        <time>2022-12-09T15:10:50Z</time>
      </trkpt>
      <trkpt lat="49.86679" lon="2.22271">
        <ele>66.8</ele>
        <time>2022-12-09T15:10:52Z</time>
      </trkpt>
      <trkpt lat="49.86678" lon="2.22271">
        <ele>66.7</ele>
        <time>2022-12-09T15:10:53Z</time>
      </trkpt>
      <trkpt lat="49.86676" lon="2.22271">
        <ele>66.7</ele>
        <time>2022-12-09T15:10:54Z</time>
      </trkpt>
      <trkpt lat="49.86675" lon="2.22271">
        <ele>66.7</ele>
        <time>2022-12-09T15:10:55Z</time>
      </trkpt>
      <trkpt lat="49.86674" lon="2.22271">
        <ele>66.7</ele>
        <time>2022-12-09T15:10:56Z</time>
      </trkpt>
      <trkpt lat="49.86672" lon="2.2227">
        <ele>66.6</ele>
        <time>2022-12-09T15:10:57Z</time>
      </trkpt>
      <trkpt lat="49.86671" lon="2.22269">
        <ele>66.6</ele>
        <time>2022-12-09T15:10:58Z</time>
      </trkpt>
      <trkpt lat="49.86671" lon="2.22269">
        <ele>66.6</ele>
        <time>2022-12-09T15:10:59Z</time>
      </trkpt>
      <trkpt lat="49.86669" lon="2.22268">
        <ele>66.5</ele>
        <time>2022-12-09T15:11:00Z</time>
      </trkpt>
      <trkpt lat="49.86668" lon="2.22268">
        <ele>66.5</ele>
        <time>2022-12-09T15:11:01Z</time>
      </trkpt>
      <trkpt lat="49.86667" lon="2.22267">
        <ele>66.5</ele>
        <time>2022-12-09T15:11:03Z</time>
      </trkpt>
      <trkpt lat="49.86666" lon="2.22267">
        <ele>66.5</ele>
        <time>2022-12-09T15:11:04Z</time>
      </trkpt>
      <trkpt lat="49.86664" lon="2.22267">
        <ele>66.4</ele>
        <time>2022-12-09T15:11:05Z</time>
      </trkpt>
      <trkpt lat="49.86662" lon="2.22268">
        <ele>66.4</ele>
        <time>2022-12-09T15:11:06Z</time>
      </trkpt>
      <trkpt lat="49.86661" lon="2.22268">
        <ele>66.4</ele>
        <time>2022-12-09T15:11:07Z</time>
      </trkpt>
      <trkpt lat="49.86661" lon="2.22269">
        <ele>66.3</ele>
        <time>2022-12-09T15:11:08Z</time>
      </trkpt>
      <trkpt lat="49.86659" lon="2.2227">
        <ele>66.3</ele>
        <time>2022-12-09T15:11:10Z</time>
      </trkpt>
      <trkpt lat="49.86658" lon="2.2227">
        <ele>66.3</ele>
        <time>2022-12-09T15:11:11Z</time>
      </trkpt>
      <trkpt lat="49.86657" lon="2.22271">
        <ele>66.2</ele>
        <time>2022-12-09T15:11:12Z</time>
      </trkpt>
      <trkpt lat="49.86656" lon="2.22272">
        <ele>66.2</ele>
        <time>2022-12-09T15:11:13Z</time>
      </trkpt>
      <trkpt lat="49.86655" lon="2.22272">
        <ele>66.2</ele>
        <time>2022-12-09T15:11:14Z</time>
      </trkpt>
      <trkpt lat="49.86654" lon="2.22272">
        <ele>66.2</ele>
        <time>2022-12-09T15:11:15Z</time>
      </trkpt>
      <trkpt lat="49.86653" lon="2.22273">
        <ele>66.1</ele>
        <time>2022-12-09T15:11:16Z</time>
      </trkpt>
      <trkpt lat="49.86652" lon="2.22273">
        <ele>66.1</ele>
        <time>2022-12-09T15:11:17Z</time>
      </trkpt>
      <trkpt lat="49.8665" lon="2.22273">
        <ele>66.1</ele>
        <time>2022-12-09T15:11:18Z</time>
      </trkpt>
      <trkpt lat="49.86649" lon="2.22274">
        <ele>66.1</ele>
        <time>2022-12-09T15:11:19Z</time>
      </trkpt>
      <trkpt lat="49.86648" lon="2.22274">
        <ele>66</ele>
        <time>2022-12-09T15:11:20Z</time>
      </trkpt>
      <trkpt lat="49.86647" lon="2.22274">
        <ele>66</ele>
        <time>2022-12-09T15:11:21Z</time>
      </trkpt>
      <trkpt lat="49.86646" lon="2.22274">
        <ele>66</ele>
        <time>2022-12-09T15:11:22Z</time>
      </trkpt>
      <trkpt lat="49.86645" lon="2.22274">
        <ele>65.9</ele>
        <time>2022-12-09T15:11:23Z</time>
      </trkpt>
      <trkpt lat="49.86644" lon="2.22274">
        <ele>65.9</ele>
        <time>2022-12-09T15:11:24Z</time>
      </trkpt>
      <trkpt lat="49.86642" lon="2.22275">
        <ele>65.9</ele>
        <time>2022-12-09T15:11:26Z</time>
      </trkpt>
      <trkpt lat="49.86641" lon="2.22275">
        <ele>65.9</ele>
        <time>2022-12-09T15:11:27Z</time>
      </trkpt>
      <trkpt lat="49.8664" lon="2.22275">
        <ele>65.8</ele>
        <time>2022-12-09T15:11:28Z</time>
      </trkpt>
      <trkpt lat="49.86639" lon="2.22275">
        <ele>65.8</ele>
        <time>2022-12-09T15:11:29Z</time>
      </trkpt>
      <trkpt lat="49.86638" lon="2.22275">
        <ele>65.8</ele>
        <time>2022-12-09T15:11:30Z</time>
      </trkpt>
      <trkpt lat="49.86637" lon="2.22275">
        <ele>65.7</ele>
        <time>2022-12-09T15:11:31Z</time>
      </trkpt>
      <trkpt lat="49.86636" lon="2.22276">
        <ele>65.7</ele>
        <time>2022-12-09T15:11:32Z</time>
      </trkpt>
      <trkpt lat="49.86635" lon="2.22276">
        <ele>65.7</ele>
        <time>2022-12-09T15:11:33Z</time>
      </trkpt>
      <trkpt lat="49.86632" lon="2.22276">
        <ele>65.6</ele>
        <time>2022-12-09T15:11:34Z</time>
      </trkpt>
      <trkpt lat="49.86631" lon="2.22276">
        <ele>65.6</ele>
        <time>2022-12-09T15:11:36Z</time>
      </trkpt>
      <trkpt lat="49.8663" lon="2.22276">
        <ele>65.6</ele>
        <time>2022-12-09T15:11:37Z</time>
      </trkpt>
      <trkpt lat="49.86628" lon="2.22276">
        <ele>65.5</ele>
        <time>2022-12-09T15:11:38Z</time>
      </trkpt>
      <trkpt lat="49.86627" lon="2.22276">
        <ele>65.5</ele>
        <time>2022-12-09T15:11:39Z</time>
      </trkpt>
      <trkpt lat="49.86627" lon="2.22276">
        <ele>65.5</ele>
        <time>2022-12-09T15:11:40Z</time>
      </trkpt>
      <trkpt lat="49.86624" lon="2.22276">
        <ele>65.4</ele>
        <time>2022-12-09T15:11:41Z</time>
      </trkpt>
      <trkpt lat="49.86624" lon="2.22276">
        <ele>65.4</ele>
        <time>2022-12-09T15:11:42Z</time>
      </trkpt>
      <trkpt lat="49.86623" lon="2.22277">
        <ele>65.4</ele>
        <time>2022-12-09T15:11:43Z</time>
      </trkpt>
      <trkpt lat="49.86621" lon="2.22277">
        <ele>65.3</ele>
        <time>2022-12-09T15:11:44Z</time>
      </trkpt>
      <trkpt lat="49.8662" lon="2.22278">
        <ele>65.3</ele>
        <time>2022-12-09T15:11:46Z</time>
      </trkpt>
      <trkpt lat="49.86619" lon="2.22278">
        <ele>65.3</ele>
        <time>2022-12-09T15:11:47Z</time>
      </trkpt>
      <trkpt lat="49.86618" lon="2.22278">
        <ele>65.2</ele>
        <time>2022-12-09T15:11:48Z</time>
      </trkpt>
      <trkpt lat="49.86617" lon="2.22279">
        <ele>65.2</ele>
        <time>2022-12-09T15:11:49Z</time>
      </trkpt>
      <trkpt lat="49.86616" lon="2.22279">
        <ele>65.2</ele>
        <time>2022-12-09T15:11:50Z</time>
      </trkpt>
      <trkpt lat="49.86615" lon="2.22279">
        <ele>65.2</ele>
        <time>2022-12-09T15:11:51Z</time>
      </trkpt>
      <trkpt lat="49.86614" lon="2.2228">
        <ele>65.1</ele>
        <time>2022-12-09T15:11:52Z</time>
      </trkpt>
      <trkpt lat="49.86613" lon="2.2228">
        <ele>65.1</ele>
        <time>2022-12-09T15:11:53Z</time>
      </trkpt>
      <trkpt lat="49.86612" lon="2.22281">
        <ele>65.1</ele>
        <time>2022-12-09T15:11:54Z</time>
      </trkpt>
      <trkpt lat="49.8661" lon="2.22281">
        <ele>65</ele>
        <time>2022-12-09T15:11:56Z</time>
      </trkpt>
      <trkpt lat="49.86609" lon="2.22281">
        <ele>65</ele>
        <time>2022-12-09T15:11:57Z</time>
      </trkpt>
      <trkpt lat="49.86608" lon="2.22281">
        <ele>65</ele>
        <time>2022-12-09T15:11:58Z</time>
      </trkpt>
      <trkpt lat="49.86607" lon="2.22282">
        <ele>65</ele>
        <time>2022-12-09T15:11:59Z</time>
      </trkpt>
      <trkpt lat="49.86606" lon="2.22282">
        <ele>64.9</ele>
        <time>2022-12-09T15:12:00Z</time>
      </trkpt>
      <trkpt lat="49.86605" lon="2.22283">
        <ele>64.9</ele>
        <time>2022-12-09T15:12:01Z</time>
      </trkpt>
      <trkpt lat="49.86604" lon="2.22283">
        <ele>64.9</ele>
        <time>2022-12-09T15:12:02Z</time>
      </trkpt>
      <trkpt lat="49.86603" lon="2.22283">
        <ele>64.8</ele>
        <time>2022-12-09T15:12:04Z</time>
      </trkpt>
      <trkpt lat="49.86602" lon="2.22283">
        <ele>64.8</ele>
        <time>2022-12-09T15:12:05Z</time>
      </trkpt>
      <trkpt lat="49.86601" lon="2.22283">
        <ele>64.8</ele>
        <time>2022-12-09T15:12:06Z</time>
      </trkpt>
      <trkpt lat="49.866" lon="2.22283">
        <ele>64.7</ele>
        <time>2022-12-09T15:12:07Z</time>
      </trkpt>
      <trkpt lat="49.86598" lon="2.22283">
        <ele>64.7</ele>
        <time>2022-12-09T15:12:08Z</time>
      </trkpt>
      <trkpt lat="49.86597" lon="2.22283">
        <ele>64.7</ele>
        <time>2022-12-09T15:12:09Z</time>
      </trkpt>
      <trkpt lat="49.86596" lon="2.22284">
        <ele>64.6</ele>
        <time>2022-12-09T15:12:10Z</time>
      </trkpt>
      <trkpt lat="49.86595" lon="2.22284">
        <ele>64.6</ele>
        <time>2022-12-09T15:12:11Z</time>
      </trkpt>
      <trkpt lat="49.86594" lon="2.22284">
        <ele>64.6</ele>
        <time>2022-12-09T15:12:12Z</time>
      </trkpt>
      <trkpt lat="49.86593" lon="2.22285">
        <ele>64.6</ele>
        <time>2022-12-09T15:12:14Z</time>
      </trkpt>
      <trkpt lat="49.86591" lon="2.22285">
        <ele>64.5</ele>
        <time>2022-12-09T15:12:15Z</time>
      </trkpt>
      <trkpt lat="49.8659" lon="2.22286">
        <ele>64.5</ele>
        <time>2022-12-09T15:12:16Z</time>
      </trkpt>
      <trkpt lat="49.86589" lon="2.22286">
        <ele>64.4</ele>
        <time>2022-12-09T15:12:17Z</time>
      </trkpt>
      <trkpt lat="49.86588" lon="2.22286">
        <ele>64.4</ele>
        <time>2022-12-09T15:12:18Z</time>
      </trkpt>
      <trkpt lat="49.86587" lon="2.22287">
        <ele>64.4</ele>
        <time>2022-12-09T15:12:19Z</time>
      </trkpt>
      <trkpt lat="49.86585" lon="2.22287">
        <ele>64.3</ele>
        <time>2022-12-09T15:12:20Z</time>
      </trkpt>
      <trkpt lat="49.86584" lon="2.22287">
        <ele>64.3</ele>
        <time>2022-12-09T15:12:21Z</time>
      </trkpt>
      <trkpt lat="49.86583" lon="2.22287">
        <ele>64.3</ele>
        <time>2022-12-09T15:12:22Z</time>
      </trkpt>
      <trkpt lat="49.86581" lon="2.22288">
        <ele>64.2</ele>
        <time>2022-12-09T15:12:23Z</time>
      </trkpt>
      <trkpt lat="49.8658" lon="2.22288">
        <ele>64.2</ele>
        <time>2022-12-09T15:12:24Z</time>
      </trkpt>
      <trkpt lat="49.86579" lon="2.22288">
        <ele>64.2</ele>
        <time>2022-12-09T15:12:25Z</time>
      </trkpt>
      <trkpt lat="49.86577" lon="2.22288">
        <ele>64.1</ele>
        <time>2022-12-09T15:12:26Z</time>
      </trkpt>
      <trkpt lat="49.86576" lon="2.22288">
        <ele>64.1</ele>
        <time>2022-12-09T15:12:28Z</time>
      </trkpt>
      <trkpt lat="49.86576" lon="2.22288">
        <ele>64.1</ele>
        <time>2022-12-09T15:12:29Z</time>
      </trkpt>
      <trkpt lat="49.86574" lon="2.22288">
        <ele>64</ele>
        <time>2022-12-09T15:12:30Z</time>
      </trkpt>
      <trkpt lat="49.86573" lon="2.22288">
        <ele>64</ele>
        <time>2022-12-09T15:12:31Z</time>
      </trkpt>
      <trkpt lat="49.86572" lon="2.22288">
        <ele>64</ele>
        <time>2022-12-09T15:12:32Z</time>
      </trkpt>
      <trkpt lat="49.8657" lon="2.22288">
        <ele>63.9</ele>
        <time>2022-12-09T15:12:33Z</time>
      </trkpt>
      <trkpt lat="49.86569" lon="2.22288">
        <ele>63.9</ele>
        <time>2022-12-09T15:12:34Z</time>
      </trkpt>
      <trkpt lat="49.86568" lon="2.22289">
        <ele>63.9</ele>
        <time>2022-12-09T15:12:35Z</time>
      </trkpt>
      <trkpt lat="49.86567" lon="2.22289">
        <ele>63.8</ele>
        <time>2022-12-09T15:12:37Z</time>
      </trkpt>
      <trkpt lat="49.86566" lon="2.22289">
        <ele>63.8</ele>
        <time>2022-12-09T15:12:38Z</time>
      </trkpt>
      <trkpt lat="49.86564" lon="2.22289">
        <ele>63.7</ele>
        <time>2022-12-09T15:12:39Z</time>
      </trkpt>
      <trkpt lat="49.86562" lon="2.22289">
        <ele>63.7</ele>
        <time>2022-12-09T15:12:40Z</time>
      </trkpt>
      <trkpt lat="49.8656" lon="2.2229">
        <ele>63.6</ele>
        <time>2022-12-09T15:12:41Z</time>
      </trkpt>
      <trkpt lat="49.8656" lon="2.2229">
        <ele>63.6</ele>
        <time>2022-12-09T15:12:42Z</time>
      </trkpt>
      <trkpt lat="49.86559" lon="2.2229">
        <ele>63.5</ele>
        <time>2022-12-09T15:12:43Z</time>
      </trkpt>
      <trkpt lat="49.86557" lon="2.22291">
        <ele>63.5</ele>
        <time>2022-12-09T15:12:45Z</time>
      </trkpt>
      <trkpt lat="49.86556" lon="2.22291">
        <ele>63.5</ele>
        <time>2022-12-09T15:12:46Z</time>
      </trkpt>
      <trkpt lat="49.86555" lon="2.22291">
        <ele>63.4</ele>
        <time>2022-12-09T15:12:47Z</time>
      </trkpt>
      <trkpt lat="49.86554" lon="2.22291">
        <ele>63.4</ele>
        <time>2022-12-09T15:12:48Z</time>
      </trkpt>
      <trkpt lat="49.86553" lon="2.22291">
        <ele>63.4</ele>
        <time>2022-12-09T15:12:49Z</time>
      </trkpt>
      <trkpt lat="49.86552" lon="2.22291">
        <ele>63.3</ele>
        <time>2022-12-09T15:12:50Z</time>
      </trkpt>
      <trkpt lat="49.8655" lon="2.22292">
        <ele>63.3</ele>
        <time>2022-12-09T15:12:51Z</time>
      </trkpt>
      <trkpt lat="49.86549" lon="2.22292">
        <ele>63.2</ele>
        <time>2022-12-09T15:12:52Z</time>
      </trkpt>
      <trkpt lat="49.86548" lon="2.22292">
        <ele>63.2</ele>
        <time>2022-12-09T15:12:53Z</time>
      </trkpt>
      <trkpt lat="49.86546" lon="2.22293">
        <ele>63.1</ele>
        <time>2022-12-09T15:12:54Z</time>
      </trkpt>
      <trkpt lat="49.86545" lon="2.22293">
        <ele>63.1</ele>
        <time>2022-12-09T15:12:55Z</time>
      </trkpt>
      <trkpt lat="49.86545" lon="2.22294">
        <ele>63.1</ele>
        <time>2022-12-09T15:12:56Z</time>
      </trkpt>
      <trkpt lat="49.86544" lon="2.22294">
        <ele>63.1</ele>
        <time>2022-12-09T15:12:57Z</time>
      </trkpt>
      <trkpt lat="49.86542" lon="2.22295">
        <ele>63</ele>
        <time>2022-12-09T15:12:58Z</time>
      </trkpt>
      <trkpt lat="49.86541" lon="2.22295">
        <ele>63</ele>
        <time>2022-12-09T15:13:00Z</time>
      </trkpt>
      <trkpt lat="49.8654" lon="2.22295">
        <ele>62.9</ele>
        <time>2022-12-09T15:13:01Z</time>
      </trkpt>
      <trkpt lat="49.86539" lon="2.22295">
        <ele>62.9</ele>
        <time>2022-12-09T15:13:02Z</time>
      </trkpt>
      <trkpt lat="49.86538" lon="2.22295">
        <ele>62.9</ele>
        <time>2022-12-09T15:13:03Z</time>
      </trkpt>
      <trkpt lat="49.86536" lon="2.22295">
        <ele>62.8</ele>
        <time>2022-12-09T15:13:04Z</time>
      </trkpt>
      <trkpt lat="49.86535" lon="2.22295">
        <ele>62.8</ele>
        <time>2022-12-09T15:13:05Z</time>
      </trkpt>
      <trkpt lat="49.86534" lon="2.22296">
        <ele>62.7</ele>
        <time>2022-12-09T15:13:06Z</time>
      </trkpt>
      <trkpt lat="49.86533" lon="2.22297">
        <ele>62.7</ele>
        <time>2022-12-09T15:13:07Z</time>
      </trkpt>
      <trkpt lat="49.86533" lon="2.22298">
        <ele>62.7</ele>
        <time>2022-12-09T15:13:08Z</time>
      </trkpt>
      <trkpt lat="49.86531" lon="2.22299">
        <ele>62.6</ele>
        <time>2022-12-09T15:13:10Z</time>
      </trkpt>
      <trkpt lat="49.8653" lon="2.22299">
        <ele>62.6</ele>
        <time>2022-12-09T15:13:11Z</time>
      </trkpt>
      <trkpt lat="49.86528" lon="2.22299">
        <ele>62.5</ele>
        <time>2022-12-09T15:13:12Z</time>
      </trkpt>
      <trkpt lat="49.86527" lon="2.22299">
        <ele>62.5</ele>
        <time>2022-12-09T15:13:13Z</time>
      </trkpt>
      <trkpt lat="49.86526" lon="2.22299">
        <ele>62.4</ele>
        <time>2022-12-09T15:13:14Z</time>
      </trkpt>
      <trkpt lat="49.86524" lon="2.22299">
        <ele>62.4</ele>
        <time>2022-12-09T15:13:15Z</time>
      </trkpt>
      <trkpt lat="49.86522" lon="2.22299">
        <ele>62.3</ele>
        <time>2022-12-09T15:13:17Z</time>
      </trkpt>
      <trkpt lat="49.86521" lon="2.22299">
        <ele>62.3</ele>
        <time>2022-12-09T15:13:18Z</time>
      </trkpt>
      <trkpt lat="49.8652" lon="2.22299">
        <ele>62.2</ele>
        <time>2022-12-09T15:13:19Z</time>
      </trkpt>
      <trkpt lat="49.86518" lon="2.22299">
        <ele>62.2</ele>
        <time>2022-12-09T15:13:21Z</time>
      </trkpt>
      <trkpt lat="49.86517" lon="2.22299">
        <ele>62.1</ele>
        <time>2022-12-09T15:13:22Z</time>
      </trkpt>
      <trkpt lat="49.86516" lon="2.223">
        <ele>62.1</ele>
        <time>2022-12-09T15:13:23Z</time>
      </trkpt>
      <trkpt lat="49.86515" lon="2.223">
        <ele>62.1</ele>
        <time>2022-12-09T15:13:24Z</time>
      </trkpt>
      <trkpt lat="49.86514" lon="2.22301">
        <ele>62</ele>
        <time>2022-12-09T15:13:25Z</time>
      </trkpt>
      <trkpt lat="49.86513" lon="2.22301">
        <ele>62</ele>
        <time>2022-12-09T15:13:26Z</time>
      </trkpt>
      <trkpt lat="49.86512" lon="2.22301">
        <ele>62</ele>
        <time>2022-12-09T15:13:27Z</time>
      </trkpt>
      <trkpt lat="49.8651" lon="2.22301">
        <ele>61.9</ele>
        <time>2022-12-09T15:13:28Z</time>
      </trkpt>
      <trkpt lat="49.86509" lon="2.22301">
        <ele>61.9</ele>
        <time>2022-12-09T15:13:29Z</time>
      </trkpt>
      <trkpt lat="49.86508" lon="2.22301">
        <ele>61.9</ele>
        <time>2022-12-09T15:13:30Z</time>
      </trkpt>
      <trkpt lat="49.86507" lon="2.22301">
        <ele>61.8</ele>
        <time>2022-12-09T15:13:31Z</time>
      </trkpt>
      <trkpt lat="49.86506" lon="2.22302">
        <ele>61.8</ele>
        <time>2022-12-09T15:13:32Z</time>
      </trkpt>
      <trkpt lat="49.86505" lon="2.22302">
        <ele>61.7</ele>
        <time>2022-12-09T15:13:33Z</time>
      </trkpt>
      <trkpt lat="49.86503" lon="2.22302">
        <ele>61.7</ele>
        <time>2022-12-09T15:13:34Z</time>
      </trkpt>
      <trkpt lat="49.86502" lon="2.22303">
        <ele>61.7</ele>
        <time>2022-12-09T15:13:36Z</time>
      </trkpt>
      <trkpt lat="49.865" lon="2.22303">
        <ele>61.6</ele>
        <time>2022-12-09T15:13:37Z</time>
      </trkpt>
      <trkpt lat="49.86499" lon="2.22303">
        <ele>61.6</ele>
        <time>2022-12-09T15:13:38Z</time>
      </trkpt>
      <trkpt lat="49.86497" lon="2.22304">
        <ele>61.5</ele>
        <time>2022-12-09T15:13:39Z</time>
      </trkpt>
      <trkpt lat="49.86496" lon="2.22304">
        <ele>61.5</ele>
        <time>2022-12-09T15:13:40Z</time>
      </trkpt>
      <trkpt lat="49.86495" lon="2.22304">
        <ele>61.5</ele>
        <time>2022-12-09T15:13:41Z</time>
      </trkpt>
      <trkpt lat="49.86494" lon="2.22304">
        <ele>61.4</ele>
        <time>2022-12-09T15:13:42Z</time>
      </trkpt>
      <trkpt lat="49.86493" lon="2.22304">
        <ele>61.4</ele>
        <time>2022-12-09T15:13:44Z</time>
      </trkpt>
      <trkpt lat="49.86492" lon="2.22304">
        <ele>61.3</ele>
        <time>2022-12-09T15:13:45Z</time>
      </trkpt>
      <trkpt lat="49.8649" lon="2.22304">
        <ele>61.3</ele>
        <time>2022-12-09T15:13:46Z</time>
      </trkpt>
      <trkpt lat="49.86489" lon="2.22304">
        <ele>61.3</ele>
        <time>2022-12-09T15:13:47Z</time>
      </trkpt>
      <trkpt lat="49.86488" lon="2.22304">
        <ele>61.2</ele>
        <time>2022-12-09T15:13:48Z</time>
      </trkpt>
      <trkpt lat="49.86487" lon="2.22305">
        <ele>61.2</ele>
        <time>2022-12-09T15:13:49Z</time>
      </trkpt>
      <trkpt lat="49.86485" lon="2.22305">
        <ele>61.2</ele>
        <time>2022-12-09T15:13:51Z</time>
      </trkpt>
      <trkpt lat="49.86484" lon="2.22305">
        <ele>61.1</ele>
        <time>2022-12-09T15:13:52Z</time>
      </trkpt>
      <trkpt lat="49.86482" lon="2.22305">
        <ele>61.1</ele>
        <time>2022-12-09T15:13:53Z</time>
      </trkpt>
      <trkpt lat="49.86481" lon="2.22305">
        <ele>61</ele>
        <time>2022-12-09T15:13:54Z</time>
      </trkpt>
      <trkpt lat="49.8648" lon="2.22306">
        <ele>61</ele>
        <time>2022-12-09T15:13:55Z</time>
      </trkpt>
      <trkpt lat="49.86479" lon="2.22306">
        <ele>61</ele>
        <time>2022-12-09T15:13:56Z</time>
      </trkpt>
      <trkpt lat="49.86478" lon="2.22307">
        <ele>60.9</ele>
        <time>2022-12-09T15:13:58Z</time>
      </trkpt>
      <trkpt lat="49.86477" lon="2.22307">
        <ele>60.9</ele>
        <time>2022-12-09T15:13:59Z</time>
      </trkpt>
      <trkpt lat="49.86476" lon="2.22308">
        <ele>60.9</ele>
        <time>2022-12-09T15:14:00Z</time>
      </trkpt>
      <trkpt lat="49.86474" lon="2.22308">
        <ele>60.8</ele>
        <time>2022-12-09T15:14:01Z</time>
      </trkpt>
      <trkpt lat="49.86473" lon="2.22308">
        <ele>60.8</ele>
        <time>2022-12-09T15:14:02Z</time>
      </trkpt>
      <trkpt lat="49.86472" lon="2.22308">
        <ele>60.8</ele>
        <time>2022-12-09T15:14:03Z</time>
      </trkpt>
      <trkpt lat="49.86471" lon="2.22308">
        <ele>60.7</ele>
        <time>2022-12-09T15:14:04Z</time>
      </trkpt>
      <trkpt lat="49.86469" lon="2.22308">
        <ele>60.7</ele>
        <time>2022-12-09T15:14:06Z</time>
      </trkpt>
      <trkpt lat="49.86468" lon="2.22308">
        <ele>60.6</ele>
        <time>2022-12-09T15:14:07Z</time>
      </trkpt>
      <trkpt lat="49.86466" lon="2.22308">
        <ele>60.6</ele>
        <time>2022-12-09T15:14:08Z</time>
      </trkpt>
      <trkpt lat="49.86465" lon="2.22308">
        <ele>60.6</ele>
        <time>2022-12-09T15:14:09Z</time>
      </trkpt>
      <trkpt lat="49.86464" lon="2.22308">
        <ele>60.5</ele>
        <time>2022-12-09T15:14:10Z</time>
      </trkpt>
      <trkpt lat="49.86463" lon="2.22308">
        <ele>60.5</ele>
        <time>2022-12-09T15:14:11Z</time>
      </trkpt>
      <trkpt lat="49.86462" lon="2.22308">
        <ele>60.5</ele>
        <time>2022-12-09T15:14:12Z</time>
      </trkpt>
      <trkpt lat="49.86461" lon="2.22309">
        <ele>60.4</ele>
        <time>2022-12-09T15:14:14Z</time>
      </trkpt>
      <trkpt lat="49.8646" lon="2.22309">
        <ele>60.4</ele>
        <time>2022-12-09T15:14:15Z</time>
      </trkpt>
      <trkpt lat="49.86458" lon="2.22309">
        <ele>60.4</ele>
        <time>2022-12-09T15:14:16Z</time>
      </trkpt>
      <trkpt lat="49.86457" lon="2.22309">
        <ele>60.3</ele>
        <time>2022-12-09T15:14:17Z</time>
      </trkpt>
      <trkpt lat="49.86456" lon="2.2231">
        <ele>60.3</ele>
        <time>2022-12-09T15:14:18Z</time>
      </trkpt>
      <trkpt lat="49.86454" lon="2.2231">
        <ele>60.3</ele>
        <time>2022-12-09T15:14:19Z</time>
      </trkpt>
      <trkpt lat="49.86453" lon="2.22311">
        <ele>60.3</ele>
        <time>2022-12-09T15:14:20Z</time>
      </trkpt>
      <trkpt lat="49.86452" lon="2.22311">
        <ele>60.2</ele>
        <time>2022-12-09T15:14:21Z</time>
      </trkpt>
      <trkpt lat="49.86451" lon="2.22311">
        <ele>60.2</ele>
        <time>2022-12-09T15:14:22Z</time>
      </trkpt>
      <trkpt lat="49.8645" lon="2.22312">
        <ele>60.2</ele>
        <time>2022-12-09T15:14:23Z</time>
      </trkpt>
      <trkpt lat="49.86449" lon="2.22312">
        <ele>60.2</ele>
        <time>2022-12-09T15:14:24Z</time>
      </trkpt>
      <trkpt lat="49.86449" lon="2.22313">
        <ele>60.1</ele>
        <time>2022-12-09T15:14:25Z</time>
      </trkpt>
      <trkpt lat="49.86447" lon="2.22313">
        <ele>60.1</ele>
        <time>2022-12-09T15:14:27Z</time>
      </trkpt>
      <trkpt lat="49.86446" lon="2.22314">
        <ele>60.1</ele>
        <time>2022-12-09T15:14:28Z</time>
      </trkpt>
      <trkpt lat="49.86444" lon="2.22315">
        <ele>60</ele>
        <time>2022-12-09T15:14:29Z</time>
      </trkpt>
      <trkpt lat="49.86444" lon="2.22315">
        <ele>60</ele>
        <time>2022-12-09T15:14:30Z</time>
      </trkpt>
      <trkpt lat="49.86443" lon="2.22315">
        <ele>60</ele>
        <time>2022-12-09T15:14:31Z</time>
      </trkpt>
      <trkpt lat="49.86441" lon="2.22317">
        <ele>59.9</ele>
        <time>2022-12-09T15:14:32Z</time>
      </trkpt>
      <trkpt lat="49.8644" lon="2.22318">
        <ele>59.9</ele>
        <time>2022-12-09T15:14:33Z</time>
      </trkpt>
      <trkpt lat="49.8644" lon="2.22318">
        <ele>59.9</ele>
        <time>2022-12-09T15:14:34Z</time>
      </trkpt>
      <trkpt lat="49.86439" lon="2.22319">
        <ele>59.9</ele>
        <time>2022-12-09T15:14:35Z</time>
      </trkpt>
      <trkpt lat="49.86438" lon="2.2232">
        <ele>59.8</ele>
        <time>2022-12-09T15:14:36Z</time>
      </trkpt>
      <trkpt lat="49.86437" lon="2.22321">
        <ele>59.8</ele>
        <time>2022-12-09T15:14:38Z</time>
      </trkpt>
      <trkpt lat="49.86436" lon="2.22322">
        <ele>59.8</ele>
        <time>2022-12-09T15:14:39Z</time>
      </trkpt>
      <trkpt lat="49.86436" lon="2.22323">
        <ele>59.7</ele>
        <time>2022-12-09T15:14:40Z</time>
      </trkpt>
      <trkpt lat="49.86435" lon="2.22325">
        <ele>59.6</ele>
        <time>2022-12-09T15:14:41Z</time>
      </trkpt>
      <trkpt lat="49.86434" lon="2.22326">
        <ele>59.6</ele>
        <time>2022-12-09T15:14:42Z</time>
      </trkpt>
      <trkpt lat="49.86434" lon="2.22328">
        <ele>59.6</ele>
        <time>2022-12-09T15:14:43Z</time>
      </trkpt>
      <trkpt lat="49.86433" lon="2.22329">
        <ele>59.5</ele>
        <time>2022-12-09T15:14:44Z</time>
      </trkpt>
      <trkpt lat="49.86433" lon="2.22331">
        <ele>59.5</ele>
        <time>2022-12-09T15:14:45Z</time>
      </trkpt>
      <trkpt lat="49.86432" lon="2.22332">
        <ele>59.4</ele>
        <time>2022-12-09T15:14:46Z</time>
      </trkpt>
      <trkpt lat="49.86431" lon="2.22333">
        <ele>59.4</ele>
        <time>2022-12-09T15:14:47Z</time>
      </trkpt>
      <trkpt lat="49.86431" lon="2.22334">
        <ele>59.4</ele>
        <time>2022-12-09T15:14:48Z</time>
      </trkpt>
      <trkpt lat="49.8643" lon="2.22335">
        <ele>59.3</ele>
        <time>2022-12-09T15:14:50Z</time>
      </trkpt>
      <trkpt lat="49.86429" lon="2.22336">
        <ele>59.3</ele>
        <time>2022-12-09T15:14:51Z</time>
      </trkpt>
      <trkpt lat="49.86428" lon="2.22338">
        <ele>59.3</ele>
        <time>2022-12-09T15:14:52Z</time>
      </trkpt>
      <trkpt lat="49.86428" lon="2.22339">
        <ele>59.1</ele>
        <time>2022-12-09T15:14:53Z</time>
      </trkpt>
      <trkpt lat="49.86428" lon="2.22341">
        <ele>59.1</ele>
        <time>2022-12-09T15:14:54Z</time>
      </trkpt>
      <trkpt lat="49.86428" lon="2.22343">
        <ele>59</ele>
        <time>2022-12-09T15:14:55Z</time>
      </trkpt>
      <trkpt lat="49.86428" lon="2.22344">
        <ele>59</ele>
        <time>2022-12-09T15:14:56Z</time>
      </trkpt>
      <trkpt lat="49.86428" lon="2.22346">
        <ele>58.9</ele>
        <time>2022-12-09T15:14:58Z</time>
      </trkpt>
      <trkpt lat="49.86429" lon="2.22347">
        <ele>58.9</ele>
        <time>2022-12-09T15:14:59Z</time>
      </trkpt>
      <trkpt lat="49.8643" lon="2.22349">
        <ele>58.8</ele>
        <time>2022-12-09T15:15:00Z</time>
      </trkpt>
      <trkpt lat="49.8643" lon="2.2235">
        <ele>58.8</ele>
        <time>2022-12-09T15:15:01Z</time>
      </trkpt>
      <trkpt lat="49.8643" lon="2.22351">
        <ele>58.8</ele>
        <time>2022-12-09T15:15:03Z</time>
      </trkpt>
      <trkpt lat="49.8643" lon="2.22353">
        <ele>58.7</ele>
        <time>2022-12-09T15:15:04Z</time>
      </trkpt>
      <trkpt lat="49.8643" lon="2.22352">
        <ele>58.7</ele>
        <time>2022-12-09T15:15:05Z</time>
      </trkpt>
      <trkpt lat="49.86429" lon="2.22351">
        <ele>58.6</ele>
        <time>2022-12-09T15:15:07Z</time>
      </trkpt>
      <trkpt lat="49.86429" lon="2.2235">
        <ele>58.6</ele>
        <time>2022-12-09T15:15:08Z</time>
      </trkpt>
      <trkpt lat="49.86429" lon="2.22349">
        <ele>58.6</ele>
        <time>2022-12-09T15:15:10Z</time>
      </trkpt>
      <trkpt lat="49.86429" lon="2.22348">
        <ele>58.6</ele>
        <time>2022-12-09T15:15:11Z</time>
      </trkpt>
      <trkpt lat="49.86429" lon="2.22347">
        <ele>58.5</ele>
        <time>2022-12-09T15:15:13Z</time>
      </trkpt>
      <trkpt lat="49.86429" lon="2.22347">
        <ele>58.5</ele>
        <time>2022-12-09T15:15:14Z</time>
      </trkpt>
      <trkpt lat="49.86429" lon="2.22346">
        <ele>58.5</ele>
        <time>2022-12-09T15:15:16Z</time>
      </trkpt>
      <trkpt lat="49.86429" lon="2.22346">
        <ele>58.5</ele>
        <time>2022-12-09T15:15:17Z</time>
      </trkpt>
      <trkpt lat="49.86429" lon="2.22346">
        <ele>58.5</ele>
        <time>2022-12-09T15:15:18Z</time>
      </trkpt>
      <trkpt lat="49.86429" lon="2.22346">
        <ele>58.5</ele>
        <time>2022-12-09T15:15:20Z</time>
      </trkpt>
      <trkpt lat="49.86429" lon="2.22345">
        <ele>58.5</ele>
        <time>2022-12-09T15:15:21Z</time>
      </trkpt>
      <trkpt lat="49.86429" lon="2.22346">
        <ele>58.5</ele>
        <time>2022-12-09T15:15:23Z</time>
      </trkpt>
      <trkpt lat="49.86429" lon="2.22346">
        <ele>58.5</ele>
        <time>2022-12-09T15:15:24Z</time>
      </trkpt>
      <trkpt lat="49.86429" lon="2.22346">
        <ele>58.5</ele>
        <time>2022-12-09T15:15:25Z</time>
      </trkpt>
      <trkpt lat="49.86429" lon="2.22346">
        <ele>58.4</ele>
        <time>2022-12-09T15:15:26Z</time>
      </trkpt>
      <trkpt lat="49.86429" lon="2.22346">
        <ele>58.4</ele>
        <time>2022-12-09T15:15:27Z</time>
      </trkpt>
      <trkpt lat="49.86429" lon="2.22346">
        <ele>58.4</ele>
        <time>2022-12-09T15:15:28Z</time>
      </trkpt>
      <trkpt lat="49.86429" lon="2.22346">
        <ele>58.4</ele>
        <time>2022-12-09T15:15:29Z</time>
      </trkpt>
      <trkpt lat="49.86429" lon="2.22346">
        <ele>58.4</ele>
        <time>2022-12-09T15:15:30Z</time>
      </trkpt>
      <trkpt lat="49.86429" lon="2.22346">
        <ele>58.4</ele>
        <time>2022-12-09T15:15:31Z</time>
      </trkpt>
      <trkpt lat="49.86429" lon="2.22346">
        <ele>58.4</ele>
        <time>2022-12-09T15:15:32Z</time>
      </trkpt>
      <trkpt lat="49.86429" lon="2.22346">
        <ele>58.4</ele>
        <time>2022-12-09T15:15:33Z</time>
      </trkpt>
      <trkpt lat="49.86429" lon="2.22346">
        <ele>58.4</ele>
        <time>2022-12-09T15:15:34Z</time>
      </trkpt>
      <trkpt lat="49.86429" lon="2.22346">
        <ele>58.4</ele>
        <time>2022-12-09T15:15:35Z</time>
      </trkpt>
      <trkpt lat="49.86429" lon="2.22346">
        <ele>58.4</ele>
        <time>2022-12-09T15:15:36Z</time>
      </trkpt>
      <trkpt lat="49.86429" lon="2.22346">
        <ele>58.4</ele>
        <time>2022-12-09T15:15:37Z</time>
      </trkpt>
      <trkpt lat="49.86429" lon="2.22344">
        <ele>58.4</ele>
        <time>2022-12-09T15:15:38Z</time>
      </trkpt>
      <trkpt lat="49.86429" lon="2.22343">
        <ele>58.4</ele>
        <time>2022-12-09T15:15:39Z</time>
      </trkpt>
      <trkpt lat="49.86429" lon="2.22342">
        <ele>58.3</ele>
        <time>2022-12-09T15:15:40Z</time>
      </trkpt>
      <trkpt lat="49.86429" lon="2.22342">
        <ele>58.3</ele>
        <time>2022-12-09T15:15:41Z</time>
      </trkpt>
      <trkpt lat="49.86428" lon="2.22343">
        <ele>58.3</ele>
        <time>2022-12-09T15:15:42Z</time>
      </trkpt>
      <trkpt lat="49.86428" lon="2.22343">
        <ele>58.3</ele>
        <time>2022-12-09T15:15:43Z</time>
      </trkpt>
      <trkpt lat="49.86427" lon="2.22344">
        <ele>58.2</ele>
        <time>2022-12-09T15:15:44Z</time>
      </trkpt>
      <trkpt lat="49.86427" lon="2.22345">
        <ele>58.2</ele>
        <time>2022-12-09T15:15:45Z</time>
      </trkpt>
      <trkpt lat="49.86427" lon="2.22346">
        <ele>58.2</ele>
        <time>2022-12-09T15:15:47Z</time>
      </trkpt>
      <trkpt lat="49.86426" lon="2.22348">
        <ele>58.1</ele>
        <time>2022-12-09T15:15:48Z</time>
      </trkpt>
      <trkpt lat="49.86425" lon="2.22352">
        <ele>58</ele>
        <time>2022-12-09T15:15:49Z</time>
      </trkpt>
      <trkpt lat="49.86425" lon="2.22353">
        <ele>57.9</ele>
        <time>2022-12-09T15:15:50Z</time>
      </trkpt>
      <trkpt lat="49.86424" lon="2.22356">
        <ele>57.8</ele>
        <time>2022-12-09T15:15:51Z</time>
      </trkpt>
      <trkpt lat="49.86423" lon="2.22358">
        <ele>57.8</ele>
        <time>2022-12-09T15:15:52Z</time>
      </trkpt>
      <trkpt lat="49.86422" lon="2.22359">
        <ele>57.7</ele>
        <time>2022-12-09T15:15:54Z</time>
      </trkpt>
      <trkpt lat="49.8642" lon="2.22361">
        <ele>57.6</ele>
        <time>2022-12-09T15:15:55Z</time>
      </trkpt>
      <trkpt lat="49.86419" lon="2.22362">
        <ele>57.5</ele>
        <time>2022-12-09T15:15:56Z</time>
      </trkpt>
      <trkpt lat="49.86418" lon="2.22363">
        <ele>57.5</ele>
        <time>2022-12-09T15:15:57Z</time>
      </trkpt>
      <trkpt lat="49.86416" lon="2.22364">
        <ele>57.4</ele>
        <time>2022-12-09T15:15:58Z</time>
      </trkpt>
      <trkpt lat="49.86415" lon="2.22365">
        <ele>57.3</ele>
        <time>2022-12-09T15:15:59Z</time>
      </trkpt>
      <trkpt lat="49.86414" lon="2.22366">
        <ele>57.3</ele>
        <time>2022-12-09T15:16:00Z</time>
      </trkpt>
      <trkpt lat="49.86413" lon="2.22368">
        <ele>57.2</ele>
        <time>2022-12-09T15:16:02Z</time>
      </trkpt>
      <trkpt lat="49.86412" lon="2.22369">
        <ele>57.1</ele>
        <time>2022-12-09T15:16:03Z</time>
      </trkpt>
      <trkpt lat="49.86411" lon="2.22371">
        <ele>57</ele>
        <time>2022-12-09T15:16:04Z</time>
      </trkpt>
      <trkpt lat="49.8641" lon="2.22373">
        <ele>56.9</ele>
        <time>2022-12-09T15:16:05Z</time>
      </trkpt>
      <trkpt lat="49.86409" lon="2.22374">
        <ele>56.9</ele>
        <time>2022-12-09T15:16:06Z</time>
      </trkpt>
      <trkpt lat="49.86409" lon="2.22376">
        <ele>56.9</ele>
        <time>2022-12-09T15:16:07Z</time>
      </trkpt>
      <trkpt lat="49.86408" lon="2.22377">
        <ele>56.8</ele>
        <time>2022-12-09T15:16:08Z</time>
      </trkpt>
      <trkpt lat="49.86408" lon="2.22379">
        <ele>56.7</ele>
        <time>2022-12-09T15:16:09Z</time>
      </trkpt>
      <trkpt lat="49.86407" lon="2.22381">
        <ele>56.7</ele>
        <time>2022-12-09T15:16:10Z</time>
      </trkpt>
      <trkpt lat="49.86406" lon="2.22383">
        <ele>56.6</ele>
        <time>2022-12-09T15:16:12Z</time>
      </trkpt>
      <trkpt lat="49.86406" lon="2.22384">
        <ele>56.5</ele>
        <time>2022-12-09T15:16:13Z</time>
      </trkpt>
      <trkpt lat="49.86405" lon="2.22385">
        <ele>56.5</ele>
        <time>2022-12-09T15:16:14Z</time>
      </trkpt>
      <trkpt lat="49.86405" lon="2.22387">
        <ele>56.4</ele>
        <time>2022-12-09T15:16:15Z</time>
      </trkpt>
      <trkpt lat="49.86404" lon="2.22388">
        <ele>56.4</ele>
        <time>2022-12-09T15:16:16Z</time>
      </trkpt>
      <trkpt lat="49.86403" lon="2.2239">
        <ele>56.3</ele>
        <time>2022-12-09T15:16:17Z</time>
      </trkpt>
      <trkpt lat="49.86403" lon="2.22391">
        <ele>56.2</ele>
        <time>2022-12-09T15:16:18Z</time>
      </trkpt>
      <trkpt lat="49.86402" lon="2.22393">
        <ele>56.2</ele>
        <time>2022-12-09T15:16:20Z</time>
      </trkpt>
      <trkpt lat="49.86401" lon="2.22394">
        <ele>56.1</ele>
        <time>2022-12-09T15:16:21Z</time>
      </trkpt>
      <trkpt lat="49.86401" lon="2.22396">
        <ele>56.1</ele>
        <time>2022-12-09T15:16:22Z</time>
      </trkpt>
      <trkpt lat="49.864" lon="2.22398">
        <ele>56</ele>
        <time>2022-12-09T15:16:23Z</time>
      </trkpt>
      <trkpt lat="49.86399" lon="2.22399">
        <ele>55.9</ele>
        <time>2022-12-09T15:16:24Z</time>
      </trkpt>
      <trkpt lat="49.86399" lon="2.224">
        <ele>55.9</ele>
        <time>2022-12-09T15:16:25Z</time>
      </trkpt>
      <trkpt lat="49.86398" lon="2.22402">
        <ele>55.8</ele>
        <time>2022-12-09T15:16:26Z</time>
      </trkpt>
      <trkpt lat="49.86397" lon="2.22403">
        <ele>55.7</ele>
        <time>2022-12-09T15:16:27Z</time>
      </trkpt>
      <trkpt lat="49.86397" lon="2.22404">
        <ele>55.7</ele>
        <time>2022-12-09T15:16:28Z</time>
      </trkpt>
      <trkpt lat="49.86396" lon="2.22405">
        <ele>55.7</ele>
        <time>2022-12-09T15:16:29Z</time>
      </trkpt>
      <trkpt lat="49.86395" lon="2.22407">
        <ele>55.6</ele>
        <time>2022-12-09T15:16:31Z</time>
      </trkpt>
      <trkpt lat="49.86394" lon="2.22408">
        <ele>55.5</ele>
        <time>2022-12-09T15:16:32Z</time>
      </trkpt>
      <trkpt lat="49.86393" lon="2.2241">
        <ele>55.4</ele>
        <time>2022-12-09T15:16:33Z</time>
      </trkpt>
      <trkpt lat="49.86392" lon="2.22411">
        <ele>55.4</ele>
        <time>2022-12-09T15:16:34Z</time>
      </trkpt>
      <trkpt lat="49.86391" lon="2.22412">
        <ele>55.3</ele>
        <time>2022-12-09T15:16:35Z</time>
      </trkpt>
      <trkpt lat="49.86389" lon="2.22414">
        <ele>55.2</ele>
        <time>2022-12-09T15:16:36Z</time>
      </trkpt>
      <trkpt lat="49.86388" lon="2.22414">
        <ele>55.1</ele>
        <time>2022-12-09T15:16:38Z</time>
      </trkpt>
      <trkpt lat="49.86387" lon="2.22415">
        <ele>55.1</ele>
        <time>2022-12-09T15:16:39Z</time>
      </trkpt>
      <trkpt lat="49.86386" lon="2.22417">
        <ele>55</ele>
        <time>2022-12-09T15:16:40Z</time>
      </trkpt>
      <trkpt lat="49.86385" lon="2.22418">
        <ele>54.9</ele>
        <time>2022-12-09T15:16:41Z</time>
      </trkpt>
      <trkpt lat="49.86384" lon="2.22419">
        <ele>54.9</ele>
        <time>2022-12-09T15:16:42Z</time>
      </trkpt>
      <trkpt lat="49.86383" lon="2.2242">
        <ele>54.8</ele>
        <time>2022-12-09T15:16:43Z</time>
      </trkpt>
      <trkpt lat="49.86382" lon="2.22421">
        <ele>54.7</ele>
        <time>2022-12-09T15:16:44Z</time>
      </trkpt>
      <trkpt lat="49.86381" lon="2.22422">
        <ele>54.7</ele>
        <time>2022-12-09T15:16:45Z</time>
      </trkpt>
      <trkpt lat="49.8638" lon="2.22424">
        <ele>54.6</ele>
        <time>2022-12-09T15:16:46Z</time>
      </trkpt>
      <trkpt lat="49.86379" lon="2.22425">
        <ele>54.5</ele>
        <time>2022-12-09T15:16:47Z</time>
      </trkpt>
      <trkpt lat="49.86377" lon="2.22426">
        <ele>54.4</ele>
        <time>2022-12-09T15:16:49Z</time>
      </trkpt>
      <trkpt lat="49.86376" lon="2.22427">
        <ele>54.3</ele>
        <time>2022-12-09T15:16:50Z</time>
      </trkpt>
      <trkpt lat="49.86374" lon="2.22429">
        <ele>54.2</ele>
        <time>2022-12-09T15:16:51Z</time>
      </trkpt>
      <trkpt lat="49.86373" lon="2.22429">
        <ele>54.2</ele>
        <time>2022-12-09T15:16:52Z</time>
      </trkpt>
      <trkpt lat="49.86373" lon="2.2243">
        <ele>54.1</ele>
        <time>2022-12-09T15:16:53Z</time>
      </trkpt>
      <trkpt lat="49.86372" lon="2.22431">
        <ele>54</ele>
        <time>2022-12-09T15:16:54Z</time>
      </trkpt>
      <trkpt lat="49.8637" lon="2.22431">
        <ele>54</ele>
        <time>2022-12-09T15:16:55Z</time>
      </trkpt>
      <trkpt lat="49.86369" lon="2.22433">
        <ele>53.9</ele>
        <time>2022-12-09T15:16:57Z</time>
      </trkpt>
      <trkpt lat="49.86367" lon="2.22434">
        <ele>53.8</ele>
        <time>2022-12-09T15:16:58Z</time>
      </trkpt>
      <trkpt lat="49.86366" lon="2.22435">
        <ele>53.7</ele>
        <time>2022-12-09T15:16:59Z</time>
      </trkpt>
      <trkpt lat="49.86363" lon="2.22437">
        <ele>53.5</ele>
        <time>2022-12-09T15:17:00Z</time>
      </trkpt>
      <trkpt lat="49.86362" lon="2.22437">
        <ele>53.5</ele>
        <time>2022-12-09T15:17:01Z</time>
      </trkpt>
      <trkpt lat="49.86359" lon="2.22437">
        <ele>53.3</ele>
        <time>2022-12-09T15:17:03Z</time>
      </trkpt>
      <trkpt lat="49.86358" lon="2.22437">
        <ele>53.3</ele>
        <time>2022-12-09T15:17:04Z</time>
      </trkpt>
      <trkpt lat="49.86357" lon="2.22438">
        <ele>53.2</ele>
        <time>2022-12-09T15:17:05Z</time>
      </trkpt>
      <trkpt lat="49.86355" lon="2.22439">
        <ele>53.1</ele>
        <time>2022-12-09T15:17:06Z</time>
      </trkpt>
      <trkpt lat="49.86353" lon="2.22441">
        <ele>53</ele>
        <time>2022-12-09T15:17:07Z</time>
      </trkpt>
      <trkpt lat="49.86353" lon="2.22442">
        <ele>52.9</ele>
        <time>2022-12-09T15:17:08Z</time>
      </trkpt>
      <trkpt lat="49.86352" lon="2.22442">
        <ele>52.9</ele>
        <time>2022-12-09T15:17:09Z</time>
      </trkpt>
      <trkpt lat="49.86351" lon="2.22444">
        <ele>52.8</ele>
        <time>2022-12-09T15:17:10Z</time>
      </trkpt>
      <trkpt lat="49.8635" lon="2.22445">
        <ele>52.7</ele>
        <time>2022-12-09T15:17:11Z</time>
      </trkpt>
      <trkpt lat="49.86348" lon="2.22447">
        <ele>52.6</ele>
        <time>2022-12-09T15:17:13Z</time>
      </trkpt>
      <trkpt lat="49.86347" lon="2.22448">
        <ele>52.6</ele>
        <time>2022-12-09T15:17:14Z</time>
      </trkpt>
      <trkpt lat="49.86346" lon="2.2245">
        <ele>52.5</ele>
        <time>2022-12-09T15:17:15Z</time>
      </trkpt>
      <trkpt lat="49.86345" lon="2.22452">
        <ele>52.4</ele>
        <time>2022-12-09T15:17:16Z</time>
      </trkpt>
      <trkpt lat="49.86344" lon="2.22454">
        <ele>52.4</ele>
        <time>2022-12-09T15:17:17Z</time>
      </trkpt>
      <trkpt lat="49.86344" lon="2.22455">
        <ele>52.3</ele>
        <time>2022-12-09T15:17:18Z</time>
      </trkpt>
      <trkpt lat="49.86343" lon="2.22458">
        <ele>52.2</ele>
        <time>2022-12-09T15:17:20Z</time>
      </trkpt>
      <trkpt lat="49.86342" lon="2.2246">
        <ele>52.1</ele>
        <time>2022-12-09T15:17:21Z</time>
      </trkpt>
      <trkpt lat="49.86342" lon="2.22462">
        <ele>52.1</ele>
        <time>2022-12-09T15:17:22Z</time>
      </trkpt>
      <trkpt lat="49.86341" lon="2.22465">
        <ele>52</ele>
        <time>2022-12-09T15:17:23Z</time>
      </trkpt>
      <trkpt lat="49.86341" lon="2.22467">
        <ele>51.9</ele>
        <time>2022-12-09T15:17:24Z</time>
      </trkpt>
      <trkpt lat="49.86341" lon="2.22469">
        <ele>51.8</ele>
        <time>2022-12-09T15:17:25Z</time>
      </trkpt>
      <trkpt lat="49.8634" lon="2.22472">
        <ele>51.8</ele>
        <time>2022-12-09T15:17:26Z</time>
      </trkpt>
      <trkpt lat="49.8634" lon="2.22474">
        <ele>51.7</ele>
        <time>2022-12-09T15:17:27Z</time>
      </trkpt>
      <trkpt lat="49.8634" lon="2.22477">
        <ele>51.6</ele>
        <time>2022-12-09T15:17:29Z</time>
      </trkpt>
      <trkpt lat="49.86339" lon="2.22479">
        <ele>51.5</ele>
        <time>2022-12-09T15:17:30Z</time>
      </trkpt>
      <trkpt lat="49.86339" lon="2.22482">
        <ele>51.4</ele>
        <time>2022-12-09T15:17:31Z</time>
      </trkpt>
      <trkpt lat="49.86338" lon="2.22484">
        <ele>51.4</ele>
        <time>2022-12-09T15:17:32Z</time>
      </trkpt>
      <trkpt lat="49.86338" lon="2.22486">
        <ele>51.3</ele>
        <time>2022-12-09T15:17:33Z</time>
      </trkpt>
      <trkpt lat="49.86337" lon="2.22489">
        <ele>51.2</ele>
        <time>2022-12-09T15:17:34Z</time>
      </trkpt>
      <trkpt lat="49.86337" lon="2.22491">
        <ele>51.2</ele>
        <time>2022-12-09T15:17:35Z</time>
      </trkpt>
      <trkpt lat="49.86336" lon="2.22493">
        <ele>51.1</ele>
        <time>2022-12-09T15:17:37Z</time>
      </trkpt>
      <trkpt lat="49.86336" lon="2.22495">
        <ele>51</ele>
        <time>2022-12-09T15:17:38Z</time>
      </trkpt>
      <trkpt lat="49.86335" lon="2.22497">
        <ele>50.9</ele>
        <time>2022-12-09T15:17:39Z</time>
      </trkpt>
      <trkpt lat="49.86334" lon="2.22499">
        <ele>50.9</ele>
        <time>2022-12-09T15:17:40Z</time>
      </trkpt>
      <trkpt lat="49.86333" lon="2.22501">
        <ele>50.8</ele>
        <time>2022-12-09T15:17:41Z</time>
      </trkpt>
      <trkpt lat="49.86332" lon="2.22504">
        <ele>50.7</ele>
        <time>2022-12-09T15:17:42Z</time>
      </trkpt>
      <trkpt lat="49.86332" lon="2.22505">
        <ele>50.7</ele>
        <time>2022-12-09T15:17:43Z</time>
      </trkpt>
      <trkpt lat="49.86331" lon="2.22506">
        <ele>50.6</ele>
        <time>2022-12-09T15:17:44Z</time>
      </trkpt>
      <trkpt lat="49.8633" lon="2.22509">
        <ele>50.5</ele>
        <time>2022-12-09T15:17:45Z</time>
      </trkpt>
      <trkpt lat="49.8633" lon="2.22511">
        <ele>50.5</ele>
        <time>2022-12-09T15:17:47Z</time>
      </trkpt>
      <trkpt lat="49.86329" lon="2.22512">
        <ele>50.4</ele>
        <time>2022-12-09T15:17:48Z</time>
      </trkpt>
      <trkpt lat="49.86328" lon="2.22513">
        <ele>50.4</ele>
        <time>2022-12-09T15:17:49Z</time>
      </trkpt>
      <trkpt lat="49.86328" lon="2.22515">
        <ele>50.3</ele>
        <time>2022-12-09T15:17:50Z</time>
      </trkpt>
      <trkpt lat="49.86327" lon="2.22518">
        <ele>50.2</ele>
        <time>2022-12-09T15:17:51Z</time>
      </trkpt>
      <trkpt lat="49.86326" lon="2.22519">
        <ele>50.2</ele>
        <time>2022-12-09T15:17:52Z</time>
      </trkpt>
      <trkpt lat="49.86326" lon="2.2252">
        <ele>50.1</ele>
        <time>2022-12-09T15:17:53Z</time>
      </trkpt>
      <trkpt lat="49.86325" lon="2.22522">
        <ele>50.1</ele>
        <time>2022-12-09T15:17:55Z</time>
      </trkpt>
      <trkpt lat="49.86325" lon="2.22524">
        <ele>50</ele>
        <time>2022-12-09T15:17:56Z</time>
      </trkpt>
      <trkpt lat="49.86324" lon="2.22526">
        <ele>49.9</ele>
        <time>2022-12-09T15:17:57Z</time>
      </trkpt>
      <trkpt lat="49.86324" lon="2.22528">
        <ele>49.9</ele>
        <time>2022-12-09T15:17:58Z</time>
      </trkpt>
      <trkpt lat="49.86323" lon="2.22529">
        <ele>49.8</ele>
        <time>2022-12-09T15:17:59Z</time>
      </trkpt>
      <trkpt lat="49.86323" lon="2.22531">
        <ele>49.8</ele>
        <time>2022-12-09T15:18:00Z</time>
      </trkpt>
      <trkpt lat="49.86323" lon="2.22532">
        <ele>49.7</ele>
        <time>2022-12-09T15:18:01Z</time>
      </trkpt>
      <trkpt lat="49.86322" lon="2.22534">
        <ele>49.7</ele>
        <time>2022-12-09T15:18:02Z</time>
      </trkpt>
      <trkpt lat="49.86321" lon="2.22537">
        <ele>49.6</ele>
        <time>2022-12-09T15:18:04Z</time>
      </trkpt>
      <trkpt lat="49.86321" lon="2.22538">
        <ele>49.5</ele>
        <time>2022-12-09T15:18:05Z</time>
      </trkpt>
      <trkpt lat="49.86321" lon="2.2254">
        <ele>49.5</ele>
        <time>2022-12-09T15:18:06Z</time>
      </trkpt>
      <trkpt lat="49.8632" lon="2.22541">
        <ele>49.5</ele>
        <time>2022-12-09T15:18:07Z</time>
      </trkpt>
      <trkpt lat="49.8632" lon="2.22543">
        <ele>49.4</ele>
        <time>2022-12-09T15:18:08Z</time>
      </trkpt>
      <trkpt lat="49.8632" lon="2.22545">
        <ele>49.4</ele>
        <time>2022-12-09T15:18:09Z</time>
      </trkpt>
      <trkpt lat="49.86319" lon="2.22546">
        <ele>49.3</ele>
        <time>2022-12-09T15:18:11Z</time>
      </trkpt>
      <trkpt lat="49.86319" lon="2.22548">
        <ele>49.3</ele>
        <time>2022-12-09T15:18:12Z</time>
      </trkpt>
      <trkpt lat="49.86318" lon="2.22549">
        <ele>49.2</ele>
        <time>2022-12-09T15:18:13Z</time>
      </trkpt>
      <trkpt lat="49.86318" lon="2.22551">
        <ele>49.2</ele>
        <time>2022-12-09T15:18:14Z</time>
      </trkpt>
      <trkpt lat="49.86317" lon="2.22552">
        <ele>49.1</ele>
        <time>2022-12-09T15:18:15Z</time>
      </trkpt>
      <trkpt lat="49.86316" lon="2.22553">
        <ele>49.1</ele>
        <time>2022-12-09T15:18:16Z</time>
      </trkpt>
      <trkpt lat="49.86316" lon="2.22555">
        <ele>49</ele>
        <time>2022-12-09T15:18:17Z</time>
      </trkpt>
      <trkpt lat="49.86315" lon="2.22556">
        <ele>49</ele>
        <time>2022-12-09T15:18:18Z</time>
      </trkpt>
      <trkpt lat="49.86313" lon="2.22557">
        <ele>48.9</ele>
        <time>2022-12-09T15:18:20Z</time>
      </trkpt>
      <trkpt lat="49.86313" lon="2.22558">
        <ele>48.9</ele>
        <time>2022-12-09T15:18:21Z</time>
      </trkpt>
      <trkpt lat="49.86312" lon="2.22559">
        <ele>48.8</ele>
        <time>2022-12-09T15:18:22Z</time>
      </trkpt>
      <trkpt lat="49.86311" lon="2.2256">
        <ele>48.8</ele>
        <time>2022-12-09T15:18:23Z</time>
      </trkpt>
      <trkpt lat="49.86309" lon="2.22561">
        <ele>48.7</ele>
        <time>2022-12-09T15:18:24Z</time>
      </trkpt>
      <trkpt lat="49.86308" lon="2.22561">
        <ele>48.7</ele>
        <time>2022-12-09T15:18:25Z</time>
      </trkpt>
      <trkpt lat="49.86307" lon="2.22562">
        <ele>48.6</ele>
        <time>2022-12-09T15:18:26Z</time>
      </trkpt>
      <trkpt lat="49.86306" lon="2.22563">
        <ele>48.5</ele>
        <time>2022-12-09T15:18:27Z</time>
      </trkpt>
      <trkpt lat="49.86305" lon="2.22564">
        <ele>48.5</ele>
        <time>2022-12-09T15:18:29Z</time>
      </trkpt>
      <trkpt lat="49.86304" lon="2.22564">
        <ele>48.5</ele>
        <time>2022-12-09T15:18:30Z</time>
      </trkpt>
      <trkpt lat="49.86303" lon="2.22565">
        <ele>48.4</ele>
        <time>2022-12-09T15:18:31Z</time>
      </trkpt>
      <trkpt lat="49.86301" lon="2.22566">
        <ele>48.3</ele>
        <time>2022-12-09T15:18:32Z</time>
      </trkpt>
      <trkpt lat="49.86301" lon="2.22567">
        <ele>48.3</ele>
        <time>2022-12-09T15:18:33Z</time>
      </trkpt>
      <trkpt lat="49.863" lon="2.22568">
        <ele>48.2</ele>
        <time>2022-12-09T15:18:34Z</time>
      </trkpt>
      <trkpt lat="49.86299" lon="2.2257">
        <ele>48.2</ele>
        <time>2022-12-09T15:18:35Z</time>
      </trkpt>
      <trkpt lat="49.86298" lon="2.22571">
        <ele>48.1</ele>
        <time>2022-12-09T15:18:36Z</time>
      </trkpt>
      <trkpt lat="49.86297" lon="2.22573">
        <ele>48.1</ele>
        <time>2022-12-09T15:18:37Z</time>
      </trkpt>
      <trkpt lat="49.86296" lon="2.22575">
        <ele>48</ele>
        <time>2022-12-09T15:18:39Z</time>
      </trkpt>
      <trkpt lat="49.86294" lon="2.22577">
        <ele>47.9</ele>
        <time>2022-12-09T15:18:40Z</time>
      </trkpt>
      <trkpt lat="49.86293" lon="2.22578">
        <ele>47.9</ele>
        <time>2022-12-09T15:18:41Z</time>
      </trkpt>
      <trkpt lat="49.86293" lon="2.22578">
        <ele>47.9</ele>
        <time>2022-12-09T15:18:42Z</time>
      </trkpt>
      <trkpt lat="49.86292" lon="2.22579">
        <ele>47.8</ele>
        <time>2022-12-09T15:18:43Z</time>
      </trkpt>
      <trkpt lat="49.86291" lon="2.2258">
        <ele>47.8</ele>
        <time>2022-12-09T15:18:44Z</time>
      </trkpt>
      <trkpt lat="49.86289" lon="2.22582">
        <ele>47.7</ele>
        <time>2022-12-09T15:18:46Z</time>
      </trkpt>
      <trkpt lat="49.86288" lon="2.22584">
        <ele>47.6</ele>
        <time>2022-12-09T15:18:47Z</time>
      </trkpt>
      <trkpt lat="49.86287" lon="2.22585">
        <ele>47.6</ele>
        <time>2022-12-09T15:18:48Z</time>
      </trkpt>
      <trkpt lat="49.86287" lon="2.22586">
        <ele>47.6</ele>
        <time>2022-12-09T15:18:49Z</time>
      </trkpt>
      <trkpt lat="49.86286" lon="2.22588">
        <ele>47.5</ele>
        <time>2022-12-09T15:18:50Z</time>
      </trkpt>
      <trkpt lat="49.86285" lon="2.22589">
        <ele>47.5</ele>
        <time>2022-12-09T15:18:51Z</time>
      </trkpt>
      <trkpt lat="49.86284" lon="2.22589">
        <ele>47.4</ele>
        <time>2022-12-09T15:18:52Z</time>
      </trkpt>
      <trkpt lat="49.86283" lon="2.2259">
        <ele>47.4</ele>
        <time>2022-12-09T15:18:53Z</time>
      </trkpt>
      <trkpt lat="49.86282" lon="2.2259">
        <ele>47.4</ele>
        <time>2022-12-09T15:18:54Z</time>
      </trkpt>
      <trkpt lat="49.86281" lon="2.22591">
        <ele>47.3</ele>
        <time>2022-12-09T15:18:55Z</time>
      </trkpt>
      <trkpt lat="49.86279" lon="2.22592">
        <ele>47.2</ele>
        <time>2022-12-09T15:18:56Z</time>
      </trkpt>
      <trkpt lat="49.86278" lon="2.22593">
        <ele>47.2</ele>
        <time>2022-12-09T15:18:57Z</time>
      </trkpt>
      <trkpt lat="49.86277" lon="2.22593">
        <ele>47.1</ele>
        <time>2022-12-09T15:18:59Z</time>
      </trkpt>
      <trkpt lat="49.86275" lon="2.22593">
        <ele>47.1</ele>
        <time>2022-12-09T15:19:00Z</time>
      </trkpt>
      <trkpt lat="49.86273" lon="2.22593">
        <ele>47</ele>
        <time>2022-12-09T15:19:01Z</time>
      </trkpt>
      <trkpt lat="49.86272" lon="2.22592">
        <ele>47</ele>
        <time>2022-12-09T15:19:02Z</time>
      </trkpt>
      <trkpt lat="49.86272" lon="2.22592">
        <ele>46.9</ele>
        <time>2022-12-09T15:19:03Z</time>
      </trkpt>
      <trkpt lat="49.86271" lon="2.22591">
        <ele>46.9</ele>
        <time>2022-12-09T15:19:04Z</time>
      </trkpt>
      <trkpt lat="49.86269" lon="2.22591">
        <ele>46.9</ele>
        <time>2022-12-09T15:19:05Z</time>
      </trkpt>
      <trkpt lat="49.86267" lon="2.2259">
        <ele>46.8</ele>
        <time>2022-12-09T15:19:07Z</time>
      </trkpt>
      <trkpt lat="49.86266" lon="2.2259">
        <ele>46.7</ele>
        <time>2022-12-09T15:19:08Z</time>
      </trkpt>
      <trkpt lat="49.86265" lon="2.2259">
        <ele>46.7</ele>
        <time>2022-12-09T15:19:09Z</time>
      </trkpt>
      <trkpt lat="49.86264" lon="2.22589">
        <ele>46.7</ele>
        <time>2022-12-09T15:19:10Z</time>
      </trkpt>
      <trkpt lat="49.86263" lon="2.22588">
        <ele>46.6</ele>
        <time>2022-12-09T15:19:11Z</time>
      </trkpt>
      <trkpt lat="49.86261" lon="2.22587">
        <ele>46.6</ele>
        <time>2022-12-09T15:19:12Z</time>
      </trkpt>
      <trkpt lat="49.8626" lon="2.22586">
        <ele>46.5</ele>
        <time>2022-12-09T15:19:13Z</time>
      </trkpt>
      <trkpt lat="49.86259" lon="2.22585">
        <ele>46.5</ele>
        <time>2022-12-09T15:19:14Z</time>
      </trkpt>
      <trkpt lat="49.86258" lon="2.22584">
        <ele>46.4</ele>
        <time>2022-12-09T15:19:15Z</time>
      </trkpt>
      <trkpt lat="49.86256" lon="2.22583">
        <ele>46.4</ele>
        <time>2022-12-09T15:19:17Z</time>
      </trkpt>
      <trkpt lat="49.86255" lon="2.22583">
        <ele>46.3</ele>
        <time>2022-12-09T15:19:18Z</time>
      </trkpt>
      <trkpt lat="49.86254" lon="2.22582">
        <ele>46.3</ele>
        <time>2022-12-09T15:19:19Z</time>
      </trkpt>
      <trkpt lat="49.86252" lon="2.22581">
        <ele>46.2</ele>
        <time>2022-12-09T15:19:20Z</time>
      </trkpt>
      <trkpt lat="49.86251" lon="2.22579">
        <ele>46.2</ele>
        <time>2022-12-09T15:19:21Z</time>
      </trkpt>
      <trkpt lat="49.8625" lon="2.22579">
        <ele>46.2</ele>
        <time>2022-12-09T15:19:23Z</time>
      </trkpt>
      <trkpt lat="49.86249" lon="2.22578">
        <ele>46.1</ele>
        <time>2022-12-09T15:19:24Z</time>
      </trkpt>
      <trkpt lat="49.86248" lon="2.22578">
        <ele>46.1</ele>
        <time>2022-12-09T15:19:25Z</time>
      </trkpt>
      <trkpt lat="49.86246" lon="2.22577">
        <ele>46</ele>
        <time>2022-12-09T15:19:26Z</time>
      </trkpt>
      <trkpt lat="49.86245" lon="2.22577">
        <ele>46</ele>
        <time>2022-12-09T15:19:27Z</time>
      </trkpt>
      <trkpt lat="49.86244" lon="2.22576">
        <ele>46</ele>
        <time>2022-12-09T15:19:28Z</time>
      </trkpt>
      <trkpt lat="49.86243" lon="2.22576">
        <ele>45.9</ele>
        <time>2022-12-09T15:19:30Z</time>
      </trkpt>
      <trkpt lat="49.86241" lon="2.22576">
        <ele>45.9</ele>
        <time>2022-12-09T15:19:31Z</time>
      </trkpt>
      <trkpt lat="49.8624" lon="2.22576">
        <ele>45.8</ele>
        <time>2022-12-09T15:19:32Z</time>
      </trkpt>
      <trkpt lat="49.86238" lon="2.22577">
        <ele>45.8</ele>
        <time>2022-12-09T15:19:33Z</time>
      </trkpt>
      <trkpt lat="49.86237" lon="2.22577">
        <ele>45.8</ele>
        <time>2022-12-09T15:19:34Z</time>
      </trkpt>
      <trkpt lat="49.86236" lon="2.22577">
        <ele>45.7</ele>
        <time>2022-12-09T15:19:35Z</time>
      </trkpt>
      <trkpt lat="49.86235" lon="2.22578">
        <ele>45.7</ele>
        <time>2022-12-09T15:19:36Z</time>
      </trkpt>
      <trkpt lat="49.86233" lon="2.22578">
        <ele>45.7</ele>
        <time>2022-12-09T15:19:38Z</time>
      </trkpt>
      <trkpt lat="49.86232" lon="2.22579">
        <ele>45.6</ele>
        <time>2022-12-09T15:19:39Z</time>
      </trkpt>
      <trkpt lat="49.86231" lon="2.22579">
        <ele>45.6</ele>
        <time>2022-12-09T15:19:40Z</time>
      </trkpt>
      <trkpt lat="49.86229" lon="2.2258">
        <ele>45.5</ele>
        <time>2022-12-09T15:19:41Z</time>
      </trkpt>
      <trkpt lat="49.86228" lon="2.22581">
        <ele>45.5</ele>
        <time>2022-12-09T15:19:42Z</time>
      </trkpt>
      <trkpt lat="49.86227" lon="2.22581">
        <ele>45.5</ele>
        <time>2022-12-09T15:19:43Z</time>
      </trkpt>
      <trkpt lat="49.86226" lon="2.22582">
        <ele>45.5</ele>
        <time>2022-12-09T15:19:44Z</time>
      </trkpt>
      <trkpt lat="49.86224" lon="2.22583">
        <ele>45.5</ele>
        <time>2022-12-09T15:19:46Z</time>
      </trkpt>
      <trkpt lat="49.86223" lon="2.22584">
        <ele>45.5</ele>
        <time>2022-12-09T15:19:47Z</time>
      </trkpt>
      <trkpt lat="49.86222" lon="2.22586">
        <ele>45.4</ele>
        <time>2022-12-09T15:19:48Z</time>
      </trkpt>
      <trkpt lat="49.86221" lon="2.22588">
        <ele>45.4</ele>
        <time>2022-12-09T15:19:49Z</time>
      </trkpt>
      <trkpt lat="49.86221" lon="2.2259">
        <ele>45.4</ele>
        <time>2022-12-09T15:19:50Z</time>
      </trkpt>
      <trkpt lat="49.8622" lon="2.22592">
        <ele>45.4</ele>
        <time>2022-12-09T15:19:51Z</time>
      </trkpt>
      <trkpt lat="49.8622" lon="2.22594">
        <ele>45.4</ele>
        <time>2022-12-09T15:19:52Z</time>
      </trkpt>
      <trkpt lat="49.86219" lon="2.22597">
        <ele>45.4</ele>
        <time>2022-12-09T15:19:54Z</time>
      </trkpt>
      <trkpt lat="49.86218" lon="2.22599">
        <ele>45.4</ele>
        <time>2022-12-09T15:19:55Z</time>
      </trkpt>
      <trkpt lat="49.86217" lon="2.226">
        <ele>45.4</ele>
        <time>2022-12-09T15:19:56Z</time>
      </trkpt>
      <trkpt lat="49.86216" lon="2.22602">
        <ele>45.3</ele>
        <time>2022-12-09T15:19:57Z</time>
      </trkpt>
      <trkpt lat="49.86215" lon="2.22604">
        <ele>45.3</ele>
        <time>2022-12-09T15:19:58Z</time>
      </trkpt>
      <trkpt lat="49.86214" lon="2.22605">
        <ele>45.3</ele>
        <time>2022-12-09T15:19:59Z</time>
      </trkpt>
      <trkpt lat="49.86213" lon="2.22607">
        <ele>45.3</ele>
        <time>2022-12-09T15:20:00Z</time>
      </trkpt>
      <trkpt lat="49.86213" lon="2.22609">
        <ele>45.3</ele>
        <time>2022-12-09T15:20:02Z</time>
      </trkpt>
      <trkpt lat="49.86213" lon="2.22611">
        <ele>45.2</ele>
        <time>2022-12-09T15:20:03Z</time>
      </trkpt>
      <trkpt lat="49.86212" lon="2.22613">
        <ele>45.2</ele>
        <time>2022-12-09T15:20:04Z</time>
      </trkpt>
      <trkpt lat="49.86212" lon="2.22614">
        <ele>45.2</ele>
        <time>2022-12-09T15:20:05Z</time>
      </trkpt>
      <trkpt lat="49.86212" lon="2.22615">
        <ele>45.1</ele>
        <time>2022-12-09T15:20:06Z</time>
      </trkpt>
      <trkpt lat="49.86211" lon="2.22617">
        <ele>45.1</ele>
        <time>2022-12-09T15:20:07Z</time>
      </trkpt>
      <trkpt lat="49.8621" lon="2.22618">
        <ele>45</ele>
        <time>2022-12-09T15:20:08Z</time>
      </trkpt>
      <trkpt lat="49.86209" lon="2.2262">
        <ele>45</ele>
        <time>2022-12-09T15:20:10Z</time>
      </trkpt>
      <trkpt lat="49.86209" lon="2.22621">
        <ele>45</ele>
        <time>2022-12-09T15:20:11Z</time>
      </trkpt>
      <trkpt lat="49.86207" lon="2.22624">
        <ele>44.9</ele>
        <time>2022-12-09T15:20:12Z</time>
      </trkpt>
      <trkpt lat="49.86206" lon="2.22624">
        <ele>44.9</ele>
        <time>2022-12-09T15:20:13Z</time>
      </trkpt>
      <trkpt lat="49.86206" lon="2.22625">
        <ele>44.9</ele>
        <time>2022-12-09T15:20:14Z</time>
      </trkpt>
      <trkpt lat="49.86205" lon="2.22628">
        <ele>44.8</ele>
        <time>2022-12-09T15:20:15Z</time>
      </trkpt>
      <trkpt lat="49.86205" lon="2.22629">
        <ele>44.8</ele>
        <time>2022-12-09T15:20:16Z</time>
      </trkpt>
      <trkpt lat="49.86204" lon="2.22631">
        <ele>44.8</ele>
        <time>2022-12-09T15:20:17Z</time>
      </trkpt>
      <trkpt lat="49.86204" lon="2.22632">
        <ele>44.7</ele>
        <time>2022-12-09T15:20:18Z</time>
      </trkpt>
      <trkpt lat="49.86204" lon="2.22634">
        <ele>44.7</ele>
        <time>2022-12-09T15:20:19Z</time>
      </trkpt>
      <trkpt lat="49.86204" lon="2.22636">
        <ele>44.7</ele>
        <time>2022-12-09T15:20:20Z</time>
      </trkpt>
      <trkpt lat="49.86204" lon="2.22639">
        <ele>44.6</ele>
        <time>2022-12-09T15:20:22Z</time>
      </trkpt>
      <trkpt lat="49.86204" lon="2.2264">
        <ele>44.6</ele>
        <time>2022-12-09T15:20:23Z</time>
      </trkpt>
      <trkpt lat="49.86204" lon="2.22641">
        <ele>44.6</ele>
        <time>2022-12-09T15:20:24Z</time>
      </trkpt>
      <trkpt lat="49.86205" lon="2.22644">
        <ele>44.5</ele>
        <time>2022-12-09T15:20:25Z</time>
      </trkpt>
      <trkpt lat="49.86205" lon="2.22645">
        <ele>44.5</ele>
        <time>2022-12-09T15:20:26Z</time>
      </trkpt>
      <trkpt lat="49.86206" lon="2.22646">
        <ele>44.5</ele>
        <time>2022-12-09T15:20:27Z</time>
      </trkpt>
      <trkpt lat="49.86208" lon="2.22647">
        <ele>44.5</ele>
        <time>2022-12-09T15:20:28Z</time>
      </trkpt>
      <trkpt lat="49.86209" lon="2.22647">
        <ele>44.5</ele>
        <time>2022-12-09T15:20:30Z</time>
      </trkpt>
      <trkpt lat="49.86209" lon="2.22646">
        <ele>44.5</ele>
        <time>2022-12-09T15:20:31Z</time>
      </trkpt>
      <trkpt lat="49.8621" lon="2.22644">
        <ele>44.5</ele>
        <time>2022-12-09T15:20:33Z</time>
      </trkpt>
      <trkpt lat="49.8621" lon="2.22643">
        <ele>44.5</ele>
        <time>2022-12-09T15:20:34Z</time>
      </trkpt>
      <trkpt lat="49.8621" lon="2.22642">
        <ele>44.5</ele>
        <time>2022-12-09T15:20:35Z</time>
      </trkpt>
      <trkpt lat="49.86211" lon="2.22642">
        <ele>44.5</ele>
        <time>2022-12-09T15:20:37Z</time>
      </trkpt>
      <trkpt lat="49.86212" lon="2.22643">
        <ele>44.5</ele>
        <time>2022-12-09T15:20:38Z</time>
      </trkpt>
      <trkpt lat="49.86212" lon="2.22644">
        <ele>44.5</ele>
        <time>2022-12-09T15:20:39Z</time>
      </trkpt>
      <trkpt lat="49.86213" lon="2.22645">
        <ele>44.5</ele>
        <time>2022-12-09T15:20:40Z</time>
      </trkpt>
      <trkpt lat="49.86215" lon="2.22647">
        <ele>44.5</ele>
        <time>2022-12-09T15:20:41Z</time>
      </trkpt>
      <trkpt lat="49.86216" lon="2.22648">
        <ele>44.5</ele>
        <time>2022-12-09T15:20:42Z</time>
      </trkpt>
      <trkpt lat="49.86216" lon="2.22649">
        <ele>44.5</ele>
        <time>2022-12-09T15:20:43Z</time>
      </trkpt>
      <trkpt lat="49.86218" lon="2.22652">
        <ele>44.5</ele>
        <time>2022-12-09T15:20:44Z</time>
      </trkpt>
      <trkpt lat="49.86219" lon="2.22653">
        <ele>44.5</ele>
        <time>2022-12-09T15:20:46Z</time>
      </trkpt>
      <trkpt lat="49.8622" lon="2.22654">
        <ele>44.5</ele>
        <time>2022-12-09T15:20:47Z</time>
      </trkpt>
      <trkpt lat="49.86221" lon="2.22655">
        <ele>44.5</ele>
        <time>2022-12-09T15:20:48Z</time>
      </trkpt>
      <trkpt lat="49.86222" lon="2.22657">
        <ele>44.5</ele>
        <time>2022-12-09T15:20:49Z</time>
      </trkpt>
      <trkpt lat="49.86223" lon="2.22658">
        <ele>44.5</ele>
        <time>2022-12-09T15:20:50Z</time>
      </trkpt>
      <trkpt lat="49.86223" lon="2.22659">
        <ele>44.5</ele>
        <time>2022-12-09T15:20:51Z</time>
      </trkpt>
      <trkpt lat="49.86224" lon="2.2266">
        <ele>44.5</ele>
        <time>2022-12-09T15:20:52Z</time>
      </trkpt>
      <trkpt lat="49.86225" lon="2.22661">
        <ele>44.5</ele>
        <time>2022-12-09T15:20:54Z</time>
      </trkpt>
      <trkpt lat="49.86226" lon="2.22662">
        <ele>44.5</ele>
        <time>2022-12-09T15:20:55Z</time>
      </trkpt>
      <trkpt lat="49.86227" lon="2.22664">
        <ele>44.5</ele>
        <time>2022-12-09T15:20:56Z</time>
      </trkpt>
      <trkpt lat="49.86228" lon="2.22665">
        <ele>44.5</ele>
        <time>2022-12-09T15:20:57Z</time>
      </trkpt>
      <trkpt lat="49.86229" lon="2.22666">
        <ele>44.5</ele>
        <time>2022-12-09T15:20:58Z</time>
      </trkpt>
      <trkpt lat="49.8623" lon="2.22667">
        <ele>44.5</ele>
        <time>2022-12-09T15:20:59Z</time>
      </trkpt>
      <trkpt lat="49.86231" lon="2.22668">
        <ele>44.5</ele>
        <time>2022-12-09T15:21:00Z</time>
      </trkpt>
      <trkpt lat="49.86231" lon="2.2267">
        <ele>44.5</ele>
        <time>2022-12-09T15:21:01Z</time>
      </trkpt>
      <trkpt lat="49.86232" lon="2.22671">
        <ele>44.5</ele>
        <time>2022-12-09T15:21:02Z</time>
      </trkpt>
      <trkpt lat="49.86233" lon="2.22672">
        <ele>44.5</ele>
        <time>2022-12-09T15:21:04Z</time>
      </trkpt>
      <trkpt lat="49.86233" lon="2.22674">
        <ele>44.5</ele>
        <time>2022-12-09T15:21:05Z</time>
      </trkpt>
      <trkpt lat="49.86234" lon="2.22676">
        <ele>44.5</ele>
        <time>2022-12-09T15:21:06Z</time>
      </trkpt>
      <trkpt lat="49.86235" lon="2.22679">
        <ele>44.5</ele>
        <time>2022-12-09T15:21:07Z</time>
      </trkpt>
      <trkpt lat="49.86235" lon="2.2268">
        <ele>44.5</ele>
        <time>2022-12-09T15:21:08Z</time>
      </trkpt>
      <trkpt lat="49.86236" lon="2.22681">
        <ele>44.5</ele>
        <time>2022-12-09T15:21:09Z</time>
      </trkpt>
      <trkpt lat="49.86237" lon="2.22682">
        <ele>44.5</ele>
        <time>2022-12-09T15:21:11Z</time>
      </trkpt>
      <trkpt lat="49.86238" lon="2.22682">
        <ele>44.5</ele>
        <time>2022-12-09T15:21:12Z</time>
      </trkpt>
      <trkpt lat="49.86238" lon="2.22681">
        <ele>44.5</ele>
        <time>2022-12-09T15:21:14Z</time>
      </trkpt>
      <trkpt lat="49.86238" lon="2.22679">
        <ele>44.5</ele>
        <time>2022-12-09T15:21:15Z</time>
      </trkpt>
      <trkpt lat="49.86239" lon="2.22679">
        <ele>44.5</ele>
        <time>2022-12-09T15:21:17Z</time>
      </trkpt>
      <trkpt lat="49.86239" lon="2.22678">
        <ele>44.5</ele>
        <time>2022-12-09T15:21:18Z</time>
      </trkpt>
      <trkpt lat="49.86239" lon="2.22679">
        <ele>44.5</ele>
        <time>2022-12-09T15:21:19Z</time>
      </trkpt>
      <trkpt lat="49.86239" lon="2.22679">
        <ele>44.5</ele>
        <time>2022-12-09T15:21:21Z</time>
      </trkpt>
      <trkpt lat="49.8624" lon="2.2268">
        <ele>44.5</ele>
        <time>2022-12-09T15:21:22Z</time>
      </trkpt>
      <trkpt lat="49.8624" lon="2.22681">
        <ele>44.5</ele>
        <time>2022-12-09T15:21:23Z</time>
      </trkpt>
      <trkpt lat="49.86241" lon="2.22682">
        <ele>44.5</ele>
        <time>2022-12-09T15:21:24Z</time>
      </trkpt>
      <trkpt lat="49.86242" lon="2.22683">
        <ele>44.5</ele>
        <time>2022-12-09T15:21:25Z</time>
      </trkpt>
      <trkpt lat="49.86243" lon="2.22684">
        <ele>44.5</ele>
        <time>2022-12-09T15:21:26Z</time>
      </trkpt>
      <trkpt lat="49.86245" lon="2.22685">
        <ele>44.5</ele>
        <time>2022-12-09T15:21:28Z</time>
      </trkpt>
      <trkpt lat="49.86246" lon="2.22685">
        <ele>44.5</ele>
        <time>2022-12-09T15:21:29Z</time>
      </trkpt>
      <trkpt lat="49.86246" lon="2.22685">
        <ele>44.5</ele>
        <time>2022-12-09T15:21:30Z</time>
      </trkpt>
      <trkpt lat="49.86246" lon="2.22685">
        <ele>44.5</ele>
        <time>2022-12-09T15:21:32Z</time>
      </trkpt>
      <trkpt lat="49.86246" lon="2.22683">
        <ele>44.5</ele>
        <time>2022-12-09T15:21:33Z</time>
      </trkpt>
      <trkpt lat="49.86245" lon="2.22683">
        <ele>44.5</ele>
        <time>2022-12-09T15:21:34Z</time>
      </trkpt>
      <trkpt lat="49.86244" lon="2.22683">
        <ele>44.5</ele>
        <time>2022-12-09T15:21:36Z</time>
      </trkpt>
      <trkpt lat="49.86244" lon="2.22683">
        <ele>44.5</ele>
        <time>2022-12-09T15:21:37Z</time>
      </trkpt>
      <trkpt lat="49.86244" lon="2.22683">
        <ele>44.5</ele>
        <time>2022-12-09T15:21:39Z</time>
      </trkpt>
      <trkpt lat="49.86244" lon="2.22683">
        <ele>44.5</ele>
        <time>2022-12-09T15:21:40Z</time>
      </trkpt>
      <trkpt lat="49.86244" lon="2.22684">
        <ele>44.5</ele>
        <time>2022-12-09T15:21:42Z</time>
      </trkpt>
      <trkpt lat="49.86244" lon="2.22684">
        <ele>44.5</ele>
        <time>2022-12-09T15:21:43Z</time>
      </trkpt>
      <trkpt lat="49.86244" lon="2.22685">
        <ele>44.5</ele>
        <time>2022-12-09T15:21:44Z</time>
      </trkpt>
      <trkpt lat="49.86244" lon="2.22685">
        <ele>44.5</ele>
        <time>2022-12-09T15:21:46Z</time>
      </trkpt>
      <trkpt lat="49.86244" lon="2.22685">
        <ele>44.5</ele>
        <time>2022-12-09T15:21:47Z</time>
      </trkpt>
      <trkpt lat="49.86243" lon="2.22685">
        <ele>44.5</ele>
        <time>2022-12-09T15:21:49Z</time>
      </trkpt>
      <trkpt lat="49.86243" lon="2.22685">
        <ele>44.5</ele>
        <time>2022-12-09T15:21:50Z</time>
      </trkpt>
      <trkpt lat="49.86244" lon="2.22686">
        <ele>44.5</ele>
        <time>2022-12-09T15:21:52Z</time>
      </trkpt>
      <trkpt lat="49.86244" lon="2.22686">
        <ele>44.5</ele>
        <time>2022-12-09T15:21:53Z</time>
      </trkpt>
      <trkpt lat="49.86244" lon="2.22686">
        <ele>44.5</ele>
        <time>2022-12-09T15:21:54Z</time>
      </trkpt>
      <trkpt lat="49.86244" lon="2.22686">
        <ele>44.5</ele>
        <time>2022-12-09T15:21:55Z</time>
      </trkpt>
      <trkpt lat="49.86245" lon="2.22685">
        <ele>44.4</ele>
        <time>2022-12-09T15:21:56Z</time>
      </trkpt>
      <trkpt lat="49.86245" lon="2.22685">
        <ele>44.4</ele>
        <time>2022-12-09T15:21:57Z</time>
      </trkpt>
      <trkpt lat="49.86246" lon="2.22684">
        <ele>44.4</ele>
        <time>2022-12-09T15:21:58Z</time>
      </trkpt>
      <trkpt lat="49.86246" lon="2.22684">
        <ele>44.4</ele>
        <time>2022-12-09T15:21:59Z</time>
      </trkpt>
      <trkpt lat="49.86246" lon="2.22684">
        <ele>44.4</ele>
        <time>2022-12-09T15:22:00Z</time>
      </trkpt>
      <trkpt lat="49.86246" lon="2.22684">
        <ele>44.4</ele>
        <time>2022-12-09T15:22:01Z</time>
      </trkpt>
      <trkpt lat="49.86247" lon="2.22684">
        <ele>44.4</ele>
        <time>2022-12-09T15:22:02Z</time>
      </trkpt>
      <trkpt lat="49.86247" lon="2.22684">
        <ele>44.4</ele>
        <time>2022-12-09T15:22:03Z</time>
      </trkpt>
      <trkpt lat="49.86247" lon="2.22684">
        <ele>44.4</ele>
        <time>2022-12-09T15:22:04Z</time>
      </trkpt>
      <trkpt lat="49.86247" lon="2.22684">
        <ele>44.4</ele>
        <time>2022-12-09T15:22:05Z</time>
      </trkpt>
      <trkpt lat="49.86247" lon="2.22684">
        <ele>44.4</ele>
        <time>2022-12-09T15:22:06Z</time>
      </trkpt>
      <trkpt lat="49.86247" lon="2.22684">
        <ele>44.4</ele>
        <time>2022-12-09T15:22:07Z</time>
      </trkpt>
      <trkpt lat="49.86247" lon="2.22684">
        <ele>44.4</ele>
        <time>2022-12-09T15:22:08Z</time>
      </trkpt>
      <trkpt lat="49.86247" lon="2.22684">
        <ele>44.4</ele>
        <time>2022-12-09T15:22:09Z</time>
      </trkpt>
      <trkpt lat="49.86247" lon="2.22684">
        <ele>44.4</ele>
        <time>2022-12-09T15:22:10Z</time>
      </trkpt>
      <trkpt lat="49.86247" lon="2.22684">
        <ele>44.4</ele>
        <time>2022-12-09T15:22:11Z</time>
      </trkpt>
      <trkpt lat="49.86247" lon="2.22684">
        <ele>44.4</ele>
        <time>2022-12-09T15:22:12Z</time>
      </trkpt>
      <trkpt lat="49.86247" lon="2.22684">
        <ele>44.4</ele>
        <time>2022-12-09T15:22:13Z</time>
      </trkpt>
      <trkpt lat="49.86247" lon="2.22684">
        <ele>44.4</ele>
        <time>2022-12-09T15:22:14Z</time>
      </trkpt>
      <trkpt lat="49.86247" lon="2.22684">
        <ele>44.4</ele>
        <time>2022-12-09T15:22:15Z</time>
      </trkpt>
      <trkpt lat="49.86247" lon="2.22684">
        <ele>44.4</ele>
        <time>2022-12-09T15:22:16Z</time>
      </trkpt>
      <trkpt lat="49.86247" lon="2.22684">
        <ele>44.4</ele>
        <time>2022-12-09T15:22:17Z</time>
      </trkpt>
      <trkpt lat="49.86247" lon="2.22684">
        <ele>44.4</ele>
        <time>2022-12-09T15:22:18Z</time>
      </trkpt>
      <trkpt lat="49.86247" lon="2.22684">
        <ele>44.4</ele>
        <time>2022-12-09T15:22:19Z</time>
      </trkpt>
      <trkpt lat="49.86247" lon="2.22684">
        <ele>44.4</ele>
        <time>2022-12-09T15:22:20Z</time>
      </trkpt>
      <trkpt lat="49.86247" lon="2.22685">
        <ele>44.4</ele>
        <time>2022-12-09T15:22:21Z</time>
      </trkpt>
      <trkpt lat="49.86247" lon="2.22686">
        <ele>44.4</ele>
        <time>2022-12-09T15:22:23Z</time>
      </trkpt>
      <trkpt lat="49.86246" lon="2.22686">
        <ele>44.4</ele>
        <time>2022-12-09T15:22:24Z</time>
      </trkpt>
      <trkpt lat="49.86246" lon="2.22686">
        <ele>44.4</ele>
        <time>2022-12-09T15:22:25Z</time>
      </trkpt>
      <trkpt lat="49.86246" lon="2.22686">
        <ele>44.4</ele>
        <time>2022-12-09T15:22:26Z</time>
      </trkpt>
      <trkpt lat="49.86245" lon="2.22686">
        <ele>44.4</ele>
        <time>2022-12-09T15:22:27Z</time>
      </trkpt>
      <trkpt lat="49.86245" lon="2.22686">
        <ele>44.4</ele>
        <time>2022-12-09T15:22:28Z</time>
      </trkpt>
      <trkpt lat="49.86245" lon="2.22686">
        <ele>44.4</ele>
        <time>2022-12-09T15:22:30Z</time>
      </trkpt>
      <trkpt lat="49.86245" lon="2.22687">
        <ele>44.4</ele>
        <time>2022-12-09T15:22:31Z</time>
      </trkpt>
      <trkpt lat="49.86244" lon="2.22687">
        <ele>44.3</ele>
        <time>2022-12-09T15:22:33Z</time>
      </trkpt>
      <trkpt lat="49.86244" lon="2.22687">
        <ele>44.3</ele>
        <time>2022-12-09T15:22:34Z</time>
      </trkpt>
      <trkpt lat="49.86244" lon="2.22687">
        <ele>44.3</ele>
        <time>2022-12-09T15:22:35Z</time>
      </trkpt>
      <trkpt lat="49.86244" lon="2.22686">
        <ele>44.3</ele>
        <time>2022-12-09T15:22:37Z</time>
      </trkpt>
      <trkpt lat="49.86244" lon="2.22686">
        <ele>44.3</ele>
        <time>2022-12-09T15:22:38Z</time>
      </trkpt>
      <trkpt lat="49.86243" lon="2.22686">
        <ele>44.3</ele>
        <time>2022-12-09T15:22:40Z</time>
      </trkpt>
      <trkpt lat="49.86243" lon="2.22686">
        <ele>44.3</ele>
        <time>2022-12-09T15:22:41Z</time>
      </trkpt>
      <trkpt lat="49.86243" lon="2.22686">
        <ele>44.3</ele>
        <time>2022-12-09T15:22:42Z</time>
      </trkpt>
      <trkpt lat="49.86243" lon="2.22686">
        <ele>44.3</ele>
        <time>2022-12-09T15:22:44Z</time>
      </trkpt>
      <trkpt lat="49.86243" lon="2.22686">
        <ele>44.3</ele>
        <time>2022-12-09T15:22:45Z</time>
      </trkpt>
      <trkpt lat="49.86243" lon="2.22686">
        <ele>44.3</ele>
        <time>2022-12-09T15:22:46Z</time>
      </trkpt>
      <trkpt lat="49.86243" lon="2.22686">
        <ele>44.3</ele>
        <time>2022-12-09T15:22:47Z</time>
      </trkpt>
      <trkpt lat="49.86243" lon="2.22686">
        <ele>44.3</ele>
        <time>2022-12-09T15:22:49Z</time>
      </trkpt>
      <trkpt lat="49.86243" lon="2.22686">
        <ele>44.3</ele>
        <time>2022-12-09T15:22:50Z</time>
      </trkpt>
      <trkpt lat="49.86243" lon="2.22686">
        <ele>44.3</ele>
        <time>2022-12-09T15:22:51Z</time>
      </trkpt>
      <trkpt lat="49.86243" lon="2.22686">
        <ele>44.3</ele>
        <time>2022-12-09T15:22:52Z</time>
      </trkpt>
      <trkpt lat="49.86244" lon="2.22685">
        <ele>44.3</ele>
        <time>2022-12-09T15:22:54Z</time>
      </trkpt>
      <trkpt lat="49.86244" lon="2.22685">
        <ele>44.3</ele>
        <time>2022-12-09T15:22:55Z</time>
      </trkpt>
      <trkpt lat="49.86244" lon="2.22685">
        <ele>44.3</ele>
        <time>2022-12-09T15:22:56Z</time>
      </trkpt>
      <trkpt lat="49.86244" lon="2.22685">
        <ele>44.3</ele>
        <time>2022-12-09T15:22:58Z</time>
      </trkpt>
      <trkpt lat="49.86244" lon="2.22685">
        <ele>44.3</ele>
        <time>2022-12-09T15:22:59Z</time>
      </trkpt>
      <trkpt lat="49.86244" lon="2.22685">
        <ele>44.3</ele>
        <time>2022-12-09T15:23:01Z</time>
      </trkpt>
      <trkpt lat="49.86244" lon="2.22685">
        <ele>44.3</ele>
        <time>2022-12-09T15:23:02Z</time>
      </trkpt>
      <trkpt lat="49.86244" lon="2.22685">
        <ele>44.3</ele>
        <time>2022-12-09T15:23:03Z</time>
      </trkpt>
      <trkpt lat="49.86244" lon="2.22685">
        <ele>44.3</ele>
        <time>2022-12-09T15:23:05Z</time>
      </trkpt>
      <trkpt lat="49.86244" lon="2.22685">
        <ele>44.3</ele>
        <time>2022-12-09T15:23:06Z</time>
      </trkpt>
      <trkpt lat="49.86244" lon="2.22685">
        <ele>44.3</ele>
        <time>2022-12-09T15:23:08Z</time>
      </trkpt>
      <trkpt lat="49.86244" lon="2.22685">
        <ele>44.3</ele>
        <time>2022-12-09T15:23:09Z</time>
      </trkpt>
      <trkpt lat="49.86243" lon="2.22685">
        <ele>44.3</ele>
        <time>2022-12-09T15:23:10Z</time>
      </trkpt>
      <trkpt lat="49.86243" lon="2.22685">
        <ele>44.3</ele>
        <time>2022-12-09T15:23:11Z</time>
      </trkpt>
      <trkpt lat="49.86243" lon="2.22685">
        <ele>44.3</ele>
        <time>2022-12-09T15:23:12Z</time>
      </trkpt>
      <trkpt lat="49.86243" lon="2.22685">
        <ele>44.3</ele>
        <time>2022-12-09T15:23:13Z</time>
      </trkpt>
      <trkpt lat="49.86243" lon="2.22685">
        <ele>44.3</ele>
        <time>2022-12-09T15:23:14Z</time>
      </trkpt>
      <trkpt lat="49.86243" lon="2.22685">
        <ele>44.3</ele>
        <time>2022-12-09T15:23:15Z</time>
      </trkpt>
      <trkpt lat="49.86243" lon="2.22685">
        <ele>44.3</ele>
        <time>2022-12-09T15:23:16Z</time>
      </trkpt>
      <trkpt lat="49.86243" lon="2.22685">
        <ele>44.3</ele>
        <time>2022-12-09T15:23:17Z</time>
      </trkpt>
      <trkpt lat="49.86243" lon="2.22685">
        <ele>44.3</ele>
        <time>2022-12-09T15:23:18Z</time>
      </trkpt>
      <trkpt lat="49.86243" lon="2.22685">
        <ele>44.3</ele>
        <time>2022-12-09T15:23:19Z</time>
      </trkpt>
      <trkpt lat="49.86243" lon="2.22685">
        <ele>44.3</ele>
        <time>2022-12-09T15:23:20Z</time>
      </trkpt>
      <trkpt lat="49.86243" lon="2.22685">
        <ele>44.3</ele>
        <time>2022-12-09T15:23:21Z</time>
      </trkpt>
      <trkpt lat="49.86243" lon="2.22685">
        <ele>44.3</ele>
        <time>2022-12-09T15:23:22Z</time>
      </trkpt>
      <trkpt lat="49.86243" lon="2.22685">
        <ele>44.3</ele>
        <time>2022-12-09T15:23:23Z</time>
      </trkpt>
      <trkpt lat="49.86243" lon="2.22685">
        <ele>44.3</ele>
        <time>2022-12-09T15:23:24Z</time>
      </trkpt>
      <trkpt lat="49.86243" lon="2.22685">
        <ele>44.3</ele>
        <time>2022-12-09T15:23:25Z</time>
      </trkpt>
      <trkpt lat="49.86243" lon="2.22685">
        <ele>44.3</ele>
        <time>2022-12-09T15:23:26Z</time>
      </trkpt>
      <trkpt lat="49.86243" lon="2.22685">
        <ele>44.3</ele>
        <time>2022-12-09T15:23:27Z</time>
      </trkpt>
      <trkpt lat="49.86244" lon="2.22685">
        <ele>44.3</ele>
        <time>2022-12-09T15:23:28Z</time>
      </trkpt>
      <trkpt lat="49.86244" lon="2.22686">
        <ele>44.3</ele>
        <time>2022-12-09T15:23:29Z</time>
      </trkpt>
      <trkpt lat="49.86244" lon="2.22686">
        <ele>44.3</ele>
        <time>2022-12-09T15:23:30Z</time>
      </trkpt>
      <trkpt lat="49.86245" lon="2.22687">
        <ele>44.2</ele>
        <time>2022-12-09T15:23:31Z</time>
      </trkpt>
      <trkpt lat="49.86245" lon="2.22687">
        <ele>44.2</ele>
        <time>2022-12-09T15:23:33Z</time>
      </trkpt>
      <trkpt lat="49.86245" lon="2.22687">
        <ele>44.2</ele>
        <time>2022-12-09T15:23:34Z</time>
      </trkpt>
    </trkseg>
  </trk>
</gpx>